<?xml version="1.0" encoding="UTF-8" standalone="no" ?>
<gpx xmlns="http://www.topografix.com/GPX/1/1" xmlns:xsi="http://www.w3.org/2001/XMLSchema-instance" xsi:schemaLocation="http://www.topografix.com/GPX/1/1 http://www.topografix.com/GPX/1/1/gpx.xsd" version="1.1" creator="VisuGPX - https://www.visugpx.com">
  <metadata>
    <name>Boucle en passant vers Quincieux</name>
  </metadata>
  <trk>
    <name><![CDATA[2023 08 05 boucle en passant vers Quincieux]]></name>
    <trkseg>
      <trkpt lat="45.83317" lon="4.70977">
        <ele>361.48535</ele>
        <time>2023-08-05T12:10:32.731Z</time>
      </trkpt>
      <trkpt lat="45.83316" lon="4.70978">
        <ele>360.21005</ele>
        <time>2023-08-05T12:10:43.000Z</time>
      </trkpt>
      <trkpt lat="45.83314" lon="4.70983">
        <ele>359.77554</ele>
        <time>2023-08-05T12:10:45.000Z</time>
      </trkpt>
      <trkpt lat="45.83313" lon="4.70986">
        <ele>359.49396</ele>
        <time>2023-08-05T12:10:46.000Z</time>
      </trkpt>
      <trkpt lat="45.83312" lon="4.70989">
        <ele>359.3674</ele>
        <time>2023-08-05T12:10:47.000Z</time>
      </trkpt>
      <trkpt lat="45.83312" lon="4.70993">
        <ele>359.31812</ele>
        <time>2023-08-05T12:10:48.000Z</time>
      </trkpt>
      <trkpt lat="45.83312" lon="4.70997">
        <ele>359.20633</ele>
        <time>2023-08-05T12:10:49.000Z</time>
      </trkpt>
      <trkpt lat="45.83314" lon="4.71">
        <ele>359.04813</ele>
        <time>2023-08-05T12:10:50.000Z</time>
      </trkpt>
      <trkpt lat="45.83316" lon="4.71001">
        <ele>358.9848</ele>
        <time>2023-08-05T12:10:51.000Z</time>
      </trkpt>
      <trkpt lat="45.83318" lon="4.71002">
        <ele>358.94257</ele>
        <time>2023-08-05T12:10:52.000Z</time>
      </trkpt>
      <trkpt lat="45.8332" lon="4.71004">
        <ele>358.93924</ele>
        <time>2023-08-05T12:10:53.000Z</time>
      </trkpt>
      <trkpt lat="45.83323" lon="4.71004">
        <ele>358.93253</ele>
        <time>2023-08-05T12:10:54.000Z</time>
      </trkpt>
      <trkpt lat="45.83326" lon="4.71004">
        <ele>358.88651</ele>
        <time>2023-08-05T12:10:55.000Z</time>
      </trkpt>
      <trkpt lat="45.8333" lon="4.71004">
        <ele>358.90704</ele>
        <time>2023-08-05T12:10:56.000Z</time>
      </trkpt>
      <trkpt lat="45.83334" lon="4.71004">
        <ele>358.93549</ele>
        <time>2023-08-05T12:10:57.000Z</time>
      </trkpt>
      <trkpt lat="45.83337" lon="4.71004">
        <ele>358.95428</ele>
        <time>2023-08-05T12:10:58.000Z</time>
      </trkpt>
      <trkpt lat="45.83339" lon="4.71004">
        <ele>358.93204</ele>
        <time>2023-08-05T12:10:59.000Z</time>
      </trkpt>
      <trkpt lat="45.83342" lon="4.71003">
        <ele>358.92703</ele>
        <time>2023-08-05T12:11:00.000Z</time>
      </trkpt>
      <trkpt lat="45.83345" lon="4.71003">
        <ele>358.91153</ele>
        <time>2023-08-05T12:11:01.000Z</time>
      </trkpt>
      <trkpt lat="45.83349" lon="4.71002">
        <ele>358.9155</ele>
        <time>2023-08-05T12:11:02.000Z</time>
      </trkpt>
      <trkpt lat="45.83355" lon="4.71">
        <ele>358.80923</ele>
        <time>2023-08-05T12:11:03.000Z</time>
      </trkpt>
      <trkpt lat="45.83358" lon="4.70999">
        <ele>358.80399</ele>
        <time>2023-08-05T12:11:04.000Z</time>
      </trkpt>
      <trkpt lat="45.83362" lon="4.70998">
        <ele>358.78299</ele>
        <time>2023-08-05T12:11:05.000Z</time>
      </trkpt>
      <trkpt lat="45.83365" lon="4.70998">
        <ele>358.76596</ele>
        <time>2023-08-05T12:11:06.000Z</time>
      </trkpt>
      <trkpt lat="45.83369" lon="4.70997">
        <ele>358.73828</ele>
        <time>2023-08-05T12:11:07.000Z</time>
      </trkpt>
      <trkpt lat="45.83372" lon="4.70996">
        <ele>358.64584</ele>
        <time>2023-08-05T12:11:08.000Z</time>
      </trkpt>
      <trkpt lat="45.83377" lon="4.70995">
        <ele>358.59018</ele>
        <time>2023-08-05T12:11:09.000Z</time>
      </trkpt>
      <trkpt lat="45.83381" lon="4.70994">
        <ele>358.5433</ele>
        <time>2023-08-05T12:11:10.000Z</time>
      </trkpt>
      <trkpt lat="45.83385" lon="4.70993">
        <ele>358.46317</ele>
        <time>2023-08-05T12:11:11.000Z</time>
      </trkpt>
      <trkpt lat="45.83389" lon="4.70992">
        <ele>358.38568</ele>
        <time>2023-08-05T12:11:12.000Z</time>
      </trkpt>
      <trkpt lat="45.83393" lon="4.70991">
        <ele>358.28424</ele>
        <time>2023-08-05T12:11:13.000Z</time>
      </trkpt>
      <trkpt lat="45.83397" lon="4.7099">
        <ele>358.17502</ele>
        <time>2023-08-05T12:11:14.000Z</time>
      </trkpt>
      <trkpt lat="45.83402" lon="4.70989">
        <ele>358.18784</ele>
        <time>2023-08-05T12:11:15.000Z</time>
      </trkpt>
      <trkpt lat="45.83406" lon="4.70989">
        <ele>358.15073</ele>
        <time>2023-08-05T12:11:16.000Z</time>
      </trkpt>
      <trkpt lat="45.8341" lon="4.70989">
        <ele>358.07281</ele>
        <time>2023-08-05T12:11:17.000Z</time>
      </trkpt>
      <trkpt lat="45.83415" lon="4.70988">
        <ele>358.01273</ele>
        <time>2023-08-05T12:11:18.000Z</time>
      </trkpt>
      <trkpt lat="45.83419" lon="4.70988">
        <ele>357.98563</ele>
        <time>2023-08-05T12:11:19.000Z</time>
      </trkpt>
      <trkpt lat="45.83424" lon="4.70988">
        <ele>357.85822</ele>
        <time>2023-08-05T12:11:20.000Z</time>
      </trkpt>
      <trkpt lat="45.83429" lon="4.70988">
        <ele>357.7406</ele>
        <time>2023-08-05T12:11:21.000Z</time>
      </trkpt>
      <trkpt lat="45.83435" lon="4.70989">
        <ele>357.6098</ele>
        <time>2023-08-05T12:11:22.000Z</time>
      </trkpt>
      <trkpt lat="45.83441" lon="4.70989">
        <ele>357.43872</ele>
        <time>2023-08-05T12:11:23.000Z</time>
      </trkpt>
      <trkpt lat="45.83447" lon="4.70989">
        <ele>357.31088</ele>
        <time>2023-08-05T12:11:24.000Z</time>
      </trkpt>
      <trkpt lat="45.83454" lon="4.70988">
        <ele>357.19873</ele>
        <time>2023-08-05T12:11:25.000Z</time>
      </trkpt>
      <trkpt lat="45.8346" lon="4.70989">
        <ele>357.08188</ele>
        <time>2023-08-05T12:11:26.000Z</time>
      </trkpt>
      <trkpt lat="45.83467" lon="4.70988">
        <ele>356.94922</ele>
        <time>2023-08-05T12:11:27.000Z</time>
      </trkpt>
      <trkpt lat="45.83474" lon="4.70988">
        <ele>356.87518</ele>
        <time>2023-08-05T12:11:28.000Z</time>
      </trkpt>
      <trkpt lat="45.83481" lon="4.70988">
        <ele>356.78107</ele>
        <time>2023-08-05T12:11:29.000Z</time>
      </trkpt>
      <trkpt lat="45.83488" lon="4.70989">
        <ele>356.7016</ele>
        <time>2023-08-05T12:11:30.000Z</time>
      </trkpt>
      <trkpt lat="45.83496" lon="4.70988">
        <ele>356.57312</ele>
        <time>2023-08-05T12:11:31.000Z</time>
      </trkpt>
      <trkpt lat="45.83502" lon="4.7099">
        <ele>356.44611</ele>
        <time>2023-08-05T12:11:32.000Z</time>
      </trkpt>
      <trkpt lat="45.83509" lon="4.70993">
        <ele>356.30362</ele>
        <time>2023-08-05T12:11:33.000Z</time>
      </trkpt>
      <trkpt lat="45.83515" lon="4.70998">
        <ele>356.1644</ele>
        <time>2023-08-05T12:11:34.000Z</time>
      </trkpt>
      <trkpt lat="45.83521" lon="4.71003">
        <ele>355.92633</ele>
        <time>2023-08-05T12:11:35.000Z</time>
      </trkpt>
      <trkpt lat="45.83527" lon="4.71009">
        <ele>355.42508</ele>
        <time>2023-08-05T12:11:36.000Z</time>
      </trkpt>
      <trkpt lat="45.83532" lon="4.71013">
        <ele>354.94073</ele>
        <time>2023-08-05T12:11:37.000Z</time>
      </trkpt>
      <trkpt lat="45.83538" lon="4.71015">
        <ele>354.42291</ele>
        <time>2023-08-05T12:11:38.000Z</time>
      </trkpt>
      <trkpt lat="45.83543" lon="4.71019">
        <ele>353.89835</ele>
        <time>2023-08-05T12:11:39.000Z</time>
      </trkpt>
      <trkpt lat="45.83548" lon="4.71024">
        <ele>353.45404</ele>
        <time>2023-08-05T12:11:40.000Z</time>
      </trkpt>
      <trkpt lat="45.83553" lon="4.71028">
        <ele>353.02686</ele>
        <time>2023-08-05T12:11:41.000Z</time>
      </trkpt>
      <trkpt lat="45.83559" lon="4.71032">
        <ele>352.60703</ele>
        <time>2023-08-05T12:11:42.000Z</time>
      </trkpt>
      <trkpt lat="45.83564" lon="4.71035">
        <ele>352.21255</ele>
        <time>2023-08-05T12:11:43.000Z</time>
      </trkpt>
      <trkpt lat="45.83569" lon="4.71039">
        <ele>351.81387</ele>
        <time>2023-08-05T12:11:44.000Z</time>
      </trkpt>
      <trkpt lat="45.83574" lon="4.71042">
        <ele>351.43134</ele>
        <time>2023-08-05T12:11:45.000Z</time>
      </trkpt>
      <trkpt lat="45.8358" lon="4.71045">
        <ele>351.06781</ele>
        <time>2023-08-05T12:11:46.000Z</time>
      </trkpt>
      <trkpt lat="45.83586" lon="4.71048">
        <ele>350.68878</ele>
        <time>2023-08-05T12:11:47.000Z</time>
      </trkpt>
      <trkpt lat="45.83591" lon="4.71053">
        <ele>350.31281</ele>
        <time>2023-08-05T12:11:48.000Z</time>
      </trkpt>
      <trkpt lat="45.83596" lon="4.71057">
        <ele>349.94684</ele>
        <time>2023-08-05T12:11:49.000Z</time>
      </trkpt>
      <trkpt lat="45.83601" lon="4.71061">
        <ele>349.5722</ele>
        <time>2023-08-05T12:11:50.000Z</time>
      </trkpt>
      <trkpt lat="45.83607" lon="4.71066">
        <ele>349.23618</ele>
        <time>2023-08-05T12:11:51.000Z</time>
      </trkpt>
      <trkpt lat="45.83613" lon="4.7107">
        <ele>348.88129</ele>
        <time>2023-08-05T12:11:52.000Z</time>
      </trkpt>
      <trkpt lat="45.83618" lon="4.71075">
        <ele>348.54654</ele>
        <time>2023-08-05T12:11:53.000Z</time>
      </trkpt>
      <trkpt lat="45.83623" lon="4.7108">
        <ele>348.23587</ele>
        <time>2023-08-05T12:11:54.000Z</time>
      </trkpt>
      <trkpt lat="45.83628" lon="4.71085">
        <ele>347.91962</ele>
        <time>2023-08-05T12:11:55.000Z</time>
      </trkpt>
      <trkpt lat="45.83635" lon="4.71091">
        <ele>347.85696</ele>
        <time>2023-08-05T12:11:56.000Z</time>
      </trkpt>
      <trkpt lat="45.83641" lon="4.71096">
        <ele>347.80124</ele>
        <time>2023-08-05T12:11:57.000Z</time>
      </trkpt>
      <trkpt lat="45.83648" lon="4.71103">
        <ele>347.74261</ele>
        <time>2023-08-05T12:11:58.000Z</time>
      </trkpt>
      <trkpt lat="45.83654" lon="4.71109">
        <ele>347.67178</ele>
        <time>2023-08-05T12:11:59.000Z</time>
      </trkpt>
      <trkpt lat="45.8366" lon="4.71115">
        <ele>347.61938</ele>
        <time>2023-08-05T12:12:00.000Z</time>
      </trkpt>
      <trkpt lat="45.83666" lon="4.7112">
        <ele>347.5332</ele>
        <time>2023-08-05T12:12:01.000Z</time>
      </trkpt>
      <trkpt lat="45.83672" lon="4.71126">
        <ele>347.38654</ele>
        <time>2023-08-05T12:12:02.000Z</time>
      </trkpt>
      <trkpt lat="45.83678" lon="4.71132">
        <ele>347.24408</ele>
        <time>2023-08-05T12:12:03.000Z</time>
      </trkpt>
      <trkpt lat="45.83685" lon="4.71138">
        <ele>347.08652</ele>
        <time>2023-08-05T12:12:04.000Z</time>
      </trkpt>
      <trkpt lat="45.83692" lon="4.71143">
        <ele>346.89847</ele>
        <time>2023-08-05T12:12:05.000Z</time>
      </trkpt>
      <trkpt lat="45.83697" lon="4.71147">
        <ele>346.65726</ele>
        <time>2023-08-05T12:12:06.000Z</time>
      </trkpt>
      <trkpt lat="45.83698" lon="4.71153">
        <ele>346.44263</ele>
        <time>2023-08-05T12:12:07.000Z</time>
      </trkpt>
      <trkpt lat="45.83698" lon="4.71159">
        <ele>346.37024</ele>
        <time>2023-08-05T12:12:08.000Z</time>
      </trkpt>
      <trkpt lat="45.83697" lon="4.71164">
        <ele>346.28766</ele>
        <time>2023-08-05T12:12:09.000Z</time>
      </trkpt>
      <trkpt lat="45.83694" lon="4.7117">
        <ele>346.23346</ele>
        <time>2023-08-05T12:12:10.000Z</time>
      </trkpt>
      <trkpt lat="45.83692" lon="4.71175">
        <ele>346.20966</ele>
        <time>2023-08-05T12:12:11.000Z</time>
      </trkpt>
      <trkpt lat="45.8369" lon="4.71182">
        <ele>346.16473</ele>
        <time>2023-08-05T12:12:12.000Z</time>
      </trkpt>
      <trkpt lat="45.83689" lon="4.71187">
        <ele>346.12848</ele>
        <time>2023-08-05T12:12:13.000Z</time>
      </trkpt>
      <trkpt lat="45.83687" lon="4.71193">
        <ele>346.02136</ele>
        <time>2023-08-05T12:12:14.000Z</time>
      </trkpt>
      <trkpt lat="45.83685" lon="4.71199">
        <ele>345.91071</ele>
        <time>2023-08-05T12:12:15.000Z</time>
      </trkpt>
      <trkpt lat="45.83682" lon="4.71206">
        <ele>345.81479</ele>
        <time>2023-08-05T12:12:16.000Z</time>
      </trkpt>
      <trkpt lat="45.83682" lon="4.71213">
        <ele>345.73755</ele>
        <time>2023-08-05T12:12:17.000Z</time>
      </trkpt>
      <trkpt lat="45.83681" lon="4.7122">
        <ele>345.69693</ele>
        <time>2023-08-05T12:12:18.000Z</time>
      </trkpt>
      <trkpt lat="45.8368" lon="4.71228">
        <ele>345.76895</ele>
        <time>2023-08-05T12:12:19.000Z</time>
      </trkpt>
      <trkpt lat="45.83679" lon="4.71235">
        <ele>345.88831</ele>
        <time>2023-08-05T12:12:20.000Z</time>
      </trkpt>
      <trkpt lat="45.83676" lon="4.71242">
        <ele>346.01221</ele>
        <time>2023-08-05T12:12:21.000Z</time>
      </trkpt>
      <trkpt lat="45.83674" lon="4.7125">
        <ele>346.03937</ele>
        <time>2023-08-05T12:12:22.000Z</time>
      </trkpt>
      <trkpt lat="45.83673" lon="4.71257">
        <ele>346.06897</ele>
        <time>2023-08-05T12:12:23.000Z</time>
      </trkpt>
      <trkpt lat="45.83672" lon="4.71265">
        <ele>346.1131</ele>
        <time>2023-08-05T12:12:24.000Z</time>
      </trkpt>
      <trkpt lat="45.8367" lon="4.71271">
        <ele>346.18741</ele>
        <time>2023-08-05T12:12:25.000Z</time>
      </trkpt>
      <trkpt lat="45.83668" lon="4.71277">
        <ele>346.28271</ele>
        <time>2023-08-05T12:12:26.000Z</time>
      </trkpt>
      <trkpt lat="45.83668" lon="4.71283">
        <ele>346.53876</ele>
        <time>2023-08-05T12:12:27.000Z</time>
      </trkpt>
      <trkpt lat="45.83666" lon="4.71291">
        <ele>346.65222</ele>
        <time>2023-08-05T12:12:28.000Z</time>
      </trkpt>
      <trkpt lat="45.83664" lon="4.71297">
        <ele>346.74243</ele>
        <time>2023-08-05T12:12:29.000Z</time>
      </trkpt>
      <trkpt lat="45.83663" lon="4.71304">
        <ele>346.6395</ele>
        <time>2023-08-05T12:12:30.000Z</time>
      </trkpt>
      <trkpt lat="45.83661" lon="4.71311">
        <ele>346.59006</ele>
        <time>2023-08-05T12:12:31.000Z</time>
      </trkpt>
      <trkpt lat="45.83659" lon="4.71318">
        <ele>346.58972</ele>
        <time>2023-08-05T12:12:32.000Z</time>
      </trkpt>
      <trkpt lat="45.83658" lon="4.71325">
        <ele>346.58099</ele>
        <time>2023-08-05T12:12:33.000Z</time>
      </trkpt>
      <trkpt lat="45.83656" lon="4.71332">
        <ele>346.73233</ele>
        <time>2023-08-05T12:12:34.000Z</time>
      </trkpt>
      <trkpt lat="45.83655" lon="4.71338">
        <ele>346.93347</ele>
        <time>2023-08-05T12:12:35.000Z</time>
      </trkpt>
      <trkpt lat="45.83653" lon="4.71343">
        <ele>347.1127</ele>
        <time>2023-08-05T12:12:36.000Z</time>
      </trkpt>
      <trkpt lat="45.83651" lon="4.7135">
        <ele>347.07593</ele>
        <time>2023-08-05T12:12:37.000Z</time>
      </trkpt>
      <trkpt lat="45.8365" lon="4.71357">
        <ele>347.04898</ele>
        <time>2023-08-05T12:12:38.000Z</time>
      </trkpt>
      <trkpt lat="45.83649" lon="4.71365">
        <ele>346.93448</ele>
        <time>2023-08-05T12:12:39.000Z</time>
      </trkpt>
      <trkpt lat="45.83648" lon="4.71372">
        <ele>346.75024</ele>
        <time>2023-08-05T12:12:40.000Z</time>
      </trkpt>
      <trkpt lat="45.83646" lon="4.71378">
        <ele>346.60544</ele>
        <time>2023-08-05T12:12:41.000Z</time>
      </trkpt>
      <trkpt lat="45.83645" lon="4.71385">
        <ele>346.59927</ele>
        <time>2023-08-05T12:12:42.000Z</time>
      </trkpt>
      <trkpt lat="45.83643" lon="4.71392">
        <ele>346.57874</ele>
        <time>2023-08-05T12:12:43.000Z</time>
      </trkpt>
      <trkpt lat="45.8364" lon="4.71399">
        <ele>346.53394</ele>
        <time>2023-08-05T12:12:44.000Z</time>
      </trkpt>
      <trkpt lat="45.83638" lon="4.71405">
        <ele>346.49319</ele>
        <time>2023-08-05T12:12:45.000Z</time>
      </trkpt>
      <trkpt lat="45.83637" lon="4.71411">
        <ele>346.46216</ele>
        <time>2023-08-05T12:12:46.000Z</time>
      </trkpt>
      <trkpt lat="45.83636" lon="4.71418">
        <ele>346.29987</ele>
        <time>2023-08-05T12:12:47.000Z</time>
      </trkpt>
      <trkpt lat="45.83634" lon="4.71424">
        <ele>346.10345</ele>
        <time>2023-08-05T12:12:48.000Z</time>
      </trkpt>
      <trkpt lat="45.83632" lon="4.71431">
        <ele>345.95547</ele>
        <time>2023-08-05T12:12:49.000Z</time>
      </trkpt>
      <trkpt lat="45.8363" lon="4.71438">
        <ele>345.99283</ele>
        <time>2023-08-05T12:12:50.000Z</time>
      </trkpt>
      <trkpt lat="45.83628" lon="4.71445">
        <ele>345.97464</ele>
        <time>2023-08-05T12:12:51.000Z</time>
      </trkpt>
      <trkpt lat="45.83626" lon="4.71452">
        <ele>345.91733</ele>
        <time>2023-08-05T12:12:52.000Z</time>
      </trkpt>
      <trkpt lat="45.83624" lon="4.71457">
        <ele>345.84433</ele>
        <time>2023-08-05T12:12:53.000Z</time>
      </trkpt>
      <trkpt lat="45.83622" lon="4.71463">
        <ele>345.66672</ele>
        <time>2023-08-05T12:12:54.000Z</time>
      </trkpt>
      <trkpt lat="45.83619" lon="4.71469">
        <ele>345.46466</ele>
        <time>2023-08-05T12:12:55.000Z</time>
      </trkpt>
      <trkpt lat="45.83616" lon="4.71475">
        <ele>345.31302</ele>
        <time>2023-08-05T12:12:56.000Z</time>
      </trkpt>
      <trkpt lat="45.83612" lon="4.71479">
        <ele>345.34067</ele>
        <time>2023-08-05T12:12:57.000Z</time>
      </trkpt>
      <trkpt lat="45.83608" lon="4.71485">
        <ele>345.35074</ele>
        <time>2023-08-05T12:12:58.000Z</time>
      </trkpt>
      <trkpt lat="45.83606" lon="4.71489">
        <ele>345.32852</ele>
        <time>2023-08-05T12:12:59.000Z</time>
      </trkpt>
      <trkpt lat="45.83606" lon="4.71494">
        <ele>345.384</ele>
        <time>2023-08-05T12:13:00.000Z</time>
      </trkpt>
      <trkpt lat="45.83608" lon="4.715">
        <ele>345.3811</ele>
        <time>2023-08-05T12:13:01.000Z</time>
      </trkpt>
      <trkpt lat="45.8361" lon="4.71506">
        <ele>345.39209</ele>
        <time>2023-08-05T12:13:02.000Z</time>
      </trkpt>
      <trkpt lat="45.8361" lon="4.7151">
        <ele>345.44186</ele>
        <time>2023-08-05T12:13:03.000Z</time>
      </trkpt>
      <trkpt lat="45.83614" lon="4.71518">
        <ele>345.61176</ele>
        <time>2023-08-05T12:13:04.000Z</time>
      </trkpt>
      <trkpt lat="45.83617" lon="4.71524">
        <ele>345.84131</ele>
        <time>2023-08-05T12:13:05.000Z</time>
      </trkpt>
      <trkpt lat="45.8362" lon="4.71533">
        <ele>346.00772</ele>
        <time>2023-08-05T12:13:06.000Z</time>
      </trkpt>
      <trkpt lat="45.8362" lon="4.7154">
        <ele>346.15021</ele>
        <time>2023-08-05T12:13:07.000Z</time>
      </trkpt>
      <trkpt lat="45.8362" lon="4.71546">
        <ele>346.31674</ele>
        <time>2023-08-05T12:13:08.000Z</time>
      </trkpt>
      <trkpt lat="45.8362" lon="4.71551">
        <ele>346.43448</ele>
        <time>2023-08-05T12:13:09.000Z</time>
      </trkpt>
      <trkpt lat="45.8362" lon="4.71557">
        <ele>346.52402</ele>
        <time>2023-08-05T12:13:10.000Z</time>
      </trkpt>
      <trkpt lat="45.83619" lon="4.71563">
        <ele>346.56335</ele>
        <time>2023-08-05T12:13:11.000Z</time>
      </trkpt>
      <trkpt lat="45.8362" lon="4.71568">
        <ele>346.59772</ele>
        <time>2023-08-05T12:13:12.000Z</time>
      </trkpt>
      <trkpt lat="45.83619" lon="4.71574">
        <ele>346.60562</ele>
        <time>2023-08-05T12:13:13.000Z</time>
      </trkpt>
      <trkpt lat="45.83619" lon="4.71579">
        <ele>346.57504</ele>
        <time>2023-08-05T12:13:14.000Z</time>
      </trkpt>
      <trkpt lat="45.83618" lon="4.71584">
        <ele>346.55426</ele>
        <time>2023-08-05T12:13:15.000Z</time>
      </trkpt>
      <trkpt lat="45.83619" lon="4.71588">
        <ele>346.50308</ele>
        <time>2023-08-05T12:13:16.000Z</time>
      </trkpt>
      <trkpt lat="45.83619" lon="4.71591">
        <ele>346.48154</ele>
        <time>2023-08-05T12:13:17.000Z</time>
      </trkpt>
      <trkpt lat="45.8362" lon="4.71596">
        <ele>346.4465</ele>
        <time>2023-08-05T12:13:18.000Z</time>
      </trkpt>
      <trkpt lat="45.83623" lon="4.71601">
        <ele>346.40485</ele>
        <time>2023-08-05T12:13:19.000Z</time>
      </trkpt>
      <trkpt lat="45.83624" lon="4.71607">
        <ele>346.27924</ele>
        <time>2023-08-05T12:13:20.000Z</time>
      </trkpt>
      <trkpt lat="45.83624" lon="4.71613">
        <ele>346.15726</ele>
        <time>2023-08-05T12:13:21.000Z</time>
      </trkpt>
      <trkpt lat="45.83625" lon="4.71618">
        <ele>345.98798</ele>
        <time>2023-08-05T12:13:22.000Z</time>
      </trkpt>
      <trkpt lat="45.83626" lon="4.71624">
        <ele>345.75211</ele>
        <time>2023-08-05T12:13:23.000Z</time>
      </trkpt>
      <trkpt lat="45.83628" lon="4.7163">
        <ele>345.37677</ele>
        <time>2023-08-05T12:13:24.000Z</time>
      </trkpt>
      <trkpt lat="45.83631" lon="4.71636">
        <ele>344.90845</ele>
        <time>2023-08-05T12:13:25.000Z</time>
      </trkpt>
      <trkpt lat="45.83634" lon="4.71639">
        <ele>344.17368</ele>
        <time>2023-08-05T12:13:26.000Z</time>
      </trkpt>
      <trkpt lat="45.83638" lon="4.71645">
        <ele>343.52362</ele>
        <time>2023-08-05T12:13:27.000Z</time>
      </trkpt>
      <trkpt lat="45.83642" lon="4.71648">
        <ele>342.8407</ele>
        <time>2023-08-05T12:13:28.000Z</time>
      </trkpt>
      <trkpt lat="45.83648" lon="4.71652">
        <ele>342.16492</ele>
        <time>2023-08-05T12:13:29.000Z</time>
      </trkpt>
      <trkpt lat="45.83653" lon="4.71654">
        <ele>341.66406</ele>
        <time>2023-08-05T12:13:30.000Z</time>
      </trkpt>
      <trkpt lat="45.83659" lon="4.71655">
        <ele>341.32666</ele>
        <time>2023-08-05T12:13:31.000Z</time>
      </trkpt>
      <trkpt lat="45.83664" lon="4.71656">
        <ele>340.61938</ele>
        <time>2023-08-05T12:13:32.000Z</time>
      </trkpt>
      <trkpt lat="45.83671" lon="4.71656">
        <ele>340.00806</ele>
        <time>2023-08-05T12:13:33.000Z</time>
      </trkpt>
      <trkpt lat="45.83678" lon="4.71657">
        <ele>339.396</ele>
        <time>2023-08-05T12:13:34.000Z</time>
      </trkpt>
      <trkpt lat="45.83684" lon="4.71654">
        <ele>338.64993</ele>
        <time>2023-08-05T12:13:35.000Z</time>
      </trkpt>
      <trkpt lat="45.83689" lon="4.71652">
        <ele>337.90079</ele>
        <time>2023-08-05T12:13:36.000Z</time>
      </trkpt>
      <trkpt lat="45.83694" lon="4.7165">
        <ele>337.39703</ele>
        <time>2023-08-05T12:13:37.000Z</time>
      </trkpt>
      <trkpt lat="45.83699" lon="4.7165">
        <ele>336.83621</ele>
        <time>2023-08-05T12:13:38.000Z</time>
      </trkpt>
      <trkpt lat="45.83705" lon="4.71656">
        <ele>336.26352</ele>
        <time>2023-08-05T12:13:39.000Z</time>
      </trkpt>
      <trkpt lat="45.83709" lon="4.71663">
        <ele>335.30273</ele>
        <time>2023-08-05T12:13:40.000Z</time>
      </trkpt>
      <trkpt lat="45.83713" lon="4.7167">
        <ele>334.5058</ele>
        <time>2023-08-05T12:13:41.000Z</time>
      </trkpt>
      <trkpt lat="45.83717" lon="4.71678">
        <ele>333.21228</ele>
        <time>2023-08-05T12:13:42.000Z</time>
      </trkpt>
      <trkpt lat="45.8372" lon="4.71686">
        <ele>331.71332</ele>
        <time>2023-08-05T12:13:43.000Z</time>
      </trkpt>
      <trkpt lat="45.83723" lon="4.71691">
        <ele>330.2168</ele>
        <time>2023-08-05T12:13:44.000Z</time>
      </trkpt>
      <trkpt lat="45.83725" lon="4.71695">
        <ele>328.72806</ele>
        <time>2023-08-05T12:13:45.000Z</time>
      </trkpt>
      <trkpt lat="45.83727" lon="4.71696">
        <ele>327.57611</ele>
        <time>2023-08-05T12:13:46.000Z</time>
      </trkpt>
      <trkpt lat="45.8373" lon="4.71695">
        <ele>326.37274</ele>
        <time>2023-08-05T12:13:47.000Z</time>
      </trkpt>
      <trkpt lat="45.83735" lon="4.71696">
        <ele>325.24969</ele>
        <time>2023-08-05T12:13:48.000Z</time>
      </trkpt>
      <trkpt lat="45.83738" lon="4.71695">
        <ele>324.18408</ele>
        <time>2023-08-05T12:13:49.000Z</time>
      </trkpt>
      <trkpt lat="45.83742" lon="4.71696">
        <ele>322.98502</ele>
        <time>2023-08-05T12:13:50.000Z</time>
      </trkpt>
      <trkpt lat="45.83744" lon="4.71696">
        <ele>321.71692</ele>
        <time>2023-08-05T12:13:51.000Z</time>
      </trkpt>
      <trkpt lat="45.83747" lon="4.71698">
        <ele>320.84406</ele>
        <time>2023-08-05T12:13:52.000Z</time>
      </trkpt>
      <trkpt lat="45.83751" lon="4.71699">
        <ele>319.90439</ele>
        <time>2023-08-05T12:13:53.000Z</time>
      </trkpt>
      <trkpt lat="45.83754" lon="4.71699">
        <ele>319.03174</ele>
        <time>2023-08-05T12:13:54.000Z</time>
      </trkpt>
      <trkpt lat="45.83756" lon="4.71699">
        <ele>318.22653</ele>
        <time>2023-08-05T12:13:55.000Z</time>
      </trkpt>
      <trkpt lat="45.83759" lon="4.71698">
        <ele>317.44434</ele>
        <time>2023-08-05T12:13:56.000Z</time>
      </trkpt>
      <trkpt lat="45.83761" lon="4.71697">
        <ele>316.39731</ele>
        <time>2023-08-05T12:13:57.000Z</time>
      </trkpt>
      <trkpt lat="45.83764" lon="4.71696">
        <ele>315.44943</ele>
        <time>2023-08-05T12:13:58.000Z</time>
      </trkpt>
      <trkpt lat="45.83767" lon="4.71697">
        <ele>314.57748</ele>
        <time>2023-08-05T12:13:59.000Z</time>
      </trkpt>
      <trkpt lat="45.8377" lon="4.71697">
        <ele>314.11008</ele>
        <time>2023-08-05T12:14:00.000Z</time>
      </trkpt>
      <trkpt lat="45.83772" lon="4.71698">
        <ele>313.53351</ele>
        <time>2023-08-05T12:14:01.000Z</time>
      </trkpt>
      <trkpt lat="45.83775" lon="4.71699">
        <ele>313.47354</ele>
        <time>2023-08-05T12:14:02.000Z</time>
      </trkpt>
      <trkpt lat="45.83778" lon="4.717">
        <ele>313.67389</ele>
        <time>2023-08-05T12:14:03.000Z</time>
      </trkpt>
      <trkpt lat="45.8378" lon="4.717">
        <ele>313.94739</ele>
        <time>2023-08-05T12:14:04.000Z</time>
      </trkpt>
      <trkpt lat="45.83783" lon="4.71701">
        <ele>314.22894</ele>
        <time>2023-08-05T12:14:05.000Z</time>
      </trkpt>
      <trkpt lat="45.83786" lon="4.71701">
        <ele>314.55087</ele>
        <time>2023-08-05T12:14:06.000Z</time>
      </trkpt>
      <trkpt lat="45.83789" lon="4.71702">
        <ele>314.81158</ele>
        <time>2023-08-05T12:14:07.000Z</time>
      </trkpt>
      <trkpt lat="45.83791" lon="4.71703">
        <ele>315.03351</ele>
        <time>2023-08-05T12:14:08.000Z</time>
      </trkpt>
      <trkpt lat="45.83794" lon="4.71705">
        <ele>315.22131</ele>
        <time>2023-08-05T12:14:09.000Z</time>
      </trkpt>
      <trkpt lat="45.83796" lon="4.71707">
        <ele>315.38251</ele>
        <time>2023-08-05T12:14:10.000Z</time>
      </trkpt>
      <trkpt lat="45.838" lon="4.71708">
        <ele>315.48465</ele>
        <time>2023-08-05T12:14:11.000Z</time>
      </trkpt>
      <trkpt lat="45.83802" lon="4.71709">
        <ele>315.64655</ele>
        <time>2023-08-05T12:14:12.000Z</time>
      </trkpt>
      <trkpt lat="45.83805" lon="4.7171">
        <ele>315.81323</ele>
        <time>2023-08-05T12:14:13.000Z</time>
      </trkpt>
      <trkpt lat="45.83808" lon="4.7171">
        <ele>315.96805</ele>
        <time>2023-08-05T12:14:14.000Z</time>
      </trkpt>
      <trkpt lat="45.83811" lon="4.71711">
        <ele>316.14236</ele>
        <time>2023-08-05T12:14:15.000Z</time>
      </trkpt>
      <trkpt lat="45.83814" lon="4.71712">
        <ele>316.31125</ele>
        <time>2023-08-05T12:14:16.000Z</time>
      </trkpt>
      <trkpt lat="45.83817" lon="4.71713">
        <ele>316.53552</ele>
        <time>2023-08-05T12:14:17.000Z</time>
      </trkpt>
      <trkpt lat="45.8382" lon="4.71715">
        <ele>316.71936</ele>
        <time>2023-08-05T12:14:18.000Z</time>
      </trkpt>
      <trkpt lat="45.83823" lon="4.71716">
        <ele>316.89374</ele>
        <time>2023-08-05T12:14:19.000Z</time>
      </trkpt>
      <trkpt lat="45.83826" lon="4.71716">
        <ele>317.0433</ele>
        <time>2023-08-05T12:14:20.000Z</time>
      </trkpt>
      <trkpt lat="45.83829" lon="4.71717">
        <ele>317.16446</ele>
        <time>2023-08-05T12:14:21.000Z</time>
      </trkpt>
      <trkpt lat="45.83833" lon="4.71718">
        <ele>317.28912</ele>
        <time>2023-08-05T12:14:22.000Z</time>
      </trkpt>
      <trkpt lat="45.83836" lon="4.71719">
        <ele>317.37213</ele>
        <time>2023-08-05T12:14:23.000Z</time>
      </trkpt>
      <trkpt lat="45.8384" lon="4.7172">
        <ele>317.44855</ele>
        <time>2023-08-05T12:14:24.000Z</time>
      </trkpt>
      <trkpt lat="45.83844" lon="4.71721">
        <ele>317.50931</ele>
        <time>2023-08-05T12:14:25.000Z</time>
      </trkpt>
      <trkpt lat="45.83847" lon="4.71722">
        <ele>317.55963</ele>
        <time>2023-08-05T12:14:26.000Z</time>
      </trkpt>
      <trkpt lat="45.83851" lon="4.71723">
        <ele>317.62396</ele>
        <time>2023-08-05T12:14:27.000Z</time>
      </trkpt>
      <trkpt lat="45.83854" lon="4.71724">
        <ele>317.68866</ele>
        <time>2023-08-05T12:14:28.000Z</time>
      </trkpt>
      <trkpt lat="45.83857" lon="4.71725">
        <ele>317.77197</ele>
        <time>2023-08-05T12:14:29.000Z</time>
      </trkpt>
      <trkpt lat="45.8386" lon="4.71725">
        <ele>317.86932</ele>
        <time>2023-08-05T12:14:30.000Z</time>
      </trkpt>
      <trkpt lat="45.83863" lon="4.71726">
        <ele>318.8645</ele>
        <time>2023-08-05T12:14:31.000Z</time>
      </trkpt>
      <trkpt lat="45.83866" lon="4.71728">
        <ele>319.82364</ele>
        <time>2023-08-05T12:14:32.000Z</time>
      </trkpt>
      <trkpt lat="45.83869" lon="4.71729">
        <ele>320.79306</ele>
        <time>2023-08-05T12:14:33.000Z</time>
      </trkpt>
      <trkpt lat="45.83873" lon="4.7173">
        <ele>321.43185</ele>
        <time>2023-08-05T12:14:34.000Z</time>
      </trkpt>
      <trkpt lat="45.83876" lon="4.71731">
        <ele>322.14072</ele>
        <time>2023-08-05T12:14:35.000Z</time>
      </trkpt>
      <trkpt lat="45.83879" lon="4.71732">
        <ele>322.84619</ele>
        <time>2023-08-05T12:14:36.000Z</time>
      </trkpt>
      <trkpt lat="45.83882" lon="4.71733">
        <ele>323.49902</ele>
        <time>2023-08-05T12:14:37.000Z</time>
      </trkpt>
      <trkpt lat="45.83884" lon="4.71734">
        <ele>324.17184</ele>
        <time>2023-08-05T12:14:38.000Z</time>
      </trkpt>
      <trkpt lat="45.83887" lon="4.71734">
        <ele>324.79282</ele>
        <time>2023-08-05T12:14:39.000Z</time>
      </trkpt>
      <trkpt lat="45.83889" lon="4.71734">
        <ele>325.46558</ele>
        <time>2023-08-05T12:14:40.000Z</time>
      </trkpt>
      <trkpt lat="45.83891" lon="4.71735">
        <ele>326.16165</ele>
        <time>2023-08-05T12:14:41.000Z</time>
      </trkpt>
      <trkpt lat="45.83894" lon="4.71737">
        <ele>326.90714</ele>
        <time>2023-08-05T12:14:42.000Z</time>
      </trkpt>
      <trkpt lat="45.83896" lon="4.71739">
        <ele>327.66074</ele>
        <time>2023-08-05T12:14:43.000Z</time>
      </trkpt>
      <trkpt lat="45.83898" lon="4.7174">
        <ele>328.37109</ele>
        <time>2023-08-05T12:14:44.000Z</time>
      </trkpt>
      <trkpt lat="45.83901" lon="4.71741">
        <ele>329.08282</ele>
        <time>2023-08-05T12:14:45.000Z</time>
      </trkpt>
      <trkpt lat="45.83903" lon="4.71742">
        <ele>329.79477</ele>
        <time>2023-08-05T12:14:46.000Z</time>
      </trkpt>
      <trkpt lat="45.83907" lon="4.71743">
        <ele>330.55017</ele>
        <time>2023-08-05T12:14:47.000Z</time>
      </trkpt>
      <trkpt lat="45.8391" lon="4.71745">
        <ele>331.28848</ele>
        <time>2023-08-05T12:14:48.000Z</time>
      </trkpt>
      <trkpt lat="45.83912" lon="4.71746">
        <ele>332.03107</ele>
        <time>2023-08-05T12:14:49.000Z</time>
      </trkpt>
      <trkpt lat="45.83915" lon="4.71747">
        <ele>332.76666</ele>
        <time>2023-08-05T12:14:50.000Z</time>
      </trkpt>
      <trkpt lat="45.83918" lon="4.71749">
        <ele>332.64246</ele>
        <time>2023-08-05T12:14:51.000Z</time>
      </trkpt>
      <trkpt lat="45.83921" lon="4.7175">
        <ele>332.47491</ele>
        <time>2023-08-05T12:14:52.000Z</time>
      </trkpt>
      <trkpt lat="45.83925" lon="4.71751">
        <ele>332.302</ele>
        <time>2023-08-05T12:14:53.000Z</time>
      </trkpt>
      <trkpt lat="45.83928" lon="4.71753">
        <ele>332.44888</ele>
        <time>2023-08-05T12:14:54.000Z</time>
      </trkpt>
      <trkpt lat="45.83931" lon="4.71755">
        <ele>332.54672</ele>
        <time>2023-08-05T12:14:55.000Z</time>
      </trkpt>
      <trkpt lat="45.83934" lon="4.71757">
        <ele>332.66373</ele>
        <time>2023-08-05T12:14:56.000Z</time>
      </trkpt>
      <trkpt lat="45.83937" lon="4.7176">
        <ele>332.80975</ele>
        <time>2023-08-05T12:14:57.000Z</time>
      </trkpt>
      <trkpt lat="45.8394" lon="4.71762">
        <ele>333.01813</ele>
        <time>2023-08-05T12:14:58.000Z</time>
      </trkpt>
      <trkpt lat="45.83942" lon="4.71766">
        <ele>333.25217</ele>
        <time>2023-08-05T12:14:59.000Z</time>
      </trkpt>
      <trkpt lat="45.83944" lon="4.7177">
        <ele>333.45599</ele>
        <time>2023-08-05T12:15:00.000Z</time>
      </trkpt>
      <trkpt lat="45.83946" lon="4.71774">
        <ele>333.62323</ele>
        <time>2023-08-05T12:15:01.000Z</time>
      </trkpt>
      <trkpt lat="45.83947" lon="4.71778">
        <ele>333.75519</ele>
        <time>2023-08-05T12:15:02.000Z</time>
      </trkpt>
      <trkpt lat="45.83948" lon="4.71783">
        <ele>333.91266</ele>
        <time>2023-08-05T12:15:03.000Z</time>
      </trkpt>
      <trkpt lat="45.83949" lon="4.71787">
        <ele>334.04346</ele>
        <time>2023-08-05T12:15:04.000Z</time>
      </trkpt>
      <trkpt lat="45.8395" lon="4.71791">
        <ele>334.17538</ele>
        <time>2023-08-05T12:15:05.000Z</time>
      </trkpt>
      <trkpt lat="45.83951" lon="4.71795">
        <ele>334.27872</ele>
        <time>2023-08-05T12:15:06.000Z</time>
      </trkpt>
      <trkpt lat="45.83951" lon="4.718">
        <ele>334.36832</ele>
        <time>2023-08-05T12:15:07.000Z</time>
      </trkpt>
      <trkpt lat="45.83953" lon="4.71804">
        <ele>334.5932</ele>
        <time>2023-08-05T12:15:08.000Z</time>
      </trkpt>
      <trkpt lat="45.83954" lon="4.71808">
        <ele>334.87756</ele>
        <time>2023-08-05T12:15:09.000Z</time>
      </trkpt>
      <trkpt lat="45.83957" lon="4.71813">
        <ele>335.17792</ele>
        <time>2023-08-05T12:15:10.000Z</time>
      </trkpt>
      <trkpt lat="45.8396" lon="4.71817">
        <ele>335.10956</ele>
        <time>2023-08-05T12:15:11.000Z</time>
      </trkpt>
      <trkpt lat="45.83962" lon="4.7182">
        <ele>335.16803</ele>
        <time>2023-08-05T12:15:12.000Z</time>
      </trkpt>
      <trkpt lat="45.83964" lon="4.71823">
        <ele>335.20029</ele>
        <time>2023-08-05T12:15:13.000Z</time>
      </trkpt>
      <trkpt lat="45.83966" lon="4.71826">
        <ele>335.20789</ele>
        <time>2023-08-05T12:15:14.000Z</time>
      </trkpt>
      <trkpt lat="45.83968" lon="4.71829">
        <ele>335.23907</ele>
        <time>2023-08-05T12:15:15.000Z</time>
      </trkpt>
      <trkpt lat="45.8397" lon="4.71832">
        <ele>335.28125</ele>
        <time>2023-08-05T12:15:16.000Z</time>
      </trkpt>
      <trkpt lat="45.83971" lon="4.71836">
        <ele>335.32687</ele>
        <time>2023-08-05T12:15:17.000Z</time>
      </trkpt>
      <trkpt lat="45.83973" lon="4.71839">
        <ele>335.3468</ele>
        <time>2023-08-05T12:15:18.000Z</time>
      </trkpt>
      <trkpt lat="45.83975" lon="4.71842">
        <ele>335.40155</ele>
        <time>2023-08-05T12:15:19.000Z</time>
      </trkpt>
      <trkpt lat="45.83977" lon="4.71847">
        <ele>335.47296</ele>
        <time>2023-08-05T12:15:20.000Z</time>
      </trkpt>
      <trkpt lat="45.83979" lon="4.71851">
        <ele>335.57193</ele>
        <time>2023-08-05T12:15:21.000Z</time>
      </trkpt>
      <trkpt lat="45.83982" lon="4.71855">
        <ele>335.62482</ele>
        <time>2023-08-05T12:15:22.000Z</time>
      </trkpt>
      <trkpt lat="45.83984" lon="4.71859">
        <ele>335.62363</ele>
        <time>2023-08-05T12:15:23.000Z</time>
      </trkpt>
      <trkpt lat="45.83987" lon="4.71862">
        <ele>335.72449</ele>
        <time>2023-08-05T12:15:24.000Z</time>
      </trkpt>
      <trkpt lat="45.8399" lon="4.71866">
        <ele>335.77554</ele>
        <time>2023-08-05T12:15:25.000Z</time>
      </trkpt>
      <trkpt lat="45.83993" lon="4.7187">
        <ele>336.0054</ele>
        <time>2023-08-05T12:15:26.000Z</time>
      </trkpt>
      <trkpt lat="45.83995" lon="4.71873">
        <ele>336.31296</ele>
        <time>2023-08-05T12:15:27.000Z</time>
      </trkpt>
      <trkpt lat="45.83998" lon="4.71878">
        <ele>336.16934</ele>
        <time>2023-08-05T12:15:28.000Z</time>
      </trkpt>
      <trkpt lat="45.84" lon="4.71882">
        <ele>336.02219</ele>
        <time>2023-08-05T12:15:29.000Z</time>
      </trkpt>
      <trkpt lat="45.84003" lon="4.71886">
        <ele>335.853</ele>
        <time>2023-08-05T12:15:30.000Z</time>
      </trkpt>
      <trkpt lat="45.84005" lon="4.71891">
        <ele>335.99493</ele>
        <time>2023-08-05T12:15:31.000Z</time>
      </trkpt>
      <trkpt lat="45.84006" lon="4.71897">
        <ele>336.00897</ele>
        <time>2023-08-05T12:15:32.000Z</time>
      </trkpt>
      <trkpt lat="45.84007" lon="4.71904">
        <ele>336.05847</ele>
        <time>2023-08-05T12:15:33.000Z</time>
      </trkpt>
      <trkpt lat="45.84006" lon="4.71912">
        <ele>336.26645</ele>
        <time>2023-08-05T12:15:34.000Z</time>
      </trkpt>
      <trkpt lat="45.84006" lon="4.71919">
        <ele>336.4444</ele>
        <time>2023-08-05T12:15:35.000Z</time>
      </trkpt>
      <trkpt lat="45.84006" lon="4.71927">
        <ele>336.57962</ele>
        <time>2023-08-05T12:15:36.000Z</time>
      </trkpt>
      <trkpt lat="45.84007" lon="4.71935">
        <ele>336.68155</ele>
        <time>2023-08-05T12:15:37.000Z</time>
      </trkpt>
      <trkpt lat="45.84007" lon="4.71944">
        <ele>336.7323</ele>
        <time>2023-08-05T12:15:38.000Z</time>
      </trkpt>
      <trkpt lat="45.84007" lon="4.71954">
        <ele>336.73804</ele>
        <time>2023-08-05T12:15:39.000Z</time>
      </trkpt>
      <trkpt lat="45.84008" lon="4.71963">
        <ele>336.73764</ele>
        <time>2023-08-05T12:15:40.000Z</time>
      </trkpt>
      <trkpt lat="45.84009" lon="4.71973">
        <ele>336.70483</ele>
        <time>2023-08-05T12:15:41.000Z</time>
      </trkpt>
      <trkpt lat="45.84009" lon="4.71983">
        <ele>336.71194</ele>
        <time>2023-08-05T12:15:42.000Z</time>
      </trkpt>
      <trkpt lat="45.84011" lon="4.71993">
        <ele>336.73975</ele>
        <time>2023-08-05T12:15:43.000Z</time>
      </trkpt>
      <trkpt lat="45.84011" lon="4.72004">
        <ele>336.69421</ele>
        <time>2023-08-05T12:15:44.000Z</time>
      </trkpt>
      <trkpt lat="45.84012" lon="4.72014">
        <ele>336.69556</ele>
        <time>2023-08-05T12:15:45.000Z</time>
      </trkpt>
      <trkpt lat="45.84012" lon="4.72024">
        <ele>336.64972</ele>
        <time>2023-08-05T12:15:46.000Z</time>
      </trkpt>
      <trkpt lat="45.84014" lon="4.72034">
        <ele>336.10614</ele>
        <time>2023-08-05T12:15:47.000Z</time>
      </trkpt>
      <trkpt lat="45.84014" lon="4.72044">
        <ele>335.94806</ele>
        <time>2023-08-05T12:15:48.000Z</time>
      </trkpt>
      <trkpt lat="45.84014" lon="4.72054">
        <ele>335.71182</ele>
        <time>2023-08-05T12:15:49.000Z</time>
      </trkpt>
      <trkpt lat="45.84015" lon="4.72063">
        <ele>335.45731</ele>
        <time>2023-08-05T12:15:50.000Z</time>
      </trkpt>
      <trkpt lat="45.84015" lon="4.72073">
        <ele>335.21576</ele>
        <time>2023-08-05T12:15:51.000Z</time>
      </trkpt>
      <trkpt lat="45.84016" lon="4.72081">
        <ele>334.9801</ele>
        <time>2023-08-05T12:15:52.000Z</time>
      </trkpt>
      <trkpt lat="45.84016" lon="4.7209">
        <ele>334.72919</ele>
        <time>2023-08-05T12:15:53.000Z</time>
      </trkpt>
      <trkpt lat="45.84017" lon="4.72098">
        <ele>334.33218</ele>
        <time>2023-08-05T12:15:54.000Z</time>
      </trkpt>
      <trkpt lat="45.84018" lon="4.72107">
        <ele>333.49576</ele>
        <time>2023-08-05T12:15:55.000Z</time>
      </trkpt>
      <trkpt lat="45.84019" lon="4.72115">
        <ele>332.66901</ele>
        <time>2023-08-05T12:15:56.000Z</time>
      </trkpt>
      <trkpt lat="45.84019" lon="4.72122">
        <ele>331.83774</ele>
        <time>2023-08-05T12:15:57.000Z</time>
      </trkpt>
      <trkpt lat="45.8402" lon="4.72129">
        <ele>331.02423</ele>
        <time>2023-08-05T12:15:58.000Z</time>
      </trkpt>
      <trkpt lat="45.84021" lon="4.72136">
        <ele>330.23795</ele>
        <time>2023-08-05T12:15:59.000Z</time>
      </trkpt>
      <trkpt lat="45.8402" lon="4.72142">
        <ele>329.46695</ele>
        <time>2023-08-05T12:16:00.000Z</time>
      </trkpt>
      <trkpt lat="45.8402" lon="4.72149">
        <ele>328.72406</ele>
        <time>2023-08-05T12:16:01.000Z</time>
      </trkpt>
      <trkpt lat="45.84018" lon="4.72155">
        <ele>327.97174</ele>
        <time>2023-08-05T12:16:02.000Z</time>
      </trkpt>
      <trkpt lat="45.84016" lon="4.7216">
        <ele>327.26871</ele>
        <time>2023-08-05T12:16:03.000Z</time>
      </trkpt>
      <trkpt lat="45.84012" lon="4.72163">
        <ele>326.55688</ele>
        <time>2023-08-05T12:16:04.000Z</time>
      </trkpt>
      <trkpt lat="45.84007" lon="4.72165">
        <ele>325.87024</ele>
        <time>2023-08-05T12:16:05.000Z</time>
      </trkpt>
      <trkpt lat="45.84003" lon="4.72166">
        <ele>325.06055</ele>
        <time>2023-08-05T12:16:06.000Z</time>
      </trkpt>
      <trkpt lat="45.83999" lon="4.72166">
        <ele>324.67188</ele>
        <time>2023-08-05T12:16:07.000Z</time>
      </trkpt>
      <trkpt lat="45.83995" lon="4.72167">
        <ele>324.71771</ele>
        <time>2023-08-05T12:16:08.000Z</time>
      </trkpt>
      <trkpt lat="45.8399" lon="4.72167">
        <ele>324.74316</ele>
        <time>2023-08-05T12:16:09.000Z</time>
      </trkpt>
      <trkpt lat="45.83986" lon="4.72167">
        <ele>324.79419</ele>
        <time>2023-08-05T12:16:10.000Z</time>
      </trkpt>
      <trkpt lat="45.8398" lon="4.72166">
        <ele>324.87366</ele>
        <time>2023-08-05T12:16:11.000Z</time>
      </trkpt>
      <trkpt lat="45.83975" lon="4.72166">
        <ele>325.02252</ele>
        <time>2023-08-05T12:16:12.000Z</time>
      </trkpt>
      <trkpt lat="45.83972" lon="4.72164">
        <ele>325.1879</ele>
        <time>2023-08-05T12:16:13.000Z</time>
      </trkpt>
      <trkpt lat="45.83967" lon="4.72162">
        <ele>325.2908</ele>
        <time>2023-08-05T12:16:14.000Z</time>
      </trkpt>
      <trkpt lat="45.83963" lon="4.72162">
        <ele>325.84369</ele>
        <time>2023-08-05T12:16:15.000Z</time>
      </trkpt>
      <trkpt lat="45.83957" lon="4.72161">
        <ele>326.3898</ele>
        <time>2023-08-05T12:16:16.000Z</time>
      </trkpt>
      <trkpt lat="45.83952" lon="4.7216">
        <ele>326.90482</ele>
        <time>2023-08-05T12:16:17.000Z</time>
      </trkpt>
      <trkpt lat="45.8395" lon="4.72159">
        <ele>327.43704</ele>
        <time>2023-08-05T12:16:18.000Z</time>
      </trkpt>
      <trkpt lat="45.83946" lon="4.72159">
        <ele>327.95163</ele>
        <time>2023-08-05T12:16:19.000Z</time>
      </trkpt>
      <trkpt lat="45.83944" lon="4.72158">
        <ele>328.45999</ele>
        <time>2023-08-05T12:16:20.000Z</time>
      </trkpt>
      <trkpt lat="45.83941" lon="4.72158">
        <ele>329.14063</ele>
        <time>2023-08-05T12:16:21.000Z</time>
      </trkpt>
      <trkpt lat="45.83939" lon="4.72158">
        <ele>329.82312</ele>
        <time>2023-08-05T12:16:22.000Z</time>
      </trkpt>
      <trkpt lat="45.83937" lon="4.7216">
        <ele>330.46915</ele>
        <time>2023-08-05T12:16:23.000Z</time>
      </trkpt>
      <trkpt lat="45.83935" lon="4.72162">
        <ele>331.13846</ele>
        <time>2023-08-05T12:16:24.000Z</time>
      </trkpt>
      <trkpt lat="45.83935" lon="4.72165">
        <ele>331.92865</ele>
        <time>2023-08-05T12:16:25.000Z</time>
      </trkpt>
      <trkpt lat="45.83938" lon="4.72168">
        <ele>332.34564</ele>
        <time>2023-08-05T12:16:26.000Z</time>
      </trkpt>
      <trkpt lat="45.8394" lon="4.72171">
        <ele>332.80765</ele>
        <time>2023-08-05T12:16:27.000Z</time>
      </trkpt>
      <trkpt lat="45.83944" lon="4.72174">
        <ele>332.79434</ele>
        <time>2023-08-05T12:16:28.000Z</time>
      </trkpt>
      <trkpt lat="45.83946" lon="4.72178">
        <ele>332.7916</ele>
        <time>2023-08-05T12:16:29.000Z</time>
      </trkpt>
      <trkpt lat="45.83949" lon="4.72182">
        <ele>332.80753</ele>
        <time>2023-08-05T12:16:30.000Z</time>
      </trkpt>
      <trkpt lat="45.83952" lon="4.72186">
        <ele>332.81476</ele>
        <time>2023-08-05T12:16:31.000Z</time>
      </trkpt>
      <trkpt lat="45.83955" lon="4.72191">
        <ele>332.77081</ele>
        <time>2023-08-05T12:16:32.000Z</time>
      </trkpt>
      <trkpt lat="45.83957" lon="4.72196">
        <ele>332.7287</ele>
        <time>2023-08-05T12:16:33.000Z</time>
      </trkpt>
      <trkpt lat="45.83959" lon="4.72201">
        <ele>332.73737</ele>
        <time>2023-08-05T12:16:34.000Z</time>
      </trkpt>
      <trkpt lat="45.83962" lon="4.72205">
        <ele>332.75745</ele>
        <time>2023-08-05T12:16:35.000Z</time>
      </trkpt>
      <trkpt lat="45.83964" lon="4.7221">
        <ele>332.74063</ele>
        <time>2023-08-05T12:16:36.000Z</time>
      </trkpt>
      <trkpt lat="45.83967" lon="4.72215">
        <ele>332.79645</ele>
        <time>2023-08-05T12:16:37.000Z</time>
      </trkpt>
      <trkpt lat="45.83968" lon="4.7222">
        <ele>333.11972</ele>
        <time>2023-08-05T12:16:38.000Z</time>
      </trkpt>
      <trkpt lat="45.83971" lon="4.72225">
        <ele>332.7923</ele>
        <time>2023-08-05T12:16:39.000Z</time>
      </trkpt>
      <trkpt lat="45.83973" lon="4.7223">
        <ele>332.26709</ele>
        <time>2023-08-05T12:16:40.000Z</time>
      </trkpt>
      <trkpt lat="45.83975" lon="4.72235">
        <ele>331.55591</ele>
        <time>2023-08-05T12:16:41.000Z</time>
      </trkpt>
      <trkpt lat="45.83977" lon="4.7224">
        <ele>330.84589</ele>
        <time>2023-08-05T12:16:42.000Z</time>
      </trkpt>
      <trkpt lat="45.8398" lon="4.72245">
        <ele>330.12149</ele>
        <time>2023-08-05T12:16:43.000Z</time>
      </trkpt>
      <trkpt lat="45.83983" lon="4.72251">
        <ele>329.39191</ele>
        <time>2023-08-05T12:16:44.000Z</time>
      </trkpt>
      <trkpt lat="45.83986" lon="4.72257">
        <ele>328.51129</ele>
        <time>2023-08-05T12:16:45.000Z</time>
      </trkpt>
      <trkpt lat="45.83989" lon="4.72262">
        <ele>327.99551</ele>
        <time>2023-08-05T12:16:46.000Z</time>
      </trkpt>
      <trkpt lat="45.83991" lon="4.72268">
        <ele>327.40903</ele>
        <time>2023-08-05T12:16:47.000Z</time>
      </trkpt>
      <trkpt lat="45.83994" lon="4.72273">
        <ele>326.80692</ele>
        <time>2023-08-05T12:16:48.000Z</time>
      </trkpt>
      <trkpt lat="45.83997" lon="4.72278">
        <ele>326.19336</ele>
        <time>2023-08-05T12:16:49.000Z</time>
      </trkpt>
      <trkpt lat="45.83999" lon="4.72284">
        <ele>325.53574</ele>
        <time>2023-08-05T12:16:50.000Z</time>
      </trkpt>
      <trkpt lat="45.84002" lon="4.72289">
        <ele>324.84665</ele>
        <time>2023-08-05T12:16:51.000Z</time>
      </trkpt>
      <trkpt lat="45.84005" lon="4.72295">
        <ele>324.13589</ele>
        <time>2023-08-05T12:16:52.000Z</time>
      </trkpt>
      <trkpt lat="45.84007" lon="4.72299">
        <ele>323.40057</ele>
        <time>2023-08-05T12:16:53.000Z</time>
      </trkpt>
      <trkpt lat="45.8401" lon="4.72305">
        <ele>322.65585</ele>
        <time>2023-08-05T12:16:54.000Z</time>
      </trkpt>
      <trkpt lat="45.84011" lon="4.7231">
        <ele>321.88474</ele>
        <time>2023-08-05T12:16:55.000Z</time>
      </trkpt>
      <trkpt lat="45.84009" lon="4.72316">
        <ele>321.15747</ele>
        <time>2023-08-05T12:16:56.000Z</time>
      </trkpt>
      <trkpt lat="45.84006" lon="4.72321">
        <ele>320.40674</ele>
        <time>2023-08-05T12:16:57.000Z</time>
      </trkpt>
      <trkpt lat="45.84003" lon="4.72327">
        <ele>319.34589</ele>
        <time>2023-08-05T12:16:58.000Z</time>
      </trkpt>
      <trkpt lat="45.83997" lon="4.72331">
        <ele>318.93536</ele>
        <time>2023-08-05T12:16:59.000Z</time>
      </trkpt>
      <trkpt lat="45.83992" lon="4.72334">
        <ele>318.66791</ele>
        <time>2023-08-05T12:17:00.000Z</time>
      </trkpt>
      <trkpt lat="45.83989" lon="4.72339">
        <ele>318.40359</ele>
        <time>2023-08-05T12:17:01.000Z</time>
      </trkpt>
      <trkpt lat="45.83983" lon="4.72343">
        <ele>318.15594</ele>
        <time>2023-08-05T12:17:02.000Z</time>
      </trkpt>
      <trkpt lat="45.83978" lon="4.72347">
        <ele>317.94263</ele>
        <time>2023-08-05T12:17:03.000Z</time>
      </trkpt>
      <trkpt lat="45.83974" lon="4.72352">
        <ele>317.72089</ele>
        <time>2023-08-05T12:17:04.000Z</time>
      </trkpt>
      <trkpt lat="45.83969" lon="4.72357">
        <ele>317.45407</ele>
        <time>2023-08-05T12:17:05.000Z</time>
      </trkpt>
      <trkpt lat="45.83964" lon="4.72363">
        <ele>317.96579</ele>
        <time>2023-08-05T12:17:06.000Z</time>
      </trkpt>
      <trkpt lat="45.83959" lon="4.72368">
        <ele>318.43954</ele>
        <time>2023-08-05T12:17:07.000Z</time>
      </trkpt>
      <trkpt lat="45.83953" lon="4.72372">
        <ele>318.89536</ele>
        <time>2023-08-05T12:17:08.000Z</time>
      </trkpt>
      <trkpt lat="45.83948" lon="4.72376">
        <ele>319.45624</ele>
        <time>2023-08-05T12:17:09.000Z</time>
      </trkpt>
      <trkpt lat="45.8394" lon="4.72381">
        <ele>320.03894</ele>
        <time>2023-08-05T12:17:10.000Z</time>
      </trkpt>
      <trkpt lat="45.83934" lon="4.72385">
        <ele>320.60767</ele>
        <time>2023-08-05T12:17:11.000Z</time>
      </trkpt>
      <trkpt lat="45.83927" lon="4.72389">
        <ele>321.56427</ele>
        <time>2023-08-05T12:17:12.000Z</time>
      </trkpt>
      <trkpt lat="45.8392" lon="4.72391">
        <ele>322.67999</ele>
        <time>2023-08-05T12:17:13.000Z</time>
      </trkpt>
      <trkpt lat="45.8391" lon="4.72391">
        <ele>323.48291</ele>
        <time>2023-08-05T12:17:14.000Z</time>
      </trkpt>
      <trkpt lat="45.83903" lon="4.72397">
        <ele>324.39005</ele>
        <time>2023-08-05T12:17:15.000Z</time>
      </trkpt>
      <trkpt lat="45.83896" lon="4.72402">
        <ele>325.28204</ele>
        <time>2023-08-05T12:17:16.000Z</time>
      </trkpt>
      <trkpt lat="45.83888" lon="4.72405">
        <ele>326.1723</ele>
        <time>2023-08-05T12:17:17.000Z</time>
      </trkpt>
      <trkpt lat="45.83879" lon="4.72408">
        <ele>326.96185</ele>
        <time>2023-08-05T12:17:18.000Z</time>
      </trkpt>
      <trkpt lat="45.83872" lon="4.72414">
        <ele>327.79199</ele>
        <time>2023-08-05T12:17:19.000Z</time>
      </trkpt>
      <trkpt lat="45.83865" lon="4.72418">
        <ele>328.73599</ele>
        <time>2023-08-05T12:17:20.000Z</time>
      </trkpt>
      <trkpt lat="45.83859" lon="4.72421">
        <ele>329.60727</ele>
        <time>2023-08-05T12:17:21.000Z</time>
      </trkpt>
      <trkpt lat="45.83851" lon="4.72423">
        <ele>330.44891</ele>
        <time>2023-08-05T12:17:22.000Z</time>
      </trkpt>
      <trkpt lat="45.83851" lon="4.7243">
        <ele>331.40228</ele>
        <time>2023-08-05T12:17:23.000Z</time>
      </trkpt>
      <trkpt lat="45.83844" lon="4.72438">
        <ele>332.24814</ele>
        <time>2023-08-05T12:17:24.000Z</time>
      </trkpt>
      <trkpt lat="45.83842" lon="4.72444">
        <ele>333.23111</ele>
        <time>2023-08-05T12:17:25.000Z</time>
      </trkpt>
      <trkpt lat="45.8384" lon="4.72452">
        <ele>333.52963</ele>
        <time>2023-08-05T12:17:26.000Z</time>
      </trkpt>
      <trkpt lat="45.83838" lon="4.72461">
        <ele>333.89249</ele>
        <time>2023-08-05T12:17:27.000Z</time>
      </trkpt>
      <trkpt lat="45.83838" lon="4.72471">
        <ele>334.20886</ele>
        <time>2023-08-05T12:17:28.000Z</time>
      </trkpt>
      <trkpt lat="45.83841" lon="4.72482">
        <ele>334.7254</ele>
        <time>2023-08-05T12:17:29.000Z</time>
      </trkpt>
      <trkpt lat="45.83843" lon="4.72487">
        <ele>335.17203</ele>
        <time>2023-08-05T12:17:30.000Z</time>
      </trkpt>
      <trkpt lat="45.83843" lon="4.72494">
        <ele>335.91895</ele>
        <time>2023-08-05T12:17:31.000Z</time>
      </trkpt>
      <trkpt lat="45.83842" lon="4.72502">
        <ele>335.67352</ele>
        <time>2023-08-05T12:17:32.000Z</time>
      </trkpt>
      <trkpt lat="45.83842" lon="4.7251">
        <ele>335.79865</ele>
        <time>2023-08-05T12:17:33.000Z</time>
      </trkpt>
      <trkpt lat="45.83842" lon="4.72519">
        <ele>334.68195</ele>
        <time>2023-08-05T12:17:34.000Z</time>
      </trkpt>
      <trkpt lat="45.83841" lon="4.72527">
        <ele>333.47238</ele>
        <time>2023-08-05T12:17:35.000Z</time>
      </trkpt>
      <trkpt lat="45.83839" lon="4.72535">
        <ele>332.25873</ele>
        <time>2023-08-05T12:17:36.000Z</time>
      </trkpt>
      <trkpt lat="45.83838" lon="4.72542">
        <ele>331.06473</ele>
        <time>2023-08-05T12:17:37.000Z</time>
      </trkpt>
      <trkpt lat="45.83837" lon="4.72551">
        <ele>329.96408</ele>
        <time>2023-08-05T12:17:38.000Z</time>
      </trkpt>
      <trkpt lat="45.83835" lon="4.72556">
        <ele>328.79126</ele>
        <time>2023-08-05T12:17:39.000Z</time>
      </trkpt>
      <trkpt lat="45.83836" lon="4.72562">
        <ele>327.55786</ele>
        <time>2023-08-05T12:17:40.000Z</time>
      </trkpt>
      <trkpt lat="45.83837" lon="4.72569">
        <ele>326.37399</ele>
        <time>2023-08-05T12:17:41.000Z</time>
      </trkpt>
      <trkpt lat="45.83836" lon="4.72574">
        <ele>325.19901</ele>
        <time>2023-08-05T12:17:42.000Z</time>
      </trkpt>
      <trkpt lat="45.83834" lon="4.72578">
        <ele>323.90683</ele>
        <time>2023-08-05T12:17:43.000Z</time>
      </trkpt>
      <trkpt lat="45.83832" lon="4.72584">
        <ele>322.72964</ele>
        <time>2023-08-05T12:17:44.000Z</time>
      </trkpt>
      <trkpt lat="45.8383" lon="4.72589">
        <ele>321.46649</ele>
        <time>2023-08-05T12:17:45.000Z</time>
      </trkpt>
      <trkpt lat="45.83829" lon="4.72595">
        <ele>320.12341</ele>
        <time>2023-08-05T12:17:46.000Z</time>
      </trkpt>
      <trkpt lat="45.83826" lon="4.72598">
        <ele>318.76956</ele>
        <time>2023-08-05T12:17:47.000Z</time>
      </trkpt>
      <trkpt lat="45.8382" lon="4.72603">
        <ele>317.48248</ele>
        <time>2023-08-05T12:17:48.000Z</time>
      </trkpt>
      <trkpt lat="45.83816" lon="4.72608">
        <ele>315.89398</ele>
        <time>2023-08-05T12:17:49.000Z</time>
      </trkpt>
      <trkpt lat="45.83813" lon="4.72609">
        <ele>314.35516</ele>
        <time>2023-08-05T12:17:50.000Z</time>
      </trkpt>
      <trkpt lat="45.83811" lon="4.72611">
        <ele>312.59857</ele>
        <time>2023-08-05T12:17:51.000Z</time>
      </trkpt>
      <trkpt lat="45.83807" lon="4.72614">
        <ele>311.43268</ele>
        <time>2023-08-05T12:17:52.000Z</time>
      </trkpt>
      <trkpt lat="45.83802" lon="4.72616">
        <ele>309.73792</ele>
        <time>2023-08-05T12:17:53.000Z</time>
      </trkpt>
      <trkpt lat="45.83799" lon="4.72618">
        <ele>309.633</ele>
        <time>2023-08-05T12:17:54.000Z</time>
      </trkpt>
      <trkpt lat="45.83794" lon="4.72619">
        <ele>309.53036</ele>
        <time>2023-08-05T12:17:55.000Z</time>
      </trkpt>
      <trkpt lat="45.83789" lon="4.72621">
        <ele>309.45566</ele>
        <time>2023-08-05T12:17:56.000Z</time>
      </trkpt>
      <trkpt lat="45.83786" lon="4.72623">
        <ele>309.35562</ele>
        <time>2023-08-05T12:17:57.000Z</time>
      </trkpt>
      <trkpt lat="45.83782" lon="4.72622">
        <ele>309.28436</ele>
        <time>2023-08-05T12:17:58.000Z</time>
      </trkpt>
      <trkpt lat="45.83778" lon="4.72624">
        <ele>309.25357</ele>
        <time>2023-08-05T12:17:59.000Z</time>
      </trkpt>
      <trkpt lat="45.83774" lon="4.72626">
        <ele>309.2113</ele>
        <time>2023-08-05T12:18:00.000Z</time>
      </trkpt>
      <trkpt lat="45.8377" lon="4.72627">
        <ele>309.20148</ele>
        <time>2023-08-05T12:18:01.000Z</time>
      </trkpt>
      <trkpt lat="45.83767" lon="4.72628">
        <ele>309.22748</ele>
        <time>2023-08-05T12:18:02.000Z</time>
      </trkpt>
      <trkpt lat="45.83762" lon="4.72628">
        <ele>309.15781</ele>
        <time>2023-08-05T12:18:03.000Z</time>
      </trkpt>
      <trkpt lat="45.83759" lon="4.72629">
        <ele>309.08694</ele>
        <time>2023-08-05T12:18:04.000Z</time>
      </trkpt>
      <trkpt lat="45.83756" lon="4.7263">
        <ele>309.03091</ele>
        <time>2023-08-05T12:18:05.000Z</time>
      </trkpt>
      <trkpt lat="45.83751" lon="4.72631">
        <ele>308.95596</ele>
        <time>2023-08-05T12:18:06.000Z</time>
      </trkpt>
      <trkpt lat="45.83747" lon="4.72632">
        <ele>308.87317</ele>
        <time>2023-08-05T12:18:07.000Z</time>
      </trkpt>
      <trkpt lat="45.83742" lon="4.72634">
        <ele>308.78711</ele>
        <time>2023-08-05T12:18:08.000Z</time>
      </trkpt>
      <trkpt lat="45.83737" lon="4.72635">
        <ele>308.68936</ele>
        <time>2023-08-05T12:18:09.000Z</time>
      </trkpt>
      <trkpt lat="45.83733" lon="4.72636">
        <ele>308.62311</ele>
        <time>2023-08-05T12:18:10.000Z</time>
      </trkpt>
      <trkpt lat="45.83729" lon="4.72638">
        <ele>308.51147</ele>
        <time>2023-08-05T12:18:11.000Z</time>
      </trkpt>
      <trkpt lat="45.83725" lon="4.72639">
        <ele>308.39685</ele>
        <time>2023-08-05T12:18:12.000Z</time>
      </trkpt>
      <trkpt lat="45.83721" lon="4.72641">
        <ele>308.37067</ele>
        <time>2023-08-05T12:18:13.000Z</time>
      </trkpt>
      <trkpt lat="45.83717" lon="4.72643">
        <ele>308.37689</ele>
        <time>2023-08-05T12:18:14.000Z</time>
      </trkpt>
      <trkpt lat="45.83714" lon="4.72646">
        <ele>308.41693</ele>
        <time>2023-08-05T12:18:15.000Z</time>
      </trkpt>
      <trkpt lat="45.83711" lon="4.72647">
        <ele>308.45291</ele>
        <time>2023-08-05T12:18:16.000Z</time>
      </trkpt>
      <trkpt lat="45.83705" lon="4.72648">
        <ele>308.45197</ele>
        <time>2023-08-05T12:18:17.000Z</time>
      </trkpt>
      <trkpt lat="45.83701" lon="4.72649">
        <ele>308.46442</ele>
        <time>2023-08-05T12:18:18.000Z</time>
      </trkpt>
      <trkpt lat="45.83698" lon="4.72651">
        <ele>308.47769</ele>
        <time>2023-08-05T12:18:19.000Z</time>
      </trkpt>
      <trkpt lat="45.83694" lon="4.72651">
        <ele>308.54199</ele>
        <time>2023-08-05T12:18:20.000Z</time>
      </trkpt>
      <trkpt lat="45.83689" lon="4.72652">
        <ele>308.65207</ele>
        <time>2023-08-05T12:18:21.000Z</time>
      </trkpt>
      <trkpt lat="45.83687" lon="4.72655">
        <ele>308.76117</ele>
        <time>2023-08-05T12:18:22.000Z</time>
      </trkpt>
      <trkpt lat="45.83683" lon="4.72657">
        <ele>308.96808</ele>
        <time>2023-08-05T12:18:23.000Z</time>
      </trkpt>
      <trkpt lat="45.83679" lon="4.72657">
        <ele>309.23309</ele>
        <time>2023-08-05T12:18:24.000Z</time>
      </trkpt>
      <trkpt lat="45.83676" lon="4.72658">
        <ele>309.51239</ele>
        <time>2023-08-05T12:18:25.000Z</time>
      </trkpt>
      <trkpt lat="45.83673" lon="4.72661">
        <ele>309.70193</ele>
        <time>2023-08-05T12:18:26.000Z</time>
      </trkpt>
      <trkpt lat="45.83668" lon="4.7266">
        <ele>309.9306</ele>
        <time>2023-08-05T12:18:27.000Z</time>
      </trkpt>
      <trkpt lat="45.83665" lon="4.72661">
        <ele>310.18307</ele>
        <time>2023-08-05T12:18:28.000Z</time>
      </trkpt>
      <trkpt lat="45.83663" lon="4.72663">
        <ele>310.44623</ele>
        <time>2023-08-05T12:18:29.000Z</time>
      </trkpt>
      <trkpt lat="45.8366" lon="4.72665">
        <ele>310.72592</ele>
        <time>2023-08-05T12:18:30.000Z</time>
      </trkpt>
      <trkpt lat="45.83656" lon="4.72666">
        <ele>310.98846</ele>
        <time>2023-08-05T12:18:31.000Z</time>
      </trkpt>
      <trkpt lat="45.83652" lon="4.72667">
        <ele>311.28787</ele>
        <time>2023-08-05T12:18:32.000Z</time>
      </trkpt>
      <trkpt lat="45.83648" lon="4.72668">
        <ele>311.52991</ele>
        <time>2023-08-05T12:18:33.000Z</time>
      </trkpt>
      <trkpt lat="45.83645" lon="4.72669">
        <ele>311.81723</ele>
        <time>2023-08-05T12:18:34.000Z</time>
      </trkpt>
      <trkpt lat="45.83642" lon="4.72671">
        <ele>312.06207</ele>
        <time>2023-08-05T12:18:35.000Z</time>
      </trkpt>
      <trkpt lat="45.8364" lon="4.72672">
        <ele>312.33148</ele>
        <time>2023-08-05T12:18:36.000Z</time>
      </trkpt>
      <trkpt lat="45.83639" lon="4.72674">
        <ele>312.61163</ele>
        <time>2023-08-05T12:18:37.000Z</time>
      </trkpt>
      <trkpt lat="45.83636" lon="4.72677">
        <ele>312.88428</ele>
        <time>2023-08-05T12:18:38.000Z</time>
      </trkpt>
      <trkpt lat="45.83634" lon="4.7268">
        <ele>313.16937</ele>
        <time>2023-08-05T12:18:39.000Z</time>
      </trkpt>
      <trkpt lat="45.83632" lon="4.72682">
        <ele>313.37762</ele>
        <time>2023-08-05T12:18:40.000Z</time>
      </trkpt>
      <trkpt lat="45.8363" lon="4.72685">
        <ele>313.52933</ele>
        <time>2023-08-05T12:18:41.000Z</time>
      </trkpt>
      <trkpt lat="45.83628" lon="4.72687">
        <ele>313.70853</ele>
        <time>2023-08-05T12:18:42.000Z</time>
      </trkpt>
      <trkpt lat="45.83626" lon="4.7269">
        <ele>313.85443</ele>
        <time>2023-08-05T12:18:43.000Z</time>
      </trkpt>
      <trkpt lat="45.83625" lon="4.72693">
        <ele>313.92563</ele>
        <time>2023-08-05T12:18:44.000Z</time>
      </trkpt>
      <trkpt lat="45.83623" lon="4.72696">
        <ele>313.95096</ele>
        <time>2023-08-05T12:18:45.000Z</time>
      </trkpt>
      <trkpt lat="45.83621" lon="4.72699">
        <ele>314.1153</ele>
        <time>2023-08-05T12:18:46.000Z</time>
      </trkpt>
      <trkpt lat="45.83618" lon="4.72701">
        <ele>314.24884</ele>
        <time>2023-08-05T12:18:47.000Z</time>
      </trkpt>
      <trkpt lat="45.83616" lon="4.72703">
        <ele>314.32477</ele>
        <time>2023-08-05T12:18:48.000Z</time>
      </trkpt>
      <trkpt lat="45.83614" lon="4.72704">
        <ele>314.43878</ele>
        <time>2023-08-05T12:18:49.000Z</time>
      </trkpt>
      <trkpt lat="45.83612" lon="4.72706">
        <ele>314.56494</ele>
        <time>2023-08-05T12:18:50.000Z</time>
      </trkpt>
      <trkpt lat="45.83609" lon="4.72708">
        <ele>314.74594</ele>
        <time>2023-08-05T12:18:51.000Z</time>
      </trkpt>
      <trkpt lat="45.83606" lon="4.72709">
        <ele>314.93542</ele>
        <time>2023-08-05T12:18:52.000Z</time>
      </trkpt>
      <trkpt lat="45.83603" lon="4.72711">
        <ele>315.14001</ele>
        <time>2023-08-05T12:18:54.000Z</time>
      </trkpt>
      <trkpt lat="45.83602" lon="4.72713">
        <ele>316.48273</ele>
        <time>2023-08-05T12:18:55.000Z</time>
      </trkpt>
      <trkpt lat="45.836" lon="4.72715">
        <ele>317.78589</ele>
        <time>2023-08-05T12:18:56.000Z</time>
      </trkpt>
      <trkpt lat="45.83597" lon="4.72716">
        <ele>319.15073</ele>
        <time>2023-08-05T12:18:57.000Z</time>
      </trkpt>
      <trkpt lat="45.83595" lon="4.72718">
        <ele>320.68094</ele>
        <time>2023-08-05T12:18:58.000Z</time>
      </trkpt>
      <trkpt lat="45.83592" lon="4.7272">
        <ele>321.62616</ele>
        <time>2023-08-05T12:18:59.000Z</time>
      </trkpt>
      <trkpt lat="45.8359" lon="4.72722">
        <ele>322.6203</ele>
        <time>2023-08-05T12:19:00.000Z</time>
      </trkpt>
      <trkpt lat="45.83587" lon="4.72724">
        <ele>323.62274</ele>
        <time>2023-08-05T12:19:01.000Z</time>
      </trkpt>
      <trkpt lat="45.83584" lon="4.72726">
        <ele>324.55035</ele>
        <time>2023-08-05T12:19:02.000Z</time>
      </trkpt>
      <trkpt lat="45.83581" lon="4.72728">
        <ele>325.48581</ele>
        <time>2023-08-05T12:19:03.000Z</time>
      </trkpt>
      <trkpt lat="45.83578" lon="4.7273">
        <ele>326.38608</ele>
        <time>2023-08-05T12:19:04.000Z</time>
      </trkpt>
      <trkpt lat="45.83576" lon="4.72732">
        <ele>327.32059</ele>
        <time>2023-08-05T12:19:05.000Z</time>
      </trkpt>
      <trkpt lat="45.83573" lon="4.72734">
        <ele>328.2038</ele>
        <time>2023-08-05T12:19:06.000Z</time>
      </trkpt>
      <trkpt lat="45.83571" lon="4.72735">
        <ele>329.06641</ele>
        <time>2023-08-05T12:19:07.000Z</time>
      </trkpt>
      <trkpt lat="45.83567" lon="4.72736">
        <ele>330.06506</ele>
        <time>2023-08-05T12:19:08.000Z</time>
      </trkpt>
      <trkpt lat="45.83564" lon="4.72737">
        <ele>331.03009</ele>
        <time>2023-08-05T12:19:09.000Z</time>
      </trkpt>
      <trkpt lat="45.83559" lon="4.72738">
        <ele>331.92114</ele>
        <time>2023-08-05T12:19:10.000Z</time>
      </trkpt>
      <trkpt lat="45.83556" lon="4.72739">
        <ele>332.82571</ele>
        <time>2023-08-05T12:19:11.000Z</time>
      </trkpt>
      <trkpt lat="45.83554" lon="4.7274">
        <ele>333.63434</ele>
        <time>2023-08-05T12:19:12.000Z</time>
      </trkpt>
      <trkpt lat="45.83552" lon="4.72742">
        <ele>334.54956</ele>
        <time>2023-08-05T12:19:13.000Z</time>
      </trkpt>
      <trkpt lat="45.83549" lon="4.72744">
        <ele>335.39835</ele>
        <time>2023-08-05T12:19:14.000Z</time>
      </trkpt>
      <trkpt lat="45.83546" lon="4.72745">
        <ele>334.99774</ele>
        <time>2023-08-05T12:19:15.000Z</time>
      </trkpt>
      <trkpt lat="45.83543" lon="4.72747">
        <ele>334.72226</ele>
        <time>2023-08-05T12:19:16.000Z</time>
      </trkpt>
      <trkpt lat="45.8354" lon="4.72748">
        <ele>333.54855</ele>
        <time>2023-08-05T12:19:17.000Z</time>
      </trkpt>
      <trkpt lat="45.83536" lon="4.7275">
        <ele>332.24469</ele>
        <time>2023-08-05T12:19:18.000Z</time>
      </trkpt>
      <trkpt lat="45.83533" lon="4.72751">
        <ele>331.48859</ele>
        <time>2023-08-05T12:19:19.000Z</time>
      </trkpt>
      <trkpt lat="45.83529" lon="4.72752">
        <ele>330.67282</ele>
        <time>2023-08-05T12:19:20.000Z</time>
      </trkpt>
      <trkpt lat="45.83525" lon="4.72752">
        <ele>329.85016</ele>
        <time>2023-08-05T12:19:21.000Z</time>
      </trkpt>
      <trkpt lat="45.83521" lon="4.72753">
        <ele>329.1059</ele>
        <time>2023-08-05T12:19:22.000Z</time>
      </trkpt>
      <trkpt lat="45.83518" lon="4.72753">
        <ele>328.28464</ele>
        <time>2023-08-05T12:19:23.000Z</time>
      </trkpt>
      <trkpt lat="45.83514" lon="4.72754">
        <ele>327.55612</ele>
        <time>2023-08-05T12:19:24.000Z</time>
      </trkpt>
      <trkpt lat="45.83509" lon="4.72754">
        <ele>326.77625</ele>
        <time>2023-08-05T12:19:25.000Z</time>
      </trkpt>
      <trkpt lat="45.83505" lon="4.72754">
        <ele>326.11145</ele>
        <time>2023-08-05T12:19:26.000Z</time>
      </trkpt>
      <trkpt lat="45.83502" lon="4.72755">
        <ele>325.4483</ele>
        <time>2023-08-05T12:19:27.000Z</time>
      </trkpt>
      <trkpt lat="45.83498" lon="4.72756">
        <ele>324.61905</ele>
        <time>2023-08-05T12:19:28.000Z</time>
      </trkpt>
      <trkpt lat="45.83494" lon="4.72757">
        <ele>323.87686</ele>
        <time>2023-08-05T12:19:29.000Z</time>
      </trkpt>
      <trkpt lat="45.8349" lon="4.72759">
        <ele>323.18445</ele>
        <time>2023-08-05T12:19:30.000Z</time>
      </trkpt>
      <trkpt lat="45.83486" lon="4.72761">
        <ele>322.42096</ele>
        <time>2023-08-05T12:19:31.000Z</time>
      </trkpt>
      <trkpt lat="45.83483" lon="4.72763">
        <ele>321.75238</ele>
        <time>2023-08-05T12:19:32.000Z</time>
      </trkpt>
      <trkpt lat="45.83479" lon="4.72764">
        <ele>320.93729</ele>
        <time>2023-08-05T12:19:33.000Z</time>
      </trkpt>
      <trkpt lat="45.83475" lon="4.72765">
        <ele>320.17075</ele>
        <time>2023-08-05T12:19:34.000Z</time>
      </trkpt>
      <trkpt lat="45.83471" lon="4.72766">
        <ele>319.41278</ele>
        <time>2023-08-05T12:19:35.000Z</time>
      </trkpt>
      <trkpt lat="45.83467" lon="4.72767">
        <ele>318.56903</ele>
        <time>2023-08-05T12:19:36.000Z</time>
      </trkpt>
      <trkpt lat="45.83462" lon="4.72767">
        <ele>318.5249</ele>
        <time>2023-08-05T12:19:37.000Z</time>
      </trkpt>
      <trkpt lat="45.83459" lon="4.72769">
        <ele>318.5188</ele>
        <time>2023-08-05T12:19:38.000Z</time>
      </trkpt>
      <trkpt lat="45.83451" lon="4.7277">
        <ele>318.53177</ele>
        <time>2023-08-05T12:19:39.000Z</time>
      </trkpt>
      <trkpt lat="45.83447" lon="4.72772">
        <ele>318.55475</ele>
        <time>2023-08-05T12:19:40.000Z</time>
      </trkpt>
      <trkpt lat="45.83444" lon="4.72776">
        <ele>318.61981</ele>
        <time>2023-08-05T12:19:41.000Z</time>
      </trkpt>
      <trkpt lat="45.83441" lon="4.72779">
        <ele>318.70041</ele>
        <time>2023-08-05T12:19:42.000Z</time>
      </trkpt>
      <trkpt lat="45.83437" lon="4.72782">
        <ele>318.79333</ele>
        <time>2023-08-05T12:19:43.000Z</time>
      </trkpt>
      <trkpt lat="45.83434" lon="4.72785">
        <ele>318.85907</ele>
        <time>2023-08-05T12:19:44.000Z</time>
      </trkpt>
      <trkpt lat="45.83434" lon="4.72792">
        <ele>318.95233</ele>
        <time>2023-08-05T12:19:45.000Z</time>
      </trkpt>
      <trkpt lat="45.83435" lon="4.72798">
        <ele>319.00705</ele>
        <time>2023-08-05T12:19:46.000Z</time>
      </trkpt>
      <trkpt lat="45.83437" lon="4.72807">
        <ele>319.00558</ele>
        <time>2023-08-05T12:19:47.000Z</time>
      </trkpt>
      <trkpt lat="45.83438" lon="4.72813">
        <ele>318.99365</ele>
        <time>2023-08-05T12:19:48.000Z</time>
      </trkpt>
      <trkpt lat="45.8344" lon="4.72819">
        <ele>318.94232</ele>
        <time>2023-08-05T12:19:49.000Z</time>
      </trkpt>
      <trkpt lat="45.83438" lon="4.72824">
        <ele>318.892</ele>
        <time>2023-08-05T12:19:50.000Z</time>
      </trkpt>
      <trkpt lat="45.83439" lon="4.72831">
        <ele>318.8815</ele>
        <time>2023-08-05T12:19:51.000Z</time>
      </trkpt>
      <trkpt lat="45.83439" lon="4.72837">
        <ele>318.85483</ele>
        <time>2023-08-05T12:19:52.000Z</time>
      </trkpt>
      <trkpt lat="45.83437" lon="4.72842">
        <ele>318.84479</ele>
        <time>2023-08-05T12:19:53.000Z</time>
      </trkpt>
      <trkpt lat="45.83438" lon="4.72848">
        <ele>318.82086</ele>
        <time>2023-08-05T12:19:54.000Z</time>
      </trkpt>
      <trkpt lat="45.83439" lon="4.72855">
        <ele>318.81131</ele>
        <time>2023-08-05T12:19:55.000Z</time>
      </trkpt>
      <trkpt lat="45.83439" lon="4.7286">
        <ele>318.82889</ele>
        <time>2023-08-05T12:19:56.000Z</time>
      </trkpt>
      <trkpt lat="45.83438" lon="4.72866">
        <ele>318.84601</ele>
        <time>2023-08-05T12:19:57.000Z</time>
      </trkpt>
      <trkpt lat="45.83439" lon="4.72872">
        <ele>318.86053</ele>
        <time>2023-08-05T12:19:58.000Z</time>
      </trkpt>
      <trkpt lat="45.83442" lon="4.7288">
        <ele>318.92093</ele>
        <time>2023-08-05T12:19:59.000Z</time>
      </trkpt>
      <trkpt lat="45.83443" lon="4.72883">
        <ele>318.95197</ele>
        <time>2023-08-05T12:20:00.000Z</time>
      </trkpt>
      <trkpt lat="45.83442" lon="4.72889">
        <ele>318.98032</ele>
        <time>2023-08-05T12:20:01.000Z</time>
      </trkpt>
      <trkpt lat="45.83442" lon="4.72894">
        <ele>318.93231</ele>
        <time>2023-08-05T12:20:02.000Z</time>
      </trkpt>
      <trkpt lat="45.83443" lon="4.72898">
        <ele>318.91193</ele>
        <time>2023-08-05T12:20:03.000Z</time>
      </trkpt>
      <trkpt lat="45.83444" lon="4.72902">
        <ele>318.91907</ele>
        <time>2023-08-05T12:20:04.000Z</time>
      </trkpt>
      <trkpt lat="45.83445" lon="4.72907">
        <ele>318.95404</ele>
        <time>2023-08-05T12:20:05.000Z</time>
      </trkpt>
      <trkpt lat="45.83445" lon="4.7291">
        <ele>319.03619</ele>
        <time>2023-08-05T12:20:06.000Z</time>
      </trkpt>
      <trkpt lat="45.83446" lon="4.72913">
        <ele>319.15363</ele>
        <time>2023-08-05T12:20:07.000Z</time>
      </trkpt>
      <trkpt lat="45.83448" lon="4.72918">
        <ele>319.33319</ele>
        <time>2023-08-05T12:20:08.000Z</time>
      </trkpt>
      <trkpt lat="45.83449" lon="4.72922">
        <ele>319.47723</ele>
        <time>2023-08-05T12:20:09.000Z</time>
      </trkpt>
      <trkpt lat="45.8345" lon="4.72926">
        <ele>319.6207</ele>
        <time>2023-08-05T12:20:10.000Z</time>
      </trkpt>
      <trkpt lat="45.83452" lon="4.7293">
        <ele>319.74283</ele>
        <time>2023-08-05T12:20:11.000Z</time>
      </trkpt>
      <trkpt lat="45.83453" lon="4.72933">
        <ele>319.86761</ele>
        <time>2023-08-05T12:20:12.000Z</time>
      </trkpt>
      <trkpt lat="45.83454" lon="4.72937">
        <ele>320.00653</ele>
        <time>2023-08-05T12:20:13.000Z</time>
      </trkpt>
      <trkpt lat="45.83456" lon="4.72941">
        <ele>320.15573</ele>
        <time>2023-08-05T12:20:14.000Z</time>
      </trkpt>
      <trkpt lat="45.83457" lon="4.72944">
        <ele>320.31</ele>
        <time>2023-08-05T12:20:15.000Z</time>
      </trkpt>
      <trkpt lat="45.83458" lon="4.72949">
        <ele>320.44907</ele>
        <time>2023-08-05T12:20:16.000Z</time>
      </trkpt>
      <trkpt lat="45.8346" lon="4.72954">
        <ele>320.60571</ele>
        <time>2023-08-05T12:20:17.000Z</time>
      </trkpt>
      <trkpt lat="45.83461" lon="4.72959">
        <ele>320.74664</ele>
        <time>2023-08-05T12:20:18.000Z</time>
      </trkpt>
      <trkpt lat="45.83463" lon="4.72964">
        <ele>320.83612</ele>
        <time>2023-08-05T12:20:19.000Z</time>
      </trkpt>
      <trkpt lat="45.83465" lon="4.72968">
        <ele>320.96796</ele>
        <time>2023-08-05T12:20:20.000Z</time>
      </trkpt>
      <trkpt lat="45.83467" lon="4.72972">
        <ele>321.08661</ele>
        <time>2023-08-05T12:20:21.000Z</time>
      </trkpt>
      <trkpt lat="45.83469" lon="4.72977">
        <ele>321.25165</ele>
        <time>2023-08-05T12:20:22.000Z</time>
      </trkpt>
      <trkpt lat="45.8347" lon="4.72981">
        <ele>321.47375</ele>
        <time>2023-08-05T12:20:23.000Z</time>
      </trkpt>
      <trkpt lat="45.83471" lon="4.72985">
        <ele>321.62042</ele>
        <time>2023-08-05T12:20:24.000Z</time>
      </trkpt>
      <trkpt lat="45.83472" lon="4.72989">
        <ele>321.76129</ele>
        <time>2023-08-05T12:20:25.000Z</time>
      </trkpt>
      <trkpt lat="45.83474" lon="4.72994">
        <ele>321.87476</ele>
        <time>2023-08-05T12:20:26.000Z</time>
      </trkpt>
      <trkpt lat="45.83475" lon="4.72998">
        <ele>322.01883</ele>
        <time>2023-08-05T12:20:27.000Z</time>
      </trkpt>
      <trkpt lat="45.83476" lon="4.73003">
        <ele>322.15707</ele>
        <time>2023-08-05T12:20:28.000Z</time>
      </trkpt>
      <trkpt lat="45.83477" lon="4.73008">
        <ele>322.33325</ele>
        <time>2023-08-05T12:20:29.000Z</time>
      </trkpt>
      <trkpt lat="45.83478" lon="4.73014">
        <ele>322.50049</ele>
        <time>2023-08-05T12:20:30.000Z</time>
      </trkpt>
      <trkpt lat="45.8348" lon="4.73018">
        <ele>322.66803</ele>
        <time>2023-08-05T12:20:31.000Z</time>
      </trkpt>
      <trkpt lat="45.83482" lon="4.73023">
        <ele>322.79187</ele>
        <time>2023-08-05T12:20:32.000Z</time>
      </trkpt>
      <trkpt lat="45.83493" lon="4.73033">
        <ele>323.0827</ele>
        <time>2023-08-05T12:20:33.000Z</time>
      </trkpt>
      <trkpt lat="45.83495" lon="4.73036">
        <ele>323.41919</ele>
        <time>2023-08-05T12:20:34.000Z</time>
      </trkpt>
      <trkpt lat="45.83497" lon="4.7304">
        <ele>323.53113</ele>
        <time>2023-08-05T12:20:35.000Z</time>
      </trkpt>
      <trkpt lat="45.835" lon="4.73042">
        <ele>323.733</ele>
        <time>2023-08-05T12:20:36.000Z</time>
      </trkpt>
      <trkpt lat="45.83503" lon="4.73045">
        <ele>323.91733</ele>
        <time>2023-08-05T12:20:37.000Z</time>
      </trkpt>
      <trkpt lat="45.83505" lon="4.7305">
        <ele>324.05847</ele>
        <time>2023-08-05T12:20:38.000Z</time>
      </trkpt>
      <trkpt lat="45.83508" lon="4.73053">
        <ele>324.18597</ele>
        <time>2023-08-05T12:20:39.000Z</time>
      </trkpt>
      <trkpt lat="45.83511" lon="4.73055">
        <ele>324.29974</ele>
        <time>2023-08-05T12:20:40.000Z</time>
      </trkpt>
      <trkpt lat="45.83515" lon="4.73058">
        <ele>324.45123</ele>
        <time>2023-08-05T12:20:41.000Z</time>
      </trkpt>
      <trkpt lat="45.83517" lon="4.7306">
        <ele>324.64352</ele>
        <time>2023-08-05T12:20:42.000Z</time>
      </trkpt>
      <trkpt lat="45.8352" lon="4.73062">
        <ele>324.81842</ele>
        <time>2023-08-05T12:20:43.000Z</time>
      </trkpt>
      <trkpt lat="45.83522" lon="4.73062">
        <ele>325.05005</ele>
        <time>2023-08-05T12:20:44.000Z</time>
      </trkpt>
      <trkpt lat="45.83525" lon="4.73063">
        <ele>325.28995</ele>
        <time>2023-08-05T12:20:45.000Z</time>
      </trkpt>
      <trkpt lat="45.83529" lon="4.73063">
        <ele>325.53635</ele>
        <time>2023-08-05T12:20:46.000Z</time>
      </trkpt>
      <trkpt lat="45.83532" lon="4.73063">
        <ele>325.70978</ele>
        <time>2023-08-05T12:20:47.000Z</time>
      </trkpt>
      <trkpt lat="45.83536" lon="4.73064">
        <ele>325.87201</ele>
        <time>2023-08-05T12:20:48.000Z</time>
      </trkpt>
      <trkpt lat="45.8354" lon="4.73065">
        <ele>326.01736</ele>
        <time>2023-08-05T12:20:49.000Z</time>
      </trkpt>
      <trkpt lat="45.83543" lon="4.73066">
        <ele>326.20438</ele>
        <time>2023-08-05T12:20:50.000Z</time>
      </trkpt>
      <trkpt lat="45.83546" lon="4.73066">
        <ele>326.32114</ele>
        <time>2023-08-05T12:20:51.000Z</time>
      </trkpt>
      <trkpt lat="45.83549" lon="4.73065">
        <ele>326.47144</ele>
        <time>2023-08-05T12:20:52.000Z</time>
      </trkpt>
      <trkpt lat="45.83554" lon="4.73064">
        <ele>326.42191</ele>
        <time>2023-08-05T12:20:53.000Z</time>
      </trkpt>
      <trkpt lat="45.83557" lon="4.7306">
        <ele>326.50394</ele>
        <time>2023-08-05T12:20:54.000Z</time>
      </trkpt>
      <trkpt lat="45.83561" lon="4.73059">
        <ele>326.75122</ele>
        <time>2023-08-05T12:20:55.000Z</time>
      </trkpt>
      <trkpt lat="45.83566" lon="4.7306">
        <ele>326.87726</ele>
        <time>2023-08-05T12:20:56.000Z</time>
      </trkpt>
      <trkpt lat="45.8357" lon="4.7306">
        <ele>327.00385</ele>
        <time>2023-08-05T12:20:57.000Z</time>
      </trkpt>
      <trkpt lat="45.83573" lon="4.73058">
        <ele>327.17538</ele>
        <time>2023-08-05T12:20:58.000Z</time>
      </trkpt>
      <trkpt lat="45.83579" lon="4.73058">
        <ele>327.25851</ele>
        <time>2023-08-05T12:20:59.000Z</time>
      </trkpt>
      <trkpt lat="45.83585" lon="4.73057">
        <ele>327.24307</ele>
        <time>2023-08-05T12:21:00.000Z</time>
      </trkpt>
      <trkpt lat="45.83588" lon="4.73055">
        <ele>327.23663</ele>
        <time>2023-08-05T12:21:01.000Z</time>
      </trkpt>
      <trkpt lat="45.83592" lon="4.73054">
        <ele>327.17734</ele>
        <time>2023-08-05T12:21:02.000Z</time>
      </trkpt>
      <trkpt lat="45.83593" lon="4.7305">
        <ele>326.76443</ele>
        <time>2023-08-05T12:21:03.000Z</time>
      </trkpt>
      <trkpt lat="45.83597" lon="4.73049">
        <ele>326.56195</ele>
        <time>2023-08-05T12:21:04.000Z</time>
      </trkpt>
      <trkpt lat="45.83602" lon="4.73049">
        <ele>326.3085</ele>
        <time>2023-08-05T12:21:05.000Z</time>
      </trkpt>
      <trkpt lat="45.83605" lon="4.73048">
        <ele>325.92465</ele>
        <time>2023-08-05T12:21:06.000Z</time>
      </trkpt>
      <trkpt lat="45.83607" lon="4.73047">
        <ele>325.52618</ele>
        <time>2023-08-05T12:21:07.000Z</time>
      </trkpt>
      <trkpt lat="45.8361" lon="4.73046">
        <ele>325.0889</ele>
        <time>2023-08-05T12:21:08.000Z</time>
      </trkpt>
      <trkpt lat="45.83615" lon="4.73044">
        <ele>324.69598</ele>
        <time>2023-08-05T12:21:09.000Z</time>
      </trkpt>
      <trkpt lat="45.83619" lon="4.73041">
        <ele>324.29025</ele>
        <time>2023-08-05T12:21:10.000Z</time>
      </trkpt>
      <trkpt lat="45.83627" lon="4.73038">
        <ele>323.97537</ele>
        <time>2023-08-05T12:21:11.000Z</time>
      </trkpt>
      <trkpt lat="45.83632" lon="4.73035">
        <ele>323.61096</ele>
        <time>2023-08-05T12:21:12.000Z</time>
      </trkpt>
      <trkpt lat="45.83637" lon="4.73033">
        <ele>323.24091</ele>
        <time>2023-08-05T12:21:13.000Z</time>
      </trkpt>
      <trkpt lat="45.83642" lon="4.7303">
        <ele>322.73196</ele>
        <time>2023-08-05T12:21:14.000Z</time>
      </trkpt>
      <trkpt lat="45.83649" lon="4.73029">
        <ele>322.27469</ele>
        <time>2023-08-05T12:21:15.000Z</time>
      </trkpt>
      <trkpt lat="45.83654" lon="4.73026">
        <ele>321.86884</ele>
        <time>2023-08-05T12:21:16.000Z</time>
      </trkpt>
      <trkpt lat="45.8366" lon="4.73024">
        <ele>321.4588</ele>
        <time>2023-08-05T12:21:17.000Z</time>
      </trkpt>
      <trkpt lat="45.83667" lon="4.73023">
        <ele>321.03833</ele>
        <time>2023-08-05T12:21:18.000Z</time>
      </trkpt>
      <trkpt lat="45.83675" lon="4.73024">
        <ele>320.67261</ele>
        <time>2023-08-05T12:21:19.000Z</time>
      </trkpt>
      <trkpt lat="45.83683" lon="4.73023">
        <ele>320.35812</ele>
        <time>2023-08-05T12:21:20.000Z</time>
      </trkpt>
      <trkpt lat="45.83692" lon="4.73024">
        <ele>319.96594</ele>
        <time>2023-08-05T12:21:21.000Z</time>
      </trkpt>
      <trkpt lat="45.837" lon="4.73024">
        <ele>319.57065</ele>
        <time>2023-08-05T12:21:22.000Z</time>
      </trkpt>
      <trkpt lat="45.83709" lon="4.73024">
        <ele>319.46106</ele>
        <time>2023-08-05T12:21:23.000Z</time>
      </trkpt>
      <trkpt lat="45.83718" lon="4.73021">
        <ele>319.08569</ele>
        <time>2023-08-05T12:21:24.000Z</time>
      </trkpt>
      <trkpt lat="45.83726" lon="4.73019">
        <ele>318.69586</ele>
        <time>2023-08-05T12:21:25.000Z</time>
      </trkpt>
      <trkpt lat="45.83733" lon="4.7302">
        <ele>318.3812</ele>
        <time>2023-08-05T12:21:26.000Z</time>
      </trkpt>
      <trkpt lat="45.83739" lon="4.73025">
        <ele>318.13773</ele>
        <time>2023-08-05T12:21:27.000Z</time>
      </trkpt>
      <trkpt lat="45.83743" lon="4.73031">
        <ele>317.89545</ele>
        <time>2023-08-05T12:21:28.000Z</time>
      </trkpt>
      <trkpt lat="45.83743" lon="4.73035">
        <ele>317.66861</ele>
        <time>2023-08-05T12:21:29.000Z</time>
      </trkpt>
      <trkpt lat="45.83746" lon="4.73042">
        <ele>317.43158</ele>
        <time>2023-08-05T12:21:30.000Z</time>
      </trkpt>
      <trkpt lat="45.83748" lon="4.73047">
        <ele>317.17865</ele>
        <time>2023-08-05T12:21:31.000Z</time>
      </trkpt>
      <trkpt lat="45.8375" lon="4.73053">
        <ele>316.99365</ele>
        <time>2023-08-05T12:21:32.000Z</time>
      </trkpt>
      <trkpt lat="45.83751" lon="4.73059">
        <ele>316.86456</ele>
        <time>2023-08-05T12:21:33.000Z</time>
      </trkpt>
      <trkpt lat="45.83753" lon="4.73065">
        <ele>316.66949</ele>
        <time>2023-08-05T12:21:34.000Z</time>
      </trkpt>
      <trkpt lat="45.8375" lon="4.73069">
        <ele>316.50269</ele>
        <time>2023-08-05T12:21:35.000Z</time>
      </trkpt>
      <trkpt lat="45.8375" lon="4.73074">
        <ele>316.2879</ele>
        <time>2023-08-05T12:21:36.000Z</time>
      </trkpt>
      <trkpt lat="45.83749" lon="4.7308">
        <ele>316.0863</ele>
        <time>2023-08-05T12:21:37.000Z</time>
      </trkpt>
      <trkpt lat="45.8375" lon="4.73086">
        <ele>315.909</ele>
        <time>2023-08-05T12:21:38.000Z</time>
      </trkpt>
      <trkpt lat="45.83752" lon="4.73091">
        <ele>315.78506</ele>
        <time>2023-08-05T12:21:39.000Z</time>
      </trkpt>
      <trkpt lat="45.83754" lon="4.73098">
        <ele>315.69919</ele>
        <time>2023-08-05T12:21:40.000Z</time>
      </trkpt>
      <trkpt lat="45.83756" lon="4.73102">
        <ele>315.70953</ele>
        <time>2023-08-05T12:21:41.000Z</time>
      </trkpt>
      <trkpt lat="45.83758" lon="4.73106">
        <ele>315.72687</ele>
        <time>2023-08-05T12:21:42.000Z</time>
      </trkpt>
      <trkpt lat="45.8376" lon="4.73109">
        <ele>315.77478</ele>
        <time>2023-08-05T12:21:43.000Z</time>
      </trkpt>
      <trkpt lat="45.83765" lon="4.73114">
        <ele>315.90933</ele>
        <time>2023-08-05T12:21:44.000Z</time>
      </trkpt>
      <trkpt lat="45.83767" lon="4.73119">
        <ele>316.05759</ele>
        <time>2023-08-05T12:21:45.000Z</time>
      </trkpt>
      <trkpt lat="45.83768" lon="4.73124">
        <ele>316.23227</ele>
        <time>2023-08-05T12:21:46.000Z</time>
      </trkpt>
      <trkpt lat="45.8377" lon="4.7313">
        <ele>316.39349</ele>
        <time>2023-08-05T12:21:47.000Z</time>
      </trkpt>
      <trkpt lat="45.83771" lon="4.73133">
        <ele>316.59186</ele>
        <time>2023-08-05T12:21:48.000Z</time>
      </trkpt>
      <trkpt lat="45.83772" lon="4.73136">
        <ele>316.75214</ele>
        <time>2023-08-05T12:21:49.000Z</time>
      </trkpt>
      <trkpt lat="45.83772" lon="4.73139">
        <ele>316.91144</ele>
        <time>2023-08-05T12:21:50.000Z</time>
      </trkpt>
      <trkpt lat="45.83777" lon="4.73146">
        <ele>317.1456</ele>
        <time>2023-08-05T12:21:51.000Z</time>
      </trkpt>
      <trkpt lat="45.83778" lon="4.73149">
        <ele>317.39859</ele>
        <time>2023-08-05T12:21:52.000Z</time>
      </trkpt>
      <trkpt lat="45.8378" lon="4.73155">
        <ele>317.69806</ele>
        <time>2023-08-05T12:21:53.000Z</time>
      </trkpt>
      <trkpt lat="45.8378" lon="4.73159">
        <ele>317.92075</ele>
        <time>2023-08-05T12:21:54.000Z</time>
      </trkpt>
      <trkpt lat="45.8378" lon="4.73162">
        <ele>318.20587</ele>
        <time>2023-08-05T12:21:55.000Z</time>
      </trkpt>
      <trkpt lat="45.8378" lon="4.73165">
        <ele>318.44373</ele>
        <time>2023-08-05T12:21:56.000Z</time>
      </trkpt>
      <trkpt lat="45.83781" lon="4.73169">
        <ele>318.87292</ele>
        <time>2023-08-05T12:21:57.000Z</time>
      </trkpt>
      <trkpt lat="45.83782" lon="4.73174">
        <ele>319.21994</ele>
        <time>2023-08-05T12:21:58.000Z</time>
      </trkpt>
      <trkpt lat="45.83784" lon="4.73178">
        <ele>319.60123</ele>
        <time>2023-08-05T12:21:59.000Z</time>
      </trkpt>
      <trkpt lat="45.83787" lon="4.73181">
        <ele>320.05283</ele>
        <time>2023-08-05T12:22:00.000Z</time>
      </trkpt>
      <trkpt lat="45.83791" lon="4.73183">
        <ele>320.46127</ele>
        <time>2023-08-05T12:22:01.000Z</time>
      </trkpt>
      <trkpt lat="45.83795" lon="4.73182">
        <ele>320.93121</ele>
        <time>2023-08-05T12:22:02.000Z</time>
      </trkpt>
      <trkpt lat="45.83798" lon="4.73179">
        <ele>321.3811</ele>
        <time>2023-08-05T12:22:03.000Z</time>
      </trkpt>
      <trkpt lat="45.83801" lon="4.73176">
        <ele>321.81409</ele>
        <time>2023-08-05T12:22:04.000Z</time>
      </trkpt>
      <trkpt lat="45.83804" lon="4.73173">
        <ele>322.29651</ele>
        <time>2023-08-05T12:22:05.000Z</time>
      </trkpt>
      <trkpt lat="45.83807" lon="4.7317">
        <ele>322.7533</ele>
        <time>2023-08-05T12:22:06.000Z</time>
      </trkpt>
      <trkpt lat="45.8381" lon="4.73167">
        <ele>323.20651</ele>
        <time>2023-08-05T12:22:07.000Z</time>
      </trkpt>
      <trkpt lat="45.83813" lon="4.73164">
        <ele>323.64255</ele>
        <time>2023-08-05T12:22:08.000Z</time>
      </trkpt>
      <trkpt lat="45.83815" lon="4.73162">
        <ele>324.11017</ele>
        <time>2023-08-05T12:22:09.000Z</time>
      </trkpt>
      <trkpt lat="45.83818" lon="4.73159">
        <ele>324.49536</ele>
        <time>2023-08-05T12:22:10.000Z</time>
      </trkpt>
      <trkpt lat="45.8382" lon="4.73157">
        <ele>324.77859</ele>
        <time>2023-08-05T12:22:11.000Z</time>
      </trkpt>
      <trkpt lat="45.83823" lon="4.73155">
        <ele>325.00751</ele>
        <time>2023-08-05T12:22:12.000Z</time>
      </trkpt>
      <trkpt lat="45.83826" lon="4.73152">
        <ele>325.19672</ele>
        <time>2023-08-05T12:22:13.000Z</time>
      </trkpt>
      <trkpt lat="45.83829" lon="4.7315">
        <ele>325.68878</ele>
        <time>2023-08-05T12:22:14.000Z</time>
      </trkpt>
      <trkpt lat="45.83832" lon="4.73147">
        <ele>326.05536</ele>
        <time>2023-08-05T12:22:15.000Z</time>
      </trkpt>
      <trkpt lat="45.83835" lon="4.73145">
        <ele>326.50272</ele>
        <time>2023-08-05T12:22:16.000Z</time>
      </trkpt>
      <trkpt lat="45.83838" lon="4.73142">
        <ele>326.73953</ele>
        <time>2023-08-05T12:22:17.000Z</time>
      </trkpt>
      <trkpt lat="45.8384" lon="4.7314">
        <ele>327.25272</ele>
        <time>2023-08-05T12:22:18.000Z</time>
      </trkpt>
      <trkpt lat="45.83843" lon="4.73138">
        <ele>327.73184</ele>
        <time>2023-08-05T12:22:19.000Z</time>
      </trkpt>
      <trkpt lat="45.83846" lon="4.73135">
        <ele>328.11725</ele>
        <time>2023-08-05T12:22:20.000Z</time>
      </trkpt>
      <trkpt lat="45.8385" lon="4.73133">
        <ele>328.49057</ele>
        <time>2023-08-05T12:22:21.000Z</time>
      </trkpt>
      <trkpt lat="45.83853" lon="4.7313">
        <ele>328.80865</ele>
        <time>2023-08-05T12:22:22.000Z</time>
      </trkpt>
      <trkpt lat="45.83856" lon="4.73127">
        <ele>328.93777</ele>
        <time>2023-08-05T12:22:23.000Z</time>
      </trkpt>
      <trkpt lat="45.8386" lon="4.73125">
        <ele>328.90427</ele>
        <time>2023-08-05T12:22:24.000Z</time>
      </trkpt>
      <trkpt lat="45.83863" lon="4.73123">
        <ele>329.65805</ele>
        <time>2023-08-05T12:22:25.000Z</time>
      </trkpt>
      <trkpt lat="45.83867" lon="4.73121">
        <ele>330.4469</ele>
        <time>2023-08-05T12:22:26.000Z</time>
      </trkpt>
      <trkpt lat="45.8387" lon="4.73119">
        <ele>331.29224</ele>
        <time>2023-08-05T12:22:27.000Z</time>
      </trkpt>
      <trkpt lat="45.83873" lon="4.73117">
        <ele>332.23898</ele>
        <time>2023-08-05T12:22:28.000Z</time>
      </trkpt>
      <trkpt lat="45.83877" lon="4.73115">
        <ele>333.19672</ele>
        <time>2023-08-05T12:22:29.000Z</time>
      </trkpt>
      <trkpt lat="45.8388" lon="4.73113">
        <ele>333.76764</ele>
        <time>2023-08-05T12:22:30.000Z</time>
      </trkpt>
      <trkpt lat="45.83884" lon="4.73112">
        <ele>334.35736</ele>
        <time>2023-08-05T12:22:31.000Z</time>
      </trkpt>
      <trkpt lat="45.83888" lon="4.73111">
        <ele>334.88971</ele>
        <time>2023-08-05T12:22:32.000Z</time>
      </trkpt>
      <trkpt lat="45.83892" lon="4.7311">
        <ele>335.72516</ele>
        <time>2023-08-05T12:22:33.000Z</time>
      </trkpt>
      <trkpt lat="45.83897" lon="4.73109">
        <ele>336.36801</ele>
        <time>2023-08-05T12:22:34.000Z</time>
      </trkpt>
      <trkpt lat="45.83901" lon="4.73108">
        <ele>337.03769</ele>
        <time>2023-08-05T12:22:35.000Z</time>
      </trkpt>
      <trkpt lat="45.83906" lon="4.73108">
        <ele>337.70584</ele>
        <time>2023-08-05T12:22:36.000Z</time>
      </trkpt>
      <trkpt lat="45.8391" lon="4.73107">
        <ele>338.38602</ele>
        <time>2023-08-05T12:22:37.000Z</time>
      </trkpt>
      <trkpt lat="45.83914" lon="4.73107">
        <ele>338.84152</ele>
        <time>2023-08-05T12:22:38.000Z</time>
      </trkpt>
      <trkpt lat="45.83918" lon="4.73106">
        <ele>338.98022</ele>
        <time>2023-08-05T12:22:39.000Z</time>
      </trkpt>
      <trkpt lat="45.83922" lon="4.73106">
        <ele>339.151</ele>
        <time>2023-08-05T12:22:40.000Z</time>
      </trkpt>
      <trkpt lat="45.83927" lon="4.73105">
        <ele>339.29105</ele>
        <time>2023-08-05T12:22:41.000Z</time>
      </trkpt>
      <trkpt lat="45.83931" lon="4.73103">
        <ele>339.43024</ele>
        <time>2023-08-05T12:22:42.000Z</time>
      </trkpt>
      <trkpt lat="45.83936" lon="4.73102">
        <ele>339.76987</ele>
        <time>2023-08-05T12:22:43.000Z</time>
      </trkpt>
      <trkpt lat="45.83942" lon="4.73101">
        <ele>340.22211</ele>
        <time>2023-08-05T12:22:44.000Z</time>
      </trkpt>
      <trkpt lat="45.83947" lon="4.73099">
        <ele>340.18463</ele>
        <time>2023-08-05T12:22:45.000Z</time>
      </trkpt>
      <trkpt lat="45.83953" lon="4.73098">
        <ele>340.13617</ele>
        <time>2023-08-05T12:22:46.000Z</time>
      </trkpt>
      <trkpt lat="45.83958" lon="4.73097">
        <ele>340.02151</ele>
        <time>2023-08-05T12:22:47.000Z</time>
      </trkpt>
      <trkpt lat="45.83964" lon="4.73094">
        <ele>339.79028</ele>
        <time>2023-08-05T12:22:48.000Z</time>
      </trkpt>
      <trkpt lat="45.83972" lon="4.73095">
        <ele>339.58646</ele>
        <time>2023-08-05T12:22:49.000Z</time>
      </trkpt>
      <trkpt lat="45.83976" lon="4.73091">
        <ele>339.82416</ele>
        <time>2023-08-05T12:22:50.000Z</time>
      </trkpt>
      <trkpt lat="45.8398" lon="4.73088">
        <ele>340.02206</ele>
        <time>2023-08-05T12:22:51.000Z</time>
      </trkpt>
      <trkpt lat="45.83985" lon="4.73086">
        <ele>340.27484</ele>
        <time>2023-08-05T12:22:52.000Z</time>
      </trkpt>
      <trkpt lat="45.8399" lon="4.73087">
        <ele>340.17471</ele>
        <time>2023-08-05T12:22:53.000Z</time>
      </trkpt>
      <trkpt lat="45.83995" lon="4.73091">
        <ele>340.01181</ele>
        <time>2023-08-05T12:22:54.000Z</time>
      </trkpt>
      <trkpt lat="45.83997" lon="4.73095">
        <ele>339.92166</ele>
        <time>2023-08-05T12:22:55.000Z</time>
      </trkpt>
      <trkpt lat="45.83997" lon="4.73102">
        <ele>339.87183</ele>
        <time>2023-08-05T12:22:56.000Z</time>
      </trkpt>
      <trkpt lat="45.83997" lon="4.73109">
        <ele>339.43433</ele>
        <time>2023-08-05T12:22:57.000Z</time>
      </trkpt>
      <trkpt lat="45.83997" lon="4.73117">
        <ele>338.99896</ele>
        <time>2023-08-05T12:22:58.000Z</time>
      </trkpt>
      <trkpt lat="45.83997" lon="4.73124">
        <ele>338.83881</ele>
        <time>2023-08-05T12:22:59.000Z</time>
      </trkpt>
      <trkpt lat="45.83997" lon="4.73133">
        <ele>338.65051</ele>
        <time>2023-08-05T12:23:00.000Z</time>
      </trkpt>
      <trkpt lat="45.83998" lon="4.73142">
        <ele>338.44159</ele>
        <time>2023-08-05T12:23:01.000Z</time>
      </trkpt>
      <trkpt lat="45.83998" lon="4.7315">
        <ele>338.28421</ele>
        <time>2023-08-05T12:23:02.000Z</time>
      </trkpt>
      <trkpt lat="45.83998" lon="4.73157">
        <ele>338.15863</ele>
        <time>2023-08-05T12:23:03.000Z</time>
      </trkpt>
      <trkpt lat="45.83999" lon="4.73166">
        <ele>338.04538</ele>
        <time>2023-08-05T12:23:04.000Z</time>
      </trkpt>
      <trkpt lat="45.84001" lon="4.73175">
        <ele>338.08325</ele>
        <time>2023-08-05T12:23:05.000Z</time>
      </trkpt>
      <trkpt lat="45.84001" lon="4.73185">
        <ele>338.11407</ele>
        <time>2023-08-05T12:23:06.000Z</time>
      </trkpt>
      <trkpt lat="45.84003" lon="4.73195">
        <ele>338.13675</ele>
        <time>2023-08-05T12:23:07.000Z</time>
      </trkpt>
      <trkpt lat="45.84002" lon="4.73203">
        <ele>338.22537</ele>
        <time>2023-08-05T12:23:08.000Z</time>
      </trkpt>
      <trkpt lat="45.84002" lon="4.73212">
        <ele>338.3233</ele>
        <time>2023-08-05T12:23:09.000Z</time>
      </trkpt>
      <trkpt lat="45.84003" lon="4.73223">
        <ele>337.88885</ele>
        <time>2023-08-05T12:23:10.000Z</time>
      </trkpt>
      <trkpt lat="45.84003" lon="4.73234">
        <ele>337.41388</ele>
        <time>2023-08-05T12:23:11.000Z</time>
      </trkpt>
      <trkpt lat="45.84005" lon="4.73242">
        <ele>336.93024</ele>
        <time>2023-08-05T12:23:12.000Z</time>
      </trkpt>
      <trkpt lat="45.84008" lon="4.73249">
        <ele>336.45663</ele>
        <time>2023-08-05T12:23:13.000Z</time>
      </trkpt>
      <trkpt lat="45.84012" lon="4.73254">
        <ele>336.01129</ele>
        <time>2023-08-05T12:23:14.000Z</time>
      </trkpt>
      <trkpt lat="45.84018" lon="4.7326">
        <ele>335.56558</ele>
        <time>2023-08-05T12:23:15.000Z</time>
      </trkpt>
      <trkpt lat="45.84023" lon="4.73265">
        <ele>335.02374</ele>
        <time>2023-08-05T12:23:16.000Z</time>
      </trkpt>
      <trkpt lat="45.84027" lon="4.7327">
        <ele>334.86057</ele>
        <time>2023-08-05T12:23:17.000Z</time>
      </trkpt>
      <trkpt lat="45.84033" lon="4.73276">
        <ele>334.78506</ele>
        <time>2023-08-05T12:23:18.000Z</time>
      </trkpt>
      <trkpt lat="45.84037" lon="4.73283">
        <ele>334.62933</ele>
        <time>2023-08-05T12:23:19.000Z</time>
      </trkpt>
      <trkpt lat="45.84043" lon="4.73288">
        <ele>334.47946</ele>
        <time>2023-08-05T12:23:20.000Z</time>
      </trkpt>
      <trkpt lat="45.84047" lon="4.73292">
        <ele>334.3414</ele>
        <time>2023-08-05T12:23:21.000Z</time>
      </trkpt>
      <trkpt lat="45.84052" lon="4.73296">
        <ele>334.16174</ele>
        <time>2023-08-05T12:23:22.000Z</time>
      </trkpt>
      <trkpt lat="45.84056" lon="4.73301">
        <ele>333.92566</ele>
        <time>2023-08-05T12:23:23.000Z</time>
      </trkpt>
      <trkpt lat="45.84059" lon="4.73305">
        <ele>333.67987</ele>
        <time>2023-08-05T12:23:24.000Z</time>
      </trkpt>
      <trkpt lat="45.84064" lon="4.73309">
        <ele>332.94269</ele>
        <time>2023-08-05T12:23:25.000Z</time>
      </trkpt>
      <trkpt lat="45.84069" lon="4.73313">
        <ele>332.2193</ele>
        <time>2023-08-05T12:23:26.000Z</time>
      </trkpt>
      <trkpt lat="45.84074" lon="4.73316">
        <ele>331.53159</ele>
        <time>2023-08-05T12:23:27.000Z</time>
      </trkpt>
      <trkpt lat="45.84078" lon="4.73319">
        <ele>330.78406</ele>
        <time>2023-08-05T12:23:28.000Z</time>
      </trkpt>
      <trkpt lat="45.84082" lon="4.73322">
        <ele>329.98471</ele>
        <time>2023-08-05T12:23:29.000Z</time>
      </trkpt>
      <trkpt lat="45.84086" lon="4.73325">
        <ele>329.77505</ele>
        <time>2023-08-05T12:23:30.000Z</time>
      </trkpt>
      <trkpt lat="45.84091" lon="4.73328">
        <ele>329.85333</ele>
        <time>2023-08-05T12:23:31.000Z</time>
      </trkpt>
      <trkpt lat="45.84096" lon="4.7333">
        <ele>329.93857</ele>
        <time>2023-08-05T12:23:32.000Z</time>
      </trkpt>
      <trkpt lat="45.841" lon="4.73332">
        <ele>330.04852</ele>
        <time>2023-08-05T12:23:33.000Z</time>
      </trkpt>
      <trkpt lat="45.84104" lon="4.73336">
        <ele>330.19128</ele>
        <time>2023-08-05T12:23:34.000Z</time>
      </trkpt>
      <trkpt lat="45.84109" lon="4.73338">
        <ele>330.27612</ele>
        <time>2023-08-05T12:23:35.000Z</time>
      </trkpt>
      <trkpt lat="45.84114" lon="4.73342">
        <ele>330.15753</ele>
        <time>2023-08-05T12:23:36.000Z</time>
      </trkpt>
      <trkpt lat="45.84119" lon="4.73345">
        <ele>330.04959</ele>
        <time>2023-08-05T12:23:37.000Z</time>
      </trkpt>
      <trkpt lat="45.84124" lon="4.73348">
        <ele>329.84814</ele>
        <time>2023-08-05T12:23:38.000Z</time>
      </trkpt>
      <trkpt lat="45.84128" lon="4.73351">
        <ele>329.77032</ele>
        <time>2023-08-05T12:23:39.000Z</time>
      </trkpt>
      <trkpt lat="45.84133" lon="4.73354">
        <ele>329.70135</ele>
        <time>2023-08-05T12:23:40.000Z</time>
      </trkpt>
      <trkpt lat="45.84138" lon="4.73357">
        <ele>329.64801</ele>
        <time>2023-08-05T12:23:41.000Z</time>
      </trkpt>
      <trkpt lat="45.84142" lon="4.7336">
        <ele>329.59497</ele>
        <time>2023-08-05T12:23:42.000Z</time>
      </trkpt>
      <trkpt lat="45.84146" lon="4.73363">
        <ele>329.5506</ele>
        <time>2023-08-05T12:23:43.000Z</time>
      </trkpt>
      <trkpt lat="45.8415" lon="4.73367">
        <ele>329.52213</ele>
        <time>2023-08-05T12:23:44.000Z</time>
      </trkpt>
      <trkpt lat="45.84155" lon="4.7337">
        <ele>329.49872</ele>
        <time>2023-08-05T12:23:45.000Z</time>
      </trkpt>
      <trkpt lat="45.8416" lon="4.73373">
        <ele>329.45865</ele>
        <time>2023-08-05T12:23:46.000Z</time>
      </trkpt>
      <trkpt lat="45.84164" lon="4.73377">
        <ele>329.39465</ele>
        <time>2023-08-05T12:23:47.000Z</time>
      </trkpt>
      <trkpt lat="45.84168" lon="4.73381">
        <ele>329.34393</ele>
        <time>2023-08-05T12:23:48.000Z</time>
      </trkpt>
      <trkpt lat="45.84171" lon="4.73388">
        <ele>329.26865</ele>
        <time>2023-08-05T12:23:49.000Z</time>
      </trkpt>
      <trkpt lat="45.84171" lon="4.73395">
        <ele>329.17035</ele>
        <time>2023-08-05T12:23:50.000Z</time>
      </trkpt>
      <trkpt lat="45.84169" lon="4.73403">
        <ele>328.92477</ele>
        <time>2023-08-05T12:23:51.000Z</time>
      </trkpt>
      <trkpt lat="45.84163" lon="4.73407">
        <ele>328.92554</ele>
        <time>2023-08-05T12:23:52.000Z</time>
      </trkpt>
      <trkpt lat="45.84158" lon="4.73413">
        <ele>328.8985</ele>
        <time>2023-08-05T12:23:53.000Z</time>
      </trkpt>
      <trkpt lat="45.84151" lon="4.73419">
        <ele>328.82471</ele>
        <time>2023-08-05T12:23:54.000Z</time>
      </trkpt>
      <trkpt lat="45.84145" lon="4.73425">
        <ele>328.71628</ele>
        <time>2023-08-05T12:23:55.000Z</time>
      </trkpt>
      <trkpt lat="45.84138" lon="4.73431">
        <ele>328.85849</ele>
        <time>2023-08-05T12:23:56.000Z</time>
      </trkpt>
      <trkpt lat="45.84132" lon="4.73438">
        <ele>328.98322</ele>
        <time>2023-08-05T12:23:57.000Z</time>
      </trkpt>
      <trkpt lat="45.84125" lon="4.73446">
        <ele>329.0683</ele>
        <time>2023-08-05T12:23:58.000Z</time>
      </trkpt>
      <trkpt lat="45.84119" lon="4.73455">
        <ele>329.45428</ele>
        <time>2023-08-05T12:23:59.000Z</time>
      </trkpt>
      <trkpt lat="45.84113" lon="4.73463">
        <ele>329.12457</ele>
        <time>2023-08-05T12:24:00.000Z</time>
      </trkpt>
      <trkpt lat="45.84107" lon="4.73472">
        <ele>328.81763</ele>
        <time>2023-08-05T12:24:01.000Z</time>
      </trkpt>
      <trkpt lat="45.84102" lon="4.7348">
        <ele>328.54053</ele>
        <time>2023-08-05T12:24:02.000Z</time>
      </trkpt>
      <trkpt lat="45.84098" lon="4.73488">
        <ele>328.28168</ele>
        <time>2023-08-05T12:24:03.000Z</time>
      </trkpt>
      <trkpt lat="45.84093" lon="4.73495">
        <ele>328.02695</ele>
        <time>2023-08-05T12:24:04.000Z</time>
      </trkpt>
      <trkpt lat="45.84089" lon="4.73502">
        <ele>327.77997</ele>
        <time>2023-08-05T12:24:05.000Z</time>
      </trkpt>
      <trkpt lat="45.84085" lon="4.73508">
        <ele>327.55301</ele>
        <time>2023-08-05T12:24:06.000Z</time>
      </trkpt>
      <trkpt lat="45.8408" lon="4.73514">
        <ele>327.3414</ele>
        <time>2023-08-05T12:24:07.000Z</time>
      </trkpt>
      <trkpt lat="45.84075" lon="4.7352">
        <ele>327.15179</ele>
        <time>2023-08-05T12:24:08.000Z</time>
      </trkpt>
      <trkpt lat="45.84071" lon="4.73525">
        <ele>326.99133</ele>
        <time>2023-08-05T12:24:09.000Z</time>
      </trkpt>
      <trkpt lat="45.84066" lon="4.7353">
        <ele>326.81894</ele>
        <time>2023-08-05T12:24:10.000Z</time>
      </trkpt>
      <trkpt lat="45.84062" lon="4.73534">
        <ele>326.59332</ele>
        <time>2023-08-05T12:24:11.000Z</time>
      </trkpt>
      <trkpt lat="45.84057" lon="4.73538">
        <ele>326.13452</ele>
        <time>2023-08-05T12:24:12.000Z</time>
      </trkpt>
      <trkpt lat="45.84054" lon="4.73541">
        <ele>325.7182</ele>
        <time>2023-08-05T12:24:13.000Z</time>
      </trkpt>
      <trkpt lat="45.8405" lon="4.73545">
        <ele>325.33551</ele>
        <time>2023-08-05T12:24:14.000Z</time>
      </trkpt>
      <trkpt lat="45.84046" lon="4.73547">
        <ele>325.00296</ele>
        <time>2023-08-05T12:24:15.000Z</time>
      </trkpt>
      <trkpt lat="45.84042" lon="4.7355">
        <ele>324.68073</ele>
        <time>2023-08-05T12:24:16.000Z</time>
      </trkpt>
      <trkpt lat="45.84039" lon="4.73552">
        <ele>324.37534</ele>
        <time>2023-08-05T12:24:17.000Z</time>
      </trkpt>
      <trkpt lat="45.84035" lon="4.73554">
        <ele>324.10339</ele>
        <time>2023-08-05T12:24:18.000Z</time>
      </trkpt>
      <trkpt lat="45.84032" lon="4.73556">
        <ele>323.82709</ele>
        <time>2023-08-05T12:24:19.000Z</time>
      </trkpt>
      <trkpt lat="45.8403" lon="4.73558">
        <ele>324.26035</ele>
        <time>2023-08-05T12:24:20.000Z</time>
      </trkpt>
      <trkpt lat="45.84028" lon="4.73561">
        <ele>324.49826</ele>
        <time>2023-08-05T12:24:21.000Z</time>
      </trkpt>
      <trkpt lat="45.84027" lon="4.73565">
        <ele>324.7562</ele>
        <time>2023-08-05T12:24:23.000Z</time>
      </trkpt>
      <trkpt lat="45.84027" lon="4.73569">
        <ele>324.94629</ele>
        <time>2023-08-05T12:24:31.000Z</time>
      </trkpt>
      <trkpt lat="45.84025" lon="4.73574">
        <ele>325.14313</ele>
        <time>2023-08-05T12:24:33.000Z</time>
      </trkpt>
      <trkpt lat="45.84024" lon="4.73577">
        <ele>325.3512</ele>
        <time>2023-08-05T12:24:34.000Z</time>
      </trkpt>
      <trkpt lat="45.84023" lon="4.73581">
        <ele>325.5752</ele>
        <time>2023-08-05T12:24:35.000Z</time>
      </trkpt>
      <trkpt lat="45.84022" lon="4.73584">
        <ele>325.82111</ele>
        <time>2023-08-05T12:24:36.000Z</time>
      </trkpt>
      <trkpt lat="45.84021" lon="4.73588">
        <ele>326.01114</ele>
        <time>2023-08-05T12:24:37.000Z</time>
      </trkpt>
      <trkpt lat="45.8402" lon="4.73591">
        <ele>326.18439</ele>
        <time>2023-08-05T12:24:38.000Z</time>
      </trkpt>
      <trkpt lat="45.8402" lon="4.73596">
        <ele>326.4201</ele>
        <time>2023-08-05T12:24:39.000Z</time>
      </trkpt>
      <trkpt lat="45.84019" lon="4.73601">
        <ele>326.61884</ele>
        <time>2023-08-05T12:24:40.000Z</time>
      </trkpt>
      <trkpt lat="45.84018" lon="4.73607">
        <ele>327.36588</ele>
        <time>2023-08-05T12:24:41.000Z</time>
      </trkpt>
      <trkpt lat="45.84016" lon="4.73612">
        <ele>328.07791</ele>
        <time>2023-08-05T12:24:42.000Z</time>
      </trkpt>
      <trkpt lat="45.84014" lon="4.73617">
        <ele>328.40677</ele>
        <time>2023-08-05T12:24:43.000Z</time>
      </trkpt>
      <trkpt lat="45.84011" lon="4.73622">
        <ele>328.69101</ele>
        <time>2023-08-05T12:24:44.000Z</time>
      </trkpt>
      <trkpt lat="45.84006" lon="4.73626">
        <ele>328.98361</ele>
        <time>2023-08-05T12:24:45.000Z</time>
      </trkpt>
      <trkpt lat="45.84001" lon="4.7363">
        <ele>329.26706</ele>
        <time>2023-08-05T12:24:46.000Z</time>
      </trkpt>
      <trkpt lat="45.83996" lon="4.73631">
        <ele>329.52704</ele>
        <time>2023-08-05T12:24:47.000Z</time>
      </trkpt>
      <trkpt lat="45.83991" lon="4.73633">
        <ele>329.62103</ele>
        <time>2023-08-05T12:24:48.000Z</time>
      </trkpt>
      <trkpt lat="45.83985" lon="4.73634">
        <ele>329.83932</ele>
        <time>2023-08-05T12:24:49.000Z</time>
      </trkpt>
      <trkpt lat="45.83981" lon="4.73635">
        <ele>329.8782</ele>
        <time>2023-08-05T12:24:50.000Z</time>
      </trkpt>
      <trkpt lat="45.83976" lon="4.73637">
        <ele>329.92053</ele>
        <time>2023-08-05T12:24:51.000Z</time>
      </trkpt>
      <trkpt lat="45.8397" lon="4.7364">
        <ele>330.00836</ele>
        <time>2023-08-05T12:24:52.000Z</time>
      </trkpt>
      <trkpt lat="45.83966" lon="4.73645">
        <ele>330.06693</ele>
        <time>2023-08-05T12:24:53.000Z</time>
      </trkpt>
      <trkpt lat="45.83961" lon="4.73651">
        <ele>330.12891</ele>
        <time>2023-08-05T12:24:54.000Z</time>
      </trkpt>
      <trkpt lat="45.83957" lon="4.73658">
        <ele>330.34555</ele>
        <time>2023-08-05T12:24:55.000Z</time>
      </trkpt>
      <trkpt lat="45.83954" lon="4.73666">
        <ele>330.53616</ele>
        <time>2023-08-05T12:24:56.000Z</time>
      </trkpt>
      <trkpt lat="45.83954" lon="4.73674">
        <ele>330.87018</ele>
        <time>2023-08-05T12:24:57.000Z</time>
      </trkpt>
      <trkpt lat="45.83954" lon="4.73682">
        <ele>331.21634</ele>
        <time>2023-08-05T12:24:58.000Z</time>
      </trkpt>
      <trkpt lat="45.83954" lon="4.73692">
        <ele>331.11273</ele>
        <time>2023-08-05T12:24:59.000Z</time>
      </trkpt>
      <trkpt lat="45.83953" lon="4.73701">
        <ele>331.0831</ele>
        <time>2023-08-05T12:25:00.000Z</time>
      </trkpt>
      <trkpt lat="45.83951" lon="4.73709">
        <ele>330.47043</ele>
        <time>2023-08-05T12:25:01.000Z</time>
      </trkpt>
      <trkpt lat="45.83946" lon="4.73715">
        <ele>329.82925</ele>
        <time>2023-08-05T12:25:02.000Z</time>
      </trkpt>
      <trkpt lat="45.83941" lon="4.73722">
        <ele>329.27856</ele>
        <time>2023-08-05T12:25:03.000Z</time>
      </trkpt>
      <trkpt lat="45.83937" lon="4.7373">
        <ele>328.73346</ele>
        <time>2023-08-05T12:25:04.000Z</time>
      </trkpt>
      <trkpt lat="45.83934" lon="4.73738">
        <ele>328.13809</ele>
        <time>2023-08-05T12:25:05.000Z</time>
      </trkpt>
      <trkpt lat="45.83931" lon="4.73748">
        <ele>327.54523</ele>
        <time>2023-08-05T12:25:06.000Z</time>
      </trkpt>
      <trkpt lat="45.83929" lon="4.73757">
        <ele>326.98984</ele>
        <time>2023-08-05T12:25:07.000Z</time>
      </trkpt>
      <trkpt lat="45.8393" lon="4.73768">
        <ele>326.26514</ele>
        <time>2023-08-05T12:25:08.000Z</time>
      </trkpt>
      <trkpt lat="45.83932" lon="4.73779">
        <ele>325.41461</ele>
        <time>2023-08-05T12:25:09.000Z</time>
      </trkpt>
      <trkpt lat="45.83935" lon="4.73791">
        <ele>324.91891</ele>
        <time>2023-08-05T12:25:10.000Z</time>
      </trkpt>
      <trkpt lat="45.83942" lon="4.738">
        <ele>324.36639</ele>
        <time>2023-08-05T12:25:11.000Z</time>
      </trkpt>
      <trkpt lat="45.83949" lon="4.73809">
        <ele>323.82336</ele>
        <time>2023-08-05T12:25:12.000Z</time>
      </trkpt>
      <trkpt lat="45.83956" lon="4.73817">
        <ele>323.41959</ele>
        <time>2023-08-05T12:25:13.000Z</time>
      </trkpt>
      <trkpt lat="45.83963" lon="4.73825">
        <ele>322.99707</ele>
        <time>2023-08-05T12:25:14.000Z</time>
      </trkpt>
      <trkpt lat="45.8397" lon="4.73834">
        <ele>322.46591</ele>
        <time>2023-08-05T12:25:15.000Z</time>
      </trkpt>
      <trkpt lat="45.83976" lon="4.73843">
        <ele>321.99133</ele>
        <time>2023-08-05T12:25:16.000Z</time>
      </trkpt>
      <trkpt lat="45.83984" lon="4.73847">
        <ele>321.22632</ele>
        <time>2023-08-05T12:25:17.000Z</time>
      </trkpt>
      <trkpt lat="45.8399" lon="4.73853">
        <ele>320.36148</ele>
        <time>2023-08-05T12:25:18.000Z</time>
      </trkpt>
      <trkpt lat="45.83999" lon="4.73854">
        <ele>319.89761</ele>
        <time>2023-08-05T12:25:19.000Z</time>
      </trkpt>
      <trkpt lat="45.84009" lon="4.73853">
        <ele>319.38351</ele>
        <time>2023-08-05T12:25:20.000Z</time>
      </trkpt>
      <trkpt lat="45.84019" lon="4.73852">
        <ele>318.89313</ele>
        <time>2023-08-05T12:25:21.000Z</time>
      </trkpt>
      <trkpt lat="45.84027" lon="4.73847">
        <ele>318.41714</ele>
        <time>2023-08-05T12:25:22.000Z</time>
      </trkpt>
      <trkpt lat="45.84036" lon="4.73844">
        <ele>318.20709</ele>
        <time>2023-08-05T12:25:23.000Z</time>
      </trkpt>
      <trkpt lat="45.84045" lon="4.73843">
        <ele>317.94843</ele>
        <time>2023-08-05T12:25:24.000Z</time>
      </trkpt>
      <trkpt lat="45.84054" lon="4.73839">
        <ele>317.69086</ele>
        <time>2023-08-05T12:25:25.000Z</time>
      </trkpt>
      <trkpt lat="45.84062" lon="4.73836">
        <ele>317.36285</ele>
        <time>2023-08-05T12:25:26.000Z</time>
      </trkpt>
      <trkpt lat="45.8407" lon="4.73833">
        <ele>317.01978</ele>
        <time>2023-08-05T12:25:27.000Z</time>
      </trkpt>
      <trkpt lat="45.84078" lon="4.73829">
        <ele>316.71991</ele>
        <time>2023-08-05T12:25:28.000Z</time>
      </trkpt>
      <trkpt lat="45.84085" lon="4.73826">
        <ele>316.44196</ele>
        <time>2023-08-05T12:25:29.000Z</time>
      </trkpt>
      <trkpt lat="45.84092" lon="4.73823">
        <ele>316.15942</ele>
        <time>2023-08-05T12:25:30.000Z</time>
      </trkpt>
      <trkpt lat="45.84099" lon="4.73822">
        <ele>315.9165</ele>
        <time>2023-08-05T12:25:31.000Z</time>
      </trkpt>
      <trkpt lat="45.84105" lon="4.73821">
        <ele>315.68622</ele>
        <time>2023-08-05T12:25:32.000Z</time>
      </trkpt>
      <trkpt lat="45.84111" lon="4.7382">
        <ele>315.32281</ele>
        <time>2023-08-05T12:25:33.000Z</time>
      </trkpt>
      <trkpt lat="45.84116" lon="4.7382">
        <ele>314.97226</ele>
        <time>2023-08-05T12:25:34.000Z</time>
      </trkpt>
      <trkpt lat="45.84122" lon="4.73819">
        <ele>314.56943</ele>
        <time>2023-08-05T12:25:35.000Z</time>
      </trkpt>
      <trkpt lat="45.84127" lon="4.73819">
        <ele>314.19073</ele>
        <time>2023-08-05T12:25:36.000Z</time>
      </trkpt>
      <trkpt lat="45.84132" lon="4.73819">
        <ele>313.96515</ele>
        <time>2023-08-05T12:25:37.000Z</time>
      </trkpt>
      <trkpt lat="45.84137" lon="4.73819">
        <ele>313.8075</ele>
        <time>2023-08-05T12:25:38.000Z</time>
      </trkpt>
      <trkpt lat="45.84142" lon="4.7382">
        <ele>313.65634</ele>
        <time>2023-08-05T12:25:39.000Z</time>
      </trkpt>
      <trkpt lat="45.84147" lon="4.73821">
        <ele>313.51437</ele>
        <time>2023-08-05T12:25:40.000Z</time>
      </trkpt>
      <trkpt lat="45.84151" lon="4.73822">
        <ele>313.38599</ele>
        <time>2023-08-05T12:25:41.000Z</time>
      </trkpt>
      <trkpt lat="45.84154" lon="4.73824">
        <ele>313.27313</ele>
        <time>2023-08-05T12:25:42.000Z</time>
      </trkpt>
      <trkpt lat="45.84157" lon="4.73826">
        <ele>313.27081</ele>
        <time>2023-08-05T12:25:43.000Z</time>
      </trkpt>
      <trkpt lat="45.84161" lon="4.73827">
        <ele>313.34354</ele>
        <time>2023-08-05T12:25:44.000Z</time>
      </trkpt>
      <trkpt lat="45.84164" lon="4.73828">
        <ele>313.44214</ele>
        <time>2023-08-05T12:25:45.000Z</time>
      </trkpt>
      <trkpt lat="45.84167" lon="4.7383">
        <ele>313.63544</ele>
        <time>2023-08-05T12:25:46.000Z</time>
      </trkpt>
      <trkpt lat="45.84169" lon="4.73832">
        <ele>313.83844</ele>
        <time>2023-08-05T12:25:47.000Z</time>
      </trkpt>
      <trkpt lat="45.8417" lon="4.73835">
        <ele>314.03928</ele>
        <time>2023-08-05T12:25:48.000Z</time>
      </trkpt>
      <trkpt lat="45.84169" lon="4.73839">
        <ele>314.22217</ele>
        <time>2023-08-05T12:25:49.000Z</time>
      </trkpt>
      <trkpt lat="45.84168" lon="4.73841">
        <ele>314.39639</ele>
        <time>2023-08-05T12:25:50.000Z</time>
      </trkpt>
      <trkpt lat="45.84166" lon="4.73844">
        <ele>314.35114</ele>
        <time>2023-08-05T12:25:51.000Z</time>
      </trkpt>
      <trkpt lat="45.84165" lon="4.73846">
        <ele>314.30566</ele>
        <time>2023-08-05T12:25:52.000Z</time>
      </trkpt>
      <trkpt lat="45.84162" lon="4.73848">
        <ele>314.28839</ele>
        <time>2023-08-05T12:25:53.000Z</time>
      </trkpt>
      <trkpt lat="45.84161" lon="4.73849">
        <ele>314.28894</ele>
        <time>2023-08-05T12:25:54.000Z</time>
      </trkpt>
      <trkpt lat="45.84158" lon="4.73852">
        <ele>314.29318</ele>
        <time>2023-08-05T12:25:56.000Z</time>
      </trkpt>
      <trkpt lat="45.84156" lon="4.73855">
        <ele>314.22165</ele>
        <time>2023-08-05T12:25:57.000Z</time>
      </trkpt>
      <trkpt lat="45.84154" lon="4.73857">
        <ele>314.17856</ele>
        <time>2023-08-05T12:25:58.000Z</time>
      </trkpt>
      <trkpt lat="45.84152" lon="4.7386">
        <ele>314.15308</ele>
        <time>2023-08-05T12:25:59.000Z</time>
      </trkpt>
      <trkpt lat="45.8415" lon="4.73862">
        <ele>314.12927</ele>
        <time>2023-08-05T12:26:00.000Z</time>
      </trkpt>
      <trkpt lat="45.84147" lon="4.73865">
        <ele>314.08279</ele>
        <time>2023-08-05T12:26:01.000Z</time>
      </trkpt>
      <trkpt lat="45.84145" lon="4.73868">
        <ele>314.0621</ele>
        <time>2023-08-05T12:26:02.000Z</time>
      </trkpt>
      <trkpt lat="45.84143" lon="4.73871">
        <ele>314.06372</ele>
        <time>2023-08-05T12:26:03.000Z</time>
      </trkpt>
      <trkpt lat="45.84141" lon="4.73875">
        <ele>313.96594</ele>
        <time>2023-08-05T12:26:04.000Z</time>
      </trkpt>
      <trkpt lat="45.84139" lon="4.73878">
        <ele>313.85825</ele>
        <time>2023-08-05T12:26:05.000Z</time>
      </trkpt>
      <trkpt lat="45.84136" lon="4.73882">
        <ele>313.7717</ele>
        <time>2023-08-05T12:26:06.000Z</time>
      </trkpt>
      <trkpt lat="45.84134" lon="4.73885">
        <ele>313.70016</ele>
        <time>2023-08-05T12:26:07.000Z</time>
      </trkpt>
      <trkpt lat="45.84132" lon="4.73888">
        <ele>313.63702</ele>
        <time>2023-08-05T12:26:08.000Z</time>
      </trkpt>
      <trkpt lat="45.8413" lon="4.73891">
        <ele>313.58957</ele>
        <time>2023-08-05T12:26:09.000Z</time>
      </trkpt>
      <trkpt lat="45.84128" lon="4.73894">
        <ele>313.50531</ele>
        <time>2023-08-05T12:26:10.000Z</time>
      </trkpt>
      <trkpt lat="45.84126" lon="4.73896">
        <ele>313.43195</ele>
        <time>2023-08-05T12:26:11.000Z</time>
      </trkpt>
      <trkpt lat="45.84123" lon="4.739">
        <ele>313.55673</ele>
        <time>2023-08-05T12:26:12.000Z</time>
      </trkpt>
      <trkpt lat="45.84121" lon="4.73903">
        <ele>313.67169</ele>
        <time>2023-08-05T12:26:13.000Z</time>
      </trkpt>
      <trkpt lat="45.84119" lon="4.73907">
        <ele>313.76538</ele>
        <time>2023-08-05T12:26:14.000Z</time>
      </trkpt>
      <trkpt lat="45.84117" lon="4.73911">
        <ele>313.87952</ele>
        <time>2023-08-05T12:26:15.000Z</time>
      </trkpt>
      <trkpt lat="45.84115" lon="4.73914">
        <ele>314.03101</ele>
        <time>2023-08-05T12:26:16.000Z</time>
      </trkpt>
      <trkpt lat="45.84113" lon="4.73917">
        <ele>314.17682</ele>
        <time>2023-08-05T12:26:17.000Z</time>
      </trkpt>
      <trkpt lat="45.84111" lon="4.7392">
        <ele>314.35919</ele>
        <time>2023-08-05T12:26:18.000Z</time>
      </trkpt>
      <trkpt lat="45.84108" lon="4.73923">
        <ele>314.5423</ele>
        <time>2023-08-05T12:26:19.000Z</time>
      </trkpt>
      <trkpt lat="45.84106" lon="4.73925">
        <ele>314.75247</ele>
        <time>2023-08-05T12:26:20.000Z</time>
      </trkpt>
      <trkpt lat="45.84104" lon="4.73928">
        <ele>314.96149</ele>
        <time>2023-08-05T12:26:21.000Z</time>
      </trkpt>
      <trkpt lat="45.84102" lon="4.73931">
        <ele>315.1983</ele>
        <time>2023-08-05T12:26:22.000Z</time>
      </trkpt>
      <trkpt lat="45.841" lon="4.73934">
        <ele>315.3981</ele>
        <time>2023-08-05T12:26:23.000Z</time>
      </trkpt>
      <trkpt lat="45.84098" lon="4.73938">
        <ele>315.63278</ele>
        <time>2023-08-05T12:26:24.000Z</time>
      </trkpt>
      <trkpt lat="45.84095" lon="4.73942">
        <ele>315.85114</ele>
        <time>2023-08-05T12:26:25.000Z</time>
      </trkpt>
      <trkpt lat="45.84094" lon="4.73946">
        <ele>316.04791</ele>
        <time>2023-08-05T12:26:26.000Z</time>
      </trkpt>
      <trkpt lat="45.84092" lon="4.7395">
        <ele>316.21039</ele>
        <time>2023-08-05T12:26:27.000Z</time>
      </trkpt>
      <trkpt lat="45.84089" lon="4.73954">
        <ele>316.36285</ele>
        <time>2023-08-05T12:26:28.000Z</time>
      </trkpt>
      <trkpt lat="45.84087" lon="4.73957">
        <ele>316.46951</ele>
        <time>2023-08-05T12:26:29.000Z</time>
      </trkpt>
      <trkpt lat="45.84083" lon="4.7396">
        <ele>316.58987</ele>
        <time>2023-08-05T12:26:30.000Z</time>
      </trkpt>
      <trkpt lat="45.8408" lon="4.73964">
        <ele>316.72818</ele>
        <time>2023-08-05T12:26:31.000Z</time>
      </trkpt>
      <trkpt lat="45.84077" lon="4.73968">
        <ele>316.82977</ele>
        <time>2023-08-05T12:26:32.000Z</time>
      </trkpt>
      <trkpt lat="45.84075" lon="4.73971">
        <ele>316.97202</ele>
        <time>2023-08-05T12:26:33.000Z</time>
      </trkpt>
      <trkpt lat="45.84072" lon="4.73974">
        <ele>317.13837</ele>
        <time>2023-08-05T12:26:34.000Z</time>
      </trkpt>
      <trkpt lat="45.8407" lon="4.73978">
        <ele>317.26251</ele>
        <time>2023-08-05T12:26:35.000Z</time>
      </trkpt>
      <trkpt lat="45.84067" lon="4.73981">
        <ele>317.32654</ele>
        <time>2023-08-05T12:26:36.000Z</time>
      </trkpt>
      <trkpt lat="45.84064" lon="4.73985">
        <ele>317.4024</ele>
        <time>2023-08-05T12:26:37.000Z</time>
      </trkpt>
      <trkpt lat="45.84061" lon="4.73989">
        <ele>317.45526</ele>
        <time>2023-08-05T12:26:38.000Z</time>
      </trkpt>
      <trkpt lat="45.84059" lon="4.73992">
        <ele>317.52069</ele>
        <time>2023-08-05T12:26:39.000Z</time>
      </trkpt>
      <trkpt lat="45.84057" lon="4.73995">
        <ele>317.54214</ele>
        <time>2023-08-05T12:26:40.000Z</time>
      </trkpt>
      <trkpt lat="45.84055" lon="4.73999">
        <ele>317.62302</ele>
        <time>2023-08-05T12:26:41.000Z</time>
      </trkpt>
      <trkpt lat="45.84053" lon="4.74002">
        <ele>317.68634</ele>
        <time>2023-08-05T12:26:42.000Z</time>
      </trkpt>
      <trkpt lat="45.84051" lon="4.74006">
        <ele>317.776</ele>
        <time>2023-08-05T12:26:43.000Z</time>
      </trkpt>
      <trkpt lat="45.84049" lon="4.74009">
        <ele>317.87421</ele>
        <time>2023-08-05T12:26:44.000Z</time>
      </trkpt>
      <trkpt lat="45.84047" lon="4.74014">
        <ele>317.97952</ele>
        <time>2023-08-05T12:26:45.000Z</time>
      </trkpt>
      <trkpt lat="45.84045" lon="4.74019">
        <ele>318.08704</ele>
        <time>2023-08-05T12:26:46.000Z</time>
      </trkpt>
      <trkpt lat="45.84043" lon="4.74024">
        <ele>318.19058</ele>
        <time>2023-08-05T12:26:47.000Z</time>
      </trkpt>
      <trkpt lat="45.84041" lon="4.7403">
        <ele>318.26965</ele>
        <time>2023-08-05T12:26:48.000Z</time>
      </trkpt>
      <trkpt lat="45.84039" lon="4.74035">
        <ele>318.36929</ele>
        <time>2023-08-05T12:26:49.000Z</time>
      </trkpt>
      <trkpt lat="45.84037" lon="4.7404">
        <ele>318.51221</ele>
        <time>2023-08-05T12:26:50.000Z</time>
      </trkpt>
      <trkpt lat="45.84035" lon="4.74045">
        <ele>318.58768</ele>
        <time>2023-08-05T12:26:51.000Z</time>
      </trkpt>
      <trkpt lat="45.84035" lon="4.74054">
        <ele>318.69977</ele>
        <time>2023-08-05T12:26:52.000Z</time>
      </trkpt>
      <trkpt lat="45.84033" lon="4.7406">
        <ele>318.73199</ele>
        <time>2023-08-05T12:26:53.000Z</time>
      </trkpt>
      <trkpt lat="45.84031" lon="4.74066">
        <ele>318.73444</ele>
        <time>2023-08-05T12:26:54.000Z</time>
      </trkpt>
      <trkpt lat="45.84029" lon="4.74071">
        <ele>318.75363</ele>
        <time>2023-08-05T12:26:55.000Z</time>
      </trkpt>
      <trkpt lat="45.84026" lon="4.74076">
        <ele>318.80368</ele>
        <time>2023-08-05T12:26:56.000Z</time>
      </trkpt>
      <trkpt lat="45.84025" lon="4.74082">
        <ele>318.81396</ele>
        <time>2023-08-05T12:26:57.000Z</time>
      </trkpt>
      <trkpt lat="45.84023" lon="4.74088">
        <ele>318.79065</ele>
        <time>2023-08-05T12:26:58.000Z</time>
      </trkpt>
      <trkpt lat="45.8402" lon="4.74093">
        <ele>318.71628</ele>
        <time>2023-08-05T12:26:59.000Z</time>
      </trkpt>
      <trkpt lat="45.84016" lon="4.74098">
        <ele>318.64948</ele>
        <time>2023-08-05T12:27:00.000Z</time>
      </trkpt>
      <trkpt lat="45.84014" lon="4.74103">
        <ele>318.5098</ele>
        <time>2023-08-05T12:27:01.000Z</time>
      </trkpt>
      <trkpt lat="45.84011" lon="4.74109">
        <ele>318.33023</ele>
        <time>2023-08-05T12:27:02.000Z</time>
      </trkpt>
      <trkpt lat="45.84007" lon="4.74115">
        <ele>318.15546</ele>
        <time>2023-08-05T12:27:03.000Z</time>
      </trkpt>
      <trkpt lat="45.84005" lon="4.74118">
        <ele>317.9726</ele>
        <time>2023-08-05T12:27:04.000Z</time>
      </trkpt>
      <trkpt lat="45.84003" lon="4.7412">
        <ele>317.82242</ele>
        <time>2023-08-05T12:27:05.000Z</time>
      </trkpt>
      <trkpt lat="45.84001" lon="4.74125">
        <ele>317.73749</ele>
        <time>2023-08-05T12:27:06.000Z</time>
      </trkpt>
      <trkpt lat="45.83997" lon="4.74128">
        <ele>317.65088</ele>
        <time>2023-08-05T12:27:07.000Z</time>
      </trkpt>
      <trkpt lat="45.83994" lon="4.74132">
        <ele>318.1889</ele>
        <time>2023-08-05T12:27:08.000Z</time>
      </trkpt>
      <trkpt lat="45.83993" lon="4.74138">
        <ele>318.62988</ele>
        <time>2023-08-05T12:27:09.000Z</time>
      </trkpt>
      <trkpt lat="45.8399" lon="4.74142">
        <ele>319.08218</ele>
        <time>2023-08-05T12:27:10.000Z</time>
      </trkpt>
      <trkpt lat="45.83987" lon="4.74146">
        <ele>319.58429</ele>
        <time>2023-08-05T12:27:11.000Z</time>
      </trkpt>
      <trkpt lat="45.83987" lon="4.74151">
        <ele>320.10831</ele>
        <time>2023-08-05T12:27:12.000Z</time>
      </trkpt>
      <trkpt lat="45.83986" lon="4.74156">
        <ele>320.69534</ele>
        <time>2023-08-05T12:27:13.000Z</time>
      </trkpt>
      <trkpt lat="45.83984" lon="4.74161">
        <ele>321.34491</ele>
        <time>2023-08-05T12:27:14.000Z</time>
      </trkpt>
      <trkpt lat="45.83983" lon="4.74166">
        <ele>322.21994</ele>
        <time>2023-08-05T12:27:15.000Z</time>
      </trkpt>
      <trkpt lat="45.83981" lon="4.74171">
        <ele>323.06055</ele>
        <time>2023-08-05T12:27:16.000Z</time>
      </trkpt>
      <trkpt lat="45.83979" lon="4.74178">
        <ele>323.94351</ele>
        <time>2023-08-05T12:27:17.000Z</time>
      </trkpt>
      <trkpt lat="45.83977" lon="4.74184">
        <ele>324.8158</ele>
        <time>2023-08-05T12:27:18.000Z</time>
      </trkpt>
      <trkpt lat="45.83977" lon="4.74191">
        <ele>325.71042</ele>
        <time>2023-08-05T12:27:19.000Z</time>
      </trkpt>
      <trkpt lat="45.83975" lon="4.74197">
        <ele>326.59308</ele>
        <time>2023-08-05T12:27:20.000Z</time>
      </trkpt>
      <trkpt lat="45.83973" lon="4.74201">
        <ele>327.53445</ele>
        <time>2023-08-05T12:27:21.000Z</time>
      </trkpt>
      <trkpt lat="45.83971" lon="4.74206">
        <ele>328.47617</ele>
        <time>2023-08-05T12:27:22.000Z</time>
      </trkpt>
      <trkpt lat="45.8397" lon="4.74212">
        <ele>329.40063</ele>
        <time>2023-08-05T12:27:23.000Z</time>
      </trkpt>
      <trkpt lat="45.83968" lon="4.74218">
        <ele>330.31631</ele>
        <time>2023-08-05T12:27:24.000Z</time>
      </trkpt>
      <trkpt lat="45.83969" lon="4.74224">
        <ele>331.21616</ele>
        <time>2023-08-05T12:27:25.000Z</time>
      </trkpt>
      <trkpt lat="45.83967" lon="4.74229">
        <ele>332.04846</ele>
        <time>2023-08-05T12:27:26.000Z</time>
      </trkpt>
      <trkpt lat="45.83966" lon="4.74235">
        <ele>332.88763</ele>
        <time>2023-08-05T12:27:27.000Z</time>
      </trkpt>
      <trkpt lat="45.83964" lon="4.7424">
        <ele>332.82684</ele>
        <time>2023-08-05T12:27:28.000Z</time>
      </trkpt>
      <trkpt lat="45.83961" lon="4.74244">
        <ele>332.97186</ele>
        <time>2023-08-05T12:27:29.000Z</time>
      </trkpt>
      <trkpt lat="45.83961" lon="4.74249">
        <ele>333.09674</ele>
        <time>2023-08-05T12:27:30.000Z</time>
      </trkpt>
      <trkpt lat="45.8396" lon="4.74255">
        <ele>333.18127</ele>
        <time>2023-08-05T12:27:31.000Z</time>
      </trkpt>
      <trkpt lat="45.8396" lon="4.74261">
        <ele>333.22308</ele>
        <time>2023-08-05T12:27:32.000Z</time>
      </trkpt>
      <trkpt lat="45.83961" lon="4.74266">
        <ele>333.09781</ele>
        <time>2023-08-05T12:27:33.000Z</time>
      </trkpt>
      <trkpt lat="45.83961" lon="4.7427">
        <ele>332.98062</ele>
        <time>2023-08-05T12:27:34.000Z</time>
      </trkpt>
      <trkpt lat="45.83962" lon="4.74275">
        <ele>332.80756</ele>
        <time>2023-08-05T12:27:35.000Z</time>
      </trkpt>
      <trkpt lat="45.83962" lon="4.74279">
        <ele>332.79459</ele>
        <time>2023-08-05T12:27:36.000Z</time>
      </trkpt>
      <trkpt lat="45.83962" lon="4.74283">
        <ele>332.50818</ele>
        <time>2023-08-05T12:27:37.000Z</time>
      </trkpt>
      <trkpt lat="45.83962" lon="4.74287">
        <ele>332.33459</ele>
        <time>2023-08-05T12:27:38.000Z</time>
      </trkpt>
      <trkpt lat="45.83962" lon="4.7429">
        <ele>332.2027</ele>
        <time>2023-08-05T12:27:39.000Z</time>
      </trkpt>
      <trkpt lat="45.8396" lon="4.74294">
        <ele>332.06747</ele>
        <time>2023-08-05T12:27:40.000Z</time>
      </trkpt>
      <trkpt lat="45.83957" lon="4.74297">
        <ele>331.95541</ele>
        <time>2023-08-05T12:27:41.000Z</time>
      </trkpt>
      <trkpt lat="45.83955" lon="4.74301">
        <ele>331.85101</ele>
        <time>2023-08-05T12:27:42.000Z</time>
      </trkpt>
      <trkpt lat="45.83953" lon="4.74305">
        <ele>331.59067</ele>
        <time>2023-08-05T12:27:43.000Z</time>
      </trkpt>
      <trkpt lat="45.83952" lon="4.7431">
        <ele>331.27661</ele>
        <time>2023-08-05T12:27:44.000Z</time>
      </trkpt>
      <trkpt lat="45.83951" lon="4.74314">
        <ele>331.02344</ele>
        <time>2023-08-05T12:27:45.000Z</time>
      </trkpt>
      <trkpt lat="45.8395" lon="4.74318">
        <ele>330.84235</ele>
        <time>2023-08-05T12:27:46.000Z</time>
      </trkpt>
      <trkpt lat="45.83949" lon="4.74322">
        <ele>330.61432</ele>
        <time>2023-08-05T12:27:47.000Z</time>
      </trkpt>
      <trkpt lat="45.83949" lon="4.74328">
        <ele>330.70923</ele>
        <time>2023-08-05T12:27:48.000Z</time>
      </trkpt>
      <trkpt lat="45.83949" lon="4.74333">
        <ele>330.70837</ele>
        <time>2023-08-05T12:27:49.000Z</time>
      </trkpt>
      <trkpt lat="45.8395" lon="4.74338">
        <ele>330.69281</ele>
        <time>2023-08-05T12:27:50.000Z</time>
      </trkpt>
      <trkpt lat="45.8395" lon="4.74343">
        <ele>330.68613</ele>
        <time>2023-08-05T12:27:51.000Z</time>
      </trkpt>
      <trkpt lat="45.8395" lon="4.74348">
        <ele>330.77167</ele>
        <time>2023-08-05T12:27:52.000Z</time>
      </trkpt>
      <trkpt lat="45.8395" lon="4.74352">
        <ele>331.03958</ele>
        <time>2023-08-05T12:27:53.000Z</time>
      </trkpt>
      <trkpt lat="45.8395" lon="4.74357">
        <ele>331.27728</ele>
        <time>2023-08-05T12:27:54.000Z</time>
      </trkpt>
      <trkpt lat="45.8395" lon="4.74361">
        <ele>331.2916</ele>
        <time>2023-08-05T12:27:55.000Z</time>
      </trkpt>
      <trkpt lat="45.8395" lon="4.74365">
        <ele>331.15466</ele>
        <time>2023-08-05T12:27:56.000Z</time>
      </trkpt>
      <trkpt lat="45.8395" lon="4.74369">
        <ele>331.26361</ele>
        <time>2023-08-05T12:27:57.000Z</time>
      </trkpt>
      <trkpt lat="45.83949" lon="4.74373">
        <ele>331.26108</ele>
        <time>2023-08-05T12:27:58.000Z</time>
      </trkpt>
      <trkpt lat="45.83948" lon="4.74376">
        <ele>331.19257</ele>
        <time>2023-08-05T12:27:59.000Z</time>
      </trkpt>
      <trkpt lat="45.83948" lon="4.74378">
        <ele>331.21338</ele>
        <time>2023-08-05T12:28:00.000Z</time>
      </trkpt>
      <trkpt lat="45.83947" lon="4.74381">
        <ele>331.16531</ele>
        <time>2023-08-05T12:28:03.000Z</time>
      </trkpt>
      <trkpt lat="45.83947" lon="4.74383">
        <ele>331.53229</ele>
        <time>2023-08-05T12:28:30.000Z</time>
      </trkpt>
      <trkpt lat="45.83946" lon="4.74388">
        <ele>332.06464</ele>
        <time>2023-08-05T12:28:32.000Z</time>
      </trkpt>
      <trkpt lat="45.83945" lon="4.7439">
        <ele>332.66815</ele>
        <time>2023-08-05T12:28:33.000Z</time>
      </trkpt>
      <trkpt lat="45.83944" lon="4.74393">
        <ele>333.07391</ele>
        <time>2023-08-05T12:28:34.000Z</time>
      </trkpt>
      <trkpt lat="45.83943" lon="4.74397">
        <ele>333.31833</ele>
        <time>2023-08-05T12:28:35.000Z</time>
      </trkpt>
      <trkpt lat="45.83942" lon="4.74401">
        <ele>333.65277</ele>
        <time>2023-08-05T12:28:36.000Z</time>
      </trkpt>
      <trkpt lat="45.83941" lon="4.74404">
        <ele>333.92969</ele>
        <time>2023-08-05T12:28:37.000Z</time>
      </trkpt>
      <trkpt lat="45.8394" lon="4.74408">
        <ele>334.22406</ele>
        <time>2023-08-05T12:28:38.000Z</time>
      </trkpt>
      <trkpt lat="45.83939" lon="4.74414">
        <ele>334.49844</ele>
        <time>2023-08-05T12:28:39.000Z</time>
      </trkpt>
      <trkpt lat="45.83937" lon="4.74419">
        <ele>334.77213</ele>
        <time>2023-08-05T12:28:40.000Z</time>
      </trkpt>
      <trkpt lat="45.83936" lon="4.74425">
        <ele>334.96887</ele>
        <time>2023-08-05T12:28:41.000Z</time>
      </trkpt>
      <trkpt lat="45.83934" lon="4.7443">
        <ele>335.0408</ele>
        <time>2023-08-05T12:28:42.000Z</time>
      </trkpt>
      <trkpt lat="45.83932" lon="4.74436">
        <ele>334.87796</ele>
        <time>2023-08-05T12:28:43.000Z</time>
      </trkpt>
      <trkpt lat="45.8393" lon="4.74441">
        <ele>334.92035</ele>
        <time>2023-08-05T12:28:44.000Z</time>
      </trkpt>
      <trkpt lat="45.83928" lon="4.74447">
        <ele>335.00693</ele>
        <time>2023-08-05T12:28:45.000Z</time>
      </trkpt>
      <trkpt lat="45.83926" lon="4.74452">
        <ele>335.05109</ele>
        <time>2023-08-05T12:28:46.000Z</time>
      </trkpt>
      <trkpt lat="45.83924" lon="4.74457">
        <ele>335.1098</ele>
        <time>2023-08-05T12:28:47.000Z</time>
      </trkpt>
      <trkpt lat="45.83921" lon="4.74462">
        <ele>335.35382</ele>
        <time>2023-08-05T12:28:48.000Z</time>
      </trkpt>
      <trkpt lat="45.83919" lon="4.74466">
        <ele>335.60974</ele>
        <time>2023-08-05T12:28:49.000Z</time>
      </trkpt>
      <trkpt lat="45.83916" lon="4.7447">
        <ele>335.91251</ele>
        <time>2023-08-05T12:28:50.000Z</time>
      </trkpt>
      <trkpt lat="45.83913" lon="4.74475">
        <ele>335.73682</ele>
        <time>2023-08-05T12:28:51.000Z</time>
      </trkpt>
      <trkpt lat="45.83911" lon="4.7448">
        <ele>335.53925</ele>
        <time>2023-08-05T12:28:52.000Z</time>
      </trkpt>
      <trkpt lat="45.83908" lon="4.74485">
        <ele>335.26532</ele>
        <time>2023-08-05T12:28:53.000Z</time>
      </trkpt>
      <trkpt lat="45.83906" lon="4.7449">
        <ele>335.13242</ele>
        <time>2023-08-05T12:28:54.000Z</time>
      </trkpt>
      <trkpt lat="45.83904" lon="4.74496">
        <ele>335.0788</ele>
        <time>2023-08-05T12:28:55.000Z</time>
      </trkpt>
      <trkpt lat="45.83902" lon="4.74502">
        <ele>334.98602</ele>
        <time>2023-08-05T12:28:56.000Z</time>
      </trkpt>
      <trkpt lat="45.83901" lon="4.74508">
        <ele>334.91714</ele>
        <time>2023-08-05T12:28:57.000Z</time>
      </trkpt>
      <trkpt lat="45.839" lon="4.74514">
        <ele>334.82111</ele>
        <time>2023-08-05T12:28:58.000Z</time>
      </trkpt>
      <trkpt lat="45.83899" lon="4.7452">
        <ele>334.73941</ele>
        <time>2023-08-05T12:28:59.000Z</time>
      </trkpt>
      <trkpt lat="45.83899" lon="4.74526">
        <ele>334.81516</ele>
        <time>2023-08-05T12:29:00.000Z</time>
      </trkpt>
      <trkpt lat="45.83899" lon="4.74532">
        <ele>334.89389</ele>
        <time>2023-08-05T12:29:01.000Z</time>
      </trkpt>
      <trkpt lat="45.83899" lon="4.74538">
        <ele>334.75269</ele>
        <time>2023-08-05T12:29:02.000Z</time>
      </trkpt>
      <trkpt lat="45.839" lon="4.74544">
        <ele>334.87759</ele>
        <time>2023-08-05T12:29:03.000Z</time>
      </trkpt>
      <trkpt lat="45.83902" lon="4.74551">
        <ele>334.85654</ele>
        <time>2023-08-05T12:29:04.000Z</time>
      </trkpt>
      <trkpt lat="45.83903" lon="4.74558">
        <ele>334.81512</ele>
        <time>2023-08-05T12:29:05.000Z</time>
      </trkpt>
      <trkpt lat="45.83904" lon="4.74565">
        <ele>334.81348</ele>
        <time>2023-08-05T12:29:06.000Z</time>
      </trkpt>
      <trkpt lat="45.83906" lon="4.7457">
        <ele>334.82846</ele>
        <time>2023-08-05T12:29:07.000Z</time>
      </trkpt>
      <trkpt lat="45.83909" lon="4.74579">
        <ele>334.65714</ele>
        <time>2023-08-05T12:29:08.000Z</time>
      </trkpt>
      <trkpt lat="45.8391" lon="4.74585">
        <ele>334.4191</ele>
        <time>2023-08-05T12:29:09.000Z</time>
      </trkpt>
      <trkpt lat="45.83908" lon="4.74592">
        <ele>334.20358</ele>
        <time>2023-08-05T12:29:10.000Z</time>
      </trkpt>
      <trkpt lat="45.83908" lon="4.74599">
        <ele>334.04156</ele>
        <time>2023-08-05T12:29:11.000Z</time>
      </trkpt>
      <trkpt lat="45.83906" lon="4.74606">
        <ele>333.90494</ele>
        <time>2023-08-05T12:29:12.000Z</time>
      </trkpt>
      <trkpt lat="45.83905" lon="4.74612">
        <ele>333.9953</ele>
        <time>2023-08-05T12:29:13.000Z</time>
      </trkpt>
      <trkpt lat="45.83903" lon="4.74618">
        <ele>334.10666</ele>
        <time>2023-08-05T12:29:14.000Z</time>
      </trkpt>
      <trkpt lat="45.83901" lon="4.74623">
        <ele>334.25177</ele>
        <time>2023-08-05T12:29:15.000Z</time>
      </trkpt>
      <trkpt lat="45.83899" lon="4.74627">
        <ele>334.40247</ele>
        <time>2023-08-05T12:29:16.000Z</time>
      </trkpt>
      <trkpt lat="45.83897" lon="4.74632">
        <ele>334.58224</ele>
        <time>2023-08-05T12:29:17.000Z</time>
      </trkpt>
      <trkpt lat="45.83896" lon="4.74635">
        <ele>334.49017</ele>
        <time>2023-08-05T12:29:18.000Z</time>
      </trkpt>
      <trkpt lat="45.83894" lon="4.74639">
        <ele>334.46048</ele>
        <time>2023-08-05T12:29:19.000Z</time>
      </trkpt>
      <trkpt lat="45.8389" lon="4.74641">
        <ele>334.24829</ele>
        <time>2023-08-05T12:29:20.000Z</time>
      </trkpt>
      <trkpt lat="45.83889" lon="4.74644">
        <ele>334.01294</ele>
        <time>2023-08-05T12:29:21.000Z</time>
      </trkpt>
      <trkpt lat="45.83888" lon="4.74648">
        <ele>334.02911</ele>
        <time>2023-08-05T12:29:22.000Z</time>
      </trkpt>
      <trkpt lat="45.83886" lon="4.7465">
        <ele>334.0498</ele>
        <time>2023-08-05T12:29:23.000Z</time>
      </trkpt>
      <trkpt lat="45.83884" lon="4.74652">
        <ele>334.1084</ele>
        <time>2023-08-05T12:29:24.000Z</time>
      </trkpt>
      <trkpt lat="45.83881" lon="4.74655">
        <ele>334.3721</ele>
        <time>2023-08-05T12:29:25.000Z</time>
      </trkpt>
      <trkpt lat="45.83878" lon="4.74658">
        <ele>334.40753</ele>
        <time>2023-08-05T12:29:26.000Z</time>
      </trkpt>
      <trkpt lat="45.83874" lon="4.74661">
        <ele>334.64374</ele>
        <time>2023-08-05T12:29:27.000Z</time>
      </trkpt>
      <trkpt lat="45.83871" lon="4.74664">
        <ele>334.94995</ele>
        <time>2023-08-05T12:29:28.000Z</time>
      </trkpt>
      <trkpt lat="45.83868" lon="4.74668">
        <ele>335.28766</ele>
        <time>2023-08-05T12:29:29.000Z</time>
      </trkpt>
      <trkpt lat="45.83865" lon="4.74672">
        <ele>335.61914</ele>
        <time>2023-08-05T12:29:30.000Z</time>
      </trkpt>
      <trkpt lat="45.83863" lon="4.74677">
        <ele>335.98462</ele>
        <time>2023-08-05T12:29:31.000Z</time>
      </trkpt>
      <trkpt lat="45.83861" lon="4.74681">
        <ele>336.38477</ele>
        <time>2023-08-05T12:29:32.000Z</time>
      </trkpt>
      <trkpt lat="45.83859" lon="4.74685">
        <ele>336.62909</ele>
        <time>2023-08-05T12:29:33.000Z</time>
      </trkpt>
      <trkpt lat="45.83857" lon="4.74687">
        <ele>336.8107</ele>
        <time>2023-08-05T12:29:34.000Z</time>
      </trkpt>
      <trkpt lat="45.83855" lon="4.7469">
        <ele>337.03653</ele>
        <time>2023-08-05T12:29:35.000Z</time>
      </trkpt>
      <trkpt lat="45.83852" lon="4.74693">
        <ele>337.22495</ele>
        <time>2023-08-05T12:29:36.000Z</time>
      </trkpt>
      <trkpt lat="45.83848" lon="4.74697">
        <ele>336.23959</ele>
        <time>2023-08-05T12:29:37.000Z</time>
      </trkpt>
      <trkpt lat="45.83845" lon="4.74698">
        <ele>335.52399</ele>
        <time>2023-08-05T12:29:38.000Z</time>
      </trkpt>
      <trkpt lat="45.83843" lon="4.74699">
        <ele>334.74692</ele>
        <time>2023-08-05T12:29:39.000Z</time>
      </trkpt>
      <trkpt lat="45.83842" lon="4.74702">
        <ele>334.05414</ele>
        <time>2023-08-05T12:29:41.000Z</time>
      </trkpt>
      <trkpt lat="45.83843" lon="4.74704">
        <ele>333.37894</ele>
        <time>2023-08-05T12:29:42.000Z</time>
      </trkpt>
      <trkpt lat="45.83845" lon="4.74704">
        <ele>332.77054</ele>
        <time>2023-08-05T12:29:43.000Z</time>
      </trkpt>
      <trkpt lat="45.83848" lon="4.74701">
        <ele>332.15738</ele>
        <time>2023-08-05T12:29:45.000Z</time>
      </trkpt>
      <trkpt lat="45.8385" lon="4.74699">
        <ele>331.59021</ele>
        <time>2023-08-05T12:29:47.000Z</time>
      </trkpt>
      <trkpt lat="45.83852" lon="4.74699">
        <ele>330.75775</ele>
        <time>2023-08-05T12:29:48.000Z</time>
      </trkpt>
      <trkpt lat="45.83853" lon="4.74701">
        <ele>330.16849</ele>
        <time>2023-08-05T12:29:49.000Z</time>
      </trkpt>
      <trkpt lat="45.83855" lon="4.74704">
        <ele>329.34973</ele>
        <time>2023-08-05T12:29:51.000Z</time>
      </trkpt>
      <trkpt lat="45.83857" lon="4.74708">
        <ele>328.68948</ele>
        <time>2023-08-05T12:29:52.000Z</time>
      </trkpt>
      <trkpt lat="45.83859" lon="4.74712">
        <ele>327.94904</ele>
        <time>2023-08-05T12:29:53.000Z</time>
      </trkpt>
      <trkpt lat="45.83861" lon="4.74716">
        <ele>327.14316</ele>
        <time>2023-08-05T12:29:54.000Z</time>
      </trkpt>
      <trkpt lat="45.83862" lon="4.74719">
        <ele>326.33441</ele>
        <time>2023-08-05T12:29:55.000Z</time>
      </trkpt>
      <trkpt lat="45.83864" lon="4.74723">
        <ele>325.46155</ele>
        <time>2023-08-05T12:29:56.000Z</time>
      </trkpt>
      <trkpt lat="45.83865" lon="4.74726">
        <ele>324.57843</ele>
        <time>2023-08-05T12:29:57.000Z</time>
      </trkpt>
      <trkpt lat="45.83867" lon="4.74729">
        <ele>323.7525</ele>
        <time>2023-08-05T12:29:58.000Z</time>
      </trkpt>
      <trkpt lat="45.83869" lon="4.74732">
        <ele>322.91498</ele>
        <time>2023-08-05T12:29:59.000Z</time>
      </trkpt>
      <trkpt lat="45.83871" lon="4.74735">
        <ele>322.08191</ele>
        <time>2023-08-05T12:30:00.000Z</time>
      </trkpt>
      <trkpt lat="45.83873" lon="4.74739">
        <ele>322.39633</ele>
        <time>2023-08-05T12:30:01.000Z</time>
      </trkpt>
      <trkpt lat="45.83874" lon="4.74742">
        <ele>322.77277</ele>
        <time>2023-08-05T12:30:02.000Z</time>
      </trkpt>
      <trkpt lat="45.83876" lon="4.74746">
        <ele>323.14542</ele>
        <time>2023-08-05T12:30:03.000Z</time>
      </trkpt>
      <trkpt lat="45.83877" lon="4.74751">
        <ele>323.50189</ele>
        <time>2023-08-05T12:30:04.000Z</time>
      </trkpt>
      <trkpt lat="45.83878" lon="4.74754">
        <ele>323.91766</ele>
        <time>2023-08-05T12:30:05.000Z</time>
      </trkpt>
      <trkpt lat="45.8388" lon="4.74759">
        <ele>324.35361</ele>
        <time>2023-08-05T12:30:07.000Z</time>
      </trkpt>
      <trkpt lat="45.83881" lon="4.74762">
        <ele>324.6521</ele>
        <time>2023-08-05T12:30:08.000Z</time>
      </trkpt>
      <trkpt lat="45.83883" lon="4.74765">
        <ele>324.9166</ele>
        <time>2023-08-05T12:30:09.000Z</time>
      </trkpt>
      <trkpt lat="45.83885" lon="4.74769">
        <ele>325.25201</ele>
        <time>2023-08-05T12:30:10.000Z</time>
      </trkpt>
      <trkpt lat="45.83887" lon="4.74773">
        <ele>325.62238</ele>
        <time>2023-08-05T12:30:11.000Z</time>
      </trkpt>
      <trkpt lat="45.83888" lon="4.74777">
        <ele>325.97012</ele>
        <time>2023-08-05T12:30:12.000Z</time>
      </trkpt>
      <trkpt lat="45.8389" lon="4.7478">
        <ele>326.07452</ele>
        <time>2023-08-05T12:30:13.000Z</time>
      </trkpt>
      <trkpt lat="45.83891" lon="4.74783">
        <ele>326.20221</ele>
        <time>2023-08-05T12:30:14.000Z</time>
      </trkpt>
      <trkpt lat="45.83894" lon="4.74786">
        <ele>326.41531</ele>
        <time>2023-08-05T12:30:15.000Z</time>
      </trkpt>
      <trkpt lat="45.83896" lon="4.7479">
        <ele>326.61685</ele>
        <time>2023-08-05T12:30:16.000Z</time>
      </trkpt>
      <trkpt lat="45.83897" lon="4.74792">
        <ele>326.87311</ele>
        <time>2023-08-05T12:30:17.000Z</time>
      </trkpt>
      <trkpt lat="45.83899" lon="4.74795">
        <ele>327.18219</ele>
        <time>2023-08-05T12:30:18.000Z</time>
      </trkpt>
      <trkpt lat="45.839" lon="4.74797">
        <ele>327.44266</ele>
        <time>2023-08-05T12:30:19.000Z</time>
      </trkpt>
      <trkpt lat="45.83902" lon="4.748">
        <ele>327.68182</ele>
        <time>2023-08-05T12:30:20.000Z</time>
      </trkpt>
      <trkpt lat="45.83904" lon="4.74803">
        <ele>327.93524</ele>
        <time>2023-08-05T12:30:21.000Z</time>
      </trkpt>
      <trkpt lat="45.83906" lon="4.74807">
        <ele>329.03915</ele>
        <time>2023-08-05T12:30:22.000Z</time>
      </trkpt>
      <trkpt lat="45.83907" lon="4.7481">
        <ele>330.19156</ele>
        <time>2023-08-05T12:30:23.000Z</time>
      </trkpt>
      <trkpt lat="45.83908" lon="4.74813">
        <ele>331.30881</ele>
        <time>2023-08-05T12:30:24.000Z</time>
      </trkpt>
      <trkpt lat="45.8391" lon="4.74816">
        <ele>332.37274</ele>
        <time>2023-08-05T12:30:25.000Z</time>
      </trkpt>
      <trkpt lat="45.83911" lon="4.7482">
        <ele>333.41953</ele>
        <time>2023-08-05T12:30:26.000Z</time>
      </trkpt>
      <trkpt lat="45.83912" lon="4.74825">
        <ele>334.45746</ele>
        <time>2023-08-05T12:30:27.000Z</time>
      </trkpt>
      <trkpt lat="45.83912" lon="4.74829">
        <ele>335.57907</ele>
        <time>2023-08-05T12:30:28.000Z</time>
      </trkpt>
      <trkpt lat="45.83913" lon="4.74833">
        <ele>336.62186</ele>
        <time>2023-08-05T12:30:29.000Z</time>
      </trkpt>
      <trkpt lat="45.83914" lon="4.74837">
        <ele>337.72812</ele>
        <time>2023-08-05T12:30:30.000Z</time>
      </trkpt>
      <trkpt lat="45.83915" lon="4.74841">
        <ele>338.78815</ele>
        <time>2023-08-05T12:30:31.000Z</time>
      </trkpt>
      <trkpt lat="45.83917" lon="4.74844">
        <ele>339.91995</ele>
        <time>2023-08-05T12:30:32.000Z</time>
      </trkpt>
      <trkpt lat="45.83918" lon="4.74847">
        <ele>341.10977</ele>
        <time>2023-08-05T12:30:33.000Z</time>
      </trkpt>
      <trkpt lat="45.8392" lon="4.74852">
        <ele>342.36655</ele>
        <time>2023-08-05T12:30:34.000Z</time>
      </trkpt>
      <trkpt lat="45.83921" lon="4.74856">
        <ele>343.60004</ele>
        <time>2023-08-05T12:30:35.000Z</time>
      </trkpt>
      <trkpt lat="45.83923" lon="4.74859">
        <ele>344.82513</ele>
        <time>2023-08-05T12:30:36.000Z</time>
      </trkpt>
      <trkpt lat="45.83924" lon="4.74863">
        <ele>346.01935</ele>
        <time>2023-08-05T12:30:37.000Z</time>
      </trkpt>
      <trkpt lat="45.83926" lon="4.74866">
        <ele>347.16168</ele>
        <time>2023-08-05T12:30:38.000Z</time>
      </trkpt>
      <trkpt lat="45.83927" lon="4.74869">
        <ele>348.31482</ele>
        <time>2023-08-05T12:30:39.000Z</time>
      </trkpt>
      <trkpt lat="45.83929" lon="4.74873">
        <ele>349.31354</ele>
        <time>2023-08-05T12:30:40.000Z</time>
      </trkpt>
      <trkpt lat="45.83931" lon="4.74877">
        <ele>350.41943</ele>
        <time>2023-08-05T12:30:41.000Z</time>
      </trkpt>
      <trkpt lat="45.83933" lon="4.7488">
        <ele>350.66925</ele>
        <time>2023-08-05T12:30:42.000Z</time>
      </trkpt>
      <trkpt lat="45.83935" lon="4.74882">
        <ele>350.81924</ele>
        <time>2023-08-05T12:30:43.000Z</time>
      </trkpt>
      <trkpt lat="45.83937" lon="4.74883">
        <ele>351.06003</ele>
        <time>2023-08-05T12:30:44.000Z</time>
      </trkpt>
      <trkpt lat="45.83939" lon="4.74883">
        <ele>351.36847</ele>
        <time>2023-08-05T12:30:45.000Z</time>
      </trkpt>
      <trkpt lat="45.83942" lon="4.74884">
        <ele>351.62976</ele>
        <time>2023-08-05T12:30:46.000Z</time>
      </trkpt>
      <trkpt lat="45.83944" lon="4.74885">
        <ele>351.91052</ele>
        <time>2023-08-05T12:30:47.000Z</time>
      </trkpt>
      <trkpt lat="45.83946" lon="4.74886">
        <ele>352.22159</ele>
        <time>2023-08-05T12:30:48.000Z</time>
      </trkpt>
      <trkpt lat="45.83948" lon="4.74889">
        <ele>352.57394</ele>
        <time>2023-08-05T12:30:50.000Z</time>
      </trkpt>
      <trkpt lat="45.83951" lon="4.74891">
        <ele>352.83762</ele>
        <time>2023-08-05T12:30:52.000Z</time>
      </trkpt>
      <trkpt lat="45.83953" lon="4.74893">
        <ele>353.13348</ele>
        <time>2023-08-05T12:30:54.000Z</time>
      </trkpt>
      <trkpt lat="45.83955" lon="4.74893">
        <ele>353.32074</ele>
        <time>2023-08-05T12:30:59.000Z</time>
      </trkpt>
      <trkpt lat="45.83958" lon="4.74895">
        <ele>353.48529</ele>
        <time>2023-08-05T12:32:25.000Z</time>
      </trkpt>
      <trkpt lat="45.8396" lon="4.74899">
        <ele>353.62595</ele>
        <time>2023-08-05T12:32:27.000Z</time>
      </trkpt>
      <trkpt lat="45.83962" lon="4.74901">
        <ele>353.73846</ele>
        <time>2023-08-05T12:32:28.000Z</time>
      </trkpt>
      <trkpt lat="45.83964" lon="4.74903">
        <ele>353.85248</ele>
        <time>2023-08-05T12:32:29.000Z</time>
      </trkpt>
      <trkpt lat="45.83966" lon="4.74905">
        <ele>353.95151</ele>
        <time>2023-08-05T12:32:30.000Z</time>
      </trkpt>
      <trkpt lat="45.83968" lon="4.74907">
        <ele>354.04144</ele>
        <time>2023-08-05T12:32:31.000Z</time>
      </trkpt>
      <trkpt lat="45.83971" lon="4.7491">
        <ele>354.17386</ele>
        <time>2023-08-05T12:32:32.000Z</time>
      </trkpt>
      <trkpt lat="45.83973" lon="4.74913">
        <ele>354.43774</ele>
        <time>2023-08-05T12:32:33.000Z</time>
      </trkpt>
      <trkpt lat="45.83974" lon="4.74916">
        <ele>354.59064</ele>
        <time>2023-08-05T12:32:34.000Z</time>
      </trkpt>
      <trkpt lat="45.83975" lon="4.7492">
        <ele>354.77005</ele>
        <time>2023-08-05T12:32:35.000Z</time>
      </trkpt>
      <trkpt lat="45.83975" lon="4.74923">
        <ele>354.96271</ele>
        <time>2023-08-05T12:32:36.000Z</time>
      </trkpt>
      <trkpt lat="45.83976" lon="4.74928">
        <ele>355.08636</ele>
        <time>2023-08-05T12:32:37.000Z</time>
      </trkpt>
      <trkpt lat="45.83976" lon="4.74932">
        <ele>355.20609</ele>
        <time>2023-08-05T12:32:38.000Z</time>
      </trkpt>
      <trkpt lat="45.83976" lon="4.74936">
        <ele>355.35651</ele>
        <time>2023-08-05T12:32:39.000Z</time>
      </trkpt>
      <trkpt lat="45.83975" lon="4.74939">
        <ele>355.4704</ele>
        <time>2023-08-05T12:32:40.000Z</time>
      </trkpt>
      <trkpt lat="45.83975" lon="4.74942">
        <ele>355.53986</ele>
        <time>2023-08-05T12:32:41.000Z</time>
      </trkpt>
      <trkpt lat="45.83974" lon="4.74947">
        <ele>355.58136</ele>
        <time>2023-08-05T12:32:43.000Z</time>
      </trkpt>
      <trkpt lat="45.83973" lon="4.74951">
        <ele>355.58084</ele>
        <time>2023-08-05T12:32:44.000Z</time>
      </trkpt>
      <trkpt lat="45.83972" lon="4.74956">
        <ele>355.57324</ele>
        <time>2023-08-05T12:32:45.000Z</time>
      </trkpt>
      <trkpt lat="45.83971" lon="4.7496">
        <ele>355.60962</ele>
        <time>2023-08-05T12:32:46.000Z</time>
      </trkpt>
      <trkpt lat="45.83972" lon="4.74964">
        <ele>355.66241</ele>
        <time>2023-08-05T12:32:47.000Z</time>
      </trkpt>
      <trkpt lat="45.83972" lon="4.74968">
        <ele>355.7088</ele>
        <time>2023-08-05T12:32:48.000Z</time>
      </trkpt>
      <trkpt lat="45.83972" lon="4.74973">
        <ele>355.74261</ele>
        <time>2023-08-05T12:32:49.000Z</time>
      </trkpt>
      <trkpt lat="45.83972" lon="4.74976">
        <ele>355.76901</ele>
        <time>2023-08-05T12:32:50.000Z</time>
      </trkpt>
      <trkpt lat="45.83971" lon="4.74981">
        <ele>355.80307</ele>
        <time>2023-08-05T12:32:51.000Z</time>
      </trkpt>
      <trkpt lat="45.8397" lon="4.74986">
        <ele>355.82724</ele>
        <time>2023-08-05T12:32:52.000Z</time>
      </trkpt>
      <trkpt lat="45.83969" lon="4.7499">
        <ele>355.84283</ele>
        <time>2023-08-05T12:32:53.000Z</time>
      </trkpt>
      <trkpt lat="45.83968" lon="4.74994">
        <ele>355.83551</ele>
        <time>2023-08-05T12:32:54.000Z</time>
      </trkpt>
      <trkpt lat="45.83967" lon="4.74998">
        <ele>355.84918</ele>
        <time>2023-08-05T12:32:55.000Z</time>
      </trkpt>
      <trkpt lat="45.83966" lon="4.75002">
        <ele>355.84039</ele>
        <time>2023-08-05T12:32:56.000Z</time>
      </trkpt>
      <trkpt lat="45.83964" lon="4.75005">
        <ele>355.87231</ele>
        <time>2023-08-05T12:32:57.000Z</time>
      </trkpt>
      <trkpt lat="45.83962" lon="4.75009">
        <ele>355.91922</ele>
        <time>2023-08-05T12:32:58.000Z</time>
      </trkpt>
      <trkpt lat="45.8396" lon="4.75013">
        <ele>355.97531</ele>
        <time>2023-08-05T12:32:59.000Z</time>
      </trkpt>
      <trkpt lat="45.83958" lon="4.75017">
        <ele>356.02081</ele>
        <time>2023-08-05T12:33:00.000Z</time>
      </trkpt>
      <trkpt lat="45.83955" lon="4.75021">
        <ele>356.08014</ele>
        <time>2023-08-05T12:33:01.000Z</time>
      </trkpt>
      <trkpt lat="45.83952" lon="4.75024">
        <ele>356.14972</ele>
        <time>2023-08-05T12:33:02.000Z</time>
      </trkpt>
      <trkpt lat="45.8395" lon="4.75026">
        <ele>356.3114</ele>
        <time>2023-08-05T12:33:03.000Z</time>
      </trkpt>
      <trkpt lat="45.83947" lon="4.75029">
        <ele>356.46613</ele>
        <time>2023-08-05T12:33:04.000Z</time>
      </trkpt>
      <trkpt lat="45.83944" lon="4.75033">
        <ele>356.5885</ele>
        <time>2023-08-05T12:33:05.000Z</time>
      </trkpt>
      <trkpt lat="45.83942" lon="4.75038">
        <ele>356.73053</ele>
        <time>2023-08-05T12:33:06.000Z</time>
      </trkpt>
      <trkpt lat="45.83941" lon="4.75043">
        <ele>356.82413</ele>
        <time>2023-08-05T12:33:07.000Z</time>
      </trkpt>
      <trkpt lat="45.83939" lon="4.75048">
        <ele>356.9072</ele>
        <time>2023-08-05T12:33:08.000Z</time>
      </trkpt>
      <trkpt lat="45.83936" lon="4.75052">
        <ele>356.99796</ele>
        <time>2023-08-05T12:33:09.000Z</time>
      </trkpt>
      <trkpt lat="45.83935" lon="4.75056">
        <ele>357.11179</ele>
        <time>2023-08-05T12:33:10.000Z</time>
      </trkpt>
      <trkpt lat="45.83933" lon="4.7506">
        <ele>357.28091</ele>
        <time>2023-08-05T12:33:11.000Z</time>
      </trkpt>
      <trkpt lat="45.83932" lon="4.75064">
        <ele>357.44916</ele>
        <time>2023-08-05T12:33:12.000Z</time>
      </trkpt>
      <trkpt lat="45.83931" lon="4.75068">
        <ele>357.5502</ele>
        <time>2023-08-05T12:33:13.000Z</time>
      </trkpt>
      <trkpt lat="45.8393" lon="4.75071">
        <ele>357.68588</ele>
        <time>2023-08-05T12:33:14.000Z</time>
      </trkpt>
      <trkpt lat="45.83929" lon="4.75075">
        <ele>357.82953</ele>
        <time>2023-08-05T12:33:15.000Z</time>
      </trkpt>
      <trkpt lat="45.83926" lon="4.75078">
        <ele>357.96896</ele>
        <time>2023-08-05T12:33:16.000Z</time>
      </trkpt>
      <trkpt lat="45.83923" lon="4.75079">
        <ele>358.05591</ele>
        <time>2023-08-05T12:33:17.000Z</time>
      </trkpt>
      <trkpt lat="45.8392" lon="4.75079">
        <ele>358.14523</ele>
        <time>2023-08-05T12:33:18.000Z</time>
      </trkpt>
      <trkpt lat="45.83918" lon="4.75079">
        <ele>358.24249</ele>
        <time>2023-08-05T12:33:19.000Z</time>
      </trkpt>
      <trkpt lat="45.83915" lon="4.75079">
        <ele>358.33563</ele>
        <time>2023-08-05T12:33:20.000Z</time>
      </trkpt>
      <trkpt lat="45.83913" lon="4.75079">
        <ele>358.42465</ele>
        <time>2023-08-05T12:33:21.000Z</time>
      </trkpt>
      <trkpt lat="45.8391" lon="4.75078">
        <ele>358.51434</ele>
        <time>2023-08-05T12:33:22.000Z</time>
      </trkpt>
      <trkpt lat="45.83908" lon="4.75076">
        <ele>358.48712</ele>
        <time>2023-08-05T12:33:23.000Z</time>
      </trkpt>
      <trkpt lat="45.83905" lon="4.75073">
        <ele>358.49652</ele>
        <time>2023-08-05T12:33:24.000Z</time>
      </trkpt>
      <trkpt lat="45.83903" lon="4.75072">
        <ele>358.56342</ele>
        <time>2023-08-05T12:33:25.000Z</time>
      </trkpt>
      <trkpt lat="45.839" lon="4.75071">
        <ele>358.64966</ele>
        <time>2023-08-05T12:33:26.000Z</time>
      </trkpt>
      <trkpt lat="45.83898" lon="4.75071">
        <ele>358.84949</ele>
        <time>2023-08-05T12:33:27.000Z</time>
      </trkpt>
      <trkpt lat="45.83895" lon="4.75071">
        <ele>359.06308</ele>
        <time>2023-08-05T12:33:28.000Z</time>
      </trkpt>
      <trkpt lat="45.83892" lon="4.7507">
        <ele>359.27524</ele>
        <time>2023-08-05T12:33:29.000Z</time>
      </trkpt>
      <trkpt lat="45.83889" lon="4.7507">
        <ele>359.4942</ele>
        <time>2023-08-05T12:33:30.000Z</time>
      </trkpt>
      <trkpt lat="45.83887" lon="4.7507">
        <ele>359.72296</ele>
        <time>2023-08-05T12:33:31.000Z</time>
      </trkpt>
      <trkpt lat="45.83883" lon="4.7507">
        <ele>359.96536</ele>
        <time>2023-08-05T12:33:32.000Z</time>
      </trkpt>
      <trkpt lat="45.83879" lon="4.75071">
        <ele>360.17313</ele>
        <time>2023-08-05T12:33:33.000Z</time>
      </trkpt>
      <trkpt lat="45.83876" lon="4.75074">
        <ele>360.36356</ele>
        <time>2023-08-05T12:33:34.000Z</time>
      </trkpt>
      <trkpt lat="45.83873" lon="4.75078">
        <ele>360.53595</ele>
        <time>2023-08-05T12:33:35.000Z</time>
      </trkpt>
      <trkpt lat="45.83871" lon="4.75082">
        <ele>360.70374</ele>
        <time>2023-08-05T12:33:36.000Z</time>
      </trkpt>
      <trkpt lat="45.83869" lon="4.75086">
        <ele>360.88483</ele>
        <time>2023-08-05T12:33:37.000Z</time>
      </trkpt>
      <trkpt lat="45.83866" lon="4.75092">
        <ele>361.08771</ele>
        <time>2023-08-05T12:33:38.000Z</time>
      </trkpt>
      <trkpt lat="45.83864" lon="4.75097">
        <ele>361.27444</ele>
        <time>2023-08-05T12:33:39.000Z</time>
      </trkpt>
      <trkpt lat="45.83863" lon="4.75101">
        <ele>361.47311</ele>
        <time>2023-08-05T12:33:40.000Z</time>
      </trkpt>
      <trkpt lat="45.83863" lon="4.75105">
        <ele>361.6665</ele>
        <time>2023-08-05T12:33:41.000Z</time>
      </trkpt>
      <trkpt lat="45.83862" lon="4.7511">
        <ele>361.88342</ele>
        <time>2023-08-05T12:33:42.000Z</time>
      </trkpt>
      <trkpt lat="45.83861" lon="4.75115">
        <ele>362.14655</ele>
        <time>2023-08-05T12:33:43.000Z</time>
      </trkpt>
      <trkpt lat="45.8386" lon="4.75119">
        <ele>362.42648</ele>
        <time>2023-08-05T12:33:44.000Z</time>
      </trkpt>
      <trkpt lat="45.83858" lon="4.75123">
        <ele>362.69067</ele>
        <time>2023-08-05T12:33:45.000Z</time>
      </trkpt>
      <trkpt lat="45.83857" lon="4.75128">
        <ele>362.90414</ele>
        <time>2023-08-05T12:33:46.000Z</time>
      </trkpt>
      <trkpt lat="45.83857" lon="4.75132">
        <ele>362.99573</ele>
        <time>2023-08-05T12:33:47.000Z</time>
      </trkpt>
      <trkpt lat="45.83857" lon="4.75136">
        <ele>363.05179</ele>
        <time>2023-08-05T12:33:48.000Z</time>
      </trkpt>
      <trkpt lat="45.83856" lon="4.7514">
        <ele>363.09357</ele>
        <time>2023-08-05T12:33:49.000Z</time>
      </trkpt>
      <trkpt lat="45.83856" lon="4.75144">
        <ele>363.19601</ele>
        <time>2023-08-05T12:33:50.000Z</time>
      </trkpt>
      <trkpt lat="45.83855" lon="4.75148">
        <ele>363.18179</ele>
        <time>2023-08-05T12:33:51.000Z</time>
      </trkpt>
      <trkpt lat="45.83853" lon="4.75151">
        <ele>363.18726</ele>
        <time>2023-08-05T12:33:52.000Z</time>
      </trkpt>
      <trkpt lat="45.83851" lon="4.75156">
        <ele>363.2959</ele>
        <time>2023-08-05T12:33:53.000Z</time>
      </trkpt>
      <trkpt lat="45.83849" lon="4.7516">
        <ele>363.39044</ele>
        <time>2023-08-05T12:33:54.000Z</time>
      </trkpt>
      <trkpt lat="45.83847" lon="4.75166">
        <ele>363.55356</ele>
        <time>2023-08-05T12:33:55.000Z</time>
      </trkpt>
      <trkpt lat="45.83846" lon="4.75171">
        <ele>363.77283</ele>
        <time>2023-08-05T12:33:56.000Z</time>
      </trkpt>
      <trkpt lat="45.83845" lon="4.75176">
        <ele>364.01437</ele>
        <time>2023-08-05T12:33:57.000Z</time>
      </trkpt>
      <trkpt lat="45.83844" lon="4.75179">
        <ele>364.20013</ele>
        <time>2023-08-05T12:33:58.000Z</time>
      </trkpt>
      <trkpt lat="45.83842" lon="4.75183">
        <ele>364.41132</ele>
        <time>2023-08-05T12:33:59.000Z</time>
      </trkpt>
      <trkpt lat="45.8384" lon="4.75188">
        <ele>364.5116</ele>
        <time>2023-08-05T12:34:00.000Z</time>
      </trkpt>
      <trkpt lat="45.83838" lon="4.75191">
        <ele>364.59296</ele>
        <time>2023-08-05T12:34:01.000Z</time>
      </trkpt>
      <trkpt lat="45.83835" lon="4.75195">
        <ele>364.64337</ele>
        <time>2023-08-05T12:34:02.000Z</time>
      </trkpt>
      <trkpt lat="45.83832" lon="4.75199">
        <ele>364.6683</ele>
        <time>2023-08-05T12:34:03.000Z</time>
      </trkpt>
      <trkpt lat="45.83829" lon="4.75202">
        <ele>364.70074</ele>
        <time>2023-08-05T12:34:04.000Z</time>
      </trkpt>
      <trkpt lat="45.83827" lon="4.75204">
        <ele>364.84317</ele>
        <time>2023-08-05T12:34:05.000Z</time>
      </trkpt>
      <trkpt lat="45.83825" lon="4.75206">
        <ele>364.99194</ele>
        <time>2023-08-05T12:34:06.000Z</time>
      </trkpt>
      <trkpt lat="45.83822" lon="4.75208">
        <ele>365.09521</ele>
        <time>2023-08-05T12:34:08.000Z</time>
      </trkpt>
      <trkpt lat="45.83821" lon="4.75211">
        <ele>365.15613</ele>
        <time>2023-08-05T12:34:09.000Z</time>
      </trkpt>
      <trkpt lat="45.8382" lon="4.75213">
        <ele>365.25574</ele>
        <time>2023-08-05T12:34:10.000Z</time>
      </trkpt>
      <trkpt lat="45.8382" lon="4.75217">
        <ele>365.2915</ele>
        <time>2023-08-05T12:34:11.000Z</time>
      </trkpt>
      <trkpt lat="45.8382" lon="4.75221">
        <ele>365.46719</ele>
        <time>2023-08-05T12:34:12.000Z</time>
      </trkpt>
      <trkpt lat="45.83822" lon="4.75225">
        <ele>365.62375</ele>
        <time>2023-08-05T12:34:13.000Z</time>
      </trkpt>
      <trkpt lat="45.83824" lon="4.75228">
        <ele>365.77914</ele>
        <time>2023-08-05T12:34:14.000Z</time>
      </trkpt>
      <trkpt lat="45.83826" lon="4.75232">
        <ele>365.98108</ele>
        <time>2023-08-05T12:34:15.000Z</time>
      </trkpt>
      <trkpt lat="45.83828" lon="4.75235">
        <ele>366.14035</ele>
        <time>2023-08-05T12:34:16.000Z</time>
      </trkpt>
      <trkpt lat="45.8383" lon="4.75238">
        <ele>366.23096</ele>
        <time>2023-08-05T12:34:17.000Z</time>
      </trkpt>
      <trkpt lat="45.83833" lon="4.75241">
        <ele>366.29114</ele>
        <time>2023-08-05T12:34:18.000Z</time>
      </trkpt>
      <trkpt lat="45.83835" lon="4.75244">
        <ele>366.39755</ele>
        <time>2023-08-05T12:34:19.000Z</time>
      </trkpt>
      <trkpt lat="45.83837" lon="4.75246">
        <ele>366.466</ele>
        <time>2023-08-05T12:34:20.000Z</time>
      </trkpt>
      <trkpt lat="45.83839" lon="4.75248">
        <ele>366.66953</ele>
        <time>2023-08-05T12:34:21.000Z</time>
      </trkpt>
      <trkpt lat="45.83842" lon="4.75251">
        <ele>366.90118</ele>
        <time>2023-08-05T12:34:22.000Z</time>
      </trkpt>
      <trkpt lat="45.83845" lon="4.75254">
        <ele>367.12695</ele>
        <time>2023-08-05T12:34:23.000Z</time>
      </trkpt>
      <trkpt lat="45.83847" lon="4.75257">
        <ele>367.35724</ele>
        <time>2023-08-05T12:34:24.000Z</time>
      </trkpt>
      <trkpt lat="45.83849" lon="4.7526">
        <ele>367.56781</ele>
        <time>2023-08-05T12:34:25.000Z</time>
      </trkpt>
      <trkpt lat="45.83852" lon="4.75263">
        <ele>367.66269</ele>
        <time>2023-08-05T12:34:26.000Z</time>
      </trkpt>
      <trkpt lat="45.83855" lon="4.75265">
        <ele>367.80283</ele>
        <time>2023-08-05T12:34:27.000Z</time>
      </trkpt>
      <trkpt lat="45.83858" lon="4.75266">
        <ele>368.03955</ele>
        <time>2023-08-05T12:34:28.000Z</time>
      </trkpt>
      <trkpt lat="45.83861" lon="4.75267">
        <ele>368.3125</ele>
        <time>2023-08-05T12:34:29.000Z</time>
      </trkpt>
      <trkpt lat="45.83865" lon="4.75268">
        <ele>368.55371</ele>
        <time>2023-08-05T12:34:30.000Z</time>
      </trkpt>
      <trkpt lat="45.83868" lon="4.7527">
        <ele>368.76978</ele>
        <time>2023-08-05T12:34:31.000Z</time>
      </trkpt>
      <trkpt lat="45.83871" lon="4.75271">
        <ele>368.89572</ele>
        <time>2023-08-05T12:34:32.000Z</time>
      </trkpt>
      <trkpt lat="45.83874" lon="4.75273">
        <ele>369.02069</ele>
        <time>2023-08-05T12:34:33.000Z</time>
      </trkpt>
      <trkpt lat="45.83878" lon="4.75274">
        <ele>369.11755</ele>
        <time>2023-08-05T12:34:34.000Z</time>
      </trkpt>
      <trkpt lat="45.83882" lon="4.75275">
        <ele>369.18497</ele>
        <time>2023-08-05T12:34:35.000Z</time>
      </trkpt>
      <trkpt lat="45.83886" lon="4.75276">
        <ele>369.21512</ele>
        <time>2023-08-05T12:34:36.000Z</time>
      </trkpt>
      <trkpt lat="45.83889" lon="4.75277">
        <ele>369.28223</ele>
        <time>2023-08-05T12:34:37.000Z</time>
      </trkpt>
      <trkpt lat="45.83893" lon="4.75278">
        <ele>369.31976</ele>
        <time>2023-08-05T12:34:38.000Z</time>
      </trkpt>
      <trkpt lat="45.83897" lon="4.75281">
        <ele>369.34052</ele>
        <time>2023-08-05T12:34:39.000Z</time>
      </trkpt>
      <trkpt lat="45.839" lon="4.75284">
        <ele>369.34149</ele>
        <time>2023-08-05T12:34:40.000Z</time>
      </trkpt>
      <trkpt lat="45.83904" lon="4.75286">
        <ele>369.29916</ele>
        <time>2023-08-05T12:34:41.000Z</time>
      </trkpt>
      <trkpt lat="45.83908" lon="4.75289">
        <ele>369.22165</ele>
        <time>2023-08-05T12:34:42.000Z</time>
      </trkpt>
      <trkpt lat="45.83912" lon="4.7529">
        <ele>369.12637</ele>
        <time>2023-08-05T12:34:43.000Z</time>
      </trkpt>
      <trkpt lat="45.83916" lon="4.75292">
        <ele>369.02203</ele>
        <time>2023-08-05T12:34:44.000Z</time>
      </trkpt>
      <trkpt lat="45.83921" lon="4.75293">
        <ele>368.91736</ele>
        <time>2023-08-05T12:34:45.000Z</time>
      </trkpt>
      <trkpt lat="45.83925" lon="4.75294">
        <ele>368.83582</ele>
        <time>2023-08-05T12:34:46.000Z</time>
      </trkpt>
      <trkpt lat="45.8393" lon="4.75294">
        <ele>368.73642</ele>
        <time>2023-08-05T12:34:47.000Z</time>
      </trkpt>
      <trkpt lat="45.83936" lon="4.75294">
        <ele>368.64496</ele>
        <time>2023-08-05T12:34:48.000Z</time>
      </trkpt>
      <trkpt lat="45.8394" lon="4.75295">
        <ele>368.55597</ele>
        <time>2023-08-05T12:34:49.000Z</time>
      </trkpt>
      <trkpt lat="45.83944" lon="4.75295">
        <ele>368.47855</ele>
        <time>2023-08-05T12:34:50.000Z</time>
      </trkpt>
      <trkpt lat="45.83949" lon="4.75295">
        <ele>368.38641</ele>
        <time>2023-08-05T12:34:51.000Z</time>
      </trkpt>
      <trkpt lat="45.83954" lon="4.75294">
        <ele>368.31876</ele>
        <time>2023-08-05T12:34:52.000Z</time>
      </trkpt>
      <trkpt lat="45.83959" lon="4.75292">
        <ele>368.24423</ele>
        <time>2023-08-05T12:34:53.000Z</time>
      </trkpt>
      <trkpt lat="45.83963" lon="4.75289">
        <ele>368.17081</ele>
        <time>2023-08-05T12:34:54.000Z</time>
      </trkpt>
      <trkpt lat="45.83967" lon="4.75284">
        <ele>368.10544</ele>
        <time>2023-08-05T12:34:55.000Z</time>
      </trkpt>
      <trkpt lat="45.8397" lon="4.75279">
        <ele>368.05273</ele>
        <time>2023-08-05T12:34:56.000Z</time>
      </trkpt>
      <trkpt lat="45.83973" lon="4.75275">
        <ele>367.98526</ele>
        <time>2023-08-05T12:34:57.000Z</time>
      </trkpt>
      <trkpt lat="45.83977" lon="4.75271">
        <ele>367.92719</ele>
        <time>2023-08-05T12:34:58.000Z</time>
      </trkpt>
      <trkpt lat="45.83981" lon="4.7527">
        <ele>367.90878</ele>
        <time>2023-08-05T12:34:59.000Z</time>
      </trkpt>
      <trkpt lat="45.83985" lon="4.75271">
        <ele>367.92545</ele>
        <time>2023-08-05T12:35:00.000Z</time>
      </trkpt>
      <trkpt lat="45.83988" lon="4.75271">
        <ele>367.95758</ele>
        <time>2023-08-05T12:35:01.000Z</time>
      </trkpt>
      <trkpt lat="45.8399" lon="4.75272">
        <ele>368.01434</ele>
        <time>2023-08-05T12:35:02.000Z</time>
      </trkpt>
      <trkpt lat="45.83992" lon="4.75275">
        <ele>368.10284</ele>
        <time>2023-08-05T12:35:03.000Z</time>
      </trkpt>
      <trkpt lat="45.83993" lon="4.75278">
        <ele>368.19937</ele>
        <time>2023-08-05T12:35:04.000Z</time>
      </trkpt>
      <trkpt lat="45.83992" lon="4.75281">
        <ele>368.30548</ele>
        <time>2023-08-05T12:35:05.000Z</time>
      </trkpt>
      <trkpt lat="45.8399" lon="4.75284">
        <ele>368.38535</ele>
        <time>2023-08-05T12:35:06.000Z</time>
      </trkpt>
      <trkpt lat="45.83989" lon="4.75287">
        <ele>368.51163</ele>
        <time>2023-08-05T12:35:07.000Z</time>
      </trkpt>
      <trkpt lat="45.83987" lon="4.7529">
        <ele>368.60455</ele>
        <time>2023-08-05T12:35:08.000Z</time>
      </trkpt>
      <trkpt lat="45.83985" lon="4.75293">
        <ele>368.66937</ele>
        <time>2023-08-05T12:35:09.000Z</time>
      </trkpt>
      <trkpt lat="45.83982" lon="4.75296">
        <ele>368.73788</ele>
        <time>2023-08-05T12:35:10.000Z</time>
      </trkpt>
      <trkpt lat="45.8398" lon="4.75299">
        <ele>368.88358</ele>
        <time>2023-08-05T12:35:11.000Z</time>
      </trkpt>
      <trkpt lat="45.83978" lon="4.75303">
        <ele>369.01938</ele>
        <time>2023-08-05T12:35:12.000Z</time>
      </trkpt>
      <trkpt lat="45.83975" lon="4.75307">
        <ele>369.14685</ele>
        <time>2023-08-05T12:35:13.000Z</time>
      </trkpt>
      <trkpt lat="45.83973" lon="4.75311">
        <ele>369.27432</ele>
        <time>2023-08-05T12:35:14.000Z</time>
      </trkpt>
      <trkpt lat="45.83971" lon="4.75315">
        <ele>369.38013</ele>
        <time>2023-08-05T12:35:15.000Z</time>
      </trkpt>
      <trkpt lat="45.8397" lon="4.7532">
        <ele>369.48447</ele>
        <time>2023-08-05T12:35:16.000Z</time>
      </trkpt>
      <trkpt lat="45.83969" lon="4.75325">
        <ele>369.60229</ele>
        <time>2023-08-05T12:35:17.000Z</time>
      </trkpt>
      <trkpt lat="45.83968" lon="4.7533">
        <ele>369.71689</ele>
        <time>2023-08-05T12:35:18.000Z</time>
      </trkpt>
      <trkpt lat="45.83968" lon="4.75336">
        <ele>369.82578</ele>
        <time>2023-08-05T12:35:19.000Z</time>
      </trkpt>
      <trkpt lat="45.83968" lon="4.75341">
        <ele>369.92599</ele>
        <time>2023-08-05T12:35:20.000Z</time>
      </trkpt>
      <trkpt lat="45.83968" lon="4.75347">
        <ele>370.0162</ele>
        <time>2023-08-05T12:35:21.000Z</time>
      </trkpt>
      <trkpt lat="45.83969" lon="4.75353">
        <ele>370.08328</ele>
        <time>2023-08-05T12:35:22.000Z</time>
      </trkpt>
      <trkpt lat="45.83969" lon="4.75358">
        <ele>370.15021</ele>
        <time>2023-08-05T12:35:23.000Z</time>
      </trkpt>
      <trkpt lat="45.83969" lon="4.75364">
        <ele>370.2099</ele>
        <time>2023-08-05T12:35:24.000Z</time>
      </trkpt>
      <trkpt lat="45.8397" lon="4.7537">
        <ele>370.24469</ele>
        <time>2023-08-05T12:35:25.000Z</time>
      </trkpt>
      <trkpt lat="45.8397" lon="4.75375">
        <ele>370.2739</ele>
        <time>2023-08-05T12:35:26.000Z</time>
      </trkpt>
      <trkpt lat="45.8397" lon="4.75381">
        <ele>370.27563</ele>
        <time>2023-08-05T12:35:27.000Z</time>
      </trkpt>
      <trkpt lat="45.8397" lon="4.75387">
        <ele>370.31171</ele>
        <time>2023-08-05T12:35:28.000Z</time>
      </trkpt>
      <trkpt lat="45.8397" lon="4.75393">
        <ele>370.39337</ele>
        <time>2023-08-05T12:35:29.000Z</time>
      </trkpt>
      <trkpt lat="45.8397" lon="4.75399">
        <ele>370.47665</ele>
        <time>2023-08-05T12:35:30.000Z</time>
      </trkpt>
      <trkpt lat="45.83971" lon="4.75405">
        <ele>370.48489</ele>
        <time>2023-08-05T12:35:31.000Z</time>
      </trkpt>
      <trkpt lat="45.83971" lon="4.75411">
        <ele>370.50177</ele>
        <time>2023-08-05T12:35:32.000Z</time>
      </trkpt>
      <trkpt lat="45.83971" lon="4.75417">
        <ele>370.52335</ele>
        <time>2023-08-05T12:35:33.000Z</time>
      </trkpt>
      <trkpt lat="45.83971" lon="4.75423">
        <ele>370.56268</ele>
        <time>2023-08-05T12:35:34.000Z</time>
      </trkpt>
      <trkpt lat="45.83971" lon="4.75429">
        <ele>370.61591</ele>
        <time>2023-08-05T12:35:35.000Z</time>
      </trkpt>
      <trkpt lat="45.83971" lon="4.75435">
        <ele>370.64795</ele>
        <time>2023-08-05T12:35:36.000Z</time>
      </trkpt>
      <trkpt lat="45.83972" lon="4.75442">
        <ele>370.6806</ele>
        <time>2023-08-05T12:35:37.000Z</time>
      </trkpt>
      <trkpt lat="45.83972" lon="4.75449">
        <ele>370.72318</ele>
        <time>2023-08-05T12:35:38.000Z</time>
      </trkpt>
      <trkpt lat="45.83972" lon="4.75456">
        <ele>370.74033</ele>
        <time>2023-08-05T12:35:39.000Z</time>
      </trkpt>
      <trkpt lat="45.83973" lon="4.75463">
        <ele>370.75336</ele>
        <time>2023-08-05T12:35:40.000Z</time>
      </trkpt>
      <trkpt lat="45.83972" lon="4.7547">
        <ele>370.76068</ele>
        <time>2023-08-05T12:35:41.000Z</time>
      </trkpt>
      <trkpt lat="45.83972" lon="4.75477">
        <ele>370.78677</ele>
        <time>2023-08-05T12:35:42.000Z</time>
      </trkpt>
      <trkpt lat="45.83972" lon="4.75483">
        <ele>370.80414</ele>
        <time>2023-08-05T12:35:43.000Z</time>
      </trkpt>
      <trkpt lat="45.83973" lon="4.75488">
        <ele>370.84027</ele>
        <time>2023-08-05T12:35:44.000Z</time>
      </trkpt>
      <trkpt lat="45.83973" lon="4.75493">
        <ele>370.88498</ele>
        <time>2023-08-05T12:35:45.000Z</time>
      </trkpt>
      <trkpt lat="45.83974" lon="4.75498">
        <ele>370.92685</ele>
        <time>2023-08-05T12:35:46.000Z</time>
      </trkpt>
      <trkpt lat="45.83976" lon="4.75502">
        <ele>370.96417</ele>
        <time>2023-08-05T12:35:47.000Z</time>
      </trkpt>
      <trkpt lat="45.8398" lon="4.75498">
        <ele>370.98007</ele>
        <time>2023-08-05T12:35:48.000Z</time>
      </trkpt>
      <trkpt lat="45.83983" lon="4.75497">
        <ele>370.93414</ele>
        <time>2023-08-05T12:35:49.000Z</time>
      </trkpt>
      <trkpt lat="45.83984" lon="4.7549">
        <ele>370.86386</ele>
        <time>2023-08-05T12:35:50.000Z</time>
      </trkpt>
      <trkpt lat="45.83984" lon="4.75483">
        <ele>370.84052</ele>
        <time>2023-08-05T12:35:51.000Z</time>
      </trkpt>
      <trkpt lat="45.83985" lon="4.75475">
        <ele>370.77924</ele>
        <time>2023-08-05T12:35:52.000Z</time>
      </trkpt>
      <trkpt lat="45.83985" lon="4.75467">
        <ele>370.70959</ele>
        <time>2023-08-05T12:35:53.000Z</time>
      </trkpt>
      <trkpt lat="45.83985" lon="4.75459">
        <ele>370.63852</ele>
        <time>2023-08-05T12:35:54.000Z</time>
      </trkpt>
      <trkpt lat="45.83987" lon="4.7545">
        <ele>370.54007</ele>
        <time>2023-08-05T12:35:55.000Z</time>
      </trkpt>
      <trkpt lat="45.83988" lon="4.7544">
        <ele>370.45526</ele>
        <time>2023-08-05T12:35:56.000Z</time>
      </trkpt>
      <trkpt lat="45.8399" lon="4.7543">
        <ele>370.36102</ele>
        <time>2023-08-05T12:35:57.000Z</time>
      </trkpt>
      <trkpt lat="45.83993" lon="4.75421">
        <ele>370.2572</ele>
        <time>2023-08-05T12:35:58.000Z</time>
      </trkpt>
      <trkpt lat="45.83996" lon="4.75412">
        <ele>370.14264</ele>
        <time>2023-08-05T12:35:59.000Z</time>
      </trkpt>
      <trkpt lat="45.84002" lon="4.75403">
        <ele>370.02042</ele>
        <time>2023-08-05T12:36:00.000Z</time>
      </trkpt>
      <trkpt lat="45.84007" lon="4.75396">
        <ele>369.88498</ele>
        <time>2023-08-05T12:36:01.000Z</time>
      </trkpt>
      <trkpt lat="45.84013" lon="4.75388">
        <ele>369.71063</ele>
        <time>2023-08-05T12:36:02.000Z</time>
      </trkpt>
      <trkpt lat="45.84019" lon="4.75381">
        <ele>369.53497</ele>
        <time>2023-08-05T12:36:03.000Z</time>
      </trkpt>
      <trkpt lat="45.84025" lon="4.75375">
        <ele>369.33472</ele>
        <time>2023-08-05T12:36:04.000Z</time>
      </trkpt>
      <trkpt lat="45.84032" lon="4.75368">
        <ele>369.11295</ele>
        <time>2023-08-05T12:36:05.000Z</time>
      </trkpt>
      <trkpt lat="45.84039" lon="4.75361">
        <ele>368.8638</ele>
        <time>2023-08-05T12:36:06.000Z</time>
      </trkpt>
      <trkpt lat="45.84045" lon="4.75354">
        <ele>368.5777</ele>
        <time>2023-08-05T12:36:07.000Z</time>
      </trkpt>
      <trkpt lat="45.84052" lon="4.75347">
        <ele>368.2984</ele>
        <time>2023-08-05T12:36:08.000Z</time>
      </trkpt>
      <trkpt lat="45.84058" lon="4.75341">
        <ele>368.0477</ele>
        <time>2023-08-05T12:36:09.000Z</time>
      </trkpt>
      <trkpt lat="45.84065" lon="4.75334">
        <ele>367.80014</ele>
        <time>2023-08-05T12:36:10.000Z</time>
      </trkpt>
      <trkpt lat="45.84071" lon="4.75328">
        <ele>367.52716</ele>
        <time>2023-08-05T12:36:11.000Z</time>
      </trkpt>
      <trkpt lat="45.84078" lon="4.75322">
        <ele>367.25696</ele>
        <time>2023-08-05T12:36:12.000Z</time>
      </trkpt>
      <trkpt lat="45.84084" lon="4.75316">
        <ele>367.00946</ele>
        <time>2023-08-05T12:36:13.000Z</time>
      </trkpt>
      <trkpt lat="45.84091" lon="4.75311">
        <ele>366.74127</ele>
        <time>2023-08-05T12:36:14.000Z</time>
      </trkpt>
      <trkpt lat="45.84097" lon="4.75306">
        <ele>366.47833</ele>
        <time>2023-08-05T12:36:15.000Z</time>
      </trkpt>
      <trkpt lat="45.84104" lon="4.753">
        <ele>366.21335</ele>
        <time>2023-08-05T12:36:16.000Z</time>
      </trkpt>
      <trkpt lat="45.84109" lon="4.75295">
        <ele>365.94016</ele>
        <time>2023-08-05T12:36:17.000Z</time>
      </trkpt>
      <trkpt lat="45.84115" lon="4.75289">
        <ele>365.67618</ele>
        <time>2023-08-05T12:36:18.000Z</time>
      </trkpt>
      <trkpt lat="45.84121" lon="4.75284">
        <ele>365.41144</ele>
        <time>2023-08-05T12:36:19.000Z</time>
      </trkpt>
      <trkpt lat="45.84127" lon="4.7528">
        <ele>365.15353</ele>
        <time>2023-08-05T12:36:20.000Z</time>
      </trkpt>
      <trkpt lat="45.84133" lon="4.75275">
        <ele>364.90497</ele>
        <time>2023-08-05T12:36:21.000Z</time>
      </trkpt>
      <trkpt lat="45.84138" lon="4.7527">
        <ele>364.66937</ele>
        <time>2023-08-05T12:36:22.000Z</time>
      </trkpt>
      <trkpt lat="45.84143" lon="4.75265">
        <ele>364.44858</ele>
        <time>2023-08-05T12:36:23.000Z</time>
      </trkpt>
      <trkpt lat="45.84149" lon="4.75261">
        <ele>364.23727</ele>
        <time>2023-08-05T12:36:24.000Z</time>
      </trkpt>
      <trkpt lat="45.84153" lon="4.75256">
        <ele>364.06244</ele>
        <time>2023-08-05T12:36:25.000Z</time>
      </trkpt>
      <trkpt lat="45.84158" lon="4.75251">
        <ele>363.90533</ele>
        <time>2023-08-05T12:36:26.000Z</time>
      </trkpt>
      <trkpt lat="45.84163" lon="4.75246">
        <ele>363.77618</ele>
        <time>2023-08-05T12:36:27.000Z</time>
      </trkpt>
      <trkpt lat="45.84168" lon="4.75241">
        <ele>363.66028</ele>
        <time>2023-08-05T12:36:28.000Z</time>
      </trkpt>
      <trkpt lat="45.84173" lon="4.75237">
        <ele>363.56012</ele>
        <time>2023-08-05T12:36:29.000Z</time>
      </trkpt>
      <trkpt lat="45.84177" lon="4.75236">
        <ele>363.47028</ele>
        <time>2023-08-05T12:36:30.000Z</time>
      </trkpt>
      <trkpt lat="45.84181" lon="4.75232">
        <ele>363.35452</ele>
        <time>2023-08-05T12:36:31.000Z</time>
      </trkpt>
      <trkpt lat="45.84184" lon="4.75228">
        <ele>363.25476</ele>
        <time>2023-08-05T12:36:32.000Z</time>
      </trkpt>
      <trkpt lat="45.84189" lon="4.75224">
        <ele>363.12354</ele>
        <time>2023-08-05T12:36:33.000Z</time>
      </trkpt>
      <trkpt lat="45.84192" lon="4.75219">
        <ele>362.98483</ele>
        <time>2023-08-05T12:36:34.000Z</time>
      </trkpt>
      <trkpt lat="45.84196" lon="4.75215">
        <ele>362.87018</ele>
        <time>2023-08-05T12:36:35.000Z</time>
      </trkpt>
      <trkpt lat="45.84201" lon="4.75211">
        <ele>362.77863</ele>
        <time>2023-08-05T12:36:36.000Z</time>
      </trkpt>
      <trkpt lat="45.84206" lon="4.75209">
        <ele>362.64581</ele>
        <time>2023-08-05T12:36:37.000Z</time>
      </trkpt>
      <trkpt lat="45.8421" lon="4.75205">
        <ele>362.49997</ele>
        <time>2023-08-05T12:36:38.000Z</time>
      </trkpt>
      <trkpt lat="45.84214" lon="4.752">
        <ele>362.40186</ele>
        <time>2023-08-05T12:36:39.000Z</time>
      </trkpt>
      <trkpt lat="45.84219" lon="4.75196">
        <ele>362.28012</ele>
        <time>2023-08-05T12:36:40.000Z</time>
      </trkpt>
      <trkpt lat="45.84224" lon="4.75191">
        <ele>362.16385</ele>
        <time>2023-08-05T12:36:41.000Z</time>
      </trkpt>
      <trkpt lat="45.84228" lon="4.75186">
        <ele>362.0668</ele>
        <time>2023-08-05T12:36:42.000Z</time>
      </trkpt>
      <trkpt lat="45.84233" lon="4.7518">
        <ele>361.95419</ele>
        <time>2023-08-05T12:36:43.000Z</time>
      </trkpt>
      <trkpt lat="45.84238" lon="4.75175">
        <ele>361.83917</ele>
        <time>2023-08-05T12:36:44.000Z</time>
      </trkpt>
      <trkpt lat="45.84245" lon="4.75169">
        <ele>361.68292</ele>
        <time>2023-08-05T12:36:45.000Z</time>
      </trkpt>
      <trkpt lat="45.8425" lon="4.75165">
        <ele>361.53876</ele>
        <time>2023-08-05T12:36:46.000Z</time>
      </trkpt>
      <trkpt lat="45.84256" lon="4.75158">
        <ele>361.4035</ele>
        <time>2023-08-05T12:36:47.000Z</time>
      </trkpt>
      <trkpt lat="45.84261" lon="4.75152">
        <ele>361.26318</ele>
        <time>2023-08-05T12:36:48.000Z</time>
      </trkpt>
      <trkpt lat="45.84267" lon="4.75145">
        <ele>361.11737</ele>
        <time>2023-08-05T12:36:49.000Z</time>
      </trkpt>
      <trkpt lat="45.84274" lon="4.75138">
        <ele>360.95685</ele>
        <time>2023-08-05T12:36:50.000Z</time>
      </trkpt>
      <trkpt lat="45.8428" lon="4.75131">
        <ele>360.79315</ele>
        <time>2023-08-05T12:36:51.000Z</time>
      </trkpt>
      <trkpt lat="45.84286" lon="4.75123">
        <ele>360.61456</ele>
        <time>2023-08-05T12:36:52.000Z</time>
      </trkpt>
      <trkpt lat="45.84293" lon="4.75115">
        <ele>360.45966</ele>
        <time>2023-08-05T12:36:53.000Z</time>
      </trkpt>
      <trkpt lat="45.843" lon="4.75107">
        <ele>360.32065</ele>
        <time>2023-08-05T12:36:54.000Z</time>
      </trkpt>
      <trkpt lat="45.84308" lon="4.751">
        <ele>360.07446</ele>
        <time>2023-08-05T12:36:55.000Z</time>
      </trkpt>
      <trkpt lat="45.84314" lon="4.75091">
        <ele>359.48749</ele>
        <time>2023-08-05T12:36:56.000Z</time>
      </trkpt>
      <trkpt lat="45.84322" lon="4.75082">
        <ele>358.94302</ele>
        <time>2023-08-05T12:36:57.000Z</time>
      </trkpt>
      <trkpt lat="45.8433" lon="4.75074">
        <ele>358.38794</ele>
        <time>2023-08-05T12:36:58.000Z</time>
      </trkpt>
      <trkpt lat="45.84338" lon="4.75067">
        <ele>357.7392</ele>
        <time>2023-08-05T12:36:59.000Z</time>
      </trkpt>
      <trkpt lat="45.84346" lon="4.75058">
        <ele>357.08456</ele>
        <time>2023-08-05T12:37:00.000Z</time>
      </trkpt>
      <trkpt lat="45.84354" lon="4.75049">
        <ele>356.41925</ele>
        <time>2023-08-05T12:37:01.000Z</time>
      </trkpt>
      <trkpt lat="45.84362" lon="4.75042">
        <ele>355.73102</ele>
        <time>2023-08-05T12:37:02.000Z</time>
      </trkpt>
      <trkpt lat="45.84371" lon="4.75034">
        <ele>354.9827</ele>
        <time>2023-08-05T12:37:03.000Z</time>
      </trkpt>
      <trkpt lat="45.84379" lon="4.75025">
        <ele>354.19937</ele>
        <time>2023-08-05T12:37:04.000Z</time>
      </trkpt>
      <trkpt lat="45.84388" lon="4.75018">
        <ele>353.43707</ele>
        <time>2023-08-05T12:37:05.000Z</time>
      </trkpt>
      <trkpt lat="45.84396" lon="4.7501">
        <ele>352.64838</ele>
        <time>2023-08-05T12:37:06.000Z</time>
      </trkpt>
      <trkpt lat="45.84404" lon="4.75001">
        <ele>351.82953</ele>
        <time>2023-08-05T12:37:07.000Z</time>
      </trkpt>
      <trkpt lat="45.84413" lon="4.74993">
        <ele>350.98465</ele>
        <time>2023-08-05T12:37:08.000Z</time>
      </trkpt>
      <trkpt lat="45.84422" lon="4.74984">
        <ele>350.1774</ele>
        <time>2023-08-05T12:37:09.000Z</time>
      </trkpt>
      <trkpt lat="45.8443" lon="4.74976">
        <ele>349.32318</ele>
        <time>2023-08-05T12:37:10.000Z</time>
      </trkpt>
      <trkpt lat="45.84439" lon="4.74968">
        <ele>348.48477</ele>
        <time>2023-08-05T12:37:11.000Z</time>
      </trkpt>
      <trkpt lat="45.84447" lon="4.7496">
        <ele>347.67645</ele>
        <time>2023-08-05T12:37:12.000Z</time>
      </trkpt>
      <trkpt lat="45.84455" lon="4.74953">
        <ele>346.84723</ele>
        <time>2023-08-05T12:37:13.000Z</time>
      </trkpt>
      <trkpt lat="45.84463" lon="4.74945">
        <ele>346.02423</ele>
        <time>2023-08-05T12:37:14.000Z</time>
      </trkpt>
      <trkpt lat="45.8447" lon="4.74939">
        <ele>345.30032</ele>
        <time>2023-08-05T12:37:15.000Z</time>
      </trkpt>
      <trkpt lat="45.84477" lon="4.74932">
        <ele>344.91595</ele>
        <time>2023-08-05T12:37:16.000Z</time>
      </trkpt>
      <trkpt lat="45.84484" lon="4.74927">
        <ele>345.06781</ele>
        <time>2023-08-05T12:37:17.000Z</time>
      </trkpt>
      <trkpt lat="45.84492" lon="4.74924">
        <ele>345.09207</ele>
        <time>2023-08-05T12:37:18.000Z</time>
      </trkpt>
      <trkpt lat="45.84499" lon="4.74919">
        <ele>345.17633</ele>
        <time>2023-08-05T12:37:19.000Z</time>
      </trkpt>
      <trkpt lat="45.84505" lon="4.74917">
        <ele>345.31192</ele>
        <time>2023-08-05T12:37:20.000Z</time>
      </trkpt>
      <trkpt lat="45.84511" lon="4.74914">
        <ele>345.45209</ele>
        <time>2023-08-05T12:37:21.000Z</time>
      </trkpt>
      <trkpt lat="45.84517" lon="4.7491">
        <ele>345.63876</ele>
        <time>2023-08-05T12:37:22.000Z</time>
      </trkpt>
      <trkpt lat="45.84522" lon="4.74907">
        <ele>345.89862</ele>
        <time>2023-08-05T12:37:23.000Z</time>
      </trkpt>
      <trkpt lat="45.84527" lon="4.74905">
        <ele>346.1936</ele>
        <time>2023-08-05T12:37:24.000Z</time>
      </trkpt>
      <trkpt lat="45.84532" lon="4.74901">
        <ele>346.5296</ele>
        <time>2023-08-05T12:37:25.000Z</time>
      </trkpt>
      <trkpt lat="45.84535" lon="4.74898">
        <ele>346.9111</ele>
        <time>2023-08-05T12:37:26.000Z</time>
      </trkpt>
      <trkpt lat="45.84539" lon="4.74895">
        <ele>347.34561</ele>
        <time>2023-08-05T12:37:27.000Z</time>
      </trkpt>
      <trkpt lat="45.84543" lon="4.74891">
        <ele>347.81195</ele>
        <time>2023-08-05T12:37:28.000Z</time>
      </trkpt>
      <trkpt lat="45.84547" lon="4.74889">
        <ele>348.24319</ele>
        <time>2023-08-05T12:37:29.000Z</time>
      </trkpt>
      <trkpt lat="45.84551" lon="4.74886">
        <ele>348.71024</ele>
        <time>2023-08-05T12:37:30.000Z</time>
      </trkpt>
      <trkpt lat="45.84554" lon="4.74883">
        <ele>349.17694</ele>
        <time>2023-08-05T12:37:31.000Z</time>
      </trkpt>
      <trkpt lat="45.84558" lon="4.74879">
        <ele>349.6304</ele>
        <time>2023-08-05T12:37:32.000Z</time>
      </trkpt>
      <trkpt lat="45.84563" lon="4.74875">
        <ele>350.06168</ele>
        <time>2023-08-05T12:37:33.000Z</time>
      </trkpt>
      <trkpt lat="45.84569" lon="4.74871">
        <ele>350.45404</ele>
        <time>2023-08-05T12:37:34.000Z</time>
      </trkpt>
      <trkpt lat="45.84575" lon="4.74864">
        <ele>350.89844</ele>
        <time>2023-08-05T12:37:35.000Z</time>
      </trkpt>
      <trkpt lat="45.84582" lon="4.74858">
        <ele>350.8201</ele>
        <time>2023-08-05T12:37:36.000Z</time>
      </trkpt>
      <trkpt lat="45.84589" lon="4.7485">
        <ele>350.23322</ele>
        <time>2023-08-05T12:37:37.000Z</time>
      </trkpt>
      <trkpt lat="45.84597" lon="4.74842">
        <ele>349.7637</ele>
        <time>2023-08-05T12:37:38.000Z</time>
      </trkpt>
      <trkpt lat="45.84605" lon="4.74833">
        <ele>349.26337</ele>
        <time>2023-08-05T12:37:39.000Z</time>
      </trkpt>
      <trkpt lat="45.84614" lon="4.74824">
        <ele>348.67181</ele>
        <time>2023-08-05T12:37:40.000Z</time>
      </trkpt>
      <trkpt lat="45.84622" lon="4.74815">
        <ele>348.04022</ele>
        <time>2023-08-05T12:37:41.000Z</time>
      </trkpt>
      <trkpt lat="45.84631" lon="4.74807">
        <ele>347.36618</ele>
        <time>2023-08-05T12:37:42.000Z</time>
      </trkpt>
      <trkpt lat="45.8464" lon="4.74799">
        <ele>346.6879</ele>
        <time>2023-08-05T12:37:43.000Z</time>
      </trkpt>
      <trkpt lat="45.84649" lon="4.74791">
        <ele>346.01117</ele>
        <time>2023-08-05T12:37:44.000Z</time>
      </trkpt>
      <trkpt lat="45.84658" lon="4.74784">
        <ele>345.27527</ele>
        <time>2023-08-05T12:37:45.000Z</time>
      </trkpt>
      <trkpt lat="45.84666" lon="4.74777">
        <ele>344.49524</ele>
        <time>2023-08-05T12:37:46.000Z</time>
      </trkpt>
      <trkpt lat="45.84675" lon="4.74771">
        <ele>343.68768</ele>
        <time>2023-08-05T12:37:47.000Z</time>
      </trkpt>
      <trkpt lat="45.84685" lon="4.74766">
        <ele>343.20996</ele>
        <time>2023-08-05T12:37:48.000Z</time>
      </trkpt>
      <trkpt lat="45.84694" lon="4.74761">
        <ele>342.69427</ele>
        <time>2023-08-05T12:37:49.000Z</time>
      </trkpt>
      <trkpt lat="45.84705" lon="4.74757">
        <ele>342.39539</ele>
        <time>2023-08-05T12:37:50.000Z</time>
      </trkpt>
      <trkpt lat="45.84714" lon="4.74753">
        <ele>341.45938</ele>
        <time>2023-08-05T12:37:51.000Z</time>
      </trkpt>
      <trkpt lat="45.84724" lon="4.7475">
        <ele>340.49957</ele>
        <time>2023-08-05T12:37:52.000Z</time>
      </trkpt>
      <trkpt lat="45.84734" lon="4.74746">
        <ele>339.55112</ele>
        <time>2023-08-05T12:37:53.000Z</time>
      </trkpt>
      <trkpt lat="45.84744" lon="4.74742">
        <ele>338.62485</ele>
        <time>2023-08-05T12:37:54.000Z</time>
      </trkpt>
      <trkpt lat="45.84754" lon="4.74739">
        <ele>337.57208</ele>
        <time>2023-08-05T12:37:55.000Z</time>
      </trkpt>
      <trkpt lat="45.84765" lon="4.74736">
        <ele>336.98608</ele>
        <time>2023-08-05T12:37:56.000Z</time>
      </trkpt>
      <trkpt lat="45.84776" lon="4.74732">
        <ele>336.37451</ele>
        <time>2023-08-05T12:37:57.000Z</time>
      </trkpt>
      <trkpt lat="45.84788" lon="4.74729">
        <ele>335.77963</ele>
        <time>2023-08-05T12:37:58.000Z</time>
      </trkpt>
      <trkpt lat="45.848" lon="4.74725">
        <ele>335.18015</ele>
        <time>2023-08-05T12:37:59.000Z</time>
      </trkpt>
      <trkpt lat="45.84811" lon="4.74722">
        <ele>334.57617</ele>
        <time>2023-08-05T12:38:00.000Z</time>
      </trkpt>
      <trkpt lat="45.84824" lon="4.74719">
        <ele>333.97614</ele>
        <time>2023-08-05T12:38:01.000Z</time>
      </trkpt>
      <trkpt lat="45.84837" lon="4.74717">
        <ele>333.40656</ele>
        <time>2023-08-05T12:38:02.000Z</time>
      </trkpt>
      <trkpt lat="45.8485" lon="4.74714">
        <ele>332.81158</ele>
        <time>2023-08-05T12:38:03.000Z</time>
      </trkpt>
      <trkpt lat="45.84865" lon="4.74713">
        <ele>332.21036</ele>
        <time>2023-08-05T12:38:04.000Z</time>
      </trkpt>
      <trkpt lat="45.8488" lon="4.74711">
        <ele>331.7001</ele>
        <time>2023-08-05T12:38:05.000Z</time>
      </trkpt>
      <trkpt lat="45.84896" lon="4.74706">
        <ele>331.08817</ele>
        <time>2023-08-05T12:38:06.000Z</time>
      </trkpt>
      <trkpt lat="45.84909" lon="4.74701">
        <ele>330.40677</ele>
        <time>2023-08-05T12:38:07.000Z</time>
      </trkpt>
      <trkpt lat="45.84921" lon="4.74696">
        <ele>329.32224</ele>
        <time>2023-08-05T12:38:08.000Z</time>
      </trkpt>
      <trkpt lat="45.84934" lon="4.74693">
        <ele>328.23175</ele>
        <time>2023-08-05T12:38:09.000Z</time>
      </trkpt>
      <trkpt lat="45.84945" lon="4.74688">
        <ele>326.91736</ele>
        <time>2023-08-05T12:38:10.000Z</time>
      </trkpt>
      <trkpt lat="45.84955" lon="4.74687">
        <ele>326.22467</ele>
        <time>2023-08-05T12:38:11.000Z</time>
      </trkpt>
      <trkpt lat="45.84965" lon="4.74689">
        <ele>325.52005</ele>
        <time>2023-08-05T12:38:12.000Z</time>
      </trkpt>
      <trkpt lat="45.84974" lon="4.74693">
        <ele>324.83273</ele>
        <time>2023-08-05T12:38:13.000Z</time>
      </trkpt>
      <trkpt lat="45.84981" lon="4.74701">
        <ele>324.14572</ele>
        <time>2023-08-05T12:38:14.000Z</time>
      </trkpt>
      <trkpt lat="45.84988" lon="4.74709">
        <ele>323.52475</ele>
        <time>2023-08-05T12:38:15.000Z</time>
      </trkpt>
      <trkpt lat="45.84994" lon="4.74716">
        <ele>322.9729</ele>
        <time>2023-08-05T12:38:16.000Z</time>
      </trkpt>
      <trkpt lat="45.85" lon="4.74718">
        <ele>322.40912</ele>
        <time>2023-08-05T12:38:17.000Z</time>
      </trkpt>
      <trkpt lat="45.85004" lon="4.74716">
        <ele>321.88058</ele>
        <time>2023-08-05T12:38:18.000Z</time>
      </trkpt>
      <trkpt lat="45.85009" lon="4.74716">
        <ele>321.42068</ele>
        <time>2023-08-05T12:38:19.000Z</time>
      </trkpt>
      <trkpt lat="45.85014" lon="4.74715">
        <ele>321.01505</ele>
        <time>2023-08-05T12:38:20.000Z</time>
      </trkpt>
      <trkpt lat="45.85019" lon="4.74712">
        <ele>320.5929</ele>
        <time>2023-08-05T12:38:21.000Z</time>
      </trkpt>
      <trkpt lat="45.85025" lon="4.74709">
        <ele>320.18045</ele>
        <time>2023-08-05T12:38:22.000Z</time>
      </trkpt>
      <trkpt lat="45.85032" lon="4.74709">
        <ele>319.78708</ele>
        <time>2023-08-05T12:38:23.000Z</time>
      </trkpt>
      <trkpt lat="45.85035" lon="4.7471">
        <ele>319.36533</ele>
        <time>2023-08-05T12:38:24.000Z</time>
      </trkpt>
      <trkpt lat="45.85041" lon="4.74711">
        <ele>318.88138</ele>
        <time>2023-08-05T12:38:25.000Z</time>
      </trkpt>
      <trkpt lat="45.85048" lon="4.74712">
        <ele>318.50537</ele>
        <time>2023-08-05T12:38:26.000Z</time>
      </trkpt>
      <trkpt lat="45.85055" lon="4.74713">
        <ele>318.21426</ele>
        <time>2023-08-05T12:38:27.000Z</time>
      </trkpt>
      <trkpt lat="45.85061" lon="4.74713">
        <ele>317.81232</ele>
        <time>2023-08-05T12:38:28.000Z</time>
      </trkpt>
      <trkpt lat="45.85067" lon="4.74716">
        <ele>317.59399</ele>
        <time>2023-08-05T12:38:29.000Z</time>
      </trkpt>
      <trkpt lat="45.85075" lon="4.74718">
        <ele>317.36426</ele>
        <time>2023-08-05T12:38:30.000Z</time>
      </trkpt>
      <trkpt lat="45.85081" lon="4.74719">
        <ele>317.14575</ele>
        <time>2023-08-05T12:38:31.000Z</time>
      </trkpt>
      <trkpt lat="45.85088" lon="4.74721">
        <ele>316.91</ele>
        <time>2023-08-05T12:38:32.000Z</time>
      </trkpt>
      <trkpt lat="45.85095" lon="4.74722">
        <ele>316.69183</ele>
        <time>2023-08-05T12:38:33.000Z</time>
      </trkpt>
      <trkpt lat="45.85101" lon="4.74724">
        <ele>316.53329</ele>
        <time>2023-08-05T12:38:34.000Z</time>
      </trkpt>
      <trkpt lat="45.85106" lon="4.74725">
        <ele>316.46439</ele>
        <time>2023-08-05T12:38:35.000Z</time>
      </trkpt>
      <trkpt lat="45.85111" lon="4.74729">
        <ele>316.42487</ele>
        <time>2023-08-05T12:38:36.000Z</time>
      </trkpt>
      <trkpt lat="45.85116" lon="4.74731">
        <ele>316.40784</ele>
        <time>2023-08-05T12:38:37.000Z</time>
      </trkpt>
      <trkpt lat="45.85119" lon="4.74735">
        <ele>316.42239</ele>
        <time>2023-08-05T12:38:38.000Z</time>
      </trkpt>
      <trkpt lat="45.85128" lon="4.74734">
        <ele>316.36209</ele>
        <time>2023-08-05T12:38:39.000Z</time>
      </trkpt>
      <trkpt lat="45.85134" lon="4.74735">
        <ele>316.2597</ele>
        <time>2023-08-05T12:38:40.000Z</time>
      </trkpt>
      <trkpt lat="45.85141" lon="4.74736">
        <ele>316.19482</ele>
        <time>2023-08-05T12:38:41.000Z</time>
      </trkpt>
      <trkpt lat="45.85147" lon="4.74738">
        <ele>316.10858</ele>
        <time>2023-08-05T12:38:42.000Z</time>
      </trkpt>
      <trkpt lat="45.85152" lon="4.74741">
        <ele>316.11111</ele>
        <time>2023-08-05T12:38:43.000Z</time>
      </trkpt>
      <trkpt lat="45.8516" lon="4.74744">
        <ele>316.26514</ele>
        <time>2023-08-05T12:38:44.000Z</time>
      </trkpt>
      <trkpt lat="45.85165" lon="4.74746">
        <ele>316.47849</ele>
        <time>2023-08-05T12:38:45.000Z</time>
      </trkpt>
      <trkpt lat="45.8517" lon="4.74747">
        <ele>316.4812</ele>
        <time>2023-08-05T12:38:46.000Z</time>
      </trkpt>
      <trkpt lat="45.85174" lon="4.74751">
        <ele>316.49326</ele>
        <time>2023-08-05T12:38:47.000Z</time>
      </trkpt>
      <trkpt lat="45.8518" lon="4.74753">
        <ele>316.71436</ele>
        <time>2023-08-05T12:38:48.000Z</time>
      </trkpt>
      <trkpt lat="45.85185" lon="4.74755">
        <ele>316.80441</ele>
        <time>2023-08-05T12:38:49.000Z</time>
      </trkpt>
      <trkpt lat="45.85189" lon="4.74757">
        <ele>316.94049</ele>
        <time>2023-08-05T12:38:50.000Z</time>
      </trkpt>
      <trkpt lat="45.85193" lon="4.7476">
        <ele>317.07977</ele>
        <time>2023-08-05T12:38:51.000Z</time>
      </trkpt>
      <trkpt lat="45.85196" lon="4.74761">
        <ele>317.30475</ele>
        <time>2023-08-05T12:38:52.000Z</time>
      </trkpt>
      <trkpt lat="45.852" lon="4.74763">
        <ele>317.55206</ele>
        <time>2023-08-05T12:38:53.000Z</time>
      </trkpt>
      <trkpt lat="45.85205" lon="4.74765">
        <ele>317.74307</ele>
        <time>2023-08-05T12:38:54.000Z</time>
      </trkpt>
      <trkpt lat="45.85209" lon="4.74767">
        <ele>317.86371</ele>
        <time>2023-08-05T12:38:55.000Z</time>
      </trkpt>
      <trkpt lat="45.85213" lon="4.7477">
        <ele>317.99985</ele>
        <time>2023-08-05T12:38:56.000Z</time>
      </trkpt>
      <trkpt lat="45.85219" lon="4.74774">
        <ele>318.22672</ele>
        <time>2023-08-05T12:38:58.000Z</time>
      </trkpt>
      <trkpt lat="45.85222" lon="4.74778">
        <ele>318.40231</ele>
        <time>2023-08-05T12:38:59.000Z</time>
      </trkpt>
      <trkpt lat="45.85226" lon="4.74782">
        <ele>318.64215</ele>
        <time>2023-08-05T12:39:00.000Z</time>
      </trkpt>
      <trkpt lat="45.8523" lon="4.74785">
        <ele>318.97217</ele>
        <time>2023-08-05T12:39:01.000Z</time>
      </trkpt>
      <trkpt lat="45.85233" lon="4.74789">
        <ele>319.32025</ele>
        <time>2023-08-05T12:39:02.000Z</time>
      </trkpt>
      <trkpt lat="45.85237" lon="4.74793">
        <ele>319.67386</ele>
        <time>2023-08-05T12:39:03.000Z</time>
      </trkpt>
      <trkpt lat="45.8524" lon="4.74796">
        <ele>319.94879</ele>
        <time>2023-08-05T12:39:04.000Z</time>
      </trkpt>
      <trkpt lat="45.85244" lon="4.74799">
        <ele>320.14233</ele>
        <time>2023-08-05T12:39:05.000Z</time>
      </trkpt>
      <trkpt lat="45.85249" lon="4.74801">
        <ele>320.32501</ele>
        <time>2023-08-05T12:39:06.000Z</time>
      </trkpt>
      <trkpt lat="45.85253" lon="4.74804">
        <ele>320.74957</ele>
        <time>2023-08-05T12:39:07.000Z</time>
      </trkpt>
      <trkpt lat="45.85259" lon="4.74808">
        <ele>321.15463</ele>
        <time>2023-08-05T12:39:08.000Z</time>
      </trkpt>
      <trkpt lat="45.85263" lon="4.74812">
        <ele>321.52667</ele>
        <time>2023-08-05T12:39:09.000Z</time>
      </trkpt>
      <trkpt lat="45.85266" lon="4.74816">
        <ele>321.90375</ele>
        <time>2023-08-05T12:39:10.000Z</time>
      </trkpt>
      <trkpt lat="45.85271" lon="4.74819">
        <ele>322.20807</ele>
        <time>2023-08-05T12:39:11.000Z</time>
      </trkpt>
      <trkpt lat="45.85275" lon="4.7482">
        <ele>322.60226</ele>
        <time>2023-08-05T12:39:12.000Z</time>
      </trkpt>
      <trkpt lat="45.8528" lon="4.74822">
        <ele>322.94632</ele>
        <time>2023-08-05T12:39:13.000Z</time>
      </trkpt>
      <trkpt lat="45.85284" lon="4.74824">
        <ele>323.341</ele>
        <time>2023-08-05T12:39:14.000Z</time>
      </trkpt>
      <trkpt lat="45.85289" lon="4.74827">
        <ele>323.73816</ele>
        <time>2023-08-05T12:39:15.000Z</time>
      </trkpt>
      <trkpt lat="45.85292" lon="4.74829">
        <ele>324.18195</ele>
        <time>2023-08-05T12:39:16.000Z</time>
      </trkpt>
      <trkpt lat="45.85297" lon="4.74834">
        <ele>324.51953</ele>
        <time>2023-08-05T12:39:17.000Z</time>
      </trkpt>
      <trkpt lat="45.85301" lon="4.74836">
        <ele>324.79257</ele>
        <time>2023-08-05T12:39:18.000Z</time>
      </trkpt>
      <trkpt lat="45.85305" lon="4.74841">
        <ele>325.02179</ele>
        <time>2023-08-05T12:39:19.000Z</time>
      </trkpt>
      <trkpt lat="45.85309" lon="4.74845">
        <ele>325.24402</ele>
        <time>2023-08-05T12:39:20.000Z</time>
      </trkpt>
      <trkpt lat="45.85312" lon="4.7485">
        <ele>325.44446</ele>
        <time>2023-08-05T12:39:21.000Z</time>
      </trkpt>
      <trkpt lat="45.85315" lon="4.74853">
        <ele>325.73462</ele>
        <time>2023-08-05T12:39:22.000Z</time>
      </trkpt>
      <trkpt lat="45.85318" lon="4.74856">
        <ele>326.06952</ele>
        <time>2023-08-05T12:39:23.000Z</time>
      </trkpt>
      <trkpt lat="45.85321" lon="4.7486">
        <ele>326.41357</ele>
        <time>2023-08-05T12:39:24.000Z</time>
      </trkpt>
      <trkpt lat="45.85323" lon="4.74864">
        <ele>326.72955</ele>
        <time>2023-08-05T12:39:25.000Z</time>
      </trkpt>
      <trkpt lat="45.85327" lon="4.74868">
        <ele>327.02924</ele>
        <time>2023-08-05T12:39:26.000Z</time>
      </trkpt>
      <trkpt lat="45.8533" lon="4.74872">
        <ele>327.35272</ele>
        <time>2023-08-05T12:39:27.000Z</time>
      </trkpt>
      <trkpt lat="45.85334" lon="4.74876">
        <ele>327.70245</ele>
        <time>2023-08-05T12:39:28.000Z</time>
      </trkpt>
      <trkpt lat="45.85338" lon="4.7488">
        <ele>328.10602</ele>
        <time>2023-08-05T12:39:29.000Z</time>
      </trkpt>
      <trkpt lat="45.8534" lon="4.74883">
        <ele>328.46875</ele>
        <time>2023-08-05T12:39:30.000Z</time>
      </trkpt>
      <trkpt lat="45.85344" lon="4.74887">
        <ele>328.93521</ele>
        <time>2023-08-05T12:39:31.000Z</time>
      </trkpt>
      <trkpt lat="45.85347" lon="4.74891">
        <ele>329.3316</ele>
        <time>2023-08-05T12:39:32.000Z</time>
      </trkpt>
      <trkpt lat="45.8535" lon="4.74895">
        <ele>329.7933</ele>
        <time>2023-08-05T12:39:33.000Z</time>
      </trkpt>
      <trkpt lat="45.85353" lon="4.74899">
        <ele>330.22266</ele>
        <time>2023-08-05T12:39:34.000Z</time>
      </trkpt>
      <trkpt lat="45.85356" lon="4.74903">
        <ele>330.69717</ele>
        <time>2023-08-05T12:39:35.000Z</time>
      </trkpt>
      <trkpt lat="45.8536" lon="4.74908">
        <ele>331.11792</ele>
        <time>2023-08-05T12:39:36.000Z</time>
      </trkpt>
      <trkpt lat="45.85363" lon="4.74911">
        <ele>331.64758</ele>
        <time>2023-08-05T12:39:37.000Z</time>
      </trkpt>
      <trkpt lat="45.85366" lon="4.74915">
        <ele>332.14151</ele>
        <time>2023-08-05T12:39:38.000Z</time>
      </trkpt>
      <trkpt lat="45.85369" lon="4.74918">
        <ele>332.69031</ele>
        <time>2023-08-05T12:39:39.000Z</time>
      </trkpt>
      <trkpt lat="45.85372" lon="4.74922">
        <ele>333.21869</ele>
        <time>2023-08-05T12:39:40.000Z</time>
      </trkpt>
      <trkpt lat="45.85374" lon="4.74925">
        <ele>333.74109</ele>
        <time>2023-08-05T12:39:41.000Z</time>
      </trkpt>
      <trkpt lat="45.85377" lon="4.74929">
        <ele>334.22736</ele>
        <time>2023-08-05T12:39:42.000Z</time>
      </trkpt>
      <trkpt lat="45.8538" lon="4.74933">
        <ele>334.66608</ele>
        <time>2023-08-05T12:39:43.000Z</time>
      </trkpt>
      <trkpt lat="45.85382" lon="4.74937">
        <ele>335.42422</ele>
        <time>2023-08-05T12:39:44.000Z</time>
      </trkpt>
      <trkpt lat="45.85384" lon="4.7494">
        <ele>336.16449</ele>
        <time>2023-08-05T12:39:45.000Z</time>
      </trkpt>
      <trkpt lat="45.85386" lon="4.74944">
        <ele>336.87939</ele>
        <time>2023-08-05T12:39:46.000Z</time>
      </trkpt>
      <trkpt lat="45.85387" lon="4.74947">
        <ele>337.55801</ele>
        <time>2023-08-05T12:39:47.000Z</time>
      </trkpt>
      <trkpt lat="45.85389" lon="4.74951">
        <ele>337.90961</ele>
        <time>2023-08-05T12:39:48.000Z</time>
      </trkpt>
      <trkpt lat="45.8539" lon="4.74954">
        <ele>338.24896</ele>
        <time>2023-08-05T12:39:49.000Z</time>
      </trkpt>
      <trkpt lat="45.85391" lon="4.74958">
        <ele>338.61963</ele>
        <time>2023-08-05T12:39:50.000Z</time>
      </trkpt>
      <trkpt lat="45.85391" lon="4.74962">
        <ele>338.96588</ele>
        <time>2023-08-05T12:39:51.000Z</time>
      </trkpt>
      <trkpt lat="45.8539" lon="4.74966">
        <ele>339.28436</ele>
        <time>2023-08-05T12:39:52.000Z</time>
      </trkpt>
      <trkpt lat="45.8539" lon="4.7497">
        <ele>339.57269</ele>
        <time>2023-08-05T12:39:53.000Z</time>
      </trkpt>
      <trkpt lat="45.85389" lon="4.74975">
        <ele>339.81607</ele>
        <time>2023-08-05T12:39:54.000Z</time>
      </trkpt>
      <trkpt lat="45.85388" lon="4.74979">
        <ele>340.01331</ele>
        <time>2023-08-05T12:39:55.000Z</time>
      </trkpt>
      <trkpt lat="45.85386" lon="4.74982">
        <ele>340.20599</ele>
        <time>2023-08-05T12:39:56.000Z</time>
      </trkpt>
      <trkpt lat="45.85385" lon="4.74986">
        <ele>340.30917</ele>
        <time>2023-08-05T12:39:57.000Z</time>
      </trkpt>
      <trkpt lat="45.85383" lon="4.7499">
        <ele>340.42227</ele>
        <time>2023-08-05T12:39:58.000Z</time>
      </trkpt>
      <trkpt lat="45.85382" lon="4.74994">
        <ele>340.53479</ele>
        <time>2023-08-05T12:39:59.000Z</time>
      </trkpt>
      <trkpt lat="45.85381" lon="4.74999">
        <ele>340.67218</ele>
        <time>2023-08-05T12:40:00.000Z</time>
      </trkpt>
      <trkpt lat="45.8538" lon="4.75003">
        <ele>340.79224</ele>
        <time>2023-08-05T12:40:01.000Z</time>
      </trkpt>
      <trkpt lat="45.8538" lon="4.75008">
        <ele>340.85162</ele>
        <time>2023-08-05T12:40:02.000Z</time>
      </trkpt>
      <trkpt lat="45.85379" lon="4.75012">
        <ele>340.9024</ele>
        <time>2023-08-05T12:40:03.000Z</time>
      </trkpt>
      <trkpt lat="45.85378" lon="4.75016">
        <ele>340.62592</ele>
        <time>2023-08-05T12:40:04.000Z</time>
      </trkpt>
      <trkpt lat="45.85377" lon="4.7502">
        <ele>340.36212</ele>
        <time>2023-08-05T12:40:05.000Z</time>
      </trkpt>
      <trkpt lat="45.85376" lon="4.75024">
        <ele>340.11465</ele>
        <time>2023-08-05T12:40:06.000Z</time>
      </trkpt>
      <trkpt lat="45.85375" lon="4.75029">
        <ele>339.8577</ele>
        <time>2023-08-05T12:40:07.000Z</time>
      </trkpt>
      <trkpt lat="45.85374" lon="4.75033">
        <ele>339.89038</ele>
        <time>2023-08-05T12:40:08.000Z</time>
      </trkpt>
      <trkpt lat="45.85373" lon="4.75037">
        <ele>339.89426</ele>
        <time>2023-08-05T12:40:09.000Z</time>
      </trkpt>
      <trkpt lat="45.85372" lon="4.75041">
        <ele>339.89429</ele>
        <time>2023-08-05T12:40:10.000Z</time>
      </trkpt>
      <trkpt lat="45.85371" lon="4.75045">
        <ele>339.90509</ele>
        <time>2023-08-05T12:40:11.000Z</time>
      </trkpt>
      <trkpt lat="45.85369" lon="4.75049">
        <ele>339.92368</ele>
        <time>2023-08-05T12:40:12.000Z</time>
      </trkpt>
      <trkpt lat="45.85368" lon="4.75054">
        <ele>339.91858</ele>
        <time>2023-08-05T12:40:13.000Z</time>
      </trkpt>
      <trkpt lat="45.85368" lon="4.75058">
        <ele>339.96042</ele>
        <time>2023-08-05T12:40:14.000Z</time>
      </trkpt>
      <trkpt lat="45.85367" lon="4.75063">
        <ele>340.0036</ele>
        <time>2023-08-05T12:40:15.000Z</time>
      </trkpt>
      <trkpt lat="45.85366" lon="4.75067">
        <ele>340.05801</ele>
        <time>2023-08-05T12:40:16.000Z</time>
      </trkpt>
      <trkpt lat="45.85365" lon="4.75071">
        <ele>340.14087</ele>
        <time>2023-08-05T12:40:17.000Z</time>
      </trkpt>
      <trkpt lat="45.85364" lon="4.75076">
        <ele>340.2269</ele>
        <time>2023-08-05T12:40:18.000Z</time>
      </trkpt>
      <trkpt lat="45.85362" lon="4.7508">
        <ele>340.319</ele>
        <time>2023-08-05T12:40:19.000Z</time>
      </trkpt>
      <trkpt lat="45.85361" lon="4.75084">
        <ele>340.3934</ele>
        <time>2023-08-05T12:40:20.000Z</time>
      </trkpt>
      <trkpt lat="45.8536" lon="4.75088">
        <ele>340.50571</ele>
        <time>2023-08-05T12:40:21.000Z</time>
      </trkpt>
      <trkpt lat="45.85358" lon="4.75092">
        <ele>340.63882</ele>
        <time>2023-08-05T12:40:22.000Z</time>
      </trkpt>
      <trkpt lat="45.85356" lon="4.75096">
        <ele>340.76871</ele>
        <time>2023-08-05T12:40:23.000Z</time>
      </trkpt>
      <trkpt lat="45.85354" lon="4.751">
        <ele>340.88657</ele>
        <time>2023-08-05T12:40:24.000Z</time>
      </trkpt>
      <trkpt lat="45.85353" lon="4.75104">
        <ele>340.99823</ele>
        <time>2023-08-05T12:40:25.000Z</time>
      </trkpt>
      <trkpt lat="45.85351" lon="4.75108">
        <ele>341.1123</ele>
        <time>2023-08-05T12:40:26.000Z</time>
      </trkpt>
      <trkpt lat="45.85349" lon="4.75112">
        <ele>341.23123</ele>
        <time>2023-08-05T12:40:27.000Z</time>
      </trkpt>
      <trkpt lat="45.85347" lon="4.75115">
        <ele>341.367</ele>
        <time>2023-08-05T12:40:28.000Z</time>
      </trkpt>
      <trkpt lat="45.85345" lon="4.75119">
        <ele>341.50751</ele>
        <time>2023-08-05T12:40:29.000Z</time>
      </trkpt>
      <trkpt lat="45.85343" lon="4.75123">
        <ele>341.65375</ele>
        <time>2023-08-05T12:40:30.000Z</time>
      </trkpt>
      <trkpt lat="45.85341" lon="4.75127">
        <ele>341.79144</ele>
        <time>2023-08-05T12:40:31.000Z</time>
      </trkpt>
      <trkpt lat="45.85339" lon="4.7513">
        <ele>341.92062</ele>
        <time>2023-08-05T12:40:32.000Z</time>
      </trkpt>
      <trkpt lat="45.85337" lon="4.75134">
        <ele>342.05576</ele>
        <time>2023-08-05T12:40:33.000Z</time>
      </trkpt>
      <trkpt lat="45.85335" lon="4.75138">
        <ele>342.1293</ele>
        <time>2023-08-05T12:40:34.000Z</time>
      </trkpt>
      <trkpt lat="45.85333" lon="4.75141">
        <ele>342.21271</ele>
        <time>2023-08-05T12:40:35.000Z</time>
      </trkpt>
      <trkpt lat="45.85331" lon="4.75145">
        <ele>342.30246</ele>
        <time>2023-08-05T12:40:36.000Z</time>
      </trkpt>
      <trkpt lat="45.85329" lon="4.75149">
        <ele>342.37735</ele>
        <time>2023-08-05T12:40:37.000Z</time>
      </trkpt>
      <trkpt lat="45.85327" lon="4.75153">
        <ele>342.42383</ele>
        <time>2023-08-05T12:40:38.000Z</time>
      </trkpt>
      <trkpt lat="45.85325" lon="4.75157">
        <ele>342.45929</ele>
        <time>2023-08-05T12:40:39.000Z</time>
      </trkpt>
      <trkpt lat="45.85323" lon="4.75161">
        <ele>342.5079</ele>
        <time>2023-08-05T12:40:40.000Z</time>
      </trkpt>
      <trkpt lat="45.8532" lon="4.75165">
        <ele>342.59302</ele>
        <time>2023-08-05T12:40:41.000Z</time>
      </trkpt>
      <trkpt lat="45.85318" lon="4.75169">
        <ele>342.65607</ele>
        <time>2023-08-05T12:40:42.000Z</time>
      </trkpt>
      <trkpt lat="45.85316" lon="4.75173">
        <ele>342.73557</ele>
        <time>2023-08-05T12:40:43.000Z</time>
      </trkpt>
      <trkpt lat="45.85314" lon="4.75177">
        <ele>342.82825</ele>
        <time>2023-08-05T12:40:44.000Z</time>
      </trkpt>
      <trkpt lat="45.85312" lon="4.75181">
        <ele>342.91971</ele>
        <time>2023-08-05T12:40:45.000Z</time>
      </trkpt>
      <trkpt lat="45.8531" lon="4.75185">
        <ele>343.00827</ele>
        <time>2023-08-05T12:40:46.000Z</time>
      </trkpt>
      <trkpt lat="45.85308" lon="4.75189">
        <ele>343.0976</ele>
        <time>2023-08-05T12:40:47.000Z</time>
      </trkpt>
      <trkpt lat="45.85307" lon="4.75193">
        <ele>343.19415</ele>
        <time>2023-08-05T12:40:48.000Z</time>
      </trkpt>
      <trkpt lat="45.85305" lon="4.75197">
        <ele>343.28583</ele>
        <time>2023-08-05T12:40:49.000Z</time>
      </trkpt>
      <trkpt lat="45.85303" lon="4.75201">
        <ele>343.37949</ele>
        <time>2023-08-05T12:40:50.000Z</time>
      </trkpt>
      <trkpt lat="45.85301" lon="4.75204">
        <ele>343.4787</ele>
        <time>2023-08-05T12:40:51.000Z</time>
      </trkpt>
      <trkpt lat="45.85299" lon="4.75208">
        <ele>343.55914</ele>
        <time>2023-08-05T12:40:52.000Z</time>
      </trkpt>
      <trkpt lat="45.85297" lon="4.75212">
        <ele>343.63922</ele>
        <time>2023-08-05T12:40:53.000Z</time>
      </trkpt>
      <trkpt lat="45.85295" lon="4.75216">
        <ele>343.73172</ele>
        <time>2023-08-05T12:40:54.000Z</time>
      </trkpt>
      <trkpt lat="45.85294" lon="4.7522">
        <ele>343.82495</ele>
        <time>2023-08-05T12:40:55.000Z</time>
      </trkpt>
      <trkpt lat="45.85292" lon="4.75224">
        <ele>343.92862</ele>
        <time>2023-08-05T12:40:56.000Z</time>
      </trkpt>
      <trkpt lat="45.85291" lon="4.75228">
        <ele>344.02582</ele>
        <time>2023-08-05T12:40:57.000Z</time>
      </trkpt>
      <trkpt lat="45.85289" lon="4.75233">
        <ele>344.15094</ele>
        <time>2023-08-05T12:40:58.000Z</time>
      </trkpt>
      <trkpt lat="45.85287" lon="4.75237">
        <ele>344.36481</ele>
        <time>2023-08-05T12:40:59.000Z</time>
      </trkpt>
      <trkpt lat="45.85285" lon="4.7524">
        <ele>344.54443</ele>
        <time>2023-08-05T12:41:00.000Z</time>
      </trkpt>
      <trkpt lat="45.85283" lon="4.75244">
        <ele>344.60587</ele>
        <time>2023-08-05T12:41:01.000Z</time>
      </trkpt>
      <trkpt lat="45.85281" lon="4.75248">
        <ele>344.77179</ele>
        <time>2023-08-05T12:41:02.000Z</time>
      </trkpt>
      <trkpt lat="45.85279" lon="4.75252">
        <ele>344.94498</ele>
        <time>2023-08-05T12:41:03.000Z</time>
      </trkpt>
      <trkpt lat="45.85278" lon="4.75257">
        <ele>345.14236</ele>
        <time>2023-08-05T12:41:04.000Z</time>
      </trkpt>
      <trkpt lat="45.85277" lon="4.75262">
        <ele>345.35507</ele>
        <time>2023-08-05T12:41:05.000Z</time>
      </trkpt>
      <trkpt lat="45.85275" lon="4.75266">
        <ele>345.5343</ele>
        <time>2023-08-05T12:41:06.000Z</time>
      </trkpt>
      <trkpt lat="45.85274" lon="4.7527">
        <ele>345.71185</ele>
        <time>2023-08-05T12:41:07.000Z</time>
      </trkpt>
      <trkpt lat="45.85273" lon="4.75275">
        <ele>345.89005</ele>
        <time>2023-08-05T12:41:08.000Z</time>
      </trkpt>
      <trkpt lat="45.85272" lon="4.75279">
        <ele>346.08875</ele>
        <time>2023-08-05T12:41:09.000Z</time>
      </trkpt>
      <trkpt lat="45.8527" lon="4.75282">
        <ele>346.28119</ele>
        <time>2023-08-05T12:41:10.000Z</time>
      </trkpt>
      <trkpt lat="45.85269" lon="4.75286">
        <ele>346.48248</ele>
        <time>2023-08-05T12:41:11.000Z</time>
      </trkpt>
      <trkpt lat="45.85267" lon="4.7529">
        <ele>346.72083</ele>
        <time>2023-08-05T12:41:12.000Z</time>
      </trkpt>
      <trkpt lat="45.85266" lon="4.75293">
        <ele>346.98886</ele>
        <time>2023-08-05T12:41:13.000Z</time>
      </trkpt>
      <trkpt lat="45.85264" lon="4.75297">
        <ele>347.26398</ele>
        <time>2023-08-05T12:41:14.000Z</time>
      </trkpt>
      <trkpt lat="45.85263" lon="4.75301">
        <ele>347.5574</ele>
        <time>2023-08-05T12:41:15.000Z</time>
      </trkpt>
      <trkpt lat="45.85261" lon="4.75304">
        <ele>347.83163</ele>
        <time>2023-08-05T12:41:16.000Z</time>
      </trkpt>
      <trkpt lat="45.8526" lon="4.75308">
        <ele>348.11804</ele>
        <time>2023-08-05T12:41:17.000Z</time>
      </trkpt>
      <trkpt lat="45.85259" lon="4.75313">
        <ele>348.40186</ele>
        <time>2023-08-05T12:41:18.000Z</time>
      </trkpt>
      <trkpt lat="45.85258" lon="4.75317">
        <ele>348.60629</ele>
        <time>2023-08-05T12:41:19.000Z</time>
      </trkpt>
      <trkpt lat="45.85257" lon="4.75322">
        <ele>348.84473</ele>
        <time>2023-08-05T12:41:20.000Z</time>
      </trkpt>
      <trkpt lat="45.85256" lon="4.75326">
        <ele>349.15268</ele>
        <time>2023-08-05T12:41:21.000Z</time>
      </trkpt>
      <trkpt lat="45.85255" lon="4.7533">
        <ele>349.38071</ele>
        <time>2023-08-05T12:41:22.000Z</time>
      </trkpt>
      <trkpt lat="45.85254" lon="4.75334">
        <ele>349.58817</ele>
        <time>2023-08-05T12:41:23.000Z</time>
      </trkpt>
      <trkpt lat="45.85252" lon="4.75339">
        <ele>349.74792</ele>
        <time>2023-08-05T12:41:24.000Z</time>
      </trkpt>
      <trkpt lat="45.85251" lon="4.75343">
        <ele>349.90094</ele>
        <time>2023-08-05T12:41:25.000Z</time>
      </trkpt>
      <trkpt lat="45.8525" lon="4.75347">
        <ele>350.06265</ele>
        <time>2023-08-05T12:41:26.000Z</time>
      </trkpt>
      <trkpt lat="45.85249" lon="4.75351">
        <ele>350.24341</ele>
        <time>2023-08-05T12:41:27.000Z</time>
      </trkpt>
      <trkpt lat="45.85248" lon="4.75355">
        <ele>350.43924</ele>
        <time>2023-08-05T12:41:28.000Z</time>
      </trkpt>
      <trkpt lat="45.85248" lon="4.75359">
        <ele>350.60431</ele>
        <time>2023-08-05T12:41:29.000Z</time>
      </trkpt>
      <trkpt lat="45.85247" lon="4.75363">
        <ele>350.76312</ele>
        <time>2023-08-05T12:41:30.000Z</time>
      </trkpt>
      <trkpt lat="45.85245" lon="4.75367">
        <ele>350.89288</ele>
        <time>2023-08-05T12:41:31.000Z</time>
      </trkpt>
      <trkpt lat="45.85244" lon="4.75371">
        <ele>351.02698</ele>
        <time>2023-08-05T12:41:32.000Z</time>
      </trkpt>
      <trkpt lat="45.85243" lon="4.75376">
        <ele>350.96674</ele>
        <time>2023-08-05T12:41:33.000Z</time>
      </trkpt>
      <trkpt lat="45.85242" lon="4.7538">
        <ele>351.06857</ele>
        <time>2023-08-05T12:41:34.000Z</time>
      </trkpt>
      <trkpt lat="45.85241" lon="4.75385">
        <ele>351.17676</ele>
        <time>2023-08-05T12:41:35.000Z</time>
      </trkpt>
      <trkpt lat="45.8524" lon="4.75389">
        <ele>351.3024</ele>
        <time>2023-08-05T12:41:36.000Z</time>
      </trkpt>
      <trkpt lat="45.85238" lon="4.75394">
        <ele>351.45502</ele>
        <time>2023-08-05T12:41:37.000Z</time>
      </trkpt>
      <trkpt lat="45.85237" lon="4.75398">
        <ele>351.6055</ele>
        <time>2023-08-05T12:41:38.000Z</time>
      </trkpt>
      <trkpt lat="45.85236" lon="4.75402">
        <ele>351.76627</ele>
        <time>2023-08-05T12:41:39.000Z</time>
      </trkpt>
      <trkpt lat="45.85235" lon="4.75407">
        <ele>351.92316</ele>
        <time>2023-08-05T12:41:40.000Z</time>
      </trkpt>
      <trkpt lat="45.85234" lon="4.75411">
        <ele>352.07568</ele>
        <time>2023-08-05T12:41:41.000Z</time>
      </trkpt>
      <trkpt lat="45.85233" lon="4.75416">
        <ele>352.22736</ele>
        <time>2023-08-05T12:41:42.000Z</time>
      </trkpt>
      <trkpt lat="45.85231" lon="4.7542">
        <ele>352.38419</ele>
        <time>2023-08-05T12:41:43.000Z</time>
      </trkpt>
      <trkpt lat="45.85229" lon="4.75424">
        <ele>352.573</ele>
        <time>2023-08-05T12:41:44.000Z</time>
      </trkpt>
      <trkpt lat="45.85227" lon="4.75428">
        <ele>352.76035</ele>
        <time>2023-08-05T12:41:45.000Z</time>
      </trkpt>
      <trkpt lat="45.85225" lon="4.75432">
        <ele>352.9512</ele>
        <time>2023-08-05T12:41:46.000Z</time>
      </trkpt>
      <trkpt lat="45.85223" lon="4.75436">
        <ele>353.14923</ele>
        <time>2023-08-05T12:41:47.000Z</time>
      </trkpt>
      <trkpt lat="45.85221" lon="4.7544">
        <ele>353.33722</ele>
        <time>2023-08-05T12:41:48.000Z</time>
      </trkpt>
      <trkpt lat="45.85219" lon="4.75444">
        <ele>353.48834</ele>
        <time>2023-08-05T12:41:49.000Z</time>
      </trkpt>
      <trkpt lat="45.85217" lon="4.75448">
        <ele>353.65704</ele>
        <time>2023-08-05T12:41:50.000Z</time>
      </trkpt>
      <trkpt lat="45.85215" lon="4.75451">
        <ele>353.83209</ele>
        <time>2023-08-05T12:41:51.000Z</time>
      </trkpt>
      <trkpt lat="45.85213" lon="4.75455">
        <ele>354.00958</ele>
        <time>2023-08-05T12:41:52.000Z</time>
      </trkpt>
      <trkpt lat="45.8521" lon="4.75458">
        <ele>354.35785</ele>
        <time>2023-08-05T12:41:53.000Z</time>
      </trkpt>
      <trkpt lat="45.85208" lon="4.75462">
        <ele>354.55829</ele>
        <time>2023-08-05T12:41:54.000Z</time>
      </trkpt>
      <trkpt lat="45.85206" lon="4.75465">
        <ele>354.73517</ele>
        <time>2023-08-05T12:41:55.000Z</time>
      </trkpt>
      <trkpt lat="45.85204" lon="4.75469">
        <ele>354.90552</ele>
        <time>2023-08-05T12:41:56.000Z</time>
      </trkpt>
      <trkpt lat="45.85202" lon="4.75473">
        <ele>355.04712</ele>
        <time>2023-08-05T12:41:57.000Z</time>
      </trkpt>
      <trkpt lat="45.852" lon="4.75477">
        <ele>355.20093</ele>
        <time>2023-08-05T12:41:58.000Z</time>
      </trkpt>
      <trkpt lat="45.85198" lon="4.7548">
        <ele>355.3327</ele>
        <time>2023-08-05T12:41:59.000Z</time>
      </trkpt>
      <trkpt lat="45.85197" lon="4.75484">
        <ele>355.46338</ele>
        <time>2023-08-05T12:42:00.000Z</time>
      </trkpt>
      <trkpt lat="45.85195" lon="4.75488">
        <ele>355.59955</ele>
        <time>2023-08-05T12:42:01.000Z</time>
      </trkpt>
      <trkpt lat="45.85194" lon="4.75493">
        <ele>355.71918</ele>
        <time>2023-08-05T12:42:02.000Z</time>
      </trkpt>
      <trkpt lat="45.85194" lon="4.75497">
        <ele>355.73047</ele>
        <time>2023-08-05T12:42:03.000Z</time>
      </trkpt>
      <trkpt lat="45.85194" lon="4.75502">
        <ele>355.72406</ele>
        <time>2023-08-05T12:42:04.000Z</time>
      </trkpt>
      <trkpt lat="45.85194" lon="4.75507">
        <ele>355.71619</ele>
        <time>2023-08-05T12:42:05.000Z</time>
      </trkpt>
      <trkpt lat="45.85195" lon="4.75512">
        <ele>355.63641</ele>
        <time>2023-08-05T12:42:06.000Z</time>
      </trkpt>
      <trkpt lat="45.85195" lon="4.75516">
        <ele>355.7619</ele>
        <time>2023-08-05T12:42:07.000Z</time>
      </trkpt>
      <trkpt lat="45.85196" lon="4.75521">
        <ele>355.8465</ele>
        <time>2023-08-05T12:42:08.000Z</time>
      </trkpt>
      <trkpt lat="45.85197" lon="4.75526">
        <ele>355.97672</ele>
        <time>2023-08-05T12:42:09.000Z</time>
      </trkpt>
      <trkpt lat="45.85198" lon="4.7553">
        <ele>356.10159</ele>
        <time>2023-08-05T12:42:10.000Z</time>
      </trkpt>
      <trkpt lat="45.85199" lon="4.75535">
        <ele>356.23874</ele>
        <time>2023-08-05T12:42:11.000Z</time>
      </trkpt>
      <trkpt lat="45.85199" lon="4.75539">
        <ele>356.35965</ele>
        <time>2023-08-05T12:42:12.000Z</time>
      </trkpt>
      <trkpt lat="45.852" lon="4.75544">
        <ele>356.50037</ele>
        <time>2023-08-05T12:42:13.000Z</time>
      </trkpt>
      <trkpt lat="45.85201" lon="4.75549">
        <ele>356.62881</ele>
        <time>2023-08-05T12:42:14.000Z</time>
      </trkpt>
      <trkpt lat="45.85202" lon="4.75554">
        <ele>356.7514</ele>
        <time>2023-08-05T12:42:15.000Z</time>
      </trkpt>
      <trkpt lat="45.85203" lon="4.75559">
        <ele>356.86371</ele>
        <time>2023-08-05T12:42:16.000Z</time>
      </trkpt>
      <trkpt lat="45.85203" lon="4.75563">
        <ele>356.9848</ele>
        <time>2023-08-05T12:42:17.000Z</time>
      </trkpt>
      <trkpt lat="45.85204" lon="4.75568">
        <ele>357.09332</ele>
        <time>2023-08-05T12:42:18.000Z</time>
      </trkpt>
      <trkpt lat="45.85204" lon="4.75573">
        <ele>357.20462</ele>
        <time>2023-08-05T12:42:19.000Z</time>
      </trkpt>
      <trkpt lat="45.85204" lon="4.75577">
        <ele>357.3259</ele>
        <time>2023-08-05T12:42:20.000Z</time>
      </trkpt>
      <trkpt lat="45.85205" lon="4.75582">
        <ele>357.44217</ele>
        <time>2023-08-05T12:42:21.000Z</time>
      </trkpt>
      <trkpt lat="45.85206" lon="4.75587">
        <ele>357.56781</ele>
        <time>2023-08-05T12:42:22.000Z</time>
      </trkpt>
      <trkpt lat="45.85206" lon="4.75591">
        <ele>357.82135</ele>
        <time>2023-08-05T12:42:23.000Z</time>
      </trkpt>
      <trkpt lat="45.85206" lon="4.75596">
        <ele>358.07574</ele>
        <time>2023-08-05T12:42:24.000Z</time>
      </trkpt>
      <trkpt lat="45.85206" lon="4.756">
        <ele>358.3429</ele>
        <time>2023-08-05T12:42:25.000Z</time>
      </trkpt>
      <trkpt lat="45.85206" lon="4.75604">
        <ele>358.70087</ele>
        <time>2023-08-05T12:42:26.000Z</time>
      </trkpt>
      <trkpt lat="45.85207" lon="4.75609">
        <ele>358.82123</ele>
        <time>2023-08-05T12:42:27.000Z</time>
      </trkpt>
      <trkpt lat="45.85207" lon="4.75613">
        <ele>358.97253</ele>
        <time>2023-08-05T12:42:28.000Z</time>
      </trkpt>
      <trkpt lat="45.85207" lon="4.75618">
        <ele>359.11786</ele>
        <time>2023-08-05T12:42:29.000Z</time>
      </trkpt>
      <trkpt lat="45.85207" lon="4.75622">
        <ele>359.24969</ele>
        <time>2023-08-05T12:42:30.000Z</time>
      </trkpt>
      <trkpt lat="45.85208" lon="4.75627">
        <ele>359.39304</ele>
        <time>2023-08-05T12:42:31.000Z</time>
      </trkpt>
      <trkpt lat="45.85208" lon="4.75631">
        <ele>359.52618</ele>
        <time>2023-08-05T12:42:32.000Z</time>
      </trkpt>
      <trkpt lat="45.85208" lon="4.75636">
        <ele>359.52988</ele>
        <time>2023-08-05T12:42:33.000Z</time>
      </trkpt>
      <trkpt lat="45.85208" lon="4.7564">
        <ele>359.43408</ele>
        <time>2023-08-05T12:42:34.000Z</time>
      </trkpt>
      <trkpt lat="45.85209" lon="4.75645">
        <ele>359.61496</ele>
        <time>2023-08-05T12:42:35.000Z</time>
      </trkpt>
      <trkpt lat="45.85209" lon="4.75649">
        <ele>359.73761</ele>
        <time>2023-08-05T12:42:36.000Z</time>
      </trkpt>
      <trkpt lat="45.85209" lon="4.75654">
        <ele>359.86734</ele>
        <time>2023-08-05T12:42:37.000Z</time>
      </trkpt>
      <trkpt lat="45.8521" lon="4.75658">
        <ele>360.01474</ele>
        <time>2023-08-05T12:42:38.000Z</time>
      </trkpt>
      <trkpt lat="45.8521" lon="4.75663">
        <ele>360.16205</ele>
        <time>2023-08-05T12:42:39.000Z</time>
      </trkpt>
      <trkpt lat="45.85211" lon="4.75667">
        <ele>360.29892</ele>
        <time>2023-08-05T12:42:40.000Z</time>
      </trkpt>
      <trkpt lat="45.85211" lon="4.75672">
        <ele>360.4263</ele>
        <time>2023-08-05T12:42:41.000Z</time>
      </trkpt>
      <trkpt lat="45.85211" lon="4.75676">
        <ele>360.53912</ele>
        <time>2023-08-05T12:42:42.000Z</time>
      </trkpt>
      <trkpt lat="45.85211" lon="4.7568">
        <ele>360.49283</ele>
        <time>2023-08-05T12:42:43.000Z</time>
      </trkpt>
      <trkpt lat="45.85212" lon="4.75685">
        <ele>360.35297</ele>
        <time>2023-08-05T12:42:44.000Z</time>
      </trkpt>
      <trkpt lat="45.85213" lon="4.7569">
        <ele>360.20413</ele>
        <time>2023-08-05T12:42:45.000Z</time>
      </trkpt>
      <trkpt lat="45.85214" lon="4.75694">
        <ele>360.05078</ele>
        <time>2023-08-05T12:42:46.000Z</time>
      </trkpt>
      <trkpt lat="45.85215" lon="4.75699">
        <ele>360.20322</ele>
        <time>2023-08-05T12:42:47.000Z</time>
      </trkpt>
      <trkpt lat="45.85216" lon="4.75703">
        <ele>360.31317</ele>
        <time>2023-08-05T12:42:48.000Z</time>
      </trkpt>
      <trkpt lat="45.85217" lon="4.75707">
        <ele>360.46075</ele>
        <time>2023-08-05T12:42:49.000Z</time>
      </trkpt>
      <trkpt lat="45.85219" lon="4.75712">
        <ele>360.64108</ele>
        <time>2023-08-05T12:42:50.000Z</time>
      </trkpt>
      <trkpt lat="45.85221" lon="4.75716">
        <ele>360.79712</ele>
        <time>2023-08-05T12:42:51.000Z</time>
      </trkpt>
      <trkpt lat="45.85222" lon="4.75721">
        <ele>360.97906</ele>
        <time>2023-08-05T12:42:52.000Z</time>
      </trkpt>
      <trkpt lat="45.85224" lon="4.75725">
        <ele>361.27353</ele>
        <time>2023-08-05T12:42:53.000Z</time>
      </trkpt>
      <trkpt lat="45.85226" lon="4.75729">
        <ele>361.67081</ele>
        <time>2023-08-05T12:42:54.000Z</time>
      </trkpt>
      <trkpt lat="45.85228" lon="4.75733">
        <ele>361.78976</ele>
        <time>2023-08-05T12:42:55.000Z</time>
      </trkpt>
      <trkpt lat="45.8523" lon="4.75736">
        <ele>361.95816</ele>
        <time>2023-08-05T12:42:56.000Z</time>
      </trkpt>
      <trkpt lat="45.85233" lon="4.75739">
        <ele>362.12216</ele>
        <time>2023-08-05T12:42:57.000Z</time>
      </trkpt>
      <trkpt lat="45.85236" lon="4.75742">
        <ele>362.27203</ele>
        <time>2023-08-05T12:42:58.000Z</time>
      </trkpt>
      <trkpt lat="45.85238" lon="4.75745">
        <ele>362.42542</ele>
        <time>2023-08-05T12:42:59.000Z</time>
      </trkpt>
      <trkpt lat="45.85241" lon="4.75747">
        <ele>362.56958</ele>
        <time>2023-08-05T12:43:00.000Z</time>
      </trkpt>
      <trkpt lat="45.85243" lon="4.75751">
        <ele>362.71265</ele>
        <time>2023-08-05T12:43:01.000Z</time>
      </trkpt>
      <trkpt lat="45.85246" lon="4.75754">
        <ele>362.86273</ele>
        <time>2023-08-05T12:43:02.000Z</time>
      </trkpt>
      <trkpt lat="45.85248" lon="4.75757">
        <ele>363.15359</ele>
        <time>2023-08-05T12:43:03.000Z</time>
      </trkpt>
      <trkpt lat="45.85251" lon="4.7576">
        <ele>363.52808</ele>
        <time>2023-08-05T12:43:04.000Z</time>
      </trkpt>
      <trkpt lat="45.85254" lon="4.75762">
        <ele>363.89008</ele>
        <time>2023-08-05T12:43:05.000Z</time>
      </trkpt>
      <trkpt lat="45.85256" lon="4.75765">
        <ele>364.24319</ele>
        <time>2023-08-05T12:43:06.000Z</time>
      </trkpt>
      <trkpt lat="45.85259" lon="4.75768">
        <ele>364.12823</ele>
        <time>2023-08-05T12:43:07.000Z</time>
      </trkpt>
      <trkpt lat="45.85262" lon="4.75771">
        <ele>364.06561</ele>
        <time>2023-08-05T12:43:08.000Z</time>
      </trkpt>
      <trkpt lat="45.85264" lon="4.75774">
        <ele>363.98514</ele>
        <time>2023-08-05T12:43:09.000Z</time>
      </trkpt>
      <trkpt lat="45.85267" lon="4.75777">
        <ele>363.76752</ele>
        <time>2023-08-05T12:43:10.000Z</time>
      </trkpt>
      <trkpt lat="45.8527" lon="4.75779">
        <ele>363.54376</ele>
        <time>2023-08-05T12:43:11.000Z</time>
      </trkpt>
      <trkpt lat="45.85272" lon="4.75783">
        <ele>363.60947</ele>
        <time>2023-08-05T12:43:12.000Z</time>
      </trkpt>
      <trkpt lat="45.85275" lon="4.75786">
        <ele>363.63373</ele>
        <time>2023-08-05T12:43:13.000Z</time>
      </trkpt>
      <trkpt lat="45.85277" lon="4.75789">
        <ele>363.64615</ele>
        <time>2023-08-05T12:43:14.000Z</time>
      </trkpt>
      <trkpt lat="45.8528" lon="4.75792">
        <ele>363.68396</ele>
        <time>2023-08-05T12:43:15.000Z</time>
      </trkpt>
      <trkpt lat="45.85283" lon="4.75794">
        <ele>363.71851</ele>
        <time>2023-08-05T12:43:16.000Z</time>
      </trkpt>
      <trkpt lat="45.85286" lon="4.75797">
        <ele>363.74982</ele>
        <time>2023-08-05T12:43:17.000Z</time>
      </trkpt>
      <trkpt lat="45.85288" lon="4.758">
        <ele>363.77606</ele>
        <time>2023-08-05T12:43:18.000Z</time>
      </trkpt>
      <trkpt lat="45.85291" lon="4.75802">
        <ele>363.79459</ele>
        <time>2023-08-05T12:43:19.000Z</time>
      </trkpt>
      <trkpt lat="45.85294" lon="4.75805">
        <ele>363.79712</ele>
        <time>2023-08-05T12:43:20.000Z</time>
      </trkpt>
      <trkpt lat="45.85296" lon="4.75808">
        <ele>363.80258</ele>
        <time>2023-08-05T12:43:21.000Z</time>
      </trkpt>
      <trkpt lat="45.85299" lon="4.75811">
        <ele>363.80899</ele>
        <time>2023-08-05T12:43:22.000Z</time>
      </trkpt>
      <trkpt lat="45.85302" lon="4.75815">
        <ele>363.75848</ele>
        <time>2023-08-05T12:43:23.000Z</time>
      </trkpt>
      <trkpt lat="45.85305" lon="4.75818">
        <ele>363.64301</ele>
        <time>2023-08-05T12:43:24.000Z</time>
      </trkpt>
      <trkpt lat="45.85308" lon="4.75822">
        <ele>363.53546</ele>
        <time>2023-08-05T12:43:25.000Z</time>
      </trkpt>
      <trkpt lat="45.8531" lon="4.75826">
        <ele>363.32343</ele>
        <time>2023-08-05T12:43:26.000Z</time>
      </trkpt>
      <trkpt lat="45.85312" lon="4.75831">
        <ele>363.63068</ele>
        <time>2023-08-05T12:43:27.000Z</time>
      </trkpt>
      <trkpt lat="45.85314" lon="4.75835">
        <ele>363.86621</ele>
        <time>2023-08-05T12:43:28.000Z</time>
      </trkpt>
      <trkpt lat="45.85315" lon="4.75839">
        <ele>364.09296</ele>
        <time>2023-08-05T12:43:29.000Z</time>
      </trkpt>
      <trkpt lat="45.85316" lon="4.75843">
        <ele>364.44095</ele>
        <time>2023-08-05T12:43:30.000Z</time>
      </trkpt>
      <trkpt lat="45.85317" lon="4.75847">
        <ele>364.80951</ele>
        <time>2023-08-05T12:43:31.000Z</time>
      </trkpt>
      <trkpt lat="45.85318" lon="4.75851">
        <ele>364.86786</ele>
        <time>2023-08-05T12:43:32.000Z</time>
      </trkpt>
      <trkpt lat="45.85318" lon="4.75855">
        <ele>364.96158</ele>
        <time>2023-08-05T12:43:33.000Z</time>
      </trkpt>
      <trkpt lat="45.85319" lon="4.75859">
        <ele>365.06281</ele>
        <time>2023-08-05T12:43:34.000Z</time>
      </trkpt>
      <trkpt lat="45.85319" lon="4.75863">
        <ele>365.14032</ele>
        <time>2023-08-05T12:43:35.000Z</time>
      </trkpt>
      <trkpt lat="45.85319" lon="4.75867">
        <ele>365.21783</ele>
        <time>2023-08-05T12:43:36.000Z</time>
      </trkpt>
      <trkpt lat="45.85319" lon="4.75872">
        <ele>365.13705</ele>
        <time>2023-08-05T12:43:37.000Z</time>
      </trkpt>
      <trkpt lat="45.85319" lon="4.75876">
        <ele>364.93781</ele>
        <time>2023-08-05T12:43:38.000Z</time>
      </trkpt>
      <trkpt lat="45.85318" lon="4.7588">
        <ele>364.73233</ele>
        <time>2023-08-05T12:43:39.000Z</time>
      </trkpt>
      <trkpt lat="45.85316" lon="4.75884">
        <ele>364.89108</ele>
        <time>2023-08-05T12:43:40.000Z</time>
      </trkpt>
      <trkpt lat="45.85314" lon="4.75887">
        <ele>364.99808</ele>
        <time>2023-08-05T12:43:41.000Z</time>
      </trkpt>
      <trkpt lat="45.85311" lon="4.75889">
        <ele>365.10931</ele>
        <time>2023-08-05T12:43:42.000Z</time>
      </trkpt>
      <trkpt lat="45.85309" lon="4.75892">
        <ele>365.27316</ele>
        <time>2023-08-05T12:43:43.000Z</time>
      </trkpt>
      <trkpt lat="45.85306" lon="4.75895">
        <ele>365.52573</ele>
        <time>2023-08-05T12:43:44.000Z</time>
      </trkpt>
      <trkpt lat="45.85304" lon="4.75898">
        <ele>365.78204</ele>
        <time>2023-08-05T12:43:45.000Z</time>
      </trkpt>
      <trkpt lat="45.85302" lon="4.75902">
        <ele>366.14404</ele>
        <time>2023-08-05T12:43:46.000Z</time>
      </trkpt>
      <trkpt lat="45.853" lon="4.75905">
        <ele>366.16656</ele>
        <time>2023-08-05T12:43:47.000Z</time>
      </trkpt>
      <trkpt lat="45.85297" lon="4.75908">
        <ele>366.24234</ele>
        <time>2023-08-05T12:43:48.000Z</time>
      </trkpt>
      <trkpt lat="45.85295" lon="4.7591">
        <ele>366.31189</ele>
        <time>2023-08-05T12:43:49.000Z</time>
      </trkpt>
      <trkpt lat="45.85292" lon="4.75912">
        <ele>366.36392</ele>
        <time>2023-08-05T12:43:50.000Z</time>
      </trkpt>
      <trkpt lat="45.85289" lon="4.75915">
        <ele>366.3996</ele>
        <time>2023-08-05T12:43:51.000Z</time>
      </trkpt>
      <trkpt lat="45.85287" lon="4.75917">
        <ele>366.45172</ele>
        <time>2023-08-05T12:43:52.000Z</time>
      </trkpt>
      <trkpt lat="45.85285" lon="4.75921">
        <ele>366.52487</ele>
        <time>2023-08-05T12:43:53.000Z</time>
      </trkpt>
      <trkpt lat="45.85285" lon="4.75925">
        <ele>366.59567</ele>
        <time>2023-08-05T12:43:54.000Z</time>
      </trkpt>
      <trkpt lat="45.85285" lon="4.75929">
        <ele>366.68198</ele>
        <time>2023-08-05T12:43:55.000Z</time>
      </trkpt>
      <trkpt lat="45.85286" lon="4.75933">
        <ele>366.77527</ele>
        <time>2023-08-05T12:43:56.000Z</time>
      </trkpt>
      <trkpt lat="45.85288" lon="4.75937">
        <ele>367.03973</ele>
        <time>2023-08-05T12:43:57.000Z</time>
      </trkpt>
      <trkpt lat="45.85289" lon="4.75941">
        <ele>367.43323</ele>
        <time>2023-08-05T12:43:58.000Z</time>
      </trkpt>
      <trkpt lat="45.8529" lon="4.75945">
        <ele>367.82663</ele>
        <time>2023-08-05T12:43:59.000Z</time>
      </trkpt>
      <trkpt lat="45.8529" lon="4.75949">
        <ele>367.89093</ele>
        <time>2023-08-05T12:44:00.000Z</time>
      </trkpt>
      <trkpt lat="45.85291" lon="4.75953">
        <ele>368.01367</ele>
        <time>2023-08-05T12:44:01.000Z</time>
      </trkpt>
      <trkpt lat="45.85291" lon="4.75956">
        <ele>368.13812</ele>
        <time>2023-08-05T12:44:02.000Z</time>
      </trkpt>
      <trkpt lat="45.85291" lon="4.7596">
        <ele>368.28198</ele>
        <time>2023-08-05T12:44:03.000Z</time>
      </trkpt>
      <trkpt lat="45.85291" lon="4.75964">
        <ele>368.41592</ele>
        <time>2023-08-05T12:44:04.000Z</time>
      </trkpt>
      <trkpt lat="45.85291" lon="4.75967">
        <ele>368.54654</ele>
        <time>2023-08-05T12:44:05.000Z</time>
      </trkpt>
      <trkpt lat="45.85291" lon="4.75971">
        <ele>368.67957</ele>
        <time>2023-08-05T12:44:06.000Z</time>
      </trkpt>
      <trkpt lat="45.85291" lon="4.75974">
        <ele>368.80356</ele>
        <time>2023-08-05T12:44:07.000Z</time>
      </trkpt>
      <trkpt lat="45.85291" lon="4.75978">
        <ele>368.93585</ele>
        <time>2023-08-05T12:44:08.000Z</time>
      </trkpt>
      <trkpt lat="45.85291" lon="4.75982">
        <ele>369.05829</ele>
        <time>2023-08-05T12:44:09.000Z</time>
      </trkpt>
      <trkpt lat="45.85291" lon="4.75986">
        <ele>369.19742</ele>
        <time>2023-08-05T12:44:10.000Z</time>
      </trkpt>
      <trkpt lat="45.85291" lon="4.75989">
        <ele>369.36346</ele>
        <time>2023-08-05T12:44:11.000Z</time>
      </trkpt>
      <trkpt lat="45.85291" lon="4.75992">
        <ele>369.50037</ele>
        <time>2023-08-05T12:44:12.000Z</time>
      </trkpt>
      <trkpt lat="45.85291" lon="4.75996">
        <ele>369.44464</ele>
        <time>2023-08-05T12:44:13.000Z</time>
      </trkpt>
      <trkpt lat="45.85291" lon="4.75999">
        <ele>369.26385</ele>
        <time>2023-08-05T12:44:14.000Z</time>
      </trkpt>
      <trkpt lat="45.85292" lon="4.76003">
        <ele>369.47672</ele>
        <time>2023-08-05T12:44:15.000Z</time>
      </trkpt>
      <trkpt lat="45.85292" lon="4.76006">
        <ele>369.63693</ele>
        <time>2023-08-05T12:44:16.000Z</time>
      </trkpt>
      <trkpt lat="45.85292" lon="4.7601">
        <ele>369.76669</ele>
        <time>2023-08-05T12:44:17.000Z</time>
      </trkpt>
      <trkpt lat="45.85292" lon="4.76013">
        <ele>369.88275</ele>
        <time>2023-08-05T12:44:18.000Z</time>
      </trkpt>
      <trkpt lat="45.85292" lon="4.76016">
        <ele>370.00049</ele>
        <time>2023-08-05T12:44:19.000Z</time>
      </trkpt>
      <trkpt lat="45.85292" lon="4.7602">
        <ele>370.10724</ele>
        <time>2023-08-05T12:44:20.000Z</time>
      </trkpt>
      <trkpt lat="45.85292" lon="4.76023">
        <ele>370.21365</ele>
        <time>2023-08-05T12:44:21.000Z</time>
      </trkpt>
      <trkpt lat="45.85292" lon="4.76027">
        <ele>370.29611</ele>
        <time>2023-08-05T12:44:22.000Z</time>
      </trkpt>
      <trkpt lat="45.85292" lon="4.76031">
        <ele>370.35529</ele>
        <time>2023-08-05T12:44:23.000Z</time>
      </trkpt>
      <trkpt lat="45.85292" lon="4.76034">
        <ele>370.40109</ele>
        <time>2023-08-05T12:44:24.000Z</time>
      </trkpt>
      <trkpt lat="45.85293" lon="4.76038">
        <ele>370.44763</ele>
        <time>2023-08-05T12:44:25.000Z</time>
      </trkpt>
      <trkpt lat="45.85293" lon="4.76042">
        <ele>370.49884</ele>
        <time>2023-08-05T12:44:26.000Z</time>
      </trkpt>
      <trkpt lat="45.85293" lon="4.76046">
        <ele>370.36871</ele>
        <time>2023-08-05T12:44:27.000Z</time>
      </trkpt>
      <trkpt lat="45.85294" lon="4.7605">
        <ele>370.1088</ele>
        <time>2023-08-05T12:44:28.000Z</time>
      </trkpt>
      <trkpt lat="45.85294" lon="4.76054">
        <ele>369.84787</ele>
        <time>2023-08-05T12:44:29.000Z</time>
      </trkpt>
      <trkpt lat="45.85294" lon="4.76058">
        <ele>369.99747</ele>
        <time>2023-08-05T12:44:30.000Z</time>
      </trkpt>
      <trkpt lat="45.85294" lon="4.76062">
        <ele>370.05341</ele>
        <time>2023-08-05T12:44:31.000Z</time>
      </trkpt>
      <trkpt lat="45.85294" lon="4.76066">
        <ele>370.13022</ele>
        <time>2023-08-05T12:44:32.000Z</time>
      </trkpt>
      <trkpt lat="45.85294" lon="4.7607">
        <ele>370.40268</ele>
        <time>2023-08-05T12:44:33.000Z</time>
      </trkpt>
      <trkpt lat="45.85295" lon="4.76074">
        <ele>370.81506</ele>
        <time>2023-08-05T12:44:34.000Z</time>
      </trkpt>
      <trkpt lat="45.85295" lon="4.76078">
        <ele>370.83298</ele>
        <time>2023-08-05T12:44:35.000Z</time>
      </trkpt>
      <trkpt lat="45.85295" lon="4.76081">
        <ele>370.90765</ele>
        <time>2023-08-05T12:44:36.000Z</time>
      </trkpt>
      <trkpt lat="45.85295" lon="4.76085">
        <ele>371.00531</ele>
        <time>2023-08-05T12:44:37.000Z</time>
      </trkpt>
      <trkpt lat="45.85296" lon="4.76089">
        <ele>371.10675</ele>
        <time>2023-08-05T12:44:38.000Z</time>
      </trkpt>
      <trkpt lat="45.85296" lon="4.76093">
        <ele>371.22552</ele>
        <time>2023-08-05T12:44:39.000Z</time>
      </trkpt>
      <trkpt lat="45.85296" lon="4.76097">
        <ele>371.35419</ele>
        <time>2023-08-05T12:44:40.000Z</time>
      </trkpt>
      <trkpt lat="45.85296" lon="4.76101">
        <ele>371.49023</ele>
        <time>2023-08-05T12:44:41.000Z</time>
      </trkpt>
      <trkpt lat="45.85297" lon="4.76106">
        <ele>371.63788</ele>
        <time>2023-08-05T12:44:42.000Z</time>
      </trkpt>
      <trkpt lat="45.85297" lon="4.7611">
        <ele>371.79257</ele>
        <time>2023-08-05T12:44:43.000Z</time>
      </trkpt>
      <trkpt lat="45.85298" lon="4.76114">
        <ele>371.74902</ele>
        <time>2023-08-05T12:44:44.000Z</time>
      </trkpt>
      <trkpt lat="45.85299" lon="4.76117">
        <ele>371.70163</ele>
        <time>2023-08-05T12:44:45.000Z</time>
      </trkpt>
      <trkpt lat="45.853" lon="4.7612">
        <ele>371.50601</ele>
        <time>2023-08-05T12:44:46.000Z</time>
      </trkpt>
      <trkpt lat="45.85302" lon="4.76124">
        <ele>371.96271</ele>
        <time>2023-08-05T12:44:47.000Z</time>
      </trkpt>
      <trkpt lat="45.85303" lon="4.76127">
        <ele>372.47241</ele>
        <time>2023-08-05T12:44:48.000Z</time>
      </trkpt>
      <trkpt lat="45.85305" lon="4.76131">
        <ele>372.98425</ele>
        <time>2023-08-05T12:44:49.000Z</time>
      </trkpt>
      <trkpt lat="45.85306" lon="4.76134">
        <ele>373.05142</ele>
        <time>2023-08-05T12:44:50.000Z</time>
      </trkpt>
      <trkpt lat="45.85307" lon="4.76138">
        <ele>372.97137</ele>
        <time>2023-08-05T12:44:51.000Z</time>
      </trkpt>
      <trkpt lat="45.85309" lon="4.76142">
        <ele>372.74338</ele>
        <time>2023-08-05T12:44:52.000Z</time>
      </trkpt>
      <trkpt lat="45.8531" lon="4.76145">
        <ele>372.50275</ele>
        <time>2023-08-05T12:44:53.000Z</time>
      </trkpt>
      <trkpt lat="45.85312" lon="4.76148">
        <ele>372.67334</ele>
        <time>2023-08-05T12:44:54.000Z</time>
      </trkpt>
      <trkpt lat="45.85314" lon="4.76151">
        <ele>372.76462</ele>
        <time>2023-08-05T12:44:55.000Z</time>
      </trkpt>
      <trkpt lat="45.85315" lon="4.76155">
        <ele>372.84366</ele>
        <time>2023-08-05T12:44:56.000Z</time>
      </trkpt>
      <trkpt lat="45.85317" lon="4.76159">
        <ele>372.90942</ele>
        <time>2023-08-05T12:44:57.000Z</time>
      </trkpt>
      <trkpt lat="45.85318" lon="4.76162">
        <ele>372.96536</ele>
        <time>2023-08-05T12:44:58.000Z</time>
      </trkpt>
      <trkpt lat="45.8532" lon="4.76166">
        <ele>373.04266</ele>
        <time>2023-08-05T12:44:59.000Z</time>
      </trkpt>
      <trkpt lat="45.85322" lon="4.76169">
        <ele>373.11679</ele>
        <time>2023-08-05T12:45:00.000Z</time>
      </trkpt>
      <trkpt lat="45.85323" lon="4.76173">
        <ele>373.16376</ele>
        <time>2023-08-05T12:45:01.000Z</time>
      </trkpt>
      <trkpt lat="45.85325" lon="4.76177">
        <ele>373.19672</ele>
        <time>2023-08-05T12:45:02.000Z</time>
      </trkpt>
      <trkpt lat="45.85327" lon="4.76181">
        <ele>373.2132</ele>
        <time>2023-08-05T12:45:03.000Z</time>
      </trkpt>
      <trkpt lat="45.85329" lon="4.76184">
        <ele>373.42471</ele>
        <time>2023-08-05T12:45:04.000Z</time>
      </trkpt>
      <trkpt lat="45.85332" lon="4.76188">
        <ele>373.6116</ele>
        <time>2023-08-05T12:45:05.000Z</time>
      </trkpt>
      <trkpt lat="45.85334" lon="4.76192">
        <ele>373.93707</ele>
        <time>2023-08-05T12:45:06.000Z</time>
      </trkpt>
      <trkpt lat="45.85338" lon="4.76195">
        <ele>373.57318</ele>
        <time>2023-08-05T12:45:07.000Z</time>
      </trkpt>
      <trkpt lat="45.85341" lon="4.76197">
        <ele>373.12393</ele>
        <time>2023-08-05T12:45:08.000Z</time>
      </trkpt>
      <trkpt lat="45.85345" lon="4.76199">
        <ele>372.68793</ele>
        <time>2023-08-05T12:45:09.000Z</time>
      </trkpt>
      <trkpt lat="45.85348" lon="4.76201">
        <ele>372.50217</ele>
        <time>2023-08-05T12:45:10.000Z</time>
      </trkpt>
      <trkpt lat="45.8535" lon="4.76201">
        <ele>372.71616</ele>
        <time>2023-08-05T12:45:11.000Z</time>
      </trkpt>
      <trkpt lat="45.85353" lon="4.76201">
        <ele>373.08212</ele>
        <time>2023-08-05T12:45:12.000Z</time>
      </trkpt>
      <trkpt lat="45.85356" lon="4.76201">
        <ele>373.45209</ele>
        <time>2023-08-05T12:45:13.000Z</time>
      </trkpt>
      <trkpt lat="45.85358" lon="4.76201">
        <ele>373.37115</ele>
        <time>2023-08-05T12:45:14.000Z</time>
      </trkpt>
      <trkpt lat="45.85361" lon="4.762">
        <ele>373.30435</ele>
        <time>2023-08-05T12:45:15.000Z</time>
      </trkpt>
      <trkpt lat="45.85363" lon="4.762">
        <ele>373.19736</ele>
        <time>2023-08-05T12:45:16.000Z</time>
      </trkpt>
      <trkpt lat="45.85365" lon="4.762">
        <ele>373.07117</ele>
        <time>2023-08-05T12:45:17.000Z</time>
      </trkpt>
      <trkpt lat="45.85367" lon="4.76199">
        <ele>372.94351</ele>
        <time>2023-08-05T12:45:18.000Z</time>
      </trkpt>
      <trkpt lat="45.8537" lon="4.76198">
        <ele>372.74551</ele>
        <time>2023-08-05T12:45:20.000Z</time>
      </trkpt>
      <trkpt lat="45.85373" lon="4.76198">
        <ele>372.44592</ele>
        <time>2023-08-05T12:46:08.000Z</time>
      </trkpt>
      <trkpt lat="45.85376" lon="4.76199">
        <ele>372.20117</ele>
        <time>2023-08-05T12:46:09.000Z</time>
      </trkpt>
      <trkpt lat="45.85378" lon="4.762">
        <ele>371.94937</ele>
        <time>2023-08-05T12:46:10.000Z</time>
      </trkpt>
      <trkpt lat="45.85381" lon="4.762">
        <ele>371.67197</ele>
        <time>2023-08-05T12:46:11.000Z</time>
      </trkpt>
      <trkpt lat="45.85383" lon="4.762">
        <ele>371.37823</ele>
        <time>2023-08-05T12:46:12.000Z</time>
      </trkpt>
      <trkpt lat="45.85385" lon="4.762">
        <ele>371.16925</ele>
        <time>2023-08-05T12:46:13.000Z</time>
      </trkpt>
      <trkpt lat="45.85388" lon="4.76199">
        <ele>370.83746</ele>
        <time>2023-08-05T12:46:14.000Z</time>
      </trkpt>
      <trkpt lat="45.85391" lon="4.76199">
        <ele>370.45209</ele>
        <time>2023-08-05T12:46:15.000Z</time>
      </trkpt>
      <trkpt lat="45.85394" lon="4.76199">
        <ele>370.16321</ele>
        <time>2023-08-05T12:46:16.000Z</time>
      </trkpt>
      <trkpt lat="45.85397" lon="4.76199">
        <ele>370.29453</ele>
        <time>2023-08-05T12:46:17.000Z</time>
      </trkpt>
      <trkpt lat="45.85401" lon="4.762">
        <ele>370.18692</ele>
        <time>2023-08-05T12:46:18.000Z</time>
      </trkpt>
      <trkpt lat="45.85404" lon="4.76201">
        <ele>369.89767</ele>
        <time>2023-08-05T12:46:19.000Z</time>
      </trkpt>
      <trkpt lat="45.85407" lon="4.76202">
        <ele>369.65399</ele>
        <time>2023-08-05T12:46:20.000Z</time>
      </trkpt>
      <trkpt lat="45.8541" lon="4.76202">
        <ele>369.42667</ele>
        <time>2023-08-05T12:46:21.000Z</time>
      </trkpt>
      <trkpt lat="45.85413" lon="4.76202">
        <ele>369.185</ele>
        <time>2023-08-05T12:46:22.000Z</time>
      </trkpt>
      <trkpt lat="45.85416" lon="4.76201">
        <ele>369.05011</ele>
        <time>2023-08-05T12:46:23.000Z</time>
      </trkpt>
      <trkpt lat="45.85419" lon="4.76201">
        <ele>368.99683</ele>
        <time>2023-08-05T12:46:24.000Z</time>
      </trkpt>
      <trkpt lat="45.85422" lon="4.762">
        <ele>368.9498</ele>
        <time>2023-08-05T12:46:25.000Z</time>
      </trkpt>
      <trkpt lat="45.85425" lon="4.762">
        <ele>369.00549</ele>
        <time>2023-08-05T12:46:26.000Z</time>
      </trkpt>
      <trkpt lat="45.85428" lon="4.762">
        <ele>369.08203</ele>
        <time>2023-08-05T12:46:27.000Z</time>
      </trkpt>
      <trkpt lat="45.85431" lon="4.76201">
        <ele>369.29727</ele>
        <time>2023-08-05T12:46:28.000Z</time>
      </trkpt>
      <trkpt lat="45.85435" lon="4.76203">
        <ele>369.49225</ele>
        <time>2023-08-05T12:46:29.000Z</time>
      </trkpt>
      <trkpt lat="45.85437" lon="4.76206">
        <ele>369.72278</ele>
        <time>2023-08-05T12:46:30.000Z</time>
      </trkpt>
      <trkpt lat="45.85439" lon="4.76209">
        <ele>370.00174</ele>
        <time>2023-08-05T12:46:31.000Z</time>
      </trkpt>
      <trkpt lat="45.8544" lon="4.76214">
        <ele>370.31714</ele>
        <time>2023-08-05T12:46:32.000Z</time>
      </trkpt>
      <trkpt lat="45.8544" lon="4.76218">
        <ele>370.56015</ele>
        <time>2023-08-05T12:46:33.000Z</time>
      </trkpt>
      <trkpt lat="45.85438" lon="4.76223">
        <ele>370.9151</ele>
        <time>2023-08-05T12:46:34.000Z</time>
      </trkpt>
      <trkpt lat="45.85437" lon="4.76227">
        <ele>371.55154</ele>
        <time>2023-08-05T12:46:35.000Z</time>
      </trkpt>
      <trkpt lat="45.85435" lon="4.76231">
        <ele>372.26352</ele>
        <time>2023-08-05T12:46:36.000Z</time>
      </trkpt>
      <trkpt lat="45.85434" lon="4.76234">
        <ele>372.53629</ele>
        <time>2023-08-05T12:46:37.000Z</time>
      </trkpt>
      <trkpt lat="45.85433" lon="4.76238">
        <ele>372.84515</ele>
        <time>2023-08-05T12:46:38.000Z</time>
      </trkpt>
      <trkpt lat="45.85432" lon="4.76241">
        <ele>373.1889</ele>
        <time>2023-08-05T12:46:39.000Z</time>
      </trkpt>
      <trkpt lat="45.8543" lon="4.76244">
        <ele>373.48438</ele>
        <time>2023-08-05T12:46:40.000Z</time>
      </trkpt>
      <trkpt lat="45.85429" lon="4.76247">
        <ele>373.7605</ele>
        <time>2023-08-05T12:46:41.000Z</time>
      </trkpt>
      <trkpt lat="45.85427" lon="4.7625">
        <ele>373.9949</ele>
        <time>2023-08-05T12:46:42.000Z</time>
      </trkpt>
      <trkpt lat="45.85426" lon="4.76254">
        <ele>374.21826</ele>
        <time>2023-08-05T12:46:43.000Z</time>
      </trkpt>
      <trkpt lat="45.85425" lon="4.76258">
        <ele>374.38467</ele>
        <time>2023-08-05T12:46:44.000Z</time>
      </trkpt>
      <trkpt lat="45.85425" lon="4.76263">
        <ele>374.59848</ele>
        <time>2023-08-05T12:46:45.000Z</time>
      </trkpt>
      <trkpt lat="45.85425" lon="4.76266">
        <ele>374.66708</ele>
        <time>2023-08-05T12:46:46.000Z</time>
      </trkpt>
      <trkpt lat="45.85424" lon="4.7627">
        <ele>374.6889</ele>
        <time>2023-08-05T12:46:47.000Z</time>
      </trkpt>
      <trkpt lat="45.85423" lon="4.76274">
        <ele>374.74908</ele>
        <time>2023-08-05T12:46:48.000Z</time>
      </trkpt>
      <trkpt lat="45.85422" lon="4.76278">
        <ele>374.76865</ele>
        <time>2023-08-05T12:46:49.000Z</time>
      </trkpt>
      <trkpt lat="45.8542" lon="4.76281">
        <ele>374.79663</ele>
        <time>2023-08-05T12:46:50.000Z</time>
      </trkpt>
      <trkpt lat="45.85419" lon="4.76285">
        <ele>374.75952</ele>
        <time>2023-08-05T12:46:51.000Z</time>
      </trkpt>
      <trkpt lat="45.85417" lon="4.76289">
        <ele>374.80438</ele>
        <time>2023-08-05T12:46:52.000Z</time>
      </trkpt>
      <trkpt lat="45.85416" lon="4.76293">
        <ele>374.94391</ele>
        <time>2023-08-05T12:46:53.000Z</time>
      </trkpt>
      <trkpt lat="45.85414" lon="4.76297">
        <ele>375.15363</ele>
        <time>2023-08-05T12:46:54.000Z</time>
      </trkpt>
      <trkpt lat="45.85411" lon="4.763">
        <ele>375.38971</ele>
        <time>2023-08-05T12:46:55.000Z</time>
      </trkpt>
      <trkpt lat="45.85408" lon="4.76303">
        <ele>375.6564</ele>
        <time>2023-08-05T12:46:56.000Z</time>
      </trkpt>
      <trkpt lat="45.85406" lon="4.76306">
        <ele>375.9736</ele>
        <time>2023-08-05T12:46:57.000Z</time>
      </trkpt>
      <trkpt lat="45.85403" lon="4.76309">
        <ele>376.26581</ele>
        <time>2023-08-05T12:46:58.000Z</time>
      </trkpt>
      <trkpt lat="45.854" lon="4.76312">
        <ele>376.54111</ele>
        <time>2023-08-05T12:46:59.000Z</time>
      </trkpt>
      <trkpt lat="45.85398" lon="4.76315">
        <ele>376.80899</ele>
        <time>2023-08-05T12:47:00.000Z</time>
      </trkpt>
      <trkpt lat="45.85396" lon="4.76317">
        <ele>377.07861</ele>
        <time>2023-08-05T12:47:01.000Z</time>
      </trkpt>
      <trkpt lat="45.85393" lon="4.76319">
        <ele>377.44452</ele>
        <time>2023-08-05T12:47:02.000Z</time>
      </trkpt>
      <trkpt lat="45.8539" lon="4.76321">
        <ele>377.80554</ele>
        <time>2023-08-05T12:47:03.000Z</time>
      </trkpt>
      <trkpt lat="45.85387" lon="4.76323">
        <ele>377.9469</ele>
        <time>2023-08-05T12:47:04.000Z</time>
      </trkpt>
      <trkpt lat="45.85385" lon="4.76325">
        <ele>377.88785</ele>
        <time>2023-08-05T12:47:05.000Z</time>
      </trkpt>
      <trkpt lat="45.85382" lon="4.76327">
        <ele>377.88898</ele>
        <time>2023-08-05T12:47:06.000Z</time>
      </trkpt>
      <trkpt lat="45.85379" lon="4.76328">
        <ele>378.5235</ele>
        <time>2023-08-05T12:47:07.000Z</time>
      </trkpt>
      <trkpt lat="45.85376" lon="4.7633">
        <ele>378.98737</ele>
        <time>2023-08-05T12:47:08.000Z</time>
      </trkpt>
      <trkpt lat="45.85373" lon="4.76332">
        <ele>379.50323</ele>
        <time>2023-08-05T12:47:09.000Z</time>
      </trkpt>
      <trkpt lat="45.85369" lon="4.76333">
        <ele>380.01361</ele>
        <time>2023-08-05T12:47:10.000Z</time>
      </trkpt>
      <trkpt lat="45.85366" lon="4.76335">
        <ele>380.59268</ele>
        <time>2023-08-05T12:47:11.000Z</time>
      </trkpt>
      <trkpt lat="45.85363" lon="4.76337">
        <ele>381.09698</ele>
        <time>2023-08-05T12:47:12.000Z</time>
      </trkpt>
      <trkpt lat="45.8536" lon="4.76338">
        <ele>381.52594</ele>
        <time>2023-08-05T12:47:13.000Z</time>
      </trkpt>
      <trkpt lat="45.85356" lon="4.7634">
        <ele>381.89966</ele>
        <time>2023-08-05T12:47:14.000Z</time>
      </trkpt>
      <trkpt lat="45.85353" lon="4.76341">
        <ele>382.24872</ele>
        <time>2023-08-05T12:47:15.000Z</time>
      </trkpt>
      <trkpt lat="45.8535" lon="4.76343">
        <ele>382.56137</ele>
        <time>2023-08-05T12:47:16.000Z</time>
      </trkpt>
      <trkpt lat="45.85347" lon="4.76345">
        <ele>382.914</ele>
        <time>2023-08-05T12:47:17.000Z</time>
      </trkpt>
      <trkpt lat="45.85344" lon="4.76347">
        <ele>383.29498</ele>
        <time>2023-08-05T12:47:18.000Z</time>
      </trkpt>
      <trkpt lat="45.85341" lon="4.76348">
        <ele>383.66791</ele>
        <time>2023-08-05T12:47:19.000Z</time>
      </trkpt>
      <trkpt lat="45.85338" lon="4.7635">
        <ele>384.06989</ele>
        <time>2023-08-05T12:47:20.000Z</time>
      </trkpt>
      <trkpt lat="45.85336" lon="4.76353">
        <ele>384.48239</ele>
        <time>2023-08-05T12:47:21.000Z</time>
      </trkpt>
      <trkpt lat="45.85333" lon="4.76355">
        <ele>384.91766</ele>
        <time>2023-08-05T12:47:22.000Z</time>
      </trkpt>
      <trkpt lat="45.85332" lon="4.76359">
        <ele>385.34341</ele>
        <time>2023-08-05T12:47:23.000Z</time>
      </trkpt>
      <trkpt lat="45.8533" lon="4.76362">
        <ele>386.01825</ele>
        <time>2023-08-05T12:47:24.000Z</time>
      </trkpt>
      <trkpt lat="45.8533" lon="4.76366">
        <ele>386.87906</ele>
        <time>2023-08-05T12:47:25.000Z</time>
      </trkpt>
      <trkpt lat="45.85331" lon="4.7637">
        <ele>387.7316</ele>
        <time>2023-08-05T12:47:26.000Z</time>
      </trkpt>
      <trkpt lat="45.85332" lon="4.76374">
        <ele>388.01804</ele>
        <time>2023-08-05T12:47:27.000Z</time>
      </trkpt>
      <trkpt lat="45.85333" lon="4.76378">
        <ele>388.39468</ele>
        <time>2023-08-05T12:47:28.000Z</time>
      </trkpt>
      <trkpt lat="45.85334" lon="4.76382">
        <ele>388.71918</ele>
        <time>2023-08-05T12:47:29.000Z</time>
      </trkpt>
      <trkpt lat="45.85334" lon="4.76386">
        <ele>389.0246</ele>
        <time>2023-08-05T12:47:30.000Z</time>
      </trkpt>
      <trkpt lat="45.85335" lon="4.7639">
        <ele>389.33618</ele>
        <time>2023-08-05T12:47:31.000Z</time>
      </trkpt>
      <trkpt lat="45.85335" lon="4.76393">
        <ele>389.63187</ele>
        <time>2023-08-05T12:47:32.000Z</time>
      </trkpt>
      <trkpt lat="45.85334" lon="4.76396">
        <ele>389.93658</ele>
        <time>2023-08-05T12:47:33.000Z</time>
      </trkpt>
      <trkpt lat="45.85334" lon="4.76399">
        <ele>390.24042</ele>
        <time>2023-08-05T12:47:34.000Z</time>
      </trkpt>
      <trkpt lat="45.85334" lon="4.76402">
        <ele>390.52768</ele>
        <time>2023-08-05T12:47:35.000Z</time>
      </trkpt>
      <trkpt lat="45.85335" lon="4.76404">
        <ele>390.81772</ele>
        <time>2023-08-05T12:47:36.000Z</time>
      </trkpt>
      <trkpt lat="45.85335" lon="4.76407">
        <ele>391.0748</ele>
        <time>2023-08-05T12:47:37.000Z</time>
      </trkpt>
      <trkpt lat="45.85335" lon="4.76411">
        <ele>391.29425</ele>
        <time>2023-08-05T12:47:38.000Z</time>
      </trkpt>
      <trkpt lat="45.85335" lon="4.76416">
        <ele>391.46799</ele>
        <time>2023-08-05T12:47:39.000Z</time>
      </trkpt>
      <trkpt lat="45.85335" lon="4.76421">
        <ele>391.61523</ele>
        <time>2023-08-05T12:47:40.000Z</time>
      </trkpt>
      <trkpt lat="45.85334" lon="4.76426">
        <ele>391.66843</ele>
        <time>2023-08-05T12:47:41.000Z</time>
      </trkpt>
      <trkpt lat="45.85334" lon="4.76432">
        <ele>391.67206</ele>
        <time>2023-08-05T12:47:42.000Z</time>
      </trkpt>
      <trkpt lat="45.85333" lon="4.76439">
        <ele>391.6669</ele>
        <time>2023-08-05T12:47:43.000Z</time>
      </trkpt>
      <trkpt lat="45.85331" lon="4.76446">
        <ele>391.60104</ele>
        <time>2023-08-05T12:47:44.000Z</time>
      </trkpt>
      <trkpt lat="45.85329" lon="4.76453">
        <ele>391.51715</ele>
        <time>2023-08-05T12:47:45.000Z</time>
      </trkpt>
      <trkpt lat="45.85326" lon="4.76458">
        <ele>391.45731</ele>
        <time>2023-08-05T12:47:46.000Z</time>
      </trkpt>
      <trkpt lat="45.85324" lon="4.76463">
        <ele>391.36127</ele>
        <time>2023-08-05T12:47:47.000Z</time>
      </trkpt>
      <trkpt lat="45.85323" lon="4.76466">
        <ele>391.00766</ele>
        <time>2023-08-05T12:47:48.000Z</time>
      </trkpt>
      <trkpt lat="45.85321" lon="4.76473">
        <ele>390.74664</ele>
        <time>2023-08-05T12:47:49.000Z</time>
      </trkpt>
      <trkpt lat="45.8532" lon="4.76476">
        <ele>390.66733</ele>
        <time>2023-08-05T12:47:50.000Z</time>
      </trkpt>
      <trkpt lat="45.85321" lon="4.7648">
        <ele>390.16046</ele>
        <time>2023-08-05T12:47:51.000Z</time>
      </trkpt>
      <trkpt lat="45.85325" lon="4.76484">
        <ele>389.55701</ele>
        <time>2023-08-05T12:47:52.000Z</time>
      </trkpt>
      <trkpt lat="45.85326" lon="4.76488">
        <ele>388.79214</ele>
        <time>2023-08-05T12:47:53.000Z</time>
      </trkpt>
      <trkpt lat="45.85327" lon="4.76493">
        <ele>388.09741</ele>
        <time>2023-08-05T12:47:54.000Z</time>
      </trkpt>
      <trkpt lat="45.85325" lon="4.76502">
        <ele>387.22476</ele>
        <time>2023-08-05T12:47:55.000Z</time>
      </trkpt>
      <trkpt lat="45.85326" lon="4.76509">
        <ele>386.27109</ele>
        <time>2023-08-05T12:47:56.000Z</time>
      </trkpt>
      <trkpt lat="45.85327" lon="4.76516">
        <ele>384.98566</ele>
        <time>2023-08-05T12:47:57.000Z</time>
      </trkpt>
      <trkpt lat="45.85329" lon="4.76523">
        <ele>383.30872</ele>
        <time>2023-08-05T12:47:58.000Z</time>
      </trkpt>
      <trkpt lat="45.85329" lon="4.76529">
        <ele>382.32892</ele>
        <time>2023-08-05T12:47:59.000Z</time>
      </trkpt>
      <trkpt lat="45.85332" lon="4.76527">
        <ele>381.02197</ele>
        <time>2023-08-05T12:48:00.000Z</time>
      </trkpt>
      <trkpt lat="45.85334" lon="4.76528">
        <ele>380.12408</ele>
        <time>2023-08-05T12:48:01.000Z</time>
      </trkpt>
      <trkpt lat="45.85334" lon="4.76523">
        <ele>379.37384</ele>
        <time>2023-08-05T12:48:02.000Z</time>
      </trkpt>
      <trkpt lat="45.85336" lon="4.76521">
        <ele>378.75293</ele>
        <time>2023-08-05T12:48:03.000Z</time>
      </trkpt>
      <trkpt lat="45.85339" lon="4.7652">
        <ele>378.24924</ele>
        <time>2023-08-05T12:48:04.000Z</time>
      </trkpt>
      <trkpt lat="45.85341" lon="4.76518">
        <ele>377.77078</ele>
        <time>2023-08-05T12:48:05.000Z</time>
      </trkpt>
      <trkpt lat="45.85343" lon="4.76516">
        <ele>377.31494</ele>
        <time>2023-08-05T12:48:06.000Z</time>
      </trkpt>
      <trkpt lat="45.85346" lon="4.76514">
        <ele>376.90839</ele>
        <time>2023-08-05T12:48:07.000Z</time>
      </trkpt>
      <trkpt lat="45.85349" lon="4.76513">
        <ele>376.91183</ele>
        <time>2023-08-05T12:48:08.000Z</time>
      </trkpt>
      <trkpt lat="45.85352" lon="4.76512">
        <ele>376.81793</ele>
        <time>2023-08-05T12:48:09.000Z</time>
      </trkpt>
      <trkpt lat="45.85355" lon="4.76511">
        <ele>376.54108</ele>
        <time>2023-08-05T12:48:10.000Z</time>
      </trkpt>
      <trkpt lat="45.85358" lon="4.76511">
        <ele>376.70737</ele>
        <time>2023-08-05T12:48:11.000Z</time>
      </trkpt>
      <trkpt lat="45.85361" lon="4.76511">
        <ele>376.9805</ele>
        <time>2023-08-05T12:48:12.000Z</time>
      </trkpt>
      <trkpt lat="45.85363" lon="4.7651">
        <ele>377.21942</ele>
        <time>2023-08-05T12:48:13.000Z</time>
      </trkpt>
      <trkpt lat="45.85366" lon="4.7651">
        <ele>377.35651</ele>
        <time>2023-08-05T12:48:14.000Z</time>
      </trkpt>
      <trkpt lat="45.85369" lon="4.76511">
        <ele>377.67783</ele>
        <time>2023-08-05T12:48:15.000Z</time>
      </trkpt>
      <trkpt lat="45.85371" lon="4.76511">
        <ele>377.96646</ele>
        <time>2023-08-05T12:48:16.000Z</time>
      </trkpt>
      <trkpt lat="45.85374" lon="4.76512">
        <ele>378.56796</ele>
        <time>2023-08-05T12:48:17.000Z</time>
      </trkpt>
      <trkpt lat="45.85377" lon="4.76515">
        <ele>379.37125</ele>
        <time>2023-08-05T12:48:19.000Z</time>
      </trkpt>
      <trkpt lat="45.85379" lon="4.76519">
        <ele>379.57516</ele>
        <time>2023-08-05T12:48:20.000Z</time>
      </trkpt>
      <trkpt lat="45.85381" lon="4.76522">
        <ele>380.16959</ele>
        <time>2023-08-05T12:48:21.000Z</time>
      </trkpt>
      <trkpt lat="45.85382" lon="4.76526">
        <ele>380.42523</ele>
        <time>2023-08-05T12:48:22.000Z</time>
      </trkpt>
      <trkpt lat="45.85384" lon="4.76529">
        <ele>380.56946</ele>
        <time>2023-08-05T12:48:23.000Z</time>
      </trkpt>
      <trkpt lat="45.85386" lon="4.76532">
        <ele>380.64502</ele>
        <time>2023-08-05T12:48:24.000Z</time>
      </trkpt>
      <trkpt lat="45.85388" lon="4.76534">
        <ele>380.76712</ele>
        <time>2023-08-05T12:48:25.000Z</time>
      </trkpt>
      <trkpt lat="45.85389" lon="4.76535">
        <ele>380.8623</ele>
        <time>2023-08-05T12:48:26.000Z</time>
      </trkpt>
      <trkpt lat="45.85392" lon="4.76538">
        <ele>380.88416</ele>
        <time>2023-08-05T12:48:28.000Z</time>
      </trkpt>
      <trkpt lat="45.85395" lon="4.7654">
        <ele>380.88412</ele>
        <time>2023-08-05T12:48:29.000Z</time>
      </trkpt>
      <trkpt lat="45.85397" lon="4.76541">
        <ele>380.9527</ele>
        <time>2023-08-05T12:48:30.000Z</time>
      </trkpt>
      <trkpt lat="45.85399" lon="4.76542">
        <ele>380.57678</ele>
        <time>2023-08-05T12:48:31.000Z</time>
      </trkpt>
      <trkpt lat="45.85402" lon="4.76544">
        <ele>380.19083</ele>
        <time>2023-08-05T12:48:32.000Z</time>
      </trkpt>
      <trkpt lat="45.85404" lon="4.76546">
        <ele>379.7984</ele>
        <time>2023-08-05T12:48:33.000Z</time>
      </trkpt>
      <trkpt lat="45.85407" lon="4.76548">
        <ele>379.41241</ele>
        <time>2023-08-05T12:48:34.000Z</time>
      </trkpt>
      <trkpt lat="45.8541" lon="4.76549">
        <ele>379.20108</ele>
        <time>2023-08-05T12:48:35.000Z</time>
      </trkpt>
      <trkpt lat="45.85417" lon="4.76549">
        <ele>378.99408</ele>
        <time>2023-08-05T12:48:36.000Z</time>
      </trkpt>
      <trkpt lat="45.85421" lon="4.76552">
        <ele>378.77524</ele>
        <time>2023-08-05T12:48:37.000Z</time>
      </trkpt>
      <trkpt lat="45.85424" lon="4.76555">
        <ele>378.66074</ele>
        <time>2023-08-05T12:48:38.000Z</time>
      </trkpt>
      <trkpt lat="45.85428" lon="4.76557">
        <ele>378.54129</ele>
        <time>2023-08-05T12:48:39.000Z</time>
      </trkpt>
      <trkpt lat="45.85433" lon="4.7656">
        <ele>378.60342</ele>
        <time>2023-08-05T12:48:40.000Z</time>
      </trkpt>
      <trkpt lat="45.85437" lon="4.76562">
        <ele>378.59039</ele>
        <time>2023-08-05T12:48:41.000Z</time>
      </trkpt>
      <trkpt lat="45.8544" lon="4.76563">
        <ele>378.47736</ele>
        <time>2023-08-05T12:48:42.000Z</time>
      </trkpt>
      <trkpt lat="45.85442" lon="4.76564">
        <ele>378.37872</ele>
        <time>2023-08-05T12:48:43.000Z</time>
      </trkpt>
      <trkpt lat="45.85444" lon="4.76566">
        <ele>378.62363</ele>
        <time>2023-08-05T12:48:47.000Z</time>
      </trkpt>
      <trkpt lat="45.85442" lon="4.76565">
        <ele>379.10379</ele>
        <time>2023-08-05T12:50:40.000Z</time>
      </trkpt>
      <trkpt lat="45.85445" lon="4.76566">
        <ele>379.254</ele>
        <time>2023-08-05T12:50:54.000Z</time>
      </trkpt>
      <trkpt lat="45.85447" lon="4.76567">
        <ele>379.87909</ele>
        <time>2023-08-05T12:50:55.000Z</time>
      </trkpt>
      <trkpt lat="45.85449" lon="4.76567">
        <ele>380.4704</ele>
        <time>2023-08-05T12:50:56.000Z</time>
      </trkpt>
      <trkpt lat="45.85451" lon="4.76568">
        <ele>380.88562</ele>
        <time>2023-08-05T12:50:57.000Z</time>
      </trkpt>
      <trkpt lat="45.85453" lon="4.76569">
        <ele>381.04135</ele>
        <time>2023-08-05T12:50:58.000Z</time>
      </trkpt>
      <trkpt lat="45.85455" lon="4.7657">
        <ele>381.65451</ele>
        <time>2023-08-05T12:50:59.000Z</time>
      </trkpt>
      <trkpt lat="45.85458" lon="4.76571">
        <ele>382.25626</ele>
        <time>2023-08-05T12:51:00.000Z</time>
      </trkpt>
      <trkpt lat="45.85461" lon="4.76572">
        <ele>382.80615</ele>
        <time>2023-08-05T12:51:01.000Z</time>
      </trkpt>
      <trkpt lat="45.85463" lon="4.76573">
        <ele>383.34818</ele>
        <time>2023-08-05T12:51:02.000Z</time>
      </trkpt>
      <trkpt lat="45.85466" lon="4.76574">
        <ele>383.94189</ele>
        <time>2023-08-05T12:51:03.000Z</time>
      </trkpt>
      <trkpt lat="45.85469" lon="4.76575">
        <ele>384.58636</ele>
        <time>2023-08-05T12:51:04.000Z</time>
      </trkpt>
      <trkpt lat="45.85473" lon="4.76575">
        <ele>385.22656</ele>
        <time>2023-08-05T12:51:05.000Z</time>
      </trkpt>
      <trkpt lat="45.85476" lon="4.76575">
        <ele>385.8692</ele>
        <time>2023-08-05T12:51:06.000Z</time>
      </trkpt>
      <trkpt lat="45.85479" lon="4.76576">
        <ele>386.49072</ele>
        <time>2023-08-05T12:51:07.000Z</time>
      </trkpt>
      <trkpt lat="45.85483" lon="4.76576">
        <ele>387.12781</ele>
        <time>2023-08-05T12:51:08.000Z</time>
      </trkpt>
      <trkpt lat="45.85485" lon="4.76576">
        <ele>387.79205</ele>
        <time>2023-08-05T12:51:09.000Z</time>
      </trkpt>
      <trkpt lat="45.85488" lon="4.76575">
        <ele>388.13449</ele>
        <time>2023-08-05T12:51:10.000Z</time>
      </trkpt>
      <trkpt lat="45.8549" lon="4.76575">
        <ele>388.27313</ele>
        <time>2023-08-05T12:51:11.000Z</time>
      </trkpt>
      <trkpt lat="45.85493" lon="4.76574">
        <ele>388.56885</ele>
        <time>2023-08-05T12:51:12.000Z</time>
      </trkpt>
      <trkpt lat="45.85496" lon="4.76575">
        <ele>388.42667</ele>
        <time>2023-08-05T12:51:13.000Z</time>
      </trkpt>
      <trkpt lat="45.85498" lon="4.76576">
        <ele>388.5195</ele>
        <time>2023-08-05T12:51:14.000Z</time>
      </trkpt>
      <trkpt lat="45.855" lon="4.76577">
        <ele>388.13644</ele>
        <time>2023-08-05T12:51:15.000Z</time>
      </trkpt>
      <trkpt lat="45.855" lon="4.7658">
        <ele>387.84717</ele>
        <time>2023-08-05T12:51:16.000Z</time>
      </trkpt>
      <trkpt lat="45.855" lon="4.76583">
        <ele>387.74741</ele>
        <time>2023-08-05T12:51:17.000Z</time>
      </trkpt>
      <trkpt lat="45.85499" lon="4.76586">
        <ele>387.68701</ele>
        <time>2023-08-05T12:51:18.000Z</time>
      </trkpt>
      <trkpt lat="45.85497" lon="4.76588">
        <ele>387.65454</ele>
        <time>2023-08-05T12:51:19.000Z</time>
      </trkpt>
      <trkpt lat="45.85495" lon="4.7659">
        <ele>387.63062</ele>
        <time>2023-08-05T12:51:20.000Z</time>
      </trkpt>
      <trkpt lat="45.85493" lon="4.76593">
        <ele>387.65433</ele>
        <time>2023-08-05T12:51:21.000Z</time>
      </trkpt>
      <trkpt lat="45.8549" lon="4.76595">
        <ele>387.65878</ele>
        <time>2023-08-05T12:51:22.000Z</time>
      </trkpt>
      <trkpt lat="45.85489" lon="4.76597">
        <ele>387.61493</ele>
        <time>2023-08-05T12:51:23.000Z</time>
      </trkpt>
      <trkpt lat="45.85487" lon="4.766">
        <ele>387.32047</ele>
        <time>2023-08-05T12:51:24.000Z</time>
      </trkpt>
      <trkpt lat="45.85485" lon="4.76602">
        <ele>387.03726</ele>
        <time>2023-08-05T12:51:25.000Z</time>
      </trkpt>
      <trkpt lat="45.85483" lon="4.76605">
        <ele>386.75934</ele>
        <time>2023-08-05T12:51:26.000Z</time>
      </trkpt>
      <trkpt lat="45.85481" lon="4.76606">
        <ele>386.32187</ele>
        <time>2023-08-05T12:51:27.000Z</time>
      </trkpt>
      <trkpt lat="45.85479" lon="4.76608">
        <ele>386.43488</ele>
        <time>2023-08-05T12:51:28.000Z</time>
      </trkpt>
      <trkpt lat="45.85476" lon="4.76609">
        <ele>386.46719</ele>
        <time>2023-08-05T12:51:29.000Z</time>
      </trkpt>
      <trkpt lat="45.85474" lon="4.76611">
        <ele>386.88892</ele>
        <time>2023-08-05T12:51:30.000Z</time>
      </trkpt>
      <trkpt lat="45.85472" lon="4.76612">
        <ele>387.52737</ele>
        <time>2023-08-05T12:51:31.000Z</time>
      </trkpt>
      <trkpt lat="45.85469" lon="4.76614">
        <ele>387.64804</ele>
        <time>2023-08-05T12:51:32.000Z</time>
      </trkpt>
      <trkpt lat="45.85467" lon="4.76615">
        <ele>387.90277</ele>
        <time>2023-08-05T12:51:33.000Z</time>
      </trkpt>
      <trkpt lat="45.85464" lon="4.76615">
        <ele>388.15338</ele>
        <time>2023-08-05T12:51:34.000Z</time>
      </trkpt>
      <trkpt lat="45.85461" lon="4.76616">
        <ele>388.44211</ele>
        <time>2023-08-05T12:51:35.000Z</time>
      </trkpt>
      <trkpt lat="45.85458" lon="4.76615">
        <ele>388.70245</ele>
        <time>2023-08-05T12:51:36.000Z</time>
      </trkpt>
      <trkpt lat="45.85455" lon="4.76615">
        <ele>388.94818</ele>
        <time>2023-08-05T12:51:37.000Z</time>
      </trkpt>
      <trkpt lat="45.85453" lon="4.76616">
        <ele>389.19424</ele>
        <time>2023-08-05T12:51:38.000Z</time>
      </trkpt>
      <trkpt lat="45.8545" lon="4.76616">
        <ele>389.40106</ele>
        <time>2023-08-05T12:51:39.000Z</time>
      </trkpt>
      <trkpt lat="45.85447" lon="4.76616">
        <ele>389.65958</ele>
        <time>2023-08-05T12:51:40.000Z</time>
      </trkpt>
      <trkpt lat="45.85444" lon="4.76616">
        <ele>389.89587</ele>
        <time>2023-08-05T12:51:41.000Z</time>
      </trkpt>
      <trkpt lat="45.85442" lon="4.76616">
        <ele>390.16162</ele>
        <time>2023-08-05T12:51:42.000Z</time>
      </trkpt>
      <trkpt lat="45.85439" lon="4.76616">
        <ele>390.61435</ele>
        <time>2023-08-05T12:51:43.000Z</time>
      </trkpt>
      <trkpt lat="45.85436" lon="4.76615">
        <ele>391.29126</ele>
        <time>2023-08-05T12:51:44.000Z</time>
      </trkpt>
      <trkpt lat="45.85434" lon="4.76615">
        <ele>391.98007</ele>
        <time>2023-08-05T12:51:45.000Z</time>
      </trkpt>
      <trkpt lat="45.85431" lon="4.76614">
        <ele>392.67206</ele>
        <time>2023-08-05T12:51:46.000Z</time>
      </trkpt>
      <trkpt lat="45.85428" lon="4.76614">
        <ele>393.52905</ele>
        <time>2023-08-05T12:51:47.000Z</time>
      </trkpt>
      <trkpt lat="45.85425" lon="4.76614">
        <ele>393.85266</ele>
        <time>2023-08-05T12:51:48.000Z</time>
      </trkpt>
      <trkpt lat="45.85423" lon="4.76615">
        <ele>394.26169</ele>
        <time>2023-08-05T12:51:49.000Z</time>
      </trkpt>
      <trkpt lat="45.8542" lon="4.76615">
        <ele>394.62961</ele>
        <time>2023-08-05T12:51:50.000Z</time>
      </trkpt>
      <trkpt lat="45.85417" lon="4.76616">
        <ele>394.99683</ele>
        <time>2023-08-05T12:51:51.000Z</time>
      </trkpt>
      <trkpt lat="45.85414" lon="4.76616">
        <ele>395.35135</ele>
        <time>2023-08-05T12:51:52.000Z</time>
      </trkpt>
      <trkpt lat="45.85411" lon="4.76616">
        <ele>395.1983</ele>
        <time>2023-08-05T12:51:53.000Z</time>
      </trkpt>
      <trkpt lat="45.85408" lon="4.76617">
        <ele>395.04306</ele>
        <time>2023-08-05T12:51:54.000Z</time>
      </trkpt>
      <trkpt lat="45.85405" lon="4.76618">
        <ele>394.86713</ele>
        <time>2023-08-05T12:51:55.000Z</time>
      </trkpt>
      <trkpt lat="45.85402" lon="4.7662">
        <ele>394.71835</ele>
        <time>2023-08-05T12:51:56.000Z</time>
      </trkpt>
      <trkpt lat="45.854" lon="4.76621">
        <ele>394.60052</ele>
        <time>2023-08-05T12:51:57.000Z</time>
      </trkpt>
      <trkpt lat="45.85398" lon="4.76622">
        <ele>394.47345</ele>
        <time>2023-08-05T12:51:58.000Z</time>
      </trkpt>
      <trkpt lat="45.85396" lon="4.76623">
        <ele>394.39185</ele>
        <time>2023-08-05T12:51:59.000Z</time>
      </trkpt>
      <trkpt lat="45.85393" lon="4.76624">
        <ele>394.28574</ele>
        <time>2023-08-05T12:52:00.000Z</time>
      </trkpt>
      <trkpt lat="45.8539" lon="4.76625">
        <ele>394.21783</ele>
        <time>2023-08-05T12:52:01.000Z</time>
      </trkpt>
      <trkpt lat="45.85388" lon="4.76627">
        <ele>394.13956</ele>
        <time>2023-08-05T12:52:02.000Z</time>
      </trkpt>
      <trkpt lat="45.85386" lon="4.76629">
        <ele>393.89258</ele>
        <time>2023-08-05T12:52:03.000Z</time>
      </trkpt>
      <trkpt lat="45.85384" lon="4.76631">
        <ele>393.67886</ele>
        <time>2023-08-05T12:52:04.000Z</time>
      </trkpt>
      <trkpt lat="45.85382" lon="4.76632">
        <ele>393.4729</ele>
        <time>2023-08-05T12:52:05.000Z</time>
      </trkpt>
      <trkpt lat="45.8538" lon="4.76634">
        <ele>393.26117</ele>
        <time>2023-08-05T12:52:06.000Z</time>
      </trkpt>
      <trkpt lat="45.85377" lon="4.76635">
        <ele>393.04694</ele>
        <time>2023-08-05T12:52:07.000Z</time>
      </trkpt>
      <trkpt lat="45.85374" lon="4.76637">
        <ele>392.83392</ele>
        <time>2023-08-05T12:52:08.000Z</time>
      </trkpt>
      <trkpt lat="45.85371" lon="4.76638">
        <ele>392.59763</ele>
        <time>2023-08-05T12:52:09.000Z</time>
      </trkpt>
      <trkpt lat="45.85369" lon="4.7664">
        <ele>392.3952</ele>
        <time>2023-08-05T12:52:10.000Z</time>
      </trkpt>
      <trkpt lat="45.85367" lon="4.76643">
        <ele>392.20181</ele>
        <time>2023-08-05T12:52:11.000Z</time>
      </trkpt>
      <trkpt lat="45.85365" lon="4.76645">
        <ele>392.01364</ele>
        <time>2023-08-05T12:52:12.000Z</time>
      </trkpt>
      <trkpt lat="45.85362" lon="4.76647">
        <ele>392.31494</ele>
        <time>2023-08-05T12:52:13.000Z</time>
      </trkpt>
      <trkpt lat="45.8536" lon="4.7665">
        <ele>392.62091</ele>
        <time>2023-08-05T12:52:14.000Z</time>
      </trkpt>
      <trkpt lat="45.85358" lon="4.76652">
        <ele>392.94147</ele>
        <time>2023-08-05T12:52:15.000Z</time>
      </trkpt>
      <trkpt lat="45.85356" lon="4.76655">
        <ele>393.09283</ele>
        <time>2023-08-05T12:52:16.000Z</time>
      </trkpt>
      <trkpt lat="45.85354" lon="4.76658">
        <ele>393.22504</ele>
        <time>2023-08-05T12:52:17.000Z</time>
      </trkpt>
      <trkpt lat="45.85353" lon="4.76661">
        <ele>393.36502</ele>
        <time>2023-08-05T12:52:18.000Z</time>
      </trkpt>
      <trkpt lat="45.85354" lon="4.76664">
        <ele>393.4888</ele>
        <time>2023-08-05T12:52:19.000Z</time>
      </trkpt>
      <trkpt lat="45.85357" lon="4.76667">
        <ele>393.61081</ele>
        <time>2023-08-05T12:52:20.000Z</time>
      </trkpt>
      <trkpt lat="45.8536" lon="4.76667">
        <ele>395.31845</ele>
        <time>2023-08-05T12:52:21.000Z</time>
      </trkpt>
      <trkpt lat="45.85363" lon="4.76668">
        <ele>395.48981</ele>
        <time>2023-08-05T12:52:22.000Z</time>
      </trkpt>
      <trkpt lat="45.85365" lon="4.76668">
        <ele>395.65427</ele>
        <time>2023-08-05T12:52:23.000Z</time>
      </trkpt>
      <trkpt lat="45.85368" lon="4.76669">
        <ele>395.79181</ele>
        <time>2023-08-05T12:52:24.000Z</time>
      </trkpt>
      <trkpt lat="45.8537" lon="4.7667">
        <ele>395.91803</ele>
        <time>2023-08-05T12:52:25.000Z</time>
      </trkpt>
      <trkpt lat="45.85373" lon="4.76672">
        <ele>396.0451</ele>
        <time>2023-08-05T12:52:26.000Z</time>
      </trkpt>
      <trkpt lat="45.85375" lon="4.76674">
        <ele>397.69623</ele>
        <time>2023-08-05T12:52:27.000Z</time>
      </trkpt>
      <trkpt lat="45.85376" lon="4.76676">
        <ele>399.35553</ele>
        <time>2023-08-05T12:52:28.000Z</time>
      </trkpt>
      <trkpt lat="45.8538" lon="4.76679">
        <ele>401.13705</ele>
        <time>2023-08-05T12:52:30.000Z</time>
      </trkpt>
      <trkpt lat="45.85382" lon="4.76682">
        <ele>402.89981</ele>
        <time>2023-08-05T12:52:31.000Z</time>
      </trkpt>
      <trkpt lat="45.85383" lon="4.76684">
        <ele>404.63062</ele>
        <time>2023-08-05T12:52:32.000Z</time>
      </trkpt>
      <trkpt lat="45.85385" lon="4.76687">
        <ele>406.36823</ele>
        <time>2023-08-05T12:52:33.000Z</time>
      </trkpt>
      <trkpt lat="45.85386" lon="4.76689">
        <ele>408.12509</ele>
        <time>2023-08-05T12:52:34.000Z</time>
      </trkpt>
      <trkpt lat="45.85387" lon="4.76692">
        <ele>409.8851</ele>
        <time>2023-08-05T12:52:35.000Z</time>
      </trkpt>
      <trkpt lat="45.8539" lon="4.76696">
        <ele>411.61176</ele>
        <time>2023-08-05T12:52:37.000Z</time>
      </trkpt>
      <trkpt lat="45.85392" lon="4.76698">
        <ele>413.46283</ele>
        <time>2023-08-05T12:52:39.000Z</time>
      </trkpt>
      <trkpt lat="45.85394" lon="4.767">
        <ele>415.32227</ele>
        <time>2023-08-05T12:52:40.000Z</time>
      </trkpt>
      <trkpt lat="45.85396" lon="4.76702">
        <ele>417.17706</ele>
        <time>2023-08-05T12:52:41.000Z</time>
      </trkpt>
      <trkpt lat="45.85397" lon="4.76705">
        <ele>417.75531</ele>
        <time>2023-08-05T12:52:42.000Z</time>
      </trkpt>
      <trkpt lat="45.85399" lon="4.76707">
        <ele>418.33563</ele>
        <time>2023-08-05T12:52:43.000Z</time>
      </trkpt>
      <trkpt lat="45.854" lon="4.7671">
        <ele>417.35907</ele>
        <time>2023-08-05T12:52:44.000Z</time>
      </trkpt>
      <trkpt lat="45.85402" lon="4.76712">
        <ele>417.83755</ele>
        <time>2023-08-05T12:52:45.000Z</time>
      </trkpt>
      <trkpt lat="45.85404" lon="4.76715">
        <ele>418.41269</ele>
        <time>2023-08-05T12:52:46.000Z</time>
      </trkpt>
      <trkpt lat="45.85405" lon="4.76717">
        <ele>419.02069</ele>
        <time>2023-08-05T12:52:47.000Z</time>
      </trkpt>
      <trkpt lat="45.85407" lon="4.76719">
        <ele>419.63873</ele>
        <time>2023-08-05T12:52:48.000Z</time>
      </trkpt>
      <trkpt lat="45.8541" lon="4.76721">
        <ele>420.26031</ele>
        <time>2023-08-05T12:52:49.000Z</time>
      </trkpt>
      <trkpt lat="45.85412" lon="4.76722">
        <ele>419.38809</ele>
        <time>2023-08-05T12:52:50.000Z</time>
      </trkpt>
      <trkpt lat="45.85413" lon="4.76725">
        <ele>418.51407</ele>
        <time>2023-08-05T12:52:51.000Z</time>
      </trkpt>
      <trkpt lat="45.85416" lon="4.76728">
        <ele>417.58755</ele>
        <time>2023-08-05T12:52:53.000Z</time>
      </trkpt>
      <trkpt lat="45.85417" lon="4.76731">
        <ele>416.60333</ele>
        <time>2023-08-05T12:52:54.000Z</time>
      </trkpt>
      <trkpt lat="45.85419" lon="4.76733">
        <ele>415.26685</ele>
        <time>2023-08-05T12:52:55.000Z</time>
      </trkpt>
      <trkpt lat="45.85421" lon="4.76736">
        <ele>413.93744</ele>
        <time>2023-08-05T12:52:56.000Z</time>
      </trkpt>
      <trkpt lat="45.85423" lon="4.76738">
        <ele>412.58252</ele>
        <time>2023-08-05T12:52:57.000Z</time>
      </trkpt>
      <trkpt lat="45.85424" lon="4.7674">
        <ele>410.93857</ele>
        <time>2023-08-05T12:52:58.000Z</time>
      </trkpt>
      <trkpt lat="45.85426" lon="4.76743">
        <ele>409.81924</ele>
        <time>2023-08-05T12:53:00.000Z</time>
      </trkpt>
      <trkpt lat="45.85427" lon="4.76746">
        <ele>408.49075</ele>
        <time>2023-08-05T12:53:01.000Z</time>
      </trkpt>
      <trkpt lat="45.85427" lon="4.76749">
        <ele>407.14899</ele>
        <time>2023-08-05T12:53:02.000Z</time>
      </trkpt>
      <trkpt lat="45.85428" lon="4.76752">
        <ele>405.39276</ele>
        <time>2023-08-05T12:53:03.000Z</time>
      </trkpt>
      <trkpt lat="45.8543" lon="4.76755">
        <ele>404.72617</ele>
        <time>2023-08-05T12:53:05.000Z</time>
      </trkpt>
      <trkpt lat="45.85431" lon="4.76756">
        <ele>404.12885</ele>
        <time>2023-08-05T12:53:10.000Z</time>
      </trkpt>
      <trkpt lat="45.85434" lon="4.76759">
        <ele>403.67078</ele>
        <time>2023-08-05T12:53:22.000Z</time>
      </trkpt>
      <trkpt lat="45.85436" lon="4.76759">
        <ele>403.3927</ele>
        <time>2023-08-05T12:53:23.000Z</time>
      </trkpt>
      <trkpt lat="45.85438" lon="4.7676">
        <ele>402.87546</ele>
        <time>2023-08-05T12:53:24.000Z</time>
      </trkpt>
      <trkpt lat="45.85441" lon="4.76759">
        <ele>402.47931</ele>
        <time>2023-08-05T12:53:25.000Z</time>
      </trkpt>
      <trkpt lat="45.85443" lon="4.76759">
        <ele>402.1955</ele>
        <time>2023-08-05T12:53:26.000Z</time>
      </trkpt>
      <trkpt lat="45.85446" lon="4.76758">
        <ele>402.0412</ele>
        <time>2023-08-05T12:53:27.000Z</time>
      </trkpt>
      <trkpt lat="45.85449" lon="4.76758">
        <ele>401.86548</ele>
        <time>2023-08-05T12:53:28.000Z</time>
      </trkpt>
      <trkpt lat="45.85452" lon="4.76758">
        <ele>401.70636</ele>
        <time>2023-08-05T12:53:29.000Z</time>
      </trkpt>
      <trkpt lat="45.85455" lon="4.76759">
        <ele>401.4411</ele>
        <time>2023-08-05T12:53:30.000Z</time>
      </trkpt>
      <trkpt lat="45.85458" lon="4.7676">
        <ele>401.02805</ele>
        <time>2023-08-05T12:53:31.000Z</time>
      </trkpt>
      <trkpt lat="45.85462" lon="4.76761">
        <ele>400.79913</ele>
        <time>2023-08-05T12:53:32.000Z</time>
      </trkpt>
      <trkpt lat="45.85466" lon="4.76763">
        <ele>400.36304</ele>
        <time>2023-08-05T12:53:33.000Z</time>
      </trkpt>
      <trkpt lat="45.85473" lon="4.7677">
        <ele>399.90698</ele>
        <time>2023-08-05T12:53:34.000Z</time>
      </trkpt>
      <trkpt lat="45.85479" lon="4.76772">
        <ele>399.81512</ele>
        <time>2023-08-05T12:53:35.000Z</time>
      </trkpt>
      <trkpt lat="45.85483" lon="4.76774">
        <ele>399.02521</ele>
        <time>2023-08-05T12:53:36.000Z</time>
      </trkpt>
      <trkpt lat="45.85487" lon="4.76777">
        <ele>397.94376</ele>
        <time>2023-08-05T12:53:37.000Z</time>
      </trkpt>
      <trkpt lat="45.85492" lon="4.76779">
        <ele>396.87909</ele>
        <time>2023-08-05T12:53:38.000Z</time>
      </trkpt>
      <trkpt lat="45.85497" lon="4.76781">
        <ele>396.17737</ele>
        <time>2023-08-05T12:53:39.000Z</time>
      </trkpt>
      <trkpt lat="45.85502" lon="4.76784">
        <ele>395.80551</ele>
        <time>2023-08-05T12:53:40.000Z</time>
      </trkpt>
      <trkpt lat="45.85507" lon="4.76786">
        <ele>396.44528</ele>
        <time>2023-08-05T12:53:41.000Z</time>
      </trkpt>
      <trkpt lat="45.85512" lon="4.76789">
        <ele>397.43658</ele>
        <time>2023-08-05T12:53:42.000Z</time>
      </trkpt>
      <trkpt lat="45.85517" lon="4.76792">
        <ele>398.6254</ele>
        <time>2023-08-05T12:53:43.000Z</time>
      </trkpt>
      <trkpt lat="45.85522" lon="4.76795">
        <ele>400.18494</ele>
        <time>2023-08-05T12:53:44.000Z</time>
      </trkpt>
      <trkpt lat="45.85527" lon="4.76797">
        <ele>401.55255</ele>
        <time>2023-08-05T12:53:45.000Z</time>
      </trkpt>
      <trkpt lat="45.85532" lon="4.768">
        <ele>402.79645</ele>
        <time>2023-08-05T12:53:46.000Z</time>
      </trkpt>
      <trkpt lat="45.85536" lon="4.76803">
        <ele>403.91449</ele>
        <time>2023-08-05T12:53:47.000Z</time>
      </trkpt>
      <trkpt lat="45.85541" lon="4.76805">
        <ele>405.00986</ele>
        <time>2023-08-05T12:53:48.000Z</time>
      </trkpt>
      <trkpt lat="45.85545" lon="4.76808">
        <ele>406.07297</ele>
        <time>2023-08-05T12:53:49.000Z</time>
      </trkpt>
      <trkpt lat="45.85549" lon="4.7681">
        <ele>407.15628</ele>
        <time>2023-08-05T12:53:50.000Z</time>
      </trkpt>
      <trkpt lat="45.85553" lon="4.76812">
        <ele>408.41937</ele>
        <time>2023-08-05T12:53:51.000Z</time>
      </trkpt>
      <trkpt lat="45.85557" lon="4.76814">
        <ele>409.86978</ele>
        <time>2023-08-05T12:53:52.000Z</time>
      </trkpt>
      <trkpt lat="45.85561" lon="4.76817">
        <ele>411.48267</ele>
        <time>2023-08-05T12:53:53.000Z</time>
      </trkpt>
      <trkpt lat="45.85565" lon="4.76819">
        <ele>413.20172</ele>
        <time>2023-08-05T12:53:54.000Z</time>
      </trkpt>
      <trkpt lat="45.85569" lon="4.76821">
        <ele>414.84473</ele>
        <time>2023-08-05T12:53:55.000Z</time>
      </trkpt>
      <trkpt lat="45.85573" lon="4.76826">
        <ele>416.62045</ele>
        <time>2023-08-05T12:53:56.000Z</time>
      </trkpt>
      <trkpt lat="45.85575" lon="4.76831">
        <ele>418.87921</ele>
        <time>2023-08-05T12:53:57.000Z</time>
      </trkpt>
      <trkpt lat="45.85578" lon="4.76836">
        <ele>421.13297</ele>
        <time>2023-08-05T12:53:58.000Z</time>
      </trkpt>
      <trkpt lat="45.85579" lon="4.76843">
        <ele>422.29266</ele>
        <time>2023-08-05T12:53:59.000Z</time>
      </trkpt>
      <trkpt lat="45.85579" lon="4.76851">
        <ele>423.40683</ele>
        <time>2023-08-05T12:54:00.000Z</time>
      </trkpt>
      <trkpt lat="45.85579" lon="4.76857">
        <ele>423.4765</ele>
        <time>2023-08-05T12:54:01.000Z</time>
      </trkpt>
      <trkpt lat="45.85577" lon="4.76864">
        <ele>422.68781</ele>
        <time>2023-08-05T12:54:02.000Z</time>
      </trkpt>
      <trkpt lat="45.85576" lon="4.76872">
        <ele>421.5563</ele>
        <time>2023-08-05T12:54:03.000Z</time>
      </trkpt>
      <trkpt lat="45.85574" lon="4.7688">
        <ele>420.19009</ele>
        <time>2023-08-05T12:54:04.000Z</time>
      </trkpt>
      <trkpt lat="45.85574" lon="4.76889">
        <ele>418.88593</ele>
        <time>2023-08-05T12:54:05.000Z</time>
      </trkpt>
      <trkpt lat="45.85573" lon="4.76897">
        <ele>418.13193</ele>
        <time>2023-08-05T12:54:06.000Z</time>
      </trkpt>
      <trkpt lat="45.85572" lon="4.76907">
        <ele>416.96182</ele>
        <time>2023-08-05T12:54:07.000Z</time>
      </trkpt>
      <trkpt lat="45.85569" lon="4.76915">
        <ele>415.86768</ele>
        <time>2023-08-05T12:54:08.000Z</time>
      </trkpt>
      <trkpt lat="45.85566" lon="4.76926">
        <ele>414.38486</ele>
        <time>2023-08-05T12:54:09.000Z</time>
      </trkpt>
      <trkpt lat="45.85565" lon="4.76936">
        <ele>412.97495</ele>
        <time>2023-08-05T12:54:10.000Z</time>
      </trkpt>
      <trkpt lat="45.85562" lon="4.76945">
        <ele>411.22916</ele>
        <time>2023-08-05T12:54:11.000Z</time>
      </trkpt>
      <trkpt lat="45.85559" lon="4.76955">
        <ele>410.18732</ele>
        <time>2023-08-05T12:54:12.000Z</time>
      </trkpt>
      <trkpt lat="45.85559" lon="4.76964">
        <ele>408.81274</ele>
        <time>2023-08-05T12:54:13.000Z</time>
      </trkpt>
      <trkpt lat="45.8556" lon="4.76973">
        <ele>407.38434</ele>
        <time>2023-08-05T12:54:14.000Z</time>
      </trkpt>
      <trkpt lat="45.85564" lon="4.7698">
        <ele>406.173</ele>
        <time>2023-08-05T12:54:15.000Z</time>
      </trkpt>
      <trkpt lat="45.85569" lon="4.76985">
        <ele>405.81534</ele>
        <time>2023-08-05T12:54:16.000Z</time>
      </trkpt>
      <trkpt lat="45.85574" lon="4.76988">
        <ele>405.49994</ele>
        <time>2023-08-05T12:54:17.000Z</time>
      </trkpt>
      <trkpt lat="45.85579" lon="4.76991">
        <ele>405.1701</ele>
        <time>2023-08-05T12:54:18.000Z</time>
      </trkpt>
      <trkpt lat="45.85584" lon="4.7699">
        <ele>406.01926</ele>
        <time>2023-08-05T12:54:19.000Z</time>
      </trkpt>
      <trkpt lat="45.85588" lon="4.76988">
        <ele>406.72842</ele>
        <time>2023-08-05T12:54:20.000Z</time>
      </trkpt>
      <trkpt lat="45.85592" lon="4.76987">
        <ele>407.38995</ele>
        <time>2023-08-05T12:54:21.000Z</time>
      </trkpt>
      <trkpt lat="45.85596" lon="4.76986">
        <ele>408.3851</ele>
        <time>2023-08-05T12:54:22.000Z</time>
      </trkpt>
      <trkpt lat="45.85599" lon="4.76983">
        <ele>409.42633</ele>
        <time>2023-08-05T12:54:23.000Z</time>
      </trkpt>
      <trkpt lat="45.85602" lon="4.76981">
        <ele>410.36417</ele>
        <time>2023-08-05T12:54:24.000Z</time>
      </trkpt>
      <trkpt lat="45.85605" lon="4.76979">
        <ele>411.24609</ele>
        <time>2023-08-05T12:54:25.000Z</time>
      </trkpt>
      <trkpt lat="45.85608" lon="4.76977">
        <ele>411.5687</ele>
        <time>2023-08-05T12:54:26.000Z</time>
      </trkpt>
      <trkpt lat="45.85611" lon="4.76974">
        <ele>412.271</ele>
        <time>2023-08-05T12:54:27.000Z</time>
      </trkpt>
      <trkpt lat="45.85615" lon="4.76973">
        <ele>412.90942</ele>
        <time>2023-08-05T12:54:28.000Z</time>
      </trkpt>
      <trkpt lat="45.85618" lon="4.76973">
        <ele>413.84848</ele>
        <time>2023-08-05T12:54:29.000Z</time>
      </trkpt>
      <trkpt lat="45.85621" lon="4.76972">
        <ele>414.92416</ele>
        <time>2023-08-05T12:54:30.000Z</time>
      </trkpt>
      <trkpt lat="45.85625" lon="4.76972">
        <ele>416.33414</ele>
        <time>2023-08-05T12:54:31.000Z</time>
      </trkpt>
      <trkpt lat="45.85628" lon="4.76972">
        <ele>417.00421</ele>
        <time>2023-08-05T12:54:32.000Z</time>
      </trkpt>
      <trkpt lat="45.85632" lon="4.76971">
        <ele>418.04657</ele>
        <time>2023-08-05T12:54:33.000Z</time>
      </trkpt>
      <trkpt lat="45.85635" lon="4.76972">
        <ele>419.06161</ele>
        <time>2023-08-05T12:54:34.000Z</time>
      </trkpt>
      <trkpt lat="45.85638" lon="4.76972">
        <ele>419.84799</ele>
        <time>2023-08-05T12:54:35.000Z</time>
      </trkpt>
      <trkpt lat="45.85641" lon="4.76973">
        <ele>419.86139</ele>
        <time>2023-08-05T12:54:36.000Z</time>
      </trkpt>
      <trkpt lat="45.85644" lon="4.76973">
        <ele>419.85547</ele>
        <time>2023-08-05T12:54:37.000Z</time>
      </trkpt>
      <trkpt lat="45.85647" lon="4.76973">
        <ele>419.85742</ele>
        <time>2023-08-05T12:54:38.000Z</time>
      </trkpt>
      <trkpt lat="45.8565" lon="4.76973">
        <ele>419.84579</ele>
        <time>2023-08-05T12:54:39.000Z</time>
      </trkpt>
      <trkpt lat="45.85653" lon="4.76973">
        <ele>419.83746</ele>
        <time>2023-08-05T12:54:40.000Z</time>
      </trkpt>
      <trkpt lat="45.85656" lon="4.76974">
        <ele>419.84717</ele>
        <time>2023-08-05T12:54:41.000Z</time>
      </trkpt>
      <trkpt lat="45.85659" lon="4.76974">
        <ele>419.84344</ele>
        <time>2023-08-05T12:54:42.000Z</time>
      </trkpt>
      <trkpt lat="45.85662" lon="4.76974">
        <ele>418.823</ele>
        <time>2023-08-05T12:54:43.000Z</time>
      </trkpt>
      <trkpt lat="45.85665" lon="4.76975">
        <ele>417.88638</ele>
        <time>2023-08-05T12:54:44.000Z</time>
      </trkpt>
      <trkpt lat="45.85669" lon="4.76975">
        <ele>416.99249</ele>
        <time>2023-08-05T12:54:45.000Z</time>
      </trkpt>
      <trkpt lat="45.85672" lon="4.76975">
        <ele>416.10419</ele>
        <time>2023-08-05T12:54:46.000Z</time>
      </trkpt>
      <trkpt lat="45.85675" lon="4.76974">
        <ele>415.2912</ele>
        <time>2023-08-05T12:54:47.000Z</time>
      </trkpt>
      <trkpt lat="45.85677" lon="4.76974">
        <ele>414.45947</ele>
        <time>2023-08-05T12:54:48.000Z</time>
      </trkpt>
      <trkpt lat="45.85681" lon="4.76973">
        <ele>413.72983</ele>
        <time>2023-08-05T12:54:49.000Z</time>
      </trkpt>
      <trkpt lat="45.85685" lon="4.76972">
        <ele>412.79419</ele>
        <time>2023-08-05T12:54:50.000Z</time>
      </trkpt>
      <trkpt lat="45.85689" lon="4.76972">
        <ele>411.85287</ele>
        <time>2023-08-05T12:54:51.000Z</time>
      </trkpt>
      <trkpt lat="45.85693" lon="4.76972">
        <ele>410.54752</ele>
        <time>2023-08-05T12:54:52.000Z</time>
      </trkpt>
      <trkpt lat="45.85697" lon="4.76971">
        <ele>408.96597</ele>
        <time>2023-08-05T12:54:53.000Z</time>
      </trkpt>
      <trkpt lat="45.85701" lon="4.76971">
        <ele>407.28519</ele>
        <time>2023-08-05T12:54:54.000Z</time>
      </trkpt>
      <trkpt lat="45.85705" lon="4.7697">
        <ele>405.71722</ele>
        <time>2023-08-05T12:54:55.000Z</time>
      </trkpt>
      <trkpt lat="45.8571" lon="4.76969">
        <ele>405.28549</ele>
        <time>2023-08-05T12:54:56.000Z</time>
      </trkpt>
      <trkpt lat="45.85714" lon="4.76968">
        <ele>405.35797</ele>
        <time>2023-08-05T12:54:57.000Z</time>
      </trkpt>
      <trkpt lat="45.85717" lon="4.76967">
        <ele>405.40985</ele>
        <time>2023-08-05T12:54:58.000Z</time>
      </trkpt>
      <trkpt lat="45.85721" lon="4.76966">
        <ele>405.41354</ele>
        <time>2023-08-05T12:54:59.000Z</time>
      </trkpt>
      <trkpt lat="45.85725" lon="4.76965">
        <ele>405.44647</ele>
        <time>2023-08-05T12:55:00.000Z</time>
      </trkpt>
      <trkpt lat="45.85729" lon="4.76964">
        <ele>405.44095</ele>
        <time>2023-08-05T12:55:01.000Z</time>
      </trkpt>
      <trkpt lat="45.85733" lon="4.76963">
        <ele>405.42609</ele>
        <time>2023-08-05T12:55:02.000Z</time>
      </trkpt>
      <trkpt lat="45.85737" lon="4.76962">
        <ele>406.44989</ele>
        <time>2023-08-05T12:55:03.000Z</time>
      </trkpt>
      <trkpt lat="45.85742" lon="4.7696">
        <ele>407.74326</ele>
        <time>2023-08-05T12:55:04.000Z</time>
      </trkpt>
      <trkpt lat="45.85746" lon="4.76959">
        <ele>409.00043</ele>
        <time>2023-08-05T12:55:05.000Z</time>
      </trkpt>
      <trkpt lat="45.8575" lon="4.76959">
        <ele>410.27338</ele>
        <time>2023-08-05T12:55:06.000Z</time>
      </trkpt>
      <trkpt lat="45.85754" lon="4.76959">
        <ele>411.45938</ele>
        <time>2023-08-05T12:55:07.000Z</time>
      </trkpt>
      <trkpt lat="45.85758" lon="4.76961">
        <ele>412.63858</ele>
        <time>2023-08-05T12:55:08.000Z</time>
      </trkpt>
      <trkpt lat="45.85763" lon="4.76962">
        <ele>413.7894</ele>
        <time>2023-08-05T12:55:09.000Z</time>
      </trkpt>
      <trkpt lat="45.85768" lon="4.76961">
        <ele>414.93927</ele>
        <time>2023-08-05T12:55:10.000Z</time>
      </trkpt>
      <trkpt lat="45.85774" lon="4.7696">
        <ele>415.82846</ele>
        <time>2023-08-05T12:55:11.000Z</time>
      </trkpt>
      <trkpt lat="45.85779" lon="4.76959">
        <ele>417.06293</ele>
        <time>2023-08-05T12:55:12.000Z</time>
      </trkpt>
      <trkpt lat="45.85784" lon="4.76958">
        <ele>418.54083</ele>
        <time>2023-08-05T12:55:13.000Z</time>
      </trkpt>
      <trkpt lat="45.85789" lon="4.76959">
        <ele>420.09824</ele>
        <time>2023-08-05T12:55:14.000Z</time>
      </trkpt>
      <trkpt lat="45.85794" lon="4.76959">
        <ele>421.5101</ele>
        <time>2023-08-05T12:55:15.000Z</time>
      </trkpt>
      <trkpt lat="45.858" lon="4.7696">
        <ele>421.74615</ele>
        <time>2023-08-05T12:55:16.000Z</time>
      </trkpt>
      <trkpt lat="45.85803" lon="4.7696">
        <ele>421.48837</ele>
        <time>2023-08-05T12:55:17.000Z</time>
      </trkpt>
      <trkpt lat="45.85805" lon="4.7696">
        <ele>421.24234</ele>
        <time>2023-08-05T12:55:18.000Z</time>
      </trkpt>
      <trkpt lat="45.85807" lon="4.7696">
        <ele>420.99847</ele>
        <time>2023-08-05T12:55:19.000Z</time>
      </trkpt>
      <trkpt lat="45.85808" lon="4.76958">
        <ele>420.75909</ele>
        <time>2023-08-05T12:55:20.000Z</time>
      </trkpt>
      <trkpt lat="45.85811" lon="4.76956">
        <ele>420.4057</ele>
        <time>2023-08-05T12:55:21.000Z</time>
      </trkpt>
      <trkpt lat="45.85813" lon="4.76954">
        <ele>419.16031</ele>
        <time>2023-08-05T12:55:22.000Z</time>
      </trkpt>
      <trkpt lat="45.85816" lon="4.76952">
        <ele>419.0502</ele>
        <time>2023-08-05T12:55:23.000Z</time>
      </trkpt>
      <trkpt lat="45.85818" lon="4.76951">
        <ele>418.4848</ele>
        <time>2023-08-05T12:55:25.000Z</time>
      </trkpt>
      <trkpt lat="45.8582" lon="4.76953">
        <ele>417.8895</ele>
        <time>2023-08-05T12:55:26.000Z</time>
      </trkpt>
      <trkpt lat="45.85817" lon="4.76954">
        <ele>417.27573</ele>
        <time>2023-08-05T12:55:28.000Z</time>
      </trkpt>
      <trkpt lat="45.85816" lon="4.76954">
        <ele>416.68964</ele>
        <time>2023-08-05T12:55:29.000Z</time>
      </trkpt>
      <trkpt lat="45.85813" lon="4.76955">
        <ele>416.1001</ele>
        <time>2023-08-05T12:55:30.000Z</time>
      </trkpt>
      <trkpt lat="45.8581" lon="4.76956">
        <ele>415.5455</ele>
        <time>2023-08-05T12:55:31.000Z</time>
      </trkpt>
      <trkpt lat="45.85807" lon="4.76956">
        <ele>415.02631</ele>
        <time>2023-08-05T12:55:32.000Z</time>
      </trkpt>
      <trkpt lat="45.85804" lon="4.76957">
        <ele>414.80292</ele>
        <time>2023-08-05T12:55:33.000Z</time>
      </trkpt>
      <trkpt lat="45.85802" lon="4.76957">
        <ele>414.58847</ele>
        <time>2023-08-05T12:55:34.000Z</time>
      </trkpt>
      <trkpt lat="45.858" lon="4.76958">
        <ele>414.39154</ele>
        <time>2023-08-05T12:55:35.000Z</time>
      </trkpt>
      <trkpt lat="45.85797" lon="4.76958">
        <ele>414.24683</ele>
        <time>2023-08-05T12:55:36.000Z</time>
      </trkpt>
      <trkpt lat="45.85794" lon="4.76958">
        <ele>414.12671</ele>
        <time>2023-08-05T12:55:37.000Z</time>
      </trkpt>
      <trkpt lat="45.85791" lon="4.76959">
        <ele>412.60077</ele>
        <time>2023-08-05T12:55:38.000Z</time>
      </trkpt>
      <trkpt lat="45.85788" lon="4.76959">
        <ele>411.08575</ele>
        <time>2023-08-05T12:55:39.000Z</time>
      </trkpt>
      <trkpt lat="45.85785" lon="4.76959">
        <ele>409.67685</ele>
        <time>2023-08-05T12:55:40.000Z</time>
      </trkpt>
      <trkpt lat="45.85783" lon="4.76959">
        <ele>408.27643</ele>
        <time>2023-08-05T12:55:41.000Z</time>
      </trkpt>
      <trkpt lat="45.85781" lon="4.76958">
        <ele>406.8992</ele>
        <time>2023-08-05T12:55:42.000Z</time>
      </trkpt>
      <trkpt lat="45.85778" lon="4.76958">
        <ele>405.61005</ele>
        <time>2023-08-05T12:55:43.000Z</time>
      </trkpt>
      <trkpt lat="45.85775" lon="4.76958">
        <ele>405.28091</ele>
        <time>2023-08-05T12:55:44.000Z</time>
      </trkpt>
      <trkpt lat="45.85772" lon="4.76958">
        <ele>403.3869</ele>
        <time>2023-08-05T12:55:45.000Z</time>
      </trkpt>
      <trkpt lat="45.8577" lon="4.76958">
        <ele>402.60562</ele>
        <time>2023-08-05T12:55:46.000Z</time>
      </trkpt>
      <trkpt lat="45.85767" lon="4.76958">
        <ele>402.81418</ele>
        <time>2023-08-05T12:55:47.000Z</time>
      </trkpt>
      <trkpt lat="45.85765" lon="4.76958">
        <ele>403.04291</ele>
        <time>2023-08-05T12:55:48.000Z</time>
      </trkpt>
      <trkpt lat="45.85763" lon="4.76958">
        <ele>403.28745</ele>
        <time>2023-08-05T12:55:49.000Z</time>
      </trkpt>
      <trkpt lat="45.85761" lon="4.76957">
        <ele>403.56024</ele>
        <time>2023-08-05T12:55:50.000Z</time>
      </trkpt>
      <trkpt lat="45.85758" lon="4.76956">
        <ele>403.80621</ele>
        <time>2023-08-05T12:55:51.000Z</time>
      </trkpt>
      <trkpt lat="45.85756" lon="4.76955">
        <ele>404.3931</ele>
        <time>2023-08-05T12:55:53.000Z</time>
      </trkpt>
      <trkpt lat="45.85754" lon="4.76956">
        <ele>404.97137</ele>
        <time>2023-08-05T12:55:55.000Z</time>
      </trkpt>
      <trkpt lat="45.85756" lon="4.76956">
        <ele>405.48871</ele>
        <time>2023-08-05T12:56:11.000Z</time>
      </trkpt>
      <trkpt lat="45.85757" lon="4.76954">
        <ele>406.03665</ele>
        <time>2023-08-05T12:56:22.000Z</time>
      </trkpt>
      <trkpt lat="45.85759" lon="4.76953">
        <ele>406.53461</ele>
        <time>2023-08-05T12:56:25.000Z</time>
      </trkpt>
      <trkpt lat="45.85761" lon="4.76953">
        <ele>407.03888</ele>
        <time>2023-08-05T12:56:26.000Z</time>
      </trkpt>
      <trkpt lat="45.85765" lon="4.76954">
        <ele>408.89587</ele>
        <time>2023-08-05T12:56:28.000Z</time>
      </trkpt>
      <trkpt lat="45.85767" lon="4.76954">
        <ele>410.73358</ele>
        <time>2023-08-05T12:56:29.000Z</time>
      </trkpt>
      <trkpt lat="45.85769" lon="4.76955">
        <ele>412.44467</ele>
        <time>2023-08-05T12:56:30.000Z</time>
      </trkpt>
      <trkpt lat="45.85771" lon="4.76955">
        <ele>414.11859</ele>
        <time>2023-08-05T12:56:31.000Z</time>
      </trkpt>
      <trkpt lat="45.85773" lon="4.76956">
        <ele>415.76456</ele>
        <time>2023-08-05T12:56:34.000Z</time>
      </trkpt>
      <trkpt lat="45.85775" lon="4.76955">
        <ele>417.43353</ele>
        <time>2023-08-05T12:56:43.000Z</time>
      </trkpt>
      <trkpt lat="45.85777" lon="4.76954">
        <ele>419.01532</ele>
        <time>2023-08-05T12:56:44.000Z</time>
      </trkpt>
      <trkpt lat="45.8578" lon="4.76953">
        <ele>421.01123</ele>
        <time>2023-08-05T12:56:45.000Z</time>
      </trkpt>
      <trkpt lat="45.85783" lon="4.76953">
        <ele>421.05817</ele>
        <time>2023-08-05T12:56:46.000Z</time>
      </trkpt>
      <trkpt lat="45.85786" lon="4.76954">
        <ele>420.1438</ele>
        <time>2023-08-05T12:56:47.000Z</time>
      </trkpt>
      <trkpt lat="45.85791" lon="4.76955">
        <ele>419.19922</ele>
        <time>2023-08-05T12:56:48.000Z</time>
      </trkpt>
      <trkpt lat="45.85796" lon="4.76956">
        <ele>418.22528</ele>
        <time>2023-08-05T12:56:49.000Z</time>
      </trkpt>
      <trkpt lat="45.858" lon="4.76954">
        <ele>417.27216</ele>
        <time>2023-08-05T12:56:50.000Z</time>
      </trkpt>
      <trkpt lat="45.85805" lon="4.76953">
        <ele>416.30243</ele>
        <time>2023-08-05T12:56:51.000Z</time>
      </trkpt>
      <trkpt lat="45.85811" lon="4.76953">
        <ele>414.91177</ele>
        <time>2023-08-05T12:56:52.000Z</time>
      </trkpt>
      <trkpt lat="45.85818" lon="4.76951">
        <ele>413.50421</ele>
        <time>2023-08-05T12:56:53.000Z</time>
      </trkpt>
      <trkpt lat="45.85824" lon="4.76951">
        <ele>412.16992</ele>
        <time>2023-08-05T12:56:54.000Z</time>
      </trkpt>
      <trkpt lat="45.8583" lon="4.76949">
        <ele>410.81207</ele>
        <time>2023-08-05T12:56:55.000Z</time>
      </trkpt>
      <trkpt lat="45.85836" lon="4.76948">
        <ele>409.48944</ele>
        <time>2023-08-05T12:56:56.000Z</time>
      </trkpt>
      <trkpt lat="45.85842" lon="4.76947">
        <ele>408.17609</ele>
        <time>2023-08-05T12:56:57.000Z</time>
      </trkpt>
      <trkpt lat="45.85848" lon="4.76944">
        <ele>406.87268</ele>
        <time>2023-08-05T12:56:58.000Z</time>
      </trkpt>
      <trkpt lat="45.85856" lon="4.76944">
        <ele>405.56573</ele>
        <time>2023-08-05T12:56:59.000Z</time>
      </trkpt>
      <trkpt lat="45.85862" lon="4.76945">
        <ele>404.25281</ele>
        <time>2023-08-05T12:57:00.000Z</time>
      </trkpt>
      <trkpt lat="45.8587" lon="4.76945">
        <ele>402.97476</ele>
        <time>2023-08-05T12:57:01.000Z</time>
      </trkpt>
      <trkpt lat="45.85877" lon="4.76945">
        <ele>401.66724</ele>
        <time>2023-08-05T12:57:02.000Z</time>
      </trkpt>
      <trkpt lat="45.85884" lon="4.76947">
        <ele>400.35135</ele>
        <time>2023-08-05T12:57:03.000Z</time>
      </trkpt>
      <trkpt lat="45.85891" lon="4.7695">
        <ele>398.73032</ele>
        <time>2023-08-05T12:57:04.000Z</time>
      </trkpt>
      <trkpt lat="45.85897" lon="4.76954">
        <ele>398.50613</ele>
        <time>2023-08-05T12:57:05.000Z</time>
      </trkpt>
      <trkpt lat="45.85901" lon="4.7696">
        <ele>399.30603</ele>
        <time>2023-08-05T12:57:06.000Z</time>
      </trkpt>
      <trkpt lat="45.85904" lon="4.76966">
        <ele>400.01154</ele>
        <time>2023-08-05T12:57:07.000Z</time>
      </trkpt>
      <trkpt lat="45.85906" lon="4.76973">
        <ele>400.7406</ele>
        <time>2023-08-05T12:57:08.000Z</time>
      </trkpt>
      <trkpt lat="45.85907" lon="4.76978">
        <ele>401.54001</ele>
        <time>2023-08-05T12:57:09.000Z</time>
      </trkpt>
      <trkpt lat="45.85908" lon="4.76986">
        <ele>402.28036</ele>
        <time>2023-08-05T12:57:10.000Z</time>
      </trkpt>
      <trkpt lat="45.85908" lon="4.76993">
        <ele>402.95425</ele>
        <time>2023-08-05T12:57:11.000Z</time>
      </trkpt>
      <trkpt lat="45.85908" lon="4.77">
        <ele>403.69305</ele>
        <time>2023-08-05T12:57:12.000Z</time>
      </trkpt>
      <trkpt lat="45.85909" lon="4.77008">
        <ele>404.4173</ele>
        <time>2023-08-05T12:57:13.000Z</time>
      </trkpt>
      <trkpt lat="45.85909" lon="4.77015">
        <ele>405.11694</ele>
        <time>2023-08-05T12:57:14.000Z</time>
      </trkpt>
      <trkpt lat="45.85909" lon="4.77022">
        <ele>405.83603</ele>
        <time>2023-08-05T12:57:15.000Z</time>
      </trkpt>
      <trkpt lat="45.85912" lon="4.77029">
        <ele>406.52643</ele>
        <time>2023-08-05T12:57:16.000Z</time>
      </trkpt>
      <trkpt lat="45.85914" lon="4.77036">
        <ele>406.02902</ele>
        <time>2023-08-05T12:57:17.000Z</time>
      </trkpt>
      <trkpt lat="45.85917" lon="4.77039">
        <ele>405.55652</ele>
        <time>2023-08-05T12:57:18.000Z</time>
      </trkpt>
      <trkpt lat="45.8592" lon="4.77038">
        <ele>404.97159</ele>
        <time>2023-08-05T12:57:19.000Z</time>
      </trkpt>
      <trkpt lat="45.85922" lon="4.77037">
        <ele>404.6022</ele>
        <time>2023-08-05T12:57:20.000Z</time>
      </trkpt>
      <trkpt lat="45.85925" lon="4.77037">
        <ele>404.29974</ele>
        <time>2023-08-05T12:57:21.000Z</time>
      </trkpt>
      <trkpt lat="45.85928" lon="4.77035">
        <ele>403.91891</ele>
        <time>2023-08-05T12:57:22.000Z</time>
      </trkpt>
      <trkpt lat="45.85931" lon="4.77034">
        <ele>403.6181</ele>
        <time>2023-08-05T12:57:23.000Z</time>
      </trkpt>
      <trkpt lat="45.85933" lon="4.77033">
        <ele>403.66687</ele>
        <time>2023-08-05T12:57:24.000Z</time>
      </trkpt>
      <trkpt lat="45.85937" lon="4.7703">
        <ele>402.30951</ele>
        <time>2023-08-05T12:57:25.000Z</time>
      </trkpt>
      <trkpt lat="45.85942" lon="4.77028">
        <ele>401.03119</ele>
        <time>2023-08-05T12:57:26.000Z</time>
      </trkpt>
      <trkpt lat="45.85946" lon="4.77027">
        <ele>399.78583</ele>
        <time>2023-08-05T12:57:27.000Z</time>
      </trkpt>
      <trkpt lat="45.8595" lon="4.77023">
        <ele>398.39764</ele>
        <time>2023-08-05T12:57:28.000Z</time>
      </trkpt>
      <trkpt lat="45.85956" lon="4.7702">
        <ele>396.8501</ele>
        <time>2023-08-05T12:57:29.000Z</time>
      </trkpt>
      <trkpt lat="45.85961" lon="4.77018">
        <ele>395.53177</ele>
        <time>2023-08-05T12:57:30.000Z</time>
      </trkpt>
      <trkpt lat="45.85966" lon="4.77014">
        <ele>394.30432</ele>
        <time>2023-08-05T12:57:31.000Z</time>
      </trkpt>
      <trkpt lat="45.85972" lon="4.77012">
        <ele>393.08984</ele>
        <time>2023-08-05T12:57:32.000Z</time>
      </trkpt>
      <trkpt lat="45.85979" lon="4.77009">
        <ele>391.95526</ele>
        <time>2023-08-05T12:57:33.000Z</time>
      </trkpt>
      <trkpt lat="45.85985" lon="4.77006">
        <ele>390.67694</ele>
        <time>2023-08-05T12:57:34.000Z</time>
      </trkpt>
      <trkpt lat="45.85991" lon="4.77005">
        <ele>389.38818</ele>
        <time>2023-08-05T12:57:35.000Z</time>
      </trkpt>
      <trkpt lat="45.85997" lon="4.77005">
        <ele>388.23416</ele>
        <time>2023-08-05T12:57:36.000Z</time>
      </trkpt>
      <trkpt lat="45.86004" lon="4.77003">
        <ele>388.27615</ele>
        <time>2023-08-05T12:57:37.000Z</time>
      </trkpt>
      <trkpt lat="45.86009" lon="4.77002">
        <ele>388.15054</ele>
        <time>2023-08-05T12:57:38.000Z</time>
      </trkpt>
      <trkpt lat="45.86014" lon="4.77">
        <ele>388.20886</ele>
        <time>2023-08-05T12:57:39.000Z</time>
      </trkpt>
      <trkpt lat="45.86021" lon="4.76998">
        <ele>388.12238</ele>
        <time>2023-08-05T12:57:40.000Z</time>
      </trkpt>
      <trkpt lat="45.86027" lon="4.76997">
        <ele>388.04642</ele>
        <time>2023-08-05T12:57:41.000Z</time>
      </trkpt>
      <trkpt lat="45.86034" lon="4.76994">
        <ele>388.09637</ele>
        <time>2023-08-05T12:57:42.000Z</time>
      </trkpt>
      <trkpt lat="45.86041" lon="4.76992">
        <ele>388.08481</ele>
        <time>2023-08-05T12:57:43.000Z</time>
      </trkpt>
      <trkpt lat="45.86046" lon="4.76992">
        <ele>389.24078</ele>
        <time>2023-08-05T12:57:44.000Z</time>
      </trkpt>
      <trkpt lat="45.86051" lon="4.76991">
        <ele>390.33771</ele>
        <time>2023-08-05T12:57:45.000Z</time>
      </trkpt>
      <trkpt lat="45.86056" lon="4.76989">
        <ele>391.35791</ele>
        <time>2023-08-05T12:57:46.000Z</time>
      </trkpt>
      <trkpt lat="45.86061" lon="4.76986">
        <ele>392.46301</ele>
        <time>2023-08-05T12:57:47.000Z</time>
      </trkpt>
      <trkpt lat="45.86066" lon="4.76984">
        <ele>393.65601</ele>
        <time>2023-08-05T12:57:48.000Z</time>
      </trkpt>
      <trkpt lat="45.86072" lon="4.76981">
        <ele>394.92776</ele>
        <time>2023-08-05T12:57:49.000Z</time>
      </trkpt>
      <trkpt lat="45.86078" lon="4.76978">
        <ele>395.9585</ele>
        <time>2023-08-05T12:57:50.000Z</time>
      </trkpt>
      <trkpt lat="45.86086" lon="4.76976">
        <ele>396.9505</ele>
        <time>2023-08-05T12:57:51.000Z</time>
      </trkpt>
      <trkpt lat="45.86094" lon="4.76974">
        <ele>397.96704</ele>
        <time>2023-08-05T12:57:52.000Z</time>
      </trkpt>
      <trkpt lat="45.86103" lon="4.7697">
        <ele>398.62604</ele>
        <time>2023-08-05T12:57:53.000Z</time>
      </trkpt>
      <trkpt lat="45.86111" lon="4.76966">
        <ele>398.17056</ele>
        <time>2023-08-05T12:57:54.000Z</time>
      </trkpt>
      <trkpt lat="45.86119" lon="4.76963">
        <ele>397.64737</ele>
        <time>2023-08-05T12:57:55.000Z</time>
      </trkpt>
      <trkpt lat="45.86128" lon="4.76959">
        <ele>396.96585</ele>
        <time>2023-08-05T12:57:56.000Z</time>
      </trkpt>
      <trkpt lat="45.86136" lon="4.76956">
        <ele>396.09702</ele>
        <time>2023-08-05T12:57:57.000Z</time>
      </trkpt>
      <trkpt lat="45.86142" lon="4.76953">
        <ele>395.82745</ele>
        <time>2023-08-05T12:57:58.000Z</time>
      </trkpt>
      <trkpt lat="45.86147" lon="4.7695">
        <ele>395.40216</ele>
        <time>2023-08-05T12:57:59.000Z</time>
      </trkpt>
      <trkpt lat="45.86151" lon="4.76949">
        <ele>394.91766</ele>
        <time>2023-08-05T12:58:00.000Z</time>
      </trkpt>
      <trkpt lat="45.86154" lon="4.76949">
        <ele>394.36334</ele>
        <time>2023-08-05T12:58:01.000Z</time>
      </trkpt>
      <trkpt lat="45.86156" lon="4.76948">
        <ele>393.77643</ele>
        <time>2023-08-05T12:58:02.000Z</time>
      </trkpt>
      <trkpt lat="45.86158" lon="4.76946">
        <ele>393.17429</ele>
        <time>2023-08-05T12:58:03.000Z</time>
      </trkpt>
      <trkpt lat="45.8616" lon="4.76945">
        <ele>391.02002</ele>
        <time>2023-08-05T12:58:04.000Z</time>
      </trkpt>
      <trkpt lat="45.86163" lon="4.76944">
        <ele>389.64093</ele>
        <time>2023-08-05T12:58:05.000Z</time>
      </trkpt>
      <trkpt lat="45.86166" lon="4.76946">
        <ele>388.26578</ele>
        <time>2023-08-05T12:58:06.000Z</time>
      </trkpt>
      <trkpt lat="45.86167" lon="4.76949">
        <ele>386.91022</ele>
        <time>2023-08-05T12:58:07.000Z</time>
      </trkpt>
      <trkpt lat="45.86166" lon="4.76952">
        <ele>386.19781</ele>
        <time>2023-08-05T12:58:08.000Z</time>
      </trkpt>
      <trkpt lat="45.86166" lon="4.76956">
        <ele>385.60931</ele>
        <time>2023-08-05T12:58:09.000Z</time>
      </trkpt>
      <trkpt lat="45.86167" lon="4.7696">
        <ele>385.25101</ele>
        <time>2023-08-05T12:58:10.000Z</time>
      </trkpt>
      <trkpt lat="45.86168" lon="4.76963">
        <ele>384.9516</ele>
        <time>2023-08-05T12:58:11.000Z</time>
      </trkpt>
      <trkpt lat="45.86169" lon="4.76967">
        <ele>384.61749</ele>
        <time>2023-08-05T12:58:12.000Z</time>
      </trkpt>
      <trkpt lat="45.8617" lon="4.76972">
        <ele>384.61514</ele>
        <time>2023-08-05T12:58:13.000Z</time>
      </trkpt>
      <trkpt lat="45.8617" lon="4.76977">
        <ele>385.33432</ele>
        <time>2023-08-05T12:58:14.000Z</time>
      </trkpt>
      <trkpt lat="45.8617" lon="4.76981">
        <ele>386.13971</ele>
        <time>2023-08-05T12:58:15.000Z</time>
      </trkpt>
      <trkpt lat="45.8617" lon="4.76986">
        <ele>387.00281</ele>
        <time>2023-08-05T12:58:16.000Z</time>
      </trkpt>
      <trkpt lat="45.8617" lon="4.76991">
        <ele>388.03888</ele>
        <time>2023-08-05T12:58:17.000Z</time>
      </trkpt>
      <trkpt lat="45.8617" lon="4.76995">
        <ele>388.69781</ele>
        <time>2023-08-05T12:58:18.000Z</time>
      </trkpt>
      <trkpt lat="45.86171" lon="4.77">
        <ele>389.47321</ele>
        <time>2023-08-05T12:58:19.000Z</time>
      </trkpt>
      <trkpt lat="45.86171" lon="4.77005">
        <ele>390.30765</ele>
        <time>2023-08-05T12:58:20.000Z</time>
      </trkpt>
      <trkpt lat="45.86171" lon="4.7701">
        <ele>391.17218</ele>
        <time>2023-08-05T12:58:21.000Z</time>
      </trkpt>
      <trkpt lat="45.86172" lon="4.77015">
        <ele>392.08865</ele>
        <time>2023-08-05T12:58:22.000Z</time>
      </trkpt>
      <trkpt lat="45.86172" lon="4.77019">
        <ele>393.08374</ele>
        <time>2023-08-05T12:58:23.000Z</time>
      </trkpt>
      <trkpt lat="45.86172" lon="4.77023">
        <ele>394.45813</ele>
        <time>2023-08-05T12:58:24.000Z</time>
      </trkpt>
      <trkpt lat="45.86173" lon="4.77027">
        <ele>395.15778</ele>
        <time>2023-08-05T12:58:25.000Z</time>
      </trkpt>
      <trkpt lat="45.86173" lon="4.77031">
        <ele>395.88461</ele>
        <time>2023-08-05T12:58:26.000Z</time>
      </trkpt>
      <trkpt lat="45.86174" lon="4.77035">
        <ele>396.59918</ele>
        <time>2023-08-05T12:58:27.000Z</time>
      </trkpt>
      <trkpt lat="45.86174" lon="4.77038">
        <ele>396.74481</ele>
        <time>2023-08-05T12:58:28.000Z</time>
      </trkpt>
      <trkpt lat="45.86175" lon="4.77042">
        <ele>396.81989</ele>
        <time>2023-08-05T12:58:29.000Z</time>
      </trkpt>
      <trkpt lat="45.86175" lon="4.77045">
        <ele>396.74927</ele>
        <time>2023-08-05T12:58:30.000Z</time>
      </trkpt>
      <trkpt lat="45.86175" lon="4.77048">
        <ele>396.66946</ele>
        <time>2023-08-05T12:58:31.000Z</time>
      </trkpt>
      <trkpt lat="45.86175" lon="4.77052">
        <ele>396.61804</ele>
        <time>2023-08-05T12:58:32.000Z</time>
      </trkpt>
      <trkpt lat="45.86175" lon="4.77056">
        <ele>396.56903</ele>
        <time>2023-08-05T12:58:33.000Z</time>
      </trkpt>
      <trkpt lat="45.86176" lon="4.77059">
        <ele>397.10703</ele>
        <time>2023-08-05T12:58:34.000Z</time>
      </trkpt>
      <trkpt lat="45.86176" lon="4.77063">
        <ele>397.64151</ele>
        <time>2023-08-05T12:58:35.000Z</time>
      </trkpt>
      <trkpt lat="45.86176" lon="4.77067">
        <ele>398.18967</ele>
        <time>2023-08-05T12:58:36.000Z</time>
      </trkpt>
      <trkpt lat="45.86176" lon="4.77071">
        <ele>398.73398</ele>
        <time>2023-08-05T12:58:37.000Z</time>
      </trkpt>
      <trkpt lat="45.86177" lon="4.77075">
        <ele>399.25311</ele>
        <time>2023-08-05T12:58:38.000Z</time>
      </trkpt>
      <trkpt lat="45.86177" lon="4.77079">
        <ele>399.78168</ele>
        <time>2023-08-05T12:58:39.000Z</time>
      </trkpt>
      <trkpt lat="45.86177" lon="4.77083">
        <ele>400.28088</ele>
        <time>2023-08-05T12:58:40.000Z</time>
      </trkpt>
      <trkpt lat="45.86177" lon="4.77086">
        <ele>400.7735</ele>
        <time>2023-08-05T12:58:41.000Z</time>
      </trkpt>
      <trkpt lat="45.86176" lon="4.7709">
        <ele>401.23428</ele>
        <time>2023-08-05T12:58:42.000Z</time>
      </trkpt>
      <trkpt lat="45.86175" lon="4.77092">
        <ele>401.66498</ele>
        <time>2023-08-05T12:58:43.000Z</time>
      </trkpt>
      <trkpt lat="45.86173" lon="4.77096">
        <ele>402.00198</ele>
        <time>2023-08-05T12:58:45.000Z</time>
      </trkpt>
      <trkpt lat="45.86172" lon="4.77098">
        <ele>402.24228</ele>
        <time>2023-08-05T12:58:46.000Z</time>
      </trkpt>
      <trkpt lat="45.86172" lon="4.77102">
        <ele>402.45755</ele>
        <time>2023-08-05T12:58:47.000Z</time>
      </trkpt>
      <trkpt lat="45.86172" lon="4.77105">
        <ele>402.86475</ele>
        <time>2023-08-05T12:58:48.000Z</time>
      </trkpt>
      <trkpt lat="45.86172" lon="4.77108">
        <ele>403.22189</ele>
        <time>2023-08-05T12:58:49.000Z</time>
      </trkpt>
      <trkpt lat="45.86171" lon="4.77112">
        <ele>403.55988</ele>
        <time>2023-08-05T12:58:50.000Z</time>
      </trkpt>
      <trkpt lat="45.86171" lon="4.77116">
        <ele>403.8844</ele>
        <time>2023-08-05T12:58:51.000Z</time>
      </trkpt>
      <trkpt lat="45.86171" lon="4.7712">
        <ele>404.1922</ele>
        <time>2023-08-05T12:58:52.000Z</time>
      </trkpt>
      <trkpt lat="45.86171" lon="4.77124">
        <ele>404.47711</ele>
        <time>2023-08-05T12:58:53.000Z</time>
      </trkpt>
      <trkpt lat="45.8617" lon="4.77127">
        <ele>404.78058</ele>
        <time>2023-08-05T12:58:54.000Z</time>
      </trkpt>
      <trkpt lat="45.86169" lon="4.77131">
        <ele>405.08325</ele>
        <time>2023-08-05T12:58:55.000Z</time>
      </trkpt>
      <trkpt lat="45.86168" lon="4.77134">
        <ele>405.38153</ele>
        <time>2023-08-05T12:58:56.000Z</time>
      </trkpt>
      <trkpt lat="45.86167" lon="4.77136">
        <ele>405.63861</ele>
        <time>2023-08-05T12:58:57.000Z</time>
      </trkpt>
      <trkpt lat="45.86166" lon="4.77139">
        <ele>405.91083</ele>
        <time>2023-08-05T12:58:58.000Z</time>
      </trkpt>
      <trkpt lat="45.86164" lon="4.77141">
        <ele>406.21112</ele>
        <time>2023-08-05T12:58:59.000Z</time>
      </trkpt>
      <trkpt lat="45.86163" lon="4.77143">
        <ele>406.7218</ele>
        <time>2023-08-05T12:59:00.000Z</time>
      </trkpt>
      <trkpt lat="45.86162" lon="4.77146">
        <ele>407.2287</ele>
        <time>2023-08-05T12:59:01.000Z</time>
      </trkpt>
      <trkpt lat="45.86161" lon="4.77149">
        <ele>407.80841</ele>
        <time>2023-08-05T12:59:02.000Z</time>
      </trkpt>
      <trkpt lat="45.86161" lon="4.77152">
        <ele>408.42462</ele>
        <time>2023-08-05T12:59:03.000Z</time>
      </trkpt>
      <trkpt lat="45.8616" lon="4.77154">
        <ele>409.01035</ele>
        <time>2023-08-05T12:59:04.000Z</time>
      </trkpt>
      <trkpt lat="45.86157" lon="4.77158">
        <ele>409.68082</ele>
        <time>2023-08-05T12:59:06.000Z</time>
      </trkpt>
      <trkpt lat="45.86156" lon="4.7716">
        <ele>410.42548</ele>
        <time>2023-08-05T12:59:07.000Z</time>
      </trkpt>
      <trkpt lat="45.86154" lon="4.77163">
        <ele>411.20078</ele>
        <time>2023-08-05T12:59:08.000Z</time>
      </trkpt>
      <trkpt lat="45.86153" lon="4.77166">
        <ele>411.78046</ele>
        <time>2023-08-05T12:59:09.000Z</time>
      </trkpt>
      <trkpt lat="45.86152" lon="4.77169">
        <ele>412.40863</ele>
        <time>2023-08-05T12:59:10.000Z</time>
      </trkpt>
      <trkpt lat="45.8615" lon="4.77172">
        <ele>413.04462</ele>
        <time>2023-08-05T12:59:11.000Z</time>
      </trkpt>
      <trkpt lat="45.86149" lon="4.77175">
        <ele>413.68222</ele>
        <time>2023-08-05T12:59:12.000Z</time>
      </trkpt>
      <trkpt lat="45.86148" lon="4.77178">
        <ele>414.32526</ele>
        <time>2023-08-05T12:59:13.000Z</time>
      </trkpt>
      <trkpt lat="45.86147" lon="4.7718">
        <ele>414.97568</ele>
        <time>2023-08-05T12:59:14.000Z</time>
      </trkpt>
      <trkpt lat="45.86145" lon="4.77182">
        <ele>415.67441</ele>
        <time>2023-08-05T12:59:15.000Z</time>
      </trkpt>
      <trkpt lat="45.86143" lon="4.77184">
        <ele>416.3869</ele>
        <time>2023-08-05T12:59:16.000Z</time>
      </trkpt>
      <trkpt lat="45.86141" lon="4.77185">
        <ele>417.08295</ele>
        <time>2023-08-05T12:59:17.000Z</time>
      </trkpt>
      <trkpt lat="45.86139" lon="4.77185">
        <ele>417.81903</ele>
        <time>2023-08-05T12:59:18.000Z</time>
      </trkpt>
      <trkpt lat="45.86136" lon="4.77185">
        <ele>418.54132</ele>
        <time>2023-08-05T12:59:19.000Z</time>
      </trkpt>
      <trkpt lat="45.86133" lon="4.77186">
        <ele>419.22296</ele>
        <time>2023-08-05T12:59:20.000Z</time>
      </trkpt>
      <trkpt lat="45.86131" lon="4.77186">
        <ele>419.66162</ele>
        <time>2023-08-05T12:59:21.000Z</time>
      </trkpt>
      <trkpt lat="45.86128" lon="4.77186">
        <ele>420.09628</ele>
        <time>2023-08-05T12:59:22.000Z</time>
      </trkpt>
      <trkpt lat="45.86125" lon="4.77187">
        <ele>420.43939</ele>
        <time>2023-08-05T12:59:23.000Z</time>
      </trkpt>
      <trkpt lat="45.86123" lon="4.77187">
        <ele>420.76068</ele>
        <time>2023-08-05T12:59:24.000Z</time>
      </trkpt>
      <trkpt lat="45.8612" lon="4.77187">
        <ele>421.14935</ele>
        <time>2023-08-05T12:59:25.000Z</time>
      </trkpt>
      <trkpt lat="45.86117" lon="4.77186">
        <ele>421.52213</ele>
        <time>2023-08-05T12:59:26.000Z</time>
      </trkpt>
      <trkpt lat="45.86115" lon="4.77186">
        <ele>421.90439</ele>
        <time>2023-08-05T12:59:27.000Z</time>
      </trkpt>
      <trkpt lat="45.86112" lon="4.77186">
        <ele>422.29572</ele>
        <time>2023-08-05T12:59:28.000Z</time>
      </trkpt>
      <trkpt lat="45.8611" lon="4.77185">
        <ele>422.69269</ele>
        <time>2023-08-05T12:59:29.000Z</time>
      </trkpt>
      <trkpt lat="45.86108" lon="4.77185">
        <ele>423.08472</ele>
        <time>2023-08-05T12:59:30.000Z</time>
      </trkpt>
      <trkpt lat="45.86105" lon="4.77184">
        <ele>423.45889</ele>
        <time>2023-08-05T12:59:31.000Z</time>
      </trkpt>
      <trkpt lat="45.86103" lon="4.77184">
        <ele>423.82739</ele>
        <time>2023-08-05T12:59:32.000Z</time>
      </trkpt>
      <trkpt lat="45.861" lon="4.77182">
        <ele>424.18268</ele>
        <time>2023-08-05T12:59:33.000Z</time>
      </trkpt>
      <trkpt lat="45.86098" lon="4.77181">
        <ele>424.55014</ele>
        <time>2023-08-05T12:59:34.000Z</time>
      </trkpt>
      <trkpt lat="45.86096" lon="4.7718">
        <ele>424.82062</ele>
        <time>2023-08-05T12:59:35.000Z</time>
      </trkpt>
      <trkpt lat="45.86093" lon="4.77179">
        <ele>425.05893</ele>
        <time>2023-08-05T12:59:36.000Z</time>
      </trkpt>
      <trkpt lat="45.86091" lon="4.77179">
        <ele>425.30313</ele>
        <time>2023-08-05T12:59:37.000Z</time>
      </trkpt>
      <trkpt lat="45.86088" lon="4.77178">
        <ele>425.52228</ele>
        <time>2023-08-05T12:59:38.000Z</time>
      </trkpt>
      <trkpt lat="45.86085" lon="4.77178">
        <ele>425.7652</ele>
        <time>2023-08-05T12:59:39.000Z</time>
      </trkpt>
      <trkpt lat="45.86083" lon="4.77177">
        <ele>426.02466</ele>
        <time>2023-08-05T12:59:40.000Z</time>
      </trkpt>
      <trkpt lat="45.8608" lon="4.77178">
        <ele>426.27774</ele>
        <time>2023-08-05T12:59:41.000Z</time>
      </trkpt>
      <trkpt lat="45.86077" lon="4.77178">
        <ele>426.57162</ele>
        <time>2023-08-05T12:59:42.000Z</time>
      </trkpt>
      <trkpt lat="45.86075" lon="4.77178">
        <ele>426.89453</ele>
        <time>2023-08-05T12:59:43.000Z</time>
      </trkpt>
      <trkpt lat="45.86072" lon="4.77178">
        <ele>427.17838</ele>
        <time>2023-08-05T12:59:44.000Z</time>
      </trkpt>
      <trkpt lat="45.8607" lon="4.77177">
        <ele>427.41977</ele>
        <time>2023-08-05T12:59:45.000Z</time>
      </trkpt>
      <trkpt lat="45.86067" lon="4.77177">
        <ele>427.61679</ele>
        <time>2023-08-05T12:59:46.000Z</time>
      </trkpt>
      <trkpt lat="45.86065" lon="4.77177">
        <ele>427.78702</ele>
        <time>2023-08-05T12:59:47.000Z</time>
      </trkpt>
      <trkpt lat="45.86062" lon="4.77177">
        <ele>428.06525</ele>
        <time>2023-08-05T12:59:48.000Z</time>
      </trkpt>
      <trkpt lat="45.86059" lon="4.77177">
        <ele>428.3129</ele>
        <time>2023-08-05T12:59:49.000Z</time>
      </trkpt>
      <trkpt lat="45.86057" lon="4.77179">
        <ele>428.56226</ele>
        <time>2023-08-05T12:59:50.000Z</time>
      </trkpt>
      <trkpt lat="45.86055" lon="4.77183">
        <ele>428.78897</ele>
        <time>2023-08-05T12:59:52.000Z</time>
      </trkpt>
      <trkpt lat="45.86055" lon="4.77186">
        <ele>427.94879</ele>
        <time>2023-08-05T12:59:53.000Z</time>
      </trkpt>
      <trkpt lat="45.86054" lon="4.77189">
        <ele>427.18661</ele>
        <time>2023-08-05T12:59:54.000Z</time>
      </trkpt>
      <trkpt lat="45.86053" lon="4.77192">
        <ele>426.3558</ele>
        <time>2023-08-05T12:59:55.000Z</time>
      </trkpt>
      <trkpt lat="45.86051" lon="4.77196">
        <ele>425.57797</ele>
        <time>2023-08-05T12:59:56.000Z</time>
      </trkpt>
      <trkpt lat="45.8605" lon="4.77198">
        <ele>424.75861</ele>
        <time>2023-08-05T12:59:57.000Z</time>
      </trkpt>
      <trkpt lat="45.8605" lon="4.77201">
        <ele>424.97925</ele>
        <time>2023-08-05T12:59:58.000Z</time>
      </trkpt>
      <trkpt lat="45.86049" lon="4.77203">
        <ele>425.23935</ele>
        <time>2023-08-05T12:59:59.000Z</time>
      </trkpt>
      <trkpt lat="45.86048" lon="4.77206">
        <ele>425.39932</ele>
        <time>2023-08-05T13:00:01.000Z</time>
      </trkpt>
      <trkpt lat="45.86048" lon="4.77209">
        <ele>425.67725</ele>
        <time>2023-08-05T13:00:19.000Z</time>
      </trkpt>
      <trkpt lat="45.86049" lon="4.77211">
        <ele>425.98218</ele>
        <time>2023-08-05T13:00:24.000Z</time>
      </trkpt>
      <trkpt lat="45.86047" lon="4.77213">
        <ele>426.18317</ele>
        <time>2023-08-05T13:00:27.000Z</time>
      </trkpt>
      <trkpt lat="45.86046" lon="4.77212">
        <ele>426.27158</ele>
        <time>2023-08-05T13:00:35.000Z</time>
      </trkpt>
      <trkpt lat="45.86044" lon="4.77214">
        <ele>426.51791</ele>
        <time>2023-08-05T13:01:15.000Z</time>
      </trkpt>
      <trkpt lat="45.86043" lon="4.77217">
        <ele>426.8642</ele>
        <time>2023-08-05T13:01:17.000Z</time>
      </trkpt>
      <trkpt lat="45.86043" lon="4.7722">
        <ele>427.23273</ele>
        <time>2023-08-05T13:01:32.000Z</time>
      </trkpt>
      <trkpt lat="45.86044" lon="4.77222">
        <ele>427.61133</ele>
        <time>2023-08-05T13:01:39.000Z</time>
      </trkpt>
      <trkpt lat="45.86042" lon="4.77225">
        <ele>427.89008</ele>
        <time>2023-08-05T13:01:43.000Z</time>
      </trkpt>
      <trkpt lat="45.86041" lon="4.77227">
        <ele>428.18799</ele>
        <time>2023-08-05T13:01:46.000Z</time>
      </trkpt>
      <trkpt lat="45.86039" lon="4.77228">
        <ele>428.45905</ele>
        <time>2023-08-05T13:01:48.000Z</time>
      </trkpt>
      <trkpt lat="45.86038" lon="4.7723">
        <ele>428.82721</ele>
        <time>2023-08-05T13:01:50.000Z</time>
      </trkpt>
      <trkpt lat="45.86036" lon="4.77231">
        <ele>430.29892</ele>
        <time>2023-08-05T13:01:52.000Z</time>
      </trkpt>
      <trkpt lat="45.86035" lon="4.77233">
        <ele>431.68732</ele>
        <time>2023-08-05T13:01:54.000Z</time>
      </trkpt>
      <trkpt lat="45.86033" lon="4.77236">
        <ele>433.08081</ele>
        <time>2023-08-05T13:01:57.000Z</time>
      </trkpt>
      <trkpt lat="45.86031" lon="4.77236">
        <ele>434.47266</ele>
        <time>2023-08-05T13:01:59.000Z</time>
      </trkpt>
      <trkpt lat="45.86029" lon="4.77237">
        <ele>435.89029</ele>
        <time>2023-08-05T13:02:01.000Z</time>
      </trkpt>
      <trkpt lat="45.86027" lon="4.77238">
        <ele>436.37656</ele>
        <time>2023-08-05T13:02:13.000Z</time>
      </trkpt>
      <trkpt lat="45.86027" lon="4.77238">
        <ele>436.37656</ele>
        <time>2023-08-05T13:02:13.000Z</time>
      </trkpt>
      <trkpt lat="45.86025" lon="4.77239">
        <ele>436.83124</ele>
        <time>2023-08-05T13:03:58.000Z</time>
      </trkpt>
      <trkpt lat="45.86023" lon="4.77242">
        <ele>437.60043</ele>
        <time>2023-08-05T13:04:00.000Z</time>
      </trkpt>
      <trkpt lat="45.8602" lon="4.77245">
        <ele>438.2023</ele>
        <time>2023-08-05T13:04:02.000Z</time>
      </trkpt>
      <trkpt lat="45.86019" lon="4.77251">
        <ele>438.73618</ele>
        <time>2023-08-05T13:04:04.000Z</time>
      </trkpt>
      <trkpt lat="45.86019" lon="4.77254">
        <ele>439.30264</ele>
        <time>2023-08-05T13:04:05.000Z</time>
      </trkpt>
      <trkpt lat="45.8602" lon="4.77257">
        <ele>439.82193</ele>
        <time>2023-08-05T13:04:06.000Z</time>
      </trkpt>
      <trkpt lat="45.8602" lon="4.77259">
        <ele>440.21988</ele>
        <time>2023-08-05T13:04:07.000Z</time>
      </trkpt>
      <trkpt lat="45.86021" lon="4.77262">
        <ele>440.50693</ele>
        <time>2023-08-05T13:04:08.000Z</time>
      </trkpt>
      <trkpt lat="45.86021" lon="4.77265">
        <ele>440.90326</ele>
        <time>2023-08-05T13:04:09.000Z</time>
      </trkpt>
      <trkpt lat="45.86021" lon="4.77268">
        <ele>441.26202</ele>
        <time>2023-08-05T13:04:10.000Z</time>
      </trkpt>
      <trkpt lat="45.8602" lon="4.77272">
        <ele>441.61859</ele>
        <time>2023-08-05T13:04:11.000Z</time>
      </trkpt>
      <trkpt lat="45.86019" lon="4.77278">
        <ele>442.19147</ele>
        <time>2023-08-05T13:04:13.000Z</time>
      </trkpt>
      <trkpt lat="45.86018" lon="4.77281">
        <ele>442.76904</ele>
        <time>2023-08-05T13:04:14.000Z</time>
      </trkpt>
      <trkpt lat="45.86017" lon="4.77284">
        <ele>443.29321</ele>
        <time>2023-08-05T13:04:15.000Z</time>
      </trkpt>
      <trkpt lat="45.86017" lon="4.77287">
        <ele>443.76669</ele>
        <time>2023-08-05T13:04:16.000Z</time>
      </trkpt>
      <trkpt lat="45.86016" lon="4.77291">
        <ele>444.27838</ele>
        <time>2023-08-05T13:04:17.000Z</time>
      </trkpt>
      <trkpt lat="45.86016" lon="4.77294">
        <ele>444.90411</ele>
        <time>2023-08-05T13:04:18.000Z</time>
      </trkpt>
      <trkpt lat="45.86016" lon="4.77297">
        <ele>445.4834</ele>
        <time>2023-08-05T13:04:19.000Z</time>
      </trkpt>
      <trkpt lat="45.86015" lon="4.773">
        <ele>446.09869</ele>
        <time>2023-08-05T13:04:20.000Z</time>
      </trkpt>
      <trkpt lat="45.86015" lon="4.77303">
        <ele>446.58783</ele>
        <time>2023-08-05T13:04:21.000Z</time>
      </trkpt>
      <trkpt lat="45.86015" lon="4.77307">
        <ele>447.04037</ele>
        <time>2023-08-05T13:04:22.000Z</time>
      </trkpt>
      <trkpt lat="45.86015" lon="4.7731">
        <ele>447.24078</ele>
        <time>2023-08-05T13:04:23.000Z</time>
      </trkpt>
      <trkpt lat="45.86015" lon="4.77314">
        <ele>447.46021</ele>
        <time>2023-08-05T13:04:24.000Z</time>
      </trkpt>
      <trkpt lat="45.86015" lon="4.77319">
        <ele>447.77383</ele>
        <time>2023-08-05T13:04:25.000Z</time>
      </trkpt>
      <trkpt lat="45.86014" lon="4.77323">
        <ele>448.10663</ele>
        <time>2023-08-05T13:04:26.000Z</time>
      </trkpt>
      <trkpt lat="45.86014" lon="4.77327">
        <ele>448.57538</ele>
        <time>2023-08-05T13:04:27.000Z</time>
      </trkpt>
      <trkpt lat="45.86014" lon="4.7733">
        <ele>449.01529</ele>
        <time>2023-08-05T13:04:28.000Z</time>
      </trkpt>
      <trkpt lat="45.86014" lon="4.77335">
        <ele>449.44809</ele>
        <time>2023-08-05T13:04:29.000Z</time>
      </trkpt>
      <trkpt lat="45.86013" lon="4.77338">
        <ele>449.81232</ele>
        <time>2023-08-05T13:04:30.000Z</time>
      </trkpt>
      <trkpt lat="45.86013" lon="4.77341">
        <ele>450.21271</ele>
        <time>2023-08-05T13:04:31.000Z</time>
      </trkpt>
      <trkpt lat="45.86013" lon="4.77344">
        <ele>450.58197</ele>
        <time>2023-08-05T13:04:32.000Z</time>
      </trkpt>
      <trkpt lat="45.86013" lon="4.77347">
        <ele>450.77222</ele>
        <time>2023-08-05T13:04:33.000Z</time>
      </trkpt>
      <trkpt lat="45.86013" lon="4.7735">
        <ele>450.95792</ele>
        <time>2023-08-05T13:04:34.000Z</time>
      </trkpt>
      <trkpt lat="45.86013" lon="4.77355">
        <ele>451.14142</ele>
        <time>2023-08-05T13:04:36.000Z</time>
      </trkpt>
      <trkpt lat="45.86013" lon="4.77358">
        <ele>451.35742</ele>
        <time>2023-08-05T13:04:37.000Z</time>
      </trkpt>
      <trkpt lat="45.86012" lon="4.77361">
        <ele>451.58057</ele>
        <time>2023-08-05T13:04:39.000Z</time>
      </trkpt>
      <trkpt lat="45.86014" lon="4.77362">
        <ele>451.36859</ele>
        <time>2023-08-05T13:04:44.000Z</time>
      </trkpt>
      <trkpt lat="45.86016" lon="4.77362">
        <ele>451.17856</ele>
        <time>2023-08-05T13:04:51.000Z</time>
      </trkpt>
      <trkpt lat="45.86017" lon="4.77365">
        <ele>450.74106</ele>
        <time>2023-08-05T13:05:22.000Z</time>
      </trkpt>
      <trkpt lat="45.86019" lon="4.77368">
        <ele>450.14178</ele>
        <time>2023-08-05T13:05:24.000Z</time>
      </trkpt>
      <trkpt lat="45.8602" lon="4.77373">
        <ele>449.54614</ele>
        <time>2023-08-05T13:05:26.000Z</time>
      </trkpt>
      <trkpt lat="45.86021" lon="4.77376">
        <ele>448.96744</ele>
        <time>2023-08-05T13:05:27.000Z</time>
      </trkpt>
      <trkpt lat="45.86023" lon="4.77379">
        <ele>448.44815</ele>
        <time>2023-08-05T13:05:28.000Z</time>
      </trkpt>
      <trkpt lat="45.86025" lon="4.77382">
        <ele>447.85059</ele>
        <time>2023-08-05T13:05:29.000Z</time>
      </trkpt>
      <trkpt lat="45.86026" lon="4.77384">
        <ele>447.26938</ele>
        <time>2023-08-05T13:05:30.000Z</time>
      </trkpt>
      <trkpt lat="45.86028" lon="4.77386">
        <ele>446.61826</ele>
        <time>2023-08-05T13:05:31.000Z</time>
      </trkpt>
      <trkpt lat="45.8603" lon="4.77389">
        <ele>445.92578</ele>
        <time>2023-08-05T13:05:32.000Z</time>
      </trkpt>
      <trkpt lat="45.86033" lon="4.77391">
        <ele>445.28448</ele>
        <time>2023-08-05T13:05:33.000Z</time>
      </trkpt>
      <trkpt lat="45.86036" lon="4.77393">
        <ele>444.60944</ele>
        <time>2023-08-05T13:05:34.000Z</time>
      </trkpt>
      <trkpt lat="45.86039" lon="4.77395">
        <ele>443.97003</ele>
        <time>2023-08-05T13:05:35.000Z</time>
      </trkpt>
      <trkpt lat="45.86041" lon="4.77398">
        <ele>443.36679</ele>
        <time>2023-08-05T13:05:36.000Z</time>
      </trkpt>
      <trkpt lat="45.86044" lon="4.77401">
        <ele>442.79037</ele>
        <time>2023-08-05T13:05:37.000Z</time>
      </trkpt>
      <trkpt lat="45.86046" lon="4.77405">
        <ele>442.19305</ele>
        <time>2023-08-05T13:05:38.000Z</time>
      </trkpt>
      <trkpt lat="45.86048" lon="4.77408">
        <ele>441.56476</ele>
        <time>2023-08-05T13:05:39.000Z</time>
      </trkpt>
      <trkpt lat="45.8605" lon="4.7741">
        <ele>440.94611</ele>
        <time>2023-08-05T13:05:40.000Z</time>
      </trkpt>
      <trkpt lat="45.86051" lon="4.77412">
        <ele>440.22208</ele>
        <time>2023-08-05T13:05:41.000Z</time>
      </trkpt>
      <trkpt lat="45.86053" lon="4.77413">
        <ele>439.83389</ele>
        <time>2023-08-05T13:05:42.000Z</time>
      </trkpt>
      <trkpt lat="45.86055" lon="4.77417">
        <ele>439.40967</ele>
        <time>2023-08-05T13:05:43.000Z</time>
      </trkpt>
      <trkpt lat="45.86057" lon="4.7742">
        <ele>438.89264</ele>
        <time>2023-08-05T13:05:44.000Z</time>
      </trkpt>
      <trkpt lat="45.86059" lon="4.77425">
        <ele>438.68048</ele>
        <time>2023-08-05T13:05:45.000Z</time>
      </trkpt>
      <trkpt lat="45.8606" lon="4.77428">
        <ele>438.47256</ele>
        <time>2023-08-05T13:05:46.000Z</time>
      </trkpt>
      <trkpt lat="45.86061" lon="4.77432">
        <ele>438.22308</ele>
        <time>2023-08-05T13:05:48.000Z</time>
      </trkpt>
      <trkpt lat="45.86063" lon="4.77434">
        <ele>437.96533</ele>
        <time>2023-08-05T13:05:49.000Z</time>
      </trkpt>
      <trkpt lat="45.86064" lon="4.77437">
        <ele>437.71216</ele>
        <time>2023-08-05T13:05:50.000Z</time>
      </trkpt>
      <trkpt lat="45.86066" lon="4.77439">
        <ele>437.49667</ele>
        <time>2023-08-05T13:05:51.000Z</time>
      </trkpt>
      <trkpt lat="45.86067" lon="4.77442">
        <ele>437.32697</ele>
        <time>2023-08-05T13:05:52.000Z</time>
      </trkpt>
      <trkpt lat="45.86069" lon="4.77445">
        <ele>437.2099</ele>
        <time>2023-08-05T13:05:53.000Z</time>
      </trkpt>
      <trkpt lat="45.86071" lon="4.77449">
        <ele>437.15698</ele>
        <time>2023-08-05T13:05:54.000Z</time>
      </trkpt>
      <trkpt lat="45.86072" lon="4.77452">
        <ele>437.09576</ele>
        <time>2023-08-05T13:05:55.000Z</time>
      </trkpt>
      <trkpt lat="45.86074" lon="4.77457">
        <ele>436.91885</ele>
        <time>2023-08-05T13:05:56.000Z</time>
      </trkpt>
      <trkpt lat="45.86074" lon="4.7746">
        <ele>436.78351</ele>
        <time>2023-08-05T13:05:57.000Z</time>
      </trkpt>
      <trkpt lat="45.86075" lon="4.77465">
        <ele>436.68927</ele>
        <time>2023-08-05T13:05:59.000Z</time>
      </trkpt>
      <trkpt lat="45.86076" lon="4.77467">
        <ele>437.17303</ele>
        <time>2023-08-05T13:06:04.000Z</time>
      </trkpt>
      <trkpt lat="45.86078" lon="4.77468">
        <ele>437.91626</ele>
        <time>2023-08-05T13:06:16.000Z</time>
      </trkpt>
      <trkpt lat="45.8608" lon="4.77472">
        <ele>438.29843</ele>
        <time>2023-08-05T13:06:19.000Z</time>
      </trkpt>
      <trkpt lat="45.8608" lon="4.77475">
        <ele>438.76089</ele>
        <time>2023-08-05T13:06:20.000Z</time>
      </trkpt>
      <trkpt lat="45.86081" lon="4.77478">
        <ele>439.16202</ele>
        <time>2023-08-05T13:06:21.000Z</time>
      </trkpt>
      <trkpt lat="45.86082" lon="4.77481">
        <ele>439.5538</ele>
        <time>2023-08-05T13:06:23.000Z</time>
      </trkpt>
      <trkpt lat="45.86084" lon="4.77483">
        <ele>440.12653</ele>
        <time>2023-08-05T13:06:27.000Z</time>
      </trkpt>
      <trkpt lat="45.86087" lon="4.77483">
        <ele>440.91925</ele>
        <time>2023-08-05T13:06:31.000Z</time>
      </trkpt>
      <trkpt lat="45.8609" lon="4.77482">
        <ele>441.67343</ele>
        <time>2023-08-05T13:06:33.000Z</time>
      </trkpt>
      <trkpt lat="45.86094" lon="4.77481">
        <ele>442.1683</ele>
        <time>2023-08-05T13:06:35.000Z</time>
      </trkpt>
      <trkpt lat="45.86096" lon="4.7748">
        <ele>443.20874</ele>
        <time>2023-08-05T13:06:36.000Z</time>
      </trkpt>
      <trkpt lat="45.86098" lon="4.7748">
        <ele>444.19012</ele>
        <time>2023-08-05T13:06:37.000Z</time>
      </trkpt>
      <trkpt lat="45.86101" lon="4.7748">
        <ele>445.1207</ele>
        <time>2023-08-05T13:06:38.000Z</time>
      </trkpt>
      <trkpt lat="45.86103" lon="4.7748">
        <ele>446.03531</ele>
        <time>2023-08-05T13:06:39.000Z</time>
      </trkpt>
      <trkpt lat="45.86106" lon="4.7748">
        <ele>446.94061</ele>
        <time>2023-08-05T13:06:40.000Z</time>
      </trkpt>
      <trkpt lat="45.86109" lon="4.7748">
        <ele>447.75385</ele>
        <time>2023-08-05T13:06:41.000Z</time>
      </trkpt>
      <trkpt lat="45.86111" lon="4.7748">
        <ele>448.57977</ele>
        <time>2023-08-05T13:06:42.000Z</time>
      </trkpt>
      <trkpt lat="45.86114" lon="4.7748">
        <ele>449.41895</ele>
        <time>2023-08-05T13:06:43.000Z</time>
      </trkpt>
      <trkpt lat="45.86116" lon="4.7748">
        <ele>449.62738</ele>
        <time>2023-08-05T13:06:44.000Z</time>
      </trkpt>
      <trkpt lat="45.86118" lon="4.7748">
        <ele>449.73627</ele>
        <time>2023-08-05T13:06:45.000Z</time>
      </trkpt>
      <trkpt lat="45.86121" lon="4.7748">
        <ele>449.57138</ele>
        <time>2023-08-05T13:06:46.000Z</time>
      </trkpt>
      <trkpt lat="45.86125" lon="4.77481">
        <ele>449.09335</ele>
        <time>2023-08-05T13:06:47.000Z</time>
      </trkpt>
      <trkpt lat="45.86128" lon="4.77481">
        <ele>448.83438</ele>
        <time>2023-08-05T13:06:48.000Z</time>
      </trkpt>
      <trkpt lat="45.86131" lon="4.7748">
        <ele>448.5567</ele>
        <time>2023-08-05T13:06:49.000Z</time>
      </trkpt>
      <trkpt lat="45.86134" lon="4.77479">
        <ele>448.29141</ele>
        <time>2023-08-05T13:06:50.000Z</time>
      </trkpt>
      <trkpt lat="45.86137" lon="4.77479">
        <ele>448.03809</ele>
        <time>2023-08-05T13:06:51.000Z</time>
      </trkpt>
      <trkpt lat="45.8614" lon="4.77479">
        <ele>447.94278</ele>
        <time>2023-08-05T13:06:52.000Z</time>
      </trkpt>
      <trkpt lat="45.86142" lon="4.7748">
        <ele>447.45059</ele>
        <time>2023-08-05T13:06:53.000Z</time>
      </trkpt>
      <trkpt lat="45.86144" lon="4.77479">
        <ele>446.99762</ele>
        <time>2023-08-05T13:06:54.000Z</time>
      </trkpt>
      <trkpt lat="45.86147" lon="4.77478">
        <ele>446.85547</ele>
        <time>2023-08-05T13:06:55.000Z</time>
      </trkpt>
      <trkpt lat="45.86149" lon="4.77478">
        <ele>446.02167</ele>
        <time>2023-08-05T13:06:56.000Z</time>
      </trkpt>
      <trkpt lat="45.86152" lon="4.77479">
        <ele>445.21442</ele>
        <time>2023-08-05T13:06:57.000Z</time>
      </trkpt>
      <trkpt lat="45.86155" lon="4.7748">
        <ele>444.39191</ele>
        <time>2023-08-05T13:06:58.000Z</time>
      </trkpt>
      <trkpt lat="45.86158" lon="4.77482">
        <ele>443.36099</ele>
        <time>2023-08-05T13:06:59.000Z</time>
      </trkpt>
      <trkpt lat="45.86161" lon="4.77483">
        <ele>442.36542</ele>
        <time>2023-08-05T13:07:00.000Z</time>
      </trkpt>
      <trkpt lat="45.86164" lon="4.77483">
        <ele>441.41049</ele>
        <time>2023-08-05T13:07:01.000Z</time>
      </trkpt>
      <trkpt lat="45.86167" lon="4.77484">
        <ele>440.31796</ele>
        <time>2023-08-05T13:07:02.000Z</time>
      </trkpt>
      <trkpt lat="45.8617" lon="4.77485">
        <ele>439.52353</ele>
        <time>2023-08-05T13:07:03.000Z</time>
      </trkpt>
      <trkpt lat="45.86173" lon="4.77485">
        <ele>439.21216</ele>
        <time>2023-08-05T13:07:04.000Z</time>
      </trkpt>
      <trkpt lat="45.86176" lon="4.77485">
        <ele>438.71173</ele>
        <time>2023-08-05T13:07:05.000Z</time>
      </trkpt>
      <trkpt lat="45.86179" lon="4.77485">
        <ele>437.93198</ele>
        <time>2023-08-05T13:07:06.000Z</time>
      </trkpt>
      <trkpt lat="45.86181" lon="4.77485">
        <ele>437.2084</ele>
        <time>2023-08-05T13:07:07.000Z</time>
      </trkpt>
      <trkpt lat="45.86183" lon="4.77484">
        <ele>436.58856</ele>
        <time>2023-08-05T13:07:08.000Z</time>
      </trkpt>
      <trkpt lat="45.86186" lon="4.77484">
        <ele>435.97574</ele>
        <time>2023-08-05T13:07:09.000Z</time>
      </trkpt>
      <trkpt lat="45.86189" lon="4.77484">
        <ele>435.3829</ele>
        <time>2023-08-05T13:07:10.000Z</time>
      </trkpt>
      <trkpt lat="45.86193" lon="4.77483">
        <ele>434.76691</ele>
        <time>2023-08-05T13:07:11.000Z</time>
      </trkpt>
      <trkpt lat="45.86195" lon="4.77483">
        <ele>434.08618</ele>
        <time>2023-08-05T13:07:12.000Z</time>
      </trkpt>
      <trkpt lat="45.86197" lon="4.77482">
        <ele>433.67108</ele>
        <time>2023-08-05T13:07:13.000Z</time>
      </trkpt>
      <trkpt lat="45.86199" lon="4.77481">
        <ele>433.20355</ele>
        <time>2023-08-05T13:07:14.000Z</time>
      </trkpt>
      <trkpt lat="45.86202" lon="4.77481">
        <ele>432.7626</ele>
        <time>2023-08-05T13:07:15.000Z</time>
      </trkpt>
      <trkpt lat="45.86204" lon="4.77481">
        <ele>432.44492</ele>
        <time>2023-08-05T13:07:16.000Z</time>
      </trkpt>
      <trkpt lat="45.86206" lon="4.77481">
        <ele>432.10956</ele>
        <time>2023-08-05T13:07:17.000Z</time>
      </trkpt>
      <trkpt lat="45.86208" lon="4.77483">
        <ele>431.82037</ele>
        <time>2023-08-05T13:07:18.000Z</time>
      </trkpt>
      <trkpt lat="45.86211" lon="4.77484">
        <ele>431.79956</ele>
        <time>2023-08-05T13:07:19.000Z</time>
      </trkpt>
      <trkpt lat="45.86213" lon="4.77484">
        <ele>431.76132</ele>
        <time>2023-08-05T13:07:20.000Z</time>
      </trkpt>
      <trkpt lat="45.86216" lon="4.77484">
        <ele>431.69083</ele>
        <time>2023-08-05T13:07:21.000Z</time>
      </trkpt>
      <trkpt lat="45.86219" lon="4.77485">
        <ele>431.77432</ele>
        <time>2023-08-05T13:07:22.000Z</time>
      </trkpt>
      <trkpt lat="45.86222" lon="4.77487">
        <ele>431.59708</ele>
        <time>2023-08-05T13:07:23.000Z</time>
      </trkpt>
      <trkpt lat="45.86223" lon="4.77489">
        <ele>431.44116</ele>
        <time>2023-08-05T13:07:24.000Z</time>
      </trkpt>
      <trkpt lat="45.86225" lon="4.77491">
        <ele>431.36444</ele>
        <time>2023-08-05T13:07:25.000Z</time>
      </trkpt>
      <trkpt lat="45.86227" lon="4.77493">
        <ele>431.21869</ele>
        <time>2023-08-05T13:07:26.000Z</time>
      </trkpt>
      <trkpt lat="45.86229" lon="4.77493">
        <ele>431.11371</ele>
        <time>2023-08-05T13:07:27.000Z</time>
      </trkpt>
      <trkpt lat="45.86232" lon="4.77493">
        <ele>430.98242</ele>
        <time>2023-08-05T13:07:28.000Z</time>
      </trkpt>
      <trkpt lat="45.86234" lon="4.77494">
        <ele>430.79279</ele>
        <time>2023-08-05T13:07:29.000Z</time>
      </trkpt>
      <trkpt lat="45.86235" lon="4.77497">
        <ele>430.65131</ele>
        <time>2023-08-05T13:07:30.000Z</time>
      </trkpt>
      <trkpt lat="45.86237" lon="4.775">
        <ele>430.67163</ele>
        <time>2023-08-05T13:07:31.000Z</time>
      </trkpt>
      <trkpt lat="45.8624" lon="4.77503">
        <ele>430.71231</ele>
        <time>2023-08-05T13:07:32.000Z</time>
      </trkpt>
      <trkpt lat="45.86243" lon="4.77504">
        <ele>430.49927</ele>
        <time>2023-08-05T13:07:33.000Z</time>
      </trkpt>
      <trkpt lat="45.86247" lon="4.77504">
        <ele>430.37582</ele>
        <time>2023-08-05T13:07:34.000Z</time>
      </trkpt>
      <trkpt lat="45.86251" lon="4.77504">
        <ele>430.27231</ele>
        <time>2023-08-05T13:07:35.000Z</time>
      </trkpt>
      <trkpt lat="45.86255" lon="4.77506">
        <ele>430.12656</ele>
        <time>2023-08-05T13:07:36.000Z</time>
      </trkpt>
      <trkpt lat="45.86259" lon="4.77506">
        <ele>430.03247</ele>
        <time>2023-08-05T13:07:37.000Z</time>
      </trkpt>
      <trkpt lat="45.86268" lon="4.77508">
        <ele>429.89053</ele>
        <time>2023-08-05T13:07:38.000Z</time>
      </trkpt>
      <trkpt lat="45.86274" lon="4.77506">
        <ele>429.70557</ele>
        <time>2023-08-05T13:07:39.000Z</time>
      </trkpt>
      <trkpt lat="45.86281" lon="4.77506">
        <ele>429.47943</ele>
        <time>2023-08-05T13:07:40.000Z</time>
      </trkpt>
      <trkpt lat="45.86288" lon="4.77507">
        <ele>429.22672</ele>
        <time>2023-08-05T13:07:41.000Z</time>
      </trkpt>
      <trkpt lat="45.86295" lon="4.77508">
        <ele>428.92596</ele>
        <time>2023-08-05T13:07:42.000Z</time>
      </trkpt>
      <trkpt lat="45.86303" lon="4.77508">
        <ele>428.62402</ele>
        <time>2023-08-05T13:07:43.000Z</time>
      </trkpt>
      <trkpt lat="45.8631" lon="4.7751">
        <ele>428.34341</ele>
        <time>2023-08-05T13:07:44.000Z</time>
      </trkpt>
      <trkpt lat="45.86317" lon="4.7751">
        <ele>428.14618</ele>
        <time>2023-08-05T13:07:45.000Z</time>
      </trkpt>
      <trkpt lat="45.86321" lon="4.7751">
        <ele>428.01474</ele>
        <time>2023-08-05T13:07:46.000Z</time>
      </trkpt>
      <trkpt lat="45.86328" lon="4.7751">
        <ele>427.8541</ele>
        <time>2023-08-05T13:07:47.000Z</time>
      </trkpt>
      <trkpt lat="45.86333" lon="4.77511">
        <ele>427.69122</ele>
        <time>2023-08-05T13:07:48.000Z</time>
      </trkpt>
      <trkpt lat="45.86337" lon="4.77511">
        <ele>427.55035</ele>
        <time>2023-08-05T13:07:49.000Z</time>
      </trkpt>
      <trkpt lat="45.86342" lon="4.77514">
        <ele>427.44077</ele>
        <time>2023-08-05T13:07:50.000Z</time>
      </trkpt>
      <trkpt lat="45.86346" lon="4.77515">
        <ele>427.20029</ele>
        <time>2023-08-05T13:07:51.000Z</time>
      </trkpt>
      <trkpt lat="45.8635" lon="4.77516">
        <ele>426.97186</ele>
        <time>2023-08-05T13:07:52.000Z</time>
      </trkpt>
      <trkpt lat="45.86354" lon="4.77518">
        <ele>426.74365</ele>
        <time>2023-08-05T13:07:53.000Z</time>
      </trkpt>
      <trkpt lat="45.86358" lon="4.77518">
        <ele>426.42715</ele>
        <time>2023-08-05T13:07:54.000Z</time>
      </trkpt>
      <trkpt lat="45.86362" lon="4.77519">
        <ele>425.98599</ele>
        <time>2023-08-05T13:07:55.000Z</time>
      </trkpt>
      <trkpt lat="45.86366" lon="4.7752">
        <ele>425.54477</ele>
        <time>2023-08-05T13:07:56.000Z</time>
      </trkpt>
      <trkpt lat="45.86369" lon="4.7752">
        <ele>425.1145</ele>
        <time>2023-08-05T13:07:57.000Z</time>
      </trkpt>
      <trkpt lat="45.86372" lon="4.77521">
        <ele>424.72021</ele>
        <time>2023-08-05T13:07:58.000Z</time>
      </trkpt>
      <trkpt lat="45.86375" lon="4.7752">
        <ele>424.21661</ele>
        <time>2023-08-05T13:07:59.000Z</time>
      </trkpt>
      <trkpt lat="45.86379" lon="4.7752">
        <ele>423.71411</ele>
        <time>2023-08-05T13:08:00.000Z</time>
      </trkpt>
      <trkpt lat="45.86385" lon="4.7752">
        <ele>423.20868</ele>
        <time>2023-08-05T13:08:01.000Z</time>
      </trkpt>
      <trkpt lat="45.86389" lon="4.77523">
        <ele>422.71295</ele>
        <time>2023-08-05T13:08:02.000Z</time>
      </trkpt>
      <trkpt lat="45.86392" lon="4.77522">
        <ele>422.22015</ele>
        <time>2023-08-05T13:08:03.000Z</time>
      </trkpt>
      <trkpt lat="45.86396" lon="4.7752">
        <ele>421.73511</ele>
        <time>2023-08-05T13:08:04.000Z</time>
      </trkpt>
      <trkpt lat="45.86401" lon="4.77521">
        <ele>421.69839</ele>
        <time>2023-08-05T13:08:05.000Z</time>
      </trkpt>
      <trkpt lat="45.86404" lon="4.7752">
        <ele>421.36603</ele>
        <time>2023-08-05T13:08:06.000Z</time>
      </trkpt>
      <trkpt lat="45.86408" lon="4.77519">
        <ele>421.02597</ele>
        <time>2023-08-05T13:08:07.000Z</time>
      </trkpt>
      <trkpt lat="45.86411" lon="4.7752">
        <ele>420.74356</ele>
        <time>2023-08-05T13:08:08.000Z</time>
      </trkpt>
      <trkpt lat="45.86414" lon="4.7752">
        <ele>420.45752</ele>
        <time>2023-08-05T13:08:09.000Z</time>
      </trkpt>
      <trkpt lat="45.86417" lon="4.77523">
        <ele>420.13715</ele>
        <time>2023-08-05T13:08:10.000Z</time>
      </trkpt>
      <trkpt lat="45.8642" lon="4.77524">
        <ele>419.81461</ele>
        <time>2023-08-05T13:08:11.000Z</time>
      </trkpt>
      <trkpt lat="45.86423" lon="4.77526">
        <ele>419.46606</ele>
        <time>2023-08-05T13:08:12.000Z</time>
      </trkpt>
      <trkpt lat="45.86426" lon="4.77527">
        <ele>419.12006</ele>
        <time>2023-08-05T13:08:13.000Z</time>
      </trkpt>
      <trkpt lat="45.8643" lon="4.77527">
        <ele>418.84677</ele>
        <time>2023-08-05T13:08:14.000Z</time>
      </trkpt>
      <trkpt lat="45.86433" lon="4.77527">
        <ele>418.17496</ele>
        <time>2023-08-05T13:08:15.000Z</time>
      </trkpt>
      <trkpt lat="45.86436" lon="4.77527">
        <ele>417.57489</ele>
        <time>2023-08-05T13:08:16.000Z</time>
      </trkpt>
      <trkpt lat="45.86438" lon="4.77526">
        <ele>416.98184</ele>
        <time>2023-08-05T13:08:17.000Z</time>
      </trkpt>
      <trkpt lat="45.86441" lon="4.77525">
        <ele>416.34888</ele>
        <time>2023-08-05T13:08:18.000Z</time>
      </trkpt>
      <trkpt lat="45.86443" lon="4.77524">
        <ele>415.55069</ele>
        <time>2023-08-05T13:08:19.000Z</time>
      </trkpt>
      <trkpt lat="45.86446" lon="4.77522">
        <ele>414.73853</ele>
        <time>2023-08-05T13:08:21.000Z</time>
      </trkpt>
      <trkpt lat="45.86448" lon="4.7752">
        <ele>413.93369</ele>
        <time>2023-08-05T13:08:22.000Z</time>
      </trkpt>
      <trkpt lat="45.8645" lon="4.77518">
        <ele>413.10001</ele>
        <time>2023-08-05T13:08:23.000Z</time>
      </trkpt>
      <trkpt lat="45.86452" lon="4.77516">
        <ele>412.3038</ele>
        <time>2023-08-05T13:08:24.000Z</time>
      </trkpt>
      <trkpt lat="45.86454" lon="4.77514">
        <ele>411.52798</ele>
        <time>2023-08-05T13:08:25.000Z</time>
      </trkpt>
      <trkpt lat="45.86457" lon="4.77512">
        <ele>410.25848</ele>
        <time>2023-08-05T13:08:26.000Z</time>
      </trkpt>
      <trkpt lat="45.86459" lon="4.7751">
        <ele>409.21457</ele>
        <time>2023-08-05T13:08:27.000Z</time>
      </trkpt>
      <trkpt lat="45.86461" lon="4.77509">
        <ele>408.15985</ele>
        <time>2023-08-05T13:08:28.000Z</time>
      </trkpt>
      <trkpt lat="45.86464" lon="4.77509">
        <ele>407.01959</ele>
        <time>2023-08-05T13:08:29.000Z</time>
      </trkpt>
      <trkpt lat="45.86467" lon="4.77509">
        <ele>405.94418</ele>
        <time>2023-08-05T13:08:30.000Z</time>
      </trkpt>
      <trkpt lat="45.86469" lon="4.77508">
        <ele>404.91779</ele>
        <time>2023-08-05T13:08:31.000Z</time>
      </trkpt>
      <trkpt lat="45.86473" lon="4.77508">
        <ele>403.89087</ele>
        <time>2023-08-05T13:08:33.000Z</time>
      </trkpt>
      <trkpt lat="45.86475" lon="4.77507">
        <ele>402.85287</ele>
        <time>2023-08-05T13:08:34.000Z</time>
      </trkpt>
      <trkpt lat="45.86478" lon="4.77507">
        <ele>401.81195</ele>
        <time>2023-08-05T13:08:35.000Z</time>
      </trkpt>
      <trkpt lat="45.86481" lon="4.77507">
        <ele>400.75925</ele>
        <time>2023-08-05T13:08:36.000Z</time>
      </trkpt>
      <trkpt lat="45.86483" lon="4.77507">
        <ele>400.26685</ele>
        <time>2023-08-05T13:08:37.000Z</time>
      </trkpt>
      <trkpt lat="45.86485" lon="4.77507">
        <ele>399.80215</ele>
        <time>2023-08-05T13:08:38.000Z</time>
      </trkpt>
      <trkpt lat="45.86488" lon="4.77507">
        <ele>399.22153</ele>
        <time>2023-08-05T13:08:39.000Z</time>
      </trkpt>
      <trkpt lat="45.86491" lon="4.77507">
        <ele>398.69559</ele>
        <time>2023-08-05T13:08:40.000Z</time>
      </trkpt>
      <trkpt lat="45.86498" lon="4.77504">
        <ele>398.4483</ele>
        <time>2023-08-05T13:08:41.000Z</time>
      </trkpt>
      <trkpt lat="45.86503" lon="4.77504">
        <ele>398.15497</ele>
        <time>2023-08-05T13:08:42.000Z</time>
      </trkpt>
      <trkpt lat="45.86507" lon="4.77503">
        <ele>397.86227</ele>
        <time>2023-08-05T13:08:43.000Z</time>
      </trkpt>
      <trkpt lat="45.8651" lon="4.77504">
        <ele>397.62241</ele>
        <time>2023-08-05T13:08:44.000Z</time>
      </trkpt>
      <trkpt lat="45.86513" lon="4.77502">
        <ele>397.41031</ele>
        <time>2023-08-05T13:08:45.000Z</time>
      </trkpt>
      <trkpt lat="45.86517" lon="4.77502">
        <ele>397.17725</ele>
        <time>2023-08-05T13:08:46.000Z</time>
      </trkpt>
      <trkpt lat="45.86522" lon="4.77504">
        <ele>396.93451</ele>
        <time>2023-08-05T13:08:47.000Z</time>
      </trkpt>
      <trkpt lat="45.86526" lon="4.77502">
        <ele>396.74219</ele>
        <time>2023-08-05T13:08:48.000Z</time>
      </trkpt>
      <trkpt lat="45.8653" lon="4.77502">
        <ele>396.5174</ele>
        <time>2023-08-05T13:08:49.000Z</time>
      </trkpt>
      <trkpt lat="45.86535" lon="4.775">
        <ele>396.32355</ele>
        <time>2023-08-05T13:08:50.000Z</time>
      </trkpt>
      <trkpt lat="45.86538" lon="4.77501">
        <ele>396.15753</ele>
        <time>2023-08-05T13:08:51.000Z</time>
      </trkpt>
      <trkpt lat="45.86543" lon="4.77499">
        <ele>395.9353</ele>
        <time>2023-08-05T13:08:52.000Z</time>
      </trkpt>
      <trkpt lat="45.86548" lon="4.77497">
        <ele>395.75555</ele>
        <time>2023-08-05T13:08:53.000Z</time>
      </trkpt>
      <trkpt lat="45.86552" lon="4.77495">
        <ele>395.64578</ele>
        <time>2023-08-05T13:08:54.000Z</time>
      </trkpt>
      <trkpt lat="45.86554" lon="4.77494">
        <ele>395.54181</ele>
        <time>2023-08-05T13:08:55.000Z</time>
      </trkpt>
      <trkpt lat="45.86556" lon="4.77491">
        <ele>395.44406</ele>
        <time>2023-08-05T13:08:56.000Z</time>
      </trkpt>
      <trkpt lat="45.8656" lon="4.77488">
        <ele>395.30157</ele>
        <time>2023-08-05T13:08:57.000Z</time>
      </trkpt>
      <trkpt lat="45.86566" lon="4.77486">
        <ele>395.16632</ele>
        <time>2023-08-05T13:08:58.000Z</time>
      </trkpt>
      <trkpt lat="45.8657" lon="4.77484">
        <ele>395.12094</ele>
        <time>2023-08-05T13:08:59.000Z</time>
      </trkpt>
      <trkpt lat="45.86573" lon="4.77483">
        <ele>395.01596</ele>
        <time>2023-08-05T13:09:00.000Z</time>
      </trkpt>
      <trkpt lat="45.86577" lon="4.77482">
        <ele>394.95612</ele>
        <time>2023-08-05T13:09:01.000Z</time>
      </trkpt>
      <trkpt lat="45.8658" lon="4.77479">
        <ele>394.91754</ele>
        <time>2023-08-05T13:09:02.000Z</time>
      </trkpt>
      <trkpt lat="45.86584" lon="4.77477">
        <ele>394.90863</ele>
        <time>2023-08-05T13:09:03.000Z</time>
      </trkpt>
      <trkpt lat="45.86587" lon="4.77476">
        <ele>394.89966</ele>
        <time>2023-08-05T13:09:04.000Z</time>
      </trkpt>
      <trkpt lat="45.8659" lon="4.77475">
        <ele>394.94397</ele>
        <time>2023-08-05T13:09:05.000Z</time>
      </trkpt>
      <trkpt lat="45.86593" lon="4.77473">
        <ele>395.01141</ele>
        <time>2023-08-05T13:09:06.000Z</time>
      </trkpt>
      <trkpt lat="45.86595" lon="4.77469">
        <ele>395.09491</ele>
        <time>2023-08-05T13:09:07.000Z</time>
      </trkpt>
      <trkpt lat="45.86597" lon="4.77467">
        <ele>394.9715</ele>
        <time>2023-08-05T13:09:08.000Z</time>
      </trkpt>
      <trkpt lat="45.866" lon="4.77466">
        <ele>394.96713</ele>
        <time>2023-08-05T13:09:09.000Z</time>
      </trkpt>
      <trkpt lat="45.86603" lon="4.77464">
        <ele>395.05292</ele>
        <time>2023-08-05T13:09:10.000Z</time>
      </trkpt>
      <trkpt lat="45.86606" lon="4.77461">
        <ele>395.0365</ele>
        <time>2023-08-05T13:09:11.000Z</time>
      </trkpt>
      <trkpt lat="45.86609" lon="4.77458">
        <ele>394.99829</ele>
        <time>2023-08-05T13:09:12.000Z</time>
      </trkpt>
      <trkpt lat="45.86613" lon="4.77456">
        <ele>394.91241</ele>
        <time>2023-08-05T13:09:13.000Z</time>
      </trkpt>
      <trkpt lat="45.86616" lon="4.77453">
        <ele>394.80206</ele>
        <time>2023-08-05T13:09:14.000Z</time>
      </trkpt>
      <trkpt lat="45.86618" lon="4.77451">
        <ele>394.70428</ele>
        <time>2023-08-05T13:09:15.000Z</time>
      </trkpt>
      <trkpt lat="45.86621" lon="4.77448">
        <ele>394.57568</ele>
        <time>2023-08-05T13:09:16.000Z</time>
      </trkpt>
      <trkpt lat="45.86624" lon="4.77445">
        <ele>394.49069</ele>
        <time>2023-08-05T13:09:17.000Z</time>
      </trkpt>
      <trkpt lat="45.86628" lon="4.77441">
        <ele>394.33887</ele>
        <time>2023-08-05T13:09:18.000Z</time>
      </trkpt>
      <trkpt lat="45.86632" lon="4.77438">
        <ele>394.20084</ele>
        <time>2023-08-05T13:09:19.000Z</time>
      </trkpt>
      <trkpt lat="45.86639" lon="4.77434">
        <ele>393.74429</ele>
        <time>2023-08-05T13:09:20.000Z</time>
      </trkpt>
      <trkpt lat="45.86643" lon="4.7743">
        <ele>393.23392</ele>
        <time>2023-08-05T13:09:21.000Z</time>
      </trkpt>
      <trkpt lat="45.8665" lon="4.77428">
        <ele>392.74289</ele>
        <time>2023-08-05T13:09:22.000Z</time>
      </trkpt>
      <trkpt lat="45.86657" lon="4.77422">
        <ele>392.15103</ele>
        <time>2023-08-05T13:09:23.000Z</time>
      </trkpt>
      <trkpt lat="45.86662" lon="4.77418">
        <ele>391.56747</ele>
        <time>2023-08-05T13:09:24.000Z</time>
      </trkpt>
      <trkpt lat="45.86669" lon="4.77414">
        <ele>390.86938</ele>
        <time>2023-08-05T13:09:25.000Z</time>
      </trkpt>
      <trkpt lat="45.86675" lon="4.77408">
        <ele>390.15598</ele>
        <time>2023-08-05T13:09:26.000Z</time>
      </trkpt>
      <trkpt lat="45.86676" lon="4.77401">
        <ele>389.43311</ele>
        <time>2023-08-05T13:09:27.000Z</time>
      </trkpt>
      <trkpt lat="45.86679" lon="4.77394">
        <ele>388.86005</ele>
        <time>2023-08-05T13:09:28.000Z</time>
      </trkpt>
      <trkpt lat="45.86682" lon="4.77388">
        <ele>388.20953</ele>
        <time>2023-08-05T13:09:29.000Z</time>
      </trkpt>
      <trkpt lat="45.86686" lon="4.77381">
        <ele>387.11877</ele>
        <time>2023-08-05T13:09:30.000Z</time>
      </trkpt>
      <trkpt lat="45.86689" lon="4.77373">
        <ele>385.87897</ele>
        <time>2023-08-05T13:09:31.000Z</time>
      </trkpt>
      <trkpt lat="45.8669" lon="4.77366">
        <ele>384.60815</ele>
        <time>2023-08-05T13:09:32.000Z</time>
      </trkpt>
      <trkpt lat="45.86692" lon="4.77359">
        <ele>383.21548</ele>
        <time>2023-08-05T13:09:33.000Z</time>
      </trkpt>
      <trkpt lat="45.86693" lon="4.77349">
        <ele>381.8316</ele>
        <time>2023-08-05T13:09:34.000Z</time>
      </trkpt>
      <trkpt lat="45.86695" lon="4.77342">
        <ele>380.43344</ele>
        <time>2023-08-05T13:09:35.000Z</time>
      </trkpt>
      <trkpt lat="45.86696" lon="4.77335">
        <ele>379.08691</ele>
        <time>2023-08-05T13:09:36.000Z</time>
      </trkpt>
      <trkpt lat="45.86698" lon="4.77331">
        <ele>377.64703</ele>
        <time>2023-08-05T13:09:37.000Z</time>
      </trkpt>
      <trkpt lat="45.867" lon="4.77327">
        <ele>376.09113</ele>
        <time>2023-08-05T13:09:38.000Z</time>
      </trkpt>
      <trkpt lat="45.86701" lon="4.77323">
        <ele>374.53116</ele>
        <time>2023-08-05T13:09:39.000Z</time>
      </trkpt>
      <trkpt lat="45.86705" lon="4.77315">
        <ele>374.51129</ele>
        <time>2023-08-05T13:09:40.000Z</time>
      </trkpt>
      <trkpt lat="45.86705" lon="4.77311">
        <ele>374.13434</ele>
        <time>2023-08-05T13:09:41.000Z</time>
      </trkpt>
      <trkpt lat="45.86704" lon="4.77306">
        <ele>373.78998</ele>
        <time>2023-08-05T13:09:42.000Z</time>
      </trkpt>
      <trkpt lat="45.86705" lon="4.77302">
        <ele>373.58929</ele>
        <time>2023-08-05T13:09:43.000Z</time>
      </trkpt>
      <trkpt lat="45.86705" lon="4.77299">
        <ele>373.31927</ele>
        <time>2023-08-05T13:09:44.000Z</time>
      </trkpt>
      <trkpt lat="45.86704" lon="4.77296">
        <ele>373.25024</ele>
        <time>2023-08-05T13:09:45.000Z</time>
      </trkpt>
      <trkpt lat="45.86704" lon="4.77291">
        <ele>373.13373</ele>
        <time>2023-08-05T13:09:46.000Z</time>
      </trkpt>
      <trkpt lat="45.86703" lon="4.77284">
        <ele>373.00784</ele>
        <time>2023-08-05T13:09:47.000Z</time>
      </trkpt>
      <trkpt lat="45.86701" lon="4.77278">
        <ele>372.94757</ele>
        <time>2023-08-05T13:09:48.000Z</time>
      </trkpt>
      <trkpt lat="45.86701" lon="4.77271">
        <ele>372.98828</ele>
        <time>2023-08-05T13:09:49.000Z</time>
      </trkpt>
      <trkpt lat="45.867" lon="4.77262">
        <ele>373.35651</ele>
        <time>2023-08-05T13:09:50.000Z</time>
      </trkpt>
      <trkpt lat="45.86699" lon="4.77253">
        <ele>374.05453</ele>
        <time>2023-08-05T13:09:51.000Z</time>
      </trkpt>
      <trkpt lat="45.86699" lon="4.77245">
        <ele>373.50128</ele>
        <time>2023-08-05T13:09:52.000Z</time>
      </trkpt>
      <trkpt lat="45.86697" lon="4.77236">
        <ele>373.05139</ele>
        <time>2023-08-05T13:09:53.000Z</time>
      </trkpt>
      <trkpt lat="45.86696" lon="4.77232">
        <ele>372.5864</ele>
        <time>2023-08-05T13:09:54.000Z</time>
      </trkpt>
      <trkpt lat="45.86695" lon="4.77227">
        <ele>372.11707</ele>
        <time>2023-08-05T13:09:55.000Z</time>
      </trkpt>
      <trkpt lat="45.86694" lon="4.77224">
        <ele>371.59213</ele>
        <time>2023-08-05T13:09:56.000Z</time>
      </trkpt>
      <trkpt lat="45.86697" lon="4.77221">
        <ele>371.05078</ele>
        <time>2023-08-05T13:09:57.000Z</time>
      </trkpt>
      <trkpt lat="45.86699" lon="4.77221">
        <ele>370.53168</ele>
        <time>2023-08-05T13:09:58.000Z</time>
      </trkpt>
      <trkpt lat="45.86701" lon="4.77219">
        <ele>370.01575</ele>
        <time>2023-08-05T13:09:59.000Z</time>
      </trkpt>
      <trkpt lat="45.86704" lon="4.77218">
        <ele>367.98001</ele>
        <time>2023-08-05T13:10:00.000Z</time>
      </trkpt>
      <trkpt lat="45.86707" lon="4.77216">
        <ele>366.54727</ele>
        <time>2023-08-05T13:10:01.000Z</time>
      </trkpt>
      <trkpt lat="45.8671" lon="4.77215">
        <ele>365.13031</ele>
        <time>2023-08-05T13:10:02.000Z</time>
      </trkpt>
      <trkpt lat="45.86713" lon="4.77215">
        <ele>363.66364</ele>
        <time>2023-08-05T13:10:03.000Z</time>
      </trkpt>
      <trkpt lat="45.86717" lon="4.77215">
        <ele>362.26556</ele>
        <time>2023-08-05T13:10:04.000Z</time>
      </trkpt>
      <trkpt lat="45.8672" lon="4.77215">
        <ele>360.66095</ele>
        <time>2023-08-05T13:10:05.000Z</time>
      </trkpt>
      <trkpt lat="45.86723" lon="4.77215">
        <ele>360.11316</ele>
        <time>2023-08-05T13:10:06.000Z</time>
      </trkpt>
      <trkpt lat="45.86727" lon="4.77215">
        <ele>359.38239</ele>
        <time>2023-08-05T13:10:07.000Z</time>
      </trkpt>
      <trkpt lat="45.8673" lon="4.77215">
        <ele>358.63373</ele>
        <time>2023-08-05T13:10:08.000Z</time>
      </trkpt>
      <trkpt lat="45.86734" lon="4.77215">
        <ele>357.80469</ele>
        <time>2023-08-05T13:10:09.000Z</time>
      </trkpt>
      <trkpt lat="45.86737" lon="4.77215">
        <ele>356.99969</ele>
        <time>2023-08-05T13:10:10.000Z</time>
      </trkpt>
      <trkpt lat="45.8674" lon="4.77215">
        <ele>356.04504</ele>
        <time>2023-08-05T13:10:11.000Z</time>
      </trkpt>
      <trkpt lat="45.86743" lon="4.77214">
        <ele>356.38974</ele>
        <time>2023-08-05T13:10:12.000Z</time>
      </trkpt>
      <trkpt lat="45.86745" lon="4.77214">
        <ele>356.75406</ele>
        <time>2023-08-05T13:10:13.000Z</time>
      </trkpt>
      <trkpt lat="45.86747" lon="4.77214">
        <ele>357.11118</ele>
        <time>2023-08-05T13:10:16.000Z</time>
      </trkpt>
      <trkpt lat="45.8675" lon="4.77212">
        <ele>357.72574</ele>
        <time>2023-08-05T13:10:48.000Z</time>
      </trkpt>
      <trkpt lat="45.86752" lon="4.77213">
        <ele>358.37723</ele>
        <time>2023-08-05T13:10:49.000Z</time>
      </trkpt>
      <trkpt lat="45.86755" lon="4.77213">
        <ele>359.04092</ele>
        <time>2023-08-05T13:10:50.000Z</time>
      </trkpt>
      <trkpt lat="45.86757" lon="4.77213">
        <ele>360.086</ele>
        <time>2023-08-05T13:10:51.000Z</time>
      </trkpt>
      <trkpt lat="45.86759" lon="4.77213">
        <ele>361.12885</ele>
        <time>2023-08-05T13:10:52.000Z</time>
      </trkpt>
      <trkpt lat="45.86761" lon="4.77213">
        <ele>362.50275</ele>
        <time>2023-08-05T13:10:53.000Z</time>
      </trkpt>
      <trkpt lat="45.86764" lon="4.77214">
        <ele>363.78976</ele>
        <time>2023-08-05T13:10:54.000Z</time>
      </trkpt>
      <trkpt lat="45.86767" lon="4.77214">
        <ele>365.15921</ele>
        <time>2023-08-05T13:10:55.000Z</time>
      </trkpt>
      <trkpt lat="45.86771" lon="4.77213">
        <ele>365.84427</ele>
        <time>2023-08-05T13:10:56.000Z</time>
      </trkpt>
      <trkpt lat="45.86774" lon="4.77212">
        <ele>366.63742</ele>
        <time>2023-08-05T13:10:57.000Z</time>
      </trkpt>
      <trkpt lat="45.86778" lon="4.77211">
        <ele>367.42792</ele>
        <time>2023-08-05T13:10:58.000Z</time>
      </trkpt>
      <trkpt lat="45.86782" lon="4.77211">
        <ele>367.20209</ele>
        <time>2023-08-05T13:10:59.000Z</time>
      </trkpt>
      <trkpt lat="45.86786" lon="4.7721">
        <ele>367.30511</ele>
        <time>2023-08-05T13:11:00.000Z</time>
      </trkpt>
      <trkpt lat="45.86791" lon="4.77209">
        <ele>367.41214</ele>
        <time>2023-08-05T13:11:01.000Z</time>
      </trkpt>
      <trkpt lat="45.86797" lon="4.77207">
        <ele>367.49603</ele>
        <time>2023-08-05T13:11:02.000Z</time>
      </trkpt>
      <trkpt lat="45.86802" lon="4.77206">
        <ele>367.57953</ele>
        <time>2023-08-05T13:11:03.000Z</time>
      </trkpt>
      <trkpt lat="45.86808" lon="4.77207">
        <ele>367.68256</ele>
        <time>2023-08-05T13:11:04.000Z</time>
      </trkpt>
      <trkpt lat="45.86815" lon="4.77207">
        <ele>368.11859</ele>
        <time>2023-08-05T13:11:05.000Z</time>
      </trkpt>
      <trkpt lat="45.86821" lon="4.77206">
        <ele>368.80801</ele>
        <time>2023-08-05T13:11:06.000Z</time>
      </trkpt>
      <trkpt lat="45.86827" lon="4.77206">
        <ele>369.50439</ele>
        <time>2023-08-05T13:11:07.000Z</time>
      </trkpt>
      <trkpt lat="45.86835" lon="4.77203">
        <ele>369.16586</ele>
        <time>2023-08-05T13:11:08.000Z</time>
      </trkpt>
      <trkpt lat="45.86843" lon="4.772">
        <ele>369.1091</ele>
        <time>2023-08-05T13:11:09.000Z</time>
      </trkpt>
      <trkpt lat="45.86851" lon="4.77199">
        <ele>368.66168</ele>
        <time>2023-08-05T13:11:10.000Z</time>
      </trkpt>
      <trkpt lat="45.86859" lon="4.77197">
        <ele>367.93423</ele>
        <time>2023-08-05T13:11:11.000Z</time>
      </trkpt>
      <trkpt lat="45.86866" lon="4.77196">
        <ele>367.16724</ele>
        <time>2023-08-05T13:11:12.000Z</time>
      </trkpt>
      <trkpt lat="45.86872" lon="4.77194">
        <ele>366.37033</ele>
        <time>2023-08-05T13:11:13.000Z</time>
      </trkpt>
      <trkpt lat="45.86878" lon="4.77193">
        <ele>365.39032</ele>
        <time>2023-08-05T13:11:14.000Z</time>
      </trkpt>
      <trkpt lat="45.86882" lon="4.77191">
        <ele>364.30502</ele>
        <time>2023-08-05T13:11:15.000Z</time>
      </trkpt>
      <trkpt lat="45.86887" lon="4.77189">
        <ele>363.91019</ele>
        <time>2023-08-05T13:11:16.000Z</time>
      </trkpt>
      <trkpt lat="45.8689" lon="4.77182">
        <ele>363.47705</ele>
        <time>2023-08-05T13:11:17.000Z</time>
      </trkpt>
      <trkpt lat="45.86892" lon="4.77176">
        <ele>362.02258</ele>
        <time>2023-08-05T13:11:18.000Z</time>
      </trkpt>
      <trkpt lat="45.86894" lon="4.77169">
        <ele>361.85309</ele>
        <time>2023-08-05T13:11:19.000Z</time>
      </trkpt>
      <trkpt lat="45.86897" lon="4.77163">
        <ele>361.60492</ele>
        <time>2023-08-05T13:11:20.000Z</time>
      </trkpt>
      <trkpt lat="45.869" lon="4.77157">
        <ele>361.36798</ele>
        <time>2023-08-05T13:11:21.000Z</time>
      </trkpt>
      <trkpt lat="45.86904" lon="4.77154">
        <ele>361.09821</ele>
        <time>2023-08-05T13:11:22.000Z</time>
      </trkpt>
      <trkpt lat="45.86907" lon="4.77152">
        <ele>361.10507</ele>
        <time>2023-08-05T13:11:23.000Z</time>
      </trkpt>
      <trkpt lat="45.86912" lon="4.77151">
        <ele>359.77933</ele>
        <time>2023-08-05T13:11:24.000Z</time>
      </trkpt>
      <trkpt lat="45.86916" lon="4.77152">
        <ele>358.13889</ele>
        <time>2023-08-05T13:11:25.000Z</time>
      </trkpt>
      <trkpt lat="45.86923" lon="4.7715">
        <ele>356.3071</ele>
        <time>2023-08-05T13:11:26.000Z</time>
      </trkpt>
      <trkpt lat="45.86929" lon="4.77149">
        <ele>354.38754</ele>
        <time>2023-08-05T13:11:27.000Z</time>
      </trkpt>
      <trkpt lat="45.86936" lon="4.77151">
        <ele>352.73288</ele>
        <time>2023-08-05T13:11:28.000Z</time>
      </trkpt>
      <trkpt lat="45.8694" lon="4.77151">
        <ele>352.06042</ele>
        <time>2023-08-05T13:11:29.000Z</time>
      </trkpt>
      <trkpt lat="45.86945" lon="4.7715">
        <ele>351.74506</ele>
        <time>2023-08-05T13:11:30.000Z</time>
      </trkpt>
      <trkpt lat="45.86952" lon="4.77146">
        <ele>351.39975</ele>
        <time>2023-08-05T13:11:31.000Z</time>
      </trkpt>
      <trkpt lat="45.86957" lon="4.77148">
        <ele>351.10022</ele>
        <time>2023-08-05T13:11:32.000Z</time>
      </trkpt>
      <trkpt lat="45.86962" lon="4.77149">
        <ele>350.81073</ele>
        <time>2023-08-05T13:11:33.000Z</time>
      </trkpt>
      <trkpt lat="45.86965" lon="4.77148">
        <ele>348.94629</ele>
        <time>2023-08-05T13:11:34.000Z</time>
      </trkpt>
      <trkpt lat="45.86969" lon="4.77148">
        <ele>348.62967</ele>
        <time>2023-08-05T13:11:35.000Z</time>
      </trkpt>
      <trkpt lat="45.86971" lon="4.77148">
        <ele>348.26492</ele>
        <time>2023-08-05T13:11:36.000Z</time>
      </trkpt>
      <trkpt lat="45.86973" lon="4.77149">
        <ele>347.8114</ele>
        <time>2023-08-05T13:11:37.000Z</time>
      </trkpt>
      <trkpt lat="45.86976" lon="4.77149">
        <ele>346.883</ele>
        <time>2023-08-05T13:11:38.000Z</time>
      </trkpt>
      <trkpt lat="45.86979" lon="4.77148">
        <ele>344.70758</ele>
        <time>2023-08-05T13:11:40.000Z</time>
      </trkpt>
      <trkpt lat="45.8698" lon="4.77147">
        <ele>342.55048</ele>
        <time>2023-08-05T13:12:24.000Z</time>
      </trkpt>
      <trkpt lat="45.86984" lon="4.77147">
        <ele>340.41385</ele>
        <time>2023-08-05T13:12:26.000Z</time>
      </trkpt>
      <trkpt lat="45.86986" lon="4.77146">
        <ele>338.33032</ele>
        <time>2023-08-05T13:12:27.000Z</time>
      </trkpt>
      <trkpt lat="45.8699" lon="4.77145">
        <ele>335.96326</ele>
        <time>2023-08-05T13:12:28.000Z</time>
      </trkpt>
      <trkpt lat="45.86994" lon="4.77145">
        <ele>334.92163</ele>
        <time>2023-08-05T13:12:29.000Z</time>
      </trkpt>
      <trkpt lat="45.87" lon="4.77144">
        <ele>333.87045</ele>
        <time>2023-08-05T13:12:30.000Z</time>
      </trkpt>
      <trkpt lat="45.87006" lon="4.77144">
        <ele>334.66687</ele>
        <time>2023-08-05T13:12:31.000Z</time>
      </trkpt>
      <trkpt lat="45.87012" lon="4.77145">
        <ele>335.51483</ele>
        <time>2023-08-05T13:12:32.000Z</time>
      </trkpt>
      <trkpt lat="45.87019" lon="4.77145">
        <ele>336.89972</ele>
        <time>2023-08-05T13:12:33.000Z</time>
      </trkpt>
      <trkpt lat="45.87026" lon="4.77145">
        <ele>336.9935</ele>
        <time>2023-08-05T13:12:34.000Z</time>
      </trkpt>
      <trkpt lat="45.87032" lon="4.77144">
        <ele>337.10318</ele>
        <time>2023-08-05T13:12:35.000Z</time>
      </trkpt>
      <trkpt lat="45.8704" lon="4.77145">
        <ele>337.17694</ele>
        <time>2023-08-05T13:12:36.000Z</time>
      </trkpt>
      <trkpt lat="45.87048" lon="4.77145">
        <ele>337.2424</ele>
        <time>2023-08-05T13:12:37.000Z</time>
      </trkpt>
      <trkpt lat="45.87056" lon="4.77145">
        <ele>337.31332</ele>
        <time>2023-08-05T13:12:38.000Z</time>
      </trkpt>
      <trkpt lat="45.87064" lon="4.77144">
        <ele>339.0087</ele>
        <time>2023-08-05T13:12:39.000Z</time>
      </trkpt>
      <trkpt lat="45.87074" lon="4.77144">
        <ele>339.159</ele>
        <time>2023-08-05T13:12:40.000Z</time>
      </trkpt>
      <trkpt lat="45.87082" lon="4.77144">
        <ele>339.63284</ele>
        <time>2023-08-05T13:12:41.000Z</time>
      </trkpt>
      <trkpt lat="45.87091" lon="4.77144">
        <ele>340.10861</ele>
        <time>2023-08-05T13:12:42.000Z</time>
      </trkpt>
      <trkpt lat="45.87101" lon="4.77144">
        <ele>341.03656</ele>
        <time>2023-08-05T13:12:43.000Z</time>
      </trkpt>
      <trkpt lat="45.8711" lon="4.77143">
        <ele>340.9187</ele>
        <time>2023-08-05T13:12:44.000Z</time>
      </trkpt>
      <trkpt lat="45.87119" lon="4.77143">
        <ele>340.77194</ele>
        <time>2023-08-05T13:12:45.000Z</time>
      </trkpt>
      <trkpt lat="45.87129" lon="4.77142">
        <ele>340.56461</ele>
        <time>2023-08-05T13:12:46.000Z</time>
      </trkpt>
      <trkpt lat="45.87138" lon="4.77142">
        <ele>340.32156</ele>
        <time>2023-08-05T13:12:47.000Z</time>
      </trkpt>
      <trkpt lat="45.87148" lon="4.77141">
        <ele>340.07071</ele>
        <time>2023-08-05T13:12:48.000Z</time>
      </trkpt>
      <trkpt lat="45.87159" lon="4.7714">
        <ele>339.80438</ele>
        <time>2023-08-05T13:12:49.000Z</time>
      </trkpt>
      <trkpt lat="45.87169" lon="4.77138">
        <ele>339.54306</ele>
        <time>2023-08-05T13:12:50.000Z</time>
      </trkpt>
      <trkpt lat="45.87179" lon="4.77138">
        <ele>337.32748</ele>
        <time>2023-08-05T13:12:51.000Z</time>
      </trkpt>
      <trkpt lat="45.87189" lon="4.77138">
        <ele>335.11505</ele>
        <time>2023-08-05T13:12:52.000Z</time>
      </trkpt>
      <trkpt lat="45.872" lon="4.77138">
        <ele>333.99408</ele>
        <time>2023-08-05T13:12:53.000Z</time>
      </trkpt>
      <trkpt lat="45.8721" lon="4.77138">
        <ele>332.91278</ele>
        <time>2023-08-05T13:12:54.000Z</time>
      </trkpt>
      <trkpt lat="45.87219" lon="4.77137">
        <ele>331.83832</ele>
        <time>2023-08-05T13:12:55.000Z</time>
      </trkpt>
      <trkpt lat="45.87228" lon="4.77137">
        <ele>331.26654</ele>
        <time>2023-08-05T13:12:56.000Z</time>
      </trkpt>
      <trkpt lat="45.87235" lon="4.77135">
        <ele>330.67618</ele>
        <time>2023-08-05T13:12:57.000Z</time>
      </trkpt>
      <trkpt lat="45.87242" lon="4.77135">
        <ele>330.12253</ele>
        <time>2023-08-05T13:12:58.000Z</time>
      </trkpt>
      <trkpt lat="45.87248" lon="4.77137">
        <ele>329.85016</ele>
        <time>2023-08-05T13:12:59.000Z</time>
      </trkpt>
      <trkpt lat="45.87254" lon="4.7714">
        <ele>329.61273</ele>
        <time>2023-08-05T13:13:00.000Z</time>
      </trkpt>
      <trkpt lat="45.87258" lon="4.77142">
        <ele>327.92422</ele>
        <time>2023-08-05T13:13:01.000Z</time>
      </trkpt>
      <trkpt lat="45.87261" lon="4.77141">
        <ele>326.40094</ele>
        <time>2023-08-05T13:13:02.000Z</time>
      </trkpt>
      <trkpt lat="45.87264" lon="4.77137">
        <ele>325.91971</ele>
        <time>2023-08-05T13:13:03.000Z</time>
      </trkpt>
      <trkpt lat="45.87265" lon="4.77133">
        <ele>326.40656</ele>
        <time>2023-08-05T13:13:04.000Z</time>
      </trkpt>
      <trkpt lat="45.87267" lon="4.77128">
        <ele>326.90714</ele>
        <time>2023-08-05T13:13:05.000Z</time>
      </trkpt>
      <trkpt lat="45.87268" lon="4.77124">
        <ele>327.48099</ele>
        <time>2023-08-05T13:13:06.000Z</time>
      </trkpt>
      <trkpt lat="45.87269" lon="4.77119">
        <ele>328.08633</ele>
        <time>2023-08-05T13:13:07.000Z</time>
      </trkpt>
      <trkpt lat="45.87269" lon="4.77114">
        <ele>328.75787</ele>
        <time>2023-08-05T13:13:08.000Z</time>
      </trkpt>
      <trkpt lat="45.87269" lon="4.77108">
        <ele>329.45764</ele>
        <time>2023-08-05T13:13:09.000Z</time>
      </trkpt>
      <trkpt lat="45.87269" lon="4.77101">
        <ele>330.11588</ele>
        <time>2023-08-05T13:13:10.000Z</time>
      </trkpt>
      <trkpt lat="45.87268" lon="4.77095">
        <ele>330.81641</ele>
        <time>2023-08-05T13:13:11.000Z</time>
      </trkpt>
      <trkpt lat="45.87268" lon="4.77089">
        <ele>331.57397</ele>
        <time>2023-08-05T13:13:12.000Z</time>
      </trkpt>
      <trkpt lat="45.87269" lon="4.77083">
        <ele>331.23111</ele>
        <time>2023-08-05T13:13:13.000Z</time>
      </trkpt>
      <trkpt lat="45.87273" lon="4.7708">
        <ele>330.82687</ele>
        <time>2023-08-05T13:13:14.000Z</time>
      </trkpt>
      <trkpt lat="45.87277" lon="4.77074">
        <ele>330.46588</ele>
        <time>2023-08-05T13:13:15.000Z</time>
      </trkpt>
      <trkpt lat="45.87281" lon="4.77072">
        <ele>330.49741</ele>
        <time>2023-08-05T13:13:16.000Z</time>
      </trkpt>
      <trkpt lat="45.87286" lon="4.77071">
        <ele>328.66058</ele>
        <time>2023-08-05T13:13:17.000Z</time>
      </trkpt>
      <trkpt lat="45.87291" lon="4.7707">
        <ele>327.00595</ele>
        <time>2023-08-05T13:13:18.000Z</time>
      </trkpt>
      <trkpt lat="45.87296" lon="4.77069">
        <ele>325.20602</ele>
        <time>2023-08-05T13:13:19.000Z</time>
      </trkpt>
      <trkpt lat="45.87302" lon="4.7707">
        <ele>323.42999</ele>
        <time>2023-08-05T13:13:20.000Z</time>
      </trkpt>
      <trkpt lat="45.87307" lon="4.7707">
        <ele>322.35849</ele>
        <time>2023-08-05T13:13:21.000Z</time>
      </trkpt>
      <trkpt lat="45.87313" lon="4.77069">
        <ele>321.19305</ele>
        <time>2023-08-05T13:13:22.000Z</time>
      </trkpt>
      <trkpt lat="45.87318" lon="4.77068">
        <ele>320.03125</ele>
        <time>2023-08-05T13:13:23.000Z</time>
      </trkpt>
      <trkpt lat="45.87324" lon="4.77068">
        <ele>318.94595</ele>
        <time>2023-08-05T13:13:24.000Z</time>
      </trkpt>
      <trkpt lat="45.8733" lon="4.77068">
        <ele>317.85257</ele>
        <time>2023-08-05T13:13:25.000Z</time>
      </trkpt>
      <trkpt lat="45.87336" lon="4.77069">
        <ele>316.68301</ele>
        <time>2023-08-05T13:13:26.000Z</time>
      </trkpt>
      <trkpt lat="45.87342" lon="4.77069">
        <ele>315.50122</ele>
        <time>2023-08-05T13:13:27.000Z</time>
      </trkpt>
      <trkpt lat="45.87349" lon="4.77069">
        <ele>314.2923</ele>
        <time>2023-08-05T13:13:28.000Z</time>
      </trkpt>
      <trkpt lat="45.87355" lon="4.77069">
        <ele>313.06793</ele>
        <time>2023-08-05T13:13:29.000Z</time>
      </trkpt>
      <trkpt lat="45.8736" lon="4.77069">
        <ele>311.88968</ele>
        <time>2023-08-05T13:13:30.000Z</time>
      </trkpt>
      <trkpt lat="45.87366" lon="4.77071">
        <ele>310.5701</ele>
        <time>2023-08-05T13:13:31.000Z</time>
      </trkpt>
      <trkpt lat="45.87371" lon="4.77074">
        <ele>309.25244</ele>
        <time>2023-08-05T13:13:32.000Z</time>
      </trkpt>
      <trkpt lat="45.87376" lon="4.77079">
        <ele>307.93036</ele>
        <time>2023-08-05T13:13:33.000Z</time>
      </trkpt>
      <trkpt lat="45.8738" lon="4.77084">
        <ele>306.65253</ele>
        <time>2023-08-05T13:13:34.000Z</time>
      </trkpt>
      <trkpt lat="45.87384" lon="4.7709">
        <ele>305.3465</ele>
        <time>2023-08-05T13:13:35.000Z</time>
      </trkpt>
      <trkpt lat="45.87386" lon="4.77096">
        <ele>303.21103</ele>
        <time>2023-08-05T13:13:36.000Z</time>
      </trkpt>
      <trkpt lat="45.87387" lon="4.77104">
        <ele>302.96606</ele>
        <time>2023-08-05T13:13:37.000Z</time>
      </trkpt>
      <trkpt lat="45.87389" lon="4.77112">
        <ele>302.51495</ele>
        <time>2023-08-05T13:13:38.000Z</time>
      </trkpt>
      <trkpt lat="45.8739" lon="4.77119">
        <ele>301.94174</ele>
        <time>2023-08-05T13:13:39.000Z</time>
      </trkpt>
      <trkpt lat="45.87391" lon="4.77127">
        <ele>301.33521</ele>
        <time>2023-08-05T13:13:40.000Z</time>
      </trkpt>
      <trkpt lat="45.87391" lon="4.77135">
        <ele>301.15765</ele>
        <time>2023-08-05T13:13:41.000Z</time>
      </trkpt>
      <trkpt lat="45.87392" lon="4.77142">
        <ele>300.93533</ele>
        <time>2023-08-05T13:13:42.000Z</time>
      </trkpt>
      <trkpt lat="45.87393" lon="4.7715">
        <ele>300.73022</ele>
        <time>2023-08-05T13:13:43.000Z</time>
      </trkpt>
      <trkpt lat="45.87393" lon="4.77157">
        <ele>300.47568</ele>
        <time>2023-08-05T13:13:44.000Z</time>
      </trkpt>
      <trkpt lat="45.87394" lon="4.77164">
        <ele>300.23468</ele>
        <time>2023-08-05T13:13:45.000Z</time>
      </trkpt>
      <trkpt lat="45.87393" lon="4.77171">
        <ele>300.03314</ele>
        <time>2023-08-05T13:13:46.000Z</time>
      </trkpt>
      <trkpt lat="45.87393" lon="4.77178">
        <ele>299.88135</ele>
        <time>2023-08-05T13:13:47.000Z</time>
      </trkpt>
      <trkpt lat="45.87397" lon="4.77181">
        <ele>299.68741</ele>
        <time>2023-08-05T13:13:48.000Z</time>
      </trkpt>
      <trkpt lat="45.874" lon="4.77182">
        <ele>299.48251</ele>
        <time>2023-08-05T13:13:49.000Z</time>
      </trkpt>
      <trkpt lat="45.87405" lon="4.77181">
        <ele>299.4043</ele>
        <time>2023-08-05T13:13:50.000Z</time>
      </trkpt>
      <trkpt lat="45.87409" lon="4.77179">
        <ele>299.45139</ele>
        <time>2023-08-05T13:13:51.000Z</time>
      </trkpt>
      <trkpt lat="45.87414" lon="4.77177">
        <ele>299.48825</ele>
        <time>2023-08-05T13:13:52.000Z</time>
      </trkpt>
      <trkpt lat="45.87419" lon="4.77175">
        <ele>299.51166</ele>
        <time>2023-08-05T13:13:53.000Z</time>
      </trkpt>
      <trkpt lat="45.87424" lon="4.77173">
        <ele>299.48337</ele>
        <time>2023-08-05T13:13:54.000Z</time>
      </trkpt>
      <trkpt lat="45.87429" lon="4.7717">
        <ele>299.46231</ele>
        <time>2023-08-05T13:13:55.000Z</time>
      </trkpt>
      <trkpt lat="45.87435" lon="4.77168">
        <ele>299.44244</ele>
        <time>2023-08-05T13:13:56.000Z</time>
      </trkpt>
      <trkpt lat="45.8744" lon="4.77165">
        <ele>299.42352</ele>
        <time>2023-08-05T13:13:57.000Z</time>
      </trkpt>
      <trkpt lat="45.87447" lon="4.77161">
        <ele>299.38544</ele>
        <time>2023-08-05T13:13:58.000Z</time>
      </trkpt>
      <trkpt lat="45.87453" lon="4.77158">
        <ele>299.33353</ele>
        <time>2023-08-05T13:13:59.000Z</time>
      </trkpt>
      <trkpt lat="45.87458" lon="4.77156">
        <ele>299.25824</ele>
        <time>2023-08-05T13:14:00.000Z</time>
      </trkpt>
      <trkpt lat="45.87464" lon="4.77153">
        <ele>299.19049</ele>
        <time>2023-08-05T13:14:01.000Z</time>
      </trkpt>
      <trkpt lat="45.87471" lon="4.77153">
        <ele>299.04532</ele>
        <time>2023-08-05T13:14:02.000Z</time>
      </trkpt>
      <trkpt lat="45.87477" lon="4.7715">
        <ele>298.89282</ele>
        <time>2023-08-05T13:14:03.000Z</time>
      </trkpt>
      <trkpt lat="45.87483" lon="4.77148">
        <ele>298.76935</ele>
        <time>2023-08-05T13:14:04.000Z</time>
      </trkpt>
      <trkpt lat="45.87489" lon="4.77144">
        <ele>298.66031</ele>
        <time>2023-08-05T13:14:05.000Z</time>
      </trkpt>
      <trkpt lat="45.87495" lon="4.77142">
        <ele>298.50821</ele>
        <time>2023-08-05T13:14:06.000Z</time>
      </trkpt>
      <trkpt lat="45.87501" lon="4.77139">
        <ele>298.32339</ele>
        <time>2023-08-05T13:14:07.000Z</time>
      </trkpt>
      <trkpt lat="45.87507" lon="4.77137">
        <ele>298.1434</ele>
        <time>2023-08-05T13:14:08.000Z</time>
      </trkpt>
      <trkpt lat="45.87513" lon="4.77137">
        <ele>297.99792</ele>
        <time>2023-08-05T13:14:09.000Z</time>
      </trkpt>
      <trkpt lat="45.87518" lon="4.77136">
        <ele>297.71689</ele>
        <time>2023-08-05T13:14:10.000Z</time>
      </trkpt>
      <trkpt lat="45.8752" lon="4.77137">
        <ele>297.46005</ele>
        <time>2023-08-05T13:14:11.000Z</time>
      </trkpt>
      <trkpt lat="45.87524" lon="4.77138">
        <ele>297.31393</ele>
        <time>2023-08-05T13:14:13.000Z</time>
      </trkpt>
      <trkpt lat="45.87526" lon="4.77135">
        <ele>297.08975</ele>
        <time>2023-08-05T13:14:14.000Z</time>
      </trkpt>
      <trkpt lat="45.87528" lon="4.77133">
        <ele>296.89178</ele>
        <time>2023-08-05T13:14:15.000Z</time>
      </trkpt>
      <trkpt lat="45.8753" lon="4.7713">
        <ele>296.65353</ele>
        <time>2023-08-05T13:14:16.000Z</time>
      </trkpt>
      <trkpt lat="45.87533" lon="4.77127">
        <ele>296.35583</ele>
        <time>2023-08-05T13:14:17.000Z</time>
      </trkpt>
      <trkpt lat="45.87536" lon="4.77123">
        <ele>296.06854</ele>
        <time>2023-08-05T13:14:18.000Z</time>
      </trkpt>
      <trkpt lat="45.87539" lon="4.77119">
        <ele>296.16156</ele>
        <time>2023-08-05T13:14:19.000Z</time>
      </trkpt>
      <trkpt lat="45.87542" lon="4.77115">
        <ele>296.24384</ele>
        <time>2023-08-05T13:14:20.000Z</time>
      </trkpt>
      <trkpt lat="45.87546" lon="4.77111">
        <ele>296.37457</ele>
        <time>2023-08-05T13:14:21.000Z</time>
      </trkpt>
      <trkpt lat="45.87549" lon="4.77106">
        <ele>296.69586</ele>
        <time>2023-08-05T13:14:22.000Z</time>
      </trkpt>
      <trkpt lat="45.87553" lon="4.77102">
        <ele>297.11398</ele>
        <time>2023-08-05T13:14:23.000Z</time>
      </trkpt>
      <trkpt lat="45.87556" lon="4.77097">
        <ele>296.9649</ele>
        <time>2023-08-05T13:14:24.000Z</time>
      </trkpt>
      <trkpt lat="45.8756" lon="4.77093">
        <ele>296.9024</ele>
        <time>2023-08-05T13:14:25.000Z</time>
      </trkpt>
      <trkpt lat="45.87564" lon="4.77089">
        <ele>296.81876</ele>
        <time>2023-08-05T13:14:26.000Z</time>
      </trkpt>
      <trkpt lat="45.87568" lon="4.77084">
        <ele>296.42935</ele>
        <time>2023-08-05T13:14:27.000Z</time>
      </trkpt>
      <trkpt lat="45.87573" lon="4.7708">
        <ele>295.99353</ele>
        <time>2023-08-05T13:14:28.000Z</time>
      </trkpt>
      <trkpt lat="45.87578" lon="4.77075">
        <ele>295.59113</ele>
        <time>2023-08-05T13:14:29.000Z</time>
      </trkpt>
      <trkpt lat="45.87583" lon="4.77071">
        <ele>295.15906</ele>
        <time>2023-08-05T13:14:30.000Z</time>
      </trkpt>
      <trkpt lat="45.87588" lon="4.77066">
        <ele>294.72784</ele>
        <time>2023-08-05T13:14:31.000Z</time>
      </trkpt>
      <trkpt lat="45.87592" lon="4.77061">
        <ele>294.29413</ele>
        <time>2023-08-05T13:14:32.000Z</time>
      </trkpt>
      <trkpt lat="45.87598" lon="4.77055">
        <ele>293.75183</ele>
        <time>2023-08-05T13:14:33.000Z</time>
      </trkpt>
      <trkpt lat="45.87603" lon="4.7705">
        <ele>293.47281</ele>
        <time>2023-08-05T13:14:34.000Z</time>
      </trkpt>
      <trkpt lat="45.87608" lon="4.77044">
        <ele>293.20941</ele>
        <time>2023-08-05T13:14:35.000Z</time>
      </trkpt>
      <trkpt lat="45.87613" lon="4.77039">
        <ele>292.96994</ele>
        <time>2023-08-05T13:14:36.000Z</time>
      </trkpt>
      <trkpt lat="45.87618" lon="4.77035">
        <ele>292.90671</ele>
        <time>2023-08-05T13:14:37.000Z</time>
      </trkpt>
      <trkpt lat="45.87623" lon="4.77032">
        <ele>292.84732</ele>
        <time>2023-08-05T13:14:38.000Z</time>
      </trkpt>
      <trkpt lat="45.87629" lon="4.77028">
        <ele>292.05478</ele>
        <time>2023-08-05T13:14:39.000Z</time>
      </trkpt>
      <trkpt lat="45.87635" lon="4.77027">
        <ele>291.33618</ele>
        <time>2023-08-05T13:14:40.000Z</time>
      </trkpt>
      <trkpt lat="45.87641" lon="4.77025">
        <ele>290.59152</ele>
        <time>2023-08-05T13:14:41.000Z</time>
      </trkpt>
      <trkpt lat="45.87647" lon="4.77025">
        <ele>289.64136</ele>
        <time>2023-08-05T13:14:42.000Z</time>
      </trkpt>
      <trkpt lat="45.87653" lon="4.77025">
        <ele>288.66281</ele>
        <time>2023-08-05T13:14:43.000Z</time>
      </trkpt>
      <trkpt lat="45.87659" lon="4.77025">
        <ele>288.26239</ele>
        <time>2023-08-05T13:14:44.000Z</time>
      </trkpt>
      <trkpt lat="45.87665" lon="4.77024">
        <ele>287.77094</ele>
        <time>2023-08-05T13:14:45.000Z</time>
      </trkpt>
      <trkpt lat="45.87671" lon="4.77024">
        <ele>287.28143</ele>
        <time>2023-08-05T13:14:46.000Z</time>
      </trkpt>
      <trkpt lat="45.87678" lon="4.77025">
        <ele>287.11661</ele>
        <time>2023-08-05T13:14:47.000Z</time>
      </trkpt>
      <trkpt lat="45.87684" lon="4.77025">
        <ele>286.99213</ele>
        <time>2023-08-05T13:14:48.000Z</time>
      </trkpt>
      <trkpt lat="45.87689" lon="4.77024">
        <ele>286.80792</ele>
        <time>2023-08-05T13:14:49.000Z</time>
      </trkpt>
      <trkpt lat="45.87696" lon="4.77024">
        <ele>286.63974</ele>
        <time>2023-08-05T13:14:50.000Z</time>
      </trkpt>
      <trkpt lat="45.87702" lon="4.77023">
        <ele>286.44287</ele>
        <time>2023-08-05T13:14:51.000Z</time>
      </trkpt>
      <trkpt lat="45.87708" lon="4.77022">
        <ele>286.24353</ele>
        <time>2023-08-05T13:14:52.000Z</time>
      </trkpt>
      <trkpt lat="45.87714" lon="4.7702">
        <ele>286.06744</ele>
        <time>2023-08-05T13:14:53.000Z</time>
      </trkpt>
      <trkpt lat="45.8772" lon="4.7702">
        <ele>285.75562</ele>
        <time>2023-08-05T13:14:54.000Z</time>
      </trkpt>
      <trkpt lat="45.87726" lon="4.7702">
        <ele>285.48743</ele>
        <time>2023-08-05T13:14:55.000Z</time>
      </trkpt>
      <trkpt lat="45.87732" lon="4.77019">
        <ele>285.23218</ele>
        <time>2023-08-05T13:14:56.000Z</time>
      </trkpt>
      <trkpt lat="45.87738" lon="4.77018">
        <ele>284.82855</ele>
        <time>2023-08-05T13:14:57.000Z</time>
      </trkpt>
      <trkpt lat="45.87744" lon="4.77018">
        <ele>284.43137</ele>
        <time>2023-08-05T13:14:58.000Z</time>
      </trkpt>
      <trkpt lat="45.87749" lon="4.77016">
        <ele>284.39795</ele>
        <time>2023-08-05T13:14:59.000Z</time>
      </trkpt>
      <trkpt lat="45.87755" lon="4.77016">
        <ele>284.28491</ele>
        <time>2023-08-05T13:15:00.000Z</time>
      </trkpt>
      <trkpt lat="45.87761" lon="4.77014">
        <ele>284.20877</ele>
        <time>2023-08-05T13:15:01.000Z</time>
      </trkpt>
      <trkpt lat="45.87767" lon="4.77012">
        <ele>284.15616</ele>
        <time>2023-08-05T13:15:02.000Z</time>
      </trkpt>
      <trkpt lat="45.87774" lon="4.77013">
        <ele>284.09259</ele>
        <time>2023-08-05T13:15:03.000Z</time>
      </trkpt>
      <trkpt lat="45.8778" lon="4.77012">
        <ele>284.02472</ele>
        <time>2023-08-05T13:15:04.000Z</time>
      </trkpt>
      <trkpt lat="45.87786" lon="4.77011">
        <ele>283.95639</ele>
        <time>2023-08-05T13:15:05.000Z</time>
      </trkpt>
      <trkpt lat="45.87792" lon="4.7701">
        <ele>283.89597</ele>
        <time>2023-08-05T13:15:06.000Z</time>
      </trkpt>
      <trkpt lat="45.87798" lon="4.77009">
        <ele>283.89185</ele>
        <time>2023-08-05T13:15:07.000Z</time>
      </trkpt>
      <trkpt lat="45.87805" lon="4.77009">
        <ele>283.88657</ele>
        <time>2023-08-05T13:15:08.000Z</time>
      </trkpt>
      <trkpt lat="45.87811" lon="4.77009">
        <ele>283.92401</ele>
        <time>2023-08-05T13:15:09.000Z</time>
      </trkpt>
      <trkpt lat="45.87817" lon="4.77008">
        <ele>283.94452</ele>
        <time>2023-08-05T13:15:10.000Z</time>
      </trkpt>
      <trkpt lat="45.87823" lon="4.77008">
        <ele>283.9704</ele>
        <time>2023-08-05T13:15:11.000Z</time>
      </trkpt>
      <trkpt lat="45.87829" lon="4.77007">
        <ele>284.00266</ele>
        <time>2023-08-05T13:15:12.000Z</time>
      </trkpt>
      <trkpt lat="45.87835" lon="4.77005">
        <ele>284.00189</ele>
        <time>2023-08-05T13:15:13.000Z</time>
      </trkpt>
      <trkpt lat="45.87841" lon="4.77004">
        <ele>283.97675</ele>
        <time>2023-08-05T13:15:14.000Z</time>
      </trkpt>
      <trkpt lat="45.87847" lon="4.77003">
        <ele>283.92548</ele>
        <time>2023-08-05T13:15:15.000Z</time>
      </trkpt>
      <trkpt lat="45.87853" lon="4.77001">
        <ele>283.86688</ele>
        <time>2023-08-05T13:15:16.000Z</time>
      </trkpt>
      <trkpt lat="45.87859" lon="4.76999">
        <ele>283.81769</ele>
        <time>2023-08-05T13:15:17.000Z</time>
      </trkpt>
      <trkpt lat="45.87865" lon="4.76998">
        <ele>283.77728</ele>
        <time>2023-08-05T13:15:18.000Z</time>
      </trkpt>
      <trkpt lat="45.87869" lon="4.77">
        <ele>283.68829</ele>
        <time>2023-08-05T13:15:19.000Z</time>
      </trkpt>
      <trkpt lat="45.87876" lon="4.76997">
        <ele>283.64267</ele>
        <time>2023-08-05T13:15:20.000Z</time>
      </trkpt>
      <trkpt lat="45.87882" lon="4.76996">
        <ele>283.5394</ele>
        <time>2023-08-05T13:15:21.000Z</time>
      </trkpt>
      <trkpt lat="45.8789" lon="4.76994">
        <ele>283.44049</ele>
        <time>2023-08-05T13:15:22.000Z</time>
      </trkpt>
      <trkpt lat="45.87896" lon="4.76993">
        <ele>283.37405</ele>
        <time>2023-08-05T13:15:23.000Z</time>
      </trkpt>
      <trkpt lat="45.87902" lon="4.76992">
        <ele>283.2717</ele>
        <time>2023-08-05T13:15:24.000Z</time>
      </trkpt>
      <trkpt lat="45.87908" lon="4.76991">
        <ele>283.15762</ele>
        <time>2023-08-05T13:15:25.000Z</time>
      </trkpt>
      <trkpt lat="45.87915" lon="4.76989">
        <ele>283.06607</ele>
        <time>2023-08-05T13:15:26.000Z</time>
      </trkpt>
      <trkpt lat="45.87921" lon="4.76988">
        <ele>282.94189</ele>
        <time>2023-08-05T13:15:27.000Z</time>
      </trkpt>
      <trkpt lat="45.87928" lon="4.76987">
        <ele>282.82764</ele>
        <time>2023-08-05T13:15:28.000Z</time>
      </trkpt>
      <trkpt lat="45.87934" lon="4.76987">
        <ele>282.72955</ele>
        <time>2023-08-05T13:15:29.000Z</time>
      </trkpt>
      <trkpt lat="45.8794" lon="4.76986">
        <ele>282.63739</ele>
        <time>2023-08-05T13:15:30.000Z</time>
      </trkpt>
      <trkpt lat="45.87947" lon="4.76986">
        <ele>282.5708</ele>
        <time>2023-08-05T13:15:31.000Z</time>
      </trkpt>
      <trkpt lat="45.87953" lon="4.76985">
        <ele>282.48444</ele>
        <time>2023-08-05T13:15:32.000Z</time>
      </trkpt>
      <trkpt lat="45.8796" lon="4.76986">
        <ele>282.39819</ele>
        <time>2023-08-05T13:15:33.000Z</time>
      </trkpt>
      <trkpt lat="45.87966" lon="4.76986">
        <ele>282.30511</ele>
        <time>2023-08-05T13:15:34.000Z</time>
      </trkpt>
      <trkpt lat="45.87973" lon="4.76986">
        <ele>282.20236</ele>
        <time>2023-08-05T13:15:35.000Z</time>
      </trkpt>
      <trkpt lat="45.87979" lon="4.76987">
        <ele>282.06512</ele>
        <time>2023-08-05T13:15:36.000Z</time>
      </trkpt>
      <trkpt lat="45.87986" lon="4.76987">
        <ele>281.79398</ele>
        <time>2023-08-05T13:15:37.000Z</time>
      </trkpt>
      <trkpt lat="45.87993" lon="4.76988">
        <ele>281.49731</ele>
        <time>2023-08-05T13:15:38.000Z</time>
      </trkpt>
      <trkpt lat="45.88" lon="4.76989">
        <ele>281.25897</ele>
        <time>2023-08-05T13:15:39.000Z</time>
      </trkpt>
      <trkpt lat="45.88007" lon="4.76989">
        <ele>280.9809</ele>
        <time>2023-08-05T13:15:40.000Z</time>
      </trkpt>
      <trkpt lat="45.88014" lon="4.76989">
        <ele>280.71637</ele>
        <time>2023-08-05T13:15:41.000Z</time>
      </trkpt>
      <trkpt lat="45.88021" lon="4.7699">
        <ele>280.43658</ele>
        <time>2023-08-05T13:15:42.000Z</time>
      </trkpt>
      <trkpt lat="45.88028" lon="4.7699">
        <ele>280.11957</ele>
        <time>2023-08-05T13:15:43.000Z</time>
      </trkpt>
      <trkpt lat="45.88034" lon="4.7699">
        <ele>279.8421</ele>
        <time>2023-08-05T13:15:44.000Z</time>
      </trkpt>
      <trkpt lat="45.88041" lon="4.76992">
        <ele>279.55548</ele>
        <time>2023-08-05T13:15:45.000Z</time>
      </trkpt>
      <trkpt lat="45.88048" lon="4.76992">
        <ele>279.2438</ele>
        <time>2023-08-05T13:15:46.000Z</time>
      </trkpt>
      <trkpt lat="45.88055" lon="4.76993">
        <ele>278.9404</ele>
        <time>2023-08-05T13:15:47.000Z</time>
      </trkpt>
      <trkpt lat="45.8806" lon="4.76995">
        <ele>278.6283</ele>
        <time>2023-08-05T13:15:48.000Z</time>
      </trkpt>
      <trkpt lat="45.88064" lon="4.76997">
        <ele>278.30652</ele>
        <time>2023-08-05T13:15:49.000Z</time>
      </trkpt>
      <trkpt lat="45.88068" lon="4.76999">
        <ele>278.00635</ele>
        <time>2023-08-05T13:15:50.000Z</time>
      </trkpt>
      <trkpt lat="45.88072" lon="4.76997">
        <ele>277.7063</ele>
        <time>2023-08-05T13:15:51.000Z</time>
      </trkpt>
      <trkpt lat="45.88075" lon="4.76993">
        <ele>277.4281</ele>
        <time>2023-08-05T13:15:52.000Z</time>
      </trkpt>
      <trkpt lat="45.88076" lon="4.76988">
        <ele>277.15631</ele>
        <time>2023-08-05T13:15:53.000Z</time>
      </trkpt>
      <trkpt lat="45.88078" lon="4.76982">
        <ele>276.91888</ele>
        <time>2023-08-05T13:15:54.000Z</time>
      </trkpt>
      <trkpt lat="45.88079" lon="4.76976">
        <ele>276.80002</ele>
        <time>2023-08-05T13:15:55.000Z</time>
      </trkpt>
      <trkpt lat="45.8808" lon="4.76971">
        <ele>276.7215</ele>
        <time>2023-08-05T13:15:56.000Z</time>
      </trkpt>
      <trkpt lat="45.88082" lon="4.76964">
        <ele>276.98737</ele>
        <time>2023-08-05T13:15:57.000Z</time>
      </trkpt>
      <trkpt lat="45.88083" lon="4.76958">
        <ele>277.27682</ele>
        <time>2023-08-05T13:15:58.000Z</time>
      </trkpt>
      <trkpt lat="45.88085" lon="4.76952">
        <ele>277.69427</ele>
        <time>2023-08-05T13:15:59.000Z</time>
      </trkpt>
      <trkpt lat="45.88086" lon="4.76945">
        <ele>277.68677</ele>
        <time>2023-08-05T13:16:00.000Z</time>
      </trkpt>
      <trkpt lat="45.88088" lon="4.76938">
        <ele>277.76248</ele>
        <time>2023-08-05T13:16:01.000Z</time>
      </trkpt>
      <trkpt lat="45.88091" lon="4.76933">
        <ele>277.83276</ele>
        <time>2023-08-05T13:16:02.000Z</time>
      </trkpt>
      <trkpt lat="45.88096" lon="4.76929">
        <ele>277.90448</ele>
        <time>2023-08-05T13:16:03.000Z</time>
      </trkpt>
      <trkpt lat="45.88101" lon="4.76927">
        <ele>277.96863</ele>
        <time>2023-08-05T13:16:04.000Z</time>
      </trkpt>
      <trkpt lat="45.88105" lon="4.76925">
        <ele>278.04495</ele>
        <time>2023-08-05T13:16:05.000Z</time>
      </trkpt>
      <trkpt lat="45.8811" lon="4.76923">
        <ele>278.13437</ele>
        <time>2023-08-05T13:16:06.000Z</time>
      </trkpt>
      <trkpt lat="45.88115" lon="4.76922">
        <ele>278.21835</ele>
        <time>2023-08-05T13:16:07.000Z</time>
      </trkpt>
      <trkpt lat="45.8812" lon="4.76922">
        <ele>278.29721</ele>
        <time>2023-08-05T13:16:08.000Z</time>
      </trkpt>
      <trkpt lat="45.88126" lon="4.76922">
        <ele>278.36972</ele>
        <time>2023-08-05T13:16:09.000Z</time>
      </trkpt>
      <trkpt lat="45.88131" lon="4.76921">
        <ele>278.44974</ele>
        <time>2023-08-05T13:16:10.000Z</time>
      </trkpt>
      <trkpt lat="45.88136" lon="4.7692">
        <ele>278.53046</ele>
        <time>2023-08-05T13:16:11.000Z</time>
      </trkpt>
      <trkpt lat="45.88141" lon="4.76919">
        <ele>278.61908</ele>
        <time>2023-08-05T13:16:12.000Z</time>
      </trkpt>
      <trkpt lat="45.88146" lon="4.76919">
        <ele>278.70459</ele>
        <time>2023-08-05T13:16:13.000Z</time>
      </trkpt>
      <trkpt lat="45.88152" lon="4.76917">
        <ele>278.75287</ele>
        <time>2023-08-05T13:16:14.000Z</time>
      </trkpt>
      <trkpt lat="45.88158" lon="4.76916">
        <ele>278.89651</ele>
        <time>2023-08-05T13:16:15.000Z</time>
      </trkpt>
      <trkpt lat="45.88163" lon="4.76915">
        <ele>279.02081</ele>
        <time>2023-08-05T13:16:16.000Z</time>
      </trkpt>
      <trkpt lat="45.88169" lon="4.76913">
        <ele>279.08054</ele>
        <time>2023-08-05T13:16:17.000Z</time>
      </trkpt>
      <trkpt lat="45.88175" lon="4.76912">
        <ele>279.13309</ele>
        <time>2023-08-05T13:16:18.000Z</time>
      </trkpt>
      <trkpt lat="45.8818" lon="4.76911">
        <ele>278.57169</ele>
        <time>2023-08-05T13:16:19.000Z</time>
      </trkpt>
      <trkpt lat="45.88186" lon="4.7691">
        <ele>278.52838</ele>
        <time>2023-08-05T13:16:20.000Z</time>
      </trkpt>
      <trkpt lat="45.88192" lon="4.76909">
        <ele>278.42975</ele>
        <time>2023-08-05T13:16:21.000Z</time>
      </trkpt>
      <trkpt lat="45.88198" lon="4.76907">
        <ele>278.33807</ele>
        <time>2023-08-05T13:16:22.000Z</time>
      </trkpt>
      <trkpt lat="45.88204" lon="4.76907">
        <ele>278.24234</ele>
        <time>2023-08-05T13:16:23.000Z</time>
      </trkpt>
      <trkpt lat="45.8821" lon="4.76904">
        <ele>278.37335</ele>
        <time>2023-08-05T13:16:24.000Z</time>
      </trkpt>
      <trkpt lat="45.88216" lon="4.76902">
        <ele>278.66119</ele>
        <time>2023-08-05T13:16:25.000Z</time>
      </trkpt>
      <trkpt lat="45.88222" lon="4.76902">
        <ele>278.43997</ele>
        <time>2023-08-05T13:16:26.000Z</time>
      </trkpt>
      <trkpt lat="45.88228" lon="4.769">
        <ele>278.3566</ele>
        <time>2023-08-05T13:16:27.000Z</time>
      </trkpt>
      <trkpt lat="45.88234" lon="4.76898">
        <ele>278.29144</ele>
        <time>2023-08-05T13:16:28.000Z</time>
      </trkpt>
      <trkpt lat="45.88239" lon="4.76897">
        <ele>278.20679</ele>
        <time>2023-08-05T13:16:29.000Z</time>
      </trkpt>
      <trkpt lat="45.88245" lon="4.76895">
        <ele>278.09677</ele>
        <time>2023-08-05T13:16:30.000Z</time>
      </trkpt>
      <trkpt lat="45.88252" lon="4.76895">
        <ele>278.01993</ele>
        <time>2023-08-05T13:16:31.000Z</time>
      </trkpt>
      <trkpt lat="45.88257" lon="4.76893">
        <ele>277.92752</ele>
        <time>2023-08-05T13:16:32.000Z</time>
      </trkpt>
      <trkpt lat="45.88263" lon="4.76891">
        <ele>277.83771</ele>
        <time>2023-08-05T13:16:33.000Z</time>
      </trkpt>
      <trkpt lat="45.88269" lon="4.76889">
        <ele>277.79144</ele>
        <time>2023-08-05T13:16:34.000Z</time>
      </trkpt>
      <trkpt lat="45.88275" lon="4.76889">
        <ele>277.53607</ele>
        <time>2023-08-05T13:16:35.000Z</time>
      </trkpt>
      <trkpt lat="45.88282" lon="4.7689">
        <ele>277.23792</ele>
        <time>2023-08-05T13:16:36.000Z</time>
      </trkpt>
      <trkpt lat="45.88287" lon="4.76889">
        <ele>276.79971</ele>
        <time>2023-08-05T13:16:37.000Z</time>
      </trkpt>
      <trkpt lat="45.88293" lon="4.76889">
        <ele>276.39865</ele>
        <time>2023-08-05T13:16:38.000Z</time>
      </trkpt>
      <trkpt lat="45.88298" lon="4.76887">
        <ele>276.47104</ele>
        <time>2023-08-05T13:16:39.000Z</time>
      </trkpt>
      <trkpt lat="45.88305" lon="4.76886">
        <ele>276.4563</ele>
        <time>2023-08-05T13:16:40.000Z</time>
      </trkpt>
      <trkpt lat="45.88311" lon="4.76885">
        <ele>276.50809</ele>
        <time>2023-08-05T13:16:41.000Z</time>
      </trkpt>
      <trkpt lat="45.88316" lon="4.76883">
        <ele>276.41864</ele>
        <time>2023-08-05T13:16:42.000Z</time>
      </trkpt>
      <trkpt lat="45.88322" lon="4.76882">
        <ele>276.64014</ele>
        <time>2023-08-05T13:16:43.000Z</time>
      </trkpt>
      <trkpt lat="45.88327" lon="4.76881">
        <ele>275.63385</ele>
        <time>2023-08-05T13:16:44.000Z</time>
      </trkpt>
      <trkpt lat="45.88333" lon="4.76881">
        <ele>274.47278</ele>
        <time>2023-08-05T13:16:45.000Z</time>
      </trkpt>
      <trkpt lat="45.88339" lon="4.7688">
        <ele>273.80298</ele>
        <time>2023-08-05T13:16:46.000Z</time>
      </trkpt>
      <trkpt lat="45.88344" lon="4.76879">
        <ele>273.01532</ele>
        <time>2023-08-05T13:16:47.000Z</time>
      </trkpt>
      <trkpt lat="45.8835" lon="4.76879">
        <ele>272.21069</ele>
        <time>2023-08-05T13:16:48.000Z</time>
      </trkpt>
      <trkpt lat="45.88356" lon="4.76878">
        <ele>271.435</ele>
        <time>2023-08-05T13:16:49.000Z</time>
      </trkpt>
      <trkpt lat="45.88362" lon="4.76877">
        <ele>270.66132</ele>
        <time>2023-08-05T13:16:50.000Z</time>
      </trkpt>
      <trkpt lat="45.88367" lon="4.76877">
        <ele>269.84924</ele>
        <time>2023-08-05T13:16:51.000Z</time>
      </trkpt>
      <trkpt lat="45.88373" lon="4.76877">
        <ele>269.03671</ele>
        <time>2023-08-05T13:16:52.000Z</time>
      </trkpt>
      <trkpt lat="45.88379" lon="4.76877">
        <ele>268.22833</ele>
        <time>2023-08-05T13:16:53.000Z</time>
      </trkpt>
      <trkpt lat="45.88385" lon="4.76877">
        <ele>267.38574</ele>
        <time>2023-08-05T13:16:54.000Z</time>
      </trkpt>
      <trkpt lat="45.88391" lon="4.76876">
        <ele>266.54395</ele>
        <time>2023-08-05T13:16:55.000Z</time>
      </trkpt>
      <trkpt lat="45.88397" lon="4.76877">
        <ele>265.76004</ele>
        <time>2023-08-05T13:16:56.000Z</time>
      </trkpt>
      <trkpt lat="45.88403" lon="4.76879">
        <ele>264.96924</ele>
        <time>2023-08-05T13:16:57.000Z</time>
      </trkpt>
      <trkpt lat="45.88409" lon="4.76881">
        <ele>264.14301</ele>
        <time>2023-08-05T13:16:58.000Z</time>
      </trkpt>
      <trkpt lat="45.88415" lon="4.76883">
        <ele>263.30936</ele>
        <time>2023-08-05T13:16:59.000Z</time>
      </trkpt>
      <trkpt lat="45.8842" lon="4.76885">
        <ele>262.4754</ele>
        <time>2023-08-05T13:17:00.000Z</time>
      </trkpt>
      <trkpt lat="45.88426" lon="4.76886">
        <ele>261.56589</ele>
        <time>2023-08-05T13:17:01.000Z</time>
      </trkpt>
      <trkpt lat="45.88433" lon="4.76888">
        <ele>260.78583</ele>
        <time>2023-08-05T13:17:02.000Z</time>
      </trkpt>
      <trkpt lat="45.88439" lon="4.76889">
        <ele>259.71323</ele>
        <time>2023-08-05T13:17:03.000Z</time>
      </trkpt>
      <trkpt lat="45.88445" lon="4.7689">
        <ele>259.6347</ele>
        <time>2023-08-05T13:17:04.000Z</time>
      </trkpt>
      <trkpt lat="45.88451" lon="4.76891">
        <ele>259.56885</ele>
        <time>2023-08-05T13:17:05.000Z</time>
      </trkpt>
      <trkpt lat="45.88457" lon="4.76891">
        <ele>259.508</ele>
        <time>2023-08-05T13:17:06.000Z</time>
      </trkpt>
      <trkpt lat="45.88463" lon="4.76891">
        <ele>259.43536</ele>
        <time>2023-08-05T13:17:07.000Z</time>
      </trkpt>
      <trkpt lat="45.88468" lon="4.7689">
        <ele>259.37009</ele>
        <time>2023-08-05T13:17:08.000Z</time>
      </trkpt>
      <trkpt lat="45.88474" lon="4.76889">
        <ele>259.30939</ele>
        <time>2023-08-05T13:17:09.000Z</time>
      </trkpt>
      <trkpt lat="45.8848" lon="4.76886">
        <ele>259.24448</ele>
        <time>2023-08-05T13:17:10.000Z</time>
      </trkpt>
      <trkpt lat="45.88486" lon="4.76887">
        <ele>259.18149</ele>
        <time>2023-08-05T13:17:11.000Z</time>
      </trkpt>
      <trkpt lat="45.88492" lon="4.76886">
        <ele>259.14069</ele>
        <time>2023-08-05T13:17:12.000Z</time>
      </trkpt>
      <trkpt lat="45.88498" lon="4.76887">
        <ele>259.08627</ele>
        <time>2023-08-05T13:17:13.000Z</time>
      </trkpt>
      <trkpt lat="45.88503" lon="4.76886">
        <ele>259.03448</ele>
        <time>2023-08-05T13:17:14.000Z</time>
      </trkpt>
      <trkpt lat="45.88509" lon="4.76884">
        <ele>258.97906</ele>
        <time>2023-08-05T13:17:15.000Z</time>
      </trkpt>
      <trkpt lat="45.88515" lon="4.76882">
        <ele>258.92242</ele>
        <time>2023-08-05T13:17:16.000Z</time>
      </trkpt>
      <trkpt lat="45.8852" lon="4.76879">
        <ele>258.85944</ele>
        <time>2023-08-05T13:17:17.000Z</time>
      </trkpt>
      <trkpt lat="45.88526" lon="4.76875">
        <ele>258.8028</ele>
        <time>2023-08-05T13:17:18.000Z</time>
      </trkpt>
      <trkpt lat="45.88531" lon="4.76871">
        <ele>258.76141</ele>
        <time>2023-08-05T13:17:19.000Z</time>
      </trkpt>
      <trkpt lat="45.88537" lon="4.76869">
        <ele>258.71948</ele>
        <time>2023-08-05T13:17:20.000Z</time>
      </trkpt>
      <trkpt lat="45.88543" lon="4.76866">
        <ele>258.64276</ele>
        <time>2023-08-05T13:17:21.000Z</time>
      </trkpt>
      <trkpt lat="45.88549" lon="4.76864">
        <ele>258.56879</ele>
        <time>2023-08-05T13:17:22.000Z</time>
      </trkpt>
      <trkpt lat="45.88556" lon="4.76861">
        <ele>258.48499</ele>
        <time>2023-08-05T13:17:23.000Z</time>
      </trkpt>
      <trkpt lat="45.88562" lon="4.76858">
        <ele>258.39749</ele>
        <time>2023-08-05T13:17:24.000Z</time>
      </trkpt>
      <trkpt lat="45.88568" lon="4.76855">
        <ele>258.28989</ele>
        <time>2023-08-05T13:17:25.000Z</time>
      </trkpt>
      <trkpt lat="45.88575" lon="4.76853">
        <ele>258.16827</ele>
        <time>2023-08-05T13:17:26.000Z</time>
      </trkpt>
      <trkpt lat="45.88581" lon="4.76848">
        <ele>258.0466</ele>
        <time>2023-08-05T13:17:27.000Z</time>
      </trkpt>
      <trkpt lat="45.88587" lon="4.76844">
        <ele>257.92538</ele>
        <time>2023-08-05T13:17:28.000Z</time>
      </trkpt>
      <trkpt lat="45.88593" lon="4.76838">
        <ele>257.7785</ele>
        <time>2023-08-05T13:17:29.000Z</time>
      </trkpt>
      <trkpt lat="45.88598" lon="4.76833">
        <ele>257.64291</ele>
        <time>2023-08-05T13:17:30.000Z</time>
      </trkpt>
      <trkpt lat="45.88603" lon="4.76826">
        <ele>257.51068</ele>
        <time>2023-08-05T13:17:31.000Z</time>
      </trkpt>
      <trkpt lat="45.88608" lon="4.7682">
        <ele>257.36548</ele>
        <time>2023-08-05T13:17:32.000Z</time>
      </trkpt>
      <trkpt lat="45.88612" lon="4.76813">
        <ele>257.22452</ele>
        <time>2023-08-05T13:17:33.000Z</time>
      </trkpt>
      <trkpt lat="45.88616" lon="4.76806">
        <ele>257.08673</ele>
        <time>2023-08-05T13:17:34.000Z</time>
      </trkpt>
      <trkpt lat="45.88619" lon="4.76799">
        <ele>256.9447</ele>
        <time>2023-08-05T13:17:35.000Z</time>
      </trkpt>
      <trkpt lat="45.88621" lon="4.76792">
        <ele>256.79688</ele>
        <time>2023-08-05T13:17:36.000Z</time>
      </trkpt>
      <trkpt lat="45.88624" lon="4.76784">
        <ele>256.65332</ele>
        <time>2023-08-05T13:17:37.000Z</time>
      </trkpt>
      <trkpt lat="45.88626" lon="4.76776">
        <ele>256.51563</ele>
        <time>2023-08-05T13:17:38.000Z</time>
      </trkpt>
      <trkpt lat="45.88628" lon="4.76767">
        <ele>256.37738</ele>
        <time>2023-08-05T13:17:39.000Z</time>
      </trkpt>
      <trkpt lat="45.8863" lon="4.76759">
        <ele>256.25287</ele>
        <time>2023-08-05T13:17:40.000Z</time>
      </trkpt>
      <trkpt lat="45.88633" lon="4.76753">
        <ele>256.10333</ele>
        <time>2023-08-05T13:17:41.000Z</time>
      </trkpt>
      <trkpt lat="45.88636" lon="4.76749">
        <ele>255.96404</ele>
        <time>2023-08-05T13:17:42.000Z</time>
      </trkpt>
      <trkpt lat="45.88639" lon="4.76746">
        <ele>255.83578</ele>
        <time>2023-08-05T13:17:43.000Z</time>
      </trkpt>
      <trkpt lat="45.88643" lon="4.76745">
        <ele>255.70039</ele>
        <time>2023-08-05T13:17:44.000Z</time>
      </trkpt>
      <trkpt lat="45.88648" lon="4.76745">
        <ele>255.60165</ele>
        <time>2023-08-05T13:17:45.000Z</time>
      </trkpt>
      <trkpt lat="45.88653" lon="4.76746">
        <ele>255.50188</ele>
        <time>2023-08-05T13:17:46.000Z</time>
      </trkpt>
      <trkpt lat="45.88657" lon="4.76747">
        <ele>255.40222</ele>
        <time>2023-08-05T13:17:47.000Z</time>
      </trkpt>
      <trkpt lat="45.88662" lon="4.76748">
        <ele>255.29025</ele>
        <time>2023-08-05T13:17:48.000Z</time>
      </trkpt>
      <trkpt lat="45.88667" lon="4.76749">
        <ele>255.22942</ele>
        <time>2023-08-05T13:17:49.000Z</time>
      </trkpt>
      <trkpt lat="45.88672" lon="4.76751">
        <ele>255.18404</ele>
        <time>2023-08-05T13:17:50.000Z</time>
      </trkpt>
      <trkpt lat="45.88677" lon="4.76752">
        <ele>255.12564</ele>
        <time>2023-08-05T13:17:51.000Z</time>
      </trkpt>
      <trkpt lat="45.88682" lon="4.76752">
        <ele>255.0647</ele>
        <time>2023-08-05T13:17:52.000Z</time>
      </trkpt>
      <trkpt lat="45.88687" lon="4.76752">
        <ele>255.0009</ele>
        <time>2023-08-05T13:17:53.000Z</time>
      </trkpt>
      <trkpt lat="45.88692" lon="4.76753">
        <ele>254.93323</ele>
        <time>2023-08-05T13:17:54.000Z</time>
      </trkpt>
      <trkpt lat="45.88697" lon="4.76753">
        <ele>254.86909</ele>
        <time>2023-08-05T13:17:55.000Z</time>
      </trkpt>
      <trkpt lat="45.88702" lon="4.76755">
        <ele>254.7957</ele>
        <time>2023-08-05T13:17:56.000Z</time>
      </trkpt>
      <trkpt lat="45.88708" lon="4.76756">
        <ele>254.73592</ele>
        <time>2023-08-05T13:17:57.000Z</time>
      </trkpt>
      <trkpt lat="45.88713" lon="4.76757">
        <ele>254.64929</ele>
        <time>2023-08-05T13:17:58.000Z</time>
      </trkpt>
      <trkpt lat="45.88718" lon="4.76758">
        <ele>254.56587</ele>
        <time>2023-08-05T13:17:59.000Z</time>
      </trkpt>
      <trkpt lat="45.88724" lon="4.76759">
        <ele>254.50305</ele>
        <time>2023-08-05T13:18:00.000Z</time>
      </trkpt>
      <trkpt lat="45.88729" lon="4.76758">
        <ele>254.5284</ele>
        <time>2023-08-05T13:18:01.000Z</time>
      </trkpt>
      <trkpt lat="45.88733" lon="4.76759">
        <ele>254.5793</ele>
        <time>2023-08-05T13:18:02.000Z</time>
      </trkpt>
      <trkpt lat="45.88739" lon="4.76761">
        <ele>254.53958</ele>
        <time>2023-08-05T13:18:03.000Z</time>
      </trkpt>
      <trkpt lat="45.88744" lon="4.76762">
        <ele>254.53816</ele>
        <time>2023-08-05T13:18:04.000Z</time>
      </trkpt>
      <trkpt lat="45.88749" lon="4.76763">
        <ele>254.52658</ele>
        <time>2023-08-05T13:18:05.000Z</time>
      </trkpt>
      <trkpt lat="45.88755" lon="4.76764">
        <ele>254.50961</ele>
        <time>2023-08-05T13:18:06.000Z</time>
      </trkpt>
      <trkpt lat="45.8876" lon="4.76765">
        <ele>254.4948</ele>
        <time>2023-08-05T13:18:07.000Z</time>
      </trkpt>
      <trkpt lat="45.88765" lon="4.76764">
        <ele>254.49385</ele>
        <time>2023-08-05T13:18:08.000Z</time>
      </trkpt>
      <trkpt lat="45.88771" lon="4.76766">
        <ele>254.45288</ele>
        <time>2023-08-05T13:18:09.000Z</time>
      </trkpt>
      <trkpt lat="45.88776" lon="4.76766">
        <ele>254.41963</ele>
        <time>2023-08-05T13:18:10.000Z</time>
      </trkpt>
      <trkpt lat="45.88782" lon="4.76769">
        <ele>254.36821</ele>
        <time>2023-08-05T13:18:11.000Z</time>
      </trkpt>
      <trkpt lat="45.88788" lon="4.7677">
        <ele>254.32346</ele>
        <time>2023-08-05T13:18:12.000Z</time>
      </trkpt>
      <trkpt lat="45.88794" lon="4.7677">
        <ele>254.28227</ele>
        <time>2023-08-05T13:18:13.000Z</time>
      </trkpt>
      <trkpt lat="45.88799" lon="4.76771">
        <ele>254.24394</ele>
        <time>2023-08-05T13:18:14.000Z</time>
      </trkpt>
      <trkpt lat="45.88805" lon="4.76772">
        <ele>254.21225</ele>
        <time>2023-08-05T13:18:15.000Z</time>
      </trkpt>
      <trkpt lat="45.8881" lon="4.76773">
        <ele>254.18401</ele>
        <time>2023-08-05T13:18:16.000Z</time>
      </trkpt>
      <trkpt lat="45.88816" lon="4.76773">
        <ele>254.1541</ele>
        <time>2023-08-05T13:18:17.000Z</time>
      </trkpt>
      <trkpt lat="45.88822" lon="4.76773">
        <ele>254.15462</ele>
        <time>2023-08-05T13:18:18.000Z</time>
      </trkpt>
      <trkpt lat="45.88827" lon="4.76774">
        <ele>254.13615</ele>
        <time>2023-08-05T13:18:19.000Z</time>
      </trkpt>
      <trkpt lat="45.88833" lon="4.76775">
        <ele>254.08459</ele>
        <time>2023-08-05T13:18:20.000Z</time>
      </trkpt>
      <trkpt lat="45.88839" lon="4.76776">
        <ele>253.97554</ele>
        <time>2023-08-05T13:18:21.000Z</time>
      </trkpt>
      <trkpt lat="45.88845" lon="4.76776">
        <ele>253.82402</ele>
        <time>2023-08-05T13:18:22.000Z</time>
      </trkpt>
      <trkpt lat="45.8885" lon="4.76777">
        <ele>253.74619</ele>
        <time>2023-08-05T13:18:23.000Z</time>
      </trkpt>
      <trkpt lat="45.88856" lon="4.76777">
        <ele>253.69043</ele>
        <time>2023-08-05T13:18:24.000Z</time>
      </trkpt>
      <trkpt lat="45.88861" lon="4.76777">
        <ele>253.63831</ele>
        <time>2023-08-05T13:18:25.000Z</time>
      </trkpt>
      <trkpt lat="45.88867" lon="4.76778">
        <ele>253.62277</ele>
        <time>2023-08-05T13:18:26.000Z</time>
      </trkpt>
      <trkpt lat="45.88872" lon="4.76779">
        <ele>253.61243</ele>
        <time>2023-08-05T13:18:27.000Z</time>
      </trkpt>
      <trkpt lat="45.88878" lon="4.76779">
        <ele>253.51599</ele>
        <time>2023-08-05T13:18:28.000Z</time>
      </trkpt>
      <trkpt lat="45.88884" lon="4.7678">
        <ele>253.44319</ele>
        <time>2023-08-05T13:18:29.000Z</time>
      </trkpt>
      <trkpt lat="45.8889" lon="4.7678">
        <ele>253.33833</ele>
        <time>2023-08-05T13:18:30.000Z</time>
      </trkpt>
      <trkpt lat="45.88895" lon="4.76781">
        <ele>253.26608</ele>
        <time>2023-08-05T13:18:31.000Z</time>
      </trkpt>
      <trkpt lat="45.88901" lon="4.76782">
        <ele>253.19815</ele>
        <time>2023-08-05T13:18:32.000Z</time>
      </trkpt>
      <trkpt lat="45.88907" lon="4.76783">
        <ele>253.13786</ele>
        <time>2023-08-05T13:18:33.000Z</time>
      </trkpt>
      <trkpt lat="45.88913" lon="4.76783">
        <ele>253.0811</ele>
        <time>2023-08-05T13:18:34.000Z</time>
      </trkpt>
      <trkpt lat="45.88919" lon="4.76783">
        <ele>253.02609</ele>
        <time>2023-08-05T13:18:35.000Z</time>
      </trkpt>
      <trkpt lat="45.88924" lon="4.76784">
        <ele>252.97798</ele>
        <time>2023-08-05T13:18:36.000Z</time>
      </trkpt>
      <trkpt lat="45.8893" lon="4.76785">
        <ele>252.93497</ele>
        <time>2023-08-05T13:18:37.000Z</time>
      </trkpt>
      <trkpt lat="45.88935" lon="4.76785">
        <ele>252.87178</ele>
        <time>2023-08-05T13:18:38.000Z</time>
      </trkpt>
      <trkpt lat="45.88941" lon="4.76785">
        <ele>252.8107</ele>
        <time>2023-08-05T13:18:39.000Z</time>
      </trkpt>
      <trkpt lat="45.88947" lon="4.76785">
        <ele>252.75394</ele>
        <time>2023-08-05T13:18:40.000Z</time>
      </trkpt>
      <trkpt lat="45.88952" lon="4.76785">
        <ele>252.7261</ele>
        <time>2023-08-05T13:18:41.000Z</time>
      </trkpt>
      <trkpt lat="45.88958" lon="4.76787">
        <ele>252.70667</ele>
        <time>2023-08-05T13:18:42.000Z</time>
      </trkpt>
      <trkpt lat="45.88964" lon="4.76788">
        <ele>252.68832</ele>
        <time>2023-08-05T13:18:43.000Z</time>
      </trkpt>
      <trkpt lat="45.8897" lon="4.76788">
        <ele>252.6241</ele>
        <time>2023-08-05T13:18:44.000Z</time>
      </trkpt>
      <trkpt lat="45.88975" lon="4.76787">
        <ele>252.5468</ele>
        <time>2023-08-05T13:18:45.000Z</time>
      </trkpt>
      <trkpt lat="45.88981" lon="4.76787">
        <ele>252.45357</ele>
        <time>2023-08-05T13:18:46.000Z</time>
      </trkpt>
      <trkpt lat="45.88987" lon="4.76787">
        <ele>252.3533</ele>
        <time>2023-08-05T13:18:47.000Z</time>
      </trkpt>
      <trkpt lat="45.88993" lon="4.76788">
        <ele>252.33403</ele>
        <time>2023-08-05T13:18:48.000Z</time>
      </trkpt>
      <trkpt lat="45.88998" lon="4.76787">
        <ele>252.30986</ele>
        <time>2023-08-05T13:18:49.000Z</time>
      </trkpt>
      <trkpt lat="45.89004" lon="4.76787">
        <ele>252.31198</ele>
        <time>2023-08-05T13:18:50.000Z</time>
      </trkpt>
      <trkpt lat="45.89009" lon="4.76788">
        <ele>252.32101</ele>
        <time>2023-08-05T13:18:51.000Z</time>
      </trkpt>
      <trkpt lat="45.89015" lon="4.76789">
        <ele>252.31131</ele>
        <time>2023-08-05T13:18:52.000Z</time>
      </trkpt>
      <trkpt lat="45.8902" lon="4.7679">
        <ele>252.30049</ele>
        <time>2023-08-05T13:18:53.000Z</time>
      </trkpt>
      <trkpt lat="45.89026" lon="4.7679">
        <ele>252.19756</ele>
        <time>2023-08-05T13:18:54.000Z</time>
      </trkpt>
      <trkpt lat="45.89031" lon="4.7679">
        <ele>252.08298</ele>
        <time>2023-08-05T13:18:55.000Z</time>
      </trkpt>
      <trkpt lat="45.89037" lon="4.7679">
        <ele>251.96591</ele>
        <time>2023-08-05T13:18:56.000Z</time>
      </trkpt>
      <trkpt lat="45.89043" lon="4.7679">
        <ele>251.84094</ele>
        <time>2023-08-05T13:18:57.000Z</time>
      </trkpt>
      <trkpt lat="45.89049" lon="4.7679">
        <ele>251.7272</ele>
        <time>2023-08-05T13:18:58.000Z</time>
      </trkpt>
      <trkpt lat="45.89054" lon="4.76789">
        <ele>251.62007</ele>
        <time>2023-08-05T13:18:59.000Z</time>
      </trkpt>
      <trkpt lat="45.89059" lon="4.76789">
        <ele>251.522</ele>
        <time>2023-08-05T13:19:00.000Z</time>
      </trkpt>
      <trkpt lat="45.89064" lon="4.76788">
        <ele>251.41289</ele>
        <time>2023-08-05T13:19:01.000Z</time>
      </trkpt>
      <trkpt lat="45.8907" lon="4.76789">
        <ele>251.31161</ele>
        <time>2023-08-05T13:19:02.000Z</time>
      </trkpt>
      <trkpt lat="45.89076" lon="4.76788">
        <ele>251.23672</ele>
        <time>2023-08-05T13:19:03.000Z</time>
      </trkpt>
      <trkpt lat="45.89081" lon="4.76789">
        <ele>251.18633</ele>
        <time>2023-08-05T13:19:04.000Z</time>
      </trkpt>
      <trkpt lat="45.89087" lon="4.76789">
        <ele>251.13208</ele>
        <time>2023-08-05T13:19:05.000Z</time>
      </trkpt>
      <trkpt lat="45.89093" lon="4.76791">
        <ele>251.0544</ele>
        <time>2023-08-05T13:19:06.000Z</time>
      </trkpt>
      <trkpt lat="45.89098" lon="4.76791">
        <ele>250.96097</ele>
        <time>2023-08-05T13:19:07.000Z</time>
      </trkpt>
      <trkpt lat="45.89102" lon="4.7679">
        <ele>250.8757</ele>
        <time>2023-08-05T13:19:08.000Z</time>
      </trkpt>
      <trkpt lat="45.89105" lon="4.76792">
        <ele>250.77547</ele>
        <time>2023-08-05T13:19:09.000Z</time>
      </trkpt>
      <trkpt lat="45.89108" lon="4.76793">
        <ele>250.64714</ele>
        <time>2023-08-05T13:19:10.000Z</time>
      </trkpt>
      <trkpt lat="45.89112" lon="4.76793">
        <ele>250.52499</ele>
        <time>2023-08-05T13:19:11.000Z</time>
      </trkpt>
      <trkpt lat="45.89115" lon="4.76792">
        <ele>250.40112</ele>
        <time>2023-08-05T13:19:12.000Z</time>
      </trkpt>
      <trkpt lat="45.89119" lon="4.76792">
        <ele>250.26904</ele>
        <time>2023-08-05T13:19:13.000Z</time>
      </trkpt>
      <trkpt lat="45.89122" lon="4.76792">
        <ele>250.22717</ele>
        <time>2023-08-05T13:19:14.000Z</time>
      </trkpt>
      <trkpt lat="45.89126" lon="4.76792">
        <ele>250.30283</ele>
        <time>2023-08-05T13:19:15.000Z</time>
      </trkpt>
      <trkpt lat="45.8913" lon="4.76794">
        <ele>250.38281</ele>
        <time>2023-08-05T13:19:16.000Z</time>
      </trkpt>
      <trkpt lat="45.89134" lon="4.76795">
        <ele>250.44785</ele>
        <time>2023-08-05T13:19:17.000Z</time>
      </trkpt>
      <trkpt lat="45.89138" lon="4.76795">
        <ele>250.49564</ele>
        <time>2023-08-05T13:19:18.000Z</time>
      </trkpt>
      <trkpt lat="45.89142" lon="4.76796">
        <ele>250.54839</ele>
        <time>2023-08-05T13:19:19.000Z</time>
      </trkpt>
      <trkpt lat="45.89146" lon="4.76796">
        <ele>250.59204</ele>
        <time>2023-08-05T13:19:20.000Z</time>
      </trkpt>
      <trkpt lat="45.8915" lon="4.76797">
        <ele>250.67038</ele>
        <time>2023-08-05T13:19:21.000Z</time>
      </trkpt>
      <trkpt lat="45.89154" lon="4.76798">
        <ele>250.77307</ele>
        <time>2023-08-05T13:19:22.000Z</time>
      </trkpt>
      <trkpt lat="45.89157" lon="4.76799">
        <ele>250.75797</ele>
        <time>2023-08-05T13:19:23.000Z</time>
      </trkpt>
      <trkpt lat="45.89161" lon="4.76799">
        <ele>250.76738</ele>
        <time>2023-08-05T13:19:24.000Z</time>
      </trkpt>
      <trkpt lat="45.89164" lon="4.768">
        <ele>250.77979</ele>
        <time>2023-08-05T13:19:25.000Z</time>
      </trkpt>
      <trkpt lat="45.89166" lon="4.768">
        <ele>250.82727</ele>
        <time>2023-08-05T13:19:26.000Z</time>
      </trkpt>
      <trkpt lat="45.89169" lon="4.768">
        <ele>250.88982</ele>
        <time>2023-08-05T13:19:27.000Z</time>
      </trkpt>
      <trkpt lat="45.89172" lon="4.768">
        <ele>250.94783</ele>
        <time>2023-08-05T13:19:28.000Z</time>
      </trkpt>
      <trkpt lat="45.89175" lon="4.768">
        <ele>251.01912</ele>
        <time>2023-08-05T13:19:29.000Z</time>
      </trkpt>
      <trkpt lat="45.89178" lon="4.768">
        <ele>251.0948</ele>
        <time>2023-08-05T13:19:30.000Z</time>
      </trkpt>
      <trkpt lat="45.89181" lon="4.76801">
        <ele>251.15352</ele>
        <time>2023-08-05T13:19:31.000Z</time>
      </trkpt>
      <trkpt lat="45.89185" lon="4.76802">
        <ele>251.22021</ele>
        <time>2023-08-05T13:19:32.000Z</time>
      </trkpt>
      <trkpt lat="45.89188" lon="4.76803">
        <ele>251.2908</ele>
        <time>2023-08-05T13:19:33.000Z</time>
      </trkpt>
      <trkpt lat="45.89192" lon="4.76804">
        <ele>251.35764</ele>
        <time>2023-08-05T13:19:34.000Z</time>
      </trkpt>
      <trkpt lat="45.89195" lon="4.76804">
        <ele>251.3114</ele>
        <time>2023-08-05T13:19:35.000Z</time>
      </trkpt>
      <trkpt lat="45.89199" lon="4.76805">
        <ele>251.27011</ele>
        <time>2023-08-05T13:19:36.000Z</time>
      </trkpt>
      <trkpt lat="45.89203" lon="4.76806">
        <ele>251.2435</ele>
        <time>2023-08-05T13:19:37.000Z</time>
      </trkpt>
      <trkpt lat="45.89207" lon="4.76806">
        <ele>251.2218</ele>
        <time>2023-08-05T13:19:38.000Z</time>
      </trkpt>
      <trkpt lat="45.89211" lon="4.76808">
        <ele>251.24997</ele>
        <time>2023-08-05T13:19:39.000Z</time>
      </trkpt>
      <trkpt lat="45.89216" lon="4.76809">
        <ele>251.16252</ele>
        <time>2023-08-05T13:19:40.000Z</time>
      </trkpt>
      <trkpt lat="45.8922" lon="4.7681">
        <ele>251.04788</ele>
        <time>2023-08-05T13:19:41.000Z</time>
      </trkpt>
      <trkpt lat="45.89224" lon="4.76811">
        <ele>250.91129</ele>
        <time>2023-08-05T13:19:42.000Z</time>
      </trkpt>
      <trkpt lat="45.89229" lon="4.76812">
        <ele>250.8252</ele>
        <time>2023-08-05T13:19:43.000Z</time>
      </trkpt>
      <trkpt lat="45.89233" lon="4.76814">
        <ele>250.74532</ele>
        <time>2023-08-05T13:19:44.000Z</time>
      </trkpt>
      <trkpt lat="45.89237" lon="4.76815">
        <ele>251.73636</ele>
        <time>2023-08-05T13:19:45.000Z</time>
      </trkpt>
      <trkpt lat="45.89241" lon="4.76816">
        <ele>252.71504</ele>
        <time>2023-08-05T13:19:46.000Z</time>
      </trkpt>
      <trkpt lat="45.89245" lon="4.76817">
        <ele>252.57246</ele>
        <time>2023-08-05T13:19:47.000Z</time>
      </trkpt>
      <trkpt lat="45.8925" lon="4.76818">
        <ele>252.43697</ele>
        <time>2023-08-05T13:19:48.000Z</time>
      </trkpt>
      <trkpt lat="45.89255" lon="4.76819">
        <ele>252.29605</ele>
        <time>2023-08-05T13:19:49.000Z</time>
      </trkpt>
      <trkpt lat="45.8926" lon="4.76819">
        <ele>252.16428</ele>
        <time>2023-08-05T13:19:50.000Z</time>
      </trkpt>
      <trkpt lat="45.89265" lon="4.7682">
        <ele>252.03658</ele>
        <time>2023-08-05T13:19:51.000Z</time>
      </trkpt>
      <trkpt lat="45.89269" lon="4.7682">
        <ele>251.92886</ele>
        <time>2023-08-05T13:19:52.000Z</time>
      </trkpt>
      <trkpt lat="45.89273" lon="4.76821">
        <ele>251.81967</ele>
        <time>2023-08-05T13:19:53.000Z</time>
      </trkpt>
      <trkpt lat="45.89278" lon="4.76822">
        <ele>251.70393</ele>
        <time>2023-08-05T13:19:54.000Z</time>
      </trkpt>
      <trkpt lat="45.89283" lon="4.76822">
        <ele>251.59598</ele>
        <time>2023-08-05T13:19:55.000Z</time>
      </trkpt>
      <trkpt lat="45.89288" lon="4.76822">
        <ele>251.48735</ele>
        <time>2023-08-05T13:19:56.000Z</time>
      </trkpt>
      <trkpt lat="45.89292" lon="4.76822">
        <ele>251.37178</ele>
        <time>2023-08-05T13:19:57.000Z</time>
      </trkpt>
      <trkpt lat="45.89296" lon="4.76823">
        <ele>251.27145</ele>
        <time>2023-08-05T13:19:58.000Z</time>
      </trkpt>
      <trkpt lat="45.89301" lon="4.76824">
        <ele>251.24077</ele>
        <time>2023-08-05T13:19:59.000Z</time>
      </trkpt>
      <trkpt lat="45.89306" lon="4.76825">
        <ele>251.3291</ele>
        <time>2023-08-05T13:20:00.000Z</time>
      </trkpt>
      <trkpt lat="45.8931" lon="4.76827">
        <ele>251.41492</ele>
        <time>2023-08-05T13:20:01.000Z</time>
      </trkpt>
      <trkpt lat="45.89315" lon="4.76827">
        <ele>251.50525</ele>
        <time>2023-08-05T13:20:02.000Z</time>
      </trkpt>
      <trkpt lat="45.8932" lon="4.76829">
        <ele>251.65433</ele>
        <time>2023-08-05T13:20:03.000Z</time>
      </trkpt>
      <trkpt lat="45.89325" lon="4.76829">
        <ele>254.5813</ele>
        <time>2023-08-05T13:20:04.000Z</time>
      </trkpt>
      <trkpt lat="45.8933" lon="4.76829">
        <ele>253.60898</ele>
        <time>2023-08-05T13:20:05.000Z</time>
      </trkpt>
      <trkpt lat="45.89334" lon="4.7683">
        <ele>252.66016</ele>
        <time>2023-08-05T13:20:06.000Z</time>
      </trkpt>
      <trkpt lat="45.89338" lon="4.76831">
        <ele>252.86118</ele>
        <time>2023-08-05T13:20:07.000Z</time>
      </trkpt>
      <trkpt lat="45.89343" lon="4.76831">
        <ele>252.95572</ele>
        <time>2023-08-05T13:20:08.000Z</time>
      </trkpt>
      <trkpt lat="45.89347" lon="4.76832">
        <ele>253.06656</ele>
        <time>2023-08-05T13:20:09.000Z</time>
      </trkpt>
      <trkpt lat="45.89351" lon="4.76832">
        <ele>253.19431</ele>
        <time>2023-08-05T13:20:10.000Z</time>
      </trkpt>
      <trkpt lat="45.89355" lon="4.76831">
        <ele>253.32329</ele>
        <time>2023-08-05T13:20:11.000Z</time>
      </trkpt>
      <trkpt lat="45.89359" lon="4.7683">
        <ele>253.48735</ele>
        <time>2023-08-05T13:20:12.000Z</time>
      </trkpt>
      <trkpt lat="45.89363" lon="4.76829">
        <ele>253.69064</ele>
        <time>2023-08-05T13:20:13.000Z</time>
      </trkpt>
      <trkpt lat="45.89366" lon="4.76828">
        <ele>253.80283</ele>
        <time>2023-08-05T13:20:14.000Z</time>
      </trkpt>
      <trkpt lat="45.8937" lon="4.76827">
        <ele>253.93677</ele>
        <time>2023-08-05T13:20:15.000Z</time>
      </trkpt>
      <trkpt lat="45.89373" lon="4.76825">
        <ele>254.07976</ele>
        <time>2023-08-05T13:20:16.000Z</time>
      </trkpt>
      <trkpt lat="45.89376" lon="4.76823">
        <ele>254.23917</ele>
        <time>2023-08-05T13:20:17.000Z</time>
      </trkpt>
      <trkpt lat="45.89379" lon="4.76821">
        <ele>254.38777</ele>
        <time>2023-08-05T13:20:18.000Z</time>
      </trkpt>
      <trkpt lat="45.89381" lon="4.76818">
        <ele>254.42412</ele>
        <time>2023-08-05T13:20:19.000Z</time>
      </trkpt>
      <trkpt lat="45.89384" lon="4.76816">
        <ele>254.44559</ele>
        <time>2023-08-05T13:20:20.000Z</time>
      </trkpt>
      <trkpt lat="45.89386" lon="4.76813">
        <ele>254.45975</ele>
        <time>2023-08-05T13:20:21.000Z</time>
      </trkpt>
      <trkpt lat="45.89389" lon="4.76811">
        <ele>254.45769</ele>
        <time>2023-08-05T13:20:22.000Z</time>
      </trkpt>
      <trkpt lat="45.89392" lon="4.76808">
        <ele>254.45932</ele>
        <time>2023-08-05T13:20:23.000Z</time>
      </trkpt>
      <trkpt lat="45.89395" lon="4.76805">
        <ele>251.62598</ele>
        <time>2023-08-05T13:20:24.000Z</time>
      </trkpt>
      <trkpt lat="45.89399" lon="4.76803">
        <ele>251.61678</ele>
        <time>2023-08-05T13:20:25.000Z</time>
      </trkpt>
      <trkpt lat="45.89404" lon="4.76803">
        <ele>251.59595</ele>
        <time>2023-08-05T13:20:26.000Z</time>
      </trkpt>
      <trkpt lat="45.89409" lon="4.76809">
        <ele>251.57439</ele>
        <time>2023-08-05T13:20:27.000Z</time>
      </trkpt>
      <trkpt lat="45.89414" lon="4.76811">
        <ele>251.54489</ele>
        <time>2023-08-05T13:20:28.000Z</time>
      </trkpt>
      <trkpt lat="45.89418" lon="4.76813">
        <ele>251.52628</ele>
        <time>2023-08-05T13:20:29.000Z</time>
      </trkpt>
      <trkpt lat="45.89424" lon="4.76816">
        <ele>251.47812</ele>
        <time>2023-08-05T13:20:30.000Z</time>
      </trkpt>
      <trkpt lat="45.89428" lon="4.76819">
        <ele>251.41202</ele>
        <time>2023-08-05T13:20:31.000Z</time>
      </trkpt>
      <trkpt lat="45.89433" lon="4.76822">
        <ele>251.33374</ele>
        <time>2023-08-05T13:20:32.000Z</time>
      </trkpt>
      <trkpt lat="45.89439" lon="4.76826">
        <ele>251.24478</ele>
        <time>2023-08-05T13:20:33.000Z</time>
      </trkpt>
      <trkpt lat="45.89445" lon="4.7683">
        <ele>251.15073</ele>
        <time>2023-08-05T13:20:34.000Z</time>
      </trkpt>
      <trkpt lat="45.89451" lon="4.76834">
        <ele>251.04341</ele>
        <time>2023-08-05T13:20:35.000Z</time>
      </trkpt>
      <trkpt lat="45.89457" lon="4.76838">
        <ele>250.92432</ele>
        <time>2023-08-05T13:20:36.000Z</time>
      </trkpt>
      <trkpt lat="45.89463" lon="4.76842">
        <ele>250.79965</ele>
        <time>2023-08-05T13:20:37.000Z</time>
      </trkpt>
      <trkpt lat="45.89469" lon="4.76846">
        <ele>250.68306</ele>
        <time>2023-08-05T13:20:38.000Z</time>
      </trkpt>
      <trkpt lat="45.89475" lon="4.76849">
        <ele>250.56172</ele>
        <time>2023-08-05T13:20:39.000Z</time>
      </trkpt>
      <trkpt lat="45.89481" lon="4.76853">
        <ele>250.47397</ele>
        <time>2023-08-05T13:20:40.000Z</time>
      </trkpt>
      <trkpt lat="45.89487" lon="4.76856">
        <ele>250.36494</ele>
        <time>2023-08-05T13:20:41.000Z</time>
      </trkpt>
      <trkpt lat="45.89493" lon="4.76858">
        <ele>250.27649</ele>
        <time>2023-08-05T13:20:42.000Z</time>
      </trkpt>
      <trkpt lat="45.89498" lon="4.76858">
        <ele>250.2076</ele>
        <time>2023-08-05T13:20:43.000Z</time>
      </trkpt>
      <trkpt lat="45.89504" lon="4.76859">
        <ele>250.16797</ele>
        <time>2023-08-05T13:20:44.000Z</time>
      </trkpt>
      <trkpt lat="45.89509" lon="4.76862">
        <ele>250.168</ele>
        <time>2023-08-05T13:20:45.000Z</time>
      </trkpt>
      <trkpt lat="45.89514" lon="4.76863">
        <ele>250.14297</ele>
        <time>2023-08-05T13:20:46.000Z</time>
      </trkpt>
      <trkpt lat="45.89519" lon="4.76865">
        <ele>250.10486</ele>
        <time>2023-08-05T13:20:47.000Z</time>
      </trkpt>
      <trkpt lat="45.89524" lon="4.76866">
        <ele>250.2001</ele>
        <time>2023-08-05T13:20:48.000Z</time>
      </trkpt>
      <trkpt lat="45.89529" lon="4.76868">
        <ele>250.26379</ele>
        <time>2023-08-05T13:20:49.000Z</time>
      </trkpt>
      <trkpt lat="45.89534" lon="4.76869">
        <ele>250.36288</ele>
        <time>2023-08-05T13:20:50.000Z</time>
      </trkpt>
      <trkpt lat="45.89539" lon="4.76871">
        <ele>250.48396</ele>
        <time>2023-08-05T13:20:51.000Z</time>
      </trkpt>
      <trkpt lat="45.89543" lon="4.76873">
        <ele>250.58838</ele>
        <time>2023-08-05T13:20:52.000Z</time>
      </trkpt>
      <trkpt lat="45.89549" lon="4.76875">
        <ele>250.65195</ele>
        <time>2023-08-05T13:20:53.000Z</time>
      </trkpt>
      <trkpt lat="45.89553" lon="4.76877">
        <ele>250.81877</ele>
        <time>2023-08-05T13:20:54.000Z</time>
      </trkpt>
      <trkpt lat="45.89558" lon="4.76879">
        <ele>250.98174</ele>
        <time>2023-08-05T13:20:55.000Z</time>
      </trkpt>
      <trkpt lat="45.89563" lon="4.76881">
        <ele>251.14832</ele>
        <time>2023-08-05T13:20:56.000Z</time>
      </trkpt>
      <trkpt lat="45.89568" lon="4.76883">
        <ele>251.2878</ele>
        <time>2023-08-05T13:20:57.000Z</time>
      </trkpt>
      <trkpt lat="45.89573" lon="4.76885">
        <ele>251.41162</ele>
        <time>2023-08-05T13:20:58.000Z</time>
      </trkpt>
      <trkpt lat="45.89578" lon="4.76887">
        <ele>251.52873</ele>
        <time>2023-08-05T13:20:59.000Z</time>
      </trkpt>
      <trkpt lat="45.89583" lon="4.76888">
        <ele>251.61943</ele>
        <time>2023-08-05T13:21:00.000Z</time>
      </trkpt>
      <trkpt lat="45.89589" lon="4.76889">
        <ele>251.72354</ele>
        <time>2023-08-05T13:21:01.000Z</time>
      </trkpt>
      <trkpt lat="45.89595" lon="4.76891">
        <ele>251.80537</ele>
        <time>2023-08-05T13:21:02.000Z</time>
      </trkpt>
      <trkpt lat="45.89601" lon="4.76894">
        <ele>251.85934</ele>
        <time>2023-08-05T13:21:03.000Z</time>
      </trkpt>
      <trkpt lat="45.89606" lon="4.76894">
        <ele>251.88977</ele>
        <time>2023-08-05T13:21:04.000Z</time>
      </trkpt>
      <trkpt lat="45.89612" lon="4.76896">
        <ele>251.88589</ele>
        <time>2023-08-05T13:21:05.000Z</time>
      </trkpt>
      <trkpt lat="45.89617" lon="4.76897">
        <ele>251.89395</ele>
        <time>2023-08-05T13:21:06.000Z</time>
      </trkpt>
      <trkpt lat="45.89623" lon="4.76899">
        <ele>251.88449</ele>
        <time>2023-08-05T13:21:07.000Z</time>
      </trkpt>
      <trkpt lat="45.89629" lon="4.769">
        <ele>251.84819</ele>
        <time>2023-08-05T13:21:08.000Z</time>
      </trkpt>
      <trkpt lat="45.89634" lon="4.76902">
        <ele>251.80942</ele>
        <time>2023-08-05T13:21:09.000Z</time>
      </trkpt>
      <trkpt lat="45.8964" lon="4.76903">
        <ele>251.7404</ele>
        <time>2023-08-05T13:21:10.000Z</time>
      </trkpt>
      <trkpt lat="45.89645" lon="4.76905">
        <ele>251.66028</ele>
        <time>2023-08-05T13:21:11.000Z</time>
      </trkpt>
      <trkpt lat="45.89651" lon="4.76906">
        <ele>251.54092</ele>
        <time>2023-08-05T13:21:12.000Z</time>
      </trkpt>
      <trkpt lat="45.89657" lon="4.76908">
        <ele>251.43466</ele>
        <time>2023-08-05T13:21:13.000Z</time>
      </trkpt>
      <trkpt lat="45.89662" lon="4.7691">
        <ele>251.32407</ele>
        <time>2023-08-05T13:21:14.000Z</time>
      </trkpt>
      <trkpt lat="45.89668" lon="4.76911">
        <ele>251.20671</ele>
        <time>2023-08-05T13:21:15.000Z</time>
      </trkpt>
      <trkpt lat="45.89674" lon="4.76913">
        <ele>251.08354</ele>
        <time>2023-08-05T13:21:16.000Z</time>
      </trkpt>
      <trkpt lat="45.89679" lon="4.76914">
        <ele>250.94571</ele>
        <time>2023-08-05T13:21:17.000Z</time>
      </trkpt>
      <trkpt lat="45.89685" lon="4.76915">
        <ele>250.81734</ele>
        <time>2023-08-05T13:21:18.000Z</time>
      </trkpt>
      <trkpt lat="45.89691" lon="4.76917">
        <ele>250.68767</ele>
        <time>2023-08-05T13:21:19.000Z</time>
      </trkpt>
      <trkpt lat="45.89696" lon="4.76919">
        <ele>250.5723</ele>
        <time>2023-08-05T13:21:20.000Z</time>
      </trkpt>
      <trkpt lat="45.89701" lon="4.76919">
        <ele>250.45947</ele>
        <time>2023-08-05T13:21:21.000Z</time>
      </trkpt>
      <trkpt lat="45.89706" lon="4.76923">
        <ele>250.34917</ele>
        <time>2023-08-05T13:21:22.000Z</time>
      </trkpt>
      <trkpt lat="45.89711" lon="4.76925">
        <ele>250.24911</ele>
        <time>2023-08-05T13:21:23.000Z</time>
      </trkpt>
      <trkpt lat="45.89716" lon="4.76927">
        <ele>250.13977</ele>
        <time>2023-08-05T13:21:24.000Z</time>
      </trkpt>
      <trkpt lat="45.89721" lon="4.76928">
        <ele>250.02689</ele>
        <time>2023-08-05T13:21:25.000Z</time>
      </trkpt>
      <trkpt lat="45.89726" lon="4.76929">
        <ele>249.90674</ele>
        <time>2023-08-05T13:21:26.000Z</time>
      </trkpt>
      <trkpt lat="45.89732" lon="4.76931">
        <ele>249.79172</ele>
        <time>2023-08-05T13:21:27.000Z</time>
      </trkpt>
      <trkpt lat="45.89737" lon="4.76933">
        <ele>249.6678</ele>
        <time>2023-08-05T13:21:28.000Z</time>
      </trkpt>
      <trkpt lat="45.89742" lon="4.76934">
        <ele>249.57002</ele>
        <time>2023-08-05T13:21:29.000Z</time>
      </trkpt>
      <trkpt lat="45.89747" lon="4.76935">
        <ele>249.56787</ele>
        <time>2023-08-05T13:21:30.000Z</time>
      </trkpt>
      <trkpt lat="45.89751" lon="4.76935">
        <ele>249.60112</ele>
        <time>2023-08-05T13:21:31.000Z</time>
      </trkpt>
      <trkpt lat="45.89756" lon="4.76938">
        <ele>249.50797</ele>
        <time>2023-08-05T13:21:32.000Z</time>
      </trkpt>
      <trkpt lat="45.89761" lon="4.76939">
        <ele>249.43474</ele>
        <time>2023-08-05T13:21:33.000Z</time>
      </trkpt>
      <trkpt lat="45.89766" lon="4.7694">
        <ele>249.36577</ele>
        <time>2023-08-05T13:21:34.000Z</time>
      </trkpt>
      <trkpt lat="45.8977" lon="4.76941">
        <ele>249.29385</ele>
        <time>2023-08-05T13:21:35.000Z</time>
      </trkpt>
      <trkpt lat="45.89775" lon="4.76942">
        <ele>249.22566</ele>
        <time>2023-08-05T13:21:36.000Z</time>
      </trkpt>
      <trkpt lat="45.89779" lon="4.76944">
        <ele>249.196</ele>
        <time>2023-08-05T13:21:37.000Z</time>
      </trkpt>
      <trkpt lat="45.89784" lon="4.76945">
        <ele>249.15352</ele>
        <time>2023-08-05T13:21:38.000Z</time>
      </trkpt>
      <trkpt lat="45.89787" lon="4.76943">
        <ele>249.13113</ele>
        <time>2023-08-05T13:21:39.000Z</time>
      </trkpt>
      <trkpt lat="45.89791" lon="4.76939">
        <ele>249.11966</ele>
        <time>2023-08-05T13:21:40.000Z</time>
      </trkpt>
      <trkpt lat="45.89795" lon="4.76935">
        <ele>249.11211</ele>
        <time>2023-08-05T13:21:41.000Z</time>
      </trkpt>
      <trkpt lat="45.89798" lon="4.7693">
        <ele>249.18193</ele>
        <time>2023-08-05T13:21:42.000Z</time>
      </trkpt>
      <trkpt lat="45.89802" lon="4.76926">
        <ele>249.23831</ele>
        <time>2023-08-05T13:21:43.000Z</time>
      </trkpt>
      <trkpt lat="45.89804" lon="4.76922">
        <ele>249.31686</ele>
        <time>2023-08-05T13:21:44.000Z</time>
      </trkpt>
      <trkpt lat="45.89808" lon="4.76919">
        <ele>249.41972</ele>
        <time>2023-08-05T13:21:45.000Z</time>
      </trkpt>
      <trkpt lat="45.89811" lon="4.76916">
        <ele>249.4122</ele>
        <time>2023-08-05T13:21:46.000Z</time>
      </trkpt>
      <trkpt lat="45.89815" lon="4.76912">
        <ele>249.43311</ele>
        <time>2023-08-05T13:21:47.000Z</time>
      </trkpt>
      <trkpt lat="45.89818" lon="4.76908">
        <ele>249.45296</ele>
        <time>2023-08-05T13:21:48.000Z</time>
      </trkpt>
      <trkpt lat="45.89821" lon="4.76905">
        <ele>249.45145</ele>
        <time>2023-08-05T13:21:49.000Z</time>
      </trkpt>
      <trkpt lat="45.89825" lon="4.76901">
        <ele>249.35367</ele>
        <time>2023-08-05T13:21:50.000Z</time>
      </trkpt>
      <trkpt lat="45.89828" lon="4.76897">
        <ele>249.23087</ele>
        <time>2023-08-05T13:21:51.000Z</time>
      </trkpt>
      <trkpt lat="45.89833" lon="4.76892">
        <ele>249.25961</ele>
        <time>2023-08-05T13:21:52.000Z</time>
      </trkpt>
      <trkpt lat="45.89836" lon="4.76889">
        <ele>249.27246</ele>
        <time>2023-08-05T13:21:53.000Z</time>
      </trkpt>
      <trkpt lat="45.8984" lon="4.76884">
        <ele>249.27917</ele>
        <time>2023-08-05T13:21:54.000Z</time>
      </trkpt>
      <trkpt lat="45.89844" lon="4.76881">
        <ele>249.26416</ele>
        <time>2023-08-05T13:21:55.000Z</time>
      </trkpt>
      <trkpt lat="45.89848" lon="4.76877">
        <ele>249.25273</ele>
        <time>2023-08-05T13:21:56.000Z</time>
      </trkpt>
      <trkpt lat="45.89852" lon="4.76873">
        <ele>249.24739</ele>
        <time>2023-08-05T13:21:57.000Z</time>
      </trkpt>
      <trkpt lat="45.89856" lon="4.76869">
        <ele>249.30908</ele>
        <time>2023-08-05T13:21:58.000Z</time>
      </trkpt>
      <trkpt lat="45.8986" lon="4.76865">
        <ele>249.39885</ele>
        <time>2023-08-05T13:21:59.000Z</time>
      </trkpt>
      <trkpt lat="45.89864" lon="4.7686">
        <ele>249.48074</ele>
        <time>2023-08-05T13:22:00.000Z</time>
      </trkpt>
      <trkpt lat="45.89868" lon="4.76856">
        <ele>249.44194</ele>
        <time>2023-08-05T13:22:01.000Z</time>
      </trkpt>
      <trkpt lat="45.89872" lon="4.76852">
        <ele>249.35526</ele>
        <time>2023-08-05T13:22:02.000Z</time>
      </trkpt>
      <trkpt lat="45.89876" lon="4.76847">
        <ele>249.27658</ele>
        <time>2023-08-05T13:22:03.000Z</time>
      </trkpt>
      <trkpt lat="45.8988" lon="4.76842">
        <ele>249.17398</ele>
        <time>2023-08-05T13:22:04.000Z</time>
      </trkpt>
      <trkpt lat="45.89884" lon="4.76838">
        <ele>249.04228</ele>
        <time>2023-08-05T13:22:05.000Z</time>
      </trkpt>
      <trkpt lat="45.89889" lon="4.76833">
        <ele>249.03403</ele>
        <time>2023-08-05T13:22:06.000Z</time>
      </trkpt>
      <trkpt lat="45.89894" lon="4.76828">
        <ele>248.99319</ele>
        <time>2023-08-05T13:22:07.000Z</time>
      </trkpt>
      <trkpt lat="45.89898" lon="4.76824">
        <ele>248.95171</ele>
        <time>2023-08-05T13:22:08.000Z</time>
      </trkpt>
      <trkpt lat="45.89902" lon="4.76819">
        <ele>248.92148</ele>
        <time>2023-08-05T13:22:09.000Z</time>
      </trkpt>
      <trkpt lat="45.89907" lon="4.76814">
        <ele>248.89096</ele>
        <time>2023-08-05T13:22:10.000Z</time>
      </trkpt>
      <trkpt lat="45.89912" lon="4.76811">
        <ele>248.83389</ele>
        <time>2023-08-05T13:22:11.000Z</time>
      </trkpt>
      <trkpt lat="45.89917" lon="4.76805">
        <ele>248.76433</ele>
        <time>2023-08-05T13:22:12.000Z</time>
      </trkpt>
      <trkpt lat="45.89921" lon="4.76801">
        <ele>248.68343</ele>
        <time>2023-08-05T13:22:13.000Z</time>
      </trkpt>
      <trkpt lat="45.89925" lon="4.76795">
        <ele>248.61568</ele>
        <time>2023-08-05T13:22:14.000Z</time>
      </trkpt>
      <trkpt lat="45.8993" lon="4.7679">
        <ele>248.57072</ele>
        <time>2023-08-05T13:22:15.000Z</time>
      </trkpt>
      <trkpt lat="45.89934" lon="4.76785">
        <ele>248.52119</ele>
        <time>2023-08-05T13:22:16.000Z</time>
      </trkpt>
      <trkpt lat="45.89938" lon="4.7678">
        <ele>248.43588</ele>
        <time>2023-08-05T13:22:17.000Z</time>
      </trkpt>
      <trkpt lat="45.89943" lon="4.76775">
        <ele>248.29019</ele>
        <time>2023-08-05T13:22:18.000Z</time>
      </trkpt>
      <trkpt lat="45.89947" lon="4.76769">
        <ele>248.1011</ele>
        <time>2023-08-05T13:22:19.000Z</time>
      </trkpt>
      <trkpt lat="45.89952" lon="4.76765">
        <ele>247.88911</ele>
        <time>2023-08-05T13:22:20.000Z</time>
      </trkpt>
      <trkpt lat="45.89957" lon="4.7676">
        <ele>247.79575</ele>
        <time>2023-08-05T13:22:21.000Z</time>
      </trkpt>
      <trkpt lat="45.89961" lon="4.76756">
        <ele>247.75008</ele>
        <time>2023-08-05T13:22:22.000Z</time>
      </trkpt>
      <trkpt lat="45.89966" lon="4.76751">
        <ele>247.68279</ele>
        <time>2023-08-05T13:22:23.000Z</time>
      </trkpt>
      <trkpt lat="45.89971" lon="4.76746">
        <ele>247.63164</ele>
        <time>2023-08-05T13:22:24.000Z</time>
      </trkpt>
      <trkpt lat="45.89976" lon="4.76742">
        <ele>247.58658</ele>
        <time>2023-08-05T13:22:25.000Z</time>
      </trkpt>
      <trkpt lat="45.89982" lon="4.76738">
        <ele>247.51794</ele>
        <time>2023-08-05T13:22:26.000Z</time>
      </trkpt>
      <trkpt lat="45.89989" lon="4.76736">
        <ele>247.50784</ele>
        <time>2023-08-05T13:22:27.000Z</time>
      </trkpt>
      <trkpt lat="45.89995" lon="4.76734">
        <ele>247.49228</ele>
        <time>2023-08-05T13:22:28.000Z</time>
      </trkpt>
      <trkpt lat="45.90002" lon="4.76732">
        <ele>247.28299</ele>
        <time>2023-08-05T13:22:29.000Z</time>
      </trkpt>
      <trkpt lat="45.90009" lon="4.76729">
        <ele>247.10385</ele>
        <time>2023-08-05T13:22:30.000Z</time>
      </trkpt>
      <trkpt lat="45.90016" lon="4.76725">
        <ele>246.955</ele>
        <time>2023-08-05T13:22:31.000Z</time>
      </trkpt>
      <trkpt lat="45.90022" lon="4.7672">
        <ele>246.802</ele>
        <time>2023-08-05T13:22:32.000Z</time>
      </trkpt>
      <trkpt lat="45.90029" lon="4.76714">
        <ele>246.65112</ele>
        <time>2023-08-05T13:22:33.000Z</time>
      </trkpt>
      <trkpt lat="45.90034" lon="4.76708">
        <ele>246.57901</ele>
        <time>2023-08-05T13:22:34.000Z</time>
      </trkpt>
      <trkpt lat="45.90039" lon="4.76701">
        <ele>246.5022</ele>
        <time>2023-08-05T13:22:35.000Z</time>
      </trkpt>
      <trkpt lat="45.90044" lon="4.76695">
        <ele>246.43546</ele>
        <time>2023-08-05T13:22:36.000Z</time>
      </trkpt>
      <trkpt lat="45.90048" lon="4.76688">
        <ele>246.45218</ele>
        <time>2023-08-05T13:22:37.000Z</time>
      </trkpt>
      <trkpt lat="45.90052" lon="4.76681">
        <ele>246.27933</ele>
        <time>2023-08-05T13:22:38.000Z</time>
      </trkpt>
      <trkpt lat="45.90056" lon="4.76674">
        <ele>246.11703</ele>
        <time>2023-08-05T13:22:39.000Z</time>
      </trkpt>
      <trkpt lat="45.90059" lon="4.76669">
        <ele>245.94218</ele>
        <time>2023-08-05T13:22:40.000Z</time>
      </trkpt>
      <trkpt lat="45.90063" lon="4.76661">
        <ele>245.78389</ele>
        <time>2023-08-05T13:22:41.000Z</time>
      </trkpt>
      <trkpt lat="45.90066" lon="4.76654">
        <ele>245.54863</ele>
        <time>2023-08-05T13:22:42.000Z</time>
      </trkpt>
      <trkpt lat="45.90068" lon="4.76648">
        <ele>245.35982</ele>
        <time>2023-08-05T13:22:43.000Z</time>
      </trkpt>
      <trkpt lat="45.90071" lon="4.76641">
        <ele>245.15344</ele>
        <time>2023-08-05T13:22:44.000Z</time>
      </trkpt>
      <trkpt lat="45.90074" lon="4.76634">
        <ele>244.96341</ele>
        <time>2023-08-05T13:22:45.000Z</time>
      </trkpt>
      <trkpt lat="45.90076" lon="4.76628">
        <ele>244.82617</ele>
        <time>2023-08-05T13:22:46.000Z</time>
      </trkpt>
      <trkpt lat="45.90079" lon="4.76621">
        <ele>244.62285</ele>
        <time>2023-08-05T13:22:47.000Z</time>
      </trkpt>
      <trkpt lat="45.90082" lon="4.76616">
        <ele>244.43669</ele>
        <time>2023-08-05T13:22:48.000Z</time>
      </trkpt>
      <trkpt lat="45.90085" lon="4.76609">
        <ele>244.4305</ele>
        <time>2023-08-05T13:22:49.000Z</time>
      </trkpt>
      <trkpt lat="45.90087" lon="4.76603">
        <ele>244.42891</ele>
        <time>2023-08-05T13:22:50.000Z</time>
      </trkpt>
      <trkpt lat="45.9009" lon="4.76596">
        <ele>244.42236</ele>
        <time>2023-08-05T13:22:51.000Z</time>
      </trkpt>
      <trkpt lat="45.90093" lon="4.7659">
        <ele>244.50957</ele>
        <time>2023-08-05T13:22:52.000Z</time>
      </trkpt>
      <trkpt lat="45.90095" lon="4.76584">
        <ele>244.64685</ele>
        <time>2023-08-05T13:22:53.000Z</time>
      </trkpt>
      <trkpt lat="45.90098" lon="4.76578">
        <ele>244.71797</ele>
        <time>2023-08-05T13:22:54.000Z</time>
      </trkpt>
      <trkpt lat="45.90101" lon="4.76572">
        <ele>244.78238</ele>
        <time>2023-08-05T13:22:55.000Z</time>
      </trkpt>
      <trkpt lat="45.90104" lon="4.76568">
        <ele>244.66479</ele>
        <time>2023-08-05T13:22:56.000Z</time>
      </trkpt>
      <trkpt lat="45.90108" lon="4.76563">
        <ele>244.54556</ele>
        <time>2023-08-05T13:22:57.000Z</time>
      </trkpt>
      <trkpt lat="45.90111" lon="4.76558">
        <ele>244.61787</ele>
        <time>2023-08-05T13:22:58.000Z</time>
      </trkpt>
      <trkpt lat="45.90114" lon="4.76552">
        <ele>244.68582</ele>
        <time>2023-08-05T13:22:59.000Z</time>
      </trkpt>
      <trkpt lat="45.90118" lon="4.76547">
        <ele>244.77597</ele>
        <time>2023-08-05T13:23:00.000Z</time>
      </trkpt>
      <trkpt lat="45.90121" lon="4.76543">
        <ele>244.86433</ele>
        <time>2023-08-05T13:23:01.000Z</time>
      </trkpt>
      <trkpt lat="45.90124" lon="4.76537">
        <ele>244.96187</ele>
        <time>2023-08-05T13:23:02.000Z</time>
      </trkpt>
      <trkpt lat="45.90127" lon="4.76532">
        <ele>245.03154</ele>
        <time>2023-08-05T13:23:03.000Z</time>
      </trkpt>
      <trkpt lat="45.9013" lon="4.76527">
        <ele>245.12393</ele>
        <time>2023-08-05T13:23:04.000Z</time>
      </trkpt>
      <trkpt lat="45.90133" lon="4.76522">
        <ele>245.21634</ele>
        <time>2023-08-05T13:23:05.000Z</time>
      </trkpt>
      <trkpt lat="45.90136" lon="4.76517">
        <ele>245.28491</ele>
        <time>2023-08-05T13:23:06.000Z</time>
      </trkpt>
      <trkpt lat="45.90139" lon="4.76513">
        <ele>245.33365</ele>
        <time>2023-08-05T13:23:07.000Z</time>
      </trkpt>
      <trkpt lat="45.90142" lon="4.76508">
        <ele>245.38437</ele>
        <time>2023-08-05T13:23:08.000Z</time>
      </trkpt>
      <trkpt lat="45.90146" lon="4.76503">
        <ele>245.44463</ele>
        <time>2023-08-05T13:23:09.000Z</time>
      </trkpt>
      <trkpt lat="45.9015" lon="4.76498">
        <ele>245.45972</ele>
        <time>2023-08-05T13:23:10.000Z</time>
      </trkpt>
      <trkpt lat="45.90153" lon="4.76494">
        <ele>245.47859</ele>
        <time>2023-08-05T13:23:11.000Z</time>
      </trkpt>
      <trkpt lat="45.90157" lon="4.76489">
        <ele>245.48938</ele>
        <time>2023-08-05T13:23:12.000Z</time>
      </trkpt>
      <trkpt lat="45.9016" lon="4.76484">
        <ele>245.12155</ele>
        <time>2023-08-05T13:23:13.000Z</time>
      </trkpt>
      <trkpt lat="45.90164" lon="4.76479">
        <ele>244.71545</ele>
        <time>2023-08-05T13:23:14.000Z</time>
      </trkpt>
      <trkpt lat="45.90168" lon="4.76474">
        <ele>244.33609</ele>
        <time>2023-08-05T13:23:15.000Z</time>
      </trkpt>
      <trkpt lat="45.90171" lon="4.7647">
        <ele>244.13498</ele>
        <time>2023-08-05T13:23:16.000Z</time>
      </trkpt>
      <trkpt lat="45.90175" lon="4.76465">
        <ele>243.8782</ele>
        <time>2023-08-05T13:23:17.000Z</time>
      </trkpt>
      <trkpt lat="45.90178" lon="4.7646">
        <ele>243.63858</ele>
        <time>2023-08-05T13:23:18.000Z</time>
      </trkpt>
      <trkpt lat="45.90182" lon="4.76456">
        <ele>243.38945</ele>
        <time>2023-08-05T13:23:19.000Z</time>
      </trkpt>
      <trkpt lat="45.90185" lon="4.76451">
        <ele>243.15398</ele>
        <time>2023-08-05T13:23:20.000Z</time>
      </trkpt>
      <trkpt lat="45.90189" lon="4.76448">
        <ele>242.90042</ele>
        <time>2023-08-05T13:23:21.000Z</time>
      </trkpt>
      <trkpt lat="45.90193" lon="4.76444">
        <ele>242.63828</ele>
        <time>2023-08-05T13:23:22.000Z</time>
      </trkpt>
      <trkpt lat="45.90196" lon="4.76439">
        <ele>242.39893</ele>
        <time>2023-08-05T13:23:23.000Z</time>
      </trkpt>
      <trkpt lat="45.902" lon="4.76435">
        <ele>242.15938</ele>
        <time>2023-08-05T13:23:24.000Z</time>
      </trkpt>
      <trkpt lat="45.90203" lon="4.76431">
        <ele>241.90817</ele>
        <time>2023-08-05T13:23:25.000Z</time>
      </trkpt>
      <trkpt lat="45.90205" lon="4.76428">
        <ele>241.64494</ele>
        <time>2023-08-05T13:23:26.000Z</time>
      </trkpt>
      <trkpt lat="45.90207" lon="4.76425">
        <ele>241.41414</ele>
        <time>2023-08-05T13:23:27.000Z</time>
      </trkpt>
      <trkpt lat="45.90209" lon="4.76422">
        <ele>241.17647</ele>
        <time>2023-08-05T13:23:28.000Z</time>
      </trkpt>
      <trkpt lat="45.90211" lon="4.76419">
        <ele>241.17998</ele>
        <time>2023-08-05T13:23:29.000Z</time>
      </trkpt>
      <trkpt lat="45.90213" lon="4.76416">
        <ele>241.19522</ele>
        <time>2023-08-05T13:23:30.000Z</time>
      </trkpt>
      <trkpt lat="45.90215" lon="4.76414">
        <ele>241.20659</ele>
        <time>2023-08-05T13:23:31.000Z</time>
      </trkpt>
      <trkpt lat="45.90217" lon="4.76411">
        <ele>241.13823</ele>
        <time>2023-08-05T13:23:32.000Z</time>
      </trkpt>
      <trkpt lat="45.90219" lon="4.76408">
        <ele>241.41792</ele>
        <time>2023-08-05T13:23:33.000Z</time>
      </trkpt>
      <trkpt lat="45.90221" lon="4.76406">
        <ele>241.72339</ele>
        <time>2023-08-05T13:23:34.000Z</time>
      </trkpt>
      <trkpt lat="45.90223" lon="4.76403">
        <ele>242.01534</ele>
        <time>2023-08-05T13:23:35.000Z</time>
      </trkpt>
      <trkpt lat="45.90225" lon="4.76401">
        <ele>242.30327</ele>
        <time>2023-08-05T13:23:36.000Z</time>
      </trkpt>
      <trkpt lat="45.90227" lon="4.76399">
        <ele>242.58838</ele>
        <time>2023-08-05T13:23:37.000Z</time>
      </trkpt>
      <trkpt lat="45.9023" lon="4.76396">
        <ele>242.86308</ele>
        <time>2023-08-05T13:23:38.000Z</time>
      </trkpt>
      <trkpt lat="45.90232" lon="4.76393">
        <ele>243.13799</ele>
        <time>2023-08-05T13:23:39.000Z</time>
      </trkpt>
      <trkpt lat="45.90234" lon="4.76389">
        <ele>243.40205</ele>
        <time>2023-08-05T13:23:40.000Z</time>
      </trkpt>
      <trkpt lat="45.90237" lon="4.76386">
        <ele>243.68277</ele>
        <time>2023-08-05T13:23:41.000Z</time>
      </trkpt>
      <trkpt lat="45.9024" lon="4.76382">
        <ele>243.97314</ele>
        <time>2023-08-05T13:23:42.000Z</time>
      </trkpt>
      <trkpt lat="45.90243" lon="4.76378">
        <ele>244.2323</ele>
        <time>2023-08-05T13:23:43.000Z</time>
      </trkpt>
      <trkpt lat="45.90246" lon="4.76374">
        <ele>244.4899</ele>
        <time>2023-08-05T13:23:44.000Z</time>
      </trkpt>
      <trkpt lat="45.90249" lon="4.7637">
        <ele>244.72612</ele>
        <time>2023-08-05T13:23:45.000Z</time>
      </trkpt>
      <trkpt lat="45.90253" lon="4.76365">
        <ele>244.95601</ele>
        <time>2023-08-05T13:23:46.000Z</time>
      </trkpt>
      <trkpt lat="45.90257" lon="4.7636">
        <ele>245.20032</ele>
        <time>2023-08-05T13:23:47.000Z</time>
      </trkpt>
      <trkpt lat="45.9026" lon="4.76356">
        <ele>245.44588</ele>
        <time>2023-08-05T13:23:48.000Z</time>
      </trkpt>
      <trkpt lat="45.90264" lon="4.76351">
        <ele>245.46187</ele>
        <time>2023-08-05T13:23:49.000Z</time>
      </trkpt>
      <trkpt lat="45.90267" lon="4.76347">
        <ele>245.46738</ele>
        <time>2023-08-05T13:23:50.000Z</time>
      </trkpt>
      <trkpt lat="45.90271" lon="4.76344">
        <ele>245.47221</ele>
        <time>2023-08-05T13:23:51.000Z</time>
      </trkpt>
      <trkpt lat="45.90273" lon="4.76342">
        <ele>245.47795</ele>
        <time>2023-08-05T13:23:52.000Z</time>
      </trkpt>
      <trkpt lat="45.90275" lon="4.76339">
        <ele>245.48592</ele>
        <time>2023-08-05T13:23:53.000Z</time>
      </trkpt>
      <trkpt lat="45.90277" lon="4.76336">
        <ele>245.56743</ele>
        <time>2023-08-05T13:23:55.000Z</time>
      </trkpt>
      <trkpt lat="45.9028" lon="4.76334">
        <ele>245.56372</ele>
        <time>2023-08-05T13:23:57.000Z</time>
      </trkpt>
      <trkpt lat="45.90282" lon="4.76332">
        <ele>246.8221</ele>
        <time>2023-08-05T13:23:59.000Z</time>
      </trkpt>
      <trkpt lat="45.90285" lon="4.76329">
        <ele>248.28935</ele>
        <time>2023-08-05T13:24:01.000Z</time>
      </trkpt>
      <trkpt lat="45.90284" lon="4.76326">
        <ele>249.80225</ele>
        <time>2023-08-05T13:24:16.000Z</time>
      </trkpt>
      <trkpt lat="45.90286" lon="4.76324">
        <ele>251.3262</ele>
        <time>2023-08-05T13:24:18.000Z</time>
      </trkpt>
      <trkpt lat="45.90287" lon="4.76322">
        <ele>252.86099</ele>
        <time>2023-08-05T13:24:19.000Z</time>
      </trkpt>
      <trkpt lat="45.90289" lon="4.7632">
        <ele>254.39388</ele>
        <time>2023-08-05T13:24:20.000Z</time>
      </trkpt>
      <trkpt lat="45.90291" lon="4.76318">
        <ele>255.91748</ele>
        <time>2023-08-05T13:24:21.000Z</time>
      </trkpt>
      <trkpt lat="45.90293" lon="4.76317">
        <ele>257.42889</ele>
        <time>2023-08-05T13:24:22.000Z</time>
      </trkpt>
      <trkpt lat="45.90296" lon="4.76316">
        <ele>259.46381</ele>
        <time>2023-08-05T13:26:28.000Z</time>
      </trkpt>
      <trkpt lat="45.90299" lon="4.76313">
        <ele>260.79327</ele>
        <time>2023-08-05T13:26:30.000Z</time>
      </trkpt>
      <trkpt lat="45.90301" lon="4.76311">
        <ele>262.32486</ele>
        <time>2023-08-05T13:26:31.000Z</time>
      </trkpt>
      <trkpt lat="45.90303" lon="4.76309">
        <ele>263.8299</ele>
        <time>2023-08-05T13:26:32.000Z</time>
      </trkpt>
      <trkpt lat="45.90305" lon="4.76307">
        <ele>265.33505</ele>
        <time>2023-08-05T13:26:33.000Z</time>
      </trkpt>
      <trkpt lat="45.90307" lon="4.76305">
        <ele>266.82587</ele>
        <time>2023-08-05T13:26:34.000Z</time>
      </trkpt>
      <trkpt lat="45.9031" lon="4.76302">
        <ele>268.32404</ele>
        <time>2023-08-05T13:26:35.000Z</time>
      </trkpt>
      <trkpt lat="45.90312" lon="4.763">
        <ele>269.82913</ele>
        <time>2023-08-05T13:26:36.000Z</time>
      </trkpt>
      <trkpt lat="45.90314" lon="4.76298">
        <ele>271.3233</ele>
        <time>2023-08-05T13:26:37.000Z</time>
      </trkpt>
      <trkpt lat="45.90316" lon="4.76296">
        <ele>272.81934</ele>
        <time>2023-08-05T13:26:38.000Z</time>
      </trkpt>
      <trkpt lat="45.90319" lon="4.76295">
        <ele>274.22284</ele>
        <time>2023-08-05T13:26:39.000Z</time>
      </trkpt>
      <trkpt lat="45.90321" lon="4.76293">
        <ele>275.7016</ele>
        <time>2023-08-05T13:26:40.000Z</time>
      </trkpt>
      <trkpt lat="45.90323" lon="4.76291">
        <ele>275.93353</ele>
        <time>2023-08-05T13:26:41.000Z</time>
      </trkpt>
      <trkpt lat="45.90325" lon="4.76288">
        <ele>275.96704</ele>
        <time>2023-08-05T13:26:42.000Z</time>
      </trkpt>
      <trkpt lat="45.90328" lon="4.76285">
        <ele>275.94574</ele>
        <time>2023-08-05T13:26:43.000Z</time>
      </trkpt>
      <trkpt lat="45.9033" lon="4.76282">
        <ele>275.92911</ele>
        <time>2023-08-05T13:26:44.000Z</time>
      </trkpt>
      <trkpt lat="45.90333" lon="4.76279">
        <ele>275.88992</ele>
        <time>2023-08-05T13:26:45.000Z</time>
      </trkpt>
      <trkpt lat="45.90335" lon="4.76277">
        <ele>275.85553</ele>
        <time>2023-08-05T13:26:46.000Z</time>
      </trkpt>
      <trkpt lat="45.90338" lon="4.76274">
        <ele>275.81226</ele>
        <time>2023-08-05T13:26:47.000Z</time>
      </trkpt>
      <trkpt lat="45.9034" lon="4.76272">
        <ele>275.79492</ele>
        <time>2023-08-05T13:26:48.000Z</time>
      </trkpt>
      <trkpt lat="45.90343" lon="4.76269">
        <ele>275.24277</ele>
        <time>2023-08-05T13:26:49.000Z</time>
      </trkpt>
      <trkpt lat="45.90346" lon="4.76267">
        <ele>275.40573</ele>
        <time>2023-08-05T13:26:50.000Z</time>
      </trkpt>
      <trkpt lat="45.90349" lon="4.76264">
        <ele>275.38959</ele>
        <time>2023-08-05T13:26:51.000Z</time>
      </trkpt>
      <trkpt lat="45.90351" lon="4.76261">
        <ele>275.38718</ele>
        <time>2023-08-05T13:26:52.000Z</time>
      </trkpt>
      <trkpt lat="45.90354" lon="4.76259">
        <ele>275.38547</ele>
        <time>2023-08-05T13:26:53.000Z</time>
      </trkpt>
      <trkpt lat="45.90357" lon="4.76257">
        <ele>275.38382</ele>
        <time>2023-08-05T13:26:54.000Z</time>
      </trkpt>
      <trkpt lat="45.9036" lon="4.76254">
        <ele>275.38858</ele>
        <time>2023-08-05T13:26:55.000Z</time>
      </trkpt>
      <trkpt lat="45.90363" lon="4.76251">
        <ele>273.5954</ele>
        <time>2023-08-05T13:26:56.000Z</time>
      </trkpt>
      <trkpt lat="45.90366" lon="4.76248">
        <ele>273.50992</ele>
        <time>2023-08-05T13:26:57.000Z</time>
      </trkpt>
      <trkpt lat="45.90369" lon="4.76245">
        <ele>273.40887</ele>
        <time>2023-08-05T13:26:58.000Z</time>
      </trkpt>
      <trkpt lat="45.90371" lon="4.76243">
        <ele>273.31516</ele>
        <time>2023-08-05T13:26:59.000Z</time>
      </trkpt>
      <trkpt lat="45.90374" lon="4.7624">
        <ele>273.22382</ele>
        <time>2023-08-05T13:27:00.000Z</time>
      </trkpt>
      <trkpt lat="45.90378" lon="4.76236">
        <ele>273.11023</ele>
        <time>2023-08-05T13:27:01.000Z</time>
      </trkpt>
      <trkpt lat="45.90381" lon="4.76233">
        <ele>271.29877</ele>
        <time>2023-08-05T13:27:02.000Z</time>
      </trkpt>
      <trkpt lat="45.90384" lon="4.76229">
        <ele>271.09003</ele>
        <time>2023-08-05T13:27:03.000Z</time>
      </trkpt>
      <trkpt lat="45.90387" lon="4.76225">
        <ele>270.86139</ele>
        <time>2023-08-05T13:27:04.000Z</time>
      </trkpt>
      <trkpt lat="45.9039" lon="4.76221">
        <ele>270.63544</ele>
        <time>2023-08-05T13:27:05.000Z</time>
      </trkpt>
      <trkpt lat="45.90393" lon="4.76217">
        <ele>270.38834</ele>
        <time>2023-08-05T13:27:06.000Z</time>
      </trkpt>
      <trkpt lat="45.90396" lon="4.76213">
        <ele>270.14764</ele>
        <time>2023-08-05T13:27:07.000Z</time>
      </trkpt>
      <trkpt lat="45.904" lon="4.76209">
        <ele>268.33292</ele>
        <time>2023-08-05T13:27:08.000Z</time>
      </trkpt>
      <trkpt lat="45.90403" lon="4.76205">
        <ele>266.53082</ele>
        <time>2023-08-05T13:27:09.000Z</time>
      </trkpt>
      <trkpt lat="45.90406" lon="4.762">
        <ele>264.73868</ele>
        <time>2023-08-05T13:27:10.000Z</time>
      </trkpt>
      <trkpt lat="45.90409" lon="4.76196">
        <ele>262.92834</ele>
        <time>2023-08-05T13:27:11.000Z</time>
      </trkpt>
      <trkpt lat="45.90414" lon="4.76195">
        <ele>261.10303</ele>
        <time>2023-08-05T13:27:12.000Z</time>
      </trkpt>
      <trkpt lat="45.90418" lon="4.76195">
        <ele>259.27161</ele>
        <time>2023-08-05T13:27:13.000Z</time>
      </trkpt>
      <trkpt lat="45.90422" lon="4.76196">
        <ele>257.42542</ele>
        <time>2023-08-05T13:27:14.000Z</time>
      </trkpt>
      <trkpt lat="45.90425" lon="4.76199">
        <ele>255.56763</ele>
        <time>2023-08-05T13:27:15.000Z</time>
      </trkpt>
      <trkpt lat="45.90429" lon="4.76202">
        <ele>255.51006</ele>
        <time>2023-08-05T13:27:16.000Z</time>
      </trkpt>
      <trkpt lat="45.90433" lon="4.76205">
        <ele>253.76018</ele>
        <time>2023-08-05T13:27:17.000Z</time>
      </trkpt>
      <trkpt lat="45.90437" lon="4.76207">
        <ele>251.99924</ele>
        <time>2023-08-05T13:27:18.000Z</time>
      </trkpt>
      <trkpt lat="45.9044" lon="4.76209">
        <ele>250.2493</ele>
        <time>2023-08-05T13:27:19.000Z</time>
      </trkpt>
      <trkpt lat="45.90444" lon="4.76212">
        <ele>248.51201</ele>
        <time>2023-08-05T13:27:20.000Z</time>
      </trkpt>
      <trkpt lat="45.90448" lon="4.76214">
        <ele>246.77522</ele>
        <time>2023-08-05T13:27:21.000Z</time>
      </trkpt>
      <trkpt lat="45.90452" lon="4.76217">
        <ele>246.72673</ele>
        <time>2023-08-05T13:27:22.000Z</time>
      </trkpt>
      <trkpt lat="45.90456" lon="4.76219">
        <ele>245.08469</ele>
        <time>2023-08-05T13:27:23.000Z</time>
      </trkpt>
      <trkpt lat="45.9046" lon="4.76222">
        <ele>243.4622</ele>
        <time>2023-08-05T13:27:24.000Z</time>
      </trkpt>
      <trkpt lat="45.90464" lon="4.76225">
        <ele>241.85239</ele>
        <time>2023-08-05T13:27:25.000Z</time>
      </trkpt>
      <trkpt lat="45.90467" lon="4.76227">
        <ele>240.2605</ele>
        <time>2023-08-05T13:27:26.000Z</time>
      </trkpt>
      <trkpt lat="45.90471" lon="4.7623">
        <ele>238.68144</ele>
        <time>2023-08-05T13:27:27.000Z</time>
      </trkpt>
      <trkpt lat="45.90475" lon="4.76233">
        <ele>238.67456</ele>
        <time>2023-08-05T13:27:28.000Z</time>
      </trkpt>
      <trkpt lat="45.90479" lon="4.76235">
        <ele>238.66313</ele>
        <time>2023-08-05T13:27:29.000Z</time>
      </trkpt>
      <trkpt lat="45.90483" lon="4.76239">
        <ele>238.62875</ele>
        <time>2023-08-05T13:27:30.000Z</time>
      </trkpt>
      <trkpt lat="45.90486" lon="4.76243">
        <ele>238.60201</ele>
        <time>2023-08-05T13:27:31.000Z</time>
      </trkpt>
      <trkpt lat="45.90488" lon="4.76249">
        <ele>238.58487</ele>
        <time>2023-08-05T13:27:32.000Z</time>
      </trkpt>
      <trkpt lat="45.90488" lon="4.76256">
        <ele>238.57114</ele>
        <time>2023-08-05T13:27:33.000Z</time>
      </trkpt>
      <trkpt lat="45.90488" lon="4.76262">
        <ele>238.5636</ele>
        <time>2023-08-05T13:27:34.000Z</time>
      </trkpt>
      <trkpt lat="45.90485" lon="4.76267">
        <ele>238.58081</ele>
        <time>2023-08-05T13:27:35.000Z</time>
      </trkpt>
      <trkpt lat="45.90483" lon="4.76273">
        <ele>238.59164</ele>
        <time>2023-08-05T13:27:36.000Z</time>
      </trkpt>
      <trkpt lat="45.90482" lon="4.7628">
        <ele>238.59616</ele>
        <time>2023-08-05T13:27:37.000Z</time>
      </trkpt>
      <trkpt lat="45.9048" lon="4.76286">
        <ele>238.61992</ele>
        <time>2023-08-05T13:27:38.000Z</time>
      </trkpt>
      <trkpt lat="45.90478" lon="4.76292">
        <ele>238.63437</ele>
        <time>2023-08-05T13:27:39.000Z</time>
      </trkpt>
      <trkpt lat="45.90476" lon="4.76298">
        <ele>238.64478</ele>
        <time>2023-08-05T13:27:40.000Z</time>
      </trkpt>
      <trkpt lat="45.90474" lon="4.76304">
        <ele>238.6624</ele>
        <time>2023-08-05T13:27:41.000Z</time>
      </trkpt>
      <trkpt lat="45.90472" lon="4.7631">
        <ele>238.69148</ele>
        <time>2023-08-05T13:27:42.000Z</time>
      </trkpt>
      <trkpt lat="45.9047" lon="4.76316">
        <ele>238.71756</ele>
        <time>2023-08-05T13:27:43.000Z</time>
      </trkpt>
      <trkpt lat="45.90469" lon="4.76321">
        <ele>238.73282</ele>
        <time>2023-08-05T13:27:44.000Z</time>
      </trkpt>
      <trkpt lat="45.90468" lon="4.76326">
        <ele>238.75935</ele>
        <time>2023-08-05T13:27:45.000Z</time>
      </trkpt>
      <trkpt lat="45.90466" lon="4.76332">
        <ele>238.77095</ele>
        <time>2023-08-05T13:27:46.000Z</time>
      </trkpt>
      <trkpt lat="45.90465" lon="4.76337">
        <ele>238.77151</ele>
        <time>2023-08-05T13:27:47.000Z</time>
      </trkpt>
      <trkpt lat="45.90463" lon="4.76344">
        <ele>238.76509</ele>
        <time>2023-08-05T13:27:48.000Z</time>
      </trkpt>
      <trkpt lat="45.90461" lon="4.7635">
        <ele>238.75801</ele>
        <time>2023-08-05T13:27:49.000Z</time>
      </trkpt>
      <trkpt lat="45.9046" lon="4.76356">
        <ele>238.77084</ele>
        <time>2023-08-05T13:27:50.000Z</time>
      </trkpt>
      <trkpt lat="45.90458" lon="4.76362">
        <ele>238.77095</ele>
        <time>2023-08-05T13:27:51.000Z</time>
      </trkpt>
      <trkpt lat="45.90456" lon="4.76368">
        <ele>238.79826</ele>
        <time>2023-08-05T13:27:52.000Z</time>
      </trkpt>
      <trkpt lat="45.90454" lon="4.76374">
        <ele>238.81572</ele>
        <time>2023-08-05T13:27:53.000Z</time>
      </trkpt>
      <trkpt lat="45.90452" lon="4.7638">
        <ele>238.84294</ele>
        <time>2023-08-05T13:27:54.000Z</time>
      </trkpt>
      <trkpt lat="45.9045" lon="4.76386">
        <ele>238.86128</ele>
        <time>2023-08-05T13:27:55.000Z</time>
      </trkpt>
      <trkpt lat="45.90448" lon="4.76392">
        <ele>238.87207</ele>
        <time>2023-08-05T13:27:56.000Z</time>
      </trkpt>
      <trkpt lat="45.90446" lon="4.76398">
        <ele>238.88025</ele>
        <time>2023-08-05T13:27:57.000Z</time>
      </trkpt>
      <trkpt lat="45.90444" lon="4.76403">
        <ele>238.88188</ele>
        <time>2023-08-05T13:27:58.000Z</time>
      </trkpt>
      <trkpt lat="45.90441" lon="4.76408">
        <ele>238.88968</ele>
        <time>2023-08-05T13:27:59.000Z</time>
      </trkpt>
      <trkpt lat="45.90438" lon="4.76413">
        <ele>238.90059</ele>
        <time>2023-08-05T13:28:00.000Z</time>
      </trkpt>
      <trkpt lat="45.90436" lon="4.7642">
        <ele>238.88506</ele>
        <time>2023-08-05T13:28:01.000Z</time>
      </trkpt>
      <trkpt lat="45.90434" lon="4.76425">
        <ele>238.88663</ele>
        <time>2023-08-05T13:28:02.000Z</time>
      </trkpt>
      <trkpt lat="45.90432" lon="4.7643">
        <ele>238.89383</ele>
        <time>2023-08-05T13:28:03.000Z</time>
      </trkpt>
      <trkpt lat="45.90429" lon="4.76436">
        <ele>238.8717</ele>
        <time>2023-08-05T13:28:04.000Z</time>
      </trkpt>
      <trkpt lat="45.90427" lon="4.76442">
        <ele>238.8344</ele>
        <time>2023-08-05T13:28:05.000Z</time>
      </trkpt>
      <trkpt lat="45.90425" lon="4.76444">
        <ele>238.81067</ele>
        <time>2023-08-05T13:28:06.000Z</time>
      </trkpt>
      <trkpt lat="45.90422" lon="4.76451">
        <ele>238.79692</ele>
        <time>2023-08-05T13:28:07.000Z</time>
      </trkpt>
      <trkpt lat="45.9042" lon="4.76457">
        <ele>238.79927</ele>
        <time>2023-08-05T13:28:08.000Z</time>
      </trkpt>
      <trkpt lat="45.90417" lon="4.76463">
        <ele>238.79443</ele>
        <time>2023-08-05T13:28:09.000Z</time>
      </trkpt>
      <trkpt lat="45.90414" lon="4.76468">
        <ele>238.79338</ele>
        <time>2023-08-05T13:28:10.000Z</time>
      </trkpt>
      <trkpt lat="45.9041" lon="4.76473">
        <ele>238.80038</ele>
        <time>2023-08-05T13:28:11.000Z</time>
      </trkpt>
      <trkpt lat="45.90406" lon="4.76475">
        <ele>238.783</ele>
        <time>2023-08-05T13:28:12.000Z</time>
      </trkpt>
      <trkpt lat="45.90401" lon="4.76476">
        <ele>238.77963</ele>
        <time>2023-08-05T13:28:13.000Z</time>
      </trkpt>
      <trkpt lat="45.90397" lon="4.76476">
        <ele>238.78072</ele>
        <time>2023-08-05T13:28:14.000Z</time>
      </trkpt>
      <trkpt lat="45.90393" lon="4.76477">
        <ele>238.78935</ele>
        <time>2023-08-05T13:28:15.000Z</time>
      </trkpt>
      <trkpt lat="45.90389" lon="4.76477">
        <ele>238.79526</ele>
        <time>2023-08-05T13:28:16.000Z</time>
      </trkpt>
      <trkpt lat="45.90386" lon="4.76476">
        <ele>238.80827</ele>
        <time>2023-08-05T13:28:17.000Z</time>
      </trkpt>
      <trkpt lat="45.90382" lon="4.76476">
        <ele>238.83975</ele>
        <time>2023-08-05T13:28:18.000Z</time>
      </trkpt>
      <trkpt lat="45.90378" lon="4.76476">
        <ele>238.87497</ele>
        <time>2023-08-05T13:28:19.000Z</time>
      </trkpt>
      <trkpt lat="45.90374" lon="4.76477">
        <ele>238.89523</ele>
        <time>2023-08-05T13:28:20.000Z</time>
      </trkpt>
      <trkpt lat="45.9037" lon="4.76479">
        <ele>238.9473</ele>
        <time>2023-08-05T13:28:21.000Z</time>
      </trkpt>
      <trkpt lat="45.90367" lon="4.76481">
        <ele>238.98755</ele>
        <time>2023-08-05T13:28:22.000Z</time>
      </trkpt>
      <trkpt lat="45.90364" lon="4.76485">
        <ele>239.01871</ele>
        <time>2023-08-05T13:28:23.000Z</time>
      </trkpt>
      <trkpt lat="45.90361" lon="4.76489">
        <ele>239.07901</ele>
        <time>2023-08-05T13:28:24.000Z</time>
      </trkpt>
      <trkpt lat="45.90358" lon="4.76493">
        <ele>239.14188</ele>
        <time>2023-08-05T13:28:25.000Z</time>
      </trkpt>
      <trkpt lat="45.90355" lon="4.76497">
        <ele>239.19083</ele>
        <time>2023-08-05T13:28:26.000Z</time>
      </trkpt>
      <trkpt lat="45.90352" lon="4.76501">
        <ele>239.23752</ele>
        <time>2023-08-05T13:28:27.000Z</time>
      </trkpt>
      <trkpt lat="45.90349" lon="4.76506">
        <ele>239.26221</ele>
        <time>2023-08-05T13:28:28.000Z</time>
      </trkpt>
      <trkpt lat="45.90346" lon="4.76511">
        <ele>239.28923</ele>
        <time>2023-08-05T13:28:29.000Z</time>
      </trkpt>
      <trkpt lat="45.90343" lon="4.76517">
        <ele>239.32568</ele>
        <time>2023-08-05T13:28:30.000Z</time>
      </trkpt>
      <trkpt lat="45.90342" lon="4.76524">
        <ele>239.35115</ele>
        <time>2023-08-05T13:28:31.000Z</time>
      </trkpt>
      <trkpt lat="45.90341" lon="4.7653">
        <ele>239.38879</ele>
        <time>2023-08-05T13:28:32.000Z</time>
      </trkpt>
      <trkpt lat="45.90341" lon="4.76538">
        <ele>239.41855</ele>
        <time>2023-08-05T13:28:33.000Z</time>
      </trkpt>
      <trkpt lat="45.9034" lon="4.76546">
        <ele>239.43063</ele>
        <time>2023-08-05T13:28:34.000Z</time>
      </trkpt>
      <trkpt lat="45.90341" lon="4.76553">
        <ele>239.43636</ele>
        <time>2023-08-05T13:28:35.000Z</time>
      </trkpt>
      <trkpt lat="45.9034" lon="4.76562">
        <ele>239.43001</ele>
        <time>2023-08-05T13:28:36.000Z</time>
      </trkpt>
      <trkpt lat="45.9034" lon="4.76572">
        <ele>239.38838</ele>
        <time>2023-08-05T13:28:37.000Z</time>
      </trkpt>
      <trkpt lat="45.9034" lon="4.76581">
        <ele>239.32259</ele>
        <time>2023-08-05T13:28:38.000Z</time>
      </trkpt>
      <trkpt lat="45.9034" lon="4.7659">
        <ele>239.23389</ele>
        <time>2023-08-05T13:28:39.000Z</time>
      </trkpt>
      <trkpt lat="45.9034" lon="4.766">
        <ele>239.14243</ele>
        <time>2023-08-05T13:28:40.000Z</time>
      </trkpt>
      <trkpt lat="45.90339" lon="4.7661">
        <ele>239.03706</ele>
        <time>2023-08-05T13:28:41.000Z</time>
      </trkpt>
      <trkpt lat="45.90339" lon="4.7662">
        <ele>238.89487</ele>
        <time>2023-08-05T13:28:42.000Z</time>
      </trkpt>
      <trkpt lat="45.90339" lon="4.76631">
        <ele>238.73193</ele>
        <time>2023-08-05T13:28:43.000Z</time>
      </trkpt>
      <trkpt lat="45.90338" lon="4.76642">
        <ele>238.56204</ele>
        <time>2023-08-05T13:28:44.000Z</time>
      </trkpt>
      <trkpt lat="45.90338" lon="4.76653">
        <ele>238.36687</ele>
        <time>2023-08-05T13:28:45.000Z</time>
      </trkpt>
      <trkpt lat="45.90337" lon="4.76663">
        <ele>238.17944</ele>
        <time>2023-08-05T13:28:46.000Z</time>
      </trkpt>
      <trkpt lat="45.90337" lon="4.76674">
        <ele>237.96323</ele>
        <time>2023-08-05T13:28:47.000Z</time>
      </trkpt>
      <trkpt lat="45.90337" lon="4.76684">
        <ele>237.76877</ele>
        <time>2023-08-05T13:28:48.000Z</time>
      </trkpt>
      <trkpt lat="45.90338" lon="4.76694">
        <ele>237.57397</ele>
        <time>2023-08-05T13:28:49.000Z</time>
      </trkpt>
      <trkpt lat="45.90338" lon="4.76704">
        <ele>237.35933</ele>
        <time>2023-08-05T13:28:50.000Z</time>
      </trkpt>
      <trkpt lat="45.90338" lon="4.76714">
        <ele>237.14783</ele>
        <time>2023-08-05T13:28:51.000Z</time>
      </trkpt>
      <trkpt lat="45.90337" lon="4.76724">
        <ele>236.91814</ele>
        <time>2023-08-05T13:28:52.000Z</time>
      </trkpt>
      <trkpt lat="45.90337" lon="4.76734">
        <ele>236.70354</ele>
        <time>2023-08-05T13:28:53.000Z</time>
      </trkpt>
      <trkpt lat="45.90338" lon="4.76743">
        <ele>236.49594</ele>
        <time>2023-08-05T13:28:54.000Z</time>
      </trkpt>
      <trkpt lat="45.90338" lon="4.76753">
        <ele>236.26968</ele>
        <time>2023-08-05T13:28:55.000Z</time>
      </trkpt>
      <trkpt lat="45.90337" lon="4.76762">
        <ele>236.05107</ele>
        <time>2023-08-05T13:28:56.000Z</time>
      </trkpt>
      <trkpt lat="45.90337" lon="4.76771">
        <ele>235.8699</ele>
        <time>2023-08-05T13:28:57.000Z</time>
      </trkpt>
      <trkpt lat="45.90337" lon="4.7678">
        <ele>235.69504</ele>
        <time>2023-08-05T13:28:58.000Z</time>
      </trkpt>
      <trkpt lat="45.90336" lon="4.76789">
        <ele>235.54305</ele>
        <time>2023-08-05T13:28:59.000Z</time>
      </trkpt>
      <trkpt lat="45.90336" lon="4.76797">
        <ele>235.39493</ele>
        <time>2023-08-05T13:29:00.000Z</time>
      </trkpt>
      <trkpt lat="45.90335" lon="4.76805">
        <ele>235.26376</ele>
        <time>2023-08-05T13:29:01.000Z</time>
      </trkpt>
      <trkpt lat="45.90334" lon="4.76813">
        <ele>235.16</ele>
        <time>2023-08-05T13:29:02.000Z</time>
      </trkpt>
      <trkpt lat="45.90334" lon="4.7682">
        <ele>235.08272</ele>
        <time>2023-08-05T13:29:03.000Z</time>
      </trkpt>
      <trkpt lat="45.90333" lon="4.76828">
        <ele>235.02209</ele>
        <time>2023-08-05T13:29:04.000Z</time>
      </trkpt>
      <trkpt lat="45.90333" lon="4.76836">
        <ele>234.99063</ele>
        <time>2023-08-05T13:29:05.000Z</time>
      </trkpt>
      <trkpt lat="45.90334" lon="4.76844">
        <ele>234.95976</ele>
        <time>2023-08-05T13:29:06.000Z</time>
      </trkpt>
      <trkpt lat="45.90336" lon="4.76851">
        <ele>234.96469</ele>
        <time>2023-08-05T13:29:07.000Z</time>
      </trkpt>
      <trkpt lat="45.90339" lon="4.76855">
        <ele>234.96138</ele>
        <time>2023-08-05T13:29:08.000Z</time>
      </trkpt>
      <trkpt lat="45.90344" lon="4.76859">
        <ele>234.96355</ele>
        <time>2023-08-05T13:29:09.000Z</time>
      </trkpt>
      <trkpt lat="45.90349" lon="4.76859">
        <ele>234.95911</ele>
        <time>2023-08-05T13:29:10.000Z</time>
      </trkpt>
      <trkpt lat="45.90354" lon="4.7686">
        <ele>234.97453</ele>
        <time>2023-08-05T13:29:11.000Z</time>
      </trkpt>
      <trkpt lat="45.90359" lon="4.76861">
        <ele>235.00383</ele>
        <time>2023-08-05T13:29:12.000Z</time>
      </trkpt>
      <trkpt lat="45.90365" lon="4.7686">
        <ele>235.01982</ele>
        <time>2023-08-05T13:29:13.000Z</time>
      </trkpt>
      <trkpt lat="45.9037" lon="4.76861">
        <ele>235.03767</ele>
        <time>2023-08-05T13:29:14.000Z</time>
      </trkpt>
      <trkpt lat="45.90376" lon="4.76861">
        <ele>235.07292</ele>
        <time>2023-08-05T13:29:15.000Z</time>
      </trkpt>
      <trkpt lat="45.90382" lon="4.76861">
        <ele>235.10567</ele>
        <time>2023-08-05T13:29:16.000Z</time>
      </trkpt>
      <trkpt lat="45.90387" lon="4.76861">
        <ele>235.13705</ele>
        <time>2023-08-05T13:29:17.000Z</time>
      </trkpt>
      <trkpt lat="45.90393" lon="4.76862">
        <ele>235.18607</ele>
        <time>2023-08-05T13:29:18.000Z</time>
      </trkpt>
      <trkpt lat="45.90398" lon="4.76863">
        <ele>235.25586</ele>
        <time>2023-08-05T13:29:19.000Z</time>
      </trkpt>
      <trkpt lat="45.90404" lon="4.76865">
        <ele>235.33792</ele>
        <time>2023-08-05T13:29:20.000Z</time>
      </trkpt>
      <trkpt lat="45.90409" lon="4.76865">
        <ele>235.41006</ele>
        <time>2023-08-05T13:29:21.000Z</time>
      </trkpt>
      <trkpt lat="45.90415" lon="4.76866">
        <ele>235.46286</ele>
        <time>2023-08-05T13:29:22.000Z</time>
      </trkpt>
      <trkpt lat="45.9042" lon="4.76867">
        <ele>235.50838</ele>
        <time>2023-08-05T13:29:23.000Z</time>
      </trkpt>
      <trkpt lat="45.90425" lon="4.76868">
        <ele>235.52946</ele>
        <time>2023-08-05T13:29:24.000Z</time>
      </trkpt>
      <trkpt lat="45.9043" lon="4.76868">
        <ele>235.55254</ele>
        <time>2023-08-05T13:29:25.000Z</time>
      </trkpt>
      <trkpt lat="45.90436" lon="4.76869">
        <ele>235.57065</ele>
        <time>2023-08-05T13:29:26.000Z</time>
      </trkpt>
      <trkpt lat="45.9044" lon="4.7687">
        <ele>235.57439</ele>
        <time>2023-08-05T13:29:27.000Z</time>
      </trkpt>
      <trkpt lat="45.90446" lon="4.7687">
        <ele>235.57669</ele>
        <time>2023-08-05T13:29:28.000Z</time>
      </trkpt>
      <trkpt lat="45.90451" lon="4.76871">
        <ele>235.56918</ele>
        <time>2023-08-05T13:29:29.000Z</time>
      </trkpt>
      <trkpt lat="45.90456" lon="4.76873">
        <ele>235.56633</ele>
        <time>2023-08-05T13:29:30.000Z</time>
      </trkpt>
      <trkpt lat="45.90461" lon="4.76874">
        <ele>235.56071</ele>
        <time>2023-08-05T13:29:31.000Z</time>
      </trkpt>
      <trkpt lat="45.90467" lon="4.76876">
        <ele>235.54272</ele>
        <time>2023-08-05T13:29:32.000Z</time>
      </trkpt>
      <trkpt lat="45.90471" lon="4.76877">
        <ele>235.52844</ele>
        <time>2023-08-05T13:29:33.000Z</time>
      </trkpt>
      <trkpt lat="45.90477" lon="4.76877">
        <ele>235.5135</ele>
        <time>2023-08-05T13:29:34.000Z</time>
      </trkpt>
      <trkpt lat="45.90481" lon="4.76878">
        <ele>235.4919</ele>
        <time>2023-08-05T13:29:35.000Z</time>
      </trkpt>
      <trkpt lat="45.90486" lon="4.7688">
        <ele>235.47794</ele>
        <time>2023-08-05T13:29:36.000Z</time>
      </trkpt>
      <trkpt lat="45.90491" lon="4.76881">
        <ele>235.45195</ele>
        <time>2023-08-05T13:29:37.000Z</time>
      </trkpt>
      <trkpt lat="45.90496" lon="4.76882">
        <ele>235.40747</ele>
        <time>2023-08-05T13:29:38.000Z</time>
      </trkpt>
      <trkpt lat="45.90502" lon="4.76884">
        <ele>235.32654</ele>
        <time>2023-08-05T13:29:39.000Z</time>
      </trkpt>
      <trkpt lat="45.90507" lon="4.76885">
        <ele>235.24178</ele>
        <time>2023-08-05T13:29:40.000Z</time>
      </trkpt>
      <trkpt lat="45.90513" lon="4.76886">
        <ele>235.14693</ele>
        <time>2023-08-05T13:29:41.000Z</time>
      </trkpt>
      <trkpt lat="45.90518" lon="4.76888">
        <ele>235.06299</ele>
        <time>2023-08-05T13:29:42.000Z</time>
      </trkpt>
      <trkpt lat="45.90523" lon="4.76889">
        <ele>235.01167</ele>
        <time>2023-08-05T13:29:43.000Z</time>
      </trkpt>
      <trkpt lat="45.90529" lon="4.76891">
        <ele>234.97534</ele>
        <time>2023-08-05T13:29:44.000Z</time>
      </trkpt>
      <trkpt lat="45.90534" lon="4.76892">
        <ele>234.87659</ele>
        <time>2023-08-05T13:29:45.000Z</time>
      </trkpt>
      <trkpt lat="45.9054" lon="4.76893">
        <ele>234.79599</ele>
        <time>2023-08-05T13:29:46.000Z</time>
      </trkpt>
      <trkpt lat="45.90545" lon="4.76895">
        <ele>234.71753</ele>
        <time>2023-08-05T13:29:47.000Z</time>
      </trkpt>
      <trkpt lat="45.9055" lon="4.76897">
        <ele>234.61702</ele>
        <time>2023-08-05T13:29:48.000Z</time>
      </trkpt>
      <trkpt lat="45.90556" lon="4.76898">
        <ele>234.5295</ele>
        <time>2023-08-05T13:29:49.000Z</time>
      </trkpt>
      <trkpt lat="45.90561" lon="4.769">
        <ele>234.45755</ele>
        <time>2023-08-05T13:29:50.000Z</time>
      </trkpt>
      <trkpt lat="45.90567" lon="4.76902">
        <ele>234.36528</ele>
        <time>2023-08-05T13:29:51.000Z</time>
      </trkpt>
      <trkpt lat="45.90573" lon="4.76904">
        <ele>234.26692</ele>
        <time>2023-08-05T13:29:52.000Z</time>
      </trkpt>
      <trkpt lat="45.90578" lon="4.76905">
        <ele>234.177</ele>
        <time>2023-08-05T13:29:53.000Z</time>
      </trkpt>
      <trkpt lat="45.90583" lon="4.76907">
        <ele>234.08932</ele>
        <time>2023-08-05T13:29:54.000Z</time>
      </trkpt>
      <trkpt lat="45.90589" lon="4.76908">
        <ele>234.00464</ele>
        <time>2023-08-05T13:29:55.000Z</time>
      </trkpt>
      <trkpt lat="45.90594" lon="4.7691">
        <ele>233.91858</ele>
        <time>2023-08-05T13:29:56.000Z</time>
      </trkpt>
      <trkpt lat="45.906" lon="4.76911">
        <ele>233.83647</ele>
        <time>2023-08-05T13:29:57.000Z</time>
      </trkpt>
      <trkpt lat="45.90605" lon="4.76913">
        <ele>233.75076</ele>
        <time>2023-08-05T13:29:58.000Z</time>
      </trkpt>
      <trkpt lat="45.90611" lon="4.76914">
        <ele>233.67769</ele>
        <time>2023-08-05T13:29:59.000Z</time>
      </trkpt>
      <trkpt lat="45.90616" lon="4.76915">
        <ele>233.64201</ele>
        <time>2023-08-05T13:30:00.000Z</time>
      </trkpt>
      <trkpt lat="45.90621" lon="4.76917">
        <ele>233.63278</ele>
        <time>2023-08-05T13:30:01.000Z</time>
      </trkpt>
      <trkpt lat="45.90627" lon="4.76918">
        <ele>233.57019</ele>
        <time>2023-08-05T13:30:02.000Z</time>
      </trkpt>
      <trkpt lat="45.90632" lon="4.7692">
        <ele>233.47739</ele>
        <time>2023-08-05T13:30:03.000Z</time>
      </trkpt>
      <trkpt lat="45.90637" lon="4.76922">
        <ele>233.39803</ele>
        <time>2023-08-05T13:30:04.000Z</time>
      </trkpt>
      <trkpt lat="45.90642" lon="4.76923">
        <ele>233.38448</ele>
        <time>2023-08-05T13:30:05.000Z</time>
      </trkpt>
      <trkpt lat="45.90647" lon="4.76924">
        <ele>233.35938</ele>
        <time>2023-08-05T13:30:06.000Z</time>
      </trkpt>
      <trkpt lat="45.90652" lon="4.76926">
        <ele>233.35002</ele>
        <time>2023-08-05T13:30:07.000Z</time>
      </trkpt>
      <trkpt lat="45.90658" lon="4.76928">
        <ele>233.35567</ele>
        <time>2023-08-05T13:30:08.000Z</time>
      </trkpt>
      <trkpt lat="45.90662" lon="4.7693">
        <ele>233.33183</ele>
        <time>2023-08-05T13:30:09.000Z</time>
      </trkpt>
      <trkpt lat="45.90668" lon="4.76932">
        <ele>233.31108</ele>
        <time>2023-08-05T13:30:10.000Z</time>
      </trkpt>
      <trkpt lat="45.90673" lon="4.76934">
        <ele>233.29025</ele>
        <time>2023-08-05T13:30:11.000Z</time>
      </trkpt>
      <trkpt lat="45.90678" lon="4.76937">
        <ele>233.29106</ele>
        <time>2023-08-05T13:30:12.000Z</time>
      </trkpt>
      <trkpt lat="45.90684" lon="4.76939">
        <ele>233.28218</ele>
        <time>2023-08-05T13:30:13.000Z</time>
      </trkpt>
      <trkpt lat="45.90689" lon="4.76942">
        <ele>233.2836</ele>
        <time>2023-08-05T13:30:14.000Z</time>
      </trkpt>
      <trkpt lat="45.90694" lon="4.76945">
        <ele>233.28352</ele>
        <time>2023-08-05T13:30:15.000Z</time>
      </trkpt>
      <trkpt lat="45.90698" lon="4.76948">
        <ele>233.2762</ele>
        <time>2023-08-05T13:30:16.000Z</time>
      </trkpt>
      <trkpt lat="45.90703" lon="4.76951">
        <ele>233.26936</ele>
        <time>2023-08-05T13:30:17.000Z</time>
      </trkpt>
      <trkpt lat="45.90708" lon="4.76954">
        <ele>233.27278</ele>
        <time>2023-08-05T13:30:18.000Z</time>
      </trkpt>
      <trkpt lat="45.90713" lon="4.76957">
        <ele>233.27556</ele>
        <time>2023-08-05T13:30:19.000Z</time>
      </trkpt>
      <trkpt lat="45.90719" lon="4.76959">
        <ele>233.2467</ele>
        <time>2023-08-05T13:30:20.000Z</time>
      </trkpt>
      <trkpt lat="45.90724" lon="4.76962">
        <ele>233.19614</ele>
        <time>2023-08-05T13:30:21.000Z</time>
      </trkpt>
      <trkpt lat="45.90728" lon="4.76965">
        <ele>233.20647</ele>
        <time>2023-08-05T13:30:22.000Z</time>
      </trkpt>
      <trkpt lat="45.90733" lon="4.76967">
        <ele>233.207</ele>
        <time>2023-08-05T13:30:23.000Z</time>
      </trkpt>
      <trkpt lat="45.90738" lon="4.7697">
        <ele>233.18698</ele>
        <time>2023-08-05T13:30:24.000Z</time>
      </trkpt>
      <trkpt lat="45.90742" lon="4.76971">
        <ele>233.16582</ele>
        <time>2023-08-05T13:30:25.000Z</time>
      </trkpt>
      <trkpt lat="45.90746" lon="4.76974">
        <ele>233.13721</ele>
        <time>2023-08-05T13:30:26.000Z</time>
      </trkpt>
      <trkpt lat="45.9075" lon="4.76975">
        <ele>233.09348</ele>
        <time>2023-08-05T13:30:27.000Z</time>
      </trkpt>
      <trkpt lat="45.90754" lon="4.76977">
        <ele>233.0686</ele>
        <time>2023-08-05T13:30:28.000Z</time>
      </trkpt>
      <trkpt lat="45.90757" lon="4.76978">
        <ele>233.06123</ele>
        <time>2023-08-05T13:30:29.000Z</time>
      </trkpt>
      <trkpt lat="45.90759" lon="4.76979">
        <ele>233.04333</ele>
        <time>2023-08-05T13:30:30.000Z</time>
      </trkpt>
      <trkpt lat="45.90762" lon="4.76981">
        <ele>233.07339</ele>
        <time>2023-08-05T13:30:32.000Z</time>
      </trkpt>
      <trkpt lat="45.90764" lon="4.76983">
        <ele>232.99582</ele>
        <time>2023-08-05T13:30:33.000Z</time>
      </trkpt>
      <trkpt lat="45.90767" lon="4.76984">
        <ele>232.91061</ele>
        <time>2023-08-05T13:30:34.000Z</time>
      </trkpt>
      <trkpt lat="45.90768" lon="4.76986">
        <ele>232.82358</ele>
        <time>2023-08-05T13:30:35.000Z</time>
      </trkpt>
      <trkpt lat="45.9077" lon="4.76988">
        <ele>232.74629</ele>
        <time>2023-08-05T13:30:36.000Z</time>
      </trkpt>
      <trkpt lat="45.90772" lon="4.76991">
        <ele>232.67847</ele>
        <time>2023-08-05T13:30:37.000Z</time>
      </trkpt>
      <trkpt lat="45.90775" lon="4.76994">
        <ele>232.6091</ele>
        <time>2023-08-05T13:30:38.000Z</time>
      </trkpt>
      <trkpt lat="45.90778" lon="4.76997">
        <ele>232.52817</ele>
        <time>2023-08-05T13:30:39.000Z</time>
      </trkpt>
      <trkpt lat="45.90781" lon="4.77001">
        <ele>232.44978</ele>
        <time>2023-08-05T13:30:40.000Z</time>
      </trkpt>
      <trkpt lat="45.90784" lon="4.77004">
        <ele>232.35686</ele>
        <time>2023-08-05T13:30:41.000Z</time>
      </trkpt>
      <trkpt lat="45.90788" lon="4.77008">
        <ele>232.26897</ele>
        <time>2023-08-05T13:30:42.000Z</time>
      </trkpt>
      <trkpt lat="45.90791" lon="4.77011">
        <ele>232.18233</ele>
        <time>2023-08-05T13:30:43.000Z</time>
      </trkpt>
      <trkpt lat="45.90795" lon="4.77015">
        <ele>232.11201</ele>
        <time>2023-08-05T13:30:44.000Z</time>
      </trkpt>
      <trkpt lat="45.90798" lon="4.77019">
        <ele>232.03181</ele>
        <time>2023-08-05T13:30:45.000Z</time>
      </trkpt>
      <trkpt lat="45.90802" lon="4.77023">
        <ele>231.94214</ele>
        <time>2023-08-05T13:30:46.000Z</time>
      </trkpt>
      <trkpt lat="45.90806" lon="4.77027">
        <ele>231.86465</ele>
        <time>2023-08-05T13:30:47.000Z</time>
      </trkpt>
      <trkpt lat="45.9081" lon="4.77031">
        <ele>231.8158</ele>
        <time>2023-08-05T13:30:48.000Z</time>
      </trkpt>
      <trkpt lat="45.90814" lon="4.77034">
        <ele>231.75125</ele>
        <time>2023-08-05T13:30:49.000Z</time>
      </trkpt>
      <trkpt lat="45.90818" lon="4.77038">
        <ele>231.68967</ele>
        <time>2023-08-05T13:30:50.000Z</time>
      </trkpt>
      <trkpt lat="45.90822" lon="4.77041">
        <ele>231.67612</ele>
        <time>2023-08-05T13:30:51.000Z</time>
      </trkpt>
      <trkpt lat="45.90826" lon="4.77046">
        <ele>231.65218</ele>
        <time>2023-08-05T13:30:52.000Z</time>
      </trkpt>
      <trkpt lat="45.9083" lon="4.77049">
        <ele>231.63782</ele>
        <time>2023-08-05T13:30:53.000Z</time>
      </trkpt>
      <trkpt lat="45.90834" lon="4.77054">
        <ele>231.64954</ele>
        <time>2023-08-05T13:30:54.000Z</time>
      </trkpt>
      <trkpt lat="45.90838" lon="4.77057">
        <ele>231.64658</ele>
        <time>2023-08-05T13:30:55.000Z</time>
      </trkpt>
      <trkpt lat="45.90842" lon="4.77062">
        <ele>231.63493</ele>
        <time>2023-08-05T13:30:56.000Z</time>
      </trkpt>
      <trkpt lat="45.90846" lon="4.77066">
        <ele>231.61369</ele>
        <time>2023-08-05T13:30:57.000Z</time>
      </trkpt>
      <trkpt lat="45.9085" lon="4.7707">
        <ele>231.59506</ele>
        <time>2023-08-05T13:30:58.000Z</time>
      </trkpt>
      <trkpt lat="45.90854" lon="4.77074">
        <ele>231.58418</ele>
        <time>2023-08-05T13:30:59.000Z</time>
      </trkpt>
      <trkpt lat="45.90859" lon="4.77078">
        <ele>231.56955</ele>
        <time>2023-08-05T13:31:00.000Z</time>
      </trkpt>
      <trkpt lat="45.90863" lon="4.77083">
        <ele>231.57797</ele>
        <time>2023-08-05T13:31:01.000Z</time>
      </trkpt>
      <trkpt lat="45.90867" lon="4.77087">
        <ele>231.58672</ele>
        <time>2023-08-05T13:31:02.000Z</time>
      </trkpt>
      <trkpt lat="45.90871" lon="4.77091">
        <ele>231.60188</ele>
        <time>2023-08-05T13:31:03.000Z</time>
      </trkpt>
      <trkpt lat="45.90875" lon="4.77096">
        <ele>231.61641</ele>
        <time>2023-08-05T13:31:04.000Z</time>
      </trkpt>
      <trkpt lat="45.90879" lon="4.771">
        <ele>231.65213</ele>
        <time>2023-08-05T13:31:05.000Z</time>
      </trkpt>
      <trkpt lat="45.90884" lon="4.77105">
        <ele>231.69365</ele>
        <time>2023-08-05T13:31:06.000Z</time>
      </trkpt>
      <trkpt lat="45.90887" lon="4.77109">
        <ele>231.72415</ele>
        <time>2023-08-05T13:31:07.000Z</time>
      </trkpt>
      <trkpt lat="45.90891" lon="4.77114">
        <ele>231.73772</ele>
        <time>2023-08-05T13:31:08.000Z</time>
      </trkpt>
      <trkpt lat="45.90895" lon="4.77119">
        <ele>231.73567</ele>
        <time>2023-08-05T13:31:09.000Z</time>
      </trkpt>
      <trkpt lat="45.90899" lon="4.77124">
        <ele>231.74455</ele>
        <time>2023-08-05T13:31:10.000Z</time>
      </trkpt>
      <trkpt lat="45.90903" lon="4.7713">
        <ele>231.68933</ele>
        <time>2023-08-05T13:31:11.000Z</time>
      </trkpt>
      <trkpt lat="45.90907" lon="4.77135">
        <ele>231.6062</ele>
        <time>2023-08-05T13:31:12.000Z</time>
      </trkpt>
      <trkpt lat="45.90911" lon="4.77141">
        <ele>231.61978</ele>
        <time>2023-08-05T13:31:13.000Z</time>
      </trkpt>
      <trkpt lat="45.90915" lon="4.77147">
        <ele>231.62186</ele>
        <time>2023-08-05T13:31:14.000Z</time>
      </trkpt>
      <trkpt lat="45.90919" lon="4.77152">
        <ele>231.62222</ele>
        <time>2023-08-05T13:31:15.000Z</time>
      </trkpt>
      <trkpt lat="45.90923" lon="4.77158">
        <ele>231.62251</ele>
        <time>2023-08-05T13:31:16.000Z</time>
      </trkpt>
      <trkpt lat="45.90927" lon="4.77163">
        <ele>231.6508</ele>
        <time>2023-08-05T13:31:17.000Z</time>
      </trkpt>
      <trkpt lat="45.90931" lon="4.77168">
        <ele>231.68562</ele>
        <time>2023-08-05T13:31:18.000Z</time>
      </trkpt>
      <trkpt lat="45.90935" lon="4.77173">
        <ele>231.72881</ele>
        <time>2023-08-05T13:31:19.000Z</time>
      </trkpt>
      <trkpt lat="45.90938" lon="4.77178">
        <ele>231.77097</ele>
        <time>2023-08-05T13:31:20.000Z</time>
      </trkpt>
      <trkpt lat="45.90942" lon="4.77183">
        <ele>231.78398</ele>
        <time>2023-08-05T13:31:21.000Z</time>
      </trkpt>
      <trkpt lat="45.90944" lon="4.77189">
        <ele>231.80258</ele>
        <time>2023-08-05T13:31:22.000Z</time>
      </trkpt>
      <trkpt lat="45.90948" lon="4.77195">
        <ele>231.80904</ele>
        <time>2023-08-05T13:31:23.000Z</time>
      </trkpt>
      <trkpt lat="45.90951" lon="4.772">
        <ele>231.8176</ele>
        <time>2023-08-05T13:31:24.000Z</time>
      </trkpt>
      <trkpt lat="45.90954" lon="4.77204">
        <ele>231.81689</ele>
        <time>2023-08-05T13:31:25.000Z</time>
      </trkpt>
      <trkpt lat="45.90957" lon="4.77209">
        <ele>231.80972</ele>
        <time>2023-08-05T13:31:26.000Z</time>
      </trkpt>
      <trkpt lat="45.9096" lon="4.77213">
        <ele>231.79793</ele>
        <time>2023-08-05T13:31:27.000Z</time>
      </trkpt>
      <trkpt lat="45.90962" lon="4.77219">
        <ele>231.7823</ele>
        <time>2023-08-05T13:31:28.000Z</time>
      </trkpt>
      <trkpt lat="45.90964" lon="4.77224">
        <ele>231.77876</ele>
        <time>2023-08-05T13:31:29.000Z</time>
      </trkpt>
      <trkpt lat="45.90967" lon="4.77228">
        <ele>231.7699</ele>
        <time>2023-08-05T13:31:30.000Z</time>
      </trkpt>
      <trkpt lat="45.90969" lon="4.77233">
        <ele>231.76709</ele>
        <time>2023-08-05T13:31:31.000Z</time>
      </trkpt>
      <trkpt lat="45.90971" lon="4.77238">
        <ele>231.77258</ele>
        <time>2023-08-05T13:31:32.000Z</time>
      </trkpt>
      <trkpt lat="45.90972" lon="4.77243">
        <ele>231.79182</ele>
        <time>2023-08-05T13:31:33.000Z</time>
      </trkpt>
      <trkpt lat="45.90974" lon="4.77247">
        <ele>231.82309</ele>
        <time>2023-08-05T13:31:34.000Z</time>
      </trkpt>
      <trkpt lat="45.90975" lon="4.77252">
        <ele>231.87346</ele>
        <time>2023-08-05T13:31:35.000Z</time>
      </trkpt>
      <trkpt lat="45.90976" lon="4.77256">
        <ele>231.93404</ele>
        <time>2023-08-05T13:31:36.000Z</time>
      </trkpt>
      <trkpt lat="45.90979" lon="4.77258">
        <ele>232.01884</ele>
        <time>2023-08-05T13:31:37.000Z</time>
      </trkpt>
      <trkpt lat="45.90982" lon="4.77258">
        <ele>232.12698</ele>
        <time>2023-08-05T13:31:38.000Z</time>
      </trkpt>
      <trkpt lat="45.90985" lon="4.77258">
        <ele>232.21394</ele>
        <time>2023-08-05T13:31:39.000Z</time>
      </trkpt>
      <trkpt lat="45.90987" lon="4.77257">
        <ele>232.19905</ele>
        <time>2023-08-05T13:31:40.000Z</time>
      </trkpt>
      <trkpt lat="45.9099" lon="4.77253">
        <ele>232.23271</ele>
        <time>2023-08-05T13:31:41.000Z</time>
      </trkpt>
      <trkpt lat="45.90992" lon="4.77248">
        <ele>232.23828</ele>
        <time>2023-08-05T13:31:42.000Z</time>
      </trkpt>
      <trkpt lat="45.90994" lon="4.77244">
        <ele>232.23523</ele>
        <time>2023-08-05T13:31:43.000Z</time>
      </trkpt>
      <trkpt lat="45.90996" lon="4.7724">
        <ele>232.25069</ele>
        <time>2023-08-05T13:31:44.000Z</time>
      </trkpt>
      <trkpt lat="45.90999" lon="4.77236">
        <ele>232.29617</ele>
        <time>2023-08-05T13:31:45.000Z</time>
      </trkpt>
      <trkpt lat="45.91001" lon="4.77231">
        <ele>232.35735</ele>
        <time>2023-08-05T13:31:46.000Z</time>
      </trkpt>
      <trkpt lat="45.91003" lon="4.77226">
        <ele>232.42061</ele>
        <time>2023-08-05T13:31:47.000Z</time>
      </trkpt>
      <trkpt lat="45.91006" lon="4.77221">
        <ele>232.37627</ele>
        <time>2023-08-05T13:31:48.000Z</time>
      </trkpt>
      <trkpt lat="45.9101" lon="4.77216">
        <ele>232.36099</ele>
        <time>2023-08-05T13:31:49.000Z</time>
      </trkpt>
      <trkpt lat="45.91013" lon="4.77211">
        <ele>232.34583</ele>
        <time>2023-08-05T13:31:50.000Z</time>
      </trkpt>
      <trkpt lat="45.91015" lon="4.77206">
        <ele>232.32214</ele>
        <time>2023-08-05T13:31:51.000Z</time>
      </trkpt>
      <trkpt lat="45.91018" lon="4.77202">
        <ele>232.2869</ele>
        <time>2023-08-05T13:31:52.000Z</time>
      </trkpt>
      <trkpt lat="45.9102" lon="4.77196">
        <ele>232.22885</ele>
        <time>2023-08-05T13:31:53.000Z</time>
      </trkpt>
      <trkpt lat="45.91023" lon="4.7719">
        <ele>232.15909</ele>
        <time>2023-08-05T13:31:54.000Z</time>
      </trkpt>
      <trkpt lat="45.91025" lon="4.77184">
        <ele>232.08777</ele>
        <time>2023-08-05T13:31:55.000Z</time>
      </trkpt>
      <trkpt lat="45.91029" lon="4.77179">
        <ele>231.9855</ele>
        <time>2023-08-05T13:31:56.000Z</time>
      </trkpt>
      <trkpt lat="45.91032" lon="4.77174">
        <ele>231.88872</ele>
        <time>2023-08-05T13:31:57.000Z</time>
      </trkpt>
      <trkpt lat="45.91035" lon="4.77168">
        <ele>231.78726</ele>
        <time>2023-08-05T13:31:58.000Z</time>
      </trkpt>
      <trkpt lat="45.91038" lon="4.77163">
        <ele>231.59444</ele>
        <time>2023-08-05T13:31:59.000Z</time>
      </trkpt>
      <trkpt lat="45.91042" lon="4.77157">
        <ele>231.52214</ele>
        <time>2023-08-05T13:32:00.000Z</time>
      </trkpt>
      <trkpt lat="45.91045" lon="4.77151">
        <ele>231.42444</ele>
        <time>2023-08-05T13:32:01.000Z</time>
      </trkpt>
      <trkpt lat="45.91049" lon="4.77146">
        <ele>231.33447</ele>
        <time>2023-08-05T13:32:02.000Z</time>
      </trkpt>
      <trkpt lat="45.91052" lon="4.7714">
        <ele>231.26846</ele>
        <time>2023-08-05T13:32:03.000Z</time>
      </trkpt>
      <trkpt lat="45.91055" lon="4.77135">
        <ele>231.17908</ele>
        <time>2023-08-05T13:32:04.000Z</time>
      </trkpt>
      <trkpt lat="45.91059" lon="4.7713">
        <ele>231.07114</ele>
        <time>2023-08-05T13:32:05.000Z</time>
      </trkpt>
      <trkpt lat="45.91062" lon="4.77124">
        <ele>230.95662</ele>
        <time>2023-08-05T13:32:06.000Z</time>
      </trkpt>
      <trkpt lat="45.91065" lon="4.77119">
        <ele>230.8405</ele>
        <time>2023-08-05T13:32:07.000Z</time>
      </trkpt>
      <trkpt lat="45.91068" lon="4.77113">
        <ele>230.84367</ele>
        <time>2023-08-05T13:32:08.000Z</time>
      </trkpt>
      <trkpt lat="45.91072" lon="4.77107">
        <ele>230.8309</ele>
        <time>2023-08-05T13:32:09.000Z</time>
      </trkpt>
      <trkpt lat="45.91075" lon="4.77103">
        <ele>230.86052</ele>
        <time>2023-08-05T13:32:10.000Z</time>
      </trkpt>
      <trkpt lat="45.91079" lon="4.77098">
        <ele>230.86247</ele>
        <time>2023-08-05T13:32:11.000Z</time>
      </trkpt>
      <trkpt lat="45.91082" lon="4.77093">
        <ele>230.86545</ele>
        <time>2023-08-05T13:32:12.000Z</time>
      </trkpt>
      <trkpt lat="45.91085" lon="4.77088">
        <ele>230.87126</ele>
        <time>2023-08-05T13:32:13.000Z</time>
      </trkpt>
      <trkpt lat="45.91088" lon="4.77084">
        <ele>230.91794</ele>
        <time>2023-08-05T13:32:14.000Z</time>
      </trkpt>
      <trkpt lat="45.91092" lon="4.77078">
        <ele>230.96899</ele>
        <time>2023-08-05T13:32:15.000Z</time>
      </trkpt>
      <trkpt lat="45.91095" lon="4.77073">
        <ele>231.05669</ele>
        <time>2023-08-05T13:32:16.000Z</time>
      </trkpt>
      <trkpt lat="45.91099" lon="4.77067">
        <ele>230.98984</ele>
        <time>2023-08-05T13:32:17.000Z</time>
      </trkpt>
      <trkpt lat="45.91102" lon="4.77062">
        <ele>230.91109</ele>
        <time>2023-08-05T13:32:18.000Z</time>
      </trkpt>
      <trkpt lat="45.91105" lon="4.77056">
        <ele>230.94926</ele>
        <time>2023-08-05T13:32:19.000Z</time>
      </trkpt>
      <trkpt lat="45.91109" lon="4.77049">
        <ele>230.98398</ele>
        <time>2023-08-05T13:32:20.000Z</time>
      </trkpt>
      <trkpt lat="45.91112" lon="4.77044">
        <ele>231.00606</ele>
        <time>2023-08-05T13:32:21.000Z</time>
      </trkpt>
      <trkpt lat="45.91116" lon="4.77039">
        <ele>231.04512</ele>
        <time>2023-08-05T13:32:22.000Z</time>
      </trkpt>
      <trkpt lat="45.91119" lon="4.77033">
        <ele>231.09042</ele>
        <time>2023-08-05T13:32:23.000Z</time>
      </trkpt>
      <trkpt lat="45.91123" lon="4.77026">
        <ele>231.14786</ele>
        <time>2023-08-05T13:32:24.000Z</time>
      </trkpt>
      <trkpt lat="45.91126" lon="4.77021">
        <ele>231.2011</ele>
        <time>2023-08-05T13:32:25.000Z</time>
      </trkpt>
      <trkpt lat="45.91129" lon="4.77014">
        <ele>231.25667</ele>
        <time>2023-08-05T13:32:26.000Z</time>
      </trkpt>
      <trkpt lat="45.91133" lon="4.77008">
        <ele>231.32378</ele>
        <time>2023-08-05T13:32:27.000Z</time>
      </trkpt>
      <trkpt lat="45.91136" lon="4.77002">
        <ele>231.38005</ele>
        <time>2023-08-05T13:32:28.000Z</time>
      </trkpt>
      <trkpt lat="45.91139" lon="4.76996">
        <ele>231.42058</ele>
        <time>2023-08-05T13:32:29.000Z</time>
      </trkpt>
      <trkpt lat="45.91143" lon="4.7699">
        <ele>231.3885</ele>
        <time>2023-08-05T13:32:30.000Z</time>
      </trkpt>
      <trkpt lat="45.91146" lon="4.76983">
        <ele>231.39746</ele>
        <time>2023-08-05T13:32:31.000Z</time>
      </trkpt>
      <trkpt lat="45.9115" lon="4.76977">
        <ele>231.39473</ele>
        <time>2023-08-05T13:32:32.000Z</time>
      </trkpt>
      <trkpt lat="45.91154" lon="4.76971">
        <ele>231.38077</ele>
        <time>2023-08-05T13:32:33.000Z</time>
      </trkpt>
      <trkpt lat="45.91157" lon="4.76964">
        <ele>231.31604</ele>
        <time>2023-08-05T13:32:34.000Z</time>
      </trkpt>
      <trkpt lat="45.91161" lon="4.76957">
        <ele>231.269</ele>
        <time>2023-08-05T13:32:35.000Z</time>
      </trkpt>
      <trkpt lat="45.91166" lon="4.7695">
        <ele>231.21614</ele>
        <time>2023-08-05T13:32:36.000Z</time>
      </trkpt>
      <trkpt lat="45.9117" lon="4.76943">
        <ele>231.26509</ele>
        <time>2023-08-05T13:32:37.000Z</time>
      </trkpt>
      <trkpt lat="45.91174" lon="4.76936">
        <ele>231.31194</ele>
        <time>2023-08-05T13:32:38.000Z</time>
      </trkpt>
      <trkpt lat="45.91177" lon="4.7693">
        <ele>231.32578</ele>
        <time>2023-08-05T13:32:39.000Z</time>
      </trkpt>
      <trkpt lat="45.91181" lon="4.76923">
        <ele>231.3291</ele>
        <time>2023-08-05T13:32:40.000Z</time>
      </trkpt>
      <trkpt lat="45.91185" lon="4.76917">
        <ele>231.31909</ele>
        <time>2023-08-05T13:32:41.000Z</time>
      </trkpt>
      <trkpt lat="45.91188" lon="4.7691">
        <ele>231.29333</ele>
        <time>2023-08-05T13:32:42.000Z</time>
      </trkpt>
      <trkpt lat="45.91192" lon="4.76904">
        <ele>231.24358</ele>
        <time>2023-08-05T13:32:43.000Z</time>
      </trkpt>
      <trkpt lat="45.91196" lon="4.76896">
        <ele>231.16666</ele>
        <time>2023-08-05T13:32:44.000Z</time>
      </trkpt>
      <trkpt lat="45.912" lon="4.7689">
        <ele>231.0856</ele>
        <time>2023-08-05T13:32:45.000Z</time>
      </trkpt>
      <trkpt lat="45.91204" lon="4.76883">
        <ele>230.98276</ele>
        <time>2023-08-05T13:32:46.000Z</time>
      </trkpt>
      <trkpt lat="45.91207" lon="4.76875">
        <ele>230.88164</ele>
        <time>2023-08-05T13:32:47.000Z</time>
      </trkpt>
      <trkpt lat="45.91211" lon="4.76868">
        <ele>230.78484</ele>
        <time>2023-08-05T13:32:48.000Z</time>
      </trkpt>
      <trkpt lat="45.91215" lon="4.76861">
        <ele>230.69914</ele>
        <time>2023-08-05T13:32:49.000Z</time>
      </trkpt>
      <trkpt lat="45.91218" lon="4.76854">
        <ele>230.63338</ele>
        <time>2023-08-05T13:32:50.000Z</time>
      </trkpt>
      <trkpt lat="45.91222" lon="4.76847">
        <ele>230.56506</ele>
        <time>2023-08-05T13:32:51.000Z</time>
      </trkpt>
      <trkpt lat="45.91226" lon="4.76841">
        <ele>230.50204</ele>
        <time>2023-08-05T13:32:52.000Z</time>
      </trkpt>
      <trkpt lat="45.91229" lon="4.76833">
        <ele>230.45206</ele>
        <time>2023-08-05T13:32:53.000Z</time>
      </trkpt>
      <trkpt lat="45.91233" lon="4.76826">
        <ele>230.40939</ele>
        <time>2023-08-05T13:32:54.000Z</time>
      </trkpt>
      <trkpt lat="45.91236" lon="4.76819">
        <ele>230.33736</ele>
        <time>2023-08-05T13:32:55.000Z</time>
      </trkpt>
      <trkpt lat="45.9124" lon="4.76812">
        <ele>230.25728</ele>
        <time>2023-08-05T13:32:56.000Z</time>
      </trkpt>
      <trkpt lat="45.91243" lon="4.76806">
        <ele>230.18111</ele>
        <time>2023-08-05T13:32:57.000Z</time>
      </trkpt>
      <trkpt lat="45.91247" lon="4.768">
        <ele>230.15482</ele>
        <time>2023-08-05T13:32:58.000Z</time>
      </trkpt>
      <trkpt lat="45.9125" lon="4.76793">
        <ele>230.14566</ele>
        <time>2023-08-05T13:32:59.000Z</time>
      </trkpt>
      <trkpt lat="45.91254" lon="4.76787">
        <ele>230.11443</ele>
        <time>2023-08-05T13:33:00.000Z</time>
      </trkpt>
      <trkpt lat="45.91257" lon="4.76781">
        <ele>230.11235</ele>
        <time>2023-08-05T13:33:01.000Z</time>
      </trkpt>
      <trkpt lat="45.9126" lon="4.76774">
        <ele>230.16537</ele>
        <time>2023-08-05T13:33:02.000Z</time>
      </trkpt>
      <trkpt lat="45.91264" lon="4.76767">
        <ele>230.24173</ele>
        <time>2023-08-05T13:33:03.000Z</time>
      </trkpt>
      <trkpt lat="45.91268" lon="4.76761">
        <ele>230.23396</ele>
        <time>2023-08-05T13:33:04.000Z</time>
      </trkpt>
      <trkpt lat="45.91271" lon="4.76755">
        <ele>230.24258</ele>
        <time>2023-08-05T13:33:05.000Z</time>
      </trkpt>
      <trkpt lat="45.91275" lon="4.76749">
        <ele>230.26767</ele>
        <time>2023-08-05T13:33:06.000Z</time>
      </trkpt>
      <trkpt lat="45.91278" lon="4.76743">
        <ele>230.29204</ele>
        <time>2023-08-05T13:33:07.000Z</time>
      </trkpt>
      <trkpt lat="45.91281" lon="4.76737">
        <ele>230.32458</ele>
        <time>2023-08-05T13:33:08.000Z</time>
      </trkpt>
      <trkpt lat="45.91285" lon="4.76731">
        <ele>230.37093</ele>
        <time>2023-08-05T13:33:09.000Z</time>
      </trkpt>
      <trkpt lat="45.91288" lon="4.76725">
        <ele>230.41695</ele>
        <time>2023-08-05T13:33:10.000Z</time>
      </trkpt>
      <trkpt lat="45.91291" lon="4.7672">
        <ele>230.44759</ele>
        <time>2023-08-05T13:33:11.000Z</time>
      </trkpt>
      <trkpt lat="45.91295" lon="4.76714">
        <ele>230.48935</ele>
        <time>2023-08-05T13:33:12.000Z</time>
      </trkpt>
      <trkpt lat="45.91299" lon="4.76708">
        <ele>230.52666</ele>
        <time>2023-08-05T13:33:13.000Z</time>
      </trkpt>
      <trkpt lat="45.91302" lon="4.76701">
        <ele>230.56306</ele>
        <time>2023-08-05T13:33:14.000Z</time>
      </trkpt>
      <trkpt lat="45.91305" lon="4.76694">
        <ele>230.5892</ele>
        <time>2023-08-05T13:33:15.000Z</time>
      </trkpt>
      <trkpt lat="45.91308" lon="4.76688">
        <ele>230.62639</ele>
        <time>2023-08-05T13:33:16.000Z</time>
      </trkpt>
      <trkpt lat="45.91312" lon="4.76682">
        <ele>230.69492</ele>
        <time>2023-08-05T13:33:17.000Z</time>
      </trkpt>
      <trkpt lat="45.91315" lon="4.76676">
        <ele>230.72124</ele>
        <time>2023-08-05T13:33:18.000Z</time>
      </trkpt>
      <trkpt lat="45.91318" lon="4.76671">
        <ele>230.75284</ele>
        <time>2023-08-05T13:33:19.000Z</time>
      </trkpt>
      <trkpt lat="45.91321" lon="4.76667">
        <ele>230.79184</ele>
        <time>2023-08-05T13:33:20.000Z</time>
      </trkpt>
      <trkpt lat="45.91324" lon="4.76662">
        <ele>230.83684</ele>
        <time>2023-08-05T13:33:21.000Z</time>
      </trkpt>
      <trkpt lat="45.91326" lon="4.76658">
        <ele>230.84062</ele>
        <time>2023-08-05T13:33:22.000Z</time>
      </trkpt>
      <trkpt lat="45.91328" lon="4.76653">
        <ele>230.82007</ele>
        <time>2023-08-05T13:33:23.000Z</time>
      </trkpt>
      <trkpt lat="45.9133" lon="4.76649">
        <ele>230.89507</ele>
        <time>2023-08-05T13:33:24.000Z</time>
      </trkpt>
      <trkpt lat="45.9133" lon="4.76643">
        <ele>230.96086</ele>
        <time>2023-08-05T13:33:25.000Z</time>
      </trkpt>
      <trkpt lat="45.91332" lon="4.76637">
        <ele>231.06314</ele>
        <time>2023-08-05T13:33:26.000Z</time>
      </trkpt>
      <trkpt lat="45.91333" lon="4.76632">
        <ele>231.14145</ele>
        <time>2023-08-05T13:33:27.000Z</time>
      </trkpt>
      <trkpt lat="45.91334" lon="4.76626">
        <ele>231.25479</ele>
        <time>2023-08-05T13:33:28.000Z</time>
      </trkpt>
      <trkpt lat="45.91334" lon="4.7662">
        <ele>231.34949</ele>
        <time>2023-08-05T13:33:29.000Z</time>
      </trkpt>
      <trkpt lat="45.91334" lon="4.76614">
        <ele>231.38208</ele>
        <time>2023-08-05T13:33:30.000Z</time>
      </trkpt>
      <trkpt lat="45.91334" lon="4.76608">
        <ele>231.45529</ele>
        <time>2023-08-05T13:33:31.000Z</time>
      </trkpt>
      <trkpt lat="45.91335" lon="4.76601">
        <ele>231.5667</ele>
        <time>2023-08-05T13:33:32.000Z</time>
      </trkpt>
      <trkpt lat="45.91335" lon="4.76595">
        <ele>231.63486</ele>
        <time>2023-08-05T13:33:33.000Z</time>
      </trkpt>
      <trkpt lat="45.91336" lon="4.76588">
        <ele>231.68721</ele>
        <time>2023-08-05T13:33:34.000Z</time>
      </trkpt>
      <trkpt lat="45.91336" lon="4.76581">
        <ele>231.7498</ele>
        <time>2023-08-05T13:33:35.000Z</time>
      </trkpt>
      <trkpt lat="45.91337" lon="4.76574">
        <ele>231.83725</ele>
        <time>2023-08-05T13:33:36.000Z</time>
      </trkpt>
      <trkpt lat="45.91336" lon="4.76568">
        <ele>231.91145</ele>
        <time>2023-08-05T13:33:37.000Z</time>
      </trkpt>
      <trkpt lat="45.91337" lon="4.76563">
        <ele>232.00546</ele>
        <time>2023-08-05T13:33:38.000Z</time>
      </trkpt>
      <trkpt lat="45.91337" lon="4.76556">
        <ele>232.10147</ele>
        <time>2023-08-05T13:33:39.000Z</time>
      </trkpt>
      <trkpt lat="45.91338" lon="4.76549">
        <ele>232.11926</ele>
        <time>2023-08-05T13:33:40.000Z</time>
      </trkpt>
      <trkpt lat="45.91338" lon="4.76543">
        <ele>232.13608</ele>
        <time>2023-08-05T13:33:41.000Z</time>
      </trkpt>
      <trkpt lat="45.91338" lon="4.76537">
        <ele>232.16187</ele>
        <time>2023-08-05T13:33:42.000Z</time>
      </trkpt>
      <trkpt lat="45.91338" lon="4.7653">
        <ele>232.23105</ele>
        <time>2023-08-05T13:33:43.000Z</time>
      </trkpt>
      <trkpt lat="45.91339" lon="4.76523">
        <ele>232.33208</ele>
        <time>2023-08-05T13:33:44.000Z</time>
      </trkpt>
      <trkpt lat="45.91338" lon="4.76517">
        <ele>232.35635</ele>
        <time>2023-08-05T13:33:45.000Z</time>
      </trkpt>
      <trkpt lat="45.91338" lon="4.7651">
        <ele>232.36983</ele>
        <time>2023-08-05T13:33:46.000Z</time>
      </trkpt>
      <trkpt lat="45.91338" lon="4.76504">
        <ele>232.41133</ele>
        <time>2023-08-05T13:33:47.000Z</time>
      </trkpt>
      <trkpt lat="45.91339" lon="4.76497">
        <ele>232.40747</ele>
        <time>2023-08-05T13:33:48.000Z</time>
      </trkpt>
      <trkpt lat="45.91338" lon="4.76491">
        <ele>232.40274</ele>
        <time>2023-08-05T13:33:49.000Z</time>
      </trkpt>
      <trkpt lat="45.91338" lon="4.76484">
        <ele>232.472</ele>
        <time>2023-08-05T13:33:50.000Z</time>
      </trkpt>
      <trkpt lat="45.91338" lon="4.76478">
        <ele>232.48074</ele>
        <time>2023-08-05T13:33:51.000Z</time>
      </trkpt>
      <trkpt lat="45.91338" lon="4.76472">
        <ele>232.44507</ele>
        <time>2023-08-05T13:33:52.000Z</time>
      </trkpt>
      <trkpt lat="45.91338" lon="4.76465">
        <ele>232.46602</ele>
        <time>2023-08-05T13:33:53.000Z</time>
      </trkpt>
      <trkpt lat="45.91338" lon="4.76459">
        <ele>232.51221</ele>
        <time>2023-08-05T13:33:54.000Z</time>
      </trkpt>
      <trkpt lat="45.91339" lon="4.76453">
        <ele>232.58774</ele>
        <time>2023-08-05T13:33:55.000Z</time>
      </trkpt>
      <trkpt lat="45.91339" lon="4.76446">
        <ele>232.65945</ele>
        <time>2023-08-05T13:33:56.000Z</time>
      </trkpt>
      <trkpt lat="45.91339" lon="4.7644">
        <ele>232.71689</ele>
        <time>2023-08-05T13:33:57.000Z</time>
      </trkpt>
      <trkpt lat="45.91339" lon="4.76434">
        <ele>232.67017</ele>
        <time>2023-08-05T13:33:58.000Z</time>
      </trkpt>
      <trkpt lat="45.91338" lon="4.76426">
        <ele>232.6423</ele>
        <time>2023-08-05T13:33:59.000Z</time>
      </trkpt>
      <trkpt lat="45.91338" lon="4.76419">
        <ele>232.71977</ele>
        <time>2023-08-05T13:34:00.000Z</time>
      </trkpt>
      <trkpt lat="45.91338" lon="4.76412">
        <ele>232.78397</ele>
        <time>2023-08-05T13:34:01.000Z</time>
      </trkpt>
      <trkpt lat="45.91338" lon="4.76405">
        <ele>232.82751</ele>
        <time>2023-08-05T13:34:02.000Z</time>
      </trkpt>
      <trkpt lat="45.91338" lon="4.76397">
        <ele>232.82932</ele>
        <time>2023-08-05T13:34:03.000Z</time>
      </trkpt>
      <trkpt lat="45.91339" lon="4.7639">
        <ele>232.78769</ele>
        <time>2023-08-05T13:34:04.000Z</time>
      </trkpt>
      <trkpt lat="45.9134" lon="4.76382">
        <ele>232.82356</ele>
        <time>2023-08-05T13:34:05.000Z</time>
      </trkpt>
      <trkpt lat="45.9134" lon="4.76375">
        <ele>232.83154</ele>
        <time>2023-08-05T13:34:06.000Z</time>
      </trkpt>
      <trkpt lat="45.91341" lon="4.76369">
        <ele>232.8324</ele>
        <time>2023-08-05T13:34:07.000Z</time>
      </trkpt>
      <trkpt lat="45.91342" lon="4.76361">
        <ele>232.82983</ele>
        <time>2023-08-05T13:34:08.000Z</time>
      </trkpt>
      <trkpt lat="45.91343" lon="4.76353">
        <ele>232.82748</ele>
        <time>2023-08-05T13:34:09.000Z</time>
      </trkpt>
      <trkpt lat="45.91344" lon="4.76345">
        <ele>235.29204</ele>
        <time>2023-08-05T13:34:10.000Z</time>
      </trkpt>
      <trkpt lat="45.91344" lon="4.76338">
        <ele>235.45227</ele>
        <time>2023-08-05T13:34:11.000Z</time>
      </trkpt>
      <trkpt lat="45.91344" lon="4.7633">
        <ele>235.62593</ele>
        <time>2023-08-05T13:34:12.000Z</time>
      </trkpt>
      <trkpt lat="45.91345" lon="4.76322">
        <ele>235.79741</ele>
        <time>2023-08-05T13:34:13.000Z</time>
      </trkpt>
      <trkpt lat="45.91345" lon="4.76314">
        <ele>236.36641</ele>
        <time>2023-08-05T13:34:14.000Z</time>
      </trkpt>
      <trkpt lat="45.91346" lon="4.76307">
        <ele>236.9238</ele>
        <time>2023-08-05T13:34:15.000Z</time>
      </trkpt>
      <trkpt lat="45.91346" lon="4.76299">
        <ele>237.44536</ele>
        <time>2023-08-05T13:34:16.000Z</time>
      </trkpt>
      <trkpt lat="45.91346" lon="4.76291">
        <ele>237.94876</ele>
        <time>2023-08-05T13:34:17.000Z</time>
      </trkpt>
      <trkpt lat="45.91347" lon="4.76284">
        <ele>238.5145</ele>
        <time>2023-08-05T13:34:18.000Z</time>
      </trkpt>
      <trkpt lat="45.91347" lon="4.76278">
        <ele>239.06987</ele>
        <time>2023-08-05T13:34:19.000Z</time>
      </trkpt>
      <trkpt lat="45.91347" lon="4.76272">
        <ele>239.96689</ele>
        <time>2023-08-05T13:34:20.000Z</time>
      </trkpt>
      <trkpt lat="45.91349" lon="4.76268">
        <ele>241.22969</ele>
        <time>2023-08-05T13:34:21.000Z</time>
      </trkpt>
      <trkpt lat="45.91352" lon="4.76266">
        <ele>241.63712</ele>
        <time>2023-08-05T13:34:22.000Z</time>
      </trkpt>
      <trkpt lat="45.91355" lon="4.76267">
        <ele>242.07072</ele>
        <time>2023-08-05T13:34:23.000Z</time>
      </trkpt>
      <trkpt lat="45.91358" lon="4.76268">
        <ele>242.53926</ele>
        <time>2023-08-05T13:34:24.000Z</time>
      </trkpt>
      <trkpt lat="45.91362" lon="4.76269">
        <ele>243.02682</ele>
        <time>2023-08-05T13:34:25.000Z</time>
      </trkpt>
      <trkpt lat="45.91365" lon="4.7627">
        <ele>243.53699</ele>
        <time>2023-08-05T13:34:26.000Z</time>
      </trkpt>
      <trkpt lat="45.91369" lon="4.7627">
        <ele>246.82788</ele>
        <time>2023-08-05T13:34:27.000Z</time>
      </trkpt>
      <trkpt lat="45.91373" lon="4.76271">
        <ele>247.52763</ele>
        <time>2023-08-05T13:34:28.000Z</time>
      </trkpt>
      <trkpt lat="45.91377" lon="4.76272">
        <ele>248.26253</ele>
        <time>2023-08-05T13:34:29.000Z</time>
      </trkpt>
      <trkpt lat="45.91381" lon="4.76274">
        <ele>246.56418</ele>
        <time>2023-08-05T13:34:30.000Z</time>
      </trkpt>
      <trkpt lat="45.91386" lon="4.76275">
        <ele>247.12778</ele>
        <time>2023-08-05T13:34:31.000Z</time>
      </trkpt>
      <trkpt lat="45.9139" lon="4.76277">
        <ele>248.71098</ele>
        <time>2023-08-05T13:34:32.000Z</time>
      </trkpt>
      <trkpt lat="45.91395" lon="4.76278">
        <ele>250.27335</ele>
        <time>2023-08-05T13:34:33.000Z</time>
      </trkpt>
      <trkpt lat="45.91399" lon="4.76279">
        <ele>251.42691</ele>
        <time>2023-08-05T13:34:34.000Z</time>
      </trkpt>
      <trkpt lat="45.91404" lon="4.7628">
        <ele>252.56963</ele>
        <time>2023-08-05T13:34:35.000Z</time>
      </trkpt>
      <trkpt lat="45.91409" lon="4.7628">
        <ele>252.99182</ele>
        <time>2023-08-05T13:34:36.000Z</time>
      </trkpt>
      <trkpt lat="45.91414" lon="4.76281">
        <ele>253.45149</ele>
        <time>2023-08-05T13:34:37.000Z</time>
      </trkpt>
      <trkpt lat="45.91419" lon="4.76283">
        <ele>255.0883</ele>
        <time>2023-08-05T13:34:38.000Z</time>
      </trkpt>
      <trkpt lat="45.91424" lon="4.76285">
        <ele>257.0101</ele>
        <time>2023-08-05T13:34:39.000Z</time>
      </trkpt>
      <trkpt lat="45.91428" lon="4.76285">
        <ele>258.57318</ele>
        <time>2023-08-05T13:34:40.000Z</time>
      </trkpt>
      <trkpt lat="45.91434" lon="4.76287">
        <ele>259.76898</ele>
        <time>2023-08-05T13:34:41.000Z</time>
      </trkpt>
      <trkpt lat="45.91439" lon="4.76288">
        <ele>261.81396</ele>
        <time>2023-08-05T13:34:42.000Z</time>
      </trkpt>
      <trkpt lat="45.91444" lon="4.7629">
        <ele>263.83066</ele>
        <time>2023-08-05T13:34:43.000Z</time>
      </trkpt>
      <trkpt lat="45.9145" lon="4.76291">
        <ele>265.80957</ele>
        <time>2023-08-05T13:34:44.000Z</time>
      </trkpt>
      <trkpt lat="45.91455" lon="4.76292">
        <ele>267.87286</ele>
        <time>2023-08-05T13:34:45.000Z</time>
      </trkpt>
      <trkpt lat="45.9146" lon="4.76293">
        <ele>269.87274</ele>
        <time>2023-08-05T13:34:46.000Z</time>
      </trkpt>
      <trkpt lat="45.91465" lon="4.76294">
        <ele>268.4339</ele>
        <time>2023-08-05T13:34:47.000Z</time>
      </trkpt>
      <trkpt lat="45.9147" lon="4.76295">
        <ele>269.51422</ele>
        <time>2023-08-05T13:34:48.000Z</time>
      </trkpt>
      <trkpt lat="45.91475" lon="4.76296">
        <ele>270.61356</ele>
        <time>2023-08-05T13:34:49.000Z</time>
      </trkpt>
      <trkpt lat="45.9148" lon="4.76296">
        <ele>271.73111</ele>
        <time>2023-08-05T13:34:50.000Z</time>
      </trkpt>
      <trkpt lat="45.91484" lon="4.76297">
        <ele>272.98944</ele>
        <time>2023-08-05T13:34:51.000Z</time>
      </trkpt>
      <trkpt lat="45.9149" lon="4.76298">
        <ele>271.28458</ele>
        <time>2023-08-05T13:34:52.000Z</time>
      </trkpt>
      <trkpt lat="45.91495" lon="4.763">
        <ele>271.50516</ele>
        <time>2023-08-05T13:34:53.000Z</time>
      </trkpt>
      <trkpt lat="45.915" lon="4.76301">
        <ele>271.73712</ele>
        <time>2023-08-05T13:34:54.000Z</time>
      </trkpt>
      <trkpt lat="45.91505" lon="4.76302">
        <ele>271.97318</ele>
        <time>2023-08-05T13:34:55.000Z</time>
      </trkpt>
      <trkpt lat="45.9151" lon="4.76303">
        <ele>272.94333</ele>
        <time>2023-08-05T13:34:56.000Z</time>
      </trkpt>
      <trkpt lat="45.91515" lon="4.76302">
        <ele>273.94092</ele>
        <time>2023-08-05T13:34:57.000Z</time>
      </trkpt>
      <trkpt lat="45.9152" lon="4.76299">
        <ele>272.68643</ele>
        <time>2023-08-05T13:34:58.000Z</time>
      </trkpt>
      <trkpt lat="45.91524" lon="4.76294">
        <ele>271.50815</ele>
        <time>2023-08-05T13:34:59.000Z</time>
      </trkpt>
      <trkpt lat="45.91528" lon="4.76289">
        <ele>270.32684</ele>
        <time>2023-08-05T13:35:00.000Z</time>
      </trkpt>
      <trkpt lat="45.91531" lon="4.76283">
        <ele>269.15936</ele>
        <time>2023-08-05T13:35:01.000Z</time>
      </trkpt>
      <trkpt lat="45.91534" lon="4.76278">
        <ele>268.00098</ele>
        <time>2023-08-05T13:35:02.000Z</time>
      </trkpt>
      <trkpt lat="45.91536" lon="4.76273">
        <ele>266.86743</ele>
        <time>2023-08-05T13:35:03.000Z</time>
      </trkpt>
      <trkpt lat="45.91538" lon="4.7627">
        <ele>265.742</ele>
        <time>2023-08-05T13:35:04.000Z</time>
      </trkpt>
      <trkpt lat="45.9154" lon="4.76266">
        <ele>264.52649</ele>
        <time>2023-08-05T13:35:05.000Z</time>
      </trkpt>
      <trkpt lat="45.91542" lon="4.76263">
        <ele>262.10651</ele>
        <time>2023-08-05T13:35:06.000Z</time>
      </trkpt>
      <trkpt lat="45.91543" lon="4.7626">
        <ele>260.3045</ele>
        <time>2023-08-05T13:35:07.000Z</time>
      </trkpt>
      <trkpt lat="45.91545" lon="4.76258">
        <ele>258.56503</ele>
        <time>2023-08-05T13:35:08.000Z</time>
      </trkpt>
      <trkpt lat="45.91547" lon="4.76255">
        <ele>256.78192</ele>
        <time>2023-08-05T13:35:09.000Z</time>
      </trkpt>
      <trkpt lat="45.91548" lon="4.76253">
        <ele>254.96835</ele>
        <time>2023-08-05T13:35:10.000Z</time>
      </trkpt>
      <trkpt lat="45.9155" lon="4.7625">
        <ele>252.98465</ele>
        <time>2023-08-05T13:35:12.000Z</time>
      </trkpt>
      <trkpt lat="45.91551" lon="4.76246">
        <ele>252.9482</ele>
        <time>2023-08-05T13:35:14.000Z</time>
      </trkpt>
      <trkpt lat="45.91549" lon="4.76243">
        <ele>251.01941</ele>
        <time>2023-08-05T13:35:16.000Z</time>
      </trkpt>
      <trkpt lat="45.91547" lon="4.76246">
        <ele>249.10983</ele>
        <time>2023-08-05T13:35:18.000Z</time>
      </trkpt>
      <trkpt lat="45.91546" lon="4.7625">
        <ele>247.19759</ele>
        <time>2023-08-05T13:35:19.000Z</time>
      </trkpt>
      <trkpt lat="45.91546" lon="4.76254">
        <ele>245.28032</ele>
        <time>2023-08-05T13:35:20.000Z</time>
      </trkpt>
      <trkpt lat="45.91545" lon="4.76258">
        <ele>243.36836</ele>
        <time>2023-08-05T13:35:21.000Z</time>
      </trkpt>
      <trkpt lat="45.91543" lon="4.76262">
        <ele>242.50337</ele>
        <time>2023-08-05T13:35:22.000Z</time>
      </trkpt>
      <trkpt lat="45.91541" lon="4.76266">
        <ele>241.30806</ele>
        <time>2023-08-05T13:35:23.000Z</time>
      </trkpt>
      <trkpt lat="45.91539" lon="4.7627">
        <ele>240.12888</ele>
        <time>2023-08-05T13:35:24.000Z</time>
      </trkpt>
      <trkpt lat="45.91537" lon="4.76274">
        <ele>238.92476</ele>
        <time>2023-08-05T13:35:25.000Z</time>
      </trkpt>
      <trkpt lat="45.91535" lon="4.76277">
        <ele>237.9229</ele>
        <time>2023-08-05T13:35:26.000Z</time>
      </trkpt>
      <trkpt lat="45.91532" lon="4.76281">
        <ele>236.85405</ele>
        <time>2023-08-05T13:35:27.000Z</time>
      </trkpt>
      <trkpt lat="45.91529" lon="4.76286">
        <ele>235.73975</ele>
        <time>2023-08-05T13:35:28.000Z</time>
      </trkpt>
      <trkpt lat="45.91527" lon="4.7629">
        <ele>234.55197</ele>
        <time>2023-08-05T13:35:29.000Z</time>
      </trkpt>
      <trkpt lat="45.91523" lon="4.76295">
        <ele>235.6418</ele>
        <time>2023-08-05T13:35:30.000Z</time>
      </trkpt>
      <trkpt lat="45.9152" lon="4.76298">
        <ele>235.63492</ele>
        <time>2023-08-05T13:35:31.000Z</time>
      </trkpt>
      <trkpt lat="45.91515" lon="4.763">
        <ele>235.65356</ele>
        <time>2023-08-05T13:35:32.000Z</time>
      </trkpt>
      <trkpt lat="45.91511" lon="4.76301">
        <ele>235.66167</ele>
        <time>2023-08-05T13:35:33.000Z</time>
      </trkpt>
      <trkpt lat="45.91506" lon="4.76301">
        <ele>235.64409</ele>
        <time>2023-08-05T13:35:34.000Z</time>
      </trkpt>
      <trkpt lat="45.91502" lon="4.76301">
        <ele>236.29086</ele>
        <time>2023-08-05T13:35:35.000Z</time>
      </trkpt>
      <trkpt lat="45.91498" lon="4.763">
        <ele>236.93774</ele>
        <time>2023-08-05T13:35:36.000Z</time>
      </trkpt>
      <trkpt lat="45.91493" lon="4.76298">
        <ele>236.99976</ele>
        <time>2023-08-05T13:35:37.000Z</time>
      </trkpt>
      <trkpt lat="45.91488" lon="4.76297">
        <ele>237.02664</ele>
        <time>2023-08-05T13:35:38.000Z</time>
      </trkpt>
      <trkpt lat="45.91484" lon="4.76296">
        <ele>237.04922</ele>
        <time>2023-08-05T13:35:39.000Z</time>
      </trkpt>
      <trkpt lat="45.91479" lon="4.76295">
        <ele>237.09026</ele>
        <time>2023-08-05T13:35:40.000Z</time>
      </trkpt>
      <trkpt lat="45.91475" lon="4.76294">
        <ele>237.07236</ele>
        <time>2023-08-05T13:35:41.000Z</time>
      </trkpt>
      <trkpt lat="45.91471" lon="4.76293">
        <ele>237.07419</ele>
        <time>2023-08-05T13:35:42.000Z</time>
      </trkpt>
      <trkpt lat="45.91466" lon="4.76291">
        <ele>237.0463</ele>
        <time>2023-08-05T13:35:43.000Z</time>
      </trkpt>
      <trkpt lat="45.91462" lon="4.7629">
        <ele>236.99973</ele>
        <time>2023-08-05T13:35:44.000Z</time>
      </trkpt>
      <trkpt lat="45.91457" lon="4.76289">
        <ele>236.96335</ele>
        <time>2023-08-05T13:35:45.000Z</time>
      </trkpt>
      <trkpt lat="45.91452" lon="4.76288">
        <ele>236.75977</ele>
        <time>2023-08-05T13:35:46.000Z</time>
      </trkpt>
      <trkpt lat="45.91447" lon="4.76287">
        <ele>236.61047</ele>
        <time>2023-08-05T13:35:47.000Z</time>
      </trkpt>
      <trkpt lat="45.91443" lon="4.76285">
        <ele>236.45248</ele>
        <time>2023-08-05T13:35:48.000Z</time>
      </trkpt>
      <trkpt lat="45.91437" lon="4.76284">
        <ele>236.37309</ele>
        <time>2023-08-05T13:35:49.000Z</time>
      </trkpt>
      <trkpt lat="45.91432" lon="4.76284">
        <ele>235.24361</ele>
        <time>2023-08-05T13:35:50.000Z</time>
      </trkpt>
      <trkpt lat="45.91428" lon="4.76283">
        <ele>235.24252</ele>
        <time>2023-08-05T13:35:51.000Z</time>
      </trkpt>
      <trkpt lat="45.91423" lon="4.76283">
        <ele>235.22002</ele>
        <time>2023-08-05T13:35:52.000Z</time>
      </trkpt>
      <trkpt lat="45.91418" lon="4.76282">
        <ele>235.1796</ele>
        <time>2023-08-05T13:35:53.000Z</time>
      </trkpt>
      <trkpt lat="45.91413" lon="4.76281">
        <ele>235.12781</ele>
        <time>2023-08-05T13:35:54.000Z</time>
      </trkpt>
      <trkpt lat="45.91408" lon="4.7628">
        <ele>234.52397</ele>
        <time>2023-08-05T13:35:55.000Z</time>
      </trkpt>
      <trkpt lat="45.91403" lon="4.76279">
        <ele>233.9888</ele>
        <time>2023-08-05T13:35:56.000Z</time>
      </trkpt>
      <trkpt lat="45.91398" lon="4.76277">
        <ele>233.99077</ele>
        <time>2023-08-05T13:35:57.000Z</time>
      </trkpt>
      <trkpt lat="45.91393" lon="4.76277">
        <ele>233.99773</ele>
        <time>2023-08-05T13:35:58.000Z</time>
      </trkpt>
      <trkpt lat="45.91388" lon="4.76276">
        <ele>234.00041</ele>
        <time>2023-08-05T13:35:59.000Z</time>
      </trkpt>
      <trkpt lat="45.91383" lon="4.76275">
        <ele>233.978</ele>
        <time>2023-08-05T13:36:00.000Z</time>
      </trkpt>
      <trkpt lat="45.91378" lon="4.76274">
        <ele>236.40259</ele>
        <time>2023-08-05T13:36:01.000Z</time>
      </trkpt>
      <trkpt lat="45.91373" lon="4.76272">
        <ele>236.51973</ele>
        <time>2023-08-05T13:36:02.000Z</time>
      </trkpt>
      <trkpt lat="45.91367" lon="4.76272">
        <ele>236.62888</ele>
        <time>2023-08-05T13:36:03.000Z</time>
      </trkpt>
      <trkpt lat="45.91363" lon="4.76271">
        <ele>236.74834</ele>
        <time>2023-08-05T13:36:04.000Z</time>
      </trkpt>
      <trkpt lat="45.91359" lon="4.76271">
        <ele>236.87149</ele>
        <time>2023-08-05T13:36:05.000Z</time>
      </trkpt>
      <trkpt lat="45.91355" lon="4.76269">
        <ele>237.55159</ele>
        <time>2023-08-05T13:36:06.000Z</time>
      </trkpt>
      <trkpt lat="45.91351" lon="4.76266">
        <ele>238.38113</ele>
        <time>2023-08-05T13:36:07.000Z</time>
      </trkpt>
      <trkpt lat="45.91349" lon="4.76261">
        <ele>238.61548</ele>
        <time>2023-08-05T13:36:08.000Z</time>
      </trkpt>
      <trkpt lat="45.91349" lon="4.76255">
        <ele>238.84018</ele>
        <time>2023-08-05T13:36:09.000Z</time>
      </trkpt>
      <trkpt lat="45.91348" lon="4.76249">
        <ele>239.08054</ele>
        <time>2023-08-05T13:36:10.000Z</time>
      </trkpt>
      <trkpt lat="45.91348" lon="4.76243">
        <ele>240.8127</ele>
        <time>2023-08-05T13:36:11.000Z</time>
      </trkpt>
      <trkpt lat="45.91349" lon="4.76236">
        <ele>241.17493</ele>
        <time>2023-08-05T13:36:12.000Z</time>
      </trkpt>
      <trkpt lat="45.91349" lon="4.7623">
        <ele>241.57339</ele>
        <time>2023-08-05T13:36:13.000Z</time>
      </trkpt>
      <trkpt lat="45.9135" lon="4.76223">
        <ele>242.00427</ele>
        <time>2023-08-05T13:36:14.000Z</time>
      </trkpt>
      <trkpt lat="45.91351" lon="4.76217">
        <ele>242.45874</ele>
        <time>2023-08-05T13:36:15.000Z</time>
      </trkpt>
      <trkpt lat="45.91352" lon="4.76211">
        <ele>242.85547</ele>
        <time>2023-08-05T13:36:16.000Z</time>
      </trkpt>
      <trkpt lat="45.91353" lon="4.76204">
        <ele>243.96484</ele>
        <time>2023-08-05T13:36:17.000Z</time>
      </trkpt>
      <trkpt lat="45.91354" lon="4.76198">
        <ele>245.22212</ele>
        <time>2023-08-05T13:36:18.000Z</time>
      </trkpt>
      <trkpt lat="45.91355" lon="4.76191">
        <ele>246.4749</ele>
        <time>2023-08-05T13:36:19.000Z</time>
      </trkpt>
      <trkpt lat="45.91356" lon="4.76184">
        <ele>247.09863</ele>
        <time>2023-08-05T13:36:20.000Z</time>
      </trkpt>
      <trkpt lat="45.91356" lon="4.76177">
        <ele>245.31168</ele>
        <time>2023-08-05T13:36:21.000Z</time>
      </trkpt>
      <trkpt lat="45.91357" lon="4.7617">
        <ele>245.12485</ele>
        <time>2023-08-05T13:36:22.000Z</time>
      </trkpt>
      <trkpt lat="45.91357" lon="4.76164">
        <ele>244.92058</ele>
        <time>2023-08-05T13:36:23.000Z</time>
      </trkpt>
      <trkpt lat="45.91358" lon="4.76157">
        <ele>244.74886</ele>
        <time>2023-08-05T13:36:24.000Z</time>
      </trkpt>
      <trkpt lat="45.91359" lon="4.76149">
        <ele>244.60556</ele>
        <time>2023-08-05T13:36:25.000Z</time>
      </trkpt>
      <trkpt lat="45.9136" lon="4.76142">
        <ele>243.88266</ele>
        <time>2023-08-05T13:36:26.000Z</time>
      </trkpt>
      <trkpt lat="45.91362" lon="4.76135">
        <ele>242.91147</ele>
        <time>2023-08-05T13:36:27.000Z</time>
      </trkpt>
      <trkpt lat="45.91363" lon="4.76129">
        <ele>242.60188</ele>
        <time>2023-08-05T13:36:28.000Z</time>
      </trkpt>
      <trkpt lat="45.91364" lon="4.76122">
        <ele>242.28842</ele>
        <time>2023-08-05T13:36:29.000Z</time>
      </trkpt>
      <trkpt lat="45.91366" lon="4.76114">
        <ele>241.97722</ele>
        <time>2023-08-05T13:36:30.000Z</time>
      </trkpt>
      <trkpt lat="45.91367" lon="4.76107">
        <ele>240.17758</ele>
        <time>2023-08-05T13:36:31.000Z</time>
      </trkpt>
      <trkpt lat="45.91369" lon="4.76101">
        <ele>239.74197</ele>
        <time>2023-08-05T13:36:32.000Z</time>
      </trkpt>
      <trkpt lat="45.9137" lon="4.76095">
        <ele>239.3645</ele>
        <time>2023-08-05T13:36:33.000Z</time>
      </trkpt>
      <trkpt lat="45.91372" lon="4.76088">
        <ele>239.46394</ele>
        <time>2023-08-05T13:36:34.000Z</time>
      </trkpt>
      <trkpt lat="45.91373" lon="4.76082">
        <ele>239.53787</ele>
        <time>2023-08-05T13:36:35.000Z</time>
      </trkpt>
      <trkpt lat="45.91374" lon="4.76075">
        <ele>239.57561</ele>
        <time>2023-08-05T13:36:36.000Z</time>
      </trkpt>
      <trkpt lat="45.91374" lon="4.7607">
        <ele>238.92757</ele>
        <time>2023-08-05T13:36:37.000Z</time>
      </trkpt>
      <trkpt lat="45.91376" lon="4.76063">
        <ele>238.12692</ele>
        <time>2023-08-05T13:36:38.000Z</time>
      </trkpt>
      <trkpt lat="45.91378" lon="4.76055">
        <ele>237.39929</ele>
        <time>2023-08-05T13:36:39.000Z</time>
      </trkpt>
      <trkpt lat="45.9138" lon="4.76046">
        <ele>237.28867</ele>
        <time>2023-08-05T13:36:40.000Z</time>
      </trkpt>
      <trkpt lat="45.91383" lon="4.76039">
        <ele>237.32956</ele>
        <time>2023-08-05T13:36:41.000Z</time>
      </trkpt>
      <trkpt lat="45.91384" lon="4.76033">
        <ele>237.33765</ele>
        <time>2023-08-05T13:36:42.000Z</time>
      </trkpt>
      <trkpt lat="45.91387" lon="4.76025">
        <ele>237.38708</ele>
        <time>2023-08-05T13:36:43.000Z</time>
      </trkpt>
      <trkpt lat="45.91389" lon="4.76017">
        <ele>237.42526</ele>
        <time>2023-08-05T13:36:44.000Z</time>
      </trkpt>
      <trkpt lat="45.91391" lon="4.7601">
        <ele>237.43538</ele>
        <time>2023-08-05T13:36:45.000Z</time>
      </trkpt>
      <trkpt lat="45.91393" lon="4.76003">
        <ele>237.43896</ele>
        <time>2023-08-05T13:36:46.000Z</time>
      </trkpt>
      <trkpt lat="45.91396" lon="4.75996">
        <ele>238.3407</ele>
        <time>2023-08-05T13:36:47.000Z</time>
      </trkpt>
      <trkpt lat="45.91398" lon="4.75988">
        <ele>239.30489</ele>
        <time>2023-08-05T13:36:48.000Z</time>
      </trkpt>
      <trkpt lat="45.914" lon="4.75981">
        <ele>240.25049</ele>
        <time>2023-08-05T13:36:49.000Z</time>
      </trkpt>
      <trkpt lat="45.91402" lon="4.75974">
        <ele>240.73726</ele>
        <time>2023-08-05T13:36:50.000Z</time>
      </trkpt>
      <trkpt lat="45.91404" lon="4.75967">
        <ele>241.31778</ele>
        <time>2023-08-05T13:36:51.000Z</time>
      </trkpt>
      <trkpt lat="45.91406" lon="4.75959">
        <ele>241.89645</ele>
        <time>2023-08-05T13:36:52.000Z</time>
      </trkpt>
      <trkpt lat="45.91409" lon="4.75953">
        <ele>242.40434</ele>
        <time>2023-08-05T13:36:53.000Z</time>
      </trkpt>
      <trkpt lat="45.91412" lon="4.75946">
        <ele>242.41768</ele>
        <time>2023-08-05T13:36:54.000Z</time>
      </trkpt>
      <trkpt lat="45.91414" lon="4.75939">
        <ele>242.4377</ele>
        <time>2023-08-05T13:36:55.000Z</time>
      </trkpt>
      <trkpt lat="45.91416" lon="4.75933">
        <ele>242.46753</ele>
        <time>2023-08-05T13:36:56.000Z</time>
      </trkpt>
      <trkpt lat="45.91418" lon="4.75926">
        <ele>242.495</ele>
        <time>2023-08-05T13:36:57.000Z</time>
      </trkpt>
      <trkpt lat="45.91421" lon="4.75918">
        <ele>241.95781</ele>
        <time>2023-08-05T13:36:58.000Z</time>
      </trkpt>
      <trkpt lat="45.91422" lon="4.7591">
        <ele>241.33859</ele>
        <time>2023-08-05T13:36:59.000Z</time>
      </trkpt>
      <trkpt lat="45.91425" lon="4.75903">
        <ele>240.72827</ele>
        <time>2023-08-05T13:37:00.000Z</time>
      </trkpt>
      <trkpt lat="45.91426" lon="4.75896">
        <ele>239.93535</ele>
        <time>2023-08-05T13:37:01.000Z</time>
      </trkpt>
      <trkpt lat="45.9143" lon="4.75889">
        <ele>239.90237</ele>
        <time>2023-08-05T13:37:02.000Z</time>
      </trkpt>
      <trkpt lat="45.91431" lon="4.75882">
        <ele>239.82112</ele>
        <time>2023-08-05T13:37:03.000Z</time>
      </trkpt>
      <trkpt lat="45.91434" lon="4.75875">
        <ele>239.73079</ele>
        <time>2023-08-05T13:37:04.000Z</time>
      </trkpt>
      <trkpt lat="45.91437" lon="4.75868">
        <ele>239.6873</ele>
        <time>2023-08-05T13:37:05.000Z</time>
      </trkpt>
      <trkpt lat="45.91439" lon="4.75861">
        <ele>240.16142</ele>
        <time>2023-08-05T13:37:06.000Z</time>
      </trkpt>
      <trkpt lat="45.91441" lon="4.75855">
        <ele>240.04073</ele>
        <time>2023-08-05T13:37:07.000Z</time>
      </trkpt>
      <trkpt lat="45.91443" lon="4.75848">
        <ele>239.86044</ele>
        <time>2023-08-05T13:37:08.000Z</time>
      </trkpt>
      <trkpt lat="45.91445" lon="4.7584">
        <ele>239.84958</ele>
        <time>2023-08-05T13:37:09.000Z</time>
      </trkpt>
      <trkpt lat="45.91446" lon="4.75833">
        <ele>240.3107</ele>
        <time>2023-08-05T13:37:10.000Z</time>
      </trkpt>
      <trkpt lat="45.91447" lon="4.75826">
        <ele>240.23764</ele>
        <time>2023-08-05T13:37:11.000Z</time>
      </trkpt>
      <trkpt lat="45.91448" lon="4.75818">
        <ele>240.26302</ele>
        <time>2023-08-05T13:37:12.000Z</time>
      </trkpt>
      <trkpt lat="45.91449" lon="4.75812">
        <ele>240.27182</ele>
        <time>2023-08-05T13:37:13.000Z</time>
      </trkpt>
      <trkpt lat="45.9145" lon="4.75804">
        <ele>240.26425</ele>
        <time>2023-08-05T13:37:14.000Z</time>
      </trkpt>
      <trkpt lat="45.9145" lon="4.75796">
        <ele>240.26407</ele>
        <time>2023-08-05T13:37:15.000Z</time>
      </trkpt>
      <trkpt lat="45.9145" lon="4.75787">
        <ele>240.27271</ele>
        <time>2023-08-05T13:37:16.000Z</time>
      </trkpt>
      <trkpt lat="45.9145" lon="4.7578">
        <ele>240.2916</ele>
        <time>2023-08-05T13:37:17.000Z</time>
      </trkpt>
      <trkpt lat="45.91449" lon="4.75772">
        <ele>240.92783</ele>
        <time>2023-08-05T13:37:18.000Z</time>
      </trkpt>
      <trkpt lat="45.91448" lon="4.75765">
        <ele>241.53366</ele>
        <time>2023-08-05T13:37:19.000Z</time>
      </trkpt>
      <trkpt lat="45.91448" lon="4.75758">
        <ele>242.14734</ele>
        <time>2023-08-05T13:37:20.000Z</time>
      </trkpt>
      <trkpt lat="45.91447" lon="4.7575">
        <ele>242.77348</ele>
        <time>2023-08-05T13:37:21.000Z</time>
      </trkpt>
      <trkpt lat="45.91446" lon="4.75742">
        <ele>243.37141</ele>
        <time>2023-08-05T13:37:22.000Z</time>
      </trkpt>
      <trkpt lat="45.91445" lon="4.75734">
        <ele>243.9838</ele>
        <time>2023-08-05T13:37:23.000Z</time>
      </trkpt>
      <trkpt lat="45.91443" lon="4.75726">
        <ele>244.57693</ele>
        <time>2023-08-05T13:37:24.000Z</time>
      </trkpt>
      <trkpt lat="45.91442" lon="4.75718">
        <ele>245.49065</ele>
        <time>2023-08-05T13:37:25.000Z</time>
      </trkpt>
      <trkpt lat="45.91441" lon="4.7571">
        <ele>245.10123</ele>
        <time>2023-08-05T13:37:26.000Z</time>
      </trkpt>
      <trkpt lat="45.91439" lon="4.75701">
        <ele>244.50371</ele>
        <time>2023-08-05T13:37:27.000Z</time>
      </trkpt>
      <trkpt lat="45.91437" lon="4.75693">
        <ele>243.89009</ele>
        <time>2023-08-05T13:37:28.000Z</time>
      </trkpt>
      <trkpt lat="45.91436" lon="4.75685">
        <ele>243.10933</ele>
        <time>2023-08-05T13:37:29.000Z</time>
      </trkpt>
      <trkpt lat="45.91434" lon="4.75676">
        <ele>242.33765</ele>
        <time>2023-08-05T13:37:30.000Z</time>
      </trkpt>
      <trkpt lat="45.91433" lon="4.75668">
        <ele>242.02048</ele>
        <time>2023-08-05T13:37:31.000Z</time>
      </trkpt>
      <trkpt lat="45.91432" lon="4.75659">
        <ele>241.61491</ele>
        <time>2023-08-05T13:37:32.000Z</time>
      </trkpt>
      <trkpt lat="45.9143" lon="4.75651">
        <ele>241.23056</ele>
        <time>2023-08-05T13:37:33.000Z</time>
      </trkpt>
      <trkpt lat="45.91429" lon="4.75642">
        <ele>240.85674</ele>
        <time>2023-08-05T13:37:34.000Z</time>
      </trkpt>
      <trkpt lat="45.91429" lon="4.75633">
        <ele>240.5679</ele>
        <time>2023-08-05T13:37:35.000Z</time>
      </trkpt>
      <trkpt lat="45.91428" lon="4.75625">
        <ele>240.25986</ele>
        <time>2023-08-05T13:37:36.000Z</time>
      </trkpt>
      <trkpt lat="45.91427" lon="4.75617">
        <ele>239.95462</ele>
        <time>2023-08-05T13:37:37.000Z</time>
      </trkpt>
      <trkpt lat="45.91427" lon="4.75608">
        <ele>239.61284</ele>
        <time>2023-08-05T13:37:38.000Z</time>
      </trkpt>
      <trkpt lat="45.91426" lon="4.75599">
        <ele>239.31494</ele>
        <time>2023-08-05T13:37:39.000Z</time>
      </trkpt>
      <trkpt lat="45.91425" lon="4.75591">
        <ele>239.01831</ele>
        <time>2023-08-05T13:37:40.000Z</time>
      </trkpt>
      <trkpt lat="45.91425" lon="4.75583">
        <ele>238.7186</ele>
        <time>2023-08-05T13:37:41.000Z</time>
      </trkpt>
      <trkpt lat="45.91424" lon="4.75574">
        <ele>238.43819</ele>
        <time>2023-08-05T13:37:42.000Z</time>
      </trkpt>
      <trkpt lat="45.91424" lon="4.75565">
        <ele>238.16019</ele>
        <time>2023-08-05T13:37:43.000Z</time>
      </trkpt>
      <trkpt lat="45.91424" lon="4.75556">
        <ele>237.88066</ele>
        <time>2023-08-05T13:37:44.000Z</time>
      </trkpt>
      <trkpt lat="45.91424" lon="4.75547">
        <ele>237.23624</ele>
        <time>2023-08-05T13:37:45.000Z</time>
      </trkpt>
      <trkpt lat="45.91423" lon="4.75539">
        <ele>237.38838</ele>
        <time>2023-08-05T13:37:46.000Z</time>
      </trkpt>
      <trkpt lat="45.91422" lon="4.7553">
        <ele>237.60342</ele>
        <time>2023-08-05T13:37:47.000Z</time>
      </trkpt>
      <trkpt lat="45.91421" lon="4.75521">
        <ele>237.63901</ele>
        <time>2023-08-05T13:37:48.000Z</time>
      </trkpt>
      <trkpt lat="45.9142" lon="4.75512">
        <ele>237.72119</ele>
        <time>2023-08-05T13:37:49.000Z</time>
      </trkpt>
      <trkpt lat="45.9142" lon="4.75503">
        <ele>237.78157</ele>
        <time>2023-08-05T13:37:50.000Z</time>
      </trkpt>
      <trkpt lat="45.9142" lon="4.75493">
        <ele>237.82275</ele>
        <time>2023-08-05T13:37:51.000Z</time>
      </trkpt>
      <trkpt lat="45.9142" lon="4.75484">
        <ele>237.86975</ele>
        <time>2023-08-05T13:37:52.000Z</time>
      </trkpt>
      <trkpt lat="45.91419" lon="4.75475">
        <ele>237.92085</ele>
        <time>2023-08-05T13:37:53.000Z</time>
      </trkpt>
      <trkpt lat="45.91418" lon="4.75466">
        <ele>237.96725</ele>
        <time>2023-08-05T13:37:54.000Z</time>
      </trkpt>
      <trkpt lat="45.91417" lon="4.75457">
        <ele>237.91219</ele>
        <time>2023-08-05T13:37:55.000Z</time>
      </trkpt>
      <trkpt lat="45.91416" lon="4.75448">
        <ele>237.86246</ele>
        <time>2023-08-05T13:37:56.000Z</time>
      </trkpt>
      <trkpt lat="45.91414" lon="4.75439">
        <ele>237.7812</ele>
        <time>2023-08-05T13:37:57.000Z</time>
      </trkpt>
      <trkpt lat="45.91413" lon="4.7543">
        <ele>237.67361</ele>
        <time>2023-08-05T13:37:58.000Z</time>
      </trkpt>
      <trkpt lat="45.91411" lon="4.75421">
        <ele>237.56595</ele>
        <time>2023-08-05T13:37:59.000Z</time>
      </trkpt>
      <trkpt lat="45.91408" lon="4.75413">
        <ele>237.45377</ele>
        <time>2023-08-05T13:38:00.000Z</time>
      </trkpt>
      <trkpt lat="45.91405" lon="4.75405">
        <ele>237.32553</ele>
        <time>2023-08-05T13:38:01.000Z</time>
      </trkpt>
      <trkpt lat="45.91402" lon="4.75397">
        <ele>237.20105</ele>
        <time>2023-08-05T13:38:02.000Z</time>
      </trkpt>
      <trkpt lat="45.91399" lon="4.75389">
        <ele>237.07861</ele>
        <time>2023-08-05T13:38:03.000Z</time>
      </trkpt>
      <trkpt lat="45.91397" lon="4.75381">
        <ele>236.96025</ele>
        <time>2023-08-05T13:38:04.000Z</time>
      </trkpt>
      <trkpt lat="45.91395" lon="4.75373">
        <ele>236.83768</ele>
        <time>2023-08-05T13:38:05.000Z</time>
      </trkpt>
      <trkpt lat="45.91393" lon="4.75366">
        <ele>236.70747</ele>
        <time>2023-08-05T13:38:06.000Z</time>
      </trkpt>
      <trkpt lat="45.91392" lon="4.75358">
        <ele>236.65677</ele>
        <time>2023-08-05T13:38:07.000Z</time>
      </trkpt>
      <trkpt lat="45.91391" lon="4.75351">
        <ele>236.47415</ele>
        <time>2023-08-05T13:38:08.000Z</time>
      </trkpt>
      <trkpt lat="45.9139" lon="4.75344">
        <ele>236.25606</ele>
        <time>2023-08-05T13:38:09.000Z</time>
      </trkpt>
      <trkpt lat="45.91388" lon="4.75338">
        <ele>236.03398</ele>
        <time>2023-08-05T13:38:10.000Z</time>
      </trkpt>
      <trkpt lat="45.91384" lon="4.75333">
        <ele>235.82381</ele>
        <time>2023-08-05T13:38:11.000Z</time>
      </trkpt>
      <trkpt lat="45.9138" lon="4.75328">
        <ele>235.61771</ele>
        <time>2023-08-05T13:38:12.000Z</time>
      </trkpt>
      <trkpt lat="45.91378" lon="4.75323">
        <ele>235.40572</ele>
        <time>2023-08-05T13:38:13.000Z</time>
      </trkpt>
      <trkpt lat="45.91375" lon="4.75316">
        <ele>235.20923</ele>
        <time>2023-08-05T13:38:14.000Z</time>
      </trkpt>
      <trkpt lat="45.91372" lon="4.7531">
        <ele>235.02461</ele>
        <time>2023-08-05T13:38:15.000Z</time>
      </trkpt>
      <trkpt lat="45.91369" lon="4.75304">
        <ele>234.84531</ele>
        <time>2023-08-05T13:38:16.000Z</time>
      </trkpt>
      <trkpt lat="45.91366" lon="4.75297">
        <ele>234.68364</ele>
        <time>2023-08-05T13:38:17.000Z</time>
      </trkpt>
      <trkpt lat="45.91364" lon="4.75289">
        <ele>234.53462</ele>
        <time>2023-08-05T13:38:18.000Z</time>
      </trkpt>
      <trkpt lat="45.91362" lon="4.75282">
        <ele>234.38858</ele>
        <time>2023-08-05T13:38:19.000Z</time>
      </trkpt>
      <trkpt lat="45.91359" lon="4.75276">
        <ele>234.125</ele>
        <time>2023-08-05T13:38:20.000Z</time>
      </trkpt>
      <trkpt lat="45.91357" lon="4.7527">
        <ele>233.85857</ele>
        <time>2023-08-05T13:38:21.000Z</time>
      </trkpt>
      <trkpt lat="45.91354" lon="4.75263">
        <ele>233.60376</ele>
        <time>2023-08-05T13:38:22.000Z</time>
      </trkpt>
      <trkpt lat="45.91351" lon="4.75256">
        <ele>233.34004</ele>
        <time>2023-08-05T13:38:23.000Z</time>
      </trkpt>
      <trkpt lat="45.91348" lon="4.7525">
        <ele>233.08591</ele>
        <time>2023-08-05T13:38:24.000Z</time>
      </trkpt>
      <trkpt lat="45.91346" lon="4.75243">
        <ele>232.82561</ele>
        <time>2023-08-05T13:38:25.000Z</time>
      </trkpt>
      <trkpt lat="45.91343" lon="4.75237">
        <ele>232.52937</ele>
        <time>2023-08-05T13:38:26.000Z</time>
      </trkpt>
      <trkpt lat="45.9134" lon="4.7523">
        <ele>232.10896</ele>
        <time>2023-08-05T13:38:27.000Z</time>
      </trkpt>
      <trkpt lat="45.91337" lon="4.75223">
        <ele>232.00586</ele>
        <time>2023-08-05T13:38:28.000Z</time>
      </trkpt>
      <trkpt lat="45.91333" lon="4.75217">
        <ele>231.90527</ele>
        <time>2023-08-05T13:38:29.000Z</time>
      </trkpt>
      <trkpt lat="45.9133" lon="4.7521">
        <ele>231.80258</ele>
        <time>2023-08-05T13:38:30.000Z</time>
      </trkpt>
      <trkpt lat="45.91327" lon="4.75203">
        <ele>231.70178</ele>
        <time>2023-08-05T13:38:31.000Z</time>
      </trkpt>
      <trkpt lat="45.91324" lon="4.75196">
        <ele>231.58923</ele>
        <time>2023-08-05T13:38:32.000Z</time>
      </trkpt>
      <trkpt lat="45.91321" lon="4.75189">
        <ele>231.46066</ele>
        <time>2023-08-05T13:38:33.000Z</time>
      </trkpt>
      <trkpt lat="45.91318" lon="4.75182">
        <ele>231.31184</ele>
        <time>2023-08-05T13:38:34.000Z</time>
      </trkpt>
      <trkpt lat="45.91316" lon="4.75175">
        <ele>231.67383</ele>
        <time>2023-08-05T13:38:35.000Z</time>
      </trkpt>
      <trkpt lat="45.91313" lon="4.75167">
        <ele>232.02702</ele>
        <time>2023-08-05T13:38:36.000Z</time>
      </trkpt>
      <trkpt lat="45.91312" lon="4.75159">
        <ele>232.38419</ele>
        <time>2023-08-05T13:38:37.000Z</time>
      </trkpt>
      <trkpt lat="45.9131" lon="4.7515">
        <ele>232.4229</ele>
        <time>2023-08-05T13:38:38.000Z</time>
      </trkpt>
      <trkpt lat="45.91308" lon="4.75142">
        <ele>232.46158</ele>
        <time>2023-08-05T13:38:39.000Z</time>
      </trkpt>
      <trkpt lat="45.91306" lon="4.75134">
        <ele>232.61258</ele>
        <time>2023-08-05T13:38:40.000Z</time>
      </trkpt>
      <trkpt lat="45.91305" lon="4.75126">
        <ele>232.6217</ele>
        <time>2023-08-05T13:38:41.000Z</time>
      </trkpt>
      <trkpt lat="45.91304" lon="4.75118">
        <ele>232.62578</ele>
        <time>2023-08-05T13:38:42.000Z</time>
      </trkpt>
      <trkpt lat="45.91302" lon="4.7511">
        <ele>232.62263</ele>
        <time>2023-08-05T13:38:43.000Z</time>
      </trkpt>
      <trkpt lat="45.91302" lon="4.75102">
        <ele>232.60262</ele>
        <time>2023-08-05T13:38:44.000Z</time>
      </trkpt>
      <trkpt lat="45.91301" lon="4.75094">
        <ele>232.58272</ele>
        <time>2023-08-05T13:38:45.000Z</time>
      </trkpt>
      <trkpt lat="45.913" lon="4.75086">
        <ele>232.59685</ele>
        <time>2023-08-05T13:38:46.000Z</time>
      </trkpt>
      <trkpt lat="45.913" lon="4.75078">
        <ele>232.59505</ele>
        <time>2023-08-05T13:38:47.000Z</time>
      </trkpt>
      <trkpt lat="45.91299" lon="4.7507">
        <ele>232.6011</ele>
        <time>2023-08-05T13:38:48.000Z</time>
      </trkpt>
      <trkpt lat="45.91298" lon="4.75062">
        <ele>232.59464</ele>
        <time>2023-08-05T13:38:49.000Z</time>
      </trkpt>
      <trkpt lat="45.91298" lon="4.75054">
        <ele>232.58249</ele>
        <time>2023-08-05T13:38:50.000Z</time>
      </trkpt>
      <trkpt lat="45.91299" lon="4.75046">
        <ele>232.57764</ele>
        <time>2023-08-05T13:38:51.000Z</time>
      </trkpt>
      <trkpt lat="45.91299" lon="4.75038">
        <ele>232.58904</ele>
        <time>2023-08-05T13:38:52.000Z</time>
      </trkpt>
      <trkpt lat="45.91299" lon="4.75031">
        <ele>232.60403</ele>
        <time>2023-08-05T13:38:53.000Z</time>
      </trkpt>
      <trkpt lat="45.91299" lon="4.75024">
        <ele>232.62398</ele>
        <time>2023-08-05T13:38:54.000Z</time>
      </trkpt>
      <trkpt lat="45.91299" lon="4.75019">
        <ele>232.13896</ele>
        <time>2023-08-05T13:38:55.000Z</time>
      </trkpt>
      <trkpt lat="45.91299" lon="4.75013">
        <ele>231.66922</ele>
        <time>2023-08-05T13:38:56.000Z</time>
      </trkpt>
      <trkpt lat="45.91299" lon="4.75007">
        <ele>231.18741</ele>
        <time>2023-08-05T13:38:57.000Z</time>
      </trkpt>
      <trkpt lat="45.913" lon="4.75002">
        <ele>230.99565</ele>
        <time>2023-08-05T13:38:58.000Z</time>
      </trkpt>
      <trkpt lat="45.91301" lon="4.74994">
        <ele>230.85522</ele>
        <time>2023-08-05T13:38:59.000Z</time>
      </trkpt>
      <trkpt lat="45.91302" lon="4.74987">
        <ele>230.75435</ele>
        <time>2023-08-05T13:39:00.000Z</time>
      </trkpt>
      <trkpt lat="45.91303" lon="4.74979">
        <ele>230.80457</ele>
        <time>2023-08-05T13:39:01.000Z</time>
      </trkpt>
      <trkpt lat="45.91304" lon="4.74971">
        <ele>230.82922</ele>
        <time>2023-08-05T13:39:02.000Z</time>
      </trkpt>
      <trkpt lat="45.91304" lon="4.74963">
        <ele>230.85966</ele>
        <time>2023-08-05T13:39:03.000Z</time>
      </trkpt>
      <trkpt lat="45.91306" lon="4.74955">
        <ele>230.77417</ele>
        <time>2023-08-05T13:39:04.000Z</time>
      </trkpt>
      <trkpt lat="45.91307" lon="4.74947">
        <ele>230.6821</ele>
        <time>2023-08-05T13:39:05.000Z</time>
      </trkpt>
      <trkpt lat="45.91308" lon="4.74938">
        <ele>230.59282</ele>
        <time>2023-08-05T13:39:06.000Z</time>
      </trkpt>
      <trkpt lat="45.9131" lon="4.7493">
        <ele>230.51176</ele>
        <time>2023-08-05T13:39:07.000Z</time>
      </trkpt>
      <trkpt lat="45.9131" lon="4.74921">
        <ele>230.43967</ele>
        <time>2023-08-05T13:39:08.000Z</time>
      </trkpt>
      <trkpt lat="45.91311" lon="4.74912">
        <ele>230.38669</ele>
        <time>2023-08-05T13:39:09.000Z</time>
      </trkpt>
      <trkpt lat="45.91312" lon="4.74904">
        <ele>230.33948</ele>
        <time>2023-08-05T13:39:10.000Z</time>
      </trkpt>
      <trkpt lat="45.91313" lon="4.74896">
        <ele>230.29028</ele>
        <time>2023-08-05T13:39:11.000Z</time>
      </trkpt>
      <trkpt lat="45.91314" lon="4.7489">
        <ele>230.24109</ele>
        <time>2023-08-05T13:39:12.000Z</time>
      </trkpt>
      <trkpt lat="45.91317" lon="4.74885">
        <ele>230.21677</ele>
        <time>2023-08-05T13:39:13.000Z</time>
      </trkpt>
      <trkpt lat="45.91322" lon="4.74883">
        <ele>230.21049</ele>
        <time>2023-08-05T13:39:14.000Z</time>
      </trkpt>
      <trkpt lat="45.91327" lon="4.74883">
        <ele>230.16374</ele>
        <time>2023-08-05T13:39:15.000Z</time>
      </trkpt>
      <trkpt lat="45.91333" lon="4.74884">
        <ele>230.08957</ele>
        <time>2023-08-05T13:39:16.000Z</time>
      </trkpt>
      <trkpt lat="45.91338" lon="4.74886">
        <ele>230.04333</ele>
        <time>2023-08-05T13:39:17.000Z</time>
      </trkpt>
      <trkpt lat="45.91343" lon="4.74887">
        <ele>230.04019</ele>
        <time>2023-08-05T13:39:18.000Z</time>
      </trkpt>
      <trkpt lat="45.91348" lon="4.74889">
        <ele>229.97171</ele>
        <time>2023-08-05T13:39:19.000Z</time>
      </trkpt>
      <trkpt lat="45.91353" lon="4.74891">
        <ele>229.86667</ele>
        <time>2023-08-05T13:39:20.000Z</time>
      </trkpt>
      <trkpt lat="45.91358" lon="4.74892">
        <ele>229.80005</ele>
        <time>2023-08-05T13:39:21.000Z</time>
      </trkpt>
      <trkpt lat="45.91363" lon="4.74893">
        <ele>229.82413</ele>
        <time>2023-08-05T13:39:22.000Z</time>
      </trkpt>
      <trkpt lat="45.91368" lon="4.74894">
        <ele>229.85962</ele>
        <time>2023-08-05T13:39:23.000Z</time>
      </trkpt>
      <trkpt lat="45.91373" lon="4.74897">
        <ele>229.91943</ele>
        <time>2023-08-05T13:39:24.000Z</time>
      </trkpt>
      <trkpt lat="45.91377" lon="4.74898">
        <ele>230.02168</ele>
        <time>2023-08-05T13:39:25.000Z</time>
      </trkpt>
      <trkpt lat="45.91382" lon="4.74899">
        <ele>230.12521</ele>
        <time>2023-08-05T13:39:26.000Z</time>
      </trkpt>
      <trkpt lat="45.91388" lon="4.749">
        <ele>230.18246</ele>
        <time>2023-08-05T13:39:27.000Z</time>
      </trkpt>
      <trkpt lat="45.91392" lon="4.74902">
        <ele>230.16191</ele>
        <time>2023-08-05T13:39:28.000Z</time>
      </trkpt>
      <trkpt lat="45.91398" lon="4.74905">
        <ele>230.11543</ele>
        <time>2023-08-05T13:39:29.000Z</time>
      </trkpt>
      <trkpt lat="45.91403" lon="4.74907">
        <ele>230.09819</ele>
        <time>2023-08-05T13:39:30.000Z</time>
      </trkpt>
      <trkpt lat="45.91408" lon="4.74908">
        <ele>230.05225</ele>
        <time>2023-08-05T13:39:31.000Z</time>
      </trkpt>
      <trkpt lat="45.91413" lon="4.74909">
        <ele>230.02144</ele>
        <time>2023-08-05T13:39:32.000Z</time>
      </trkpt>
      <trkpt lat="45.91418" lon="4.7491">
        <ele>229.95757</ele>
        <time>2023-08-05T13:39:33.000Z</time>
      </trkpt>
      <trkpt lat="45.91425" lon="4.74912">
        <ele>229.93814</ele>
        <time>2023-08-05T13:39:34.000Z</time>
      </trkpt>
      <trkpt lat="45.9143" lon="4.74913">
        <ele>229.95114</ele>
        <time>2023-08-05T13:39:35.000Z</time>
      </trkpt>
      <trkpt lat="45.91436" lon="4.74914">
        <ele>229.99422</ele>
        <time>2023-08-05T13:39:36.000Z</time>
      </trkpt>
      <trkpt lat="45.91441" lon="4.74915">
        <ele>230.02534</ele>
        <time>2023-08-05T13:39:37.000Z</time>
      </trkpt>
      <trkpt lat="45.91447" lon="4.74917">
        <ele>230.04488</ele>
        <time>2023-08-05T13:39:38.000Z</time>
      </trkpt>
      <trkpt lat="45.91453" lon="4.74919">
        <ele>230.03195</ele>
        <time>2023-08-05T13:39:39.000Z</time>
      </trkpt>
      <trkpt lat="45.91459" lon="4.74921">
        <ele>230.04716</ele>
        <time>2023-08-05T13:39:40.000Z</time>
      </trkpt>
      <trkpt lat="45.91465" lon="4.74922">
        <ele>230.04622</ele>
        <time>2023-08-05T13:39:41.000Z</time>
      </trkpt>
      <trkpt lat="45.9147" lon="4.74923">
        <ele>229.97141</ele>
        <time>2023-08-05T13:39:42.000Z</time>
      </trkpt>
      <trkpt lat="45.91476" lon="4.74924">
        <ele>229.89632</ele>
        <time>2023-08-05T13:39:43.000Z</time>
      </trkpt>
      <trkpt lat="45.91481" lon="4.74926">
        <ele>229.88789</ele>
        <time>2023-08-05T13:39:44.000Z</time>
      </trkpt>
      <trkpt lat="45.91487" lon="4.74926">
        <ele>229.86006</ele>
        <time>2023-08-05T13:39:45.000Z</time>
      </trkpt>
      <trkpt lat="45.91493" lon="4.74928">
        <ele>229.80557</ele>
        <time>2023-08-05T13:39:46.000Z</time>
      </trkpt>
      <trkpt lat="45.91498" lon="4.74929">
        <ele>229.83249</ele>
        <time>2023-08-05T13:39:47.000Z</time>
      </trkpt>
      <trkpt lat="45.91504" lon="4.7493">
        <ele>229.95158</ele>
        <time>2023-08-05T13:39:48.000Z</time>
      </trkpt>
      <trkpt lat="45.91509" lon="4.74932">
        <ele>229.97583</ele>
        <time>2023-08-05T13:39:49.000Z</time>
      </trkpt>
      <trkpt lat="45.91515" lon="4.74932">
        <ele>229.98946</ele>
        <time>2023-08-05T13:39:50.000Z</time>
      </trkpt>
      <trkpt lat="45.9152" lon="4.74933">
        <ele>230.01907</ele>
        <time>2023-08-05T13:39:51.000Z</time>
      </trkpt>
      <trkpt lat="45.91525" lon="4.74934">
        <ele>230.0596</ele>
        <time>2023-08-05T13:39:52.000Z</time>
      </trkpt>
      <trkpt lat="45.9153" lon="4.74934">
        <ele>230.11621</ele>
        <time>2023-08-05T13:39:53.000Z</time>
      </trkpt>
      <trkpt lat="45.91534" lon="4.74934">
        <ele>230.13728</ele>
        <time>2023-08-05T13:39:54.000Z</time>
      </trkpt>
      <trkpt lat="45.91539" lon="4.74935">
        <ele>230.18326</ele>
        <time>2023-08-05T13:39:55.000Z</time>
      </trkpt>
      <trkpt lat="45.91543" lon="4.74933">
        <ele>230.23079</ele>
        <time>2023-08-05T13:39:56.000Z</time>
      </trkpt>
      <trkpt lat="45.91548" lon="4.74933">
        <ele>230.27896</ele>
        <time>2023-08-05T13:39:57.000Z</time>
      </trkpt>
      <trkpt lat="45.91552" lon="4.74933">
        <ele>230.33162</ele>
        <time>2023-08-05T13:39:58.000Z</time>
      </trkpt>
      <trkpt lat="45.91557" lon="4.74934">
        <ele>230.42749</ele>
        <time>2023-08-05T13:39:59.000Z</time>
      </trkpt>
      <trkpt lat="45.91561" lon="4.74934">
        <ele>230.47966</ele>
        <time>2023-08-05T13:40:00.000Z</time>
      </trkpt>
      <trkpt lat="45.91566" lon="4.74935">
        <ele>230.50044</ele>
        <time>2023-08-05T13:40:01.000Z</time>
      </trkpt>
      <trkpt lat="45.91572" lon="4.74936">
        <ele>230.57097</ele>
        <time>2023-08-05T13:40:02.000Z</time>
      </trkpt>
      <trkpt lat="45.91576" lon="4.74937">
        <ele>230.64844</ele>
        <time>2023-08-05T13:40:03.000Z</time>
      </trkpt>
      <trkpt lat="45.91581" lon="4.74939">
        <ele>230.77095</ele>
        <time>2023-08-05T13:40:04.000Z</time>
      </trkpt>
      <trkpt lat="45.91585" lon="4.74941">
        <ele>230.88921</ele>
        <time>2023-08-05T13:40:05.000Z</time>
      </trkpt>
      <trkpt lat="45.91589" lon="4.74942">
        <ele>231.04428</ele>
        <time>2023-08-05T13:40:06.000Z</time>
      </trkpt>
      <trkpt lat="45.91594" lon="4.74945">
        <ele>231.18686</ele>
        <time>2023-08-05T13:40:07.000Z</time>
      </trkpt>
      <trkpt lat="45.91599" lon="4.74947">
        <ele>231.28714</ele>
        <time>2023-08-05T13:40:08.000Z</time>
      </trkpt>
      <trkpt lat="45.91604" lon="4.74949">
        <ele>231.45149</ele>
        <time>2023-08-05T13:40:09.000Z</time>
      </trkpt>
      <trkpt lat="45.91609" lon="4.74951">
        <ele>231.6405</ele>
        <time>2023-08-05T13:40:10.000Z</time>
      </trkpt>
      <trkpt lat="45.91614" lon="4.74954">
        <ele>231.72446</ele>
        <time>2023-08-05T13:40:11.000Z</time>
      </trkpt>
      <trkpt lat="45.91619" lon="4.74955">
        <ele>231.80057</ele>
        <time>2023-08-05T13:40:12.000Z</time>
      </trkpt>
      <trkpt lat="45.91624" lon="4.74958">
        <ele>231.83195</ele>
        <time>2023-08-05T13:40:13.000Z</time>
      </trkpt>
      <trkpt lat="45.91628" lon="4.74959">
        <ele>231.86636</ele>
        <time>2023-08-05T13:40:14.000Z</time>
      </trkpt>
      <trkpt lat="45.91632" lon="4.74961">
        <ele>231.87061</ele>
        <time>2023-08-05T13:40:15.000Z</time>
      </trkpt>
      <trkpt lat="45.91637" lon="4.74964">
        <ele>231.85371</ele>
        <time>2023-08-05T13:40:16.000Z</time>
      </trkpt>
      <trkpt lat="45.91642" lon="4.74966">
        <ele>231.84436</ele>
        <time>2023-08-05T13:40:17.000Z</time>
      </trkpt>
      <trkpt lat="45.91648" lon="4.74969">
        <ele>231.83325</ele>
        <time>2023-08-05T13:40:18.000Z</time>
      </trkpt>
      <trkpt lat="45.91652" lon="4.7497">
        <ele>231.82637</ele>
        <time>2023-08-05T13:40:19.000Z</time>
      </trkpt>
      <trkpt lat="45.91657" lon="4.74972">
        <ele>231.87634</ele>
        <time>2023-08-05T13:40:20.000Z</time>
      </trkpt>
      <trkpt lat="45.91662" lon="4.74974">
        <ele>231.9454</ele>
        <time>2023-08-05T13:40:21.000Z</time>
      </trkpt>
      <trkpt lat="45.91668" lon="4.74978">
        <ele>231.96098</ele>
        <time>2023-08-05T13:40:22.000Z</time>
      </trkpt>
      <trkpt lat="45.91672" lon="4.74981">
        <ele>231.99109</ele>
        <time>2023-08-05T13:40:23.000Z</time>
      </trkpt>
      <trkpt lat="45.91677" lon="4.74983">
        <ele>231.99133</ele>
        <time>2023-08-05T13:40:24.000Z</time>
      </trkpt>
      <trkpt lat="45.91682" lon="4.74985">
        <ele>231.9897</ele>
        <time>2023-08-05T13:40:25.000Z</time>
      </trkpt>
      <trkpt lat="45.91687" lon="4.74986">
        <ele>231.87622</ele>
        <time>2023-08-05T13:40:26.000Z</time>
      </trkpt>
      <trkpt lat="45.91692" lon="4.74987">
        <ele>231.74956</ele>
        <time>2023-08-05T13:40:27.000Z</time>
      </trkpt>
      <trkpt lat="45.91696" lon="4.74987">
        <ele>231.64006</ele>
        <time>2023-08-05T13:40:28.000Z</time>
      </trkpt>
      <trkpt lat="45.91702" lon="4.74985">
        <ele>231.57585</ele>
        <time>2023-08-05T13:40:29.000Z</time>
      </trkpt>
      <trkpt lat="45.91706" lon="4.74983">
        <ele>231.46553</ele>
        <time>2023-08-05T13:40:30.000Z</time>
      </trkpt>
      <trkpt lat="45.91711" lon="4.74979">
        <ele>231.4751</ele>
        <time>2023-08-05T13:40:31.000Z</time>
      </trkpt>
      <trkpt lat="45.91715" lon="4.74975">
        <ele>231.45442</ele>
        <time>2023-08-05T13:40:32.000Z</time>
      </trkpt>
      <trkpt lat="45.9172" lon="4.7497">
        <ele>231.46704</ele>
        <time>2023-08-05T13:40:33.000Z</time>
      </trkpt>
      <trkpt lat="45.91724" lon="4.74966">
        <ele>231.45615</ele>
        <time>2023-08-05T13:40:34.000Z</time>
      </trkpt>
      <trkpt lat="45.91729" lon="4.74962">
        <ele>231.44189</ele>
        <time>2023-08-05T13:40:35.000Z</time>
      </trkpt>
      <trkpt lat="45.91733" lon="4.74957">
        <ele>231.465</ele>
        <time>2023-08-05T13:40:36.000Z</time>
      </trkpt>
      <trkpt lat="45.91738" lon="4.74952">
        <ele>231.45242</ele>
        <time>2023-08-05T13:40:37.000Z</time>
      </trkpt>
      <trkpt lat="45.91743" lon="4.74948">
        <ele>231.41086</ele>
        <time>2023-08-05T13:40:38.000Z</time>
      </trkpt>
      <trkpt lat="45.91748" lon="4.74942">
        <ele>231.35001</ele>
        <time>2023-08-05T13:40:39.000Z</time>
      </trkpt>
      <trkpt lat="45.91753" lon="4.74937">
        <ele>231.23428</ele>
        <time>2023-08-05T13:40:40.000Z</time>
      </trkpt>
      <trkpt lat="45.91758" lon="4.74932">
        <ele>231.08725</ele>
        <time>2023-08-05T13:40:41.000Z</time>
      </trkpt>
      <trkpt lat="45.91763" lon="4.74925">
        <ele>231.39682</ele>
        <time>2023-08-05T13:40:42.000Z</time>
      </trkpt>
      <trkpt lat="45.91768" lon="4.74918">
        <ele>231.67781</ele>
        <time>2023-08-05T13:40:43.000Z</time>
      </trkpt>
      <trkpt lat="45.91772" lon="4.74911">
        <ele>231.9532</ele>
        <time>2023-08-05T13:40:44.000Z</time>
      </trkpt>
      <trkpt lat="45.91777" lon="4.74902">
        <ele>232.20773</ele>
        <time>2023-08-05T13:40:45.000Z</time>
      </trkpt>
      <trkpt lat="45.91781" lon="4.74894">
        <ele>232.53667</ele>
        <time>2023-08-05T13:40:46.000Z</time>
      </trkpt>
      <trkpt lat="45.91785" lon="4.74885">
        <ele>232.82858</ele>
        <time>2023-08-05T13:40:47.000Z</time>
      </trkpt>
      <trkpt lat="45.9179" lon="4.74876">
        <ele>233.1154</ele>
        <time>2023-08-05T13:40:48.000Z</time>
      </trkpt>
      <trkpt lat="45.91794" lon="4.74867">
        <ele>233.39029</ele>
        <time>2023-08-05T13:40:49.000Z</time>
      </trkpt>
      <trkpt lat="45.91798" lon="4.74858">
        <ele>233.66255</ele>
        <time>2023-08-05T13:40:50.000Z</time>
      </trkpt>
      <trkpt lat="45.91803" lon="4.74849">
        <ele>233.91281</ele>
        <time>2023-08-05T13:40:51.000Z</time>
      </trkpt>
      <trkpt lat="45.91807" lon="4.74841">
        <ele>234.15405</ele>
        <time>2023-08-05T13:40:52.000Z</time>
      </trkpt>
      <trkpt lat="45.91812" lon="4.74832">
        <ele>234.40178</ele>
        <time>2023-08-05T13:40:53.000Z</time>
      </trkpt>
      <trkpt lat="45.91816" lon="4.74825">
        <ele>234.64983</ele>
        <time>2023-08-05T13:40:54.000Z</time>
      </trkpt>
      <trkpt lat="45.91821" lon="4.74817">
        <ele>234.89888</ele>
        <time>2023-08-05T13:40:55.000Z</time>
      </trkpt>
      <trkpt lat="45.91826" lon="4.7481">
        <ele>235.11674</ele>
        <time>2023-08-05T13:40:56.000Z</time>
      </trkpt>
      <trkpt lat="45.9183" lon="4.74803">
        <ele>235.35303</ele>
        <time>2023-08-05T13:40:57.000Z</time>
      </trkpt>
      <trkpt lat="45.91834" lon="4.74796">
        <ele>235.77023</ele>
        <time>2023-08-05T13:40:58.000Z</time>
      </trkpt>
      <trkpt lat="45.91839" lon="4.7479">
        <ele>236.21509</ele>
        <time>2023-08-05T13:40:59.000Z</time>
      </trkpt>
      <trkpt lat="45.91843" lon="4.74783">
        <ele>236.68839</ele>
        <time>2023-08-05T13:41:00.000Z</time>
      </trkpt>
      <trkpt lat="45.91848" lon="4.74777">
        <ele>237.18779</ele>
        <time>2023-08-05T13:41:01.000Z</time>
      </trkpt>
      <trkpt lat="45.91853" lon="4.74772">
        <ele>237.24622</ele>
        <time>2023-08-05T13:41:02.000Z</time>
      </trkpt>
      <trkpt lat="45.91858" lon="4.74767">
        <ele>237.31738</ele>
        <time>2023-08-05T13:41:03.000Z</time>
      </trkpt>
      <trkpt lat="45.91864" lon="4.74765">
        <ele>237.40927</ele>
        <time>2023-08-05T13:41:04.000Z</time>
      </trkpt>
      <trkpt lat="45.9187" lon="4.74764">
        <ele>237.51189</ele>
        <time>2023-08-05T13:41:05.000Z</time>
      </trkpt>
      <trkpt lat="45.91875" lon="4.74765">
        <ele>237.64468</ele>
        <time>2023-08-05T13:41:06.000Z</time>
      </trkpt>
      <trkpt lat="45.91881" lon="4.74767">
        <ele>237.78406</ele>
        <time>2023-08-05T13:41:07.000Z</time>
      </trkpt>
      <trkpt lat="45.91886" lon="4.7477">
        <ele>237.91885</ele>
        <time>2023-08-05T13:41:08.000Z</time>
      </trkpt>
      <trkpt lat="45.91891" lon="4.74774">
        <ele>238.05464</ele>
        <time>2023-08-05T13:41:09.000Z</time>
      </trkpt>
      <trkpt lat="45.91896" lon="4.74778">
        <ele>238.18245</ele>
        <time>2023-08-05T13:41:10.000Z</time>
      </trkpt>
      <trkpt lat="45.91902" lon="4.7478">
        <ele>238.30962</ele>
        <time>2023-08-05T13:41:11.000Z</time>
      </trkpt>
      <trkpt lat="45.91908" lon="4.74783">
        <ele>238.44296</ele>
        <time>2023-08-05T13:41:12.000Z</time>
      </trkpt>
      <trkpt lat="45.91913" lon="4.74785">
        <ele>238.64236</ele>
        <time>2023-08-05T13:41:13.000Z</time>
      </trkpt>
      <trkpt lat="45.91918" lon="4.74788">
        <ele>238.81348</ele>
        <time>2023-08-05T13:41:14.000Z</time>
      </trkpt>
      <trkpt lat="45.91924" lon="4.74792">
        <ele>239.02031</ele>
        <time>2023-08-05T13:41:15.000Z</time>
      </trkpt>
      <trkpt lat="45.91929" lon="4.74795">
        <ele>239.24045</ele>
        <time>2023-08-05T13:41:16.000Z</time>
      </trkpt>
      <trkpt lat="45.91934" lon="4.74798">
        <ele>239.46162</ele>
        <time>2023-08-05T13:41:17.000Z</time>
      </trkpt>
      <trkpt lat="45.91939" lon="4.74801">
        <ele>239.52689</ele>
        <time>2023-08-05T13:41:18.000Z</time>
      </trkpt>
      <trkpt lat="45.91944" lon="4.74804">
        <ele>239.575</ele>
        <time>2023-08-05T13:41:19.000Z</time>
      </trkpt>
      <trkpt lat="45.91949" lon="4.74807">
        <ele>239.58121</ele>
        <time>2023-08-05T13:41:20.000Z</time>
      </trkpt>
      <trkpt lat="45.91955" lon="4.7481">
        <ele>239.57126</ele>
        <time>2023-08-05T13:41:21.000Z</time>
      </trkpt>
      <trkpt lat="45.9196" lon="4.74814">
        <ele>239.57571</ele>
        <time>2023-08-05T13:41:22.000Z</time>
      </trkpt>
      <trkpt lat="45.91965" lon="4.74816">
        <ele>239.57747</ele>
        <time>2023-08-05T13:41:23.000Z</time>
      </trkpt>
      <trkpt lat="45.9197" lon="4.74819">
        <ele>239.56551</ele>
        <time>2023-08-05T13:41:24.000Z</time>
      </trkpt>
      <trkpt lat="45.91975" lon="4.74822">
        <ele>239.56824</ele>
        <time>2023-08-05T13:41:25.000Z</time>
      </trkpt>
      <trkpt lat="45.9198" lon="4.74825">
        <ele>239.58757</ele>
        <time>2023-08-05T13:41:26.000Z</time>
      </trkpt>
      <trkpt lat="45.91986" lon="4.74828">
        <ele>239.62263</ele>
        <time>2023-08-05T13:41:27.000Z</time>
      </trkpt>
      <trkpt lat="45.91991" lon="4.7483">
        <ele>239.62622</ele>
        <time>2023-08-05T13:41:28.000Z</time>
      </trkpt>
      <trkpt lat="45.91997" lon="4.74833">
        <ele>239.64738</ele>
        <time>2023-08-05T13:41:29.000Z</time>
      </trkpt>
      <trkpt lat="45.92002" lon="4.74837">
        <ele>239.68401</ele>
        <time>2023-08-05T13:41:30.000Z</time>
      </trkpt>
      <trkpt lat="45.92007" lon="4.7484">
        <ele>239.7438</ele>
        <time>2023-08-05T13:41:31.000Z</time>
      </trkpt>
      <trkpt lat="45.92012" lon="4.74842">
        <ele>239.76404</ele>
        <time>2023-08-05T13:41:32.000Z</time>
      </trkpt>
      <trkpt lat="45.92018" lon="4.74845">
        <ele>239.73079</ele>
        <time>2023-08-05T13:41:33.000Z</time>
      </trkpt>
      <trkpt lat="45.92024" lon="4.74848">
        <ele>239.77036</ele>
        <time>2023-08-05T13:41:34.000Z</time>
      </trkpt>
      <trkpt lat="45.92029" lon="4.74851">
        <ele>239.74361</ele>
        <time>2023-08-05T13:41:35.000Z</time>
      </trkpt>
      <trkpt lat="45.92034" lon="4.74853">
        <ele>239.76265</ele>
        <time>2023-08-05T13:41:36.000Z</time>
      </trkpt>
      <trkpt lat="45.92039" lon="4.74856">
        <ele>239.74503</ele>
        <time>2023-08-05T13:41:37.000Z</time>
      </trkpt>
      <trkpt lat="45.92045" lon="4.7486">
        <ele>239.70737</ele>
        <time>2023-08-05T13:41:38.000Z</time>
      </trkpt>
      <trkpt lat="45.92049" lon="4.74863">
        <ele>239.71814</ele>
        <time>2023-08-05T13:41:39.000Z</time>
      </trkpt>
      <trkpt lat="45.92055" lon="4.74868">
        <ele>239.72464</ele>
        <time>2023-08-05T13:41:40.000Z</time>
      </trkpt>
      <trkpt lat="45.92061" lon="4.7487">
        <ele>239.77107</ele>
        <time>2023-08-05T13:41:41.000Z</time>
      </trkpt>
      <trkpt lat="45.92066" lon="4.74872">
        <ele>239.77255</ele>
        <time>2023-08-05T13:41:42.000Z</time>
      </trkpt>
      <trkpt lat="45.92072" lon="4.74874">
        <ele>239.79016</ele>
        <time>2023-08-05T13:41:43.000Z</time>
      </trkpt>
      <trkpt lat="45.92078" lon="4.74877">
        <ele>239.8532</ele>
        <time>2023-08-05T13:41:44.000Z</time>
      </trkpt>
      <trkpt lat="45.92083" lon="4.74881">
        <ele>239.85881</ele>
        <time>2023-08-05T13:41:45.000Z</time>
      </trkpt>
      <trkpt lat="45.92088" lon="4.74883">
        <ele>239.84238</ele>
        <time>2023-08-05T13:41:46.000Z</time>
      </trkpt>
      <trkpt lat="45.92093" lon="4.74886">
        <ele>240.05386</ele>
        <time>2023-08-05T13:41:47.000Z</time>
      </trkpt>
      <trkpt lat="45.92099" lon="4.74889">
        <ele>240.48111</ele>
        <time>2023-08-05T13:41:48.000Z</time>
      </trkpt>
      <trkpt lat="45.92103" lon="4.74892">
        <ele>240.38245</ele>
        <time>2023-08-05T13:41:49.000Z</time>
      </trkpt>
      <trkpt lat="45.92109" lon="4.74895">
        <ele>240.38272</ele>
        <time>2023-08-05T13:41:50.000Z</time>
      </trkpt>
      <trkpt lat="45.92114" lon="4.74899">
        <ele>240.38766</ele>
        <time>2023-08-05T13:41:51.000Z</time>
      </trkpt>
      <trkpt lat="45.9212" lon="4.74903">
        <ele>240.43852</ele>
        <time>2023-08-05T13:41:52.000Z</time>
      </trkpt>
      <trkpt lat="45.92124" lon="4.74905">
        <ele>240.49155</ele>
        <time>2023-08-05T13:41:53.000Z</time>
      </trkpt>
      <trkpt lat="45.92129" lon="4.74908">
        <ele>240.46672</ele>
        <time>2023-08-05T13:41:54.000Z</time>
      </trkpt>
      <trkpt lat="45.92135" lon="4.74911">
        <ele>240.47018</ele>
        <time>2023-08-05T13:41:55.000Z</time>
      </trkpt>
      <trkpt lat="45.92139" lon="4.74913">
        <ele>240.43111</ele>
        <time>2023-08-05T13:41:56.000Z</time>
      </trkpt>
      <trkpt lat="45.92145" lon="4.74916">
        <ele>240.40988</ele>
        <time>2023-08-05T13:41:57.000Z</time>
      </trkpt>
      <trkpt lat="45.92149" lon="4.74919">
        <ele>240.4416</ele>
        <time>2023-08-05T13:41:58.000Z</time>
      </trkpt>
      <trkpt lat="45.92154" lon="4.74921">
        <ele>240.43904</ele>
        <time>2023-08-05T13:41:59.000Z</time>
      </trkpt>
      <trkpt lat="45.92158" lon="4.74923">
        <ele>240.42123</ele>
        <time>2023-08-05T13:42:00.000Z</time>
      </trkpt>
      <trkpt lat="45.92163" lon="4.74925">
        <ele>240.37338</ele>
        <time>2023-08-05T13:42:01.000Z</time>
      </trkpt>
      <trkpt lat="45.92168" lon="4.74928">
        <ele>240.40237</ele>
        <time>2023-08-05T13:42:02.000Z</time>
      </trkpt>
      <trkpt lat="45.92173" lon="4.7493">
        <ele>240.40552</ele>
        <time>2023-08-05T13:42:03.000Z</time>
      </trkpt>
      <trkpt lat="45.92177" lon="4.74934">
        <ele>240.32368</ele>
        <time>2023-08-05T13:42:04.000Z</time>
      </trkpt>
      <trkpt lat="45.9218" lon="4.74937">
        <ele>240.25142</ele>
        <time>2023-08-05T13:42:05.000Z</time>
      </trkpt>
      <trkpt lat="45.92185" lon="4.74939">
        <ele>240.21126</ele>
        <time>2023-08-05T13:42:06.000Z</time>
      </trkpt>
      <trkpt lat="45.92189" lon="4.74941">
        <ele>239.89445</ele>
        <time>2023-08-05T13:42:07.000Z</time>
      </trkpt>
      <trkpt lat="45.92193" lon="4.74943">
        <ele>239.39185</ele>
        <time>2023-08-05T13:42:08.000Z</time>
      </trkpt>
      <trkpt lat="45.92198" lon="4.74947">
        <ele>239.40425</ele>
        <time>2023-08-05T13:42:09.000Z</time>
      </trkpt>
      <trkpt lat="45.92203" lon="4.7495">
        <ele>239.57358</ele>
        <time>2023-08-05T13:42:10.000Z</time>
      </trkpt>
      <trkpt lat="45.92207" lon="4.74952">
        <ele>239.90422</ele>
        <time>2023-08-05T13:42:11.000Z</time>
      </trkpt>
      <trkpt lat="45.92212" lon="4.74954">
        <ele>239.71321</ele>
        <time>2023-08-05T13:42:12.000Z</time>
      </trkpt>
      <trkpt lat="45.92217" lon="4.74956">
        <ele>239.57944</ele>
        <time>2023-08-05T13:42:13.000Z</time>
      </trkpt>
      <trkpt lat="45.92221" lon="4.74958">
        <ele>239.48483</ele>
        <time>2023-08-05T13:42:14.000Z</time>
      </trkpt>
      <trkpt lat="45.92226" lon="4.74961">
        <ele>239.37383</ele>
        <time>2023-08-05T13:42:15.000Z</time>
      </trkpt>
      <trkpt lat="45.9223" lon="4.74962">
        <ele>239.25577</ele>
        <time>2023-08-05T13:42:16.000Z</time>
      </trkpt>
      <trkpt lat="45.92234" lon="4.74963">
        <ele>239.1617</ele>
        <time>2023-08-05T13:42:17.000Z</time>
      </trkpt>
      <trkpt lat="45.92238" lon="4.74964">
        <ele>239.0083</ele>
        <time>2023-08-05T13:42:18.000Z</time>
      </trkpt>
      <trkpt lat="45.92242" lon="4.74962">
        <ele>238.85501</ele>
        <time>2023-08-05T13:42:19.000Z</time>
      </trkpt>
      <trkpt lat="45.92244" lon="4.74959">
        <ele>238.74825</ele>
        <time>2023-08-05T13:42:20.000Z</time>
      </trkpt>
      <trkpt lat="45.92245" lon="4.74955">
        <ele>238.66187</ele>
        <time>2023-08-05T13:42:21.000Z</time>
      </trkpt>
      <trkpt lat="45.92246" lon="4.74951">
        <ele>238.50894</ele>
        <time>2023-08-05T13:42:22.000Z</time>
      </trkpt>
      <trkpt lat="45.92248" lon="4.74947">
        <ele>238.37654</ele>
        <time>2023-08-05T13:42:23.000Z</time>
      </trkpt>
      <trkpt lat="45.9225" lon="4.74943">
        <ele>238.30513</ele>
        <time>2023-08-05T13:42:24.000Z</time>
      </trkpt>
      <trkpt lat="45.92251" lon="4.74939">
        <ele>238.28413</ele>
        <time>2023-08-05T13:42:25.000Z</time>
      </trkpt>
      <trkpt lat="45.92251" lon="4.74934">
        <ele>238.2135</ele>
        <time>2023-08-05T13:42:26.000Z</time>
      </trkpt>
      <trkpt lat="45.92252" lon="4.7493">
        <ele>238.43738</ele>
        <time>2023-08-05T13:42:27.000Z</time>
      </trkpt>
      <trkpt lat="45.92253" lon="4.74925">
        <ele>238.68265</ele>
        <time>2023-08-05T13:42:28.000Z</time>
      </trkpt>
      <trkpt lat="45.92255" lon="4.74921">
        <ele>239.11801</ele>
        <time>2023-08-05T13:42:29.000Z</time>
      </trkpt>
      <trkpt lat="45.92256" lon="4.74917">
        <ele>238.77258</ele>
        <time>2023-08-05T13:42:30.000Z</time>
      </trkpt>
      <trkpt lat="45.92258" lon="4.74913">
        <ele>238.34433</ele>
        <time>2023-08-05T13:42:31.000Z</time>
      </trkpt>
      <trkpt lat="45.92261" lon="4.7491">
        <ele>238.44087</ele>
        <time>2023-08-05T13:42:32.000Z</time>
      </trkpt>
      <trkpt lat="45.92263" lon="4.74908">
        <ele>238.47038</ele>
        <time>2023-08-05T13:42:33.000Z</time>
      </trkpt>
      <trkpt lat="45.92266" lon="4.74905">
        <ele>238.4949</ele>
        <time>2023-08-05T13:42:34.000Z</time>
      </trkpt>
      <trkpt lat="45.92269" lon="4.74902">
        <ele>238.53064</ele>
        <time>2023-08-05T13:42:35.000Z</time>
      </trkpt>
      <trkpt lat="45.92271" lon="4.74899">
        <ele>238.56381</ele>
        <time>2023-08-05T13:42:36.000Z</time>
      </trkpt>
      <trkpt lat="45.92274" lon="4.74895">
        <ele>238.57693</ele>
        <time>2023-08-05T13:42:37.000Z</time>
      </trkpt>
      <trkpt lat="45.92276" lon="4.74891">
        <ele>238.61707</ele>
        <time>2023-08-05T13:42:38.000Z</time>
      </trkpt>
      <trkpt lat="45.92279" lon="4.74887">
        <ele>238.65689</ele>
        <time>2023-08-05T13:42:39.000Z</time>
      </trkpt>
      <trkpt lat="45.92281" lon="4.74883">
        <ele>238.94434</ele>
        <time>2023-08-05T13:42:40.000Z</time>
      </trkpt>
      <trkpt lat="45.92284" lon="4.74879">
        <ele>239.21379</ele>
        <time>2023-08-05T13:42:41.000Z</time>
      </trkpt>
      <trkpt lat="45.92287" lon="4.74875">
        <ele>239.47385</ele>
        <time>2023-08-05T13:42:42.000Z</time>
      </trkpt>
      <trkpt lat="45.92289" lon="4.7487">
        <ele>239.91418</ele>
        <time>2023-08-05T13:42:43.000Z</time>
      </trkpt>
      <trkpt lat="45.92291" lon="4.74866">
        <ele>240.34497</ele>
        <time>2023-08-05T13:42:44.000Z</time>
      </trkpt>
      <trkpt lat="45.92294" lon="4.74861">
        <ele>240.229</ele>
        <time>2023-08-05T13:42:45.000Z</time>
      </trkpt>
      <trkpt lat="45.92296" lon="4.74856">
        <ele>240.22635</ele>
        <time>2023-08-05T13:42:46.000Z</time>
      </trkpt>
      <trkpt lat="45.92298" lon="4.74852">
        <ele>240.2205</ele>
        <time>2023-08-05T13:42:47.000Z</time>
      </trkpt>
      <trkpt lat="45.92301" lon="4.74847">
        <ele>240.19934</ele>
        <time>2023-08-05T13:42:48.000Z</time>
      </trkpt>
      <trkpt lat="45.92303" lon="4.74843">
        <ele>240.16252</ele>
        <time>2023-08-05T13:42:49.000Z</time>
      </trkpt>
      <trkpt lat="45.92306" lon="4.74838">
        <ele>240.12227</ele>
        <time>2023-08-05T13:42:50.000Z</time>
      </trkpt>
      <trkpt lat="45.92308" lon="4.74834">
        <ele>240.07954</ele>
        <time>2023-08-05T13:42:51.000Z</time>
      </trkpt>
      <trkpt lat="45.9231" lon="4.7483">
        <ele>240.03076</ele>
        <time>2023-08-05T13:42:52.000Z</time>
      </trkpt>
      <trkpt lat="45.92313" lon="4.74826">
        <ele>239.9899</ele>
        <time>2023-08-05T13:42:53.000Z</time>
      </trkpt>
      <trkpt lat="45.92315" lon="4.74822">
        <ele>239.95699</ele>
        <time>2023-08-05T13:42:54.000Z</time>
      </trkpt>
      <trkpt lat="45.92318" lon="4.74818">
        <ele>239.91287</ele>
        <time>2023-08-05T13:42:55.000Z</time>
      </trkpt>
      <trkpt lat="45.92321" lon="4.74814">
        <ele>239.89163</ele>
        <time>2023-08-05T13:42:56.000Z</time>
      </trkpt>
      <trkpt lat="45.92323" lon="4.7481">
        <ele>239.8951</ele>
        <time>2023-08-05T13:42:57.000Z</time>
      </trkpt>
      <trkpt lat="45.92326" lon="4.74805">
        <ele>239.90459</ele>
        <time>2023-08-05T13:42:58.000Z</time>
      </trkpt>
      <trkpt lat="45.92328" lon="4.74801">
        <ele>239.90173</ele>
        <time>2023-08-05T13:42:59.000Z</time>
      </trkpt>
      <trkpt lat="45.9233" lon="4.74797">
        <ele>239.65486</ele>
        <time>2023-08-05T13:43:00.000Z</time>
      </trkpt>
      <trkpt lat="45.92333" lon="4.74793">
        <ele>239.40781</ele>
        <time>2023-08-05T13:43:01.000Z</time>
      </trkpt>
      <trkpt lat="45.92335" lon="4.74789">
        <ele>239.54459</ele>
        <time>2023-08-05T13:43:02.000Z</time>
      </trkpt>
      <trkpt lat="45.92338" lon="4.74785">
        <ele>239.54068</ele>
        <time>2023-08-05T13:43:03.000Z</time>
      </trkpt>
      <trkpt lat="45.9234" lon="4.74781">
        <ele>239.02995</ele>
        <time>2023-08-05T13:43:04.000Z</time>
      </trkpt>
      <trkpt lat="45.92343" lon="4.74777">
        <ele>239.19775</ele>
        <time>2023-08-05T13:43:05.000Z</time>
      </trkpt>
      <trkpt lat="45.92345" lon="4.74772">
        <ele>239.25821</ele>
        <time>2023-08-05T13:43:06.000Z</time>
      </trkpt>
      <trkpt lat="45.92347" lon="4.74767">
        <ele>239.07324</ele>
        <time>2023-08-05T13:43:07.000Z</time>
      </trkpt>
      <trkpt lat="45.92349" lon="4.74762">
        <ele>238.88559</ele>
        <time>2023-08-05T13:43:08.000Z</time>
      </trkpt>
      <trkpt lat="45.9235" lon="4.74757">
        <ele>238.51904</ele>
        <time>2023-08-05T13:43:09.000Z</time>
      </trkpt>
      <trkpt lat="45.92352" lon="4.74752">
        <ele>238.68723</ele>
        <time>2023-08-05T13:43:10.000Z</time>
      </trkpt>
      <trkpt lat="45.92355" lon="4.74748">
        <ele>238.75302</ele>
        <time>2023-08-05T13:43:11.000Z</time>
      </trkpt>
      <trkpt lat="45.92357" lon="4.74744">
        <ele>238.82561</ele>
        <time>2023-08-05T13:43:12.000Z</time>
      </trkpt>
      <trkpt lat="45.9236" lon="4.74741">
        <ele>238.88077</ele>
        <time>2023-08-05T13:43:13.000Z</time>
      </trkpt>
      <trkpt lat="45.92362" lon="4.74737">
        <ele>238.93571</ele>
        <time>2023-08-05T13:43:14.000Z</time>
      </trkpt>
      <trkpt lat="45.92365" lon="4.74733">
        <ele>239.01216</ele>
        <time>2023-08-05T13:43:15.000Z</time>
      </trkpt>
      <trkpt lat="45.92367" lon="4.74729">
        <ele>239.06442</ele>
        <time>2023-08-05T13:43:16.000Z</time>
      </trkpt>
      <trkpt lat="45.92369" lon="4.74724">
        <ele>239.10674</ele>
        <time>2023-08-05T13:43:17.000Z</time>
      </trkpt>
      <trkpt lat="45.92372" lon="4.7472">
        <ele>239.1478</ele>
        <time>2023-08-05T13:43:18.000Z</time>
      </trkpt>
      <trkpt lat="45.92374" lon="4.74716">
        <ele>239.189</ele>
        <time>2023-08-05T13:43:19.000Z</time>
      </trkpt>
      <trkpt lat="45.92377" lon="4.74711">
        <ele>239.2291</ele>
        <time>2023-08-05T13:43:20.000Z</time>
      </trkpt>
      <trkpt lat="45.9238" lon="4.74707">
        <ele>239.26245</ele>
        <time>2023-08-05T13:43:21.000Z</time>
      </trkpt>
      <trkpt lat="45.92382" lon="4.74703">
        <ele>238.92896</ele>
        <time>2023-08-05T13:43:22.000Z</time>
      </trkpt>
      <trkpt lat="45.92384" lon="4.74698">
        <ele>238.51413</ele>
        <time>2023-08-05T13:43:23.000Z</time>
      </trkpt>
      <trkpt lat="45.92387" lon="4.74694">
        <ele>238.62125</ele>
        <time>2023-08-05T13:43:24.000Z</time>
      </trkpt>
      <trkpt lat="45.92389" lon="4.74689">
        <ele>238.57539</ele>
        <time>2023-08-05T13:43:25.000Z</time>
      </trkpt>
      <trkpt lat="45.92392" lon="4.74685">
        <ele>238.51494</ele>
        <time>2023-08-05T13:43:26.000Z</time>
      </trkpt>
      <trkpt lat="45.92395" lon="4.74681">
        <ele>238.4572</ele>
        <time>2023-08-05T13:43:27.000Z</time>
      </trkpt>
      <trkpt lat="45.92397" lon="4.74676">
        <ele>238.40767</ele>
        <time>2023-08-05T13:43:28.000Z</time>
      </trkpt>
      <trkpt lat="45.924" lon="4.74672">
        <ele>238.3811</ele>
        <time>2023-08-05T13:43:29.000Z</time>
      </trkpt>
      <trkpt lat="45.92403" lon="4.74667">
        <ele>238.31071</ele>
        <time>2023-08-05T13:43:30.000Z</time>
      </trkpt>
      <trkpt lat="45.92405" lon="4.74662">
        <ele>238.25151</ele>
        <time>2023-08-05T13:43:31.000Z</time>
      </trkpt>
      <trkpt lat="45.92408" lon="4.74658">
        <ele>238.17081</ele>
        <time>2023-08-05T13:43:32.000Z</time>
      </trkpt>
      <trkpt lat="45.9241" lon="4.74654">
        <ele>238.09851</ele>
        <time>2023-08-05T13:43:33.000Z</time>
      </trkpt>
      <trkpt lat="45.92413" lon="4.74649">
        <ele>238.45125</ele>
        <time>2023-08-05T13:43:34.000Z</time>
      </trkpt>
      <trkpt lat="45.92416" lon="4.74645">
        <ele>238.4395</ele>
        <time>2023-08-05T13:43:35.000Z</time>
      </trkpt>
      <trkpt lat="45.92418" lon="4.74641">
        <ele>238.85684</ele>
        <time>2023-08-05T13:43:36.000Z</time>
      </trkpt>
      <trkpt lat="45.92421" lon="4.74636">
        <ele>238.69426</ele>
        <time>2023-08-05T13:43:37.000Z</time>
      </trkpt>
      <trkpt lat="45.92423" lon="4.74632">
        <ele>238.51755</ele>
        <time>2023-08-05T13:43:38.000Z</time>
      </trkpt>
      <trkpt lat="45.92425" lon="4.74627">
        <ele>238.33052</ele>
        <time>2023-08-05T13:43:39.000Z</time>
      </trkpt>
      <trkpt lat="45.92428" lon="4.74622">
        <ele>238.05318</ele>
        <time>2023-08-05T13:43:40.000Z</time>
      </trkpt>
      <trkpt lat="45.92429" lon="4.74617">
        <ele>237.804</ele>
        <time>2023-08-05T13:43:41.000Z</time>
      </trkpt>
      <trkpt lat="45.92431" lon="4.74611">
        <ele>237.56711</ele>
        <time>2023-08-05T13:43:42.000Z</time>
      </trkpt>
      <trkpt lat="45.92432" lon="4.74605">
        <ele>237.3616</ele>
        <time>2023-08-05T13:43:43.000Z</time>
      </trkpt>
      <trkpt lat="45.92431" lon="4.746">
        <ele>237.17252</ele>
        <time>2023-08-05T13:43:44.000Z</time>
      </trkpt>
      <trkpt lat="45.9243" lon="4.74594">
        <ele>237.14255</ele>
        <time>2023-08-05T13:43:45.000Z</time>
      </trkpt>
      <trkpt lat="45.92428" lon="4.74589">
        <ele>237.13379</ele>
        <time>2023-08-05T13:43:46.000Z</time>
      </trkpt>
      <trkpt lat="45.92425" lon="4.74584">
        <ele>237.1217</ele>
        <time>2023-08-05T13:43:47.000Z</time>
      </trkpt>
      <trkpt lat="45.92421" lon="4.7458">
        <ele>237.1031</ele>
        <time>2023-08-05T13:43:48.000Z</time>
      </trkpt>
      <trkpt lat="45.92418" lon="4.74577">
        <ele>237.08142</ele>
        <time>2023-08-05T13:43:49.000Z</time>
      </trkpt>
      <trkpt lat="45.92414" lon="4.74573">
        <ele>237.12041</ele>
        <time>2023-08-05T13:43:50.000Z</time>
      </trkpt>
      <trkpt lat="45.92411" lon="4.74571">
        <ele>237.15976</ele>
        <time>2023-08-05T13:43:51.000Z</time>
      </trkpt>
      <trkpt lat="45.92407" lon="4.74568">
        <ele>237.20894</ele>
        <time>2023-08-05T13:43:52.000Z</time>
      </trkpt>
      <trkpt lat="45.92403" lon="4.74566">
        <ele>237.24927</ele>
        <time>2023-08-05T13:43:53.000Z</time>
      </trkpt>
      <trkpt lat="45.92399" lon="4.74564">
        <ele>236.84692</ele>
        <time>2023-08-05T13:43:54.000Z</time>
      </trkpt>
      <trkpt lat="45.92395" lon="4.74562">
        <ele>236.81477</ele>
        <time>2023-08-05T13:43:55.000Z</time>
      </trkpt>
      <trkpt lat="45.92391" lon="4.74559">
        <ele>236.59431</ele>
        <time>2023-08-05T13:43:56.000Z</time>
      </trkpt>
      <trkpt lat="45.92387" lon="4.74557">
        <ele>237.15091</ele>
        <time>2023-08-05T13:43:57.000Z</time>
      </trkpt>
      <trkpt lat="45.92383" lon="4.74555">
        <ele>237.18448</ele>
        <time>2023-08-05T13:43:58.000Z</time>
      </trkpt>
      <trkpt lat="45.92379" lon="4.74552">
        <ele>237.3199</ele>
        <time>2023-08-05T13:43:59.000Z</time>
      </trkpt>
      <trkpt lat="45.92375" lon="4.7455">
        <ele>237.54492</ele>
        <time>2023-08-05T13:44:00.000Z</time>
      </trkpt>
      <trkpt lat="45.92371" lon="4.74547">
        <ele>237.75639</ele>
        <time>2023-08-05T13:44:01.000Z</time>
      </trkpt>
      <trkpt lat="45.92366" lon="4.74545">
        <ele>237.95796</ele>
        <time>2023-08-05T13:44:02.000Z</time>
      </trkpt>
      <trkpt lat="45.92362" lon="4.74543">
        <ele>238.15698</ele>
        <time>2023-08-05T13:44:03.000Z</time>
      </trkpt>
      <trkpt lat="45.92358" lon="4.7454">
        <ele>238.32027</ele>
        <time>2023-08-05T13:44:04.000Z</time>
      </trkpt>
      <trkpt lat="45.92354" lon="4.74538">
        <ele>238.34122</ele>
        <time>2023-08-05T13:44:05.000Z</time>
      </trkpt>
      <trkpt lat="45.9235" lon="4.74536">
        <ele>238.37704</ele>
        <time>2023-08-05T13:44:06.000Z</time>
      </trkpt>
      <trkpt lat="45.92346" lon="4.74534">
        <ele>238.42119</ele>
        <time>2023-08-05T13:44:07.000Z</time>
      </trkpt>
      <trkpt lat="45.92342" lon="4.74531">
        <ele>238.47641</ele>
        <time>2023-08-05T13:44:08.000Z</time>
      </trkpt>
      <trkpt lat="45.92338" lon="4.74528">
        <ele>238.52959</ele>
        <time>2023-08-05T13:44:09.000Z</time>
      </trkpt>
      <trkpt lat="45.92334" lon="4.74525">
        <ele>238.55075</ele>
        <time>2023-08-05T13:44:10.000Z</time>
      </trkpt>
      <trkpt lat="45.9233" lon="4.74522">
        <ele>238.56242</ele>
        <time>2023-08-05T13:44:11.000Z</time>
      </trkpt>
      <trkpt lat="45.92326" lon="4.74521">
        <ele>238.56973</ele>
        <time>2023-08-05T13:44:12.000Z</time>
      </trkpt>
      <trkpt lat="45.92323" lon="4.74518">
        <ele>238.58334</ele>
        <time>2023-08-05T13:44:13.000Z</time>
      </trkpt>
      <trkpt lat="45.92318" lon="4.74515">
        <ele>238.61372</ele>
        <time>2023-08-05T13:44:14.000Z</time>
      </trkpt>
      <trkpt lat="45.92314" lon="4.74511">
        <ele>238.64645</ele>
        <time>2023-08-05T13:44:15.000Z</time>
      </trkpt>
      <trkpt lat="45.92309" lon="4.74508">
        <ele>238.44302</ele>
        <time>2023-08-05T13:44:16.000Z</time>
      </trkpt>
      <trkpt lat="45.92305" lon="4.74505">
        <ele>238.03911</ele>
        <time>2023-08-05T13:44:17.000Z</time>
      </trkpt>
      <trkpt lat="45.923" lon="4.74503">
        <ele>238.16028</ele>
        <time>2023-08-05T13:44:18.000Z</time>
      </trkpt>
      <trkpt lat="45.92295" lon="4.74501">
        <ele>238.18338</ele>
        <time>2023-08-05T13:44:19.000Z</time>
      </trkpt>
      <trkpt lat="45.92291" lon="4.74499">
        <ele>238.19597</ele>
        <time>2023-08-05T13:44:20.000Z</time>
      </trkpt>
      <trkpt lat="45.92287" lon="4.74497">
        <ele>238.18867</ele>
        <time>2023-08-05T13:44:21.000Z</time>
      </trkpt>
      <trkpt lat="45.92282" lon="4.74495">
        <ele>238.43221</ele>
        <time>2023-08-05T13:44:22.000Z</time>
      </trkpt>
      <trkpt lat="45.92278" lon="4.74492">
        <ele>238.84737</ele>
        <time>2023-08-05T13:44:23.000Z</time>
      </trkpt>
      <trkpt lat="45.92274" lon="4.74489">
        <ele>239.29497</ele>
        <time>2023-08-05T13:44:24.000Z</time>
      </trkpt>
      <trkpt lat="45.9227" lon="4.74487">
        <ele>239.20886</ele>
        <time>2023-08-05T13:44:25.000Z</time>
      </trkpt>
      <trkpt lat="45.92266" lon="4.74485">
        <ele>239.17607</ele>
        <time>2023-08-05T13:44:26.000Z</time>
      </trkpt>
      <trkpt lat="45.92262" lon="4.74482">
        <ele>239.11771</ele>
        <time>2023-08-05T13:44:27.000Z</time>
      </trkpt>
      <trkpt lat="45.92258" lon="4.7448">
        <ele>239.06519</ele>
        <time>2023-08-05T13:44:28.000Z</time>
      </trkpt>
      <trkpt lat="45.92255" lon="4.74478">
        <ele>238.98824</ele>
        <time>2023-08-05T13:44:29.000Z</time>
      </trkpt>
      <trkpt lat="45.92252" lon="4.74475">
        <ele>238.92082</ele>
        <time>2023-08-05T13:44:30.000Z</time>
      </trkpt>
      <trkpt lat="45.92249" lon="4.74473">
        <ele>238.86333</ele>
        <time>2023-08-05T13:44:31.000Z</time>
      </trkpt>
      <trkpt lat="45.92246" lon="4.74471">
        <ele>238.819</ele>
        <time>2023-08-05T13:44:32.000Z</time>
      </trkpt>
      <trkpt lat="45.92243" lon="4.74469">
        <ele>238.79219</ele>
        <time>2023-08-05T13:44:33.000Z</time>
      </trkpt>
      <trkpt lat="45.92241" lon="4.74467">
        <ele>238.78056</ele>
        <time>2023-08-05T13:44:34.000Z</time>
      </trkpt>
      <trkpt lat="45.92239" lon="4.74466">
        <ele>238.77095</ele>
        <time>2023-08-05T13:44:35.000Z</time>
      </trkpt>
      <trkpt lat="45.92238" lon="4.74464">
        <ele>238.75244</ele>
        <time>2023-08-05T13:44:37.000Z</time>
      </trkpt>
      <trkpt lat="45.92237" lon="4.74459">
        <ele>238.68489</ele>
        <time>2023-08-05T13:50:41.000Z</time>
      </trkpt>
      <trkpt lat="45.92237" lon="4.74457">
        <ele>238.61588</ele>
        <time>2023-08-05T13:50:42.000Z</time>
      </trkpt>
      <trkpt lat="45.92237" lon="4.74454">
        <ele>238.56013</ele>
        <time>2023-08-05T13:50:43.000Z</time>
      </trkpt>
      <trkpt lat="45.92237" lon="4.7445">
        <ele>238.51926</ele>
        <time>2023-08-05T13:50:44.000Z</time>
      </trkpt>
      <trkpt lat="45.92238" lon="4.74447">
        <ele>238.49556</ele>
        <time>2023-08-05T13:50:45.000Z</time>
      </trkpt>
      <trkpt lat="45.92238" lon="4.74445">
        <ele>238.23849</ele>
        <time>2023-08-05T13:50:46.000Z</time>
      </trkpt>
      <trkpt lat="45.92238" lon="4.74441">
        <ele>237.82195</ele>
        <time>2023-08-05T13:50:47.000Z</time>
      </trkpt>
      <trkpt lat="45.92239" lon="4.74438">
        <ele>237.37891</ele>
        <time>2023-08-05T13:50:48.000Z</time>
      </trkpt>
      <trkpt lat="45.9224" lon="4.74434">
        <ele>237.47202</ele>
        <time>2023-08-05T13:50:49.000Z</time>
      </trkpt>
      <trkpt lat="45.92241" lon="4.7443">
        <ele>237.49667</ele>
        <time>2023-08-05T13:50:50.000Z</time>
      </trkpt>
      <trkpt lat="45.92242" lon="4.74426">
        <ele>237.54317</ele>
        <time>2023-08-05T13:50:51.000Z</time>
      </trkpt>
      <trkpt lat="45.92243" lon="4.74422">
        <ele>237.56943</ele>
        <time>2023-08-05T13:50:52.000Z</time>
      </trkpt>
      <trkpt lat="45.92244" lon="4.74419">
        <ele>237.62227</ele>
        <time>2023-08-05T13:50:54.000Z</time>
      </trkpt>
      <trkpt lat="45.92246" lon="4.74418">
        <ele>237.55424</ele>
        <time>2023-08-05T13:51:08.000Z</time>
      </trkpt>
      <trkpt lat="45.92248" lon="4.74412">
        <ele>237.49004</ele>
        <time>2023-08-05T13:51:10.000Z</time>
      </trkpt>
      <trkpt lat="45.92249" lon="4.74409">
        <ele>237.41646</ele>
        <time>2023-08-05T13:51:11.000Z</time>
      </trkpt>
      <trkpt lat="45.9225" lon="4.74406">
        <ele>237.32309</ele>
        <time>2023-08-05T13:51:12.000Z</time>
      </trkpt>
      <trkpt lat="45.92252" lon="4.74403">
        <ele>237.20195</ele>
        <time>2023-08-05T13:51:13.000Z</time>
      </trkpt>
      <trkpt lat="45.92253" lon="4.74399">
        <ele>237.06958</ele>
        <time>2023-08-05T13:51:14.000Z</time>
      </trkpt>
      <trkpt lat="45.92254" lon="4.74396">
        <ele>236.93417</ele>
        <time>2023-08-05T13:51:15.000Z</time>
      </trkpt>
      <trkpt lat="45.92256" lon="4.74393">
        <ele>236.84073</ele>
        <time>2023-08-05T13:51:16.000Z</time>
      </trkpt>
      <trkpt lat="45.92258" lon="4.74389">
        <ele>236.74736</ele>
        <time>2023-08-05T13:51:17.000Z</time>
      </trkpt>
      <trkpt lat="45.92259" lon="4.74385">
        <ele>236.64619</ele>
        <time>2023-08-05T13:51:18.000Z</time>
      </trkpt>
      <trkpt lat="45.92261" lon="4.74379">
        <ele>235.90866</ele>
        <time>2023-08-05T13:51:19.000Z</time>
      </trkpt>
      <trkpt lat="45.92263" lon="4.74375">
        <ele>235.16573</ele>
        <time>2023-08-05T13:51:20.000Z</time>
      </trkpt>
      <trkpt lat="45.92265" lon="4.74371">
        <ele>234.40405</ele>
        <time>2023-08-05T13:51:21.000Z</time>
      </trkpt>
      <trkpt lat="45.92267" lon="4.74367">
        <ele>234.23941</ele>
        <time>2023-08-05T13:51:22.000Z</time>
      </trkpt>
      <trkpt lat="45.92269" lon="4.74363">
        <ele>234.24409</ele>
        <time>2023-08-05T13:51:23.000Z</time>
      </trkpt>
      <trkpt lat="45.92272" lon="4.74359">
        <ele>234.23042</ele>
        <time>2023-08-05T13:51:24.000Z</time>
      </trkpt>
      <trkpt lat="45.92275" lon="4.74356">
        <ele>234.18242</ele>
        <time>2023-08-05T13:51:25.000Z</time>
      </trkpt>
      <trkpt lat="45.92278" lon="4.74353">
        <ele>234.1263</ele>
        <time>2023-08-05T13:51:26.000Z</time>
      </trkpt>
      <trkpt lat="45.9228" lon="4.74349">
        <ele>234.08475</ele>
        <time>2023-08-05T13:51:27.000Z</time>
      </trkpt>
      <trkpt lat="45.92283" lon="4.74346">
        <ele>234.02132</ele>
        <time>2023-08-05T13:51:28.000Z</time>
      </trkpt>
      <trkpt lat="45.92286" lon="4.74343">
        <ele>234.07202</ele>
        <time>2023-08-05T13:51:29.000Z</time>
      </trkpt>
      <trkpt lat="45.92289" lon="4.7434">
        <ele>234.10989</ele>
        <time>2023-08-05T13:51:30.000Z</time>
      </trkpt>
      <trkpt lat="45.92292" lon="4.74336">
        <ele>234.15292</ele>
        <time>2023-08-05T13:51:31.000Z</time>
      </trkpt>
      <trkpt lat="45.92295" lon="4.74333">
        <ele>234.16989</ele>
        <time>2023-08-05T13:51:32.000Z</time>
      </trkpt>
      <trkpt lat="45.92299" lon="4.74329">
        <ele>234.17349</ele>
        <time>2023-08-05T13:51:33.000Z</time>
      </trkpt>
      <trkpt lat="45.92302" lon="4.74326">
        <ele>234.17599</ele>
        <time>2023-08-05T13:51:34.000Z</time>
      </trkpt>
      <trkpt lat="45.92305" lon="4.74323">
        <ele>234.17744</ele>
        <time>2023-08-05T13:51:35.000Z</time>
      </trkpt>
      <trkpt lat="45.92309" lon="4.74319">
        <ele>234.19365</ele>
        <time>2023-08-05T13:51:36.000Z</time>
      </trkpt>
      <trkpt lat="45.92313" lon="4.74317">
        <ele>234.1879</ele>
        <time>2023-08-05T13:51:37.000Z</time>
      </trkpt>
      <trkpt lat="45.92316" lon="4.74314">
        <ele>234.18721</ele>
        <time>2023-08-05T13:51:38.000Z</time>
      </trkpt>
      <trkpt lat="45.9232" lon="4.74311">
        <ele>234.81587</ele>
        <time>2023-08-05T13:51:39.000Z</time>
      </trkpt>
      <trkpt lat="45.92323" lon="4.74308">
        <ele>235.44331</ele>
        <time>2023-08-05T13:51:40.000Z</time>
      </trkpt>
      <trkpt lat="45.92327" lon="4.74306">
        <ele>236.07816</ele>
        <time>2023-08-05T13:51:41.000Z</time>
      </trkpt>
      <trkpt lat="45.92331" lon="4.74304">
        <ele>236.09807</ele>
        <time>2023-08-05T13:51:42.000Z</time>
      </trkpt>
      <trkpt lat="45.92335" lon="4.74302">
        <ele>235.94028</ele>
        <time>2023-08-05T13:51:43.000Z</time>
      </trkpt>
      <trkpt lat="45.9234" lon="4.74301">
        <ele>235.79422</ele>
        <time>2023-08-05T13:51:44.000Z</time>
      </trkpt>
      <trkpt lat="45.92344" lon="4.74301">
        <ele>235.68115</ele>
        <time>2023-08-05T13:51:45.000Z</time>
      </trkpt>
      <trkpt lat="45.92348" lon="4.74301">
        <ele>235.57333</ele>
        <time>2023-08-05T13:51:46.000Z</time>
      </trkpt>
      <trkpt lat="45.92353" lon="4.74303">
        <ele>235.45853</ele>
        <time>2023-08-05T13:51:47.000Z</time>
      </trkpt>
      <trkpt lat="45.92357" lon="4.74305">
        <ele>235.61121</ele>
        <time>2023-08-05T13:51:48.000Z</time>
      </trkpt>
      <trkpt lat="45.92361" lon="4.74308">
        <ele>235.96216</ele>
        <time>2023-08-05T13:51:49.000Z</time>
      </trkpt>
      <trkpt lat="45.92365" lon="4.7431">
        <ele>236.34053</ele>
        <time>2023-08-05T13:51:50.000Z</time>
      </trkpt>
      <trkpt lat="45.92369" lon="4.74312">
        <ele>236.15976</ele>
        <time>2023-08-05T13:51:51.000Z</time>
      </trkpt>
      <trkpt lat="45.92373" lon="4.74314">
        <ele>236.10738</ele>
        <time>2023-08-05T13:51:52.000Z</time>
      </trkpt>
      <trkpt lat="45.92377" lon="4.74316">
        <ele>236.0791</ele>
        <time>2023-08-05T13:51:53.000Z</time>
      </trkpt>
      <trkpt lat="45.92381" lon="4.74318">
        <ele>236.05551</ele>
        <time>2023-08-05T13:51:54.000Z</time>
      </trkpt>
      <trkpt lat="45.92385" lon="4.7432">
        <ele>236.05151</ele>
        <time>2023-08-05T13:51:55.000Z</time>
      </trkpt>
      <trkpt lat="45.92389" lon="4.74321">
        <ele>236.31284</ele>
        <time>2023-08-05T13:51:56.000Z</time>
      </trkpt>
      <trkpt lat="45.92393" lon="4.74321">
        <ele>236.60571</ele>
        <time>2023-08-05T13:51:57.000Z</time>
      </trkpt>
      <trkpt lat="45.92397" lon="4.7432">
        <ele>237.09323</ele>
        <time>2023-08-05T13:51:58.000Z</time>
      </trkpt>
      <trkpt lat="45.92401" lon="4.74318">
        <ele>237.02585</ele>
        <time>2023-08-05T13:51:59.000Z</time>
      </trkpt>
      <trkpt lat="45.92405" lon="4.74315">
        <ele>237.06235</ele>
        <time>2023-08-05T13:52:00.000Z</time>
      </trkpt>
      <trkpt lat="45.92408" lon="4.74311">
        <ele>237.09404</ele>
        <time>2023-08-05T13:52:01.000Z</time>
      </trkpt>
      <trkpt lat="45.92411" lon="4.74306">
        <ele>237.14328</ele>
        <time>2023-08-05T13:52:02.000Z</time>
      </trkpt>
      <trkpt lat="45.92413" lon="4.74302">
        <ele>237.19382</ele>
        <time>2023-08-05T13:52:03.000Z</time>
      </trkpt>
      <trkpt lat="45.92416" lon="4.74297">
        <ele>237.2449</ele>
        <time>2023-08-05T13:52:04.000Z</time>
      </trkpt>
      <trkpt lat="45.92418" lon="4.74293">
        <ele>237.30362</ele>
        <time>2023-08-05T13:52:05.000Z</time>
      </trkpt>
      <trkpt lat="45.9242" lon="4.74289">
        <ele>237.36604</ele>
        <time>2023-08-05T13:52:06.000Z</time>
      </trkpt>
      <trkpt lat="45.92422" lon="4.74285">
        <ele>237.39993</ele>
        <time>2023-08-05T13:52:07.000Z</time>
      </trkpt>
      <trkpt lat="45.92424" lon="4.74281">
        <ele>237.18005</ele>
        <time>2023-08-05T13:52:08.000Z</time>
      </trkpt>
      <trkpt lat="45.92425" lon="4.74278">
        <ele>236.78796</ele>
        <time>2023-08-05T13:52:09.000Z</time>
      </trkpt>
      <trkpt lat="45.92427" lon="4.74275">
        <ele>236.37381</ele>
        <time>2023-08-05T13:52:10.000Z</time>
      </trkpt>
      <trkpt lat="45.9243" lon="4.7427">
        <ele>236.51474</ele>
        <time>2023-08-05T13:52:11.000Z</time>
      </trkpt>
      <trkpt lat="45.92432" lon="4.74266">
        <ele>236.55681</ele>
        <time>2023-08-05T13:52:12.000Z</time>
      </trkpt>
      <trkpt lat="45.92434" lon="4.74263">
        <ele>236.84299</ele>
        <time>2023-08-05T13:52:13.000Z</time>
      </trkpt>
      <trkpt lat="45.92436" lon="4.7426">
        <ele>237.15141</ele>
        <time>2023-08-05T13:52:14.000Z</time>
      </trkpt>
      <trkpt lat="45.92437" lon="4.74257">
        <ele>237.46574</ele>
        <time>2023-08-05T13:52:15.000Z</time>
      </trkpt>
      <trkpt lat="45.92439" lon="4.74254">
        <ele>237.51633</ele>
        <time>2023-08-05T13:52:16.000Z</time>
      </trkpt>
      <trkpt lat="45.9244" lon="4.74252">
        <ele>237.74899</ele>
        <time>2023-08-05T13:52:17.000Z</time>
      </trkpt>
      <trkpt lat="45.92441" lon="4.74248">
        <ele>237.26245</ele>
        <time>2023-08-05T13:52:19.000Z</time>
      </trkpt>
      <trkpt lat="45.92442" lon="4.74245">
        <ele>237.43172</ele>
        <time>2023-08-05T13:52:21.000Z</time>
      </trkpt>
      <trkpt lat="45.92441" lon="4.74243">
        <ele>237.51118</ele>
        <time>2023-08-05T13:52:23.000Z</time>
      </trkpt>
      <trkpt lat="45.92442" lon="4.74241">
        <ele>237.58159</ele>
        <time>2023-08-05T13:52:29.000Z</time>
      </trkpt>
      <trkpt lat="45.92445" lon="4.7424">
        <ele>237.63733</ele>
        <time>2023-08-05T13:52:34.000Z</time>
      </trkpt>
      <trkpt lat="45.92445" lon="4.74236">
        <ele>237.9668</ele>
        <time>2023-08-05T13:52:36.000Z</time>
      </trkpt>
      <trkpt lat="45.92447" lon="4.74234">
        <ele>238.46109</ele>
        <time>2023-08-05T13:52:37.000Z</time>
      </trkpt>
      <trkpt lat="45.92448" lon="4.74232">
        <ele>237.68758</ele>
        <time>2023-08-05T13:52:38.000Z</time>
      </trkpt>
      <trkpt lat="45.92449" lon="4.7423">
        <ele>236.92053</ele>
        <time>2023-08-05T13:52:39.000Z</time>
      </trkpt>
      <trkpt lat="45.92451" lon="4.74227">
        <ele>236.17697</ele>
        <time>2023-08-05T13:52:40.000Z</time>
      </trkpt>
      <trkpt lat="45.92452" lon="4.74224">
        <ele>235.41862</ele>
        <time>2023-08-05T13:52:41.000Z</time>
      </trkpt>
      <trkpt lat="45.9245" lon="4.74222">
        <ele>234.59836</ele>
        <time>2023-08-05T13:52:42.000Z</time>
      </trkpt>
      <trkpt lat="45.92452" lon="4.7422">
        <ele>233.78043</ele>
        <time>2023-08-05T13:52:43.000Z</time>
      </trkpt>
      <trkpt lat="45.92454" lon="4.74216">
        <ele>232.97598</ele>
        <time>2023-08-05T13:52:44.000Z</time>
      </trkpt>
      <trkpt lat="45.92455" lon="4.74212">
        <ele>232.16402</ele>
        <time>2023-08-05T13:52:45.000Z</time>
      </trkpt>
      <trkpt lat="45.92457" lon="4.74209">
        <ele>231.09488</ele>
        <time>2023-08-05T13:52:46.000Z</time>
      </trkpt>
      <trkpt lat="45.92458" lon="4.74205">
        <ele>230.01555</ele>
        <time>2023-08-05T13:52:47.000Z</time>
      </trkpt>
      <trkpt lat="45.92459" lon="4.74202">
        <ele>228.92978</ele>
        <time>2023-08-05T13:52:48.000Z</time>
      </trkpt>
      <trkpt lat="45.9246" lon="4.74199">
        <ele>227.84958</ele>
        <time>2023-08-05T13:52:49.000Z</time>
      </trkpt>
      <trkpt lat="45.92462" lon="4.74195">
        <ele>226.62198</ele>
        <time>2023-08-05T13:52:51.000Z</time>
      </trkpt>
      <trkpt lat="45.92463" lon="4.74193">
        <ele>225.91489</ele>
        <time>2023-08-05T13:52:52.000Z</time>
      </trkpt>
      <trkpt lat="45.92464" lon="4.7419">
        <ele>225.07365</ele>
        <time>2023-08-05T13:52:53.000Z</time>
      </trkpt>
      <trkpt lat="45.92465" lon="4.74187">
        <ele>224.23154</ele>
        <time>2023-08-05T13:52:54.000Z</time>
      </trkpt>
      <trkpt lat="45.92467" lon="4.74183">
        <ele>223.39908</ele>
        <time>2023-08-05T13:52:55.000Z</time>
      </trkpt>
      <trkpt lat="45.92468" lon="4.74179">
        <ele>222.58418</ele>
        <time>2023-08-05T13:52:56.000Z</time>
      </trkpt>
      <trkpt lat="45.92469" lon="4.74176">
        <ele>221.49329</ele>
        <time>2023-08-05T13:52:57.000Z</time>
      </trkpt>
      <trkpt lat="45.92471" lon="4.74171">
        <ele>220.23235</ele>
        <time>2023-08-05T13:52:58.000Z</time>
      </trkpt>
      <trkpt lat="45.92472" lon="4.74167">
        <ele>220.22104</ele>
        <time>2023-08-05T13:52:59.000Z</time>
      </trkpt>
      <trkpt lat="45.92473" lon="4.74163">
        <ele>220.19182</ele>
        <time>2023-08-05T13:53:00.000Z</time>
      </trkpt>
      <trkpt lat="45.92474" lon="4.74159">
        <ele>220.1492</ele>
        <time>2023-08-05T13:53:01.000Z</time>
      </trkpt>
      <trkpt lat="45.92475" lon="4.74154">
        <ele>220.12329</ele>
        <time>2023-08-05T13:53:02.000Z</time>
      </trkpt>
      <trkpt lat="45.92476" lon="4.7415">
        <ele>220.14102</ele>
        <time>2023-08-05T13:53:03.000Z</time>
      </trkpt>
      <trkpt lat="45.92478" lon="4.74146">
        <ele>220.16794</ele>
        <time>2023-08-05T13:53:04.000Z</time>
      </trkpt>
      <trkpt lat="45.92479" lon="4.74142">
        <ele>220.18327</ele>
        <time>2023-08-05T13:53:05.000Z</time>
      </trkpt>
      <trkpt lat="45.9248" lon="4.74138">
        <ele>220.26071</ele>
        <time>2023-08-05T13:53:06.000Z</time>
      </trkpt>
      <trkpt lat="45.92482" lon="4.74133">
        <ele>220.35599</ele>
        <time>2023-08-05T13:53:07.000Z</time>
      </trkpt>
      <trkpt lat="45.92483" lon="4.74129">
        <ele>220.44165</ele>
        <time>2023-08-05T13:53:08.000Z</time>
      </trkpt>
      <trkpt lat="45.92485" lon="4.74125">
        <ele>220.52881</ele>
        <time>2023-08-05T13:53:09.000Z</time>
      </trkpt>
      <trkpt lat="45.92486" lon="4.74121">
        <ele>220.61722</ele>
        <time>2023-08-05T13:53:10.000Z</time>
      </trkpt>
      <trkpt lat="45.92488" lon="4.74116">
        <ele>220.67976</ele>
        <time>2023-08-05T13:53:11.000Z</time>
      </trkpt>
      <trkpt lat="45.9249" lon="4.74112">
        <ele>220.74797</ele>
        <time>2023-08-05T13:53:12.000Z</time>
      </trkpt>
      <trkpt lat="45.92492" lon="4.74108">
        <ele>220.84631</ele>
        <time>2023-08-05T13:53:13.000Z</time>
      </trkpt>
      <trkpt lat="45.92494" lon="4.74105">
        <ele>220.9407</ele>
        <time>2023-08-05T13:53:14.000Z</time>
      </trkpt>
      <trkpt lat="45.92497" lon="4.74101">
        <ele>221.03955</ele>
        <time>2023-08-05T13:53:15.000Z</time>
      </trkpt>
      <trkpt lat="45.925" lon="4.74096">
        <ele>221.12369</ele>
        <time>2023-08-05T13:53:16.000Z</time>
      </trkpt>
      <trkpt lat="45.92502" lon="4.74093">
        <ele>221.21451</ele>
        <time>2023-08-05T13:53:17.000Z</time>
      </trkpt>
      <trkpt lat="45.92505" lon="4.74089">
        <ele>221.29776</ele>
        <time>2023-08-05T13:53:18.000Z</time>
      </trkpt>
      <trkpt lat="45.92508" lon="4.74085">
        <ele>221.39253</ele>
        <time>2023-08-05T13:53:19.000Z</time>
      </trkpt>
      <trkpt lat="45.92511" lon="4.74081">
        <ele>221.48703</ele>
        <time>2023-08-05T13:53:20.000Z</time>
      </trkpt>
      <trkpt lat="45.92515" lon="4.74077">
        <ele>221.59937</ele>
        <time>2023-08-05T13:53:21.000Z</time>
      </trkpt>
      <trkpt lat="45.92518" lon="4.74073">
        <ele>221.70512</ele>
        <time>2023-08-05T13:53:22.000Z</time>
      </trkpt>
      <trkpt lat="45.92521" lon="4.74069">
        <ele>221.80852</ele>
        <time>2023-08-05T13:53:23.000Z</time>
      </trkpt>
      <trkpt lat="45.92524" lon="4.74065">
        <ele>221.90323</ele>
        <time>2023-08-05T13:53:24.000Z</time>
      </trkpt>
      <trkpt lat="45.92527" lon="4.74061">
        <ele>221.98605</ele>
        <time>2023-08-05T13:53:25.000Z</time>
      </trkpt>
      <trkpt lat="45.9253" lon="4.74057">
        <ele>222.00911</ele>
        <time>2023-08-05T13:53:26.000Z</time>
      </trkpt>
      <trkpt lat="45.92533" lon="4.74053">
        <ele>222.04207</ele>
        <time>2023-08-05T13:53:27.000Z</time>
      </trkpt>
      <trkpt lat="45.92536" lon="4.74049">
        <ele>222.05815</ele>
        <time>2023-08-05T13:53:28.000Z</time>
      </trkpt>
      <trkpt lat="45.92539" lon="4.74045">
        <ele>222.08134</ele>
        <time>2023-08-05T13:53:29.000Z</time>
      </trkpt>
      <trkpt lat="45.92542" lon="4.7404">
        <ele>222.08102</ele>
        <time>2023-08-05T13:53:30.000Z</time>
      </trkpt>
      <trkpt lat="45.92545" lon="4.74035">
        <ele>222.08662</ele>
        <time>2023-08-05T13:53:31.000Z</time>
      </trkpt>
      <trkpt lat="45.92548" lon="4.7403">
        <ele>222.06827</ele>
        <time>2023-08-05T13:53:32.000Z</time>
      </trkpt>
      <trkpt lat="45.92551" lon="4.74026">
        <ele>222.04929</ele>
        <time>2023-08-05T13:53:33.000Z</time>
      </trkpt>
      <trkpt lat="45.92553" lon="4.74021">
        <ele>222.02112</ele>
        <time>2023-08-05T13:53:34.000Z</time>
      </trkpt>
      <trkpt lat="45.92555" lon="4.74015">
        <ele>221.99997</ele>
        <time>2023-08-05T13:53:35.000Z</time>
      </trkpt>
      <trkpt lat="45.92556" lon="4.74009">
        <ele>221.98233</ele>
        <time>2023-08-05T13:53:36.000Z</time>
      </trkpt>
      <trkpt lat="45.92555" lon="4.74004">
        <ele>221.96542</ele>
        <time>2023-08-05T13:53:37.000Z</time>
      </trkpt>
      <trkpt lat="45.92552" lon="4.73998">
        <ele>221.95903</ele>
        <time>2023-08-05T13:53:38.000Z</time>
      </trkpt>
      <trkpt lat="45.92549" lon="4.73994">
        <ele>221.95361</ele>
        <time>2023-08-05T13:53:39.000Z</time>
      </trkpt>
      <trkpt lat="45.92545" lon="4.73992">
        <ele>221.92648</ele>
        <time>2023-08-05T13:53:40.000Z</time>
      </trkpt>
      <trkpt lat="45.9254" lon="4.7399">
        <ele>221.90543</ele>
        <time>2023-08-05T13:53:41.000Z</time>
      </trkpt>
      <trkpt lat="45.92535" lon="4.73988">
        <ele>221.87167</ele>
        <time>2023-08-05T13:53:42.000Z</time>
      </trkpt>
      <trkpt lat="45.92531" lon="4.73987">
        <ele>221.84468</ele>
        <time>2023-08-05T13:53:43.000Z</time>
      </trkpt>
      <trkpt lat="45.92525" lon="4.73986">
        <ele>221.83737</ele>
        <time>2023-08-05T13:53:44.000Z</time>
      </trkpt>
      <trkpt lat="45.9252" lon="4.73984">
        <ele>221.86438</ele>
        <time>2023-08-05T13:53:45.000Z</time>
      </trkpt>
      <trkpt lat="45.92516" lon="4.73982">
        <ele>221.88298</ele>
        <time>2023-08-05T13:53:46.000Z</time>
      </trkpt>
      <trkpt lat="45.92512" lon="4.7398">
        <ele>221.85661</ele>
        <time>2023-08-05T13:53:47.000Z</time>
      </trkpt>
      <trkpt lat="45.92508" lon="4.73977">
        <ele>221.84827</ele>
        <time>2023-08-05T13:53:48.000Z</time>
      </trkpt>
      <trkpt lat="45.92503" lon="4.73974">
        <ele>221.82837</ele>
        <time>2023-08-05T13:53:49.000Z</time>
      </trkpt>
      <trkpt lat="45.92498" lon="4.73972">
        <ele>221.87321</ele>
        <time>2023-08-05T13:53:50.000Z</time>
      </trkpt>
      <trkpt lat="45.92494" lon="4.7397">
        <ele>221.89554</ele>
        <time>2023-08-05T13:53:51.000Z</time>
      </trkpt>
      <trkpt lat="45.92489" lon="4.73968">
        <ele>221.94283</ele>
        <time>2023-08-05T13:53:52.000Z</time>
      </trkpt>
      <trkpt lat="45.92485" lon="4.73966">
        <ele>221.99866</ele>
        <time>2023-08-05T13:53:53.000Z</time>
      </trkpt>
      <trkpt lat="45.92481" lon="4.73964">
        <ele>222.05351</ele>
        <time>2023-08-05T13:53:54.000Z</time>
      </trkpt>
      <trkpt lat="45.92476" lon="4.73962">
        <ele>222.09045</ele>
        <time>2023-08-05T13:53:55.000Z</time>
      </trkpt>
      <trkpt lat="45.92471" lon="4.7396">
        <ele>222.1254</ele>
        <time>2023-08-05T13:53:56.000Z</time>
      </trkpt>
      <trkpt lat="45.92467" lon="4.73956">
        <ele>222.15579</ele>
        <time>2023-08-05T13:53:57.000Z</time>
      </trkpt>
      <trkpt lat="45.92463" lon="4.73954">
        <ele>222.19861</ele>
        <time>2023-08-05T13:53:58.000Z</time>
      </trkpt>
      <trkpt lat="45.92458" lon="4.73951">
        <ele>222.26143</ele>
        <time>2023-08-05T13:53:59.000Z</time>
      </trkpt>
      <trkpt lat="45.92455" lon="4.73951">
        <ele>222.28348</ele>
        <time>2023-08-05T13:54:00.000Z</time>
      </trkpt>
      <trkpt lat="45.92451" lon="4.73949">
        <ele>222.28613</ele>
        <time>2023-08-05T13:54:01.000Z</time>
      </trkpt>
      <trkpt lat="45.92446" lon="4.73949">
        <ele>222.33456</ele>
        <time>2023-08-05T13:54:02.000Z</time>
      </trkpt>
      <trkpt lat="45.92442" lon="4.73948">
        <ele>222.38187</ele>
        <time>2023-08-05T13:54:03.000Z</time>
      </trkpt>
      <trkpt lat="45.92438" lon="4.73947">
        <ele>222.41309</ele>
        <time>2023-08-05T13:54:04.000Z</time>
      </trkpt>
      <trkpt lat="45.92433" lon="4.73947">
        <ele>222.43135</ele>
        <time>2023-08-05T13:54:05.000Z</time>
      </trkpt>
      <trkpt lat="45.92428" lon="4.73946">
        <ele>222.47275</ele>
        <time>2023-08-05T13:54:06.000Z</time>
      </trkpt>
      <trkpt lat="45.92423" lon="4.73945">
        <ele>222.57632</ele>
        <time>2023-08-05T13:54:07.000Z</time>
      </trkpt>
      <trkpt lat="45.92419" lon="4.73945">
        <ele>222.66946</ele>
        <time>2023-08-05T13:54:08.000Z</time>
      </trkpt>
      <trkpt lat="45.92414" lon="4.73944">
        <ele>222.74194</ele>
        <time>2023-08-05T13:54:09.000Z</time>
      </trkpt>
      <trkpt lat="45.92409" lon="4.73944">
        <ele>222.76611</ele>
        <time>2023-08-05T13:54:10.000Z</time>
      </trkpt>
      <trkpt lat="45.92404" lon="4.73943">
        <ele>222.76514</ele>
        <time>2023-08-05T13:54:11.000Z</time>
      </trkpt>
      <trkpt lat="45.924" lon="4.7394">
        <ele>222.76035</ele>
        <time>2023-08-05T13:54:12.000Z</time>
      </trkpt>
      <trkpt lat="45.92394" lon="4.73938">
        <ele>222.75452</ele>
        <time>2023-08-05T13:54:13.000Z</time>
      </trkpt>
      <trkpt lat="45.92389" lon="4.73937">
        <ele>222.73027</ele>
        <time>2023-08-05T13:54:14.000Z</time>
      </trkpt>
      <trkpt lat="45.92384" lon="4.73935">
        <ele>222.71724</ele>
        <time>2023-08-05T13:54:15.000Z</time>
      </trkpt>
      <trkpt lat="45.92379" lon="4.73933">
        <ele>222.71101</ele>
        <time>2023-08-05T13:54:16.000Z</time>
      </trkpt>
      <trkpt lat="45.92375" lon="4.73932">
        <ele>222.70877</ele>
        <time>2023-08-05T13:54:17.000Z</time>
      </trkpt>
      <trkpt lat="45.9237" lon="4.73931">
        <ele>222.69751</ele>
        <time>2023-08-05T13:54:18.000Z</time>
      </trkpt>
      <trkpt lat="45.92365" lon="4.73931">
        <ele>222.67331</ele>
        <time>2023-08-05T13:54:19.000Z</time>
      </trkpt>
      <trkpt lat="45.9236" lon="4.7393">
        <ele>222.7218</ele>
        <time>2023-08-05T13:54:20.000Z</time>
      </trkpt>
      <trkpt lat="45.92355" lon="4.73928">
        <ele>222.77115</ele>
        <time>2023-08-05T13:54:21.000Z</time>
      </trkpt>
      <trkpt lat="45.92351" lon="4.73925">
        <ele>222.78543</ele>
        <time>2023-08-05T13:54:22.000Z</time>
      </trkpt>
      <trkpt lat="45.92346" lon="4.73923">
        <ele>222.80188</ele>
        <time>2023-08-05T13:54:23.000Z</time>
      </trkpt>
      <trkpt lat="45.92342" lon="4.73921">
        <ele>222.80669</ele>
        <time>2023-08-05T13:54:24.000Z</time>
      </trkpt>
      <trkpt lat="45.92337" lon="4.73919">
        <ele>222.78781</ele>
        <time>2023-08-05T13:54:25.000Z</time>
      </trkpt>
      <trkpt lat="45.92332" lon="4.73917">
        <ele>222.74968</ele>
        <time>2023-08-05T13:54:26.000Z</time>
      </trkpt>
      <trkpt lat="45.92327" lon="4.73916">
        <ele>222.65298</ele>
        <time>2023-08-05T13:54:27.000Z</time>
      </trkpt>
      <trkpt lat="45.92322" lon="4.73915">
        <ele>222.56131</ele>
        <time>2023-08-05T13:54:28.000Z</time>
      </trkpt>
      <trkpt lat="45.92316" lon="4.73913">
        <ele>222.4738</ele>
        <time>2023-08-05T13:54:29.000Z</time>
      </trkpt>
      <trkpt lat="45.9231" lon="4.73911">
        <ele>222.35258</ele>
        <time>2023-08-05T13:54:30.000Z</time>
      </trkpt>
      <trkpt lat="45.92306" lon="4.7391">
        <ele>222.24863</ele>
        <time>2023-08-05T13:54:31.000Z</time>
      </trkpt>
      <trkpt lat="45.923" lon="4.73908">
        <ele>222.13269</ele>
        <time>2023-08-05T13:54:32.000Z</time>
      </trkpt>
      <trkpt lat="45.92295" lon="4.73907">
        <ele>222.02469</ele>
        <time>2023-08-05T13:54:33.000Z</time>
      </trkpt>
      <trkpt lat="45.9229" lon="4.73906">
        <ele>221.94974</ele>
        <time>2023-08-05T13:54:34.000Z</time>
      </trkpt>
      <trkpt lat="45.92285" lon="4.73905">
        <ele>221.87325</ele>
        <time>2023-08-05T13:54:35.000Z</time>
      </trkpt>
      <trkpt lat="45.9228" lon="4.73903">
        <ele>221.78389</ele>
        <time>2023-08-05T13:54:36.000Z</time>
      </trkpt>
      <trkpt lat="45.92275" lon="4.73901">
        <ele>221.71428</ele>
        <time>2023-08-05T13:54:37.000Z</time>
      </trkpt>
      <trkpt lat="45.9227" lon="4.73899">
        <ele>221.62695</ele>
        <time>2023-08-05T13:54:38.000Z</time>
      </trkpt>
      <trkpt lat="45.92265" lon="4.73898">
        <ele>221.52876</ele>
        <time>2023-08-05T13:54:39.000Z</time>
      </trkpt>
      <trkpt lat="45.9226" lon="4.73896">
        <ele>221.42815</ele>
        <time>2023-08-05T13:54:40.000Z</time>
      </trkpt>
      <trkpt lat="45.92255" lon="4.73895">
        <ele>221.32756</ele>
        <time>2023-08-05T13:54:41.000Z</time>
      </trkpt>
      <trkpt lat="45.9225" lon="4.73893">
        <ele>221.20972</ele>
        <time>2023-08-05T13:54:42.000Z</time>
      </trkpt>
      <trkpt lat="45.92245" lon="4.73892">
        <ele>221.11288</ele>
        <time>2023-08-05T13:54:43.000Z</time>
      </trkpt>
      <trkpt lat="45.92239" lon="4.73891">
        <ele>221.03142</ele>
        <time>2023-08-05T13:54:44.000Z</time>
      </trkpt>
      <trkpt lat="45.92234" lon="4.73889">
        <ele>220.95541</ele>
        <time>2023-08-05T13:54:45.000Z</time>
      </trkpt>
      <trkpt lat="45.9223" lon="4.73888">
        <ele>220.87935</ele>
        <time>2023-08-05T13:54:46.000Z</time>
      </trkpt>
      <trkpt lat="45.92225" lon="4.73886">
        <ele>220.83521</ele>
        <time>2023-08-05T13:54:47.000Z</time>
      </trkpt>
      <trkpt lat="45.9222" lon="4.73884">
        <ele>220.80618</ele>
        <time>2023-08-05T13:54:48.000Z</time>
      </trkpt>
      <trkpt lat="45.92215" lon="4.73883">
        <ele>220.81387</ele>
        <time>2023-08-05T13:54:49.000Z</time>
      </trkpt>
      <trkpt lat="45.9221" lon="4.73881">
        <ele>220.85995</ele>
        <time>2023-08-05T13:54:50.000Z</time>
      </trkpt>
      <trkpt lat="45.92204" lon="4.73881">
        <ele>220.92178</ele>
        <time>2023-08-05T13:54:51.000Z</time>
      </trkpt>
      <trkpt lat="45.92198" lon="4.7388">
        <ele>220.97812</ele>
        <time>2023-08-05T13:54:52.000Z</time>
      </trkpt>
      <trkpt lat="45.92193" lon="4.7388">
        <ele>221.03349</ele>
        <time>2023-08-05T13:54:53.000Z</time>
      </trkpt>
      <trkpt lat="45.92187" lon="4.7388">
        <ele>221.07039</ele>
        <time>2023-08-05T13:54:54.000Z</time>
      </trkpt>
      <trkpt lat="45.92182" lon="4.7388">
        <ele>221.08749</ele>
        <time>2023-08-05T13:54:55.000Z</time>
      </trkpt>
      <trkpt lat="45.92176" lon="4.7388">
        <ele>221.09927</ele>
        <time>2023-08-05T13:54:56.000Z</time>
      </trkpt>
      <trkpt lat="45.9217" lon="4.73879">
        <ele>221.10579</ele>
        <time>2023-08-05T13:54:57.000Z</time>
      </trkpt>
      <trkpt lat="45.92165" lon="4.73878">
        <ele>221.12631</ele>
        <time>2023-08-05T13:54:58.000Z</time>
      </trkpt>
      <trkpt lat="45.92159" lon="4.73879">
        <ele>221.16586</ele>
        <time>2023-08-05T13:54:59.000Z</time>
      </trkpt>
      <trkpt lat="45.92153" lon="4.73878">
        <ele>221.19727</ele>
        <time>2023-08-05T13:55:00.000Z</time>
      </trkpt>
      <trkpt lat="45.92147" lon="4.73878">
        <ele>221.23894</ele>
        <time>2023-08-05T13:55:01.000Z</time>
      </trkpt>
      <trkpt lat="45.92142" lon="4.73879">
        <ele>221.32303</ele>
        <time>2023-08-05T13:55:02.000Z</time>
      </trkpt>
      <trkpt lat="45.92137" lon="4.7388">
        <ele>221.36116</ele>
        <time>2023-08-05T13:55:03.000Z</time>
      </trkpt>
      <trkpt lat="45.92132" lon="4.7388">
        <ele>221.38354</ele>
        <time>2023-08-05T13:55:04.000Z</time>
      </trkpt>
      <trkpt lat="45.92127" lon="4.73881">
        <ele>221.40584</ele>
        <time>2023-08-05T13:55:05.000Z</time>
      </trkpt>
      <trkpt lat="45.92121" lon="4.73882">
        <ele>221.41757</ele>
        <time>2023-08-05T13:55:06.000Z</time>
      </trkpt>
      <trkpt lat="45.92116" lon="4.73882">
        <ele>221.41606</ele>
        <time>2023-08-05T13:55:07.000Z</time>
      </trkpt>
      <trkpt lat="45.92111" lon="4.73883">
        <ele>221.41635</ele>
        <time>2023-08-05T13:55:08.000Z</time>
      </trkpt>
      <trkpt lat="45.92106" lon="4.73883">
        <ele>221.39285</ele>
        <time>2023-08-05T13:55:09.000Z</time>
      </trkpt>
      <trkpt lat="45.921" lon="4.73884">
        <ele>221.35678</ele>
        <time>2023-08-05T13:55:10.000Z</time>
      </trkpt>
      <trkpt lat="45.92096" lon="4.73884">
        <ele>221.32268</ele>
        <time>2023-08-05T13:55:11.000Z</time>
      </trkpt>
      <trkpt lat="45.9209" lon="4.73884">
        <ele>221.30667</ele>
        <time>2023-08-05T13:55:12.000Z</time>
      </trkpt>
      <trkpt lat="45.92085" lon="4.73884">
        <ele>221.26729</ele>
        <time>2023-08-05T13:55:13.000Z</time>
      </trkpt>
      <trkpt lat="45.92079" lon="4.73885">
        <ele>221.23929</ele>
        <time>2023-08-05T13:55:14.000Z</time>
      </trkpt>
      <trkpt lat="45.92074" lon="4.73886">
        <ele>221.23763</ele>
        <time>2023-08-05T13:55:15.000Z</time>
      </trkpt>
      <trkpt lat="45.92068" lon="4.73888">
        <ele>221.23779</ele>
        <time>2023-08-05T13:55:16.000Z</time>
      </trkpt>
      <trkpt lat="45.92062" lon="4.73889">
        <ele>221.22981</ele>
        <time>2023-08-05T13:55:17.000Z</time>
      </trkpt>
      <trkpt lat="45.92056" lon="4.7389">
        <ele>221.20952</ele>
        <time>2023-08-05T13:55:18.000Z</time>
      </trkpt>
      <trkpt lat="45.9205" lon="4.73891">
        <ele>221.16772</ele>
        <time>2023-08-05T13:55:19.000Z</time>
      </trkpt>
      <trkpt lat="45.92045" lon="4.73892">
        <ele>221.12524</ele>
        <time>2023-08-05T13:55:20.000Z</time>
      </trkpt>
      <trkpt lat="45.92039" lon="4.73893">
        <ele>221.09026</ele>
        <time>2023-08-05T13:55:21.000Z</time>
      </trkpt>
      <trkpt lat="45.92033" lon="4.73893">
        <ele>221.03716</ele>
        <time>2023-08-05T13:55:22.000Z</time>
      </trkpt>
      <trkpt lat="45.92028" lon="4.73893">
        <ele>221.00969</ele>
        <time>2023-08-05T13:55:23.000Z</time>
      </trkpt>
      <trkpt lat="45.92022" lon="4.73893">
        <ele>220.98372</ele>
        <time>2023-08-05T13:55:24.000Z</time>
      </trkpt>
      <trkpt lat="45.92017" lon="4.73894">
        <ele>220.98071</ele>
        <time>2023-08-05T13:55:25.000Z</time>
      </trkpt>
      <trkpt lat="45.92012" lon="4.73894">
        <ele>220.99911</ele>
        <time>2023-08-05T13:55:26.000Z</time>
      </trkpt>
      <trkpt lat="45.92007" lon="4.73894">
        <ele>221.03867</ele>
        <time>2023-08-05T13:55:27.000Z</time>
      </trkpt>
      <trkpt lat="45.92002" lon="4.73895">
        <ele>221.07458</ele>
        <time>2023-08-05T13:55:28.000Z</time>
      </trkpt>
      <trkpt lat="45.91996" lon="4.73896">
        <ele>221.11177</ele>
        <time>2023-08-05T13:55:29.000Z</time>
      </trkpt>
      <trkpt lat="45.91991" lon="4.73896">
        <ele>221.15134</ele>
        <time>2023-08-05T13:55:30.000Z</time>
      </trkpt>
      <trkpt lat="45.91985" lon="4.73896">
        <ele>221.17476</ele>
        <time>2023-08-05T13:55:31.000Z</time>
      </trkpt>
      <trkpt lat="45.9198" lon="4.73896">
        <ele>221.18716</ele>
        <time>2023-08-05T13:55:32.000Z</time>
      </trkpt>
      <trkpt lat="45.91974" lon="4.73896">
        <ele>221.21184</ele>
        <time>2023-08-05T13:55:33.000Z</time>
      </trkpt>
      <trkpt lat="45.91969" lon="4.73895">
        <ele>221.23347</ele>
        <time>2023-08-05T13:55:34.000Z</time>
      </trkpt>
      <trkpt lat="45.91963" lon="4.73894">
        <ele>221.23685</ele>
        <time>2023-08-05T13:55:35.000Z</time>
      </trkpt>
      <trkpt lat="45.91958" lon="4.73892">
        <ele>221.26596</ele>
        <time>2023-08-05T13:55:36.000Z</time>
      </trkpt>
      <trkpt lat="45.91952" lon="4.7389">
        <ele>221.29333</ele>
        <time>2023-08-05T13:55:37.000Z</time>
      </trkpt>
      <trkpt lat="45.91947" lon="4.73889">
        <ele>221.31941</ele>
        <time>2023-08-05T13:55:38.000Z</time>
      </trkpt>
      <trkpt lat="45.91942" lon="4.73887">
        <ele>221.34981</ele>
        <time>2023-08-05T13:55:39.000Z</time>
      </trkpt>
      <trkpt lat="45.91937" lon="4.73883">
        <ele>221.39641</ele>
        <time>2023-08-05T13:55:40.000Z</time>
      </trkpt>
      <trkpt lat="45.91932" lon="4.73879">
        <ele>221.45207</ele>
        <time>2023-08-05T13:55:41.000Z</time>
      </trkpt>
      <trkpt lat="45.91927" lon="4.73874">
        <ele>221.51938</ele>
        <time>2023-08-05T13:55:42.000Z</time>
      </trkpt>
      <trkpt lat="45.91923" lon="4.73869">
        <ele>221.57735</ele>
        <time>2023-08-05T13:55:43.000Z</time>
      </trkpt>
      <trkpt lat="45.9192" lon="4.73863">
        <ele>221.63538</ele>
        <time>2023-08-05T13:55:44.000Z</time>
      </trkpt>
      <trkpt lat="45.91916" lon="4.73858">
        <ele>221.689</ele>
        <time>2023-08-05T13:55:45.000Z</time>
      </trkpt>
      <trkpt lat="45.91911" lon="4.73853">
        <ele>221.74043</ele>
        <time>2023-08-05T13:55:46.000Z</time>
      </trkpt>
      <trkpt lat="45.91908" lon="4.73847">
        <ele>221.77371</ele>
        <time>2023-08-05T13:55:47.000Z</time>
      </trkpt>
      <trkpt lat="45.91904" lon="4.73842">
        <ele>221.78128</ele>
        <time>2023-08-05T13:55:48.000Z</time>
      </trkpt>
      <trkpt lat="45.91901" lon="4.73836">
        <ele>221.78239</ele>
        <time>2023-08-05T13:55:49.000Z</time>
      </trkpt>
      <trkpt lat="45.91897" lon="4.73831">
        <ele>221.81143</ele>
        <time>2023-08-05T13:55:50.000Z</time>
      </trkpt>
      <trkpt lat="45.91893" lon="4.73826">
        <ele>221.84558</ele>
        <time>2023-08-05T13:55:51.000Z</time>
      </trkpt>
      <trkpt lat="45.9189" lon="4.7382">
        <ele>221.90141</ele>
        <time>2023-08-05T13:55:52.000Z</time>
      </trkpt>
      <trkpt lat="45.91886" lon="4.73815">
        <ele>221.96225</ele>
        <time>2023-08-05T13:55:53.000Z</time>
      </trkpt>
      <trkpt lat="45.91882" lon="4.73809">
        <ele>222.02287</ele>
        <time>2023-08-05T13:55:54.000Z</time>
      </trkpt>
      <trkpt lat="45.91878" lon="4.73805">
        <ele>222.08398</ele>
        <time>2023-08-05T13:55:55.000Z</time>
      </trkpt>
      <trkpt lat="45.91874" lon="4.73801">
        <ele>222.12595</ele>
        <time>2023-08-05T13:55:56.000Z</time>
      </trkpt>
      <trkpt lat="45.9187" lon="4.73796">
        <ele>222.16934</ele>
        <time>2023-08-05T13:55:57.000Z</time>
      </trkpt>
      <trkpt lat="45.91866" lon="4.73792">
        <ele>222.21988</ele>
        <time>2023-08-05T13:55:58.000Z</time>
      </trkpt>
      <trkpt lat="45.91861" lon="4.73788">
        <ele>222.26445</ele>
        <time>2023-08-05T13:55:59.000Z</time>
      </trkpt>
      <trkpt lat="45.91858" lon="4.73783">
        <ele>222.29648</ele>
        <time>2023-08-05T13:56:00.000Z</time>
      </trkpt>
      <trkpt lat="45.91854" lon="4.73778">
        <ele>222.30154</ele>
        <time>2023-08-05T13:56:01.000Z</time>
      </trkpt>
      <trkpt lat="45.91851" lon="4.73773">
        <ele>222.28455</ele>
        <time>2023-08-05T13:56:02.000Z</time>
      </trkpt>
      <trkpt lat="45.91847" lon="4.73766">
        <ele>222.24239</ele>
        <time>2023-08-05T13:56:03.000Z</time>
      </trkpt>
      <trkpt lat="45.91844" lon="4.73761">
        <ele>222.21292</ele>
        <time>2023-08-05T13:56:04.000Z</time>
      </trkpt>
      <trkpt lat="45.91841" lon="4.73756">
        <ele>222.18155</ele>
        <time>2023-08-05T13:56:05.000Z</time>
      </trkpt>
      <trkpt lat="45.91838" lon="4.73751">
        <ele>222.1386</ele>
        <time>2023-08-05T13:56:06.000Z</time>
      </trkpt>
      <trkpt lat="45.91834" lon="4.73747">
        <ele>222.1066</ele>
        <time>2023-08-05T13:56:07.000Z</time>
      </trkpt>
      <trkpt lat="45.91831" lon="4.73742">
        <ele>222.09122</ele>
        <time>2023-08-05T13:56:08.000Z</time>
      </trkpt>
      <trkpt lat="45.91828" lon="4.73738">
        <ele>222.0975</ele>
        <time>2023-08-05T13:56:09.000Z</time>
      </trkpt>
      <trkpt lat="45.91826" lon="4.73734">
        <ele>222.11353</ele>
        <time>2023-08-05T13:56:10.000Z</time>
      </trkpt>
      <trkpt lat="45.91822" lon="4.73732">
        <ele>222.12125</ele>
        <time>2023-08-05T13:56:11.000Z</time>
      </trkpt>
      <trkpt lat="45.91818" lon="4.73731">
        <ele>222.14738</ele>
        <time>2023-08-05T13:56:12.000Z</time>
      </trkpt>
      <trkpt lat="45.91814" lon="4.73731">
        <ele>222.13571</ele>
        <time>2023-08-05T13:56:13.000Z</time>
      </trkpt>
      <trkpt lat="45.9181" lon="4.73731">
        <ele>222.11848</ele>
        <time>2023-08-05T13:56:14.000Z</time>
      </trkpt>
      <trkpt lat="45.91806" lon="4.73731">
        <ele>222.12263</ele>
        <time>2023-08-05T13:56:15.000Z</time>
      </trkpt>
      <trkpt lat="45.91802" lon="4.73732">
        <ele>222.13132</ele>
        <time>2023-08-05T13:56:16.000Z</time>
      </trkpt>
      <trkpt lat="45.91797" lon="4.73732">
        <ele>222.14912</ele>
        <time>2023-08-05T13:56:17.000Z</time>
      </trkpt>
      <trkpt lat="45.91793" lon="4.73732">
        <ele>222.17549</ele>
        <time>2023-08-05T13:56:18.000Z</time>
      </trkpt>
      <trkpt lat="45.91789" lon="4.73732">
        <ele>222.22754</ele>
        <time>2023-08-05T13:56:19.000Z</time>
      </trkpt>
      <trkpt lat="45.91785" lon="4.73733">
        <ele>222.2648</ele>
        <time>2023-08-05T13:56:20.000Z</time>
      </trkpt>
      <trkpt lat="45.9178" lon="4.73733">
        <ele>222.31421</ele>
        <time>2023-08-05T13:56:21.000Z</time>
      </trkpt>
      <trkpt lat="45.91775" lon="4.73733">
        <ele>222.36868</ele>
        <time>2023-08-05T13:56:22.000Z</time>
      </trkpt>
      <trkpt lat="45.91769" lon="4.73734">
        <ele>222.47884</ele>
        <time>2023-08-05T13:56:23.000Z</time>
      </trkpt>
      <trkpt lat="45.91764" lon="4.73734">
        <ele>222.63501</ele>
        <time>2023-08-05T13:56:24.000Z</time>
      </trkpt>
      <trkpt lat="45.91758" lon="4.73734">
        <ele>222.79036</ele>
        <time>2023-08-05T13:56:25.000Z</time>
      </trkpt>
      <trkpt lat="45.91753" lon="4.73734">
        <ele>222.96078</ele>
        <time>2023-08-05T13:56:26.000Z</time>
      </trkpt>
      <trkpt lat="45.91748" lon="4.73735">
        <ele>223.11365</ele>
        <time>2023-08-05T13:56:27.000Z</time>
      </trkpt>
      <trkpt lat="45.91743" lon="4.73733">
        <ele>223.28635</ele>
        <time>2023-08-05T13:56:28.000Z</time>
      </trkpt>
      <trkpt lat="45.91738" lon="4.73733">
        <ele>223.43367</ele>
        <time>2023-08-05T13:56:29.000Z</time>
      </trkpt>
      <trkpt lat="45.91732" lon="4.73735">
        <ele>223.51811</ele>
        <time>2023-08-05T13:56:30.000Z</time>
      </trkpt>
      <trkpt lat="45.91727" lon="4.73734">
        <ele>223.62256</ele>
        <time>2023-08-05T13:56:31.000Z</time>
      </trkpt>
      <trkpt lat="45.91721" lon="4.73734">
        <ele>223.71252</ele>
        <time>2023-08-05T13:56:32.000Z</time>
      </trkpt>
      <trkpt lat="45.91716" lon="4.73734">
        <ele>223.80527</ele>
        <time>2023-08-05T13:56:33.000Z</time>
      </trkpt>
      <trkpt lat="45.91712" lon="4.73736">
        <ele>223.84554</ele>
        <time>2023-08-05T13:56:34.000Z</time>
      </trkpt>
      <trkpt lat="45.91706" lon="4.73736">
        <ele>223.89917</ele>
        <time>2023-08-05T13:56:35.000Z</time>
      </trkpt>
      <trkpt lat="45.91701" lon="4.73736">
        <ele>223.93758</ele>
        <time>2023-08-05T13:56:36.000Z</time>
      </trkpt>
      <trkpt lat="45.91695" lon="4.73736">
        <ele>223.97641</ele>
        <time>2023-08-05T13:56:37.000Z</time>
      </trkpt>
      <trkpt lat="45.9169" lon="4.73736">
        <ele>224.0217</ele>
        <time>2023-08-05T13:56:38.000Z</time>
      </trkpt>
      <trkpt lat="45.91684" lon="4.73736">
        <ele>224.04968</ele>
        <time>2023-08-05T13:56:39.000Z</time>
      </trkpt>
      <trkpt lat="45.91678" lon="4.73736">
        <ele>224.12241</ele>
        <time>2023-08-05T13:56:40.000Z</time>
      </trkpt>
      <trkpt lat="45.91672" lon="4.73736">
        <ele>224.18852</ele>
        <time>2023-08-05T13:56:41.000Z</time>
      </trkpt>
      <trkpt lat="45.91667" lon="4.73737">
        <ele>224.26675</ele>
        <time>2023-08-05T13:56:42.000Z</time>
      </trkpt>
      <trkpt lat="45.91661" lon="4.73737">
        <ele>224.31509</ele>
        <time>2023-08-05T13:56:43.000Z</time>
      </trkpt>
      <trkpt lat="45.91654" lon="4.73737">
        <ele>224.26485</ele>
        <time>2023-08-05T13:56:44.000Z</time>
      </trkpt>
      <trkpt lat="45.91647" lon="4.73737">
        <ele>224.16801</ele>
        <time>2023-08-05T13:56:45.000Z</time>
      </trkpt>
      <trkpt lat="45.91641" lon="4.73737">
        <ele>224.04729</ele>
        <time>2023-08-05T13:56:46.000Z</time>
      </trkpt>
      <trkpt lat="45.91636" lon="4.73737">
        <ele>223.91708</ele>
        <time>2023-08-05T13:56:47.000Z</time>
      </trkpt>
      <trkpt lat="45.91629" lon="4.73737">
        <ele>223.77371</ele>
        <time>2023-08-05T13:56:48.000Z</time>
      </trkpt>
      <trkpt lat="45.91624" lon="4.73738">
        <ele>223.6342</ele>
        <time>2023-08-05T13:56:49.000Z</time>
      </trkpt>
      <trkpt lat="45.91618" lon="4.73737">
        <ele>223.53293</ele>
        <time>2023-08-05T13:56:50.000Z</time>
      </trkpt>
      <trkpt lat="45.91612" lon="4.73737">
        <ele>223.43332</ele>
        <time>2023-08-05T13:56:51.000Z</time>
      </trkpt>
      <trkpt lat="45.91607" lon="4.73737">
        <ele>223.3073</ele>
        <time>2023-08-05T13:56:52.000Z</time>
      </trkpt>
      <trkpt lat="45.91601" lon="4.73738">
        <ele>223.20964</ele>
        <time>2023-08-05T13:56:53.000Z</time>
      </trkpt>
      <trkpt lat="45.91596" lon="4.73737">
        <ele>223.17744</ele>
        <time>2023-08-05T13:56:54.000Z</time>
      </trkpt>
      <trkpt lat="45.9159" lon="4.73737">
        <ele>223.13049</ele>
        <time>2023-08-05T13:56:55.000Z</time>
      </trkpt>
      <trkpt lat="45.91584" lon="4.73737">
        <ele>223.1066</ele>
        <time>2023-08-05T13:56:56.000Z</time>
      </trkpt>
      <trkpt lat="45.91578" lon="4.73737">
        <ele>223.08366</ele>
        <time>2023-08-05T13:56:57.000Z</time>
      </trkpt>
      <trkpt lat="45.91572" lon="4.73737">
        <ele>223.0499</ele>
        <time>2023-08-05T13:56:58.000Z</time>
      </trkpt>
      <trkpt lat="45.91567" lon="4.73737">
        <ele>223.03464</ele>
        <time>2023-08-05T13:56:59.000Z</time>
      </trkpt>
      <trkpt lat="45.91561" lon="4.73736">
        <ele>222.99043</ele>
        <time>2023-08-05T13:57:00.000Z</time>
      </trkpt>
      <trkpt lat="45.91555" lon="4.73736">
        <ele>222.96304</ele>
        <time>2023-08-05T13:57:01.000Z</time>
      </trkpt>
      <trkpt lat="45.91548" lon="4.73735">
        <ele>222.92862</ele>
        <time>2023-08-05T13:57:02.000Z</time>
      </trkpt>
      <trkpt lat="45.91543" lon="4.73736">
        <ele>222.90195</ele>
        <time>2023-08-05T13:57:03.000Z</time>
      </trkpt>
      <trkpt lat="45.91537" lon="4.73736">
        <ele>222.90146</ele>
        <time>2023-08-05T13:57:04.000Z</time>
      </trkpt>
      <trkpt lat="45.9153" lon="4.73736">
        <ele>222.965</ele>
        <time>2023-08-05T13:57:05.000Z</time>
      </trkpt>
      <trkpt lat="45.91524" lon="4.73736">
        <ele>223.04651</ele>
        <time>2023-08-05T13:57:06.000Z</time>
      </trkpt>
      <trkpt lat="45.91518" lon="4.73736">
        <ele>223.13623</ele>
        <time>2023-08-05T13:57:07.000Z</time>
      </trkpt>
      <trkpt lat="45.91512" lon="4.73736">
        <ele>223.21371</ele>
        <time>2023-08-05T13:57:08.000Z</time>
      </trkpt>
      <trkpt lat="45.91507" lon="4.73736">
        <ele>223.30888</ele>
        <time>2023-08-05T13:57:09.000Z</time>
      </trkpt>
      <trkpt lat="45.91501" lon="4.73736">
        <ele>223.38306</ele>
        <time>2023-08-05T13:57:10.000Z</time>
      </trkpt>
      <trkpt lat="45.91496" lon="4.73737">
        <ele>223.44112</ele>
        <time>2023-08-05T13:57:11.000Z</time>
      </trkpt>
      <trkpt lat="45.9149" lon="4.73737">
        <ele>223.51826</ele>
        <time>2023-08-05T13:57:12.000Z</time>
      </trkpt>
      <trkpt lat="45.91485" lon="4.73737">
        <ele>223.60938</ele>
        <time>2023-08-05T13:57:13.000Z</time>
      </trkpt>
      <trkpt lat="45.91481" lon="4.73736">
        <ele>223.70633</ele>
        <time>2023-08-05T13:57:14.000Z</time>
      </trkpt>
      <trkpt lat="45.91477" lon="4.73734">
        <ele>223.79407</ele>
        <time>2023-08-05T13:57:15.000Z</time>
      </trkpt>
      <trkpt lat="45.91474" lon="4.7373">
        <ele>223.84879</ele>
        <time>2023-08-05T13:57:16.000Z</time>
      </trkpt>
      <trkpt lat="45.91471" lon="4.73724">
        <ele>223.88852</ele>
        <time>2023-08-05T13:57:17.000Z</time>
      </trkpt>
      <trkpt lat="45.91469" lon="4.73716">
        <ele>223.91328</ele>
        <time>2023-08-05T13:57:18.000Z</time>
      </trkpt>
      <trkpt lat="45.91468" lon="4.7371">
        <ele>223.91963</ele>
        <time>2023-08-05T13:57:19.000Z</time>
      </trkpt>
      <trkpt lat="45.91466" lon="4.73703">
        <ele>223.9292</ele>
        <time>2023-08-05T13:57:20.000Z</time>
      </trkpt>
      <trkpt lat="45.91464" lon="4.73697">
        <ele>223.94246</ele>
        <time>2023-08-05T13:57:21.000Z</time>
      </trkpt>
      <trkpt lat="45.91461" lon="4.73691">
        <ele>223.94438</ele>
        <time>2023-08-05T13:57:22.000Z</time>
      </trkpt>
      <trkpt lat="45.91459" lon="4.73685">
        <ele>223.92368</ele>
        <time>2023-08-05T13:57:23.000Z</time>
      </trkpt>
      <trkpt lat="45.91456" lon="4.7368">
        <ele>223.9333</ele>
        <time>2023-08-05T13:57:24.000Z</time>
      </trkpt>
      <trkpt lat="45.91454" lon="4.73675">
        <ele>223.92142</ele>
        <time>2023-08-05T13:57:25.000Z</time>
      </trkpt>
      <trkpt lat="45.91452" lon="4.73672">
        <ele>223.9189</ele>
        <time>2023-08-05T13:57:26.000Z</time>
      </trkpt>
      <trkpt lat="45.9145" lon="4.73669">
        <ele>223.92139</ele>
        <time>2023-08-05T13:57:27.000Z</time>
      </trkpt>
      <trkpt lat="45.91447" lon="4.73665">
        <ele>223.90952</ele>
        <time>2023-08-05T13:57:29.000Z</time>
      </trkpt>
      <trkpt lat="45.91446" lon="4.73662">
        <ele>223.86032</ele>
        <time>2023-08-05T13:57:31.000Z</time>
      </trkpt>
      <trkpt lat="45.91443" lon="4.73659">
        <ele>223.85637</ele>
        <time>2023-08-05T13:57:33.000Z</time>
      </trkpt>
      <trkpt lat="45.91443" lon="4.73656">
        <ele>223.84717</ele>
        <time>2023-08-05T13:57:36.000Z</time>
      </trkpt>
      <trkpt lat="45.91443" lon="4.73653">
        <ele>223.81665</ele>
        <time>2023-08-05T13:57:44.000Z</time>
      </trkpt>
      <trkpt lat="45.91442" lon="4.73649">
        <ele>223.79292</ele>
        <time>2023-08-05T13:57:52.000Z</time>
      </trkpt>
      <trkpt lat="45.91439" lon="4.73646">
        <ele>223.78349</ele>
        <time>2023-08-05T13:57:54.000Z</time>
      </trkpt>
      <trkpt lat="45.91436" lon="4.73645">
        <ele>223.79692</ele>
        <time>2023-08-05T13:57:55.000Z</time>
      </trkpt>
      <trkpt lat="45.91435" lon="4.73641">
        <ele>223.83206</ele>
        <time>2023-08-05T13:57:56.000Z</time>
      </trkpt>
      <trkpt lat="45.91433" lon="4.73637">
        <ele>223.87949</ele>
        <time>2023-08-05T13:57:57.000Z</time>
      </trkpt>
      <trkpt lat="45.91432" lon="4.73633">
        <ele>223.93413</ele>
        <time>2023-08-05T13:57:58.000Z</time>
      </trkpt>
      <trkpt lat="45.91432" lon="4.73628">
        <ele>223.974</ele>
        <time>2023-08-05T13:57:59.000Z</time>
      </trkpt>
      <trkpt lat="45.91431" lon="4.73623">
        <ele>224.0209</ele>
        <time>2023-08-05T13:58:00.000Z</time>
      </trkpt>
      <trkpt lat="45.91431" lon="4.73617">
        <ele>224.05501</ele>
        <time>2023-08-05T13:58:01.000Z</time>
      </trkpt>
      <trkpt lat="45.91431" lon="4.73611">
        <ele>224.09961</ele>
        <time>2023-08-05T13:58:02.000Z</time>
      </trkpt>
      <trkpt lat="45.9143" lon="4.73605">
        <ele>224.14529</ele>
        <time>2023-08-05T13:58:03.000Z</time>
      </trkpt>
      <trkpt lat="45.91429" lon="4.73599">
        <ele>224.1945</ele>
        <time>2023-08-05T13:58:04.000Z</time>
      </trkpt>
      <trkpt lat="45.91428" lon="4.73594">
        <ele>224.21057</ele>
        <time>2023-08-05T13:58:05.000Z</time>
      </trkpt>
      <trkpt lat="45.91427" lon="4.7359">
        <ele>224.24019</ele>
        <time>2023-08-05T13:58:06.000Z</time>
      </trkpt>
      <trkpt lat="45.91427" lon="4.73581">
        <ele>224.27475</ele>
        <time>2023-08-05T13:58:07.000Z</time>
      </trkpt>
      <trkpt lat="45.91427" lon="4.73576">
        <ele>224.32846</ele>
        <time>2023-08-05T13:58:08.000Z</time>
      </trkpt>
      <trkpt lat="45.91426" lon="4.73569">
        <ele>224.40889</ele>
        <time>2023-08-05T13:58:09.000Z</time>
      </trkpt>
      <trkpt lat="45.91425" lon="4.73563">
        <ele>224.46414</ele>
        <time>2023-08-05T13:58:10.000Z</time>
      </trkpt>
      <trkpt lat="45.91425" lon="4.73557">
        <ele>224.54012</ele>
        <time>2023-08-05T13:58:11.000Z</time>
      </trkpt>
      <trkpt lat="45.91425" lon="4.73551">
        <ele>224.6311</ele>
        <time>2023-08-05T13:58:12.000Z</time>
      </trkpt>
      <trkpt lat="45.91424" lon="4.73546">
        <ele>224.73746</ele>
        <time>2023-08-05T13:58:13.000Z</time>
      </trkpt>
      <trkpt lat="45.91424" lon="4.7354">
        <ele>224.76631</ele>
        <time>2023-08-05T13:58:14.000Z</time>
      </trkpt>
      <trkpt lat="45.91424" lon="4.73534">
        <ele>224.77695</ele>
        <time>2023-08-05T13:58:15.000Z</time>
      </trkpt>
      <trkpt lat="45.91424" lon="4.73528">
        <ele>224.76762</ele>
        <time>2023-08-05T13:58:16.000Z</time>
      </trkpt>
      <trkpt lat="45.91425" lon="4.73523">
        <ele>224.73892</ele>
        <time>2023-08-05T13:58:17.000Z</time>
      </trkpt>
      <trkpt lat="45.91424" lon="4.73517">
        <ele>224.70605</ele>
        <time>2023-08-05T13:58:18.000Z</time>
      </trkpt>
      <trkpt lat="45.91422" lon="4.73512">
        <ele>224.69412</ele>
        <time>2023-08-05T13:58:19.000Z</time>
      </trkpt>
      <trkpt lat="45.9142" lon="4.73508">
        <ele>224.66367</ele>
        <time>2023-08-05T13:58:20.000Z</time>
      </trkpt>
      <trkpt lat="45.91416" lon="4.73505">
        <ele>224.62466</ele>
        <time>2023-08-05T13:58:21.000Z</time>
      </trkpt>
      <trkpt lat="45.91413" lon="4.73505">
        <ele>224.54533</ele>
        <time>2023-08-05T13:58:22.000Z</time>
      </trkpt>
      <trkpt lat="45.91409" lon="4.73505">
        <ele>224.48413</ele>
        <time>2023-08-05T13:58:23.000Z</time>
      </trkpt>
      <trkpt lat="45.91405" lon="4.73506">
        <ele>224.40608</ele>
        <time>2023-08-05T13:58:24.000Z</time>
      </trkpt>
      <trkpt lat="45.91401" lon="4.73507">
        <ele>224.38089</ele>
        <time>2023-08-05T13:58:25.000Z</time>
      </trkpt>
      <trkpt lat="45.91397" lon="4.73507">
        <ele>224.34152</ele>
        <time>2023-08-05T13:58:26.000Z</time>
      </trkpt>
      <trkpt lat="45.91392" lon="4.73508">
        <ele>224.30969</ele>
        <time>2023-08-05T13:58:27.000Z</time>
      </trkpt>
      <trkpt lat="45.91388" lon="4.73507">
        <ele>224.2739</ele>
        <time>2023-08-05T13:58:28.000Z</time>
      </trkpt>
      <trkpt lat="45.91384" lon="4.73507">
        <ele>224.24875</ele>
        <time>2023-08-05T13:58:29.000Z</time>
      </trkpt>
      <trkpt lat="45.9138" lon="4.73507">
        <ele>224.18887</ele>
        <time>2023-08-05T13:58:30.000Z</time>
      </trkpt>
      <trkpt lat="45.91377" lon="4.73506">
        <ele>224.11394</ele>
        <time>2023-08-05T13:58:31.000Z</time>
      </trkpt>
      <trkpt lat="45.91372" lon="4.73505">
        <ele>224.01872</ele>
        <time>2023-08-05T13:58:32.000Z</time>
      </trkpt>
      <trkpt lat="45.91367" lon="4.73504">
        <ele>223.90845</ele>
        <time>2023-08-05T13:58:33.000Z</time>
      </trkpt>
      <trkpt lat="45.91364" lon="4.73503">
        <ele>223.87068</ele>
        <time>2023-08-05T13:58:34.000Z</time>
      </trkpt>
      <trkpt lat="45.91358" lon="4.73502">
        <ele>223.80331</ele>
        <time>2023-08-05T13:58:35.000Z</time>
      </trkpt>
      <trkpt lat="45.91354" lon="4.73502">
        <ele>223.7502</ele>
        <time>2023-08-05T13:58:36.000Z</time>
      </trkpt>
      <trkpt lat="45.9135" lon="4.73501">
        <ele>223.69495</ele>
        <time>2023-08-05T13:58:37.000Z</time>
      </trkpt>
      <trkpt lat="45.91346" lon="4.735">
        <ele>223.61882</ele>
        <time>2023-08-05T13:58:38.000Z</time>
      </trkpt>
      <trkpt lat="45.91343" lon="4.73499">
        <ele>223.56656</ele>
        <time>2023-08-05T13:58:39.000Z</time>
      </trkpt>
      <trkpt lat="45.91339" lon="4.73499">
        <ele>223.5354</ele>
        <time>2023-08-05T13:58:40.000Z</time>
      </trkpt>
      <trkpt lat="45.91335" lon="4.73498">
        <ele>223.5022</ele>
        <time>2023-08-05T13:58:41.000Z</time>
      </trkpt>
      <trkpt lat="45.91331" lon="4.73498">
        <ele>223.50261</ele>
        <time>2023-08-05T13:58:42.000Z</time>
      </trkpt>
      <trkpt lat="45.91327" lon="4.73498">
        <ele>223.48752</ele>
        <time>2023-08-05T13:58:43.000Z</time>
      </trkpt>
      <trkpt lat="45.91323" lon="4.73498">
        <ele>223.48528</ele>
        <time>2023-08-05T13:58:44.000Z</time>
      </trkpt>
      <trkpt lat="45.91319" lon="4.73497">
        <ele>223.4594</ele>
        <time>2023-08-05T13:58:45.000Z</time>
      </trkpt>
      <trkpt lat="45.91316" lon="4.73497">
        <ele>223.42497</ele>
        <time>2023-08-05T13:58:46.000Z</time>
      </trkpt>
      <trkpt lat="45.91312" lon="4.73496">
        <ele>223.40634</ele>
        <time>2023-08-05T13:58:47.000Z</time>
      </trkpt>
      <trkpt lat="45.91309" lon="4.73496">
        <ele>223.40402</ele>
        <time>2023-08-05T13:58:48.000Z</time>
      </trkpt>
      <trkpt lat="45.91305" lon="4.73495">
        <ele>223.41704</ele>
        <time>2023-08-05T13:58:49.000Z</time>
      </trkpt>
      <trkpt lat="45.91301" lon="4.73494">
        <ele>223.49113</ele>
        <time>2023-08-05T13:58:50.000Z</time>
      </trkpt>
      <trkpt lat="45.91298" lon="4.73494">
        <ele>223.60539</ele>
        <time>2023-08-05T13:58:51.000Z</time>
      </trkpt>
      <trkpt lat="45.91295" lon="4.73494">
        <ele>223.77165</ele>
        <time>2023-08-05T13:58:52.000Z</time>
      </trkpt>
      <trkpt lat="45.91291" lon="4.73494">
        <ele>223.93423</ele>
        <time>2023-08-05T13:58:53.000Z</time>
      </trkpt>
      <trkpt lat="45.91288" lon="4.73493">
        <ele>224.035</ele>
        <time>2023-08-05T13:58:54.000Z</time>
      </trkpt>
      <trkpt lat="45.91285" lon="4.73493">
        <ele>224.19308</ele>
        <time>2023-08-05T13:58:55.000Z</time>
      </trkpt>
      <trkpt lat="45.91281" lon="4.73492">
        <ele>224.32288</ele>
        <time>2023-08-05T13:58:56.000Z</time>
      </trkpt>
      <trkpt lat="45.91278" lon="4.73492">
        <ele>224.47482</ele>
        <time>2023-08-05T13:58:57.000Z</time>
      </trkpt>
      <trkpt lat="45.91275" lon="4.73491">
        <ele>224.62935</ele>
        <time>2023-08-05T13:58:58.000Z</time>
      </trkpt>
      <trkpt lat="45.91272" lon="4.73491">
        <ele>224.76053</ele>
        <time>2023-08-05T13:58:59.000Z</time>
      </trkpt>
      <trkpt lat="45.91269" lon="4.73491">
        <ele>224.93771</ele>
        <time>2023-08-05T13:59:00.000Z</time>
      </trkpt>
      <trkpt lat="45.91266" lon="4.73491">
        <ele>225.05591</ele>
        <time>2023-08-05T13:59:01.000Z</time>
      </trkpt>
      <trkpt lat="45.91263" lon="4.73492">
        <ele>225.14465</ele>
        <time>2023-08-05T13:59:03.000Z</time>
      </trkpt>
      <trkpt lat="45.91261" lon="4.73495">
        <ele>225.22714</ele>
        <time>2023-08-05T13:59:05.000Z</time>
      </trkpt>
      <trkpt lat="45.91259" lon="4.73496">
        <ele>225.29126</ele>
        <time>2023-08-05T13:59:07.000Z</time>
      </trkpt>
      <trkpt lat="45.91256" lon="4.73495">
        <ele>225.37503</ele>
        <time>2023-08-05T13:59:09.000Z</time>
      </trkpt>
      <trkpt lat="45.91254" lon="4.73493">
        <ele>225.45126</ele>
        <time>2023-08-05T13:59:11.000Z</time>
      </trkpt>
      <trkpt lat="45.91253" lon="4.7349">
        <ele>225.49857</ele>
        <time>2023-08-05T13:59:15.000Z</time>
      </trkpt>
      <trkpt lat="45.9125" lon="4.73489">
        <ele>225.58406</ele>
        <time>2023-08-05T13:59:24.000Z</time>
      </trkpt>
      <trkpt lat="45.91248" lon="4.7349">
        <ele>225.64436</ele>
        <time>2023-08-05T13:59:25.000Z</time>
      </trkpt>
      <trkpt lat="45.91245" lon="4.7349">
        <ele>225.65408</ele>
        <time>2023-08-05T13:59:26.000Z</time>
      </trkpt>
      <trkpt lat="45.91243" lon="4.73489">
        <ele>225.66072</ele>
        <time>2023-08-05T13:59:27.000Z</time>
      </trkpt>
      <trkpt lat="45.9124" lon="4.73489">
        <ele>225.64233</ele>
        <time>2023-08-05T13:59:28.000Z</time>
      </trkpt>
      <trkpt lat="45.91238" lon="4.73488">
        <ele>225.58459</ele>
        <time>2023-08-05T13:59:29.000Z</time>
      </trkpt>
      <trkpt lat="45.91235" lon="4.73487">
        <ele>225.57414</ele>
        <time>2023-08-05T13:59:30.000Z</time>
      </trkpt>
      <trkpt lat="45.91233" lon="4.73486">
        <ele>225.56931</ele>
        <time>2023-08-05T13:59:31.000Z</time>
      </trkpt>
      <trkpt lat="45.91231" lon="4.73485">
        <ele>225.62798</ele>
        <time>2023-08-05T13:59:32.000Z</time>
      </trkpt>
      <trkpt lat="45.91228" lon="4.73485">
        <ele>225.67725</ele>
        <time>2023-08-05T13:59:33.000Z</time>
      </trkpt>
      <trkpt lat="45.91226" lon="4.73485">
        <ele>225.76323</ele>
        <time>2023-08-05T13:59:34.000Z</time>
      </trkpt>
      <trkpt lat="45.91222" lon="4.73484">
        <ele>225.79231</ele>
        <time>2023-08-05T13:59:35.000Z</time>
      </trkpt>
      <trkpt lat="45.91219" lon="4.73482">
        <ele>225.75517</ele>
        <time>2023-08-05T13:59:36.000Z</time>
      </trkpt>
      <trkpt lat="45.91216" lon="4.7348">
        <ele>225.82092</ele>
        <time>2023-08-05T13:59:37.000Z</time>
      </trkpt>
      <trkpt lat="45.91213" lon="4.73478">
        <ele>225.89873</ele>
        <time>2023-08-05T13:59:38.000Z</time>
      </trkpt>
      <trkpt lat="45.91211" lon="4.73475">
        <ele>226.02316</ele>
        <time>2023-08-05T13:59:39.000Z</time>
      </trkpt>
      <trkpt lat="45.91209" lon="4.73471">
        <ele>226.15141</ele>
        <time>2023-08-05T13:59:40.000Z</time>
      </trkpt>
      <trkpt lat="45.91208" lon="4.73467">
        <ele>226.25293</ele>
        <time>2023-08-05T13:59:41.000Z</time>
      </trkpt>
      <trkpt lat="45.91208" lon="4.73462">
        <ele>226.36736</ele>
        <time>2023-08-05T13:59:42.000Z</time>
      </trkpt>
      <trkpt lat="45.91207" lon="4.73457">
        <ele>226.46916</ele>
        <time>2023-08-05T13:59:43.000Z</time>
      </trkpt>
      <trkpt lat="45.91207" lon="4.73452">
        <ele>226.50923</ele>
        <time>2023-08-05T13:59:44.000Z</time>
      </trkpt>
      <trkpt lat="45.91207" lon="4.73447">
        <ele>226.55545</ele>
        <time>2023-08-05T13:59:45.000Z</time>
      </trkpt>
      <trkpt lat="45.91207" lon="4.73441">
        <ele>226.60184</ele>
        <time>2023-08-05T13:59:46.000Z</time>
      </trkpt>
      <trkpt lat="45.91207" lon="4.73435">
        <ele>226.61484</ele>
        <time>2023-08-05T13:59:47.000Z</time>
      </trkpt>
      <trkpt lat="45.91206" lon="4.7343">
        <ele>226.61215</ele>
        <time>2023-08-05T13:59:48.000Z</time>
      </trkpt>
      <trkpt lat="45.91205" lon="4.73424">
        <ele>226.71005</ele>
        <time>2023-08-05T13:59:49.000Z</time>
      </trkpt>
      <trkpt lat="45.91204" lon="4.73418">
        <ele>226.8147</ele>
        <time>2023-08-05T13:59:50.000Z</time>
      </trkpt>
      <trkpt lat="45.91203" lon="4.73412">
        <ele>226.81161</ele>
        <time>2023-08-05T13:59:51.000Z</time>
      </trkpt>
      <trkpt lat="45.91204" lon="4.73405">
        <ele>226.77734</ele>
        <time>2023-08-05T13:59:52.000Z</time>
      </trkpt>
      <trkpt lat="45.91204" lon="4.73398">
        <ele>226.75723</ele>
        <time>2023-08-05T13:59:53.000Z</time>
      </trkpt>
      <trkpt lat="45.91203" lon="4.73393">
        <ele>226.71915</ele>
        <time>2023-08-05T13:59:54.000Z</time>
      </trkpt>
      <trkpt lat="45.91204" lon="4.73388">
        <ele>226.69368</ele>
        <time>2023-08-05T13:59:55.000Z</time>
      </trkpt>
      <trkpt lat="45.91203" lon="4.73383">
        <ele>226.70456</ele>
        <time>2023-08-05T13:59:56.000Z</time>
      </trkpt>
      <trkpt lat="45.91203" lon="4.73377">
        <ele>226.65552</ele>
        <time>2023-08-05T13:59:57.000Z</time>
      </trkpt>
      <trkpt lat="45.91202" lon="4.73372">
        <ele>226.6019</ele>
        <time>2023-08-05T13:59:59.000Z</time>
      </trkpt>
      <trkpt lat="45.91203" lon="4.73369">
        <ele>226.57646</ele>
        <time>2023-08-05T14:00:00.000Z</time>
      </trkpt>
      <trkpt lat="45.91203" lon="4.73366">
        <ele>226.55338</ele>
        <time>2023-08-05T14:00:01.000Z</time>
      </trkpt>
      <trkpt lat="45.91204" lon="4.73362">
        <ele>226.53976</ele>
        <time>2023-08-05T14:00:02.000Z</time>
      </trkpt>
      <trkpt lat="45.91205" lon="4.73359">
        <ele>226.52188</ele>
        <time>2023-08-05T14:00:03.000Z</time>
      </trkpt>
      <trkpt lat="45.91205" lon="4.73354">
        <ele>226.5199</ele>
        <time>2023-08-05T14:00:04.000Z</time>
      </trkpt>
      <trkpt lat="45.91205" lon="4.7335">
        <ele>228.4209</ele>
        <time>2023-08-05T14:00:05.000Z</time>
      </trkpt>
      <trkpt lat="45.91204" lon="4.73344">
        <ele>228.95621</ele>
        <time>2023-08-05T14:00:06.000Z</time>
      </trkpt>
      <trkpt lat="45.91203" lon="4.73337">
        <ele>229.13643</ele>
        <time>2023-08-05T14:00:07.000Z</time>
      </trkpt>
      <trkpt lat="45.91202" lon="4.7333">
        <ele>229.09464</ele>
        <time>2023-08-05T14:00:08.000Z</time>
      </trkpt>
      <trkpt lat="45.91201" lon="4.73322">
        <ele>229.04289</ele>
        <time>2023-08-05T14:00:09.000Z</time>
      </trkpt>
      <trkpt lat="45.91199" lon="4.73314">
        <ele>228.89861</ele>
        <time>2023-08-05T14:00:10.000Z</time>
      </trkpt>
      <trkpt lat="45.91197" lon="4.73306">
        <ele>228.72507</ele>
        <time>2023-08-05T14:00:11.000Z</time>
      </trkpt>
      <trkpt lat="45.91195" lon="4.73299">
        <ele>228.61377</ele>
        <time>2023-08-05T14:00:12.000Z</time>
      </trkpt>
      <trkpt lat="45.91194" lon="4.73291">
        <ele>228.4895</ele>
        <time>2023-08-05T14:00:13.000Z</time>
      </trkpt>
      <trkpt lat="45.91193" lon="4.73283">
        <ele>228.33411</ele>
        <time>2023-08-05T14:00:14.000Z</time>
      </trkpt>
      <trkpt lat="45.91193" lon="4.73276">
        <ele>228.18266</ele>
        <time>2023-08-05T14:00:15.000Z</time>
      </trkpt>
      <trkpt lat="45.91191" lon="4.73268">
        <ele>228.06848</ele>
        <time>2023-08-05T14:00:16.000Z</time>
      </trkpt>
      <trkpt lat="45.91191" lon="4.73261">
        <ele>227.93045</ele>
        <time>2023-08-05T14:00:17.000Z</time>
      </trkpt>
      <trkpt lat="45.91191" lon="4.73254">
        <ele>227.80034</ele>
        <time>2023-08-05T14:00:18.000Z</time>
      </trkpt>
      <trkpt lat="45.9119" lon="4.73245">
        <ele>227.70467</ele>
        <time>2023-08-05T14:00:19.000Z</time>
      </trkpt>
      <trkpt lat="45.91189" lon="4.73236">
        <ele>227.5668</ele>
        <time>2023-08-05T14:00:20.000Z</time>
      </trkpt>
      <trkpt lat="45.91189" lon="4.73228">
        <ele>227.45053</ele>
        <time>2023-08-05T14:00:21.000Z</time>
      </trkpt>
      <trkpt lat="45.91189" lon="4.7322">
        <ele>227.33292</ele>
        <time>2023-08-05T14:00:22.000Z</time>
      </trkpt>
      <trkpt lat="45.91189" lon="4.73212">
        <ele>227.21419</ele>
        <time>2023-08-05T14:00:23.000Z</time>
      </trkpt>
      <trkpt lat="45.91189" lon="4.73205">
        <ele>227.09099</ele>
        <time>2023-08-05T14:00:24.000Z</time>
      </trkpt>
      <trkpt lat="45.91188" lon="4.73197">
        <ele>225.06099</ele>
        <time>2023-08-05T14:00:25.000Z</time>
      </trkpt>
      <trkpt lat="45.91188" lon="4.7319">
        <ele>224.37895</ele>
        <time>2023-08-05T14:00:26.000Z</time>
      </trkpt>
      <trkpt lat="45.91187" lon="4.73182">
        <ele>224.05432</ele>
        <time>2023-08-05T14:00:27.000Z</time>
      </trkpt>
      <trkpt lat="45.91187" lon="4.73175">
        <ele>223.96658</ele>
        <time>2023-08-05T14:00:28.000Z</time>
      </trkpt>
      <trkpt lat="45.91187" lon="4.73167">
        <ele>223.90845</ele>
        <time>2023-08-05T14:00:29.000Z</time>
      </trkpt>
      <trkpt lat="45.91187" lon="4.73159">
        <ele>223.84323</ele>
        <time>2023-08-05T14:00:30.000Z</time>
      </trkpt>
      <trkpt lat="45.91186" lon="4.73151">
        <ele>223.80081</ele>
        <time>2023-08-05T14:00:31.000Z</time>
      </trkpt>
      <trkpt lat="45.91185" lon="4.73145">
        <ele>223.76965</ele>
        <time>2023-08-05T14:00:32.000Z</time>
      </trkpt>
      <trkpt lat="45.91185" lon="4.73137">
        <ele>223.73523</ele>
        <time>2023-08-05T14:00:33.000Z</time>
      </trkpt>
      <trkpt lat="45.91184" lon="4.7313">
        <ele>223.73892</ele>
        <time>2023-08-05T14:00:34.000Z</time>
      </trkpt>
      <trkpt lat="45.91183" lon="4.73122">
        <ele>223.75574</ele>
        <time>2023-08-05T14:00:35.000Z</time>
      </trkpt>
      <trkpt lat="45.91182" lon="4.73114">
        <ele>223.76265</ele>
        <time>2023-08-05T14:00:36.000Z</time>
      </trkpt>
      <trkpt lat="45.91182" lon="4.73107">
        <ele>223.76962</ele>
        <time>2023-08-05T14:00:37.000Z</time>
      </trkpt>
      <trkpt lat="45.91182" lon="4.731">
        <ele>223.79716</ele>
        <time>2023-08-05T14:00:38.000Z</time>
      </trkpt>
      <trkpt lat="45.91181" lon="4.73093">
        <ele>223.84297</ele>
        <time>2023-08-05T14:00:39.000Z</time>
      </trkpt>
      <trkpt lat="45.9118" lon="4.73087">
        <ele>223.88721</ele>
        <time>2023-08-05T14:00:40.000Z</time>
      </trkpt>
      <trkpt lat="45.9118" lon="4.73079">
        <ele>223.93362</ele>
        <time>2023-08-05T14:00:41.000Z</time>
      </trkpt>
      <trkpt lat="45.9118" lon="4.73072">
        <ele>224.02304</ele>
        <time>2023-08-05T14:00:42.000Z</time>
      </trkpt>
      <trkpt lat="45.91179" lon="4.73065">
        <ele>224.11246</ele>
        <time>2023-08-05T14:00:43.000Z</time>
      </trkpt>
      <trkpt lat="45.91179" lon="4.73058">
        <ele>224.20366</ele>
        <time>2023-08-05T14:00:44.000Z</time>
      </trkpt>
      <trkpt lat="45.91179" lon="4.73051">
        <ele>224.2933</ele>
        <time>2023-08-05T14:00:45.000Z</time>
      </trkpt>
      <trkpt lat="45.91178" lon="4.73044">
        <ele>224.37985</ele>
        <time>2023-08-05T14:00:46.000Z</time>
      </trkpt>
      <trkpt lat="45.91179" lon="4.73037">
        <ele>224.51262</ele>
        <time>2023-08-05T14:00:47.000Z</time>
      </trkpt>
      <trkpt lat="45.91178" lon="4.7303">
        <ele>224.62146</ele>
        <time>2023-08-05T14:00:48.000Z</time>
      </trkpt>
      <trkpt lat="45.91178" lon="4.73023">
        <ele>224.69833</ele>
        <time>2023-08-05T14:00:49.000Z</time>
      </trkpt>
      <trkpt lat="45.91178" lon="4.73015">
        <ele>224.78873</ele>
        <time>2023-08-05T14:00:50.000Z</time>
      </trkpt>
      <trkpt lat="45.91178" lon="4.73009">
        <ele>224.89275</ele>
        <time>2023-08-05T14:00:51.000Z</time>
      </trkpt>
      <trkpt lat="45.91178" lon="4.73001">
        <ele>224.98946</ele>
        <time>2023-08-05T14:00:52.000Z</time>
      </trkpt>
      <trkpt lat="45.91177" lon="4.72994">
        <ele>225.07381</ele>
        <time>2023-08-05T14:00:53.000Z</time>
      </trkpt>
      <trkpt lat="45.91177" lon="4.72987">
        <ele>225.16959</ele>
        <time>2023-08-05T14:00:54.000Z</time>
      </trkpt>
      <trkpt lat="45.91177" lon="4.72979">
        <ele>225.23535</ele>
        <time>2023-08-05T14:00:55.000Z</time>
      </trkpt>
      <trkpt lat="45.91176" lon="4.72972">
        <ele>225.32626</ele>
        <time>2023-08-05T14:00:56.000Z</time>
      </trkpt>
      <trkpt lat="45.91176" lon="4.72964">
        <ele>225.41141</ele>
        <time>2023-08-05T14:00:57.000Z</time>
      </trkpt>
      <trkpt lat="45.91176" lon="4.72957">
        <ele>225.47993</ele>
        <time>2023-08-05T14:00:58.000Z</time>
      </trkpt>
      <trkpt lat="45.91175" lon="4.7295">
        <ele>225.517</ele>
        <time>2023-08-05T14:00:59.000Z</time>
      </trkpt>
      <trkpt lat="45.91175" lon="4.72943">
        <ele>225.5092</ele>
        <time>2023-08-05T14:01:00.000Z</time>
      </trkpt>
      <trkpt lat="45.91174" lon="4.72936">
        <ele>225.47684</ele>
        <time>2023-08-05T14:01:01.000Z</time>
      </trkpt>
      <trkpt lat="45.91173" lon="4.72929">
        <ele>225.39433</ele>
        <time>2023-08-05T14:01:02.000Z</time>
      </trkpt>
      <trkpt lat="45.91173" lon="4.72922">
        <ele>225.3063</ele>
        <time>2023-08-05T14:01:03.000Z</time>
      </trkpt>
      <trkpt lat="45.91172" lon="4.72914">
        <ele>225.21814</ele>
        <time>2023-08-05T14:01:04.000Z</time>
      </trkpt>
      <trkpt lat="45.91172" lon="4.72907">
        <ele>225.14746</ele>
        <time>2023-08-05T14:01:05.000Z</time>
      </trkpt>
      <trkpt lat="45.91173" lon="4.729">
        <ele>225.06448</ele>
        <time>2023-08-05T14:01:06.000Z</time>
      </trkpt>
      <trkpt lat="45.91173" lon="4.72893">
        <ele>224.93161</ele>
        <time>2023-08-05T14:01:07.000Z</time>
      </trkpt>
      <trkpt lat="45.91173" lon="4.72885">
        <ele>224.83994</ele>
        <time>2023-08-05T14:01:08.000Z</time>
      </trkpt>
      <trkpt lat="45.91172" lon="4.72878">
        <ele>224.77426</ele>
        <time>2023-08-05T14:01:09.000Z</time>
      </trkpt>
      <trkpt lat="45.91171" lon="4.7287">
        <ele>224.72739</ele>
        <time>2023-08-05T14:01:10.000Z</time>
      </trkpt>
      <trkpt lat="45.91171" lon="4.72862">
        <ele>224.67305</ele>
        <time>2023-08-05T14:01:11.000Z</time>
      </trkpt>
      <trkpt lat="45.9117" lon="4.72854">
        <ele>224.60532</ele>
        <time>2023-08-05T14:01:12.000Z</time>
      </trkpt>
      <trkpt lat="45.9117" lon="4.72847">
        <ele>224.58301</ele>
        <time>2023-08-05T14:01:13.000Z</time>
      </trkpt>
      <trkpt lat="45.91169" lon="4.72839">
        <ele>224.51176</ele>
        <time>2023-08-05T14:01:14.000Z</time>
      </trkpt>
      <trkpt lat="45.91169" lon="4.72832">
        <ele>224.48055</ele>
        <time>2023-08-05T14:01:15.000Z</time>
      </trkpt>
      <trkpt lat="45.91169" lon="4.72824">
        <ele>224.42667</ele>
        <time>2023-08-05T14:01:16.000Z</time>
      </trkpt>
      <trkpt lat="45.9117" lon="4.72816">
        <ele>224.36922</ele>
        <time>2023-08-05T14:01:17.000Z</time>
      </trkpt>
      <trkpt lat="45.9117" lon="4.72809">
        <ele>224.32207</ele>
        <time>2023-08-05T14:01:18.000Z</time>
      </trkpt>
      <trkpt lat="45.91171" lon="4.72801">
        <ele>224.27042</ele>
        <time>2023-08-05T14:01:19.000Z</time>
      </trkpt>
      <trkpt lat="45.91171" lon="4.72792">
        <ele>224.24112</ele>
        <time>2023-08-05T14:01:20.000Z</time>
      </trkpt>
      <trkpt lat="45.91172" lon="4.72783">
        <ele>224.2225</ele>
        <time>2023-08-05T14:01:21.000Z</time>
      </trkpt>
      <trkpt lat="45.91172" lon="4.72774">
        <ele>224.18677</ele>
        <time>2023-08-05T14:01:22.000Z</time>
      </trkpt>
      <trkpt lat="45.91173" lon="4.72765">
        <ele>224.14929</ele>
        <time>2023-08-05T14:01:23.000Z</time>
      </trkpt>
      <trkpt lat="45.91172" lon="4.72756">
        <ele>224.10149</ele>
        <time>2023-08-05T14:01:24.000Z</time>
      </trkpt>
      <trkpt lat="45.91171" lon="4.72746">
        <ele>224.0463</ele>
        <time>2023-08-05T14:01:25.000Z</time>
      </trkpt>
      <trkpt lat="45.9117" lon="4.72736">
        <ele>224.01262</ele>
        <time>2023-08-05T14:01:26.000Z</time>
      </trkpt>
      <trkpt lat="45.91168" lon="4.72726">
        <ele>223.99765</ele>
        <time>2023-08-05T14:01:27.000Z</time>
      </trkpt>
      <trkpt lat="45.91165" lon="4.72715">
        <ele>223.94785</ele>
        <time>2023-08-05T14:01:28.000Z</time>
      </trkpt>
      <trkpt lat="45.91164" lon="4.72705">
        <ele>223.89621</ele>
        <time>2023-08-05T14:01:29.000Z</time>
      </trkpt>
      <trkpt lat="45.91164" lon="4.72699">
        <ele>223.86348</ele>
        <time>2023-08-05T14:01:30.000Z</time>
      </trkpt>
      <trkpt lat="45.91165" lon="4.72694">
        <ele>223.77127</ele>
        <time>2023-08-05T14:01:31.000Z</time>
      </trkpt>
      <trkpt lat="45.91162" lon="4.72687">
        <ele>223.69511</ele>
        <time>2023-08-05T14:01:32.000Z</time>
      </trkpt>
      <trkpt lat="45.9116" lon="4.7268">
        <ele>223.63797</ele>
        <time>2023-08-05T14:01:33.000Z</time>
      </trkpt>
      <trkpt lat="45.91156" lon="4.72676">
        <ele>223.58658</ele>
        <time>2023-08-05T14:01:34.000Z</time>
      </trkpt>
      <trkpt lat="45.91151" lon="4.72672">
        <ele>223.51721</ele>
        <time>2023-08-05T14:01:35.000Z</time>
      </trkpt>
      <trkpt lat="45.91147" lon="4.7267">
        <ele>223.45584</ele>
        <time>2023-08-05T14:01:36.000Z</time>
      </trkpt>
      <trkpt lat="45.91142" lon="4.72667">
        <ele>223.42659</ele>
        <time>2023-08-05T14:01:37.000Z</time>
      </trkpt>
      <trkpt lat="45.91137" lon="4.72664">
        <ele>223.39633</ele>
        <time>2023-08-05T14:01:38.000Z</time>
      </trkpt>
      <trkpt lat="45.91133" lon="4.72662">
        <ele>223.38274</ele>
        <time>2023-08-05T14:01:39.000Z</time>
      </trkpt>
      <trkpt lat="45.91127" lon="4.72662">
        <ele>223.39384</ele>
        <time>2023-08-05T14:01:40.000Z</time>
      </trkpt>
      <trkpt lat="45.91123" lon="4.72661">
        <ele>223.38968</ele>
        <time>2023-08-05T14:01:41.000Z</time>
      </trkpt>
      <trkpt lat="45.91119" lon="4.72662">
        <ele>223.42905</ele>
        <time>2023-08-05T14:01:42.000Z</time>
      </trkpt>
      <trkpt lat="45.91114" lon="4.72664">
        <ele>223.48169</ele>
        <time>2023-08-05T14:01:43.000Z</time>
      </trkpt>
      <trkpt lat="45.9111" lon="4.72665">
        <ele>223.52884</ele>
        <time>2023-08-05T14:01:44.000Z</time>
      </trkpt>
      <trkpt lat="45.91104" lon="4.72666">
        <ele>223.58395</ele>
        <time>2023-08-05T14:01:45.000Z</time>
      </trkpt>
      <trkpt lat="45.91099" lon="4.72668">
        <ele>223.61153</ele>
        <time>2023-08-05T14:01:46.000Z</time>
      </trkpt>
      <trkpt lat="45.91095" lon="4.72672">
        <ele>223.6377</ele>
        <time>2023-08-05T14:01:47.000Z</time>
      </trkpt>
      <trkpt lat="45.91091" lon="4.72674">
        <ele>223.69901</ele>
        <time>2023-08-05T14:01:48.000Z</time>
      </trkpt>
      <trkpt lat="45.91087" lon="4.72677">
        <ele>223.74397</ele>
        <time>2023-08-05T14:01:49.000Z</time>
      </trkpt>
      <trkpt lat="45.91081" lon="4.72678">
        <ele>223.77299</ele>
        <time>2023-08-05T14:01:50.000Z</time>
      </trkpt>
      <trkpt lat="45.91077" lon="4.7268">
        <ele>223.8907</ele>
        <time>2023-08-05T14:01:51.000Z</time>
      </trkpt>
      <trkpt lat="45.91072" lon="4.7268">
        <ele>223.99117</ele>
        <time>2023-08-05T14:01:52.000Z</time>
      </trkpt>
      <trkpt lat="45.91067" lon="4.72681">
        <ele>224.07991</ele>
        <time>2023-08-05T14:01:53.000Z</time>
      </trkpt>
      <trkpt lat="45.91062" lon="4.7268">
        <ele>224.18367</ele>
        <time>2023-08-05T14:01:54.000Z</time>
      </trkpt>
      <trkpt lat="45.91058" lon="4.72677">
        <ele>224.23653</ele>
        <time>2023-08-05T14:01:55.000Z</time>
      </trkpt>
      <trkpt lat="45.91053" lon="4.72676">
        <ele>224.27823</ele>
        <time>2023-08-05T14:01:56.000Z</time>
      </trkpt>
      <trkpt lat="45.91048" lon="4.72673">
        <ele>224.269</ele>
        <time>2023-08-05T14:01:57.000Z</time>
      </trkpt>
      <trkpt lat="45.91043" lon="4.72671">
        <ele>224.25757</ele>
        <time>2023-08-05T14:01:58.000Z</time>
      </trkpt>
      <trkpt lat="45.91039" lon="4.72667">
        <ele>224.24759</ele>
        <time>2023-08-05T14:01:59.000Z</time>
      </trkpt>
      <trkpt lat="45.91034" lon="4.72664">
        <ele>224.21365</ele>
        <time>2023-08-05T14:02:00.000Z</time>
      </trkpt>
      <trkpt lat="45.91028" lon="4.72663">
        <ele>224.16743</ele>
        <time>2023-08-05T14:02:01.000Z</time>
      </trkpt>
      <trkpt lat="45.91024" lon="4.72665">
        <ele>224.10352</ele>
        <time>2023-08-05T14:02:02.000Z</time>
      </trkpt>
      <trkpt lat="45.91019" lon="4.72668">
        <ele>224.02388</ele>
        <time>2023-08-05T14:02:03.000Z</time>
      </trkpt>
      <trkpt lat="45.91014" lon="4.72669">
        <ele>223.9769</ele>
        <time>2023-08-05T14:02:04.000Z</time>
      </trkpt>
      <trkpt lat="45.9101" lon="4.72672">
        <ele>223.91077</ele>
        <time>2023-08-05T14:02:05.000Z</time>
      </trkpt>
      <trkpt lat="45.91005" lon="4.72675">
        <ele>223.86873</ele>
        <time>2023-08-05T14:02:06.000Z</time>
      </trkpt>
      <trkpt lat="45.91" lon="4.72678">
        <ele>223.7878</ele>
        <time>2023-08-05T14:02:07.000Z</time>
      </trkpt>
      <trkpt lat="45.90995" lon="4.72681">
        <ele>223.66753</ele>
        <time>2023-08-05T14:02:08.000Z</time>
      </trkpt>
      <trkpt lat="45.90989" lon="4.72684">
        <ele>223.54263</ele>
        <time>2023-08-05T14:02:09.000Z</time>
      </trkpt>
      <trkpt lat="45.90984" lon="4.72686">
        <ele>223.4386</ele>
        <time>2023-08-05T14:02:10.000Z</time>
      </trkpt>
      <trkpt lat="45.90979" lon="4.72687">
        <ele>223.27522</ele>
        <time>2023-08-05T14:02:11.000Z</time>
      </trkpt>
      <trkpt lat="45.90974" lon="4.72689">
        <ele>223.13455</ele>
        <time>2023-08-05T14:02:12.000Z</time>
      </trkpt>
      <trkpt lat="45.90969" lon="4.7269">
        <ele>222.97441</ele>
        <time>2023-08-05T14:02:13.000Z</time>
      </trkpt>
      <trkpt lat="45.90964" lon="4.72694">
        <ele>222.79155</ele>
        <time>2023-08-05T14:02:14.000Z</time>
      </trkpt>
      <trkpt lat="45.90959" lon="4.72695">
        <ele>222.66548</ele>
        <time>2023-08-05T14:02:15.000Z</time>
      </trkpt>
      <trkpt lat="45.90953" lon="4.72696">
        <ele>222.54807</ele>
        <time>2023-08-05T14:02:16.000Z</time>
      </trkpt>
      <trkpt lat="45.90949" lon="4.72697">
        <ele>222.45761</ele>
        <time>2023-08-05T14:02:17.000Z</time>
      </trkpt>
      <trkpt lat="45.90944" lon="4.72698">
        <ele>222.37444</ele>
        <time>2023-08-05T14:02:18.000Z</time>
      </trkpt>
      <trkpt lat="45.9094" lon="4.72699">
        <ele>222.28915</ele>
        <time>2023-08-05T14:02:19.000Z</time>
      </trkpt>
      <trkpt lat="45.90935" lon="4.72701">
        <ele>222.19873</ele>
        <time>2023-08-05T14:02:20.000Z</time>
      </trkpt>
      <trkpt lat="45.9093" lon="4.72702">
        <ele>222.18498</ele>
        <time>2023-08-05T14:02:21.000Z</time>
      </trkpt>
      <trkpt lat="45.90926" lon="4.72706">
        <ele>222.14644</ele>
        <time>2023-08-05T14:02:22.000Z</time>
      </trkpt>
      <trkpt lat="45.90923" lon="4.72709">
        <ele>222.11365</ele>
        <time>2023-08-05T14:02:23.000Z</time>
      </trkpt>
      <trkpt lat="45.90921" lon="4.72714">
        <ele>222.07913</ele>
        <time>2023-08-05T14:02:24.000Z</time>
      </trkpt>
      <trkpt lat="45.90919" lon="4.72719">
        <ele>222.08398</ele>
        <time>2023-08-05T14:02:25.000Z</time>
      </trkpt>
      <trkpt lat="45.90918" lon="4.72723">
        <ele>222.0981</ele>
        <time>2023-08-05T14:02:26.000Z</time>
      </trkpt>
      <trkpt lat="45.90916" lon="4.72727">
        <ele>222.15088</ele>
        <time>2023-08-05T14:02:27.000Z</time>
      </trkpt>
      <trkpt lat="45.90915" lon="4.7273">
        <ele>222.21916</ele>
        <time>2023-08-05T14:02:28.000Z</time>
      </trkpt>
      <trkpt lat="45.90913" lon="4.7273">
        <ele>222.32761</ele>
        <time>2023-08-05T14:02:29.000Z</time>
      </trkpt>
      <trkpt lat="45.90909" lon="4.72732">
        <ele>222.38901</ele>
        <time>2023-08-05T14:02:30.000Z</time>
      </trkpt>
      <trkpt lat="45.90905" lon="4.72733">
        <ele>222.48526</ele>
        <time>2023-08-05T14:02:31.000Z</time>
      </trkpt>
      <trkpt lat="45.90901" lon="4.72734">
        <ele>222.59746</ele>
        <time>2023-08-05T14:02:32.000Z</time>
      </trkpt>
      <trkpt lat="45.90897" lon="4.72736">
        <ele>222.71269</ele>
        <time>2023-08-05T14:02:33.000Z</time>
      </trkpt>
      <trkpt lat="45.90893" lon="4.72737">
        <ele>222.84818</ele>
        <time>2023-08-05T14:02:34.000Z</time>
      </trkpt>
      <trkpt lat="45.90889" lon="4.72737">
        <ele>222.99069</ele>
        <time>2023-08-05T14:02:35.000Z</time>
      </trkpt>
      <trkpt lat="45.90884" lon="4.72738">
        <ele>223.12338</ele>
        <time>2023-08-05T14:02:36.000Z</time>
      </trkpt>
      <trkpt lat="45.9088" lon="4.72738">
        <ele>223.26999</ele>
        <time>2023-08-05T14:02:37.000Z</time>
      </trkpt>
      <trkpt lat="45.90875" lon="4.72738">
        <ele>223.40735</ele>
        <time>2023-08-05T14:02:38.000Z</time>
      </trkpt>
      <trkpt lat="45.90869" lon="4.72738">
        <ele>223.52377</ele>
        <time>2023-08-05T14:02:39.000Z</time>
      </trkpt>
      <trkpt lat="45.90865" lon="4.72737">
        <ele>223.6552</ele>
        <time>2023-08-05T14:02:40.000Z</time>
      </trkpt>
      <trkpt lat="45.9086" lon="4.72737">
        <ele>223.73315</ele>
        <time>2023-08-05T14:02:41.000Z</time>
      </trkpt>
      <trkpt lat="45.90855" lon="4.72736">
        <ele>223.86081</ele>
        <time>2023-08-05T14:02:42.000Z</time>
      </trkpt>
      <trkpt lat="45.90851" lon="4.72735">
        <ele>224.01299</ele>
        <time>2023-08-05T14:02:43.000Z</time>
      </trkpt>
      <trkpt lat="45.90846" lon="4.72734">
        <ele>224.13345</ele>
        <time>2023-08-05T14:02:44.000Z</time>
      </trkpt>
      <trkpt lat="45.90841" lon="4.72733">
        <ele>224.21211</ele>
        <time>2023-08-05T14:02:45.000Z</time>
      </trkpt>
      <trkpt lat="45.90837" lon="4.72734">
        <ele>224.26956</ele>
        <time>2023-08-05T14:02:46.000Z</time>
      </trkpt>
      <trkpt lat="45.90832" lon="4.72734">
        <ele>224.29776</ele>
        <time>2023-08-05T14:02:47.000Z</time>
      </trkpt>
      <trkpt lat="45.90827" lon="4.72735">
        <ele>224.32368</ele>
        <time>2023-08-05T14:02:48.000Z</time>
      </trkpt>
      <trkpt lat="45.90821" lon="4.72736">
        <ele>224.33102</ele>
        <time>2023-08-05T14:02:49.000Z</time>
      </trkpt>
      <trkpt lat="45.90817" lon="4.72738">
        <ele>224.38103</ele>
        <time>2023-08-05T14:02:50.000Z</time>
      </trkpt>
      <trkpt lat="45.90812" lon="4.72738">
        <ele>224.40959</ele>
        <time>2023-08-05T14:02:51.000Z</time>
      </trkpt>
      <trkpt lat="45.90806" lon="4.72739">
        <ele>224.43921</ele>
        <time>2023-08-05T14:02:52.000Z</time>
      </trkpt>
      <trkpt lat="45.90801" lon="4.72739">
        <ele>224.46713</ele>
        <time>2023-08-05T14:02:53.000Z</time>
      </trkpt>
      <trkpt lat="45.90797" lon="4.72741">
        <ele>224.45508</ele>
        <time>2023-08-05T14:02:54.000Z</time>
      </trkpt>
      <trkpt lat="45.90792" lon="4.72741">
        <ele>224.46199</ele>
        <time>2023-08-05T14:02:55.000Z</time>
      </trkpt>
      <trkpt lat="45.90787" lon="4.72742">
        <ele>224.50554</ele>
        <time>2023-08-05T14:02:56.000Z</time>
      </trkpt>
      <trkpt lat="45.90782" lon="4.72742">
        <ele>224.54306</ele>
        <time>2023-08-05T14:02:57.000Z</time>
      </trkpt>
      <trkpt lat="45.90776" lon="4.72743">
        <ele>224.58133</ele>
        <time>2023-08-05T14:02:58.000Z</time>
      </trkpt>
      <trkpt lat="45.9077" lon="4.72744">
        <ele>224.64522</ele>
        <time>2023-08-05T14:02:59.000Z</time>
      </trkpt>
      <trkpt lat="45.90765" lon="4.72743">
        <ele>224.70581</ele>
        <time>2023-08-05T14:03:00.000Z</time>
      </trkpt>
      <trkpt lat="45.9076" lon="4.72743">
        <ele>224.75577</ele>
        <time>2023-08-05T14:03:01.000Z</time>
      </trkpt>
      <trkpt lat="45.90754" lon="4.72744">
        <ele>224.77536</ele>
        <time>2023-08-05T14:03:02.000Z</time>
      </trkpt>
      <trkpt lat="45.90749" lon="4.72744">
        <ele>224.75345</ele>
        <time>2023-08-05T14:03:03.000Z</time>
      </trkpt>
      <trkpt lat="45.90744" lon="4.72743">
        <ele>224.74947</ele>
        <time>2023-08-05T14:03:04.000Z</time>
      </trkpt>
      <trkpt lat="45.90739" lon="4.72742">
        <ele>224.75899</ele>
        <time>2023-08-05T14:03:05.000Z</time>
      </trkpt>
      <trkpt lat="45.90735" lon="4.72741">
        <ele>224.74727</ele>
        <time>2023-08-05T14:03:06.000Z</time>
      </trkpt>
      <trkpt lat="45.9073" lon="4.7274">
        <ele>224.77129</ele>
        <time>2023-08-05T14:03:07.000Z</time>
      </trkpt>
      <trkpt lat="45.90725" lon="4.7274">
        <ele>224.80594</ele>
        <time>2023-08-05T14:03:08.000Z</time>
      </trkpt>
      <trkpt lat="45.9072" lon="4.7274">
        <ele>224.84001</ele>
        <time>2023-08-05T14:03:09.000Z</time>
      </trkpt>
      <trkpt lat="45.90714" lon="4.72739">
        <ele>224.85306</ele>
        <time>2023-08-05T14:03:10.000Z</time>
      </trkpt>
      <trkpt lat="45.90709" lon="4.7274">
        <ele>224.89713</ele>
        <time>2023-08-05T14:03:11.000Z</time>
      </trkpt>
      <trkpt lat="45.90706" lon="4.7274">
        <ele>224.96915</ele>
        <time>2023-08-05T14:03:12.000Z</time>
      </trkpt>
      <trkpt lat="45.90702" lon="4.72741">
        <ele>225.05496</ele>
        <time>2023-08-05T14:03:13.000Z</time>
      </trkpt>
      <trkpt lat="45.90696" lon="4.72743">
        <ele>225.16025</ele>
        <time>2023-08-05T14:03:14.000Z</time>
      </trkpt>
      <trkpt lat="45.9069" lon="4.72745">
        <ele>225.25183</ele>
        <time>2023-08-05T14:03:15.000Z</time>
      </trkpt>
      <trkpt lat="45.90686" lon="4.72746">
        <ele>225.31189</ele>
        <time>2023-08-05T14:03:16.000Z</time>
      </trkpt>
      <trkpt lat="45.9068" lon="4.72748">
        <ele>225.35355</ele>
        <time>2023-08-05T14:03:17.000Z</time>
      </trkpt>
      <trkpt lat="45.90675" lon="4.72752">
        <ele>225.40808</ele>
        <time>2023-08-05T14:03:18.000Z</time>
      </trkpt>
      <trkpt lat="45.90671" lon="4.72754">
        <ele>225.4707</ele>
        <time>2023-08-05T14:03:19.000Z</time>
      </trkpt>
      <trkpt lat="45.90665" lon="4.72756">
        <ele>225.51379</ele>
        <time>2023-08-05T14:03:20.000Z</time>
      </trkpt>
      <trkpt lat="45.9066" lon="4.72758">
        <ele>225.56702</ele>
        <time>2023-08-05T14:03:21.000Z</time>
      </trkpt>
      <trkpt lat="45.90655" lon="4.72759">
        <ele>225.63892</ele>
        <time>2023-08-05T14:03:22.000Z</time>
      </trkpt>
      <trkpt lat="45.90651" lon="4.72759">
        <ele>225.78555</ele>
        <time>2023-08-05T14:03:23.000Z</time>
      </trkpt>
      <trkpt lat="45.90645" lon="4.7276">
        <ele>225.88799</ele>
        <time>2023-08-05T14:03:24.000Z</time>
      </trkpt>
      <trkpt lat="45.9064" lon="4.7276">
        <ele>225.9847</ele>
        <time>2023-08-05T14:03:25.000Z</time>
      </trkpt>
      <trkpt lat="45.90634" lon="4.7276">
        <ele>226.07613</ele>
        <time>2023-08-05T14:03:26.000Z</time>
      </trkpt>
      <trkpt lat="45.90629" lon="4.72761">
        <ele>226.13203</ele>
        <time>2023-08-05T14:03:27.000Z</time>
      </trkpt>
      <trkpt lat="45.90624" lon="4.72761">
        <ele>226.144</ele>
        <time>2023-08-05T14:03:28.000Z</time>
      </trkpt>
      <trkpt lat="45.90618" lon="4.72761">
        <ele>226.17436</ele>
        <time>2023-08-05T14:03:29.000Z</time>
      </trkpt>
      <trkpt lat="45.90614" lon="4.72763">
        <ele>226.22192</ele>
        <time>2023-08-05T14:03:30.000Z</time>
      </trkpt>
      <trkpt lat="45.90609" lon="4.72764">
        <ele>226.22375</ele>
        <time>2023-08-05T14:03:31.000Z</time>
      </trkpt>
      <trkpt lat="45.90604" lon="4.72765">
        <ele>226.19223</ele>
        <time>2023-08-05T14:03:32.000Z</time>
      </trkpt>
      <trkpt lat="45.90599" lon="4.72766">
        <ele>226.14644</ele>
        <time>2023-08-05T14:03:33.000Z</time>
      </trkpt>
      <trkpt lat="45.90593" lon="4.72767">
        <ele>226.13142</ele>
        <time>2023-08-05T14:03:34.000Z</time>
      </trkpt>
      <trkpt lat="45.90588" lon="4.72768">
        <ele>226.12436</ele>
        <time>2023-08-05T14:03:35.000Z</time>
      </trkpt>
      <trkpt lat="45.90583" lon="4.72768">
        <ele>226.10515</ele>
        <time>2023-08-05T14:03:36.000Z</time>
      </trkpt>
      <trkpt lat="45.90578" lon="4.72768">
        <ele>226.11047</ele>
        <time>2023-08-05T14:03:37.000Z</time>
      </trkpt>
      <trkpt lat="45.90573" lon="4.72768">
        <ele>226.11191</ele>
        <time>2023-08-05T14:03:38.000Z</time>
      </trkpt>
      <trkpt lat="45.90568" lon="4.72769">
        <ele>226.08711</ele>
        <time>2023-08-05T14:03:39.000Z</time>
      </trkpt>
      <trkpt lat="45.90563" lon="4.7277">
        <ele>226.08357</ele>
        <time>2023-08-05T14:03:40.000Z</time>
      </trkpt>
      <trkpt lat="45.90559" lon="4.72772">
        <ele>226.07764</ele>
        <time>2023-08-05T14:03:41.000Z</time>
      </trkpt>
      <trkpt lat="45.90554" lon="4.72772">
        <ele>226.06424</ele>
        <time>2023-08-05T14:03:42.000Z</time>
      </trkpt>
      <trkpt lat="45.90549" lon="4.72773">
        <ele>225.98222</ele>
        <time>2023-08-05T14:03:43.000Z</time>
      </trkpt>
      <trkpt lat="45.90545" lon="4.72774">
        <ele>225.97754</ele>
        <time>2023-08-05T14:03:44.000Z</time>
      </trkpt>
      <trkpt lat="45.90541" lon="4.72775">
        <ele>225.97086</ele>
        <time>2023-08-05T14:03:45.000Z</time>
      </trkpt>
      <trkpt lat="45.90536" lon="4.72776">
        <ele>226.00676</ele>
        <time>2023-08-05T14:03:46.000Z</time>
      </trkpt>
      <trkpt lat="45.90531" lon="4.72776">
        <ele>226.06253</ele>
        <time>2023-08-05T14:03:47.000Z</time>
      </trkpt>
      <trkpt lat="45.90527" lon="4.72776">
        <ele>226.15207</ele>
        <time>2023-08-05T14:03:48.000Z</time>
      </trkpt>
      <trkpt lat="45.90522" lon="4.72776">
        <ele>226.21513</ele>
        <time>2023-08-05T14:03:49.000Z</time>
      </trkpt>
      <trkpt lat="45.90516" lon="4.72775">
        <ele>226.25903</ele>
        <time>2023-08-05T14:03:50.000Z</time>
      </trkpt>
      <trkpt lat="45.90511" lon="4.72775">
        <ele>226.30676</ele>
        <time>2023-08-05T14:03:51.000Z</time>
      </trkpt>
      <trkpt lat="45.90506" lon="4.72775">
        <ele>226.34773</ele>
        <time>2023-08-05T14:03:52.000Z</time>
      </trkpt>
      <trkpt lat="45.90501" lon="4.72774">
        <ele>226.39536</ele>
        <time>2023-08-05T14:03:53.000Z</time>
      </trkpt>
      <trkpt lat="45.90495" lon="4.72773">
        <ele>226.41501</ele>
        <time>2023-08-05T14:03:54.000Z</time>
      </trkpt>
      <trkpt lat="45.9049" lon="4.72772">
        <ele>226.41272</ele>
        <time>2023-08-05T14:03:55.000Z</time>
      </trkpt>
      <trkpt lat="45.90486" lon="4.72769">
        <ele>226.44052</ele>
        <time>2023-08-05T14:03:56.000Z</time>
      </trkpt>
      <trkpt lat="45.90481" lon="4.72768">
        <ele>226.45403</ele>
        <time>2023-08-05T14:03:57.000Z</time>
      </trkpt>
      <trkpt lat="45.90475" lon="4.72766">
        <ele>226.46696</ele>
        <time>2023-08-05T14:03:58.000Z</time>
      </trkpt>
      <trkpt lat="45.9047" lon="4.72764">
        <ele>226.47408</ele>
        <time>2023-08-05T14:03:59.000Z</time>
      </trkpt>
      <trkpt lat="45.90465" lon="4.72763">
        <ele>226.48662</ele>
        <time>2023-08-05T14:04:00.000Z</time>
      </trkpt>
      <trkpt lat="45.9046" lon="4.72762">
        <ele>226.43144</ele>
        <time>2023-08-05T14:04:01.000Z</time>
      </trkpt>
      <trkpt lat="45.90455" lon="4.72761">
        <ele>226.39053</ele>
        <time>2023-08-05T14:04:02.000Z</time>
      </trkpt>
      <trkpt lat="45.90449" lon="4.7276">
        <ele>226.37411</ele>
        <time>2023-08-05T14:04:03.000Z</time>
      </trkpt>
      <trkpt lat="45.90444" lon="4.72759">
        <ele>226.3221</ele>
        <time>2023-08-05T14:04:04.000Z</time>
      </trkpt>
      <trkpt lat="45.90438" lon="4.72757">
        <ele>226.29668</ele>
        <time>2023-08-05T14:04:05.000Z</time>
      </trkpt>
      <trkpt lat="45.90433" lon="4.72756">
        <ele>226.26236</ele>
        <time>2023-08-05T14:04:06.000Z</time>
      </trkpt>
      <trkpt lat="45.90428" lon="4.72754">
        <ele>226.23953</ele>
        <time>2023-08-05T14:04:07.000Z</time>
      </trkpt>
      <trkpt lat="45.90423" lon="4.72754">
        <ele>226.19307</ele>
        <time>2023-08-05T14:04:08.000Z</time>
      </trkpt>
      <trkpt lat="45.90418" lon="4.72753">
        <ele>226.13107</ele>
        <time>2023-08-05T14:04:09.000Z</time>
      </trkpt>
      <trkpt lat="45.90412" lon="4.72752">
        <ele>226.054</ele>
        <time>2023-08-05T14:04:10.000Z</time>
      </trkpt>
      <trkpt lat="45.90407" lon="4.72751">
        <ele>226.02026</ele>
        <time>2023-08-05T14:04:11.000Z</time>
      </trkpt>
      <trkpt lat="45.90401" lon="4.72749">
        <ele>225.9664</ele>
        <time>2023-08-05T14:04:12.000Z</time>
      </trkpt>
      <trkpt lat="45.90395" lon="4.72749">
        <ele>225.86191</ele>
        <time>2023-08-05T14:04:13.000Z</time>
      </trkpt>
      <trkpt lat="45.9039" lon="4.72749">
        <ele>225.76509</ele>
        <time>2023-08-05T14:04:14.000Z</time>
      </trkpt>
      <trkpt lat="45.90384" lon="4.72748">
        <ele>225.64981</ele>
        <time>2023-08-05T14:04:15.000Z</time>
      </trkpt>
      <trkpt lat="45.90379" lon="4.72746">
        <ele>225.5369</ele>
        <time>2023-08-05T14:04:16.000Z</time>
      </trkpt>
      <trkpt lat="45.90374" lon="4.72745">
        <ele>225.43872</ele>
        <time>2023-08-05T14:04:17.000Z</time>
      </trkpt>
      <trkpt lat="45.90368" lon="4.72745">
        <ele>225.33647</ele>
        <time>2023-08-05T14:04:18.000Z</time>
      </trkpt>
      <trkpt lat="45.90362" lon="4.72745">
        <ele>225.24117</ele>
        <time>2023-08-05T14:04:19.000Z</time>
      </trkpt>
      <trkpt lat="45.90357" lon="4.72745">
        <ele>225.14844</ele>
        <time>2023-08-05T14:04:20.000Z</time>
      </trkpt>
      <trkpt lat="45.90351" lon="4.72744">
        <ele>225.11746</ele>
        <time>2023-08-05T14:04:21.000Z</time>
      </trkpt>
      <trkpt lat="45.90346" lon="4.72744">
        <ele>225.04781</ele>
        <time>2023-08-05T14:04:22.000Z</time>
      </trkpt>
      <trkpt lat="45.9034" lon="4.72744">
        <ele>224.976</ele>
        <time>2023-08-05T14:04:23.000Z</time>
      </trkpt>
      <trkpt lat="45.90334" lon="4.72743">
        <ele>224.89682</ele>
        <time>2023-08-05T14:04:24.000Z</time>
      </trkpt>
      <trkpt lat="45.90329" lon="4.72743">
        <ele>224.80038</ele>
        <time>2023-08-05T14:04:25.000Z</time>
      </trkpt>
      <trkpt lat="45.90323" lon="4.72743">
        <ele>224.70874</ele>
        <time>2023-08-05T14:04:26.000Z</time>
      </trkpt>
      <trkpt lat="45.90316" lon="4.72742">
        <ele>224.60005</ele>
        <time>2023-08-05T14:04:27.000Z</time>
      </trkpt>
      <trkpt lat="45.9031" lon="4.72742">
        <ele>224.50375</ele>
        <time>2023-08-05T14:04:28.000Z</time>
      </trkpt>
      <trkpt lat="45.90304" lon="4.72743">
        <ele>224.45255</ele>
        <time>2023-08-05T14:04:29.000Z</time>
      </trkpt>
      <trkpt lat="45.90298" lon="4.72743">
        <ele>224.40112</ele>
        <time>2023-08-05T14:04:30.000Z</time>
      </trkpt>
      <trkpt lat="45.90293" lon="4.72746">
        <ele>224.30884</ele>
        <time>2023-08-05T14:04:31.000Z</time>
      </trkpt>
      <trkpt lat="45.90287" lon="4.72748">
        <ele>224.22742</ele>
        <time>2023-08-05T14:04:32.000Z</time>
      </trkpt>
      <trkpt lat="45.90281" lon="4.72748">
        <ele>224.181</ele>
        <time>2023-08-05T14:04:33.000Z</time>
      </trkpt>
      <trkpt lat="45.90276" lon="4.7275">
        <ele>224.11926</ele>
        <time>2023-08-05T14:04:34.000Z</time>
      </trkpt>
      <trkpt lat="45.90271" lon="4.72752">
        <ele>224.10239</ele>
        <time>2023-08-05T14:04:35.000Z</time>
      </trkpt>
      <trkpt lat="45.90265" lon="4.72752">
        <ele>224.07642</ele>
        <time>2023-08-05T14:04:36.000Z</time>
      </trkpt>
      <trkpt lat="45.90259" lon="4.72753">
        <ele>224.04765</ele>
        <time>2023-08-05T14:04:37.000Z</time>
      </trkpt>
      <trkpt lat="45.90254" lon="4.72754">
        <ele>224.00398</ele>
        <time>2023-08-05T14:04:38.000Z</time>
      </trkpt>
      <trkpt lat="45.90248" lon="4.72755">
        <ele>223.93535</ele>
        <time>2023-08-05T14:04:39.000Z</time>
      </trkpt>
      <trkpt lat="45.90242" lon="4.72756">
        <ele>223.84604</ele>
        <time>2023-08-05T14:04:40.000Z</time>
      </trkpt>
      <trkpt lat="45.90236" lon="4.72758">
        <ele>223.77808</ele>
        <time>2023-08-05T14:04:41.000Z</time>
      </trkpt>
      <trkpt lat="45.9023" lon="4.72759">
        <ele>223.73425</ele>
        <time>2023-08-05T14:04:42.000Z</time>
      </trkpt>
      <trkpt lat="45.90226" lon="4.7276">
        <ele>223.70313</ele>
        <time>2023-08-05T14:04:43.000Z</time>
      </trkpt>
      <trkpt lat="45.9022" lon="4.7276">
        <ele>223.69458</ele>
        <time>2023-08-05T14:04:44.000Z</time>
      </trkpt>
      <trkpt lat="45.90215" lon="4.72762">
        <ele>223.6799</ele>
        <time>2023-08-05T14:04:45.000Z</time>
      </trkpt>
      <trkpt lat="45.90209" lon="4.72765">
        <ele>223.68901</ele>
        <time>2023-08-05T14:04:46.000Z</time>
      </trkpt>
      <trkpt lat="45.90204" lon="4.72768">
        <ele>223.73291</ele>
        <time>2023-08-05T14:04:47.000Z</time>
      </trkpt>
      <trkpt lat="45.90199" lon="4.72771">
        <ele>223.75562</ele>
        <time>2023-08-05T14:04:48.000Z</time>
      </trkpt>
      <trkpt lat="45.90194" lon="4.72774">
        <ele>223.75606</ele>
        <time>2023-08-05T14:04:49.000Z</time>
      </trkpt>
      <trkpt lat="45.90189" lon="4.72777">
        <ele>223.80009</ele>
        <time>2023-08-05T14:04:50.000Z</time>
      </trkpt>
      <trkpt lat="45.90184" lon="4.72781">
        <ele>223.83955</ele>
        <time>2023-08-05T14:04:51.000Z</time>
      </trkpt>
      <trkpt lat="45.90179" lon="4.72784">
        <ele>223.89639</ele>
        <time>2023-08-05T14:04:52.000Z</time>
      </trkpt>
      <trkpt lat="45.90174" lon="4.72787">
        <ele>223.9727</ele>
        <time>2023-08-05T14:04:53.000Z</time>
      </trkpt>
      <trkpt lat="45.90169" lon="4.7279">
        <ele>224.08682</ele>
        <time>2023-08-05T14:04:54.000Z</time>
      </trkpt>
      <trkpt lat="45.90164" lon="4.72792">
        <ele>224.18301</ele>
        <time>2023-08-05T14:04:55.000Z</time>
      </trkpt>
      <trkpt lat="45.90159" lon="4.72794">
        <ele>224.28342</ele>
        <time>2023-08-05T14:04:56.000Z</time>
      </trkpt>
      <trkpt lat="45.90154" lon="4.72796">
        <ele>224.38879</ele>
        <time>2023-08-05T14:04:57.000Z</time>
      </trkpt>
      <trkpt lat="45.90148" lon="4.72798">
        <ele>224.51436</ele>
        <time>2023-08-05T14:04:58.000Z</time>
      </trkpt>
      <trkpt lat="45.90142" lon="4.728">
        <ele>224.64987</ele>
        <time>2023-08-05T14:04:59.000Z</time>
      </trkpt>
      <trkpt lat="45.90138" lon="4.728">
        <ele>224.79634</ele>
        <time>2023-08-05T14:05:00.000Z</time>
      </trkpt>
      <trkpt lat="45.90133" lon="4.72802">
        <ele>224.93221</ele>
        <time>2023-08-05T14:05:01.000Z</time>
      </trkpt>
      <trkpt lat="45.90127" lon="4.72804">
        <ele>225.05859</ele>
        <time>2023-08-05T14:05:02.000Z</time>
      </trkpt>
      <trkpt lat="45.90122" lon="4.72806">
        <ele>225.19302</ele>
        <time>2023-08-05T14:05:03.000Z</time>
      </trkpt>
      <trkpt lat="45.90117" lon="4.72808">
        <ele>225.36423</ele>
        <time>2023-08-05T14:05:04.000Z</time>
      </trkpt>
      <trkpt lat="45.90113" lon="4.7281">
        <ele>225.54245</ele>
        <time>2023-08-05T14:05:05.000Z</time>
      </trkpt>
      <trkpt lat="45.90108" lon="4.72811">
        <ele>225.71912</ele>
        <time>2023-08-05T14:05:06.000Z</time>
      </trkpt>
      <trkpt lat="45.90103" lon="4.72812">
        <ele>225.87601</ele>
        <time>2023-08-05T14:05:07.000Z</time>
      </trkpt>
      <trkpt lat="45.90097" lon="4.72813">
        <ele>226.0507</ele>
        <time>2023-08-05T14:05:08.000Z</time>
      </trkpt>
      <trkpt lat="45.90093" lon="4.72814">
        <ele>226.23563</ele>
        <time>2023-08-05T14:05:09.000Z</time>
      </trkpt>
      <trkpt lat="45.90088" lon="4.72814">
        <ele>226.39005</ele>
        <time>2023-08-05T14:05:10.000Z</time>
      </trkpt>
      <trkpt lat="45.90083" lon="4.72815">
        <ele>226.56137</ele>
        <time>2023-08-05T14:05:11.000Z</time>
      </trkpt>
      <trkpt lat="45.90077" lon="4.72817">
        <ele>226.70818</ele>
        <time>2023-08-05T14:05:12.000Z</time>
      </trkpt>
      <trkpt lat="45.90072" lon="4.72817">
        <ele>226.80962</ele>
        <time>2023-08-05T14:05:13.000Z</time>
      </trkpt>
      <trkpt lat="45.90066" lon="4.72818">
        <ele>226.90637</ele>
        <time>2023-08-05T14:05:14.000Z</time>
      </trkpt>
      <trkpt lat="45.90062" lon="4.72818">
        <ele>227.0092</ele>
        <time>2023-08-05T14:05:15.000Z</time>
      </trkpt>
      <trkpt lat="45.90056" lon="4.7282">
        <ele>227.11858</ele>
        <time>2023-08-05T14:05:16.000Z</time>
      </trkpt>
      <trkpt lat="45.90051" lon="4.72821">
        <ele>227.18637</ele>
        <time>2023-08-05T14:05:17.000Z</time>
      </trkpt>
      <trkpt lat="45.90045" lon="4.72823">
        <ele>227.23177</ele>
        <time>2023-08-05T14:05:18.000Z</time>
      </trkpt>
      <trkpt lat="45.9004" lon="4.72825">
        <ele>227.30122</ele>
        <time>2023-08-05T14:05:19.000Z</time>
      </trkpt>
      <trkpt lat="45.90034" lon="4.72827">
        <ele>227.36044</ele>
        <time>2023-08-05T14:05:20.000Z</time>
      </trkpt>
      <trkpt lat="45.90028" lon="4.72829">
        <ele>227.39615</ele>
        <time>2023-08-05T14:05:21.000Z</time>
      </trkpt>
      <trkpt lat="45.90023" lon="4.72831">
        <ele>227.45557</ele>
        <time>2023-08-05T14:05:22.000Z</time>
      </trkpt>
      <trkpt lat="45.90018" lon="4.72834">
        <ele>227.52092</ele>
        <time>2023-08-05T14:05:23.000Z</time>
      </trkpt>
      <trkpt lat="45.90013" lon="4.72836">
        <ele>227.53484</ele>
        <time>2023-08-05T14:05:24.000Z</time>
      </trkpt>
      <trkpt lat="45.90007" lon="4.72838">
        <ele>227.55351</ele>
        <time>2023-08-05T14:05:25.000Z</time>
      </trkpt>
      <trkpt lat="45.90002" lon="4.7284">
        <ele>227.53731</ele>
        <time>2023-08-05T14:05:26.000Z</time>
      </trkpt>
      <trkpt lat="45.89996" lon="4.72843">
        <ele>227.53584</ele>
        <time>2023-08-05T14:05:27.000Z</time>
      </trkpt>
      <trkpt lat="45.89991" lon="4.72846">
        <ele>227.51791</ele>
        <time>2023-08-05T14:05:28.000Z</time>
      </trkpt>
      <trkpt lat="45.89985" lon="4.72848">
        <ele>227.48848</ele>
        <time>2023-08-05T14:05:29.000Z</time>
      </trkpt>
      <trkpt lat="45.8998" lon="4.72852">
        <ele>227.45992</ele>
        <time>2023-08-05T14:05:30.000Z</time>
      </trkpt>
      <trkpt lat="45.89974" lon="4.72854">
        <ele>227.40918</ele>
        <time>2023-08-05T14:05:31.000Z</time>
      </trkpt>
      <trkpt lat="45.89968" lon="4.72857">
        <ele>227.33023</ele>
        <time>2023-08-05T14:05:32.000Z</time>
      </trkpt>
      <trkpt lat="45.89963" lon="4.72861">
        <ele>227.29721</ele>
        <time>2023-08-05T14:05:33.000Z</time>
      </trkpt>
      <trkpt lat="45.89958" lon="4.72868">
        <ele>227.243</ele>
        <time>2023-08-05T14:05:34.000Z</time>
      </trkpt>
      <trkpt lat="45.89954" lon="4.72874">
        <ele>227.16788</ele>
        <time>2023-08-05T14:05:35.000Z</time>
      </trkpt>
      <trkpt lat="45.89953" lon="4.72882">
        <ele>227.11438</ele>
        <time>2023-08-05T14:05:36.000Z</time>
      </trkpt>
      <trkpt lat="45.89953" lon="4.72892">
        <ele>227.0817</ele>
        <time>2023-08-05T14:05:37.000Z</time>
      </trkpt>
      <trkpt lat="45.89955" lon="4.729">
        <ele>227.07187</ele>
        <time>2023-08-05T14:05:38.000Z</time>
      </trkpt>
      <trkpt lat="45.89956" lon="4.72908">
        <ele>227.05957</ele>
        <time>2023-08-05T14:05:39.000Z</time>
      </trkpt>
      <trkpt lat="45.89958" lon="4.72917">
        <ele>227.0632</ele>
        <time>2023-08-05T14:05:40.000Z</time>
      </trkpt>
      <trkpt lat="45.8996" lon="4.72926">
        <ele>227.08904</ele>
        <time>2023-08-05T14:05:41.000Z</time>
      </trkpt>
      <trkpt lat="45.89961" lon="4.72934">
        <ele>227.10388</ele>
        <time>2023-08-05T14:05:42.000Z</time>
      </trkpt>
      <trkpt lat="45.89962" lon="4.72942">
        <ele>227.07254</ele>
        <time>2023-08-05T14:05:43.000Z</time>
      </trkpt>
      <trkpt lat="45.89964" lon="4.7295">
        <ele>227.04489</ele>
        <time>2023-08-05T14:05:44.000Z</time>
      </trkpt>
      <trkpt lat="45.89966" lon="4.72958">
        <ele>227.03235</ele>
        <time>2023-08-05T14:05:45.000Z</time>
      </trkpt>
      <trkpt lat="45.89966" lon="4.72966">
        <ele>227.05005</ele>
        <time>2023-08-05T14:05:46.000Z</time>
      </trkpt>
      <trkpt lat="45.89966" lon="4.72974">
        <ele>227.0677</ele>
        <time>2023-08-05T14:05:47.000Z</time>
      </trkpt>
      <trkpt lat="45.89964" lon="4.72981">
        <ele>227.11526</ele>
        <time>2023-08-05T14:05:48.000Z</time>
      </trkpt>
      <trkpt lat="45.89962" lon="4.72989">
        <ele>227.20154</ele>
        <time>2023-08-05T14:05:49.000Z</time>
      </trkpt>
      <trkpt lat="45.89958" lon="4.72995">
        <ele>227.30376</ele>
        <time>2023-08-05T14:05:50.000Z</time>
      </trkpt>
      <trkpt lat="45.89952" lon="4.72998">
        <ele>227.42471</ele>
        <time>2023-08-05T14:05:51.000Z</time>
      </trkpt>
      <trkpt lat="45.89945" lon="4.73002">
        <ele>227.53194</ele>
        <time>2023-08-05T14:05:52.000Z</time>
      </trkpt>
      <trkpt lat="45.8994" lon="4.73004">
        <ele>227.64343</ele>
        <time>2023-08-05T14:05:53.000Z</time>
      </trkpt>
      <trkpt lat="45.89933" lon="4.73007">
        <ele>227.74385</ele>
        <time>2023-08-05T14:05:54.000Z</time>
      </trkpt>
      <trkpt lat="45.89927" lon="4.7301">
        <ele>227.90921</ele>
        <time>2023-08-05T14:05:55.000Z</time>
      </trkpt>
      <trkpt lat="45.89921" lon="4.73014">
        <ele>228.02768</ele>
        <time>2023-08-05T14:05:56.000Z</time>
      </trkpt>
      <trkpt lat="45.89915" lon="4.73016">
        <ele>228.13594</ele>
        <time>2023-08-05T14:05:57.000Z</time>
      </trkpt>
      <trkpt lat="45.89908" lon="4.73019">
        <ele>228.20723</ele>
        <time>2023-08-05T14:05:58.000Z</time>
      </trkpt>
      <trkpt lat="45.89901" lon="4.73021">
        <ele>228.2675</ele>
        <time>2023-08-05T14:05:59.000Z</time>
      </trkpt>
      <trkpt lat="45.89895" lon="4.73023">
        <ele>228.31113</ele>
        <time>2023-08-05T14:06:00.000Z</time>
      </trkpt>
      <trkpt lat="45.89889" lon="4.73026">
        <ele>228.32681</ele>
        <time>2023-08-05T14:06:01.000Z</time>
      </trkpt>
      <trkpt lat="45.89883" lon="4.73029">
        <ele>228.32292</ele>
        <time>2023-08-05T14:06:02.000Z</time>
      </trkpt>
      <trkpt lat="45.89876" lon="4.73031">
        <ele>228.36124</ele>
        <time>2023-08-05T14:06:03.000Z</time>
      </trkpt>
      <trkpt lat="45.8987" lon="4.73033">
        <ele>228.41916</ele>
        <time>2023-08-05T14:06:04.000Z</time>
      </trkpt>
      <trkpt lat="45.89865" lon="4.73035">
        <ele>228.46191</ele>
        <time>2023-08-05T14:06:05.000Z</time>
      </trkpt>
      <trkpt lat="45.89859" lon="4.73038">
        <ele>228.48701</ele>
        <time>2023-08-05T14:06:06.000Z</time>
      </trkpt>
      <trkpt lat="45.89853" lon="4.7304">
        <ele>228.46494</ele>
        <time>2023-08-05T14:06:07.000Z</time>
      </trkpt>
      <trkpt lat="45.89846" lon="4.73044">
        <ele>228.46829</ele>
        <time>2023-08-05T14:06:08.000Z</time>
      </trkpt>
      <trkpt lat="45.8984" lon="4.73048">
        <ele>228.43208</ele>
        <time>2023-08-05T14:06:09.000Z</time>
      </trkpt>
      <trkpt lat="45.89834" lon="4.73051">
        <ele>228.40689</ele>
        <time>2023-08-05T14:06:10.000Z</time>
      </trkpt>
      <trkpt lat="45.89829" lon="4.73053">
        <ele>228.38811</ele>
        <time>2023-08-05T14:06:11.000Z</time>
      </trkpt>
      <trkpt lat="45.89824" lon="4.73054">
        <ele>228.41187</ele>
        <time>2023-08-05T14:06:12.000Z</time>
      </trkpt>
      <trkpt lat="45.89817" lon="4.73058">
        <ele>228.38216</ele>
        <time>2023-08-05T14:06:13.000Z</time>
      </trkpt>
      <trkpt lat="45.8981" lon="4.73061">
        <ele>228.33806</ele>
        <time>2023-08-05T14:06:14.000Z</time>
      </trkpt>
      <trkpt lat="45.89804" lon="4.73064">
        <ele>228.23767</ele>
        <time>2023-08-05T14:06:15.000Z</time>
      </trkpt>
      <trkpt lat="45.89798" lon="4.73067">
        <ele>228.19234</ele>
        <time>2023-08-05T14:06:16.000Z</time>
      </trkpt>
      <trkpt lat="45.89792" lon="4.7307">
        <ele>228.17099</ele>
        <time>2023-08-05T14:06:17.000Z</time>
      </trkpt>
      <trkpt lat="45.89786" lon="4.73073">
        <ele>228.18633</ele>
        <time>2023-08-05T14:06:18.000Z</time>
      </trkpt>
      <trkpt lat="45.8978" lon="4.73076">
        <ele>228.20674</ele>
        <time>2023-08-05T14:06:19.000Z</time>
      </trkpt>
      <trkpt lat="45.89775" lon="4.73079">
        <ele>228.26692</ele>
        <time>2023-08-05T14:06:20.000Z</time>
      </trkpt>
      <trkpt lat="45.89768" lon="4.73082">
        <ele>228.30737</ele>
        <time>2023-08-05T14:06:21.000Z</time>
      </trkpt>
      <trkpt lat="45.89762" lon="4.73085">
        <ele>228.36832</ele>
        <time>2023-08-05T14:06:22.000Z</time>
      </trkpt>
      <trkpt lat="45.89757" lon="4.73088">
        <ele>228.41837</ele>
        <time>2023-08-05T14:06:23.000Z</time>
      </trkpt>
      <trkpt lat="45.89751" lon="4.7309">
        <ele>228.45027</ele>
        <time>2023-08-05T14:06:24.000Z</time>
      </trkpt>
      <trkpt lat="45.89744" lon="4.7309">
        <ele>228.49051</ele>
        <time>2023-08-05T14:06:25.000Z</time>
      </trkpt>
      <trkpt lat="45.89738" lon="4.73089">
        <ele>228.53911</ele>
        <time>2023-08-05T14:06:26.000Z</time>
      </trkpt>
      <trkpt lat="45.89731" lon="4.73086">
        <ele>228.59343</ele>
        <time>2023-08-05T14:06:27.000Z</time>
      </trkpt>
      <trkpt lat="45.89725" lon="4.73083">
        <ele>228.59549</ele>
        <time>2023-08-05T14:06:28.000Z</time>
      </trkpt>
      <trkpt lat="45.89719" lon="4.7308">
        <ele>228.58069</ele>
        <time>2023-08-05T14:06:29.000Z</time>
      </trkpt>
      <trkpt lat="45.89713" lon="4.73078">
        <ele>228.55667</ele>
        <time>2023-08-05T14:06:30.000Z</time>
      </trkpt>
      <trkpt lat="45.89707" lon="4.73075">
        <ele>228.5289</ele>
        <time>2023-08-05T14:06:31.000Z</time>
      </trkpt>
      <trkpt lat="45.89702" lon="4.73071">
        <ele>228.51726</ele>
        <time>2023-08-05T14:06:32.000Z</time>
      </trkpt>
      <trkpt lat="45.89697" lon="4.73068">
        <ele>228.52707</ele>
        <time>2023-08-05T14:06:33.000Z</time>
      </trkpt>
      <trkpt lat="45.89692" lon="4.73066">
        <ele>228.58121</ele>
        <time>2023-08-05T14:06:34.000Z</time>
      </trkpt>
      <trkpt lat="45.89686" lon="4.73063">
        <ele>228.6418</ele>
        <time>2023-08-05T14:06:35.000Z</time>
      </trkpt>
      <trkpt lat="45.89681" lon="4.73061">
        <ele>228.62822</ele>
        <time>2023-08-05T14:06:36.000Z</time>
      </trkpt>
      <trkpt lat="45.89676" lon="4.73058">
        <ele>228.57463</ele>
        <time>2023-08-05T14:06:37.000Z</time>
      </trkpt>
      <trkpt lat="45.8967" lon="4.73054">
        <ele>228.5103</ele>
        <time>2023-08-05T14:06:38.000Z</time>
      </trkpt>
      <trkpt lat="45.89664" lon="4.73051">
        <ele>228.4677</ele>
        <time>2023-08-05T14:06:39.000Z</time>
      </trkpt>
      <trkpt lat="45.8966" lon="4.73047">
        <ele>228.39778</ele>
        <time>2023-08-05T14:06:40.000Z</time>
      </trkpt>
      <trkpt lat="45.89654" lon="4.73045">
        <ele>228.37056</ele>
        <time>2023-08-05T14:06:41.000Z</time>
      </trkpt>
      <trkpt lat="45.89649" lon="4.73041">
        <ele>228.30325</ele>
        <time>2023-08-05T14:06:42.000Z</time>
      </trkpt>
      <trkpt lat="45.89644" lon="4.73038">
        <ele>228.24084</ele>
        <time>2023-08-05T14:06:43.000Z</time>
      </trkpt>
      <trkpt lat="45.89638" lon="4.73036">
        <ele>228.18445</ele>
        <time>2023-08-05T14:06:44.000Z</time>
      </trkpt>
      <trkpt lat="45.89633" lon="4.73033">
        <ele>228.11079</ele>
        <time>2023-08-05T14:06:45.000Z</time>
      </trkpt>
      <trkpt lat="45.89627" lon="4.73029">
        <ele>228.03467</ele>
        <time>2023-08-05T14:06:46.000Z</time>
      </trkpt>
      <trkpt lat="45.89622" lon="4.73024">
        <ele>227.98828</ele>
        <time>2023-08-05T14:06:47.000Z</time>
      </trkpt>
      <trkpt lat="45.89617" lon="4.73019">
        <ele>227.97049</ele>
        <time>2023-08-05T14:06:48.000Z</time>
      </trkpt>
      <trkpt lat="45.89614" lon="4.73012">
        <ele>227.9816</ele>
        <time>2023-08-05T14:06:49.000Z</time>
      </trkpt>
      <trkpt lat="45.8961" lon="4.73006">
        <ele>227.98129</ele>
        <time>2023-08-05T14:06:50.000Z</time>
      </trkpt>
      <trkpt lat="45.89606" lon="4.73001">
        <ele>227.95804</ele>
        <time>2023-08-05T14:06:51.000Z</time>
      </trkpt>
      <trkpt lat="45.89602" lon="4.72995">
        <ele>227.94946</ele>
        <time>2023-08-05T14:06:52.000Z</time>
      </trkpt>
      <trkpt lat="45.89599" lon="4.72989">
        <ele>227.94197</ele>
        <time>2023-08-05T14:06:53.000Z</time>
      </trkpt>
      <trkpt lat="45.89596" lon="4.72985">
        <ele>227.92404</ele>
        <time>2023-08-05T14:06:54.000Z</time>
      </trkpt>
      <trkpt lat="45.89593" lon="4.72982">
        <ele>227.87874</ele>
        <time>2023-08-05T14:06:55.000Z</time>
      </trkpt>
      <trkpt lat="45.89591" lon="4.7298">
        <ele>227.83513</ele>
        <time>2023-08-05T14:06:56.000Z</time>
      </trkpt>
      <trkpt lat="45.89588" lon="4.72978">
        <ele>227.84297</ele>
        <time>2023-08-05T14:06:57.000Z</time>
      </trkpt>
      <trkpt lat="45.89585" lon="4.72976">
        <ele>227.87158</ele>
        <time>2023-08-05T14:06:58.000Z</time>
      </trkpt>
      <trkpt lat="45.89583" lon="4.72973">
        <ele>227.89465</ele>
        <time>2023-08-05T14:06:59.000Z</time>
      </trkpt>
      <trkpt lat="45.89581" lon="4.7297">
        <ele>227.92451</ele>
        <time>2023-08-05T14:07:00.000Z</time>
      </trkpt>
      <trkpt lat="45.89578" lon="4.72969">
        <ele>227.95415</ele>
        <time>2023-08-05T14:07:01.000Z</time>
      </trkpt>
      <trkpt lat="45.89576" lon="4.72966">
        <ele>228.01253</ele>
        <time>2023-08-05T14:07:02.000Z</time>
      </trkpt>
      <trkpt lat="45.89575" lon="4.72964">
        <ele>228.05424</ele>
        <time>2023-08-05T14:07:03.000Z</time>
      </trkpt>
      <trkpt lat="45.89573" lon="4.72962">
        <ele>228.0916</ele>
        <time>2023-08-05T14:07:05.000Z</time>
      </trkpt>
      <trkpt lat="45.89572" lon="4.7296">
        <ele>228.15005</ele>
        <time>2023-08-05T14:07:07.000Z</time>
      </trkpt>
      <trkpt lat="45.8957" lon="4.72963">
        <ele>228.20381</ele>
        <time>2023-08-05T14:07:09.000Z</time>
      </trkpt>
      <trkpt lat="45.8957" lon="4.72965">
        <ele>228.26523</ele>
        <time>2023-08-05T14:07:10.000Z</time>
      </trkpt>
      <trkpt lat="45.89573" lon="4.72968">
        <ele>228.33638</ele>
        <time>2023-08-05T14:07:11.000Z</time>
      </trkpt>
      <trkpt lat="45.89577" lon="4.7297">
        <ele>228.41801</ele>
        <time>2023-08-05T14:07:12.000Z</time>
      </trkpt>
      <trkpt lat="45.8958" lon="4.72973">
        <ele>228.48418</ele>
        <time>2023-08-05T14:07:13.000Z</time>
      </trkpt>
      <trkpt lat="45.89583" lon="4.72975">
        <ele>228.57329</ele>
        <time>2023-08-05T14:07:14.000Z</time>
      </trkpt>
      <trkpt lat="45.89586" lon="4.72978">
        <ele>228.6207</ele>
        <time>2023-08-05T14:07:15.000Z</time>
      </trkpt>
      <trkpt lat="45.8959" lon="4.7298">
        <ele>228.69498</ele>
        <time>2023-08-05T14:07:16.000Z</time>
      </trkpt>
      <trkpt lat="45.89594" lon="4.72983">
        <ele>228.78593</ele>
        <time>2023-08-05T14:07:17.000Z</time>
      </trkpt>
      <trkpt lat="45.89598" lon="4.72987">
        <ele>228.88876</ele>
        <time>2023-08-05T14:07:18.000Z</time>
      </trkpt>
      <trkpt lat="45.89601" lon="4.72991">
        <ele>229.00317</ele>
        <time>2023-08-05T14:07:19.000Z</time>
      </trkpt>
      <trkpt lat="45.89605" lon="4.72994">
        <ele>229.10825</ele>
        <time>2023-08-05T14:07:20.000Z</time>
      </trkpt>
      <trkpt lat="45.89608" lon="4.72998">
        <ele>229.21313</ele>
        <time>2023-08-05T14:07:21.000Z</time>
      </trkpt>
      <trkpt lat="45.89611" lon="4.72998">
        <ele>229.30252</ele>
        <time>2023-08-05T14:07:22.000Z</time>
      </trkpt>
      <trkpt lat="45.89614" lon="4.72995">
        <ele>229.36821</ele>
        <time>2023-08-05T14:07:23.000Z</time>
      </trkpt>
      <trkpt lat="45.89616" lon="4.7299">
        <ele>229.44083</ele>
        <time>2023-08-05T14:07:24.000Z</time>
      </trkpt>
      <trkpt lat="45.89618" lon="4.72986">
        <ele>229.52824</ele>
        <time>2023-08-05T14:07:25.000Z</time>
      </trkpt>
      <trkpt lat="45.89619" lon="4.72981">
        <ele>229.60352</ele>
        <time>2023-08-05T14:07:26.000Z</time>
      </trkpt>
      <trkpt lat="45.89621" lon="4.72976">
        <ele>229.672</ele>
        <time>2023-08-05T14:07:27.000Z</time>
      </trkpt>
      <trkpt lat="45.89613" lon="4.72964">
        <ele>229.65994</ele>
        <time>2023-08-05T14:07:28.000Z</time>
      </trkpt>
      <trkpt lat="45.8961" lon="4.72959">
        <ele>229.62854</ele>
        <time>2023-08-05T14:07:29.000Z</time>
      </trkpt>
      <trkpt lat="45.89608" lon="4.72953">
        <ele>229.58444</ele>
        <time>2023-08-05T14:07:30.000Z</time>
      </trkpt>
      <trkpt lat="45.89606" lon="4.72948">
        <ele>229.51692</ele>
        <time>2023-08-05T14:07:31.000Z</time>
      </trkpt>
      <trkpt lat="45.89604" lon="4.72945">
        <ele>229.44975</ele>
        <time>2023-08-05T14:07:32.000Z</time>
      </trkpt>
      <trkpt lat="45.896" lon="4.72944">
        <ele>229.36365</ele>
        <time>2023-08-05T14:07:33.000Z</time>
      </trkpt>
      <trkpt lat="45.89597" lon="4.72942">
        <ele>229.26651</ele>
        <time>2023-08-05T14:07:34.000Z</time>
      </trkpt>
      <trkpt lat="45.89595" lon="4.72941">
        <ele>229.18645</ele>
        <time>2023-08-05T14:07:35.000Z</time>
      </trkpt>
      <trkpt lat="45.89591" lon="4.72941">
        <ele>229.09578</ele>
        <time>2023-08-05T14:07:36.000Z</time>
      </trkpt>
      <trkpt lat="45.89587" lon="4.72941">
        <ele>228.99178</ele>
        <time>2023-08-05T14:07:37.000Z</time>
      </trkpt>
      <trkpt lat="45.89584" lon="4.72939">
        <ele>228.87607</ele>
        <time>2023-08-05T14:07:38.000Z</time>
      </trkpt>
      <trkpt lat="45.8958" lon="4.72937">
        <ele>228.80693</ele>
        <time>2023-08-05T14:07:39.000Z</time>
      </trkpt>
      <trkpt lat="45.89578" lon="4.72935">
        <ele>228.77776</ele>
        <time>2023-08-05T14:07:40.000Z</time>
      </trkpt>
      <trkpt lat="45.89577" lon="4.72932">
        <ele>228.73178</ele>
        <time>2023-08-05T14:07:41.000Z</time>
      </trkpt>
      <trkpt lat="45.89577" lon="4.72929">
        <ele>228.70193</ele>
        <time>2023-08-05T14:07:42.000Z</time>
      </trkpt>
      <trkpt lat="45.89578" lon="4.72927">
        <ele>228.70406</ele>
        <time>2023-08-05T14:07:51.000Z</time>
      </trkpt>
      <trkpt lat="45.89576" lon="4.72926">
        <ele>228.71651</ele>
        <time>2023-08-05T14:08:02.000Z</time>
      </trkpt>
      <trkpt lat="45.89575" lon="4.72922">
        <ele>228.87088</ele>
        <time>2023-08-05T14:08:43.000Z</time>
      </trkpt>
      <trkpt lat="45.89575" lon="4.72919">
        <ele>229.02725</ele>
        <time>2023-08-05T14:08:44.000Z</time>
      </trkpt>
      <trkpt lat="45.89576" lon="4.72915">
        <ele>229.18098</ele>
        <time>2023-08-05T14:08:45.000Z</time>
      </trkpt>
      <trkpt lat="45.89577" lon="4.72911">
        <ele>229.39676</ele>
        <time>2023-08-05T14:08:46.000Z</time>
      </trkpt>
      <trkpt lat="45.89578" lon="4.72907">
        <ele>229.61417</ele>
        <time>2023-08-05T14:08:48.000Z</time>
      </trkpt>
      <trkpt lat="45.89576" lon="4.72906">
        <ele>229.90134</ele>
        <time>2023-08-05T14:08:50.000Z</time>
      </trkpt>
      <trkpt lat="45.89574" lon="4.72908">
        <ele>230.30344</ele>
        <time>2023-08-05T14:08:56.000Z</time>
      </trkpt>
      <trkpt lat="45.89572" lon="4.72909">
        <ele>230.66597</ele>
        <time>2023-08-05T14:08:58.000Z</time>
      </trkpt>
      <trkpt lat="45.89568" lon="4.72909">
        <ele>231.10843</ele>
        <time>2023-08-05T14:09:00.000Z</time>
      </trkpt>
      <trkpt lat="45.89566" lon="4.72908">
        <ele>231.51797</ele>
        <time>2023-08-05T14:09:01.000Z</time>
      </trkpt>
      <trkpt lat="45.89563" lon="4.72908">
        <ele>231.86443</ele>
        <time>2023-08-05T14:09:02.000Z</time>
      </trkpt>
      <trkpt lat="45.89561" lon="4.72907">
        <ele>232.20508</ele>
        <time>2023-08-05T14:09:03.000Z</time>
      </trkpt>
      <trkpt lat="45.89558" lon="4.72906">
        <ele>232.54248</ele>
        <time>2023-08-05T14:09:04.000Z</time>
      </trkpt>
      <trkpt lat="45.89554" lon="4.72905">
        <ele>232.90027</ele>
        <time>2023-08-05T14:09:05.000Z</time>
      </trkpt>
      <trkpt lat="45.89552" lon="4.72905">
        <ele>233.19125</ele>
        <time>2023-08-05T14:09:06.000Z</time>
      </trkpt>
      <trkpt lat="45.8955" lon="4.72905">
        <ele>233.40376</ele>
        <time>2023-08-05T14:09:07.000Z</time>
      </trkpt>
      <trkpt lat="45.89548" lon="4.72906">
        <ele>233.59073</ele>
        <time>2023-08-05T14:09:09.000Z</time>
      </trkpt>
      <trkpt lat="45.8955" lon="4.72907">
        <ele>233.58183</ele>
        <time>2023-08-05T14:09:23.000Z</time>
      </trkpt>
      <trkpt lat="45.89552" lon="4.72907">
        <ele>233.5466</ele>
        <time>2023-08-05T14:09:25.000Z</time>
      </trkpt>
      <trkpt lat="45.89555" lon="4.72908">
        <ele>233.47864</ele>
        <time>2023-08-05T14:09:28.000Z</time>
      </trkpt>
      <trkpt lat="45.89555" lon="4.72908">
        <ele>233.47864</ele>
        <time>2023-08-05T14:09:28.000Z</time>
      </trkpt>
      <trkpt lat="45.89557" lon="4.72907">
        <ele>233.24411</ele>
        <time>2023-08-05T14:10:24.000Z</time>
      </trkpt>
      <trkpt lat="45.8956" lon="4.72907">
        <ele>233.06377</ele>
        <time>2023-08-05T14:10:26.000Z</time>
      </trkpt>
      <trkpt lat="45.89563" lon="4.72906">
        <ele>232.89755</ele>
        <time>2023-08-05T14:10:27.000Z</time>
      </trkpt>
      <trkpt lat="45.89565" lon="4.72906">
        <ele>232.71561</ele>
        <time>2023-08-05T14:10:28.000Z</time>
      </trkpt>
      <trkpt lat="45.89567" lon="4.72905">
        <ele>232.58549</ele>
        <time>2023-08-05T14:10:29.000Z</time>
      </trkpt>
      <trkpt lat="45.8957" lon="4.72905">
        <ele>232.41446</ele>
        <time>2023-08-05T14:10:31.000Z</time>
      </trkpt>
      <trkpt lat="45.89573" lon="4.72907">
        <ele>232.1102</ele>
        <time>2023-08-05T14:10:33.000Z</time>
      </trkpt>
      <trkpt lat="45.89574" lon="4.72911">
        <ele>231.76314</ele>
        <time>2023-08-05T14:10:34.000Z</time>
      </trkpt>
      <trkpt lat="45.89574" lon="4.72915">
        <ele>231.35538</ele>
        <time>2023-08-05T14:10:35.000Z</time>
      </trkpt>
      <trkpt lat="45.89573" lon="4.72919">
        <ele>230.98694</ele>
        <time>2023-08-05T14:10:36.000Z</time>
      </trkpt>
      <trkpt lat="45.89573" lon="4.72922">
        <ele>230.68498</ele>
        <time>2023-08-05T14:10:37.000Z</time>
      </trkpt>
      <trkpt lat="45.89573" lon="4.72926">
        <ele>230.43643</ele>
        <time>2023-08-05T14:10:39.000Z</time>
      </trkpt>
      <trkpt lat="45.89575" lon="4.72931">
        <ele>230.20036</ele>
        <time>2023-08-05T14:10:41.000Z</time>
      </trkpt>
      <trkpt lat="45.89578" lon="4.72934">
        <ele>229.98051</ele>
        <time>2023-08-05T14:10:43.000Z</time>
      </trkpt>
      <trkpt lat="45.8958" lon="4.72934">
        <ele>229.81804</ele>
        <time>2023-08-05T14:10:44.000Z</time>
      </trkpt>
      <trkpt lat="45.89583" lon="4.72934">
        <ele>229.62427</ele>
        <time>2023-08-05T14:10:45.000Z</time>
      </trkpt>
      <trkpt lat="45.89586" lon="4.72934">
        <ele>229.53389</ele>
        <time>2023-08-05T14:10:46.000Z</time>
      </trkpt>
      <trkpt lat="45.89589" lon="4.72934">
        <ele>229.63261</ele>
        <time>2023-08-05T14:10:47.000Z</time>
      </trkpt>
      <trkpt lat="45.89592" lon="4.72935">
        <ele>229.7583</ele>
        <time>2023-08-05T14:10:48.000Z</time>
      </trkpt>
      <trkpt lat="45.89595" lon="4.72935">
        <ele>229.89436</ele>
        <time>2023-08-05T14:10:49.000Z</time>
      </trkpt>
      <trkpt lat="45.89597" lon="4.72935">
        <ele>230.06894</ele>
        <time>2023-08-05T14:10:50.000Z</time>
      </trkpt>
      <trkpt lat="45.896" lon="4.72936">
        <ele>230.15007</ele>
        <time>2023-08-05T14:10:52.000Z</time>
      </trkpt>
      <trkpt lat="45.89602" lon="4.72938">
        <ele>230.24609</ele>
        <time>2023-08-05T14:10:53.000Z</time>
      </trkpt>
      <trkpt lat="45.89603" lon="4.72942">
        <ele>230.27881</ele>
        <time>2023-08-05T14:10:54.000Z</time>
      </trkpt>
      <trkpt lat="45.89603" lon="4.72945">
        <ele>230.26006</ele>
        <time>2023-08-05T14:10:55.000Z</time>
      </trkpt>
      <trkpt lat="45.89605" lon="4.72948">
        <ele>230.26143</ele>
        <time>2023-08-05T14:10:56.000Z</time>
      </trkpt>
      <trkpt lat="45.89607" lon="4.72951">
        <ele>230.25883</ele>
        <time>2023-08-05T14:10:58.000Z</time>
      </trkpt>
      <trkpt lat="45.89609" lon="4.72953">
        <ele>230.31946</ele>
        <time>2023-08-05T14:10:59.000Z</time>
      </trkpt>
      <trkpt lat="45.89611" lon="4.72957">
        <ele>230.37997</ele>
        <time>2023-08-05T14:11:00.000Z</time>
      </trkpt>
      <trkpt lat="45.89612" lon="4.7296">
        <ele>230.4399</ele>
        <time>2023-08-05T14:11:01.000Z</time>
      </trkpt>
      <trkpt lat="45.89613" lon="4.72963">
        <ele>230.53886</ele>
        <time>2023-08-05T14:11:02.000Z</time>
      </trkpt>
      <trkpt lat="45.89613" lon="4.72968">
        <ele>230.62158</ele>
        <time>2023-08-05T14:11:04.000Z</time>
      </trkpt>
      <trkpt lat="45.89612" lon="4.7297">
        <ele>230.67415</ele>
        <time>2023-08-05T14:11:05.000Z</time>
      </trkpt>
      <trkpt lat="45.89611" lon="4.72973">
        <ele>230.66792</ele>
        <time>2023-08-05T14:11:06.000Z</time>
      </trkpt>
      <trkpt lat="45.89611" lon="4.72976">
        <ele>230.6008</ele>
        <time>2023-08-05T14:11:07.000Z</time>
      </trkpt>
      <trkpt lat="45.8961" lon="4.72979">
        <ele>230.59366</ele>
        <time>2023-08-05T14:11:08.000Z</time>
      </trkpt>
      <trkpt lat="45.89608" lon="4.72983">
        <ele>230.54436</ele>
        <time>2023-08-05T14:11:09.000Z</time>
      </trkpt>
      <trkpt lat="45.89606" lon="4.72986">
        <ele>230.4819</ele>
        <time>2023-08-05T14:11:10.000Z</time>
      </trkpt>
      <trkpt lat="45.89604" lon="4.72987">
        <ele>230.39107</ele>
        <time>2023-08-05T14:11:11.000Z</time>
      </trkpt>
      <trkpt lat="45.89601" lon="4.72986">
        <ele>230.27165</ele>
        <time>2023-08-05T14:11:12.000Z</time>
      </trkpt>
      <trkpt lat="45.89599" lon="4.72983">
        <ele>230.10522</ele>
        <time>2023-08-05T14:11:13.000Z</time>
      </trkpt>
      <trkpt lat="45.89597" lon="4.7298">
        <ele>230.03105</ele>
        <time>2023-08-05T14:11:14.000Z</time>
      </trkpt>
      <trkpt lat="45.89594" lon="4.72977">
        <ele>229.91904</ele>
        <time>2023-08-05T14:11:15.000Z</time>
      </trkpt>
      <trkpt lat="45.89591" lon="4.72974">
        <ele>229.85823</ele>
        <time>2023-08-05T14:11:16.000Z</time>
      </trkpt>
      <trkpt lat="45.89588" lon="4.72971">
        <ele>229.81023</ele>
        <time>2023-08-05T14:11:17.000Z</time>
      </trkpt>
      <trkpt lat="45.89585" lon="4.72968">
        <ele>229.71988</ele>
        <time>2023-08-05T14:11:18.000Z</time>
      </trkpt>
      <trkpt lat="45.89581" lon="4.72965">
        <ele>229.66228</ele>
        <time>2023-08-05T14:11:19.000Z</time>
      </trkpt>
      <trkpt lat="45.89578" lon="4.72962">
        <ele>229.57266</ele>
        <time>2023-08-05T14:11:20.000Z</time>
      </trkpt>
      <trkpt lat="45.89574" lon="4.72958">
        <ele>229.46268</ele>
        <time>2023-08-05T14:11:21.000Z</time>
      </trkpt>
      <trkpt lat="45.8957" lon="4.72955">
        <ele>229.38657</ele>
        <time>2023-08-05T14:11:22.000Z</time>
      </trkpt>
      <trkpt lat="45.89567" lon="4.72953">
        <ele>229.25537</ele>
        <time>2023-08-05T14:11:23.000Z</time>
      </trkpt>
      <trkpt lat="45.89563" lon="4.7295">
        <ele>229.07771</ele>
        <time>2023-08-05T14:11:24.000Z</time>
      </trkpt>
      <trkpt lat="45.89558" lon="4.72946">
        <ele>228.90251</ele>
        <time>2023-08-05T14:11:25.000Z</time>
      </trkpt>
      <trkpt lat="45.89554" lon="4.72943">
        <ele>228.78049</ele>
        <time>2023-08-05T14:11:26.000Z</time>
      </trkpt>
      <trkpt lat="45.8955" lon="4.7294">
        <ele>228.69698</ele>
        <time>2023-08-05T14:11:27.000Z</time>
      </trkpt>
      <trkpt lat="45.89546" lon="4.72936">
        <ele>228.62967</ele>
        <time>2023-08-05T14:11:28.000Z</time>
      </trkpt>
      <trkpt lat="45.8954" lon="4.72935">
        <ele>228.50082</ele>
        <time>2023-08-05T14:11:29.000Z</time>
      </trkpt>
      <trkpt lat="45.89536" lon="4.72934">
        <ele>228.35098</ele>
        <time>2023-08-05T14:11:30.000Z</time>
      </trkpt>
      <trkpt lat="45.89532" lon="4.72932">
        <ele>228.19791</ele>
        <time>2023-08-05T14:11:31.000Z</time>
      </trkpt>
      <trkpt lat="45.89528" lon="4.7293">
        <ele>228.06302</ele>
        <time>2023-08-05T14:11:32.000Z</time>
      </trkpt>
      <trkpt lat="45.89523" lon="4.72931">
        <ele>227.97852</ele>
        <time>2023-08-05T14:11:33.000Z</time>
      </trkpt>
      <trkpt lat="45.89518" lon="4.72933">
        <ele>227.86511</ele>
        <time>2023-08-05T14:11:34.000Z</time>
      </trkpt>
      <trkpt lat="45.89513" lon="4.72934">
        <ele>227.78549</ele>
        <time>2023-08-05T14:11:35.000Z</time>
      </trkpt>
      <trkpt lat="45.89507" lon="4.72935">
        <ele>227.71933</ele>
        <time>2023-08-05T14:11:36.000Z</time>
      </trkpt>
      <trkpt lat="45.89502" lon="4.72937">
        <ele>227.65715</ele>
        <time>2023-08-05T14:11:37.000Z</time>
      </trkpt>
      <trkpt lat="45.89496" lon="4.72938">
        <ele>227.58601</ele>
        <time>2023-08-05T14:11:38.000Z</time>
      </trkpt>
      <trkpt lat="45.8949" lon="4.7294">
        <ele>227.52168</ele>
        <time>2023-08-05T14:11:39.000Z</time>
      </trkpt>
      <trkpt lat="45.89484" lon="4.72941">
        <ele>227.48489</ele>
        <time>2023-08-05T14:11:40.000Z</time>
      </trkpt>
      <trkpt lat="45.89479" lon="4.72943">
        <ele>227.46802</ele>
        <time>2023-08-05T14:11:41.000Z</time>
      </trkpt>
      <trkpt lat="45.89474" lon="4.72944">
        <ele>227.39876</ele>
        <time>2023-08-05T14:11:42.000Z</time>
      </trkpt>
      <trkpt lat="45.89469" lon="4.72946">
        <ele>227.33122</ele>
        <time>2023-08-05T14:11:43.000Z</time>
      </trkpt>
      <trkpt lat="45.89462" lon="4.72947">
        <ele>227.23897</ele>
        <time>2023-08-05T14:11:44.000Z</time>
      </trkpt>
      <trkpt lat="45.89457" lon="4.72948">
        <ele>227.19125</ele>
        <time>2023-08-05T14:11:45.000Z</time>
      </trkpt>
      <trkpt lat="45.89453" lon="4.72949">
        <ele>227.15427</ele>
        <time>2023-08-05T14:11:46.000Z</time>
      </trkpt>
      <trkpt lat="45.89448" lon="4.7295">
        <ele>227.11771</ele>
        <time>2023-08-05T14:11:47.000Z</time>
      </trkpt>
      <trkpt lat="45.89443" lon="4.72952">
        <ele>227.08089</ele>
        <time>2023-08-05T14:11:48.000Z</time>
      </trkpt>
      <trkpt lat="45.89438" lon="4.72953">
        <ele>227.09232</ele>
        <time>2023-08-05T14:11:49.000Z</time>
      </trkpt>
      <trkpt lat="45.89434" lon="4.72954">
        <ele>227.10066</ele>
        <time>2023-08-05T14:11:50.000Z</time>
      </trkpt>
      <trkpt lat="45.89429" lon="4.72955">
        <ele>227.14233</ele>
        <time>2023-08-05T14:11:51.000Z</time>
      </trkpt>
      <trkpt lat="45.89424" lon="4.72955">
        <ele>227.14864</ele>
        <time>2023-08-05T14:11:52.000Z</time>
      </trkpt>
      <trkpt lat="45.8942" lon="4.72955">
        <ele>227.09924</ele>
        <time>2023-08-05T14:11:53.000Z</time>
      </trkpt>
      <trkpt lat="45.89415" lon="4.72957">
        <ele>227.05948</ele>
        <time>2023-08-05T14:11:54.000Z</time>
      </trkpt>
      <trkpt lat="45.8941" lon="4.72959">
        <ele>227.00766</ele>
        <time>2023-08-05T14:11:55.000Z</time>
      </trkpt>
      <trkpt lat="45.89406" lon="4.7296">
        <ele>226.9791</ele>
        <time>2023-08-05T14:11:56.000Z</time>
      </trkpt>
      <trkpt lat="45.89402" lon="4.7296">
        <ele>226.98489</ele>
        <time>2023-08-05T14:11:57.000Z</time>
      </trkpt>
      <trkpt lat="45.89398" lon="4.72962">
        <ele>226.99092</ele>
        <time>2023-08-05T14:11:58.000Z</time>
      </trkpt>
      <trkpt lat="45.89393" lon="4.72963">
        <ele>226.991</ele>
        <time>2023-08-05T14:11:59.000Z</time>
      </trkpt>
      <trkpt lat="45.89388" lon="4.72963">
        <ele>226.98579</ele>
        <time>2023-08-05T14:12:00.000Z</time>
      </trkpt>
      <trkpt lat="45.89384" lon="4.72965">
        <ele>227.0002</ele>
        <time>2023-08-05T14:12:01.000Z</time>
      </trkpt>
      <trkpt lat="45.89379" lon="4.72966">
        <ele>227.05746</ele>
        <time>2023-08-05T14:12:02.000Z</time>
      </trkpt>
      <trkpt lat="45.89374" lon="4.72966">
        <ele>227.11919</ele>
        <time>2023-08-05T14:12:03.000Z</time>
      </trkpt>
      <trkpt lat="45.89369" lon="4.72967">
        <ele>227.21831</ele>
        <time>2023-08-05T14:12:04.000Z</time>
      </trkpt>
      <trkpt lat="45.89365" lon="4.72969">
        <ele>227.30815</ele>
        <time>2023-08-05T14:12:05.000Z</time>
      </trkpt>
      <trkpt lat="45.8936" lon="4.72972">
        <ele>227.38814</ele>
        <time>2023-08-05T14:12:06.000Z</time>
      </trkpt>
      <trkpt lat="45.89354" lon="4.72973">
        <ele>227.45232</ele>
        <time>2023-08-05T14:12:07.000Z</time>
      </trkpt>
      <trkpt lat="45.89349" lon="4.72971">
        <ele>227.46037</ele>
        <time>2023-08-05T14:12:08.000Z</time>
      </trkpt>
      <trkpt lat="45.89343" lon="4.72973">
        <ele>227.44438</ele>
        <time>2023-08-05T14:12:09.000Z</time>
      </trkpt>
      <trkpt lat="45.89338" lon="4.72975">
        <ele>227.48782</ele>
        <time>2023-08-05T14:12:10.000Z</time>
      </trkpt>
      <trkpt lat="45.89334" lon="4.72977">
        <ele>227.50162</ele>
        <time>2023-08-05T14:12:11.000Z</time>
      </trkpt>
      <trkpt lat="45.89329" lon="4.72979">
        <ele>227.5564</ele>
        <time>2023-08-05T14:12:12.000Z</time>
      </trkpt>
      <trkpt lat="45.89323" lon="4.72981">
        <ele>227.634</ele>
        <time>2023-08-05T14:12:13.000Z</time>
      </trkpt>
      <trkpt lat="45.89319" lon="4.72982">
        <ele>227.70549</ele>
        <time>2023-08-05T14:12:14.000Z</time>
      </trkpt>
      <trkpt lat="45.89314" lon="4.72983">
        <ele>227.73625</ele>
        <time>2023-08-05T14:12:15.000Z</time>
      </trkpt>
      <trkpt lat="45.89308" lon="4.72985">
        <ele>227.76347</ele>
        <time>2023-08-05T14:12:16.000Z</time>
      </trkpt>
      <trkpt lat="45.89303" lon="4.72986">
        <ele>227.7487</ele>
        <time>2023-08-05T14:12:17.000Z</time>
      </trkpt>
      <trkpt lat="45.89298" lon="4.72988">
        <ele>227.71951</ele>
        <time>2023-08-05T14:12:18.000Z</time>
      </trkpt>
      <trkpt lat="45.89292" lon="4.72988">
        <ele>227.64453</ele>
        <time>2023-08-05T14:12:19.000Z</time>
      </trkpt>
      <trkpt lat="45.89287" lon="4.72989">
        <ele>227.5748</ele>
        <time>2023-08-05T14:12:20.000Z</time>
      </trkpt>
      <trkpt lat="45.89282" lon="4.72991">
        <ele>227.5123</ele>
        <time>2023-08-05T14:12:21.000Z</time>
      </trkpt>
      <trkpt lat="45.89277" lon="4.72992">
        <ele>227.44409</ele>
        <time>2023-08-05T14:12:22.000Z</time>
      </trkpt>
      <trkpt lat="45.89272" lon="4.72994">
        <ele>227.37166</ele>
        <time>2023-08-05T14:12:23.000Z</time>
      </trkpt>
      <trkpt lat="45.89267" lon="4.72995">
        <ele>227.29086</ele>
        <time>2023-08-05T14:12:24.000Z</time>
      </trkpt>
      <trkpt lat="45.89262" lon="4.72996">
        <ele>227.18661</ele>
        <time>2023-08-05T14:12:25.000Z</time>
      </trkpt>
      <trkpt lat="45.89257" lon="4.72997">
        <ele>227.06265</ele>
        <time>2023-08-05T14:12:26.000Z</time>
      </trkpt>
      <trkpt lat="45.89252" lon="4.72998">
        <ele>226.95976</ele>
        <time>2023-08-05T14:12:27.000Z</time>
      </trkpt>
      <trkpt lat="45.89247" lon="4.73">
        <ele>226.91016</ele>
        <time>2023-08-05T14:12:28.000Z</time>
      </trkpt>
      <trkpt lat="45.89241" lon="4.73002">
        <ele>226.85513</ele>
        <time>2023-08-05T14:12:29.000Z</time>
      </trkpt>
      <trkpt lat="45.89236" lon="4.73003">
        <ele>226.78862</ele>
        <time>2023-08-05T14:12:30.000Z</time>
      </trkpt>
      <trkpt lat="45.89231" lon="4.73004">
        <ele>226.74203</ele>
        <time>2023-08-05T14:12:31.000Z</time>
      </trkpt>
      <trkpt lat="45.89227" lon="4.73005">
        <ele>226.70334</ele>
        <time>2023-08-05T14:12:32.000Z</time>
      </trkpt>
      <trkpt lat="45.89222" lon="4.73005">
        <ele>226.65401</ele>
        <time>2023-08-05T14:12:33.000Z</time>
      </trkpt>
      <trkpt lat="45.89217" lon="4.73006">
        <ele>226.59537</ele>
        <time>2023-08-05T14:12:34.000Z</time>
      </trkpt>
      <trkpt lat="45.89212" lon="4.73008">
        <ele>226.59561</ele>
        <time>2023-08-05T14:12:35.000Z</time>
      </trkpt>
      <trkpt lat="45.89206" lon="4.7301">
        <ele>226.60043</ele>
        <time>2023-08-05T14:12:36.000Z</time>
      </trkpt>
      <trkpt lat="45.89201" lon="4.73011">
        <ele>226.60271</ele>
        <time>2023-08-05T14:12:37.000Z</time>
      </trkpt>
      <trkpt lat="45.89196" lon="4.73013">
        <ele>226.60999</ele>
        <time>2023-08-05T14:12:38.000Z</time>
      </trkpt>
      <trkpt lat="45.8919" lon="4.73014">
        <ele>226.67583</ele>
        <time>2023-08-05T14:12:39.000Z</time>
      </trkpt>
      <trkpt lat="45.89185" lon="4.73016">
        <ele>226.71707</ele>
        <time>2023-08-05T14:12:40.000Z</time>
      </trkpt>
      <trkpt lat="45.8918" lon="4.73017">
        <ele>226.7738</ele>
        <time>2023-08-05T14:12:41.000Z</time>
      </trkpt>
      <trkpt lat="45.89175" lon="4.73018">
        <ele>226.81323</ele>
        <time>2023-08-05T14:12:42.000Z</time>
      </trkpt>
      <trkpt lat="45.8917" lon="4.7302">
        <ele>226.86324</ele>
        <time>2023-08-05T14:12:43.000Z</time>
      </trkpt>
      <trkpt lat="45.89164" lon="4.73022">
        <ele>226.94466</ele>
        <time>2023-08-05T14:12:44.000Z</time>
      </trkpt>
      <trkpt lat="45.89158" lon="4.73023">
        <ele>227.03862</ele>
        <time>2023-08-05T14:12:45.000Z</time>
      </trkpt>
      <trkpt lat="45.89153" lon="4.73024">
        <ele>227.12456</ele>
        <time>2023-08-05T14:12:46.000Z</time>
      </trkpt>
      <trkpt lat="45.89147" lon="4.73025">
        <ele>227.20898</ele>
        <time>2023-08-05T14:12:47.000Z</time>
      </trkpt>
      <trkpt lat="45.89142" lon="4.73029">
        <ele>227.31396</ele>
        <time>2023-08-05T14:12:48.000Z</time>
      </trkpt>
      <trkpt lat="45.89138" lon="4.7303">
        <ele>227.42586</ele>
        <time>2023-08-05T14:12:49.000Z</time>
      </trkpt>
      <trkpt lat="45.89132" lon="4.73031">
        <ele>227.5251</ele>
        <time>2023-08-05T14:12:50.000Z</time>
      </trkpt>
      <trkpt lat="45.89127" lon="4.73031">
        <ele>227.62813</ele>
        <time>2023-08-05T14:12:51.000Z</time>
      </trkpt>
      <trkpt lat="45.89122" lon="4.73032">
        <ele>227.75439</ele>
        <time>2023-08-05T14:12:52.000Z</time>
      </trkpt>
      <trkpt lat="45.89118" lon="4.73034">
        <ele>227.90459</ele>
        <time>2023-08-05T14:12:53.000Z</time>
      </trkpt>
      <trkpt lat="45.89112" lon="4.73036">
        <ele>228.06535</ele>
        <time>2023-08-05T14:12:54.000Z</time>
      </trkpt>
      <trkpt lat="45.89107" lon="4.73038">
        <ele>228.23689</ele>
        <time>2023-08-05T14:12:55.000Z</time>
      </trkpt>
      <trkpt lat="45.89102" lon="4.73039">
        <ele>228.39658</ele>
        <time>2023-08-05T14:12:56.000Z</time>
      </trkpt>
      <trkpt lat="45.89097" lon="4.7304">
        <ele>228.54349</ele>
        <time>2023-08-05T14:12:57.000Z</time>
      </trkpt>
      <trkpt lat="45.89092" lon="4.7304">
        <ele>228.69751</ele>
        <time>2023-08-05T14:12:58.000Z</time>
      </trkpt>
      <trkpt lat="45.89087" lon="4.73043">
        <ele>228.86148</ele>
        <time>2023-08-05T14:12:59.000Z</time>
      </trkpt>
      <trkpt lat="45.89082" lon="4.73044">
        <ele>229.0542</ele>
        <time>2023-08-05T14:13:00.000Z</time>
      </trkpt>
      <trkpt lat="45.89078" lon="4.73046">
        <ele>229.23438</ele>
        <time>2023-08-05T14:13:01.000Z</time>
      </trkpt>
      <trkpt lat="45.89073" lon="4.73048">
        <ele>229.47993</ele>
        <time>2023-08-05T14:13:02.000Z</time>
      </trkpt>
      <trkpt lat="45.89068" lon="4.73048">
        <ele>229.68025</ele>
        <time>2023-08-05T14:13:03.000Z</time>
      </trkpt>
      <trkpt lat="45.89062" lon="4.7305">
        <ele>229.84685</ele>
        <time>2023-08-05T14:13:04.000Z</time>
      </trkpt>
      <trkpt lat="45.89058" lon="4.73051">
        <ele>230.00491</ele>
        <time>2023-08-05T14:13:05.000Z</time>
      </trkpt>
      <trkpt lat="45.89053" lon="4.73052">
        <ele>230.16599</ele>
        <time>2023-08-05T14:13:06.000Z</time>
      </trkpt>
      <trkpt lat="45.89048" lon="4.73054">
        <ele>230.31599</ele>
        <time>2023-08-05T14:13:07.000Z</time>
      </trkpt>
      <trkpt lat="45.89043" lon="4.73056">
        <ele>230.41495</ele>
        <time>2023-08-05T14:13:08.000Z</time>
      </trkpt>
      <trkpt lat="45.89039" lon="4.73057">
        <ele>230.49963</ele>
        <time>2023-08-05T14:13:09.000Z</time>
      </trkpt>
      <trkpt lat="45.89032" lon="4.73058">
        <ele>230.54253</ele>
        <time>2023-08-05T14:13:10.000Z</time>
      </trkpt>
      <trkpt lat="45.89027" lon="4.73059">
        <ele>230.59744</ele>
        <time>2023-08-05T14:13:11.000Z</time>
      </trkpt>
      <trkpt lat="45.89022" lon="4.73061">
        <ele>230.62993</ele>
        <time>2023-08-05T14:13:12.000Z</time>
      </trkpt>
      <trkpt lat="45.89016" lon="4.73062">
        <ele>230.61328</ele>
        <time>2023-08-05T14:13:13.000Z</time>
      </trkpt>
      <trkpt lat="45.89011" lon="4.73064">
        <ele>230.56131</ele>
        <time>2023-08-05T14:13:14.000Z</time>
      </trkpt>
      <trkpt lat="45.89006" lon="4.73066">
        <ele>230.48405</ele>
        <time>2023-08-05T14:13:15.000Z</time>
      </trkpt>
      <trkpt lat="45.89" lon="4.73067">
        <ele>230.40884</ele>
        <time>2023-08-05T14:13:16.000Z</time>
      </trkpt>
      <trkpt lat="45.88995" lon="4.73068">
        <ele>230.36679</ele>
        <time>2023-08-05T14:13:17.000Z</time>
      </trkpt>
      <trkpt lat="45.8899" lon="4.73069">
        <ele>230.34482</ele>
        <time>2023-08-05T14:13:18.000Z</time>
      </trkpt>
      <trkpt lat="45.88986" lon="4.73071">
        <ele>230.30423</ele>
        <time>2023-08-05T14:13:19.000Z</time>
      </trkpt>
      <trkpt lat="45.88981" lon="4.73072">
        <ele>230.26633</ele>
        <time>2023-08-05T14:13:20.000Z</time>
      </trkpt>
      <trkpt lat="45.88976" lon="4.73073">
        <ele>230.26669</ele>
        <time>2023-08-05T14:13:21.000Z</time>
      </trkpt>
      <trkpt lat="45.88971" lon="4.73074">
        <ele>230.20064</ele>
        <time>2023-08-05T14:13:22.000Z</time>
      </trkpt>
      <trkpt lat="45.88966" lon="4.73074">
        <ele>230.18652</ele>
        <time>2023-08-05T14:13:23.000Z</time>
      </trkpt>
      <trkpt lat="45.88961" lon="4.73075">
        <ele>230.18323</ele>
        <time>2023-08-05T14:13:24.000Z</time>
      </trkpt>
      <trkpt lat="45.88956" lon="4.73077">
        <ele>230.17834</ele>
        <time>2023-08-05T14:13:25.000Z</time>
      </trkpt>
      <trkpt lat="45.88951" lon="4.73078">
        <ele>230.17847</ele>
        <time>2023-08-05T14:13:26.000Z</time>
      </trkpt>
      <trkpt lat="45.88946" lon="4.73079">
        <ele>230.19839</ele>
        <time>2023-08-05T14:13:27.000Z</time>
      </trkpt>
      <trkpt lat="45.88941" lon="4.73079">
        <ele>230.24191</ele>
        <time>2023-08-05T14:13:28.000Z</time>
      </trkpt>
      <trkpt lat="45.88936" lon="4.7308">
        <ele>230.28601</ele>
        <time>2023-08-05T14:13:29.000Z</time>
      </trkpt>
      <trkpt lat="45.88931" lon="4.73081">
        <ele>230.38367</ele>
        <time>2023-08-05T14:13:30.000Z</time>
      </trkpt>
      <trkpt lat="45.88926" lon="4.73082">
        <ele>230.46057</ele>
        <time>2023-08-05T14:13:31.000Z</time>
      </trkpt>
      <trkpt lat="45.8892" lon="4.73083">
        <ele>230.51706</ele>
        <time>2023-08-05T14:13:32.000Z</time>
      </trkpt>
      <trkpt lat="45.88916" lon="4.73085">
        <ele>230.61992</ele>
        <time>2023-08-05T14:13:33.000Z</time>
      </trkpt>
      <trkpt lat="45.8891" lon="4.73087">
        <ele>230.71001</ele>
        <time>2023-08-05T14:13:34.000Z</time>
      </trkpt>
      <trkpt lat="45.88906" lon="4.73088">
        <ele>230.80029</ele>
        <time>2023-08-05T14:13:35.000Z</time>
      </trkpt>
      <trkpt lat="45.88901" lon="4.73089">
        <ele>230.87436</ele>
        <time>2023-08-05T14:13:36.000Z</time>
      </trkpt>
      <trkpt lat="45.88896" lon="4.73091">
        <ele>230.96236</ele>
        <time>2023-08-05T14:13:37.000Z</time>
      </trkpt>
      <trkpt lat="45.88891" lon="4.73091">
        <ele>231.04529</ele>
        <time>2023-08-05T14:13:38.000Z</time>
      </trkpt>
      <trkpt lat="45.88886" lon="4.73092">
        <ele>231.09702</ele>
        <time>2023-08-05T14:13:39.000Z</time>
      </trkpt>
      <trkpt lat="45.88881" lon="4.73092">
        <ele>231.16299</ele>
        <time>2023-08-05T14:13:40.000Z</time>
      </trkpt>
      <trkpt lat="45.88876" lon="4.73094">
        <ele>231.17058</ele>
        <time>2023-08-05T14:13:41.000Z</time>
      </trkpt>
      <trkpt lat="45.88872" lon="4.73095">
        <ele>232.55814</ele>
        <time>2023-08-05T14:13:42.000Z</time>
      </trkpt>
      <trkpt lat="45.88867" lon="4.73095">
        <ele>234.10196</ele>
        <time>2023-08-05T14:13:43.000Z</time>
      </trkpt>
      <trkpt lat="45.88862" lon="4.73096">
        <ele>235.62357</ele>
        <time>2023-08-05T14:13:44.000Z</time>
      </trkpt>
      <trkpt lat="45.88858" lon="4.73097">
        <ele>237.15274</ele>
        <time>2023-08-05T14:13:45.000Z</time>
      </trkpt>
      <trkpt lat="45.88853" lon="4.73099">
        <ele>238.70499</ele>
        <time>2023-08-05T14:13:46.000Z</time>
      </trkpt>
      <trkpt lat="45.88849" lon="4.73099">
        <ele>240.25322</ele>
        <time>2023-08-05T14:13:47.000Z</time>
      </trkpt>
      <trkpt lat="45.88844" lon="4.731">
        <ele>241.77409</ele>
        <time>2023-08-05T14:13:48.000Z</time>
      </trkpt>
      <trkpt lat="45.8884" lon="4.73101">
        <ele>243.28867</ele>
        <time>2023-08-05T14:13:49.000Z</time>
      </trkpt>
      <trkpt lat="45.88835" lon="4.73104">
        <ele>244.81729</ele>
        <time>2023-08-05T14:13:50.000Z</time>
      </trkpt>
      <trkpt lat="45.88831" lon="4.73106">
        <ele>246.31902</ele>
        <time>2023-08-05T14:13:51.000Z</time>
      </trkpt>
      <trkpt lat="45.88826" lon="4.73108">
        <ele>248.25606</ele>
        <time>2023-08-05T14:13:52.000Z</time>
      </trkpt>
      <trkpt lat="45.88821" lon="4.73108">
        <ele>250.4919</ele>
        <time>2023-08-05T14:13:53.000Z</time>
      </trkpt>
      <trkpt lat="45.88817" lon="4.7311">
        <ele>251.86909</ele>
        <time>2023-08-05T14:13:54.000Z</time>
      </trkpt>
      <trkpt lat="45.88813" lon="4.73111">
        <ele>253.39404</ele>
        <time>2023-08-05T14:13:55.000Z</time>
      </trkpt>
      <trkpt lat="45.88809" lon="4.73112">
        <ele>254.95059</ele>
        <time>2023-08-05T14:13:56.000Z</time>
      </trkpt>
      <trkpt lat="45.88805" lon="4.73113">
        <ele>256.49844</ele>
        <time>2023-08-05T14:13:57.000Z</time>
      </trkpt>
      <trkpt lat="45.88801" lon="4.73114">
        <ele>258.04279</ele>
        <time>2023-08-05T14:13:58.000Z</time>
      </trkpt>
      <trkpt lat="45.88798" lon="4.73114">
        <ele>259.62848</ele>
        <time>2023-08-05T14:13:59.000Z</time>
      </trkpt>
      <trkpt lat="45.88794" lon="4.73115">
        <ele>261.19034</ele>
        <time>2023-08-05T14:14:00.000Z</time>
      </trkpt>
      <trkpt lat="45.88792" lon="4.73116">
        <ele>262.7431</ele>
        <time>2023-08-05T14:14:01.000Z</time>
      </trkpt>
      <trkpt lat="45.88789" lon="4.73117">
        <ele>262.92606</ele>
        <time>2023-08-05T14:14:02.000Z</time>
      </trkpt>
      <trkpt lat="45.88787" lon="4.73116">
        <ele>262.94965</ele>
        <time>2023-08-05T14:14:03.000Z</time>
      </trkpt>
      <trkpt lat="45.88785" lon="4.73115">
        <ele>262.99512</ele>
        <time>2023-08-05T14:14:04.000Z</time>
      </trkpt>
      <trkpt lat="45.88782" lon="4.73114">
        <ele>263.04358</ele>
        <time>2023-08-05T14:14:05.000Z</time>
      </trkpt>
      <trkpt lat="45.8878" lon="4.73112">
        <ele>263.08624</ele>
        <time>2023-08-05T14:14:06.000Z</time>
      </trkpt>
      <trkpt lat="45.88779" lon="4.7311">
        <ele>263.12003</ele>
        <time>2023-08-05T14:14:07.000Z</time>
      </trkpt>
      <trkpt lat="45.88778" lon="4.73108">
        <ele>263.18964</ele>
        <time>2023-08-05T14:14:08.000Z</time>
      </trkpt>
      <trkpt lat="45.88778" lon="4.73105">
        <ele>263.29199</ele>
        <time>2023-08-05T14:14:09.000Z</time>
      </trkpt>
      <trkpt lat="45.88779" lon="4.73102">
        <ele>263.35638</ele>
        <time>2023-08-05T14:14:10.000Z</time>
      </trkpt>
      <trkpt lat="45.88779" lon="4.73099">
        <ele>263.43533</ele>
        <time>2023-08-05T14:14:11.000Z</time>
      </trkpt>
      <trkpt lat="45.88779" lon="4.73096">
        <ele>263.11777</ele>
        <time>2023-08-05T14:14:12.000Z</time>
      </trkpt>
      <trkpt lat="45.8878" lon="4.73092">
        <ele>262.49988</ele>
        <time>2023-08-05T14:14:14.000Z</time>
      </trkpt>
      <trkpt lat="45.88781" lon="4.73091">
        <ele>262.77319</ele>
        <time>2023-08-05T14:14:17.000Z</time>
      </trkpt>
      <trkpt lat="45.88778" lon="4.73094">
        <ele>262.92169</ele>
        <time>2023-08-05T14:14:23.000Z</time>
      </trkpt>
      <trkpt lat="45.88778" lon="4.73097">
        <ele>263.06815</ele>
        <time>2023-08-05T14:14:24.000Z</time>
      </trkpt>
      <trkpt lat="45.88778" lon="4.731">
        <ele>263.20331</ele>
        <time>2023-08-05T14:14:25.000Z</time>
      </trkpt>
      <trkpt lat="45.88778" lon="4.73103">
        <ele>263.33667</ele>
        <time>2023-08-05T14:14:26.000Z</time>
      </trkpt>
      <trkpt lat="45.88778" lon="4.73107">
        <ele>263.46249</ele>
        <time>2023-08-05T14:14:27.000Z</time>
      </trkpt>
      <trkpt lat="45.88777" lon="4.73111">
        <ele>263.56647</ele>
        <time>2023-08-05T14:14:28.000Z</time>
      </trkpt>
      <trkpt lat="45.88777" lon="4.73114">
        <ele>264.07651</ele>
        <time>2023-08-05T14:14:29.000Z</time>
      </trkpt>
      <trkpt lat="45.88777" lon="4.73117">
        <ele>264.56512</ele>
        <time>2023-08-05T14:14:30.000Z</time>
      </trkpt>
      <trkpt lat="45.88777" lon="4.73122">
        <ele>265.00934</ele>
        <time>2023-08-05T14:14:32.000Z</time>
      </trkpt>
      <trkpt lat="45.88777" lon="4.73126">
        <ele>265.43317</ele>
        <time>2023-08-05T14:14:34.000Z</time>
      </trkpt>
      <trkpt lat="45.88775" lon="4.73129">
        <ele>265.91559</ele>
        <time>2023-08-05T14:14:36.000Z</time>
      </trkpt>
      <trkpt lat="45.88772" lon="4.73129">
        <ele>266.59686</ele>
        <time>2023-08-05T14:14:38.000Z</time>
      </trkpt>
      <trkpt lat="45.8877" lon="4.73128">
        <ele>266.52728</ele>
        <time>2023-08-05T14:14:40.000Z</time>
      </trkpt>
      <trkpt lat="45.8877" lon="4.73124">
        <ele>266.45682</ele>
        <time>2023-08-05T14:14:42.000Z</time>
      </trkpt>
      <trkpt lat="45.88772" lon="4.73124">
        <ele>266.41422</ele>
        <time>2023-08-05T14:14:44.000Z</time>
      </trkpt>
      <trkpt lat="45.88772" lon="4.73127">
        <ele>266.76935</ele>
        <time>2023-08-05T14:14:52.000Z</time>
      </trkpt>
      <trkpt lat="45.88774" lon="4.73131">
        <ele>267.45602</ele>
        <time>2023-08-05T14:14:54.000Z</time>
      </trkpt>
      <trkpt lat="45.88776" lon="4.73134">
        <ele>267.42389</ele>
        <time>2023-08-05T14:14:56.000Z</time>
      </trkpt>
      <trkpt lat="45.88778" lon="4.73137">
        <ele>267.39102</ele>
        <time>2023-08-05T14:14:58.000Z</time>
      </trkpt>
      <trkpt lat="45.88779" lon="4.73141">
        <ele>267.33008</ele>
        <time>2023-08-05T14:15:00.000Z</time>
      </trkpt>
      <trkpt lat="45.8878" lon="4.73146">
        <ele>267.25281</ele>
        <time>2023-08-05T14:15:02.000Z</time>
      </trkpt>
      <trkpt lat="45.8878" lon="4.73149">
        <ele>267.164</ele>
        <time>2023-08-05T14:15:03.000Z</time>
      </trkpt>
      <trkpt lat="45.8878" lon="4.73152">
        <ele>267.04343</ele>
        <time>2023-08-05T14:15:04.000Z</time>
      </trkpt>
      <trkpt lat="45.88779" lon="4.73156">
        <ele>266.93454</ele>
        <time>2023-08-05T14:15:06.000Z</time>
      </trkpt>
      <trkpt lat="45.8878" lon="4.7316">
        <ele>266.83633</ele>
        <time>2023-08-05T14:15:08.000Z</time>
      </trkpt>
      <trkpt lat="45.88782" lon="4.73163">
        <ele>266.76349</ele>
        <time>2023-08-05T14:15:10.000Z</time>
      </trkpt>
      <trkpt lat="45.88784" lon="4.73163">
        <ele>266.28043</ele>
        <time>2023-08-05T14:15:11.000Z</time>
      </trkpt>
      <trkpt lat="45.88786" lon="4.73161">
        <ele>265.80658</ele>
        <time>2023-08-05T14:15:12.000Z</time>
      </trkpt>
      <trkpt lat="45.88787" lon="4.73159">
        <ele>265.33774</ele>
        <time>2023-08-05T14:15:13.000Z</time>
      </trkpt>
      <trkpt lat="45.88785" lon="4.73157">
        <ele>264.84247</ele>
        <time>2023-08-05T14:15:44.000Z</time>
      </trkpt>
      <trkpt lat="45.88784" lon="4.73152">
        <ele>264.31625</ele>
        <time>2023-08-05T14:15:46.000Z</time>
      </trkpt>
      <trkpt lat="45.88783" lon="4.7315">
        <ele>263.59039</ele>
        <time>2023-08-05T14:15:47.000Z</time>
      </trkpt>
      <trkpt lat="45.88783" lon="4.73146">
        <ele>263.61731</ele>
        <time>2023-08-05T14:15:48.000Z</time>
      </trkpt>
      <trkpt lat="45.88783" lon="4.73141">
        <ele>263.63022</ele>
        <time>2023-08-05T14:15:49.000Z</time>
      </trkpt>
      <trkpt lat="45.88783" lon="4.73137">
        <ele>263.586</ele>
        <time>2023-08-05T14:15:50.000Z</time>
      </trkpt>
      <trkpt lat="45.88782" lon="4.73132">
        <ele>263.16089</ele>
        <time>2023-08-05T14:15:51.000Z</time>
      </trkpt>
      <trkpt lat="45.88782" lon="4.73128">
        <ele>262.41278</ele>
        <time>2023-08-05T14:15:52.000Z</time>
      </trkpt>
      <trkpt lat="45.88782" lon="4.73124">
        <ele>262.3681</ele>
        <time>2023-08-05T14:15:53.000Z</time>
      </trkpt>
      <trkpt lat="45.88782" lon="4.7312">
        <ele>262.33099</ele>
        <time>2023-08-05T14:15:54.000Z</time>
      </trkpt>
      <trkpt lat="45.88782" lon="4.73115">
        <ele>262.71335</ele>
        <time>2023-08-05T14:15:55.000Z</time>
      </trkpt>
      <trkpt lat="45.88781" lon="4.7311">
        <ele>263.09207</ele>
        <time>2023-08-05T14:15:56.000Z</time>
      </trkpt>
      <trkpt lat="45.8878" lon="4.73105">
        <ele>263.46713</ele>
        <time>2023-08-05T14:15:57.000Z</time>
      </trkpt>
      <trkpt lat="45.88779" lon="4.73099">
        <ele>263.87729</ele>
        <time>2023-08-05T14:15:58.000Z</time>
      </trkpt>
      <trkpt lat="45.88779" lon="4.73094">
        <ele>263.53027</ele>
        <time>2023-08-05T14:15:59.000Z</time>
      </trkpt>
      <trkpt lat="45.88779" lon="4.73089">
        <ele>263.47662</ele>
        <time>2023-08-05T14:16:00.000Z</time>
      </trkpt>
      <trkpt lat="45.88778" lon="4.73084">
        <ele>263.18088</ele>
        <time>2023-08-05T14:16:01.000Z</time>
      </trkpt>
      <trkpt lat="45.88778" lon="4.73078">
        <ele>262.89777</ele>
        <time>2023-08-05T14:16:02.000Z</time>
      </trkpt>
      <trkpt lat="45.88777" lon="4.73073">
        <ele>262.61996</ele>
        <time>2023-08-05T14:16:03.000Z</time>
      </trkpt>
      <trkpt lat="45.88777" lon="4.73067">
        <ele>262.38553</ele>
        <time>2023-08-05T14:16:04.000Z</time>
      </trkpt>
      <trkpt lat="45.88777" lon="4.73062">
        <ele>262.18576</ele>
        <time>2023-08-05T14:16:05.000Z</time>
      </trkpt>
      <trkpt lat="45.88776" lon="4.73056">
        <ele>261.97678</ele>
        <time>2023-08-05T14:16:06.000Z</time>
      </trkpt>
      <trkpt lat="45.88776" lon="4.73051">
        <ele>261.75146</ele>
        <time>2023-08-05T14:16:07.000Z</time>
      </trkpt>
      <trkpt lat="45.88776" lon="4.73045">
        <ele>261.5296</ele>
        <time>2023-08-05T14:16:08.000Z</time>
      </trkpt>
      <trkpt lat="45.88776" lon="4.7304">
        <ele>261.30249</ele>
        <time>2023-08-05T14:16:09.000Z</time>
      </trkpt>
      <trkpt lat="45.88775" lon="4.73036">
        <ele>261.11334</ele>
        <time>2023-08-05T14:16:10.000Z</time>
      </trkpt>
      <trkpt lat="45.88775" lon="4.73031">
        <ele>260.90948</ele>
        <time>2023-08-05T14:16:11.000Z</time>
      </trkpt>
      <trkpt lat="45.88775" lon="4.73027">
        <ele>260.71826</ele>
        <time>2023-08-05T14:16:12.000Z</time>
      </trkpt>
      <trkpt lat="45.88775" lon="4.73024">
        <ele>260.5224</ele>
        <time>2023-08-05T14:16:13.000Z</time>
      </trkpt>
      <trkpt lat="45.88775" lon="4.73021">
        <ele>260.32385</ele>
        <time>2023-08-05T14:16:16.000Z</time>
      </trkpt>
      <trkpt lat="45.88775" lon="4.73018">
        <ele>259.72699</ele>
        <time>2023-08-05T14:16:18.000Z</time>
      </trkpt>
      <trkpt lat="45.88774" lon="4.73016">
        <ele>259.34824</ele>
        <time>2023-08-05T14:16:22.000Z</time>
      </trkpt>
      <trkpt lat="45.88773" lon="4.73011">
        <ele>258.99945</ele>
        <time>2023-08-05T14:16:24.000Z</time>
      </trkpt>
      <trkpt lat="45.88773" lon="4.73008">
        <ele>258.64459</ele>
        <time>2023-08-05T14:16:25.000Z</time>
      </trkpt>
      <trkpt lat="45.88772" lon="4.73006">
        <ele>259.44839</ele>
        <time>2023-08-05T14:16:26.000Z</time>
      </trkpt>
      <trkpt lat="45.8877" lon="4.73005">
        <ele>260.20541</ele>
        <time>2023-08-05T14:16:28.000Z</time>
      </trkpt>
      <trkpt lat="45.88768" lon="4.73008">
        <ele>260.47723</ele>
        <time>2023-08-05T14:16:30.000Z</time>
      </trkpt>
      <trkpt lat="45.88769" lon="4.73011">
        <ele>260.70334</ele>
        <time>2023-08-05T14:16:33.000Z</time>
      </trkpt>
      <trkpt lat="45.88771" lon="4.73013">
        <ele>261.21878</ele>
        <time>2023-08-05T14:16:49.000Z</time>
      </trkpt>
      <trkpt lat="45.88772" lon="4.73017">
        <ele>261.51187</ele>
        <time>2023-08-05T14:16:51.000Z</time>
      </trkpt>
      <trkpt lat="45.88773" lon="4.73021">
        <ele>261.74506</ele>
        <time>2023-08-05T14:16:52.000Z</time>
      </trkpt>
      <trkpt lat="45.88772" lon="4.73025">
        <ele>261.9556</ele>
        <time>2023-08-05T14:16:53.000Z</time>
      </trkpt>
      <trkpt lat="45.88772" lon="4.73029">
        <ele>262.1788</ele>
        <time>2023-08-05T14:16:54.000Z</time>
      </trkpt>
      <trkpt lat="45.88773" lon="4.73033">
        <ele>262.40125</ele>
        <time>2023-08-05T14:16:55.000Z</time>
      </trkpt>
      <trkpt lat="45.88773" lon="4.73038">
        <ele>262.61945</ele>
        <time>2023-08-05T14:16:56.000Z</time>
      </trkpt>
      <trkpt lat="45.88773" lon="4.73042">
        <ele>262.84494</ele>
        <time>2023-08-05T14:16:57.000Z</time>
      </trkpt>
      <trkpt lat="45.88774" lon="4.73047">
        <ele>263.07217</ele>
        <time>2023-08-05T14:16:58.000Z</time>
      </trkpt>
      <trkpt lat="45.88775" lon="4.73052">
        <ele>263.28241</ele>
        <time>2023-08-05T14:16:59.000Z</time>
      </trkpt>
      <trkpt lat="45.88775" lon="4.73057">
        <ele>263.49078</ele>
        <time>2023-08-05T14:17:00.000Z</time>
      </trkpt>
      <trkpt lat="45.88776" lon="4.73063">
        <ele>263.68085</ele>
        <time>2023-08-05T14:17:01.000Z</time>
      </trkpt>
      <trkpt lat="45.88777" lon="4.73068">
        <ele>263.87201</ele>
        <time>2023-08-05T14:17:02.000Z</time>
      </trkpt>
      <trkpt lat="45.88777" lon="4.73074">
        <ele>263.76904</ele>
        <time>2023-08-05T14:17:03.000Z</time>
      </trkpt>
      <trkpt lat="45.88778" lon="4.73079">
        <ele>263.70825</ele>
        <time>2023-08-05T14:17:04.000Z</time>
      </trkpt>
      <trkpt lat="45.88778" lon="4.73085">
        <ele>263.65485</ele>
        <time>2023-08-05T14:17:05.000Z</time>
      </trkpt>
      <trkpt lat="45.88779" lon="4.7309">
        <ele>263.1933</ele>
        <time>2023-08-05T14:17:06.000Z</time>
      </trkpt>
      <trkpt lat="45.88779" lon="4.73096">
        <ele>262.46741</ele>
        <time>2023-08-05T14:17:07.000Z</time>
      </trkpt>
      <trkpt lat="45.8878" lon="4.73102">
        <ele>262.4754</ele>
        <time>2023-08-05T14:17:08.000Z</time>
      </trkpt>
      <trkpt lat="45.88781" lon="4.73107">
        <ele>262.53864</ele>
        <time>2023-08-05T14:17:09.000Z</time>
      </trkpt>
      <trkpt lat="45.88782" lon="4.73113">
        <ele>262.32025</ele>
        <time>2023-08-05T14:17:10.000Z</time>
      </trkpt>
      <trkpt lat="45.88783" lon="4.73117">
        <ele>262.32291</ele>
        <time>2023-08-05T14:17:11.000Z</time>
      </trkpt>
      <trkpt lat="45.88787" lon="4.7312">
        <ele>262.39294</ele>
        <time>2023-08-05T14:17:12.000Z</time>
      </trkpt>
      <trkpt lat="45.88791" lon="4.7312">
        <ele>262.87201</ele>
        <time>2023-08-05T14:17:13.000Z</time>
      </trkpt>
      <trkpt lat="45.88794" lon="4.73118">
        <ele>263.35709</ele>
        <time>2023-08-05T14:17:14.000Z</time>
      </trkpt>
      <trkpt lat="45.88796" lon="4.73113">
        <ele>263.84927</ele>
        <time>2023-08-05T14:17:15.000Z</time>
      </trkpt>
      <trkpt lat="45.88797" lon="4.73108">
        <ele>264.34003</ele>
        <time>2023-08-05T14:17:16.000Z</time>
      </trkpt>
      <trkpt lat="45.88797" lon="4.73095">
        <ele>264.74994</ele>
        <time>2023-08-05T14:17:17.000Z</time>
      </trkpt>
      <trkpt lat="45.88797" lon="4.73088">
        <ele>265.15463</ele>
        <time>2023-08-05T14:17:18.000Z</time>
      </trkpt>
      <trkpt lat="45.88797" lon="4.7308">
        <ele>265.84021</ele>
        <time>2023-08-05T14:17:19.000Z</time>
      </trkpt>
      <trkpt lat="45.88797" lon="4.73072">
        <ele>266.53583</ele>
        <time>2023-08-05T14:17:20.000Z</time>
      </trkpt>
      <trkpt lat="45.88797" lon="4.73064">
        <ele>266.35233</ele>
        <time>2023-08-05T14:17:21.000Z</time>
      </trkpt>
      <trkpt lat="45.88795" lon="4.73056">
        <ele>266.30008</ele>
        <time>2023-08-05T14:17:22.000Z</time>
      </trkpt>
      <trkpt lat="45.88793" lon="4.73048">
        <ele>266.32111</ele>
        <time>2023-08-05T14:17:23.000Z</time>
      </trkpt>
      <trkpt lat="45.88791" lon="4.73042">
        <ele>266.28043</ele>
        <time>2023-08-05T14:17:24.000Z</time>
      </trkpt>
      <trkpt lat="45.8879" lon="4.73035">
        <ele>266.22787</ele>
        <time>2023-08-05T14:17:25.000Z</time>
      </trkpt>
      <trkpt lat="45.88788" lon="4.73028">
        <ele>266.15829</ele>
        <time>2023-08-05T14:17:26.000Z</time>
      </trkpt>
      <trkpt lat="45.88787" lon="4.7302">
        <ele>266.08563</ele>
        <time>2023-08-05T14:17:27.000Z</time>
      </trkpt>
      <trkpt lat="45.88785" lon="4.73015">
        <ele>265.99744</ele>
        <time>2023-08-05T14:17:28.000Z</time>
      </trkpt>
      <trkpt lat="45.88782" lon="4.73012">
        <ele>266.30383</ele>
        <time>2023-08-05T14:17:29.000Z</time>
      </trkpt>
      <trkpt lat="45.88778" lon="4.7301">
        <ele>266.59265</ele>
        <time>2023-08-05T14:17:30.000Z</time>
      </trkpt>
      <trkpt lat="45.88775" lon="4.7301">
        <ele>266.87042</ele>
        <time>2023-08-05T14:17:31.000Z</time>
      </trkpt>
      <trkpt lat="45.88773" lon="4.7301">
        <ele>267.31659</ele>
        <time>2023-08-05T14:17:32.000Z</time>
      </trkpt>
      <trkpt lat="45.8877" lon="4.7301">
        <ele>267.08618</ele>
        <time>2023-08-05T14:17:33.000Z</time>
      </trkpt>
      <trkpt lat="45.88767" lon="4.73011">
        <ele>266.16122</ele>
        <time>2023-08-05T14:17:34.000Z</time>
      </trkpt>
      <trkpt lat="45.88765" lon="4.73013">
        <ele>265.58398</ele>
        <time>2023-08-05T14:17:35.000Z</time>
      </trkpt>
      <trkpt lat="45.88763" lon="4.73016">
        <ele>265.0097</ele>
        <time>2023-08-05T14:17:36.000Z</time>
      </trkpt>
      <trkpt lat="45.8876" lon="4.73019">
        <ele>264.47705</ele>
        <time>2023-08-05T14:17:37.000Z</time>
      </trkpt>
      <trkpt lat="45.88758" lon="4.73022">
        <ele>263.95618</ele>
        <time>2023-08-05T14:17:38.000Z</time>
      </trkpt>
      <trkpt lat="45.88756" lon="4.73024">
        <ele>263.21005</ele>
        <time>2023-08-05T14:17:39.000Z</time>
      </trkpt>
      <trkpt lat="45.88754" lon="4.73027">
        <ele>262.46759</ele>
        <time>2023-08-05T14:17:40.000Z</time>
      </trkpt>
      <trkpt lat="45.88752" lon="4.73031">
        <ele>262.55704</ele>
        <time>2023-08-05T14:17:41.000Z</time>
      </trkpt>
      <trkpt lat="45.88749" lon="4.73034">
        <ele>262.55743</ele>
        <time>2023-08-05T14:17:42.000Z</time>
      </trkpt>
      <trkpt lat="45.88747" lon="4.73036">
        <ele>262.53793</ele>
        <time>2023-08-05T14:17:43.000Z</time>
      </trkpt>
      <trkpt lat="45.88744" lon="4.73037">
        <ele>262.51556</ele>
        <time>2023-08-05T14:17:44.000Z</time>
      </trkpt>
      <trkpt lat="45.88741" lon="4.73037">
        <ele>262.49603</ele>
        <time>2023-08-05T14:17:45.000Z</time>
      </trkpt>
      <trkpt lat="45.88738" lon="4.73037">
        <ele>262.9986</ele>
        <time>2023-08-05T14:17:46.000Z</time>
      </trkpt>
      <trkpt lat="45.88735" lon="4.73037">
        <ele>263.57675</ele>
        <time>2023-08-05T14:17:47.000Z</time>
      </trkpt>
      <trkpt lat="45.88731" lon="4.73038">
        <ele>264.16711</ele>
        <time>2023-08-05T14:17:48.000Z</time>
      </trkpt>
      <trkpt lat="45.88727" lon="4.73038">
        <ele>264.84076</ele>
        <time>2023-08-05T14:17:49.000Z</time>
      </trkpt>
      <trkpt lat="45.88724" lon="4.73038">
        <ele>264.89786</ele>
        <time>2023-08-05T14:17:50.000Z</time>
      </trkpt>
      <trkpt lat="45.88721" lon="4.73039">
        <ele>264.27875</ele>
        <time>2023-08-05T14:17:51.000Z</time>
      </trkpt>
      <trkpt lat="45.88718" lon="4.73039">
        <ele>263.83023</ele>
        <time>2023-08-05T14:17:52.000Z</time>
      </trkpt>
      <trkpt lat="45.88715" lon="4.73039">
        <ele>263.55573</ele>
        <time>2023-08-05T14:17:53.000Z</time>
      </trkpt>
      <trkpt lat="45.88712" lon="4.73039">
        <ele>264.11258</ele>
        <time>2023-08-05T14:17:54.000Z</time>
      </trkpt>
      <trkpt lat="45.88709" lon="4.73038">
        <ele>264.52191</ele>
        <time>2023-08-05T14:17:55.000Z</time>
      </trkpt>
      <trkpt lat="45.88707" lon="4.73037">
        <ele>265.07867</ele>
        <time>2023-08-05T14:17:56.000Z</time>
      </trkpt>
      <trkpt lat="45.88703" lon="4.73038">
        <ele>265.41876</ele>
        <time>2023-08-05T14:17:57.000Z</time>
      </trkpt>
      <trkpt lat="45.88699" lon="4.73038">
        <ele>266.37231</ele>
        <time>2023-08-05T14:17:58.000Z</time>
      </trkpt>
      <trkpt lat="45.88696" lon="4.7304">
        <ele>267.30927</ele>
        <time>2023-08-05T14:17:59.000Z</time>
      </trkpt>
      <trkpt lat="45.88694" lon="4.73042">
        <ele>267.25543</ele>
        <time>2023-08-05T14:18:00.000Z</time>
      </trkpt>
      <trkpt lat="45.88692" lon="4.73044">
        <ele>267.86246</ele>
        <time>2023-08-05T14:18:01.000Z</time>
      </trkpt>
      <trkpt lat="45.88689" lon="4.73046">
        <ele>268.53094</ele>
        <time>2023-08-05T14:18:02.000Z</time>
      </trkpt>
      <trkpt lat="45.88686" lon="4.73047">
        <ele>269.26828</ele>
        <time>2023-08-05T14:18:03.000Z</time>
      </trkpt>
      <trkpt lat="45.88683" lon="4.73048">
        <ele>269.72681</ele>
        <time>2023-08-05T14:18:04.000Z</time>
      </trkpt>
      <trkpt lat="45.8868" lon="4.73049">
        <ele>270.28973</ele>
        <time>2023-08-05T14:18:05.000Z</time>
      </trkpt>
      <trkpt lat="45.88676" lon="4.73051">
        <ele>270.85748</ele>
        <time>2023-08-05T14:18:06.000Z</time>
      </trkpt>
      <trkpt lat="45.88674" lon="4.73054">
        <ele>271.51093</ele>
        <time>2023-08-05T14:18:07.000Z</time>
      </trkpt>
      <trkpt lat="45.88672" lon="4.73057">
        <ele>271.86237</ele>
        <time>2023-08-05T14:18:08.000Z</time>
      </trkpt>
      <trkpt lat="45.88671" lon="4.7306">
        <ele>271.53009</ele>
        <time>2023-08-05T14:18:09.000Z</time>
      </trkpt>
      <trkpt lat="45.88669" lon="4.73064">
        <ele>271.67062</ele>
        <time>2023-08-05T14:18:10.000Z</time>
      </trkpt>
      <trkpt lat="45.88667" lon="4.73066">
        <ele>272.46631</ele>
        <time>2023-08-05T14:18:11.000Z</time>
      </trkpt>
      <trkpt lat="45.88664" lon="4.73069">
        <ele>272.93033</ele>
        <time>2023-08-05T14:18:12.000Z</time>
      </trkpt>
      <trkpt lat="45.88662" lon="4.73071">
        <ele>273.44797</ele>
        <time>2023-08-05T14:18:13.000Z</time>
      </trkpt>
      <trkpt lat="45.8866" lon="4.73074">
        <ele>273.78839</ele>
        <time>2023-08-05T14:18:15.000Z</time>
      </trkpt>
      <trkpt lat="45.88657" lon="4.73077">
        <ele>273.92032</ele>
        <time>2023-08-05T14:18:17.000Z</time>
      </trkpt>
      <trkpt lat="45.88656" lon="4.73078">
        <ele>273.89676</ele>
        <time>2023-08-05T14:18:22.000Z</time>
      </trkpt>
      <trkpt lat="45.88653" lon="4.73078">
        <ele>273.66306</ele>
        <time>2023-08-05T14:18:35.000Z</time>
      </trkpt>
      <trkpt lat="45.8865" lon="4.73077">
        <ele>272.79413</ele>
        <time>2023-08-05T14:18:37.000Z</time>
      </trkpt>
      <trkpt lat="45.88648" lon="4.73076">
        <ele>271.91379</ele>
        <time>2023-08-05T14:18:38.000Z</time>
      </trkpt>
      <trkpt lat="45.88646" lon="4.73074">
        <ele>272.51001</ele>
        <time>2023-08-05T14:18:39.000Z</time>
      </trkpt>
      <trkpt lat="45.88645" lon="4.73071">
        <ele>272.67905</ele>
        <time>2023-08-05T14:18:40.000Z</time>
      </trkpt>
      <trkpt lat="45.88645" lon="4.73068">
        <ele>272.75592</ele>
        <time>2023-08-05T14:18:41.000Z</time>
      </trkpt>
      <trkpt lat="45.88645" lon="4.73064">
        <ele>271.86359</ele>
        <time>2023-08-05T14:18:42.000Z</time>
      </trkpt>
      <trkpt lat="45.88645" lon="4.73059">
        <ele>271.37115</ele>
        <time>2023-08-05T14:18:43.000Z</time>
      </trkpt>
      <trkpt lat="45.88645" lon="4.73055">
        <ele>270.75504</ele>
        <time>2023-08-05T14:18:44.000Z</time>
      </trkpt>
      <trkpt lat="45.88644" lon="4.73051">
        <ele>269.61084</ele>
        <time>2023-08-05T14:18:45.000Z</time>
      </trkpt>
      <trkpt lat="45.88641" lon="4.73048">
        <ele>268.42938</ele>
        <time>2023-08-05T14:18:46.000Z</time>
      </trkpt>
      <trkpt lat="45.88638" lon="4.73046">
        <ele>267.88715</ele>
        <time>2023-08-05T14:18:47.000Z</time>
      </trkpt>
      <trkpt lat="45.88635" lon="4.73046">
        <ele>267.55179</ele>
        <time>2023-08-05T14:18:48.000Z</time>
      </trkpt>
      <trkpt lat="45.88631" lon="4.73046">
        <ele>267.40277</ele>
        <time>2023-08-05T14:18:49.000Z</time>
      </trkpt>
      <trkpt lat="45.88627" lon="4.73047">
        <ele>267.26117</ele>
        <time>2023-08-05T14:18:50.000Z</time>
      </trkpt>
      <trkpt lat="45.88623" lon="4.73048">
        <ele>267.22003</ele>
        <time>2023-08-05T14:18:51.000Z</time>
      </trkpt>
      <trkpt lat="45.88619" lon="4.73049">
        <ele>267.42627</ele>
        <time>2023-08-05T14:18:52.000Z</time>
      </trkpt>
      <trkpt lat="45.88616" lon="4.73049">
        <ele>267.66763</ele>
        <time>2023-08-05T14:18:53.000Z</time>
      </trkpt>
      <trkpt lat="45.88613" lon="4.73049">
        <ele>267.01035</ele>
        <time>2023-08-05T14:18:54.000Z</time>
      </trkpt>
      <trkpt lat="45.88609" lon="4.73049">
        <ele>266.50867</ele>
        <time>2023-08-05T14:18:55.000Z</time>
      </trkpt>
      <trkpt lat="45.88606" lon="4.73049">
        <ele>266.461</ele>
        <time>2023-08-05T14:18:56.000Z</time>
      </trkpt>
      <trkpt lat="45.88602" lon="4.73048">
        <ele>266.42593</ele>
        <time>2023-08-05T14:18:57.000Z</time>
      </trkpt>
      <trkpt lat="45.88598" lon="4.73048">
        <ele>266.34741</ele>
        <time>2023-08-05T14:18:58.000Z</time>
      </trkpt>
      <trkpt lat="45.88594" lon="4.73048">
        <ele>265.73676</ele>
        <time>2023-08-05T14:18:59.000Z</time>
      </trkpt>
      <trkpt lat="45.8859" lon="4.73048">
        <ele>264.93045</ele>
        <time>2023-08-05T14:19:00.000Z</time>
      </trkpt>
      <trkpt lat="45.88586" lon="4.73049">
        <ele>264.13443</ele>
        <time>2023-08-05T14:19:01.000Z</time>
      </trkpt>
      <trkpt lat="45.88582" lon="4.73049">
        <ele>264.25458</ele>
        <time>2023-08-05T14:19:02.000Z</time>
      </trkpt>
      <trkpt lat="45.88579" lon="4.73049">
        <ele>264.25946</ele>
        <time>2023-08-05T14:19:03.000Z</time>
      </trkpt>
      <trkpt lat="45.88575" lon="4.73049">
        <ele>264.26517</ele>
        <time>2023-08-05T14:19:04.000Z</time>
      </trkpt>
      <trkpt lat="45.88572" lon="4.7305">
        <ele>264.23859</ele>
        <time>2023-08-05T14:19:05.000Z</time>
      </trkpt>
      <trkpt lat="45.88568" lon="4.7305">
        <ele>264.1138</ele>
        <time>2023-08-05T14:19:06.000Z</time>
      </trkpt>
      <trkpt lat="45.88565" lon="4.7305">
        <ele>263.66547</ele>
        <time>2023-08-05T14:19:07.000Z</time>
      </trkpt>
      <trkpt lat="45.88561" lon="4.73049">
        <ele>263.20404</ele>
        <time>2023-08-05T14:19:08.000Z</time>
      </trkpt>
      <trkpt lat="45.88557" lon="4.73048">
        <ele>262.70224</ele>
        <time>2023-08-05T14:19:09.000Z</time>
      </trkpt>
      <trkpt lat="45.88554" lon="4.73048">
        <ele>262.20468</ele>
        <time>2023-08-05T14:19:10.000Z</time>
      </trkpt>
      <trkpt lat="45.8855" lon="4.73047">
        <ele>261.62238</ele>
        <time>2023-08-05T14:19:11.000Z</time>
      </trkpt>
      <trkpt lat="45.88546" lon="4.73047">
        <ele>260.76395</ele>
        <time>2023-08-05T14:19:12.000Z</time>
      </trkpt>
      <trkpt lat="45.88542" lon="4.73046">
        <ele>259.72757</ele>
        <time>2023-08-05T14:19:13.000Z</time>
      </trkpt>
      <trkpt lat="45.88538" lon="4.73045">
        <ele>259.5889</ele>
        <time>2023-08-05T14:19:14.000Z</time>
      </trkpt>
      <trkpt lat="45.88534" lon="4.73043">
        <ele>259.30295</ele>
        <time>2023-08-05T14:19:15.000Z</time>
      </trkpt>
      <trkpt lat="45.8853" lon="4.73041">
        <ele>258.98236</ele>
        <time>2023-08-05T14:19:16.000Z</time>
      </trkpt>
      <trkpt lat="45.88527" lon="4.73038">
        <ele>258.68433</ele>
        <time>2023-08-05T14:19:17.000Z</time>
      </trkpt>
      <trkpt lat="45.88523" lon="4.73036">
        <ele>258.46527</ele>
        <time>2023-08-05T14:19:18.000Z</time>
      </trkpt>
      <trkpt lat="45.88517" lon="4.73035">
        <ele>258.25473</ele>
        <time>2023-08-05T14:19:19.000Z</time>
      </trkpt>
      <trkpt lat="45.88513" lon="4.73034">
        <ele>258.05966</ele>
        <time>2023-08-05T14:19:20.000Z</time>
      </trkpt>
      <trkpt lat="45.8851" lon="4.73033">
        <ele>257.85522</ele>
        <time>2023-08-05T14:19:21.000Z</time>
      </trkpt>
      <trkpt lat="45.88506" lon="4.73032">
        <ele>257.64355</ele>
        <time>2023-08-05T14:19:22.000Z</time>
      </trkpt>
      <trkpt lat="45.88502" lon="4.7303">
        <ele>257.47128</ele>
        <time>2023-08-05T14:19:23.000Z</time>
      </trkpt>
      <trkpt lat="45.88499" lon="4.73029">
        <ele>257.32928</ele>
        <time>2023-08-05T14:19:24.000Z</time>
      </trkpt>
      <trkpt lat="45.88495" lon="4.73028">
        <ele>257.24753</ele>
        <time>2023-08-05T14:19:25.000Z</time>
      </trkpt>
      <trkpt lat="45.88491" lon="4.73028">
        <ele>257.15228</ele>
        <time>2023-08-05T14:19:26.000Z</time>
      </trkpt>
      <trkpt lat="45.88487" lon="4.73028">
        <ele>257.06763</ele>
        <time>2023-08-05T14:19:27.000Z</time>
      </trkpt>
      <trkpt lat="45.88484" lon="4.73028">
        <ele>257.02448</ele>
        <time>2023-08-05T14:19:28.000Z</time>
      </trkpt>
      <trkpt lat="45.8848" lon="4.73028">
        <ele>256.96527</ele>
        <time>2023-08-05T14:19:29.000Z</time>
      </trkpt>
      <trkpt lat="45.88476" lon="4.73027">
        <ele>256.88544</ele>
        <time>2023-08-05T14:19:30.000Z</time>
      </trkpt>
      <trkpt lat="45.88472" lon="4.73027">
        <ele>256.78461</ele>
        <time>2023-08-05T14:19:31.000Z</time>
      </trkpt>
      <trkpt lat="45.88469" lon="4.73028">
        <ele>256.82257</ele>
        <time>2023-08-05T14:19:32.000Z</time>
      </trkpt>
      <trkpt lat="45.88465" lon="4.73027">
        <ele>257.01822</ele>
        <time>2023-08-05T14:19:33.000Z</time>
      </trkpt>
      <trkpt lat="45.88462" lon="4.73025">
        <ele>257.18967</ele>
        <time>2023-08-05T14:19:34.000Z</time>
      </trkpt>
      <trkpt lat="45.88458" lon="4.73024">
        <ele>257.35388</ele>
        <time>2023-08-05T14:19:35.000Z</time>
      </trkpt>
      <trkpt lat="45.88454" lon="4.73023">
        <ele>257.50946</ele>
        <time>2023-08-05T14:19:36.000Z</time>
      </trkpt>
      <trkpt lat="45.8845" lon="4.73023">
        <ele>257.63672</ele>
        <time>2023-08-05T14:19:37.000Z</time>
      </trkpt>
      <trkpt lat="45.88447" lon="4.73022">
        <ele>257.70953</ele>
        <time>2023-08-05T14:19:38.000Z</time>
      </trkpt>
      <trkpt lat="45.88443" lon="4.73021">
        <ele>257.79364</ele>
        <time>2023-08-05T14:19:39.000Z</time>
      </trkpt>
      <trkpt lat="45.88439" lon="4.7302">
        <ele>258.56812</ele>
        <time>2023-08-05T14:19:40.000Z</time>
      </trkpt>
      <trkpt lat="45.88435" lon="4.73019">
        <ele>259.3316</ele>
        <time>2023-08-05T14:19:41.000Z</time>
      </trkpt>
      <trkpt lat="45.88431" lon="4.73018">
        <ele>260.11218</ele>
        <time>2023-08-05T14:19:42.000Z</time>
      </trkpt>
      <trkpt lat="45.88427" lon="4.73017">
        <ele>260.83765</ele>
        <time>2023-08-05T14:19:43.000Z</time>
      </trkpt>
      <trkpt lat="45.88423" lon="4.73016">
        <ele>261.53494</ele>
        <time>2023-08-05T14:19:44.000Z</time>
      </trkpt>
      <trkpt lat="45.88419" lon="4.73014">
        <ele>262.21393</ele>
        <time>2023-08-05T14:19:45.000Z</time>
      </trkpt>
      <trkpt lat="45.88415" lon="4.73012">
        <ele>262.92001</ele>
        <time>2023-08-05T14:19:46.000Z</time>
      </trkpt>
      <trkpt lat="45.88412" lon="4.73011">
        <ele>263.56668</ele>
        <time>2023-08-05T14:19:47.000Z</time>
      </trkpt>
      <trkpt lat="45.88408" lon="4.73009">
        <ele>264.18036</ele>
        <time>2023-08-05T14:19:48.000Z</time>
      </trkpt>
      <trkpt lat="45.88405" lon="4.73008">
        <ele>264.81061</ele>
        <time>2023-08-05T14:19:49.000Z</time>
      </trkpt>
      <trkpt lat="45.88402" lon="4.73006">
        <ele>265.46051</ele>
        <time>2023-08-05T14:19:50.000Z</time>
      </trkpt>
      <trkpt lat="45.88398" lon="4.73006">
        <ele>266.08545</ele>
        <time>2023-08-05T14:19:51.000Z</time>
      </trkpt>
      <trkpt lat="45.88394" lon="4.73006">
        <ele>266.61566</ele>
        <time>2023-08-05T14:19:52.000Z</time>
      </trkpt>
      <trkpt lat="45.8839" lon="4.73007">
        <ele>267.15253</ele>
        <time>2023-08-05T14:19:53.000Z</time>
      </trkpt>
      <trkpt lat="45.88386" lon="4.73009">
        <ele>267.69162</ele>
        <time>2023-08-05T14:19:54.000Z</time>
      </trkpt>
      <trkpt lat="45.88383" lon="4.7301">
        <ele>268.2562</ele>
        <time>2023-08-05T14:19:55.000Z</time>
      </trkpt>
      <trkpt lat="45.88379" lon="4.73011">
        <ele>268.84549</ele>
        <time>2023-08-05T14:19:56.000Z</time>
      </trkpt>
      <trkpt lat="45.88376" lon="4.73011">
        <ele>268.64459</ele>
        <time>2023-08-05T14:19:57.000Z</time>
      </trkpt>
      <trkpt lat="45.88372" lon="4.73012">
        <ele>268.74799</ele>
        <time>2023-08-05T14:19:58.000Z</time>
      </trkpt>
      <trkpt lat="45.88368" lon="4.73014">
        <ele>268.89081</ele>
        <time>2023-08-05T14:19:59.000Z</time>
      </trkpt>
      <trkpt lat="45.88365" lon="4.73016">
        <ele>268.3678</ele>
        <time>2023-08-05T14:20:00.000Z</time>
      </trkpt>
      <trkpt lat="45.88362" lon="4.73018">
        <ele>267.87299</ele>
        <time>2023-08-05T14:20:01.000Z</time>
      </trkpt>
      <trkpt lat="45.88359" lon="4.73022">
        <ele>267.34042</ele>
        <time>2023-08-05T14:20:02.000Z</time>
      </trkpt>
      <trkpt lat="45.88357" lon="4.73025">
        <ele>266.79681</ele>
        <time>2023-08-05T14:20:03.000Z</time>
      </trkpt>
      <trkpt lat="45.88355" lon="4.73029">
        <ele>266.27969</ele>
        <time>2023-08-05T14:20:04.000Z</time>
      </trkpt>
      <trkpt lat="45.88354" lon="4.73033">
        <ele>266.20682</ele>
        <time>2023-08-05T14:20:05.000Z</time>
      </trkpt>
      <trkpt lat="45.88352" lon="4.73036">
        <ele>266.41049</ele>
        <time>2023-08-05T14:20:06.000Z</time>
      </trkpt>
      <trkpt lat="45.8835" lon="4.7304">
        <ele>265.72528</ele>
        <time>2023-08-05T14:20:07.000Z</time>
      </trkpt>
      <trkpt lat="45.88348" lon="4.73044">
        <ele>265.17642</ele>
        <time>2023-08-05T14:20:08.000Z</time>
      </trkpt>
      <trkpt lat="45.88346" lon="4.73048">
        <ele>264.62189</ele>
        <time>2023-08-05T14:20:09.000Z</time>
      </trkpt>
      <trkpt lat="45.88344" lon="4.73051">
        <ele>264.06519</ele>
        <time>2023-08-05T14:20:10.000Z</time>
      </trkpt>
      <trkpt lat="45.88342" lon="4.73054">
        <ele>263.54565</ele>
        <time>2023-08-05T14:20:11.000Z</time>
      </trkpt>
      <trkpt lat="45.8834" lon="4.73056">
        <ele>263.0433</ele>
        <time>2023-08-05T14:20:12.000Z</time>
      </trkpt>
      <trkpt lat="45.88337" lon="4.73059">
        <ele>262.53397</ele>
        <time>2023-08-05T14:20:13.000Z</time>
      </trkpt>
      <trkpt lat="45.88335" lon="4.7306">
        <ele>263.18228</ele>
        <time>2023-08-05T14:20:14.000Z</time>
      </trkpt>
      <trkpt lat="45.88333" lon="4.73061">
        <ele>263.81357</ele>
        <time>2023-08-05T14:20:15.000Z</time>
      </trkpt>
      <trkpt lat="45.88331" lon="4.73062">
        <ele>264.45065</ele>
        <time>2023-08-05T14:20:17.000Z</time>
      </trkpt>
      <trkpt lat="45.8833" lon="4.73066">
        <ele>265.90366</ele>
        <time>2023-08-05T14:20:19.000Z</time>
      </trkpt>
      <trkpt lat="45.88329" lon="4.73069">
        <ele>267.05951</ele>
        <time>2023-08-05T14:20:21.000Z</time>
      </trkpt>
      <trkpt lat="45.88328" lon="4.73071">
        <ele>268.28485</ele>
        <time>2023-08-05T14:20:27.000Z</time>
      </trkpt>
      <trkpt lat="45.88326" lon="4.7307">
        <ele>269.37582</ele>
        <time>2023-08-05T14:20:38.000Z</time>
      </trkpt>
      <trkpt lat="45.88328" lon="4.7307">
        <ele>269.66187</ele>
        <time>2023-08-05T14:20:41.000Z</time>
      </trkpt>
      <trkpt lat="45.88331" lon="4.73067">
        <ele>269.99533</ele>
        <time>2023-08-05T14:20:43.000Z</time>
      </trkpt>
      <trkpt lat="45.88332" lon="4.73066">
        <ele>270.83881</ele>
        <time>2023-08-05T14:20:44.000Z</time>
      </trkpt>
      <trkpt lat="45.88334" lon="4.73065">
        <ele>270.64835</ele>
        <time>2023-08-05T14:20:45.000Z</time>
      </trkpt>
      <trkpt lat="45.88337" lon="4.73063">
        <ele>270.23685</ele>
        <time>2023-08-05T14:20:46.000Z</time>
      </trkpt>
      <trkpt lat="45.88339" lon="4.73061">
        <ele>269.39227</ele>
        <time>2023-08-05T14:20:47.000Z</time>
      </trkpt>
      <trkpt lat="45.88341" lon="4.73058">
        <ele>269.49213</ele>
        <time>2023-08-05T14:20:48.000Z</time>
      </trkpt>
      <trkpt lat="45.88344" lon="4.73057">
        <ele>269.44574</ele>
        <time>2023-08-05T14:20:49.000Z</time>
      </trkpt>
      <trkpt lat="45.88346" lon="4.73058">
        <ele>269.42487</ele>
        <time>2023-08-05T14:20:50.000Z</time>
      </trkpt>
      <trkpt lat="45.88348" lon="4.7306">
        <ele>269.45197</ele>
        <time>2023-08-05T14:20:51.000Z</time>
      </trkpt>
      <trkpt lat="45.88349" lon="4.73062">
        <ele>269.38898</ele>
        <time>2023-08-05T14:20:52.000Z</time>
      </trkpt>
      <trkpt lat="45.88349" lon="4.73065">
        <ele>269.44812</ele>
        <time>2023-08-05T14:20:53.000Z</time>
      </trkpt>
      <trkpt lat="45.8835" lon="4.73068">
        <ele>269.51093</ele>
        <time>2023-08-05T14:20:54.000Z</time>
      </trkpt>
      <trkpt lat="45.88351" lon="4.73071">
        <ele>268.44098</ele>
        <time>2023-08-05T14:20:55.000Z</time>
      </trkpt>
      <trkpt lat="45.88351" lon="4.73074">
        <ele>267.42627</ele>
        <time>2023-08-05T14:20:56.000Z</time>
      </trkpt>
      <trkpt lat="45.88351" lon="4.73077">
        <ele>266.41217</ele>
        <time>2023-08-05T14:20:57.000Z</time>
      </trkpt>
      <trkpt lat="45.8835" lon="4.73079">
        <ele>265.37735</ele>
        <time>2023-08-05T14:20:58.000Z</time>
      </trkpt>
      <trkpt lat="45.88348" lon="4.7308">
        <ele>264.33762</ele>
        <time>2023-08-05T14:20:59.000Z</time>
      </trkpt>
      <trkpt lat="45.88346" lon="4.73081">
        <ele>263.23383</ele>
        <time>2023-08-05T14:21:00.000Z</time>
      </trkpt>
      <trkpt lat="45.88344" lon="4.73083">
        <ele>262.22052</ele>
        <time>2023-08-05T14:21:01.000Z</time>
      </trkpt>
      <trkpt lat="45.88342" lon="4.73086">
        <ele>261.99146</ele>
        <time>2023-08-05T14:21:02.000Z</time>
      </trkpt>
      <trkpt lat="45.8834" lon="4.7309">
        <ele>261.72458</ele>
        <time>2023-08-05T14:21:03.000Z</time>
      </trkpt>
      <trkpt lat="45.88337" lon="4.73092">
        <ele>260.96542</ele>
        <time>2023-08-05T14:21:04.000Z</time>
      </trkpt>
      <trkpt lat="45.88333" lon="4.73093">
        <ele>261.16058</ele>
        <time>2023-08-05T14:21:05.000Z</time>
      </trkpt>
      <trkpt lat="45.8833" lon="4.73094">
        <ele>261.20871</ele>
        <time>2023-08-05T14:21:06.000Z</time>
      </trkpt>
      <trkpt lat="45.88327" lon="4.73094">
        <ele>261.30347</ele>
        <time>2023-08-05T14:21:07.000Z</time>
      </trkpt>
      <trkpt lat="45.88324" lon="4.73095">
        <ele>261.47244</ele>
        <time>2023-08-05T14:21:08.000Z</time>
      </trkpt>
      <trkpt lat="45.88321" lon="4.73095">
        <ele>261.65201</ele>
        <time>2023-08-05T14:21:09.000Z</time>
      </trkpt>
      <trkpt lat="45.88318" lon="4.73096">
        <ele>261.81369</ele>
        <time>2023-08-05T14:21:10.000Z</time>
      </trkpt>
      <trkpt lat="45.88314" lon="4.73097">
        <ele>261.94852</ele>
        <time>2023-08-05T14:21:11.000Z</time>
      </trkpt>
      <trkpt lat="45.88311" lon="4.73098">
        <ele>262.09537</ele>
        <time>2023-08-05T14:21:12.000Z</time>
      </trkpt>
      <trkpt lat="45.88307" lon="4.73101">
        <ele>262.19229</ele>
        <time>2023-08-05T14:21:13.000Z</time>
      </trkpt>
      <trkpt lat="45.88304" lon="4.73103">
        <ele>262.7045</ele>
        <time>2023-08-05T14:21:14.000Z</time>
      </trkpt>
      <trkpt lat="45.88302" lon="4.73107">
        <ele>263.22345</ele>
        <time>2023-08-05T14:21:15.000Z</time>
      </trkpt>
      <trkpt lat="45.88299" lon="4.73111">
        <ele>263.70883</ele>
        <time>2023-08-05T14:21:16.000Z</time>
      </trkpt>
      <trkpt lat="45.88297" lon="4.73115">
        <ele>264.18219</ele>
        <time>2023-08-05T14:21:17.000Z</time>
      </trkpt>
      <trkpt lat="45.88294" lon="4.73119">
        <ele>264.66672</ele>
        <time>2023-08-05T14:21:18.000Z</time>
      </trkpt>
      <trkpt lat="45.88292" lon="4.73124">
        <ele>264.7916</ele>
        <time>2023-08-05T14:21:19.000Z</time>
      </trkpt>
      <trkpt lat="45.88289" lon="4.73128">
        <ele>264.89566</ele>
        <time>2023-08-05T14:21:20.000Z</time>
      </trkpt>
      <trkpt lat="45.88286" lon="4.73132">
        <ele>265.0267</ele>
        <time>2023-08-05T14:21:21.000Z</time>
      </trkpt>
      <trkpt lat="45.88283" lon="4.73136">
        <ele>265.15231</ele>
        <time>2023-08-05T14:21:22.000Z</time>
      </trkpt>
      <trkpt lat="45.8828" lon="4.73139">
        <ele>265.29636</ele>
        <time>2023-08-05T14:21:23.000Z</time>
      </trkpt>
      <trkpt lat="45.88278" lon="4.73141">
        <ele>267.89136</ele>
        <time>2023-08-05T14:21:24.000Z</time>
      </trkpt>
      <trkpt lat="45.88275" lon="4.73143">
        <ele>268.94968</ele>
        <time>2023-08-05T14:21:25.000Z</time>
      </trkpt>
      <trkpt lat="45.88271" lon="4.73146">
        <ele>270.25336</ele>
        <time>2023-08-05T14:21:26.000Z</time>
      </trkpt>
      <trkpt lat="45.88267" lon="4.73148">
        <ele>271.61035</ele>
        <time>2023-08-05T14:21:27.000Z</time>
      </trkpt>
      <trkpt lat="45.88264" lon="4.7315">
        <ele>272.87933</ele>
        <time>2023-08-05T14:21:28.000Z</time>
      </trkpt>
      <trkpt lat="45.88261" lon="4.73153">
        <ele>274.14508</ele>
        <time>2023-08-05T14:21:29.000Z</time>
      </trkpt>
      <trkpt lat="45.88257" lon="4.73156">
        <ele>275.40936</ele>
        <time>2023-08-05T14:21:30.000Z</time>
      </trkpt>
      <trkpt lat="45.88253" lon="4.73161">
        <ele>276.65219</ele>
        <time>2023-08-05T14:21:31.000Z</time>
      </trkpt>
      <trkpt lat="45.8825" lon="4.73164">
        <ele>277.95996</ele>
        <time>2023-08-05T14:21:32.000Z</time>
      </trkpt>
      <trkpt lat="45.88246" lon="4.73167">
        <ele>279.19623</ele>
        <time>2023-08-05T14:21:33.000Z</time>
      </trkpt>
      <trkpt lat="45.88242" lon="4.73171">
        <ele>280.02496</ele>
        <time>2023-08-05T14:21:34.000Z</time>
      </trkpt>
      <trkpt lat="45.88239" lon="4.73175">
        <ele>280.8158</ele>
        <time>2023-08-05T14:21:35.000Z</time>
      </trkpt>
      <trkpt lat="45.88235" lon="4.73179">
        <ele>281.60062</ele>
        <time>2023-08-05T14:21:36.000Z</time>
      </trkpt>
      <trkpt lat="45.88231" lon="4.73182">
        <ele>282.39563</ele>
        <time>2023-08-05T14:21:37.000Z</time>
      </trkpt>
      <trkpt lat="45.88228" lon="4.73185">
        <ele>283.17355</ele>
        <time>2023-08-05T14:21:38.000Z</time>
      </trkpt>
      <trkpt lat="45.88225" lon="4.73188">
        <ele>284.33417</ele>
        <time>2023-08-05T14:21:39.000Z</time>
      </trkpt>
      <trkpt lat="45.88222" lon="4.73191">
        <ele>285.4996</ele>
        <time>2023-08-05T14:21:40.000Z</time>
      </trkpt>
      <trkpt lat="45.88219" lon="4.73195">
        <ele>286.65317</ele>
        <time>2023-08-05T14:21:41.000Z</time>
      </trkpt>
      <trkpt lat="45.88215" lon="4.73199">
        <ele>287.79071</ele>
        <time>2023-08-05T14:21:42.000Z</time>
      </trkpt>
      <trkpt lat="45.88212" lon="4.73202">
        <ele>288.93661</ele>
        <time>2023-08-05T14:21:43.000Z</time>
      </trkpt>
      <trkpt lat="45.88208" lon="4.73206">
        <ele>287.63452</ele>
        <time>2023-08-05T14:21:44.000Z</time>
      </trkpt>
      <trkpt lat="45.88205" lon="4.73209">
        <ele>287.93311</ele>
        <time>2023-08-05T14:21:45.000Z</time>
      </trkpt>
      <trkpt lat="45.88201" lon="4.73212">
        <ele>287.90387</ele>
        <time>2023-08-05T14:21:46.000Z</time>
      </trkpt>
      <trkpt lat="45.88198" lon="4.73216">
        <ele>287.88873</ele>
        <time>2023-08-05T14:21:47.000Z</time>
      </trkpt>
      <trkpt lat="45.88194" lon="4.73219">
        <ele>287.86874</ele>
        <time>2023-08-05T14:21:48.000Z</time>
      </trkpt>
      <trkpt lat="45.88191" lon="4.73221">
        <ele>288.61282</ele>
        <time>2023-08-05T14:21:49.000Z</time>
      </trkpt>
      <trkpt lat="45.88189" lon="4.73224">
        <ele>289.39355</ele>
        <time>2023-08-05T14:21:50.000Z</time>
      </trkpt>
      <trkpt lat="45.88186" lon="4.73226">
        <ele>290.20953</ele>
        <time>2023-08-05T14:21:51.000Z</time>
      </trkpt>
      <trkpt lat="45.88183" lon="4.73228">
        <ele>291.01929</ele>
        <time>2023-08-05T14:21:52.000Z</time>
      </trkpt>
      <trkpt lat="45.88179" lon="4.73229">
        <ele>291.84161</ele>
        <time>2023-08-05T14:21:53.000Z</time>
      </trkpt>
      <trkpt lat="45.88175" lon="4.73231">
        <ele>293.19614</ele>
        <time>2023-08-05T14:21:54.000Z</time>
      </trkpt>
      <trkpt lat="45.88171" lon="4.73233">
        <ele>292.97205</ele>
        <time>2023-08-05T14:21:55.000Z</time>
      </trkpt>
      <trkpt lat="45.88167" lon="4.73235">
        <ele>293.02487</ele>
        <time>2023-08-05T14:21:56.000Z</time>
      </trkpt>
      <trkpt lat="45.88164" lon="4.73236">
        <ele>293.0864</ele>
        <time>2023-08-05T14:21:57.000Z</time>
      </trkpt>
      <trkpt lat="45.8816" lon="4.73237">
        <ele>293.37283</ele>
        <time>2023-08-05T14:21:58.000Z</time>
      </trkpt>
      <trkpt lat="45.88157" lon="4.73237">
        <ele>293.64755</ele>
        <time>2023-08-05T14:21:59.000Z</time>
      </trkpt>
      <trkpt lat="45.88153" lon="4.73236">
        <ele>293.9249</ele>
        <time>2023-08-05T14:22:00.000Z</time>
      </trkpt>
      <trkpt lat="45.88149" lon="4.73235">
        <ele>294.22281</ele>
        <time>2023-08-05T14:22:01.000Z</time>
      </trkpt>
      <trkpt lat="45.88146" lon="4.73233">
        <ele>294.54501</ele>
        <time>2023-08-05T14:22:02.000Z</time>
      </trkpt>
      <trkpt lat="45.88142" lon="4.73232">
        <ele>292.23477</ele>
        <time>2023-08-05T14:22:03.000Z</time>
      </trkpt>
      <trkpt lat="45.88138" lon="4.73231">
        <ele>292.44055</ele>
        <time>2023-08-05T14:22:04.000Z</time>
      </trkpt>
      <trkpt lat="45.88134" lon="4.7323">
        <ele>292.66602</ele>
        <time>2023-08-05T14:22:05.000Z</time>
      </trkpt>
      <trkpt lat="45.8813" lon="4.73229">
        <ele>292.90829</ele>
        <time>2023-08-05T14:22:06.000Z</time>
      </trkpt>
      <trkpt lat="45.88127" lon="4.73227">
        <ele>293.17047</ele>
        <time>2023-08-05T14:22:07.000Z</time>
      </trkpt>
      <trkpt lat="45.88123" lon="4.73225">
        <ele>293.43948</ele>
        <time>2023-08-05T14:22:08.000Z</time>
      </trkpt>
      <trkpt lat="45.88119" lon="4.73224">
        <ele>290.37094</ele>
        <time>2023-08-05T14:22:09.000Z</time>
      </trkpt>
      <trkpt lat="45.88116" lon="4.73222">
        <ele>289.698</ele>
        <time>2023-08-05T14:22:10.000Z</time>
      </trkpt>
      <trkpt lat="45.88113" lon="4.73221">
        <ele>288.97003</ele>
        <time>2023-08-05T14:22:11.000Z</time>
      </trkpt>
      <trkpt lat="45.88109" lon="4.73219">
        <ele>288.21173</ele>
        <time>2023-08-05T14:22:12.000Z</time>
      </trkpt>
      <trkpt lat="45.88106" lon="4.73217">
        <ele>287.40561</ele>
        <time>2023-08-05T14:22:13.000Z</time>
      </trkpt>
      <trkpt lat="45.88102" lon="4.73215">
        <ele>286.02411</ele>
        <time>2023-08-05T14:22:14.000Z</time>
      </trkpt>
      <trkpt lat="45.88098" lon="4.73214">
        <ele>283.94818</ele>
        <time>2023-08-05T14:22:15.000Z</time>
      </trkpt>
      <trkpt lat="45.88095" lon="4.73212">
        <ele>283.70972</ele>
        <time>2023-08-05T14:22:16.000Z</time>
      </trkpt>
      <trkpt lat="45.88091" lon="4.7321">
        <ele>283.45279</ele>
        <time>2023-08-05T14:22:17.000Z</time>
      </trkpt>
      <trkpt lat="45.88087" lon="4.73209">
        <ele>282.9711</ele>
        <time>2023-08-05T14:22:18.000Z</time>
      </trkpt>
      <trkpt lat="45.88084" lon="4.73207">
        <ele>282.45099</ele>
        <time>2023-08-05T14:22:19.000Z</time>
      </trkpt>
      <trkpt lat="45.8808" lon="4.73205">
        <ele>281.89117</ele>
        <time>2023-08-05T14:22:20.000Z</time>
      </trkpt>
      <trkpt lat="45.88076" lon="4.73203">
        <ele>279.27353</ele>
        <time>2023-08-05T14:22:21.000Z</time>
      </trkpt>
      <trkpt lat="45.88073" lon="4.73202">
        <ele>278.52606</ele>
        <time>2023-08-05T14:22:22.000Z</time>
      </trkpt>
      <trkpt lat="45.8807" lon="4.732">
        <ele>280.3591</ele>
        <time>2023-08-05T14:22:23.000Z</time>
      </trkpt>
      <trkpt lat="45.88068" lon="4.73199">
        <ele>279.76532</ele>
        <time>2023-08-05T14:22:24.000Z</time>
      </trkpt>
      <trkpt lat="45.88066" lon="4.73196">
        <ele>279.13153</ele>
        <time>2023-08-05T14:22:25.000Z</time>
      </trkpt>
      <trkpt lat="45.88064" lon="4.73192">
        <ele>278.4548</ele>
        <time>2023-08-05T14:22:26.000Z</time>
      </trkpt>
      <trkpt lat="45.88063" lon="4.7319">
        <ele>275.77179</ele>
        <time>2023-08-05T14:22:27.000Z</time>
      </trkpt>
      <trkpt lat="45.88061" lon="4.73189">
        <ele>274.90186</ele>
        <time>2023-08-05T14:22:28.000Z</time>
      </trkpt>
      <trkpt lat="45.88059" lon="4.73188">
        <ele>276.55569</ele>
        <time>2023-08-05T14:22:29.000Z</time>
      </trkpt>
      <trkpt lat="45.88057" lon="4.73186">
        <ele>275.86493</ele>
        <time>2023-08-05T14:22:30.000Z</time>
      </trkpt>
      <trkpt lat="45.88056" lon="4.73184">
        <ele>275.17328</ele>
        <time>2023-08-05T14:22:32.000Z</time>
      </trkpt>
      <trkpt lat="45.88054" lon="4.73182">
        <ele>272.78342</ele>
        <time>2023-08-05T14:22:34.000Z</time>
      </trkpt>
      <trkpt lat="45.88053" lon="4.7318">
        <ele>272.01199</ele>
        <time>2023-08-05T14:22:36.000Z</time>
      </trkpt>
      <trkpt lat="45.88051" lon="4.73179">
        <ele>269.67447</ele>
        <time>2023-08-05T14:22:44.000Z</time>
      </trkpt>
      <trkpt lat="45.8805" lon="4.73177">
        <ele>269.7818</ele>
        <time>2023-08-05T14:22:52.000Z</time>
      </trkpt>
      <trkpt lat="45.8805" lon="4.73177">
        <ele>269.7818</ele>
        <time>2023-08-05T14:22:52.000Z</time>
      </trkpt>
      <trkpt lat="45.88049" lon="4.73174">
        <ele>267.76996</ele>
        <time>2023-08-05T14:23:22.000Z</time>
      </trkpt>
      <trkpt lat="45.88048" lon="4.73172">
        <ele>265.78079</ele>
        <time>2023-08-05T14:23:24.000Z</time>
      </trkpt>
      <trkpt lat="45.88046" lon="4.7317">
        <ele>263.89584</ele>
        <time>2023-08-05T14:23:32.000Z</time>
      </trkpt>
      <trkpt lat="45.88044" lon="4.73169">
        <ele>262.0585</ele>
        <time>2023-08-05T14:23:33.000Z</time>
      </trkpt>
      <trkpt lat="45.88042" lon="4.73167">
        <ele>260.24921</ele>
        <time>2023-08-05T14:23:34.000Z</time>
      </trkpt>
      <trkpt lat="45.88039" lon="4.73164">
        <ele>260.45563</ele>
        <time>2023-08-05T14:23:35.000Z</time>
      </trkpt>
      <trkpt lat="45.88037" lon="4.73162">
        <ele>258.78793</ele>
        <time>2023-08-05T14:23:36.000Z</time>
      </trkpt>
      <trkpt lat="45.88035" lon="4.7316">
        <ele>257.138</ele>
        <time>2023-08-05T14:23:37.000Z</time>
      </trkpt>
      <trkpt lat="45.88032" lon="4.73157">
        <ele>255.36726</ele>
        <time>2023-08-05T14:23:38.000Z</time>
      </trkpt>
      <trkpt lat="45.8803" lon="4.73154">
        <ele>253.58643</ele>
        <time>2023-08-05T14:23:39.000Z</time>
      </trkpt>
      <trkpt lat="45.88027" lon="4.73152">
        <ele>251.82071</ele>
        <time>2023-08-05T14:23:40.000Z</time>
      </trkpt>
      <trkpt lat="45.88024" lon="4.73149">
        <ele>252.06709</ele>
        <time>2023-08-05T14:23:41.000Z</time>
      </trkpt>
      <trkpt lat="45.88021" lon="4.73146">
        <ele>250.52376</ele>
        <time>2023-08-05T14:23:42.000Z</time>
      </trkpt>
      <trkpt lat="45.88018" lon="4.73143">
        <ele>249.03101</ele>
        <time>2023-08-05T14:23:43.000Z</time>
      </trkpt>
      <trkpt lat="45.88012" lon="4.73142">
        <ele>247.46309</ele>
        <time>2023-08-05T14:23:44.000Z</time>
      </trkpt>
      <trkpt lat="45.88009" lon="4.73144">
        <ele>246.043</ele>
        <time>2023-08-05T14:23:45.000Z</time>
      </trkpt>
      <trkpt lat="45.88006" lon="4.73146">
        <ele>246.28647</ele>
        <time>2023-08-05T14:23:46.000Z</time>
      </trkpt>
      <trkpt lat="45.88003" lon="4.73148">
        <ele>244.96164</ele>
        <time>2023-08-05T14:23:47.000Z</time>
      </trkpt>
      <trkpt lat="45.88" lon="4.73151">
        <ele>245.17696</ele>
        <time>2023-08-05T14:23:48.000Z</time>
      </trkpt>
      <trkpt lat="45.87997" lon="4.73154">
        <ele>245.26001</ele>
        <time>2023-08-05T14:23:49.000Z</time>
      </trkpt>
      <trkpt lat="45.87993" lon="4.73157">
        <ele>248.78117</ele>
        <time>2023-08-05T14:23:50.000Z</time>
      </trkpt>
      <trkpt lat="45.87989" lon="4.7316">
        <ele>249.02393</ele>
        <time>2023-08-05T14:23:51.000Z</time>
      </trkpt>
      <trkpt lat="45.87986" lon="4.73164">
        <ele>249.18742</ele>
        <time>2023-08-05T14:23:52.000Z</time>
      </trkpt>
      <trkpt lat="45.87982" lon="4.73166">
        <ele>249.3356</ele>
        <time>2023-08-05T14:23:53.000Z</time>
      </trkpt>
      <trkpt lat="45.87978" lon="4.73167">
        <ele>249.48909</ele>
        <time>2023-08-05T14:23:54.000Z</time>
      </trkpt>
      <trkpt lat="45.87973" lon="4.73165">
        <ele>249.27876</ele>
        <time>2023-08-05T14:23:55.000Z</time>
      </trkpt>
      <trkpt lat="45.87969" lon="4.73163">
        <ele>249.04854</ele>
        <time>2023-08-05T14:23:56.000Z</time>
      </trkpt>
      <trkpt lat="45.87966" lon="4.73161">
        <ele>248.8306</ele>
        <time>2023-08-05T14:23:57.000Z</time>
      </trkpt>
      <trkpt lat="45.87962" lon="4.73158">
        <ele>248.65266</ele>
        <time>2023-08-05T14:23:58.000Z</time>
      </trkpt>
      <trkpt lat="45.87958" lon="4.73155">
        <ele>248.51372</ele>
        <time>2023-08-05T14:23:59.000Z</time>
      </trkpt>
      <trkpt lat="45.87954" lon="4.73152">
        <ele>248.42197</ele>
        <time>2023-08-05T14:24:00.000Z</time>
      </trkpt>
      <trkpt lat="45.8795" lon="4.73149">
        <ele>248.36243</ele>
        <time>2023-08-05T14:24:01.000Z</time>
      </trkpt>
      <trkpt lat="45.87946" lon="4.73146">
        <ele>248.25957</ele>
        <time>2023-08-05T14:24:02.000Z</time>
      </trkpt>
      <trkpt lat="45.87943" lon="4.73142">
        <ele>248.00327</ele>
        <time>2023-08-05T14:24:03.000Z</time>
      </trkpt>
      <trkpt lat="45.8794" lon="4.73139">
        <ele>247.75308</ele>
        <time>2023-08-05T14:24:04.000Z</time>
      </trkpt>
      <trkpt lat="45.87937" lon="4.73133">
        <ele>247.3779</ele>
        <time>2023-08-05T14:24:05.000Z</time>
      </trkpt>
      <trkpt lat="45.87934" lon="4.73127">
        <ele>247.09409</ele>
        <time>2023-08-05T14:24:06.000Z</time>
      </trkpt>
      <trkpt lat="45.87932" lon="4.73122">
        <ele>246.79497</ele>
        <time>2023-08-05T14:24:07.000Z</time>
      </trkpt>
      <trkpt lat="45.87931" lon="4.73115">
        <ele>246.55347</ele>
        <time>2023-08-05T14:24:08.000Z</time>
      </trkpt>
      <trkpt lat="45.8793" lon="4.73108">
        <ele>246.31255</ele>
        <time>2023-08-05T14:24:09.000Z</time>
      </trkpt>
      <trkpt lat="45.8793" lon="4.73101">
        <ele>242.618</ele>
        <time>2023-08-05T14:24:10.000Z</time>
      </trkpt>
      <trkpt lat="45.87929" lon="4.73094">
        <ele>242.20427</ele>
        <time>2023-08-05T14:24:11.000Z</time>
      </trkpt>
      <trkpt lat="45.87927" lon="4.73088">
        <ele>241.76054</ele>
        <time>2023-08-05T14:24:12.000Z</time>
      </trkpt>
      <trkpt lat="45.87924" lon="4.73082">
        <ele>241.30022</ele>
        <time>2023-08-05T14:24:13.000Z</time>
      </trkpt>
      <trkpt lat="45.87921" lon="4.73078">
        <ele>240.84012</ele>
        <time>2023-08-05T14:24:14.000Z</time>
      </trkpt>
      <trkpt lat="45.87918" lon="4.73074">
        <ele>240.78711</ele>
        <time>2023-08-05T14:24:15.000Z</time>
      </trkpt>
      <trkpt lat="45.87914" lon="4.73069">
        <ele>240.74654</ele>
        <time>2023-08-05T14:24:16.000Z</time>
      </trkpt>
      <trkpt lat="45.87911" lon="4.73064">
        <ele>240.72478</ele>
        <time>2023-08-05T14:24:17.000Z</time>
      </trkpt>
      <trkpt lat="45.87907" lon="4.7306">
        <ele>240.6727</ele>
        <time>2023-08-05T14:24:18.000Z</time>
      </trkpt>
      <trkpt lat="45.87904" lon="4.73055">
        <ele>240.63911</ele>
        <time>2023-08-05T14:24:19.000Z</time>
      </trkpt>
      <trkpt lat="45.87901" lon="4.7305">
        <ele>240.58064</ele>
        <time>2023-08-05T14:24:20.000Z</time>
      </trkpt>
      <trkpt lat="45.87898" lon="4.73044">
        <ele>240.45309</ele>
        <time>2023-08-05T14:24:21.000Z</time>
      </trkpt>
      <trkpt lat="45.87896" lon="4.73039">
        <ele>240.32881</ele>
        <time>2023-08-05T14:24:22.000Z</time>
      </trkpt>
      <trkpt lat="45.87894" lon="4.73034">
        <ele>240.35625</ele>
        <time>2023-08-05T14:24:23.000Z</time>
      </trkpt>
      <trkpt lat="45.87892" lon="4.73028">
        <ele>240.3643</ele>
        <time>2023-08-05T14:24:24.000Z</time>
      </trkpt>
      <trkpt lat="45.8789" lon="4.73024">
        <ele>240.37939</ele>
        <time>2023-08-05T14:24:25.000Z</time>
      </trkpt>
      <trkpt lat="45.87888" lon="4.7302">
        <ele>240.37137</ele>
        <time>2023-08-05T14:24:26.000Z</time>
      </trkpt>
      <trkpt lat="45.87886" lon="4.73019">
        <ele>240.37549</ele>
        <time>2023-08-05T14:24:27.000Z</time>
      </trkpt>
      <trkpt lat="45.87885" lon="4.73017">
        <ele>240.41016</ele>
        <time>2023-08-05T14:24:31.000Z</time>
      </trkpt>
      <trkpt lat="45.87882" lon="4.73016">
        <ele>240.42378</ele>
        <time>2023-08-05T14:24:44.000Z</time>
      </trkpt>
      <trkpt lat="45.8788" lon="4.73015">
        <ele>240.431</ele>
        <time>2023-08-05T14:24:45.000Z</time>
      </trkpt>
      <trkpt lat="45.87878" lon="4.73014">
        <ele>240.44397</ele>
        <time>2023-08-05T14:24:46.000Z</time>
      </trkpt>
      <trkpt lat="45.87875" lon="4.73013">
        <ele>240.47026</ele>
        <time>2023-08-05T14:24:47.000Z</time>
      </trkpt>
      <trkpt lat="45.87873" lon="4.73012">
        <ele>240.51221</ele>
        <time>2023-08-05T14:24:48.000Z</time>
      </trkpt>
      <trkpt lat="45.8787" lon="4.73009">
        <ele>240.52921</ele>
        <time>2023-08-05T14:24:49.000Z</time>
      </trkpt>
      <trkpt lat="45.87867" lon="4.73006">
        <ele>240.52872</ele>
        <time>2023-08-05T14:24:50.000Z</time>
      </trkpt>
      <trkpt lat="45.87865" lon="4.73003">
        <ele>240.54228</ele>
        <time>2023-08-05T14:24:51.000Z</time>
      </trkpt>
      <trkpt lat="45.87862" lon="4.73">
        <ele>240.54214</ele>
        <time>2023-08-05T14:24:52.000Z</time>
      </trkpt>
      <trkpt lat="45.8786" lon="4.72996">
        <ele>240.56656</ele>
        <time>2023-08-05T14:24:53.000Z</time>
      </trkpt>
      <trkpt lat="45.87857" lon="4.72992">
        <ele>240.57117</ele>
        <time>2023-08-05T14:24:54.000Z</time>
      </trkpt>
      <trkpt lat="45.87854" lon="4.72987">
        <ele>240.5717</ele>
        <time>2023-08-05T14:24:55.000Z</time>
      </trkpt>
      <trkpt lat="45.87852" lon="4.72982">
        <ele>240.5939</ele>
        <time>2023-08-05T14:24:56.000Z</time>
      </trkpt>
      <trkpt lat="45.87849" lon="4.72978">
        <ele>240.61801</ele>
        <time>2023-08-05T14:24:57.000Z</time>
      </trkpt>
      <trkpt lat="45.87845" lon="4.72973">
        <ele>240.6333</ele>
        <time>2023-08-05T14:24:58.000Z</time>
      </trkpt>
      <trkpt lat="45.87842" lon="4.72967">
        <ele>240.63228</ele>
        <time>2023-08-05T14:24:59.000Z</time>
      </trkpt>
      <trkpt lat="45.87839" lon="4.72962">
        <ele>240.6425</ele>
        <time>2023-08-05T14:25:00.000Z</time>
      </trkpt>
      <trkpt lat="45.87835" lon="4.72958">
        <ele>240.65947</ele>
        <time>2023-08-05T14:25:01.000Z</time>
      </trkpt>
      <trkpt lat="45.87831" lon="4.72954">
        <ele>240.67734</ele>
        <time>2023-08-05T14:25:02.000Z</time>
      </trkpt>
      <trkpt lat="45.87828" lon="4.72949">
        <ele>240.65881</ele>
        <time>2023-08-05T14:25:03.000Z</time>
      </trkpt>
      <trkpt lat="45.87824" lon="4.72945">
        <ele>240.63069</ele>
        <time>2023-08-05T14:25:04.000Z</time>
      </trkpt>
      <trkpt lat="45.8782" lon="4.7294">
        <ele>240.68913</ele>
        <time>2023-08-05T14:25:05.000Z</time>
      </trkpt>
      <trkpt lat="45.87817" lon="4.72936">
        <ele>240.7187</ele>
        <time>2023-08-05T14:25:06.000Z</time>
      </trkpt>
      <trkpt lat="45.87814" lon="4.72931">
        <ele>240.79671</ele>
        <time>2023-08-05T14:25:07.000Z</time>
      </trkpt>
      <trkpt lat="45.8781" lon="4.72926">
        <ele>240.71001</ele>
        <time>2023-08-05T14:25:08.000Z</time>
      </trkpt>
      <trkpt lat="45.87806" lon="4.72921">
        <ele>240.65036</ele>
        <time>2023-08-05T14:25:09.000Z</time>
      </trkpt>
      <trkpt lat="45.87802" lon="4.72917">
        <ele>240.62662</ele>
        <time>2023-08-05T14:25:10.000Z</time>
      </trkpt>
      <trkpt lat="45.87798" lon="4.72912">
        <ele>240.59077</ele>
        <time>2023-08-05T14:25:11.000Z</time>
      </trkpt>
      <trkpt lat="45.87795" lon="4.72908">
        <ele>240.56509</ele>
        <time>2023-08-05T14:25:12.000Z</time>
      </trkpt>
      <trkpt lat="45.87791" lon="4.72903">
        <ele>240.53345</ele>
        <time>2023-08-05T14:25:13.000Z</time>
      </trkpt>
      <trkpt lat="45.87787" lon="4.72897">
        <ele>240.50211</ele>
        <time>2023-08-05T14:25:14.000Z</time>
      </trkpt>
      <trkpt lat="45.87784" lon="4.72892">
        <ele>240.47617</ele>
        <time>2023-08-05T14:25:15.000Z</time>
      </trkpt>
      <trkpt lat="45.87782" lon="4.72885">
        <ele>240.45865</ele>
        <time>2023-08-05T14:25:16.000Z</time>
      </trkpt>
      <trkpt lat="45.87778" lon="4.7288">
        <ele>240.50772</ele>
        <time>2023-08-05T14:25:17.000Z</time>
      </trkpt>
      <trkpt lat="45.87774" lon="4.72875">
        <ele>240.55444</ele>
        <time>2023-08-05T14:25:18.000Z</time>
      </trkpt>
      <trkpt lat="45.8777" lon="4.72872">
        <ele>240.61319</ele>
        <time>2023-08-05T14:25:19.000Z</time>
      </trkpt>
      <trkpt lat="45.87765" lon="4.7287">
        <ele>240.66585</ele>
        <time>2023-08-05T14:25:20.000Z</time>
      </trkpt>
      <trkpt lat="45.8776" lon="4.72868">
        <ele>240.69917</ele>
        <time>2023-08-05T14:25:21.000Z</time>
      </trkpt>
      <trkpt lat="45.87755" lon="4.72865">
        <ele>240.72214</ele>
        <time>2023-08-05T14:25:22.000Z</time>
      </trkpt>
      <trkpt lat="45.87751" lon="4.72862">
        <ele>240.77023</ele>
        <time>2023-08-05T14:25:23.000Z</time>
      </trkpt>
      <trkpt lat="45.87747" lon="4.72858">
        <ele>240.84958</ele>
        <time>2023-08-05T14:25:24.000Z</time>
      </trkpt>
      <trkpt lat="45.87742" lon="4.72855">
        <ele>240.85139</ele>
        <time>2023-08-05T14:25:25.000Z</time>
      </trkpt>
      <trkpt lat="45.87737" lon="4.72853">
        <ele>240.87643</ele>
        <time>2023-08-05T14:25:26.000Z</time>
      </trkpt>
      <trkpt lat="45.87732" lon="4.72852">
        <ele>240.85464</ele>
        <time>2023-08-05T14:25:27.000Z</time>
      </trkpt>
      <trkpt lat="45.87726" lon="4.72853">
        <ele>240.99326</ele>
        <time>2023-08-05T14:25:28.000Z</time>
      </trkpt>
      <trkpt lat="45.87721" lon="4.72854">
        <ele>241.09958</ele>
        <time>2023-08-05T14:25:29.000Z</time>
      </trkpt>
      <trkpt lat="45.87716" lon="4.72857">
        <ele>241.2023</ele>
        <time>2023-08-05T14:25:30.000Z</time>
      </trkpt>
      <trkpt lat="45.87711" lon="4.7286">
        <ele>241.33081</ele>
        <time>2023-08-05T14:25:31.000Z</time>
      </trkpt>
      <trkpt lat="45.87707" lon="4.72861">
        <ele>241.32959</ele>
        <time>2023-08-05T14:25:32.000Z</time>
      </trkpt>
      <trkpt lat="45.87702" lon="4.72863">
        <ele>241.36703</ele>
        <time>2023-08-05T14:25:33.000Z</time>
      </trkpt>
      <trkpt lat="45.87697" lon="4.72865">
        <ele>241.39693</ele>
        <time>2023-08-05T14:25:34.000Z</time>
      </trkpt>
      <trkpt lat="45.87691" lon="4.72867">
        <ele>241.45015</ele>
        <time>2023-08-05T14:25:35.000Z</time>
      </trkpt>
      <trkpt lat="45.87686" lon="4.7287">
        <ele>241.50667</ele>
        <time>2023-08-05T14:25:36.000Z</time>
      </trkpt>
      <trkpt lat="45.87681" lon="4.72871">
        <ele>241.49728</ele>
        <time>2023-08-05T14:25:37.000Z</time>
      </trkpt>
      <trkpt lat="45.87676" lon="4.72873">
        <ele>241.48381</ele>
        <time>2023-08-05T14:25:38.000Z</time>
      </trkpt>
      <trkpt lat="45.87671" lon="4.72874">
        <ele>241.49316</ele>
        <time>2023-08-05T14:25:39.000Z</time>
      </trkpt>
      <trkpt lat="45.87666" lon="4.72875">
        <ele>241.54802</ele>
        <time>2023-08-05T14:25:40.000Z</time>
      </trkpt>
      <trkpt lat="45.8766" lon="4.72876">
        <ele>241.58676</ele>
        <time>2023-08-05T14:25:41.000Z</time>
      </trkpt>
      <trkpt lat="45.87655" lon="4.72877">
        <ele>241.63022</ele>
        <time>2023-08-05T14:25:42.000Z</time>
      </trkpt>
      <trkpt lat="45.87651" lon="4.72879">
        <ele>241.70512</ele>
        <time>2023-08-05T14:25:43.000Z</time>
      </trkpt>
      <trkpt lat="45.87646" lon="4.72881">
        <ele>241.79245</ele>
        <time>2023-08-05T14:25:44.000Z</time>
      </trkpt>
      <trkpt lat="45.87641" lon="4.72883">
        <ele>241.88806</ele>
        <time>2023-08-05T14:25:45.000Z</time>
      </trkpt>
      <trkpt lat="45.87636" lon="4.72884">
        <ele>241.95792</ele>
        <time>2023-08-05T14:25:46.000Z</time>
      </trkpt>
      <trkpt lat="45.87631" lon="4.72886">
        <ele>242.02068</ele>
        <time>2023-08-05T14:25:47.000Z</time>
      </trkpt>
      <trkpt lat="45.87626" lon="4.72887">
        <ele>242.07382</ele>
        <time>2023-08-05T14:25:48.000Z</time>
      </trkpt>
      <trkpt lat="45.87622" lon="4.72889">
        <ele>242.15454</ele>
        <time>2023-08-05T14:25:49.000Z</time>
      </trkpt>
      <trkpt lat="45.87617" lon="4.7289">
        <ele>242.20505</ele>
        <time>2023-08-05T14:25:50.000Z</time>
      </trkpt>
      <trkpt lat="45.87612" lon="4.72889">
        <ele>242.22482</ele>
        <time>2023-08-05T14:25:51.000Z</time>
      </trkpt>
      <trkpt lat="45.87608" lon="4.72886">
        <ele>242.36661</ele>
        <time>2023-08-05T14:25:52.000Z</time>
      </trkpt>
      <trkpt lat="45.87604" lon="4.72882">
        <ele>242.48299</ele>
        <time>2023-08-05T14:25:53.000Z</time>
      </trkpt>
      <trkpt lat="45.87601" lon="4.72876">
        <ele>242.62723</ele>
        <time>2023-08-05T14:25:54.000Z</time>
      </trkpt>
      <trkpt lat="45.87598" lon="4.72871">
        <ele>242.74654</ele>
        <time>2023-08-05T14:25:55.000Z</time>
      </trkpt>
      <trkpt lat="45.87594" lon="4.72865">
        <ele>242.82462</ele>
        <time>2023-08-05T14:25:56.000Z</time>
      </trkpt>
      <trkpt lat="45.8759" lon="4.72861">
        <ele>242.9126</ele>
        <time>2023-08-05T14:25:57.000Z</time>
      </trkpt>
      <trkpt lat="45.87586" lon="4.72856">
        <ele>243.01425</ele>
        <time>2023-08-05T14:25:58.000Z</time>
      </trkpt>
      <trkpt lat="45.87582" lon="4.72853">
        <ele>243.11096</ele>
        <time>2023-08-05T14:25:59.000Z</time>
      </trkpt>
      <trkpt lat="45.87578" lon="4.72849">
        <ele>243.15532</ele>
        <time>2023-08-05T14:26:00.000Z</time>
      </trkpt>
      <trkpt lat="45.87574" lon="4.72846">
        <ele>243.23132</ele>
        <time>2023-08-05T14:26:01.000Z</time>
      </trkpt>
      <trkpt lat="45.8757" lon="4.72843">
        <ele>243.30261</ele>
        <time>2023-08-05T14:26:02.000Z</time>
      </trkpt>
      <trkpt lat="45.87565" lon="4.72839">
        <ele>243.32722</ele>
        <time>2023-08-05T14:26:03.000Z</time>
      </trkpt>
      <trkpt lat="45.87561" lon="4.72836">
        <ele>243.31741</ele>
        <time>2023-08-05T14:26:04.000Z</time>
      </trkpt>
      <trkpt lat="45.87556" lon="4.72833">
        <ele>243.29929</ele>
        <time>2023-08-05T14:26:05.000Z</time>
      </trkpt>
      <trkpt lat="45.87551" lon="4.7283">
        <ele>243.28569</ele>
        <time>2023-08-05T14:26:06.000Z</time>
      </trkpt>
      <trkpt lat="45.87546" lon="4.72826">
        <ele>243.29764</ele>
        <time>2023-08-05T14:26:07.000Z</time>
      </trkpt>
      <trkpt lat="45.87541" lon="4.72823">
        <ele>243.31775</ele>
        <time>2023-08-05T14:26:08.000Z</time>
      </trkpt>
      <trkpt lat="45.87536" lon="4.7282">
        <ele>243.32242</ele>
        <time>2023-08-05T14:26:09.000Z</time>
      </trkpt>
      <trkpt lat="45.87531" lon="4.72817">
        <ele>243.37036</ele>
        <time>2023-08-05T14:26:10.000Z</time>
      </trkpt>
      <trkpt lat="45.87526" lon="4.72813">
        <ele>243.40756</ele>
        <time>2023-08-05T14:26:11.000Z</time>
      </trkpt>
      <trkpt lat="45.87521" lon="4.72811">
        <ele>243.3353</ele>
        <time>2023-08-05T14:26:12.000Z</time>
      </trkpt>
      <trkpt lat="45.87515" lon="4.72811">
        <ele>243.25729</ele>
        <time>2023-08-05T14:26:13.000Z</time>
      </trkpt>
      <trkpt lat="45.87509" lon="4.72813">
        <ele>243.15894</ele>
        <time>2023-08-05T14:26:14.000Z</time>
      </trkpt>
      <trkpt lat="45.87505" lon="4.72817">
        <ele>243.08269</ele>
        <time>2023-08-05T14:26:15.000Z</time>
      </trkpt>
      <trkpt lat="45.87501" lon="4.72823">
        <ele>243.02621</ele>
        <time>2023-08-05T14:26:16.000Z</time>
      </trkpt>
      <trkpt lat="45.87498" lon="4.72827">
        <ele>242.96199</ele>
        <time>2023-08-05T14:26:17.000Z</time>
      </trkpt>
      <trkpt lat="45.87496" lon="4.72832">
        <ele>242.87248</ele>
        <time>2023-08-05T14:26:18.000Z</time>
      </trkpt>
      <trkpt lat="45.87496" lon="4.72838">
        <ele>242.76665</ele>
        <time>2023-08-05T14:26:19.000Z</time>
      </trkpt>
      <trkpt lat="45.87495" lon="4.72844">
        <ele>242.71469</ele>
        <time>2023-08-05T14:26:20.000Z</time>
      </trkpt>
      <trkpt lat="45.87494" lon="4.7285">
        <ele>242.69096</ele>
        <time>2023-08-05T14:26:21.000Z</time>
      </trkpt>
      <trkpt lat="45.87493" lon="4.72855">
        <ele>242.668</ele>
        <time>2023-08-05T14:26:22.000Z</time>
      </trkpt>
      <trkpt lat="45.87492" lon="4.72861">
        <ele>242.63765</ele>
        <time>2023-08-05T14:26:23.000Z</time>
      </trkpt>
      <trkpt lat="45.8749" lon="4.72865">
        <ele>242.63232</ele>
        <time>2023-08-05T14:26:24.000Z</time>
      </trkpt>
      <trkpt lat="45.87487" lon="4.72869">
        <ele>242.63821</ele>
        <time>2023-08-05T14:26:25.000Z</time>
      </trkpt>
      <trkpt lat="45.87484" lon="4.72873">
        <ele>242.69363</ele>
        <time>2023-08-05T14:26:26.000Z</time>
      </trkpt>
      <trkpt lat="45.8748" lon="4.72876">
        <ele>242.71387</ele>
        <time>2023-08-05T14:26:27.000Z</time>
      </trkpt>
      <trkpt lat="45.87477" lon="4.72878">
        <ele>242.7146</ele>
        <time>2023-08-05T14:26:28.000Z</time>
      </trkpt>
      <trkpt lat="45.87473" lon="4.72881">
        <ele>242.74133</ele>
        <time>2023-08-05T14:26:29.000Z</time>
      </trkpt>
      <trkpt lat="45.87469" lon="4.72882">
        <ele>242.73892</ele>
        <time>2023-08-05T14:26:30.000Z</time>
      </trkpt>
      <trkpt lat="45.87464" lon="4.72881">
        <ele>242.74031</ele>
        <time>2023-08-05T14:26:31.000Z</time>
      </trkpt>
      <trkpt lat="45.8746" lon="4.72877">
        <ele>242.83023</ele>
        <time>2023-08-05T14:26:32.000Z</time>
      </trkpt>
      <trkpt lat="45.87457" lon="4.72871">
        <ele>242.90512</ele>
        <time>2023-08-05T14:26:33.000Z</time>
      </trkpt>
      <trkpt lat="45.87455" lon="4.72864">
        <ele>242.96907</ele>
        <time>2023-08-05T14:26:34.000Z</time>
      </trkpt>
      <trkpt lat="45.87452" lon="4.72858">
        <ele>242.99675</ele>
        <time>2023-08-05T14:26:35.000Z</time>
      </trkpt>
      <trkpt lat="45.87449" lon="4.72851">
        <ele>243.04126</ele>
        <time>2023-08-05T14:26:36.000Z</time>
      </trkpt>
      <trkpt lat="45.87447" lon="4.72844">
        <ele>243.08989</ele>
        <time>2023-08-05T14:26:37.000Z</time>
      </trkpt>
      <trkpt lat="45.87444" lon="4.72837">
        <ele>243.1667</ele>
        <time>2023-08-05T14:26:38.000Z</time>
      </trkpt>
      <trkpt lat="45.87441" lon="4.7283">
        <ele>243.2625</ele>
        <time>2023-08-05T14:26:39.000Z</time>
      </trkpt>
      <trkpt lat="45.87438" lon="4.72823">
        <ele>243.31689</ele>
        <time>2023-08-05T14:26:40.000Z</time>
      </trkpt>
      <trkpt lat="45.87435" lon="4.72816">
        <ele>243.35156</ele>
        <time>2023-08-05T14:26:41.000Z</time>
      </trkpt>
      <trkpt lat="45.87432" lon="4.72809">
        <ele>243.38892</ele>
        <time>2023-08-05T14:26:42.000Z</time>
      </trkpt>
      <trkpt lat="45.87428" lon="4.72802">
        <ele>243.293</ele>
        <time>2023-08-05T14:26:43.000Z</time>
      </trkpt>
      <trkpt lat="45.87426" lon="4.72795">
        <ele>243.20389</ele>
        <time>2023-08-05T14:26:44.000Z</time>
      </trkpt>
      <trkpt lat="45.87423" lon="4.72788">
        <ele>243.04648</ele>
        <time>2023-08-05T14:26:45.000Z</time>
      </trkpt>
      <trkpt lat="45.87419" lon="4.72781">
        <ele>242.8477</ele>
        <time>2023-08-05T14:26:46.000Z</time>
      </trkpt>
      <trkpt lat="45.87416" lon="4.72774">
        <ele>242.66255</ele>
        <time>2023-08-05T14:26:47.000Z</time>
      </trkpt>
      <trkpt lat="45.87413" lon="4.72768">
        <ele>242.65373</ele>
        <time>2023-08-05T14:26:48.000Z</time>
      </trkpt>
      <trkpt lat="45.8741" lon="4.72761">
        <ele>242.62097</ele>
        <time>2023-08-05T14:26:49.000Z</time>
      </trkpt>
      <trkpt lat="45.87407" lon="4.72754">
        <ele>242.58049</ele>
        <time>2023-08-05T14:26:50.000Z</time>
      </trkpt>
      <trkpt lat="45.87403" lon="4.72748">
        <ele>242.53894</ele>
        <time>2023-08-05T14:26:51.000Z</time>
      </trkpt>
      <trkpt lat="45.87399" lon="4.72743">
        <ele>242.34724</ele>
        <time>2023-08-05T14:26:52.000Z</time>
      </trkpt>
      <trkpt lat="45.87394" lon="4.72739">
        <ele>242.15166</ele>
        <time>2023-08-05T14:26:53.000Z</time>
      </trkpt>
      <trkpt lat="45.87389" lon="4.72736">
        <ele>241.97563</ele>
        <time>2023-08-05T14:26:54.000Z</time>
      </trkpt>
      <trkpt lat="45.87383" lon="4.72735">
        <ele>241.806</ele>
        <time>2023-08-05T14:26:55.000Z</time>
      </trkpt>
      <trkpt lat="45.87377" lon="4.72735">
        <ele>241.64102</ele>
        <time>2023-08-05T14:26:56.000Z</time>
      </trkpt>
      <trkpt lat="45.87372" lon="4.72735">
        <ele>241.6403</ele>
        <time>2023-08-05T14:26:57.000Z</time>
      </trkpt>
      <trkpt lat="45.87366" lon="4.72737">
        <ele>241.62065</ele>
        <time>2023-08-05T14:26:58.000Z</time>
      </trkpt>
      <trkpt lat="45.8736" lon="4.72739">
        <ele>241.5889</ele>
        <time>2023-08-05T14:26:59.000Z</time>
      </trkpt>
      <trkpt lat="45.87355" lon="4.72742">
        <ele>241.55974</ele>
        <time>2023-08-05T14:27:00.000Z</time>
      </trkpt>
      <trkpt lat="45.8735" lon="4.72745">
        <ele>241.54477</ele>
        <time>2023-08-05T14:27:01.000Z</time>
      </trkpt>
      <trkpt lat="45.87344" lon="4.72746">
        <ele>241.50803</ele>
        <time>2023-08-05T14:27:02.000Z</time>
      </trkpt>
      <trkpt lat="45.87339" lon="4.72747">
        <ele>241.62154</ele>
        <time>2023-08-05T14:27:03.000Z</time>
      </trkpt>
      <trkpt lat="45.87333" lon="4.72748">
        <ele>241.71585</ele>
        <time>2023-08-05T14:27:04.000Z</time>
      </trkpt>
      <trkpt lat="45.87327" lon="4.72749">
        <ele>241.93021</ele>
        <time>2023-08-05T14:27:05.000Z</time>
      </trkpt>
      <trkpt lat="45.87322" lon="4.72751">
        <ele>242.15292</ele>
        <time>2023-08-05T14:27:06.000Z</time>
      </trkpt>
      <trkpt lat="45.87316" lon="4.72752">
        <ele>242.43015</ele>
        <time>2023-08-05T14:27:07.000Z</time>
      </trkpt>
      <trkpt lat="45.87311" lon="4.72753">
        <ele>242.56502</ele>
        <time>2023-08-05T14:27:08.000Z</time>
      </trkpt>
      <trkpt lat="45.87305" lon="4.72755">
        <ele>242.70554</ele>
        <time>2023-08-05T14:27:09.000Z</time>
      </trkpt>
      <trkpt lat="45.87301" lon="4.72756">
        <ele>242.78972</ele>
        <time>2023-08-05T14:27:10.000Z</time>
      </trkpt>
      <trkpt lat="45.87297" lon="4.72756">
        <ele>242.91252</ele>
        <time>2023-08-05T14:27:11.000Z</time>
      </trkpt>
      <trkpt lat="45.87292" lon="4.72756">
        <ele>243.1647</ele>
        <time>2023-08-05T14:27:12.000Z</time>
      </trkpt>
      <trkpt lat="45.87288" lon="4.72755">
        <ele>243.44113</ele>
        <time>2023-08-05T14:27:13.000Z</time>
      </trkpt>
      <trkpt lat="45.87284" lon="4.72753">
        <ele>243.7103</ele>
        <time>2023-08-05T14:27:14.000Z</time>
      </trkpt>
      <trkpt lat="45.8728" lon="4.7275">
        <ele>243.99004</ele>
        <time>2023-08-05T14:27:15.000Z</time>
      </trkpt>
      <trkpt lat="45.87276" lon="4.7275">
        <ele>244.24771</ele>
        <time>2023-08-05T14:27:16.000Z</time>
      </trkpt>
      <trkpt lat="45.87273" lon="4.72747">
        <ele>244.33321</ele>
        <time>2023-08-05T14:27:17.000Z</time>
      </trkpt>
      <trkpt lat="45.87269" lon="4.72745">
        <ele>244.43262</ele>
        <time>2023-08-05T14:27:18.000Z</time>
      </trkpt>
      <trkpt lat="45.87265" lon="4.72742">
        <ele>244.52148</ele>
        <time>2023-08-05T14:27:19.000Z</time>
      </trkpt>
      <trkpt lat="45.87261" lon="4.72741">
        <ele>244.64583</ele>
        <time>2023-08-05T14:27:20.000Z</time>
      </trkpt>
      <trkpt lat="45.87256" lon="4.72739">
        <ele>244.77119</ele>
        <time>2023-08-05T14:27:21.000Z</time>
      </trkpt>
      <trkpt lat="45.87252" lon="4.72737">
        <ele>244.91145</ele>
        <time>2023-08-05T14:27:22.000Z</time>
      </trkpt>
      <trkpt lat="45.87248" lon="4.72734">
        <ele>245.03784</ele>
        <time>2023-08-05T14:27:23.000Z</time>
      </trkpt>
      <trkpt lat="45.87244" lon="4.72733">
        <ele>245.18208</ele>
        <time>2023-08-05T14:27:24.000Z</time>
      </trkpt>
      <trkpt lat="45.87239" lon="4.72731">
        <ele>245.28946</ele>
        <time>2023-08-05T14:27:25.000Z</time>
      </trkpt>
      <trkpt lat="45.87235" lon="4.7273">
        <ele>245.42464</ele>
        <time>2023-08-05T14:27:26.000Z</time>
      </trkpt>
      <trkpt lat="45.8723" lon="4.72728">
        <ele>245.52478</ele>
        <time>2023-08-05T14:27:27.000Z</time>
      </trkpt>
      <trkpt lat="45.87226" lon="4.72727">
        <ele>245.62988</ele>
        <time>2023-08-05T14:27:28.000Z</time>
      </trkpt>
      <trkpt lat="45.87221" lon="4.72725">
        <ele>245.7355</ele>
        <time>2023-08-05T14:27:29.000Z</time>
      </trkpt>
      <trkpt lat="45.87217" lon="4.72723">
        <ele>245.89494</ele>
        <time>2023-08-05T14:27:30.000Z</time>
      </trkpt>
      <trkpt lat="45.87212" lon="4.72722">
        <ele>246.06812</ele>
        <time>2023-08-05T14:27:31.000Z</time>
      </trkpt>
      <trkpt lat="45.87208" lon="4.72721">
        <ele>246.18332</ele>
        <time>2023-08-05T14:27:32.000Z</time>
      </trkpt>
      <trkpt lat="45.87203" lon="4.72718">
        <ele>246.32283</ele>
        <time>2023-08-05T14:27:33.000Z</time>
      </trkpt>
      <trkpt lat="45.87199" lon="4.72716">
        <ele>246.48747</ele>
        <time>2023-08-05T14:27:34.000Z</time>
      </trkpt>
      <trkpt lat="45.87195" lon="4.72714">
        <ele>246.64151</ele>
        <time>2023-08-05T14:27:35.000Z</time>
      </trkpt>
      <trkpt lat="45.87191" lon="4.72711">
        <ele>246.79976</ele>
        <time>2023-08-05T14:27:36.000Z</time>
      </trkpt>
      <trkpt lat="45.87188" lon="4.72716">
        <ele>246.99373</ele>
        <time>2023-08-05T14:27:37.000Z</time>
      </trkpt>
      <trkpt lat="45.87185" lon="4.7272">
        <ele>247.22673</ele>
        <time>2023-08-05T14:27:38.000Z</time>
      </trkpt>
      <trkpt lat="45.87183" lon="4.7272">
        <ele>247.51656</ele>
        <time>2023-08-05T14:27:39.000Z</time>
      </trkpt>
      <trkpt lat="45.87181" lon="4.72715">
        <ele>247.78059</ele>
        <time>2023-08-05T14:27:40.000Z</time>
      </trkpt>
      <trkpt lat="45.8718" lon="4.7271">
        <ele>248.02312</ele>
        <time>2023-08-05T14:27:41.000Z</time>
      </trkpt>
      <trkpt lat="45.8718" lon="4.72704">
        <ele>248.27739</ele>
        <time>2023-08-05T14:27:42.000Z</time>
      </trkpt>
      <trkpt lat="45.87181" lon="4.72697">
        <ele>248.5433</ele>
        <time>2023-08-05T14:27:43.000Z</time>
      </trkpt>
      <trkpt lat="45.87183" lon="4.72691">
        <ele>248.77127</ele>
        <time>2023-08-05T14:27:44.000Z</time>
      </trkpt>
      <trkpt lat="45.87185" lon="4.72685">
        <ele>248.95639</ele>
        <time>2023-08-05T14:27:45.000Z</time>
      </trkpt>
      <trkpt lat="45.87186" lon="4.72678">
        <ele>249.10168</ele>
        <time>2023-08-05T14:27:46.000Z</time>
      </trkpt>
      <trkpt lat="45.87188" lon="4.72671">
        <ele>249.2449</ele>
        <time>2023-08-05T14:27:47.000Z</time>
      </trkpt>
      <trkpt lat="45.8719" lon="4.72663">
        <ele>249.36575</ele>
        <time>2023-08-05T14:27:48.000Z</time>
      </trkpt>
      <trkpt lat="45.87192" lon="4.72656">
        <ele>249.455</ele>
        <time>2023-08-05T14:27:49.000Z</time>
      </trkpt>
      <trkpt lat="45.87193" lon="4.72649">
        <ele>249.55074</ele>
        <time>2023-08-05T14:27:50.000Z</time>
      </trkpt>
      <trkpt lat="45.87195" lon="4.72642">
        <ele>249.59419</ele>
        <time>2023-08-05T14:27:51.000Z</time>
      </trkpt>
      <trkpt lat="45.87198" lon="4.72636">
        <ele>249.75186</ele>
        <time>2023-08-05T14:27:52.000Z</time>
      </trkpt>
      <trkpt lat="45.87202" lon="4.72631">
        <ele>249.70622</ele>
        <time>2023-08-05T14:27:53.000Z</time>
      </trkpt>
      <trkpt lat="45.87206" lon="4.72625">
        <ele>249.59604</ele>
        <time>2023-08-05T14:27:54.000Z</time>
      </trkpt>
      <trkpt lat="45.87209" lon="4.72619">
        <ele>249.48184</ele>
        <time>2023-08-05T14:27:55.000Z</time>
      </trkpt>
      <trkpt lat="45.87212" lon="4.72614">
        <ele>249.38155</ele>
        <time>2023-08-05T14:27:56.000Z</time>
      </trkpt>
      <trkpt lat="45.87216" lon="4.72605">
        <ele>249.24002</ele>
        <time>2023-08-05T14:27:57.000Z</time>
      </trkpt>
      <trkpt lat="45.8722" lon="4.72597">
        <ele>249.02693</ele>
        <time>2023-08-05T14:27:58.000Z</time>
      </trkpt>
      <trkpt lat="45.87224" lon="4.72588">
        <ele>248.73308</ele>
        <time>2023-08-05T14:27:59.000Z</time>
      </trkpt>
      <trkpt lat="45.87228" lon="4.72578">
        <ele>248.39546</ele>
        <time>2023-08-05T14:28:00.000Z</time>
      </trkpt>
      <trkpt lat="45.87233" lon="4.72568">
        <ele>248.02136</ele>
        <time>2023-08-05T14:28:01.000Z</time>
      </trkpt>
      <trkpt lat="45.87237" lon="4.72558">
        <ele>247.61874</ele>
        <time>2023-08-05T14:28:02.000Z</time>
      </trkpt>
      <trkpt lat="45.87242" lon="4.72549">
        <ele>247.20732</ele>
        <time>2023-08-05T14:28:03.000Z</time>
      </trkpt>
      <trkpt lat="45.87247" lon="4.72541">
        <ele>246.81088</ele>
        <time>2023-08-05T14:28:04.000Z</time>
      </trkpt>
      <trkpt lat="45.87252" lon="4.72532">
        <ele>246.44278</ele>
        <time>2023-08-05T14:28:05.000Z</time>
      </trkpt>
      <trkpt lat="45.87256" lon="4.72522">
        <ele>246.0524</ele>
        <time>2023-08-05T14:28:06.000Z</time>
      </trkpt>
      <trkpt lat="45.8726" lon="4.72513">
        <ele>245.64839</ele>
        <time>2023-08-05T14:28:07.000Z</time>
      </trkpt>
      <trkpt lat="45.87264" lon="4.72505">
        <ele>245.24702</ele>
        <time>2023-08-05T14:28:08.000Z</time>
      </trkpt>
      <trkpt lat="45.87267" lon="4.72497">
        <ele>244.88806</ele>
        <time>2023-08-05T14:28:09.000Z</time>
      </trkpt>
      <trkpt lat="45.87271" lon="4.72489">
        <ele>244.51335</ele>
        <time>2023-08-05T14:28:10.000Z</time>
      </trkpt>
      <trkpt lat="45.87275" lon="4.72482">
        <ele>244.13716</ele>
        <time>2023-08-05T14:28:11.000Z</time>
      </trkpt>
      <trkpt lat="45.87278" lon="4.72474">
        <ele>243.71248</ele>
        <time>2023-08-05T14:28:12.000Z</time>
      </trkpt>
      <trkpt lat="45.87282" lon="4.72468">
        <ele>243.49011</ele>
        <time>2023-08-05T14:28:13.000Z</time>
      </trkpt>
      <trkpt lat="45.87285" lon="4.72462">
        <ele>243.2919</ele>
        <time>2023-08-05T14:28:14.000Z</time>
      </trkpt>
      <trkpt lat="45.87288" lon="4.72455">
        <ele>243.0699</ele>
        <time>2023-08-05T14:28:15.000Z</time>
      </trkpt>
      <trkpt lat="45.87291" lon="4.72448">
        <ele>242.83345</ele>
        <time>2023-08-05T14:28:16.000Z</time>
      </trkpt>
      <trkpt lat="45.87295" lon="4.72441">
        <ele>242.59756</ele>
        <time>2023-08-05T14:28:17.000Z</time>
      </trkpt>
      <trkpt lat="45.87298" lon="4.72433">
        <ele>242.39983</ele>
        <time>2023-08-05T14:28:18.000Z</time>
      </trkpt>
      <trkpt lat="45.87301" lon="4.72426">
        <ele>242.23447</ele>
        <time>2023-08-05T14:28:19.000Z</time>
      </trkpt>
      <trkpt lat="45.87304" lon="4.72418">
        <ele>242.08098</ele>
        <time>2023-08-05T14:28:20.000Z</time>
      </trkpt>
      <trkpt lat="45.87308" lon="4.7241">
        <ele>241.95528</ele>
        <time>2023-08-05T14:28:21.000Z</time>
      </trkpt>
      <trkpt lat="45.87311" lon="4.72403">
        <ele>241.85429</ele>
        <time>2023-08-05T14:28:22.000Z</time>
      </trkpt>
      <trkpt lat="45.87314" lon="4.72395">
        <ele>241.75284</ele>
        <time>2023-08-05T14:28:23.000Z</time>
      </trkpt>
      <trkpt lat="45.87317" lon="4.72388">
        <ele>241.65601</ele>
        <time>2023-08-05T14:28:24.000Z</time>
      </trkpt>
      <trkpt lat="45.87321" lon="4.7238">
        <ele>241.55762</ele>
        <time>2023-08-05T14:28:25.000Z</time>
      </trkpt>
      <trkpt lat="45.87324" lon="4.72373">
        <ele>241.46753</ele>
        <time>2023-08-05T14:28:26.000Z</time>
      </trkpt>
      <trkpt lat="45.87328" lon="4.72366">
        <ele>241.38542</ele>
        <time>2023-08-05T14:28:27.000Z</time>
      </trkpt>
      <trkpt lat="45.87331" lon="4.72359">
        <ele>241.30899</ele>
        <time>2023-08-05T14:28:28.000Z</time>
      </trkpt>
      <trkpt lat="45.87334" lon="4.72352">
        <ele>241.24223</ele>
        <time>2023-08-05T14:28:29.000Z</time>
      </trkpt>
      <trkpt lat="45.87337" lon="4.72346">
        <ele>241.16577</ele>
        <time>2023-08-05T14:28:30.000Z</time>
      </trkpt>
      <trkpt lat="45.87339" lon="4.72339">
        <ele>241.2415</ele>
        <time>2023-08-05T14:28:31.000Z</time>
      </trkpt>
      <trkpt lat="45.87343" lon="4.72333">
        <ele>241.43924</ele>
        <time>2023-08-05T14:28:32.000Z</time>
      </trkpt>
      <trkpt lat="45.87345" lon="4.72326">
        <ele>241.60413</ele>
        <time>2023-08-05T14:28:33.000Z</time>
      </trkpt>
      <trkpt lat="45.87347" lon="4.7232">
        <ele>241.78635</ele>
        <time>2023-08-05T14:28:34.000Z</time>
      </trkpt>
      <trkpt lat="45.87349" lon="4.72315">
        <ele>242.0061</ele>
        <time>2023-08-05T14:28:35.000Z</time>
      </trkpt>
      <trkpt lat="45.87352" lon="4.72309">
        <ele>242.21371</ele>
        <time>2023-08-05T14:28:36.000Z</time>
      </trkpt>
      <trkpt lat="45.87354" lon="4.72304">
        <ele>242.43445</ele>
        <time>2023-08-05T14:28:37.000Z</time>
      </trkpt>
      <trkpt lat="45.87356" lon="4.723">
        <ele>242.65463</ele>
        <time>2023-08-05T14:28:38.000Z</time>
      </trkpt>
      <trkpt lat="45.87358" lon="4.72296">
        <ele>242.8752</ele>
        <time>2023-08-05T14:28:39.000Z</time>
      </trkpt>
      <trkpt lat="45.8736" lon="4.72291">
        <ele>243.11426</ele>
        <time>2023-08-05T14:28:40.000Z</time>
      </trkpt>
      <trkpt lat="45.87362" lon="4.72287">
        <ele>243.34888</ele>
        <time>2023-08-05T14:28:41.000Z</time>
      </trkpt>
      <trkpt lat="45.87364" lon="4.72284">
        <ele>243.60205</ele>
        <time>2023-08-05T14:28:42.000Z</time>
      </trkpt>
      <trkpt lat="45.87367" lon="4.72282">
        <ele>243.86218</ele>
        <time>2023-08-05T14:28:43.000Z</time>
      </trkpt>
      <trkpt lat="45.8737" lon="4.72281">
        <ele>244.13443</ele>
        <time>2023-08-05T14:28:44.000Z</time>
      </trkpt>
      <trkpt lat="45.87372" lon="4.72279">
        <ele>244.39853</ele>
        <time>2023-08-05T14:28:45.000Z</time>
      </trkpt>
      <trkpt lat="45.87374" lon="4.72276">
        <ele>244.67209</ele>
        <time>2023-08-05T14:28:46.000Z</time>
      </trkpt>
      <trkpt lat="45.87373" lon="4.72273">
        <ele>244.96956</ele>
        <time>2023-08-05T14:28:47.000Z</time>
      </trkpt>
      <trkpt lat="45.87372" lon="4.72271">
        <ele>245.25179</ele>
        <time>2023-08-05T14:28:48.000Z</time>
      </trkpt>
      <trkpt lat="45.87371" lon="4.72269">
        <ele>245.4426</ele>
        <time>2023-08-05T14:28:49.000Z</time>
      </trkpt>
      <trkpt lat="45.87369" lon="4.72268">
        <ele>245.64546</ele>
        <time>2023-08-05T14:28:50.000Z</time>
      </trkpt>
      <trkpt lat="45.87366" lon="4.72269">
        <ele>245.69385</ele>
        <time>2023-08-05T14:28:51.000Z</time>
      </trkpt>
      <trkpt lat="45.87364" lon="4.72273">
        <ele>245.65866</ele>
        <time>2023-08-05T14:28:52.000Z</time>
      </trkpt>
      <trkpt lat="45.87362" lon="4.72278">
        <ele>245.62708</ele>
        <time>2023-08-05T14:28:53.000Z</time>
      </trkpt>
      <trkpt lat="45.8736" lon="4.72283">
        <ele>245.59958</ele>
        <time>2023-08-05T14:28:54.000Z</time>
      </trkpt>
      <trkpt lat="45.87358" lon="4.72288">
        <ele>245.54886</ele>
        <time>2023-08-05T14:28:55.000Z</time>
      </trkpt>
      <trkpt lat="45.87357" lon="4.72293">
        <ele>245.50449</ele>
        <time>2023-08-05T14:28:56.000Z</time>
      </trkpt>
      <trkpt lat="45.87354" lon="4.72298">
        <ele>245.44022</ele>
        <time>2023-08-05T14:28:57.000Z</time>
      </trkpt>
      <trkpt lat="45.87353" lon="4.72302">
        <ele>245.37288</ele>
        <time>2023-08-05T14:28:58.000Z</time>
      </trkpt>
      <trkpt lat="45.87351" lon="4.72307">
        <ele>245.31926</ele>
        <time>2023-08-05T14:28:59.000Z</time>
      </trkpt>
      <trkpt lat="45.87349" lon="4.72311">
        <ele>245.27002</ele>
        <time>2023-08-05T14:29:00.000Z</time>
      </trkpt>
      <trkpt lat="45.87347" lon="4.72316">
        <ele>245.23091</ele>
        <time>2023-08-05T14:29:01.000Z</time>
      </trkpt>
      <trkpt lat="45.87345" lon="4.7232">
        <ele>245.15707</ele>
        <time>2023-08-05T14:29:02.000Z</time>
      </trkpt>
      <trkpt lat="45.87344" lon="4.72323">
        <ele>245.07002</ele>
        <time>2023-08-05T14:29:03.000Z</time>
      </trkpt>
      <trkpt lat="45.87342" lon="4.72327">
        <ele>244.96101</ele>
        <time>2023-08-05T14:29:04.000Z</time>
      </trkpt>
      <trkpt lat="45.8734" lon="4.72331">
        <ele>244.827</ele>
        <time>2023-08-05T14:29:05.000Z</time>
      </trkpt>
      <trkpt lat="45.87337" lon="4.72336">
        <ele>244.69254</ele>
        <time>2023-08-05T14:29:06.000Z</time>
      </trkpt>
      <trkpt lat="45.87335" lon="4.7234">
        <ele>244.53177</ele>
        <time>2023-08-05T14:29:07.000Z</time>
      </trkpt>
      <trkpt lat="45.87333" lon="4.72345">
        <ele>244.36589</ele>
        <time>2023-08-05T14:29:08.000Z</time>
      </trkpt>
      <trkpt lat="45.87331" lon="4.7235">
        <ele>244.30313</ele>
        <time>2023-08-05T14:29:09.000Z</time>
      </trkpt>
      <trkpt lat="45.87329" lon="4.72354">
        <ele>244.22351</ele>
        <time>2023-08-05T14:29:10.000Z</time>
      </trkpt>
      <trkpt lat="45.87327" lon="4.72357">
        <ele>244.14844</ele>
        <time>2023-08-05T14:29:11.000Z</time>
      </trkpt>
      <trkpt lat="45.87324" lon="4.72358">
        <ele>244.06845</ele>
        <time>2023-08-05T14:29:12.000Z</time>
      </trkpt>
      <trkpt lat="45.87321" lon="4.72354">
        <ele>243.81259</ele>
        <time>2023-08-05T14:29:13.000Z</time>
      </trkpt>
      <trkpt lat="45.87322" lon="4.72344">
        <ele>243.56021</ele>
        <time>2023-08-05T14:29:14.000Z</time>
      </trkpt>
      <trkpt lat="45.8732" lon="4.72338">
        <ele>243.32446</ele>
        <time>2023-08-05T14:29:15.000Z</time>
      </trkpt>
      <trkpt lat="45.87318" lon="4.72332">
        <ele>243.10515</ele>
        <time>2023-08-05T14:29:16.000Z</time>
      </trkpt>
      <trkpt lat="45.87317" lon="4.72326">
        <ele>242.9025</ele>
        <time>2023-08-05T14:29:17.000Z</time>
      </trkpt>
      <trkpt lat="45.87315" lon="4.72321">
        <ele>242.6918</ele>
        <time>2023-08-05T14:29:18.000Z</time>
      </trkpt>
      <trkpt lat="45.87314" lon="4.72315">
        <ele>242.45158</ele>
        <time>2023-08-05T14:29:19.000Z</time>
      </trkpt>
      <trkpt lat="45.87313" lon="4.72308">
        <ele>242.21423</ele>
        <time>2023-08-05T14:29:20.000Z</time>
      </trkpt>
      <trkpt lat="45.87312" lon="4.72301">
        <ele>241.97815</ele>
        <time>2023-08-05T14:29:21.000Z</time>
      </trkpt>
      <trkpt lat="45.8731" lon="4.72295">
        <ele>241.74692</ele>
        <time>2023-08-05T14:29:22.000Z</time>
      </trkpt>
      <trkpt lat="45.87308" lon="4.72288">
        <ele>241.52319</ele>
        <time>2023-08-05T14:29:23.000Z</time>
      </trkpt>
      <trkpt lat="45.87307" lon="4.72281">
        <ele>241.27661</ele>
        <time>2023-08-05T14:29:24.000Z</time>
      </trkpt>
      <trkpt lat="45.87306" lon="4.72275">
        <ele>241.04678</ele>
        <time>2023-08-05T14:29:25.000Z</time>
      </trkpt>
      <trkpt lat="45.87304" lon="4.72268">
        <ele>240.82825</ele>
        <time>2023-08-05T14:29:26.000Z</time>
      </trkpt>
      <trkpt lat="45.87302" lon="4.72261">
        <ele>240.60135</ele>
        <time>2023-08-05T14:29:27.000Z</time>
      </trkpt>
      <trkpt lat="45.87299" lon="4.72255">
        <ele>240.36133</ele>
        <time>2023-08-05T14:29:28.000Z</time>
      </trkpt>
      <trkpt lat="45.87296" lon="4.72248">
        <ele>240.07808</ele>
        <time>2023-08-05T14:29:29.000Z</time>
      </trkpt>
      <trkpt lat="45.87293" lon="4.72242">
        <ele>239.82393</ele>
        <time>2023-08-05T14:29:30.000Z</time>
      </trkpt>
      <trkpt lat="45.87289" lon="4.72235">
        <ele>239.58505</ele>
        <time>2023-08-05T14:29:31.000Z</time>
      </trkpt>
      <trkpt lat="45.87285" lon="4.7223">
        <ele>239.36133</ele>
        <time>2023-08-05T14:29:32.000Z</time>
      </trkpt>
      <trkpt lat="45.87282" lon="4.72223">
        <ele>239.31418</ele>
        <time>2023-08-05T14:29:33.000Z</time>
      </trkpt>
      <trkpt lat="45.87279" lon="4.72217">
        <ele>239.25864</ele>
        <time>2023-08-05T14:29:34.000Z</time>
      </trkpt>
      <trkpt lat="45.87276" lon="4.72211">
        <ele>239.23518</ele>
        <time>2023-08-05T14:29:35.000Z</time>
      </trkpt>
      <trkpt lat="45.87274" lon="4.72206">
        <ele>239.21236</ele>
        <time>2023-08-05T14:29:36.000Z</time>
      </trkpt>
      <trkpt lat="45.87271" lon="4.72199">
        <ele>239.19766</ele>
        <time>2023-08-05T14:29:37.000Z</time>
      </trkpt>
      <trkpt lat="45.8727" lon="4.72192">
        <ele>239.19316</ele>
        <time>2023-08-05T14:29:38.000Z</time>
      </trkpt>
      <trkpt lat="45.87267" lon="4.72185">
        <ele>239.20871</ele>
        <time>2023-08-05T14:29:39.000Z</time>
      </trkpt>
      <trkpt lat="45.87265" lon="4.72178">
        <ele>239.22083</ele>
        <time>2023-08-05T14:29:40.000Z</time>
      </trkpt>
      <trkpt lat="45.87263" lon="4.72172">
        <ele>239.22964</ele>
        <time>2023-08-05T14:29:41.000Z</time>
      </trkpt>
      <trkpt lat="45.87261" lon="4.72165">
        <ele>239.24979</ele>
        <time>2023-08-05T14:29:42.000Z</time>
      </trkpt>
      <trkpt lat="45.87259" lon="4.72158">
        <ele>239.28535</ele>
        <time>2023-08-05T14:29:43.000Z</time>
      </trkpt>
      <trkpt lat="45.87257" lon="4.72151">
        <ele>239.34541</ele>
        <time>2023-08-05T14:29:44.000Z</time>
      </trkpt>
      <trkpt lat="45.87255" lon="4.72144">
        <ele>239.4216</ele>
        <time>2023-08-05T14:29:45.000Z</time>
      </trkpt>
      <trkpt lat="45.87252" lon="4.72137">
        <ele>239.4915</ele>
        <time>2023-08-05T14:29:46.000Z</time>
      </trkpt>
      <trkpt lat="45.8725" lon="4.7213">
        <ele>239.56929</ele>
        <time>2023-08-05T14:29:47.000Z</time>
      </trkpt>
      <trkpt lat="45.87247" lon="4.72124">
        <ele>239.68135</ele>
        <time>2023-08-05T14:29:48.000Z</time>
      </trkpt>
      <trkpt lat="45.87245" lon="4.72117">
        <ele>239.79985</ele>
        <time>2023-08-05T14:29:49.000Z</time>
      </trkpt>
      <trkpt lat="45.87242" lon="4.7211">
        <ele>239.89078</ele>
        <time>2023-08-05T14:29:50.000Z</time>
      </trkpt>
      <trkpt lat="45.87238" lon="4.72105">
        <ele>239.98129</ele>
        <time>2023-08-05T14:29:51.000Z</time>
      </trkpt>
      <trkpt lat="45.87235" lon="4.72098">
        <ele>240.05869</ele>
        <time>2023-08-05T14:29:52.000Z</time>
      </trkpt>
      <trkpt lat="45.87231" lon="4.72091">
        <ele>240.10893</ele>
        <time>2023-08-05T14:29:53.000Z</time>
      </trkpt>
      <trkpt lat="45.87228" lon="4.72085">
        <ele>240.15356</ele>
        <time>2023-08-05T14:29:54.000Z</time>
      </trkpt>
      <trkpt lat="45.87224" lon="4.72078">
        <ele>240.13225</ele>
        <time>2023-08-05T14:29:55.000Z</time>
      </trkpt>
      <trkpt lat="45.87221" lon="4.72072">
        <ele>240.09158</ele>
        <time>2023-08-05T14:29:56.000Z</time>
      </trkpt>
      <trkpt lat="45.87217" lon="4.72066">
        <ele>240.03935</ele>
        <time>2023-08-05T14:29:57.000Z</time>
      </trkpt>
      <trkpt lat="45.87213" lon="4.72061">
        <ele>239.98892</ele>
        <time>2023-08-05T14:29:58.000Z</time>
      </trkpt>
      <trkpt lat="45.87208" lon="4.72058">
        <ele>239.92802</ele>
        <time>2023-08-05T14:29:59.000Z</time>
      </trkpt>
      <trkpt lat="45.87204" lon="4.72055">
        <ele>239.88237</ele>
        <time>2023-08-05T14:30:00.000Z</time>
      </trkpt>
      <trkpt lat="45.87198" lon="4.72051">
        <ele>239.83826</ele>
        <time>2023-08-05T14:30:01.000Z</time>
      </trkpt>
      <trkpt lat="45.87194" lon="4.72048">
        <ele>239.79118</ele>
        <time>2023-08-05T14:30:02.000Z</time>
      </trkpt>
      <trkpt lat="45.8719" lon="4.72044">
        <ele>239.69498</ele>
        <time>2023-08-05T14:30:03.000Z</time>
      </trkpt>
      <trkpt lat="45.87186" lon="4.72041">
        <ele>239.60873</ele>
        <time>2023-08-05T14:30:04.000Z</time>
      </trkpt>
      <trkpt lat="45.87181" lon="4.72037">
        <ele>239.51782</ele>
        <time>2023-08-05T14:30:05.000Z</time>
      </trkpt>
      <trkpt lat="45.87176" lon="4.72032">
        <ele>239.4043</ele>
        <time>2023-08-05T14:30:06.000Z</time>
      </trkpt>
      <trkpt lat="45.87172" lon="4.72027">
        <ele>239.29602</ele>
        <time>2023-08-05T14:30:07.000Z</time>
      </trkpt>
      <trkpt lat="45.87167" lon="4.72023">
        <ele>239.18933</ele>
        <time>2023-08-05T14:30:08.000Z</time>
      </trkpt>
      <trkpt lat="45.87163" lon="4.72018">
        <ele>239.1058</ele>
        <time>2023-08-05T14:30:09.000Z</time>
      </trkpt>
      <trkpt lat="45.87159" lon="4.72013">
        <ele>239.04927</ele>
        <time>2023-08-05T14:30:10.000Z</time>
      </trkpt>
      <trkpt lat="45.87156" lon="4.72007">
        <ele>238.98579</ele>
        <time>2023-08-05T14:30:11.000Z</time>
      </trkpt>
      <trkpt lat="45.87153" lon="4.72002">
        <ele>238.92863</ele>
        <time>2023-08-05T14:30:12.000Z</time>
      </trkpt>
      <trkpt lat="45.87149" lon="4.71995">
        <ele>238.91338</ele>
        <time>2023-08-05T14:30:13.000Z</time>
      </trkpt>
      <trkpt lat="45.87147" lon="4.71989">
        <ele>238.90083</ele>
        <time>2023-08-05T14:30:14.000Z</time>
      </trkpt>
      <trkpt lat="45.87143" lon="4.71983">
        <ele>238.91655</ele>
        <time>2023-08-05T14:30:15.000Z</time>
      </trkpt>
      <trkpt lat="45.8714" lon="4.71976">
        <ele>238.95007</ele>
        <time>2023-08-05T14:30:16.000Z</time>
      </trkpt>
      <trkpt lat="45.87137" lon="4.7197">
        <ele>239.00652</ele>
        <time>2023-08-05T14:30:17.000Z</time>
      </trkpt>
      <trkpt lat="45.87133" lon="4.71965">
        <ele>239.05905</ele>
        <time>2023-08-05T14:30:18.000Z</time>
      </trkpt>
      <trkpt lat="45.87128" lon="4.71961">
        <ele>239.12061</ele>
        <time>2023-08-05T14:30:19.000Z</time>
      </trkpt>
      <trkpt lat="45.87123" lon="4.71958">
        <ele>239.15044</ele>
        <time>2023-08-05T14:30:20.000Z</time>
      </trkpt>
      <trkpt lat="45.87117" lon="4.71956">
        <ele>239.19095</ele>
        <time>2023-08-05T14:30:21.000Z</time>
      </trkpt>
      <trkpt lat="45.87112" lon="4.71954">
        <ele>239.23453</ele>
        <time>2023-08-05T14:30:22.000Z</time>
      </trkpt>
      <trkpt lat="45.87106" lon="4.71952">
        <ele>239.32112</ele>
        <time>2023-08-05T14:30:23.000Z</time>
      </trkpt>
      <trkpt lat="45.87101" lon="4.7195">
        <ele>239.39534</ele>
        <time>2023-08-05T14:30:24.000Z</time>
      </trkpt>
      <trkpt lat="45.87095" lon="4.71949">
        <ele>239.47005</ele>
        <time>2023-08-05T14:30:25.000Z</time>
      </trkpt>
      <trkpt lat="45.87089" lon="4.71947">
        <ele>239.57266</ele>
        <time>2023-08-05T14:30:26.000Z</time>
      </trkpt>
      <trkpt lat="45.87084" lon="4.71944">
        <ele>239.67802</ele>
        <time>2023-08-05T14:30:27.000Z</time>
      </trkpt>
      <trkpt lat="45.87078" lon="4.71942">
        <ele>239.7645</ele>
        <time>2023-08-05T14:30:28.000Z</time>
      </trkpt>
      <trkpt lat="45.87073" lon="4.71939">
        <ele>239.81503</ele>
        <time>2023-08-05T14:30:29.000Z</time>
      </trkpt>
      <trkpt lat="45.87069" lon="4.71935">
        <ele>239.85818</ele>
        <time>2023-08-05T14:30:30.000Z</time>
      </trkpt>
      <trkpt lat="45.87063" lon="4.71932">
        <ele>239.89531</ele>
        <time>2023-08-05T14:30:31.000Z</time>
      </trkpt>
      <trkpt lat="45.87059" lon="4.71928">
        <ele>239.91025</ele>
        <time>2023-08-05T14:30:32.000Z</time>
      </trkpt>
      <trkpt lat="45.87054" lon="4.71923">
        <ele>239.90483</ele>
        <time>2023-08-05T14:30:33.000Z</time>
      </trkpt>
      <trkpt lat="45.87051" lon="4.71917">
        <ele>239.90891</ele>
        <time>2023-08-05T14:30:34.000Z</time>
      </trkpt>
      <trkpt lat="45.87047" lon="4.71912">
        <ele>239.92134</ele>
        <time>2023-08-05T14:30:35.000Z</time>
      </trkpt>
      <trkpt lat="45.87045" lon="4.7191">
        <ele>239.93301</ele>
        <time>2023-08-05T14:30:36.000Z</time>
      </trkpt>
      <trkpt lat="45.87042" lon="4.71907">
        <ele>239.91109</ele>
        <time>2023-08-05T14:30:38.000Z</time>
      </trkpt>
      <trkpt lat="45.8704" lon="4.71904">
        <ele>239.90524</ele>
        <time>2023-08-05T14:30:40.000Z</time>
      </trkpt>
      <trkpt lat="45.87037" lon="4.71902">
        <ele>239.85947</ele>
        <time>2023-08-05T14:30:48.000Z</time>
      </trkpt>
      <trkpt lat="45.87034" lon="4.71901">
        <ele>239.84439</ele>
        <time>2023-08-05T14:30:49.000Z</time>
      </trkpt>
      <trkpt lat="45.87032" lon="4.71899">
        <ele>239.8188</ele>
        <time>2023-08-05T14:30:50.000Z</time>
      </trkpt>
      <trkpt lat="45.8703" lon="4.71897">
        <ele>239.79483</ele>
        <time>2023-08-05T14:30:51.000Z</time>
      </trkpt>
      <trkpt lat="45.87027" lon="4.71894">
        <ele>239.77715</ele>
        <time>2023-08-05T14:30:52.000Z</time>
      </trkpt>
      <trkpt lat="45.87025" lon="4.71892">
        <ele>239.74023</ele>
        <time>2023-08-05T14:30:53.000Z</time>
      </trkpt>
      <trkpt lat="45.87022" lon="4.71889">
        <ele>239.71121</ele>
        <time>2023-08-05T14:30:54.000Z</time>
      </trkpt>
      <trkpt lat="45.87019" lon="4.71887">
        <ele>239.69431</ele>
        <time>2023-08-05T14:30:55.000Z</time>
      </trkpt>
      <trkpt lat="45.87016" lon="4.71885">
        <ele>239.67435</ele>
        <time>2023-08-05T14:30:56.000Z</time>
      </trkpt>
      <trkpt lat="45.87013" lon="4.71882">
        <ele>239.66245</ele>
        <time>2023-08-05T14:30:57.000Z</time>
      </trkpt>
      <trkpt lat="45.87011" lon="4.71878">
        <ele>239.68469</ele>
        <time>2023-08-05T14:30:58.000Z</time>
      </trkpt>
      <trkpt lat="45.87009" lon="4.71874">
        <ele>239.70708</ele>
        <time>2023-08-05T14:30:59.000Z</time>
      </trkpt>
      <trkpt lat="45.87007" lon="4.71869">
        <ele>239.71553</ele>
        <time>2023-08-05T14:31:00.000Z</time>
      </trkpt>
      <trkpt lat="45.87005" lon="4.71864">
        <ele>239.71317</ele>
        <time>2023-08-05T14:31:01.000Z</time>
      </trkpt>
      <trkpt lat="45.87003" lon="4.71859">
        <ele>239.7094</ele>
        <time>2023-08-05T14:31:02.000Z</time>
      </trkpt>
      <trkpt lat="45.87001" lon="4.71854">
        <ele>239.72141</ele>
        <time>2023-08-05T14:31:03.000Z</time>
      </trkpt>
      <trkpt lat="45.86998" lon="4.71849">
        <ele>239.7218</ele>
        <time>2023-08-05T14:31:04.000Z</time>
      </trkpt>
      <trkpt lat="45.86996" lon="4.71845">
        <ele>239.7294</ele>
        <time>2023-08-05T14:31:05.000Z</time>
      </trkpt>
      <trkpt lat="45.86992" lon="4.71841">
        <ele>239.73239</ele>
        <time>2023-08-05T14:31:06.000Z</time>
      </trkpt>
      <trkpt lat="45.86989" lon="4.71838">
        <ele>239.71036</ele>
        <time>2023-08-05T14:31:07.000Z</time>
      </trkpt>
      <trkpt lat="45.86985" lon="4.71836">
        <ele>239.72481</ele>
        <time>2023-08-05T14:31:08.000Z</time>
      </trkpt>
      <trkpt lat="45.86982" lon="4.71835">
        <ele>239.72781</ele>
        <time>2023-08-05T14:31:09.000Z</time>
      </trkpt>
      <trkpt lat="45.86978" lon="4.71833">
        <ele>239.74825</ele>
        <time>2023-08-05T14:31:10.000Z</time>
      </trkpt>
      <trkpt lat="45.86974" lon="4.71833">
        <ele>239.76956</ele>
        <time>2023-08-05T14:31:11.000Z</time>
      </trkpt>
      <trkpt lat="45.8697" lon="4.71832">
        <ele>239.78885</ele>
        <time>2023-08-05T14:31:12.000Z</time>
      </trkpt>
      <trkpt lat="45.86966" lon="4.71831">
        <ele>239.85591</ele>
        <time>2023-08-05T14:31:13.000Z</time>
      </trkpt>
      <trkpt lat="45.86961" lon="4.71831">
        <ele>239.90433</ele>
        <time>2023-08-05T14:31:14.000Z</time>
      </trkpt>
      <trkpt lat="45.86957" lon="4.7183">
        <ele>239.9351</ele>
        <time>2023-08-05T14:31:15.000Z</time>
      </trkpt>
      <trkpt lat="45.86953" lon="4.71829">
        <ele>239.97151</ele>
        <time>2023-08-05T14:31:16.000Z</time>
      </trkpt>
      <trkpt lat="45.86949" lon="4.71829">
        <ele>240.01025</ele>
        <time>2023-08-05T14:31:17.000Z</time>
      </trkpt>
      <trkpt lat="45.86945" lon="4.71828">
        <ele>240.03769</ele>
        <time>2023-08-05T14:31:18.000Z</time>
      </trkpt>
      <trkpt lat="45.86941" lon="4.71827">
        <ele>240.05673</ele>
        <time>2023-08-05T14:31:19.000Z</time>
      </trkpt>
      <trkpt lat="45.86938" lon="4.71826">
        <ele>240.09329</ele>
        <time>2023-08-05T14:31:20.000Z</time>
      </trkpt>
      <trkpt lat="45.86935" lon="4.71825">
        <ele>240.16353</ele>
        <time>2023-08-05T14:31:21.000Z</time>
      </trkpt>
      <trkpt lat="45.86932" lon="4.71823">
        <ele>240.24026</ele>
        <time>2023-08-05T14:31:22.000Z</time>
      </trkpt>
      <trkpt lat="45.86929" lon="4.71822">
        <ele>240.28049</ele>
        <time>2023-08-05T14:31:24.000Z</time>
      </trkpt>
      <trkpt lat="45.86926" lon="4.7182">
        <ele>240.30649</ele>
        <time>2023-08-05T14:31:26.000Z</time>
      </trkpt>
      <trkpt lat="45.86923" lon="4.7182">
        <ele>240.32565</ele>
        <time>2023-08-05T14:31:28.000Z</time>
      </trkpt>
      <trkpt lat="45.86921" lon="4.7182">
        <ele>240.36584</ele>
        <time>2023-08-05T14:31:29.000Z</time>
      </trkpt>
      <trkpt lat="45.86919" lon="4.71819">
        <ele>240.40523</ele>
        <time>2023-08-05T14:31:30.000Z</time>
      </trkpt>
      <trkpt lat="45.86917" lon="4.71819">
        <ele>240.46147</ele>
        <time>2023-08-05T14:31:31.000Z</time>
      </trkpt>
      <trkpt lat="45.86915" lon="4.71817">
        <ele>240.49228</ele>
        <time>2023-08-05T14:31:32.000Z</time>
      </trkpt>
      <trkpt lat="45.86915" lon="4.71814">
        <ele>240.51152</ele>
        <time>2023-08-05T14:31:33.000Z</time>
      </trkpt>
      <trkpt lat="45.86917" lon="4.71812">
        <ele>240.5199</ele>
        <time>2023-08-05T14:31:34.000Z</time>
      </trkpt>
      <trkpt lat="45.86921" lon="4.71812">
        <ele>240.50362</ele>
        <time>2023-08-05T14:31:35.000Z</time>
      </trkpt>
      <trkpt lat="45.86924" lon="4.71815">
        <ele>240.45944</ele>
        <time>2023-08-05T14:31:36.000Z</time>
      </trkpt>
      <trkpt lat="45.86927" lon="4.71818">
        <ele>240.44064</ele>
        <time>2023-08-05T14:31:37.000Z</time>
      </trkpt>
      <trkpt lat="45.8693" lon="4.7182">
        <ele>240.42758</ele>
        <time>2023-08-05T14:31:38.000Z</time>
      </trkpt>
      <trkpt lat="45.86934" lon="4.71822">
        <ele>240.40182</ele>
        <time>2023-08-05T14:31:39.000Z</time>
      </trkpt>
      <trkpt lat="45.86938" lon="4.71823">
        <ele>240.37051</ele>
        <time>2023-08-05T14:31:40.000Z</time>
      </trkpt>
      <trkpt lat="45.86941" lon="4.71824">
        <ele>240.33023</ele>
        <time>2023-08-05T14:31:41.000Z</time>
      </trkpt>
      <trkpt lat="45.86945" lon="4.71825">
        <ele>240.29453</ele>
        <time>2023-08-05T14:31:42.000Z</time>
      </trkpt>
      <trkpt lat="45.86949" lon="4.71827">
        <ele>240.25647</ele>
        <time>2023-08-05T14:31:43.000Z</time>
      </trkpt>
      <trkpt lat="45.86953" lon="4.71828">
        <ele>240.20822</ele>
        <time>2023-08-05T14:31:44.000Z</time>
      </trkpt>
      <trkpt lat="45.86956" lon="4.71828">
        <ele>240.15039</ele>
        <time>2023-08-05T14:31:45.000Z</time>
      </trkpt>
      <trkpt lat="45.8696" lon="4.71829">
        <ele>240.1169</ele>
        <time>2023-08-05T14:31:46.000Z</time>
      </trkpt>
      <trkpt lat="45.86964" lon="4.7183">
        <ele>240.10689</ele>
        <time>2023-08-05T14:31:47.000Z</time>
      </trkpt>
      <trkpt lat="45.86967" lon="4.7183">
        <ele>240.09644</ele>
        <time>2023-08-05T14:31:48.000Z</time>
      </trkpt>
      <trkpt lat="45.86971" lon="4.71831">
        <ele>240.07083</ele>
        <time>2023-08-05T14:31:49.000Z</time>
      </trkpt>
      <trkpt lat="45.86975" lon="4.71832">
        <ele>240.054</ele>
        <time>2023-08-05T14:31:50.000Z</time>
      </trkpt>
      <trkpt lat="45.86979" lon="4.71833">
        <ele>240.02213</ele>
        <time>2023-08-05T14:31:51.000Z</time>
      </trkpt>
      <trkpt lat="45.86983" lon="4.71834">
        <ele>240.00435</ele>
        <time>2023-08-05T14:31:52.000Z</time>
      </trkpt>
      <trkpt lat="45.86987" lon="4.71836">
        <ele>239.97519</ele>
        <time>2023-08-05T14:31:53.000Z</time>
      </trkpt>
      <trkpt lat="45.86991" lon="4.71838">
        <ele>239.95203</ele>
        <time>2023-08-05T14:31:54.000Z</time>
      </trkpt>
      <trkpt lat="45.86994" lon="4.71841">
        <ele>239.9532</ele>
        <time>2023-08-05T14:31:55.000Z</time>
      </trkpt>
      <trkpt lat="45.86998" lon="4.71844">
        <ele>239.95889</ele>
        <time>2023-08-05T14:31:56.000Z</time>
      </trkpt>
      <trkpt lat="45.87001" lon="4.71847">
        <ele>239.94788</ele>
        <time>2023-08-05T14:31:57.000Z</time>
      </trkpt>
      <trkpt lat="45.87003" lon="4.71852">
        <ele>239.94009</ele>
        <time>2023-08-05T14:31:58.000Z</time>
      </trkpt>
      <trkpt lat="45.87006" lon="4.71856">
        <ele>239.94817</ele>
        <time>2023-08-05T14:31:59.000Z</time>
      </trkpt>
      <trkpt lat="45.87008" lon="4.71861">
        <ele>239.94878</ele>
        <time>2023-08-05T14:32:00.000Z</time>
      </trkpt>
      <trkpt lat="45.8701" lon="4.71867">
        <ele>239.95427</ele>
        <time>2023-08-05T14:32:01.000Z</time>
      </trkpt>
      <trkpt lat="45.87012" lon="4.71872">
        <ele>239.97351</ele>
        <time>2023-08-05T14:32:02.000Z</time>
      </trkpt>
      <trkpt lat="45.87014" lon="4.71876">
        <ele>239.99356</ele>
        <time>2023-08-05T14:32:03.000Z</time>
      </trkpt>
      <trkpt lat="45.87017" lon="4.71881">
        <ele>240.01262</ele>
        <time>2023-08-05T14:32:04.000Z</time>
      </trkpt>
      <trkpt lat="45.87019" lon="4.71884">
        <ele>240.0455</ele>
        <time>2023-08-05T14:32:05.000Z</time>
      </trkpt>
      <trkpt lat="45.87023" lon="4.71888">
        <ele>240.06844</ele>
        <time>2023-08-05T14:32:06.000Z</time>
      </trkpt>
      <trkpt lat="45.87026" lon="4.71891">
        <ele>240.06587</ele>
        <time>2023-08-05T14:32:07.000Z</time>
      </trkpt>
      <trkpt lat="45.87029" lon="4.71894">
        <ele>240.0751</ele>
        <time>2023-08-05T14:32:08.000Z</time>
      </trkpt>
      <trkpt lat="45.87033" lon="4.71897">
        <ele>240.09575</ele>
        <time>2023-08-05T14:32:09.000Z</time>
      </trkpt>
      <trkpt lat="45.87036" lon="4.719">
        <ele>240.11829</ele>
        <time>2023-08-05T14:32:10.000Z</time>
      </trkpt>
      <trkpt lat="45.87039" lon="4.71902">
        <ele>240.14694</ele>
        <time>2023-08-05T14:32:11.000Z</time>
      </trkpt>
      <trkpt lat="45.87042" lon="4.71904">
        <ele>240.18221</ele>
        <time>2023-08-05T14:32:12.000Z</time>
      </trkpt>
      <trkpt lat="45.87045" lon="4.71897">
        <ele>240.22717</ele>
        <time>2023-08-05T14:32:13.000Z</time>
      </trkpt>
      <trkpt lat="45.87048" lon="4.71894">
        <ele>240.28052</ele>
        <time>2023-08-05T14:32:14.000Z</time>
      </trkpt>
      <trkpt lat="45.8705" lon="4.7189">
        <ele>240.32808</ele>
        <time>2023-08-05T14:32:15.000Z</time>
      </trkpt>
      <trkpt lat="45.87052" lon="4.71888">
        <ele>240.35928</ele>
        <time>2023-08-05T14:32:16.000Z</time>
      </trkpt>
      <trkpt lat="45.87054" lon="4.71885">
        <ele>240.37517</ele>
        <time>2023-08-05T14:32:18.000Z</time>
      </trkpt>
      <trkpt lat="45.87055" lon="4.71881">
        <ele>240.3748</ele>
        <time>2023-08-05T14:32:20.000Z</time>
      </trkpt>
      <trkpt lat="45.87055" lon="4.71878">
        <ele>240.37549</ele>
        <time>2023-08-05T14:32:21.000Z</time>
      </trkpt>
      <trkpt lat="45.87055" lon="4.71875">
        <ele>240.38968</ele>
        <time>2023-08-05T14:32:22.000Z</time>
      </trkpt>
      <trkpt lat="45.87054" lon="4.71873">
        <ele>240.41711</ele>
        <time>2023-08-05T14:32:23.000Z</time>
      </trkpt>
      <trkpt lat="45.87052" lon="4.71871">
        <ele>240.42929</ele>
        <time>2023-08-05T14:32:24.000Z</time>
      </trkpt>
      <trkpt lat="45.8705" lon="4.71869">
        <ele>240.4415</ele>
        <time>2023-08-05T14:32:25.000Z</time>
      </trkpt>
      <trkpt lat="45.87048" lon="4.71867">
        <ele>240.45828</ele>
        <time>2023-08-05T14:32:26.000Z</time>
      </trkpt>
      <trkpt lat="45.87046" lon="4.71865">
        <ele>240.47058</ele>
        <time>2023-08-05T14:32:27.000Z</time>
      </trkpt>
      <trkpt lat="45.87043" lon="4.71862">
        <ele>240.47701</ele>
        <time>2023-08-05T14:32:28.000Z</time>
      </trkpt>
      <trkpt lat="45.87041" lon="4.71859">
        <ele>240.51323</ele>
        <time>2023-08-05T14:32:29.000Z</time>
      </trkpt>
      <trkpt lat="45.87039" lon="4.71856">
        <ele>240.55948</ele>
        <time>2023-08-05T14:32:30.000Z</time>
      </trkpt>
      <trkpt lat="45.87036" lon="4.71853">
        <ele>240.60486</ele>
        <time>2023-08-05T14:32:31.000Z</time>
      </trkpt>
      <trkpt lat="45.87033" lon="4.7185">
        <ele>240.64949</ele>
        <time>2023-08-05T14:32:32.000Z</time>
      </trkpt>
      <trkpt lat="45.87031" lon="4.71848">
        <ele>240.67444</ele>
        <time>2023-08-05T14:32:33.000Z</time>
      </trkpt>
      <trkpt lat="45.87028" lon="4.71846">
        <ele>240.70332</ele>
        <time>2023-08-05T14:32:34.000Z</time>
      </trkpt>
      <trkpt lat="45.87025" lon="4.71844">
        <ele>240.73946</ele>
        <time>2023-08-05T14:32:35.000Z</time>
      </trkpt>
      <trkpt lat="45.87022" lon="4.71841">
        <ele>240.76721</ele>
        <time>2023-08-05T14:32:36.000Z</time>
      </trkpt>
      <trkpt lat="45.87019" lon="4.71839">
        <ele>240.79094</ele>
        <time>2023-08-05T14:32:37.000Z</time>
      </trkpt>
      <trkpt lat="45.87016" lon="4.71837">
        <ele>240.83479</ele>
        <time>2023-08-05T14:32:38.000Z</time>
      </trkpt>
      <trkpt lat="45.87013" lon="4.71836">
        <ele>240.89505</ele>
        <time>2023-08-05T14:32:39.000Z</time>
      </trkpt>
      <trkpt lat="45.8701" lon="4.71834">
        <ele>240.97403</ele>
        <time>2023-08-05T14:32:40.000Z</time>
      </trkpt>
      <trkpt lat="45.87007" lon="4.71832">
        <ele>241.04886</ele>
        <time>2023-08-05T14:32:41.000Z</time>
      </trkpt>
      <trkpt lat="45.87004" lon="4.7183">
        <ele>241.12454</ele>
        <time>2023-08-05T14:32:42.000Z</time>
      </trkpt>
      <trkpt lat="45.87001" lon="4.71828">
        <ele>241.17558</ele>
        <time>2023-08-05T14:32:43.000Z</time>
      </trkpt>
      <trkpt lat="45.86999" lon="4.71826">
        <ele>241.23544</ele>
        <time>2023-08-05T14:32:44.000Z</time>
      </trkpt>
      <trkpt lat="45.86996" lon="4.71824">
        <ele>241.28772</ele>
        <time>2023-08-05T14:32:45.000Z</time>
      </trkpt>
      <trkpt lat="45.86994" lon="4.71823">
        <ele>241.3519</ele>
        <time>2023-08-05T14:32:46.000Z</time>
      </trkpt>
      <trkpt lat="45.86992" lon="4.71821">
        <ele>241.40601</ele>
        <time>2023-08-05T14:32:47.000Z</time>
      </trkpt>
      <trkpt lat="45.86989" lon="4.7182">
        <ele>241.44771</ele>
        <time>2023-08-05T14:32:48.000Z</time>
      </trkpt>
      <trkpt lat="45.86987" lon="4.71819">
        <ele>241.49179</ele>
        <time>2023-08-05T14:32:49.000Z</time>
      </trkpt>
      <trkpt lat="45.86985" lon="4.71819">
        <ele>241.51717</ele>
        <time>2023-08-05T14:32:50.000Z</time>
      </trkpt>
      <trkpt lat="45.86982" lon="4.71818">
        <ele>241.52136</ele>
        <time>2023-08-05T14:32:52.000Z</time>
      </trkpt>
      <trkpt lat="45.8698" lon="4.71816">
        <ele>241.51657</ele>
        <time>2023-08-05T14:32:54.000Z</time>
      </trkpt>
      <trkpt lat="45.86982" lon="4.71816">
        <ele>241.5217</ele>
        <time>2023-08-05T14:33:01.000Z</time>
      </trkpt>
      <trkpt lat="45.86981" lon="4.71813">
        <ele>241.54094</ele>
        <time>2023-08-05T14:33:05.000Z</time>
      </trkpt>
      <trkpt lat="45.86982" lon="4.7181">
        <ele>241.5481</ele>
        <time>2023-08-05T14:33:06.000Z</time>
      </trkpt>
      <trkpt lat="45.86982" lon="4.71807">
        <ele>241.53413</ele>
        <time>2023-08-05T14:33:07.000Z</time>
      </trkpt>
      <trkpt lat="45.86982" lon="4.71803">
        <ele>241.54016</ele>
        <time>2023-08-05T14:33:08.000Z</time>
      </trkpt>
      <trkpt lat="45.86982" lon="4.71799">
        <ele>241.5751</ele>
        <time>2023-08-05T14:33:09.000Z</time>
      </trkpt>
      <trkpt lat="45.86981" lon="4.71794">
        <ele>241.58359</ele>
        <time>2023-08-05T14:33:10.000Z</time>
      </trkpt>
      <trkpt lat="45.86981" lon="4.71789">
        <ele>241.58057</ele>
        <time>2023-08-05T14:33:11.000Z</time>
      </trkpt>
      <trkpt lat="45.8698" lon="4.71785">
        <ele>241.5618</ele>
        <time>2023-08-05T14:33:12.000Z</time>
      </trkpt>
      <trkpt lat="45.8698" lon="4.7178">
        <ele>241.54021</ele>
        <time>2023-08-05T14:33:13.000Z</time>
      </trkpt>
      <trkpt lat="45.86979" lon="4.71776">
        <ele>241.53305</ele>
        <time>2023-08-05T14:33:14.000Z</time>
      </trkpt>
      <trkpt lat="45.86978" lon="4.71773">
        <ele>241.54277</ele>
        <time>2023-08-05T14:33:15.000Z</time>
      </trkpt>
      <trkpt lat="45.86976" lon="4.71769">
        <ele>241.56674</ele>
        <time>2023-08-05T14:33:16.000Z</time>
      </trkpt>
      <trkpt lat="45.86975" lon="4.71765">
        <ele>241.58313</ele>
        <time>2023-08-05T14:33:17.000Z</time>
      </trkpt>
      <trkpt lat="45.86974" lon="4.71761">
        <ele>241.61772</ele>
        <time>2023-08-05T14:33:18.000Z</time>
      </trkpt>
      <trkpt lat="45.86973" lon="4.71757">
        <ele>241.68497</ele>
        <time>2023-08-05T14:33:19.000Z</time>
      </trkpt>
      <trkpt lat="45.86973" lon="4.71753">
        <ele>241.7155</ele>
        <time>2023-08-05T14:33:20.000Z</time>
      </trkpt>
      <trkpt lat="45.86973" lon="4.71749">
        <ele>241.71353</ele>
        <time>2023-08-05T14:33:21.000Z</time>
      </trkpt>
      <trkpt lat="45.86972" lon="4.71745">
        <ele>241.74008</ele>
        <time>2023-08-05T14:33:22.000Z</time>
      </trkpt>
      <trkpt lat="45.86972" lon="4.71741">
        <ele>241.75684</ele>
        <time>2023-08-05T14:33:23.000Z</time>
      </trkpt>
      <trkpt lat="45.86971" lon="4.71736">
        <ele>241.77139</ele>
        <time>2023-08-05T14:33:24.000Z</time>
      </trkpt>
      <trkpt lat="45.8697" lon="4.71732">
        <ele>241.76428</ele>
        <time>2023-08-05T14:33:25.000Z</time>
      </trkpt>
      <trkpt lat="45.86969" lon="4.71728">
        <ele>241.77954</ele>
        <time>2023-08-05T14:33:26.000Z</time>
      </trkpt>
      <trkpt lat="45.86968" lon="4.71724">
        <ele>241.84488</ele>
        <time>2023-08-05T14:33:27.000Z</time>
      </trkpt>
      <trkpt lat="45.86967" lon="4.71719">
        <ele>241.90323</ele>
        <time>2023-08-05T14:33:28.000Z</time>
      </trkpt>
      <trkpt lat="45.86967" lon="4.71715">
        <ele>241.93582</ele>
        <time>2023-08-05T14:33:29.000Z</time>
      </trkpt>
      <trkpt lat="45.86966" lon="4.71711">
        <ele>241.97751</ele>
        <time>2023-08-05T14:33:30.000Z</time>
      </trkpt>
      <trkpt lat="45.86965" lon="4.71707">
        <ele>242.03113</ele>
        <time>2023-08-05T14:33:31.000Z</time>
      </trkpt>
      <trkpt lat="45.86964" lon="4.71703">
        <ele>242.06531</ele>
        <time>2023-08-05T14:33:32.000Z</time>
      </trkpt>
      <trkpt lat="45.86964" lon="4.71699">
        <ele>242.11011</ele>
        <time>2023-08-05T14:33:33.000Z</time>
      </trkpt>
      <trkpt lat="45.86963" lon="4.71695">
        <ele>242.12402</ele>
        <time>2023-08-05T14:33:34.000Z</time>
      </trkpt>
      <trkpt lat="45.86963" lon="4.71692">
        <ele>242.11482</ele>
        <time>2023-08-05T14:33:35.000Z</time>
      </trkpt>
      <trkpt lat="45.86963" lon="4.71688">
        <ele>242.10481</ele>
        <time>2023-08-05T14:33:36.000Z</time>
      </trkpt>
      <trkpt lat="45.86963" lon="4.71684">
        <ele>242.09717</ele>
        <time>2023-08-05T14:33:37.000Z</time>
      </trkpt>
      <trkpt lat="45.86962" lon="4.7168">
        <ele>242.06381</ele>
        <time>2023-08-05T14:33:38.000Z</time>
      </trkpt>
      <trkpt lat="45.8696" lon="4.71677">
        <ele>242.03333</ele>
        <time>2023-08-05T14:33:39.000Z</time>
      </trkpt>
      <trkpt lat="45.86958" lon="4.71675">
        <ele>242.02559</ele>
        <time>2023-08-05T14:33:40.000Z</time>
      </trkpt>
      <trkpt lat="45.86955" lon="4.71675">
        <ele>242.03886</ele>
        <time>2023-08-05T14:33:41.000Z</time>
      </trkpt>
      <trkpt lat="45.86953" lon="4.71676">
        <ele>242.076</ele>
        <time>2023-08-05T14:33:42.000Z</time>
      </trkpt>
      <trkpt lat="45.8695" lon="4.71678">
        <ele>242.11191</ele>
        <time>2023-08-05T14:33:43.000Z</time>
      </trkpt>
      <trkpt lat="45.86947" lon="4.7168">
        <ele>242.15234</ele>
        <time>2023-08-05T14:33:44.000Z</time>
      </trkpt>
      <trkpt lat="45.86943" lon="4.71682">
        <ele>242.17813</ele>
        <time>2023-08-05T14:33:45.000Z</time>
      </trkpt>
      <trkpt lat="45.8694" lon="4.71684">
        <ele>242.20181</ele>
        <time>2023-08-05T14:33:46.000Z</time>
      </trkpt>
      <trkpt lat="45.86936" lon="4.71686">
        <ele>242.18753</ele>
        <time>2023-08-05T14:33:47.000Z</time>
      </trkpt>
      <trkpt lat="45.86933" lon="4.71688">
        <ele>242.16541</ele>
        <time>2023-08-05T14:33:48.000Z</time>
      </trkpt>
      <trkpt lat="45.86929" lon="4.71689">
        <ele>242.14482</ele>
        <time>2023-08-05T14:33:49.000Z</time>
      </trkpt>
      <trkpt lat="45.86926" lon="4.71691">
        <ele>242.11758</ele>
        <time>2023-08-05T14:33:50.000Z</time>
      </trkpt>
      <trkpt lat="45.86923" lon="4.71692">
        <ele>242.08932</ele>
        <time>2023-08-05T14:33:51.000Z</time>
      </trkpt>
      <trkpt lat="45.8692" lon="4.71692">
        <ele>242.06067</ele>
        <time>2023-08-05T14:33:52.000Z</time>
      </trkpt>
      <trkpt lat="45.86917" lon="4.71692">
        <ele>242.02153</ele>
        <time>2023-08-05T14:33:53.000Z</time>
      </trkpt>
      <trkpt lat="45.86914" lon="4.71692">
        <ele>242.00594</ele>
        <time>2023-08-05T14:33:54.000Z</time>
      </trkpt>
      <trkpt lat="45.8691" lon="4.71693">
        <ele>241.98975</ele>
        <time>2023-08-05T14:33:55.000Z</time>
      </trkpt>
      <trkpt lat="45.86907" lon="4.71693">
        <ele>241.99043</ele>
        <time>2023-08-05T14:33:56.000Z</time>
      </trkpt>
      <trkpt lat="45.86903" lon="4.71693">
        <ele>241.97299</ele>
        <time>2023-08-05T14:33:57.000Z</time>
      </trkpt>
      <trkpt lat="45.86899" lon="4.71693">
        <ele>241.98962</ele>
        <time>2023-08-05T14:33:58.000Z</time>
      </trkpt>
      <trkpt lat="45.86895" lon="4.71692">
        <ele>241.979</ele>
        <time>2023-08-05T14:33:59.000Z</time>
      </trkpt>
      <trkpt lat="45.86891" lon="4.7169">
        <ele>241.98625</ele>
        <time>2023-08-05T14:34:00.000Z</time>
      </trkpt>
      <trkpt lat="45.86887" lon="4.71688">
        <ele>241.99641</ele>
        <time>2023-08-05T14:34:01.000Z</time>
      </trkpt>
      <trkpt lat="45.86883" lon="4.71686">
        <ele>241.96011</ele>
        <time>2023-08-05T14:34:02.000Z</time>
      </trkpt>
      <trkpt lat="45.86879" lon="4.71684">
        <ele>241.94205</ele>
        <time>2023-08-05T14:34:03.000Z</time>
      </trkpt>
      <trkpt lat="45.86875" lon="4.71683">
        <ele>241.92252</ele>
        <time>2023-08-05T14:34:04.000Z</time>
      </trkpt>
      <trkpt lat="45.86871" lon="4.71681">
        <ele>241.89778</ele>
        <time>2023-08-05T14:34:05.000Z</time>
      </trkpt>
      <trkpt lat="45.86866" lon="4.7168">
        <ele>241.85315</ele>
        <time>2023-08-05T14:34:06.000Z</time>
      </trkpt>
      <trkpt lat="45.86862" lon="4.71678">
        <ele>241.83472</ele>
        <time>2023-08-05T14:34:07.000Z</time>
      </trkpt>
      <trkpt lat="45.86858" lon="4.71677">
        <ele>241.80185</ele>
        <time>2023-08-05T14:34:08.000Z</time>
      </trkpt>
      <trkpt lat="45.86854" lon="4.71676">
        <ele>241.77441</ele>
        <time>2023-08-05T14:34:09.000Z</time>
      </trkpt>
      <trkpt lat="45.86849" lon="4.71675">
        <ele>241.77493</ele>
        <time>2023-08-05T14:34:10.000Z</time>
      </trkpt>
      <trkpt lat="45.86846" lon="4.71673">
        <ele>241.77263</ele>
        <time>2023-08-05T14:34:11.000Z</time>
      </trkpt>
      <trkpt lat="45.86842" lon="4.71672">
        <ele>241.79839</ele>
        <time>2023-08-05T14:34:12.000Z</time>
      </trkpt>
      <trkpt lat="45.86839" lon="4.71671">
        <ele>241.79765</ele>
        <time>2023-08-05T14:34:13.000Z</time>
      </trkpt>
      <trkpt lat="45.86835" lon="4.7167">
        <ele>241.80379</ele>
        <time>2023-08-05T14:34:14.000Z</time>
      </trkpt>
      <trkpt lat="45.86832" lon="4.71669">
        <ele>241.80899</ele>
        <time>2023-08-05T14:34:15.000Z</time>
      </trkpt>
      <trkpt lat="45.86829" lon="4.71668">
        <ele>241.79605</ele>
        <time>2023-08-05T14:34:16.000Z</time>
      </trkpt>
      <trkpt lat="45.86826" lon="4.71666">
        <ele>241.77705</ele>
        <time>2023-08-05T14:34:17.000Z</time>
      </trkpt>
      <trkpt lat="45.86822" lon="4.71665">
        <ele>241.75256</ele>
        <time>2023-08-05T14:34:18.000Z</time>
      </trkpt>
      <trkpt lat="45.86819" lon="4.71663">
        <ele>241.74666</ele>
        <time>2023-08-05T14:34:19.000Z</time>
      </trkpt>
      <trkpt lat="45.86814" lon="4.71662">
        <ele>241.74055</ele>
        <time>2023-08-05T14:34:20.000Z</time>
      </trkpt>
      <trkpt lat="45.8681" lon="4.71661">
        <ele>241.72078</ele>
        <time>2023-08-05T14:34:21.000Z</time>
      </trkpt>
      <trkpt lat="45.86806" lon="4.71659">
        <ele>241.71939</ele>
        <time>2023-08-05T14:34:22.000Z</time>
      </trkpt>
      <trkpt lat="45.86801" lon="4.71658">
        <ele>241.71811</ele>
        <time>2023-08-05T14:34:23.000Z</time>
      </trkpt>
      <trkpt lat="45.86797" lon="4.71657">
        <ele>241.729</ele>
        <time>2023-08-05T14:34:24.000Z</time>
      </trkpt>
      <trkpt lat="45.86792" lon="4.71656">
        <ele>241.75273</ele>
        <time>2023-08-05T14:34:25.000Z</time>
      </trkpt>
      <trkpt lat="45.86787" lon="4.71655">
        <ele>241.77551</ele>
        <time>2023-08-05T14:34:26.000Z</time>
      </trkpt>
      <trkpt lat="45.86782" lon="4.71653">
        <ele>241.76614</ele>
        <time>2023-08-05T14:34:27.000Z</time>
      </trkpt>
      <trkpt lat="45.86777" lon="4.71652">
        <ele>241.76958</ele>
        <time>2023-08-05T14:34:28.000Z</time>
      </trkpt>
      <trkpt lat="45.86772" lon="4.71649">
        <ele>241.7476</ele>
        <time>2023-08-05T14:34:29.000Z</time>
      </trkpt>
      <trkpt lat="45.86767" lon="4.71648">
        <ele>241.71082</ele>
        <time>2023-08-05T14:34:30.000Z</time>
      </trkpt>
      <trkpt lat="45.86762" lon="4.71648">
        <ele>241.67612</ele>
        <time>2023-08-05T14:34:31.000Z</time>
      </trkpt>
      <trkpt lat="45.86757" lon="4.71648">
        <ele>241.64267</ele>
        <time>2023-08-05T14:34:32.000Z</time>
      </trkpt>
      <trkpt lat="45.86752" lon="4.71648">
        <ele>241.62546</ele>
        <time>2023-08-05T14:34:33.000Z</time>
      </trkpt>
      <trkpt lat="45.86746" lon="4.71649">
        <ele>241.6088</ele>
        <time>2023-08-05T14:34:34.000Z</time>
      </trkpt>
      <trkpt lat="45.86741" lon="4.7165">
        <ele>241.60339</ele>
        <time>2023-08-05T14:34:35.000Z</time>
      </trkpt>
      <trkpt lat="45.86736" lon="4.71651">
        <ele>241.58743</ele>
        <time>2023-08-05T14:34:36.000Z</time>
      </trkpt>
      <trkpt lat="45.86731" lon="4.71653">
        <ele>241.58643</ele>
        <time>2023-08-05T14:34:37.000Z</time>
      </trkpt>
      <trkpt lat="45.86725" lon="4.71654">
        <ele>241.55154</ele>
        <time>2023-08-05T14:34:38.000Z</time>
      </trkpt>
      <trkpt lat="45.8672" lon="4.71655">
        <ele>241.52243</ele>
        <time>2023-08-05T14:34:39.000Z</time>
      </trkpt>
      <trkpt lat="45.86715" lon="4.71655">
        <ele>241.49541</ele>
        <time>2023-08-05T14:34:40.000Z</time>
      </trkpt>
      <trkpt lat="45.86709" lon="4.71656">
        <ele>241.48117</ele>
        <time>2023-08-05T14:34:41.000Z</time>
      </trkpt>
      <trkpt lat="45.86704" lon="4.71654">
        <ele>241.45024</ele>
        <time>2023-08-05T14:34:42.000Z</time>
      </trkpt>
      <trkpt lat="45.867" lon="4.71652">
        <ele>241.41394</ele>
        <time>2023-08-05T14:34:43.000Z</time>
      </trkpt>
      <trkpt lat="45.86696" lon="4.71647">
        <ele>241.35654</ele>
        <time>2023-08-05T14:34:44.000Z</time>
      </trkpt>
      <trkpt lat="45.86692" lon="4.71643">
        <ele>241.30171</ele>
        <time>2023-08-05T14:34:45.000Z</time>
      </trkpt>
      <trkpt lat="45.86688" lon="4.71638">
        <ele>241.26714</ele>
        <time>2023-08-05T14:34:46.000Z</time>
      </trkpt>
      <trkpt lat="45.86684" lon="4.71633">
        <ele>241.22867</ele>
        <time>2023-08-05T14:34:47.000Z</time>
      </trkpt>
      <trkpt lat="45.86681" lon="4.71627">
        <ele>241.18025</ele>
        <time>2023-08-05T14:34:48.000Z</time>
      </trkpt>
      <trkpt lat="45.86677" lon="4.71623">
        <ele>241.1622</ele>
        <time>2023-08-05T14:34:49.000Z</time>
      </trkpt>
      <trkpt lat="45.86673" lon="4.71617">
        <ele>241.14336</ele>
        <time>2023-08-05T14:34:50.000Z</time>
      </trkpt>
      <trkpt lat="45.86668" lon="4.71613">
        <ele>241.13046</ele>
        <time>2023-08-05T14:34:51.000Z</time>
      </trkpt>
      <trkpt lat="45.86664" lon="4.71608">
        <ele>241.10916</ele>
        <time>2023-08-05T14:34:52.000Z</time>
      </trkpt>
      <trkpt lat="45.86659" lon="4.71603">
        <ele>241.10379</ele>
        <time>2023-08-05T14:34:53.000Z</time>
      </trkpt>
      <trkpt lat="45.86656" lon="4.71597">
        <ele>241.10303</ele>
        <time>2023-08-05T14:34:54.000Z</time>
      </trkpt>
      <trkpt lat="45.86652" lon="4.71593">
        <ele>241.1095</ele>
        <time>2023-08-05T14:34:55.000Z</time>
      </trkpt>
      <trkpt lat="45.86648" lon="4.71587">
        <ele>241.13057</ele>
        <time>2023-08-05T14:34:56.000Z</time>
      </trkpt>
      <trkpt lat="45.86645" lon="4.71582">
        <ele>241.1438</ele>
        <time>2023-08-05T14:34:57.000Z</time>
      </trkpt>
      <trkpt lat="45.86641" lon="4.71577">
        <ele>241.17598</ele>
        <time>2023-08-05T14:34:58.000Z</time>
      </trkpt>
      <trkpt lat="45.86637" lon="4.71572">
        <ele>241.17842</ele>
        <time>2023-08-05T14:34:59.000Z</time>
      </trkpt>
      <trkpt lat="45.86633" lon="4.71567">
        <ele>241.1759</ele>
        <time>2023-08-05T14:35:00.000Z</time>
      </trkpt>
      <trkpt lat="45.8663" lon="4.71562">
        <ele>241.19345</ele>
        <time>2023-08-05T14:35:01.000Z</time>
      </trkpt>
      <trkpt lat="45.86626" lon="4.71557">
        <ele>241.2124</ele>
        <time>2023-08-05T14:35:02.000Z</time>
      </trkpt>
      <trkpt lat="45.86622" lon="4.71553">
        <ele>241.23726</ele>
        <time>2023-08-05T14:35:03.000Z</time>
      </trkpt>
      <trkpt lat="45.86619" lon="4.71547">
        <ele>241.26802</ele>
        <time>2023-08-05T14:35:04.000Z</time>
      </trkpt>
      <trkpt lat="45.86615" lon="4.71542">
        <ele>241.3024</ele>
        <time>2023-08-05T14:35:05.000Z</time>
      </trkpt>
      <trkpt lat="45.86612" lon="4.71537">
        <ele>241.34514</ele>
        <time>2023-08-05T14:35:06.000Z</time>
      </trkpt>
      <trkpt lat="45.86609" lon="4.71532">
        <ele>241.40276</ele>
        <time>2023-08-05T14:35:07.000Z</time>
      </trkpt>
      <trkpt lat="45.86605" lon="4.71527">
        <ele>241.4576</ele>
        <time>2023-08-05T14:35:08.000Z</time>
      </trkpt>
      <trkpt lat="45.86601" lon="4.71522">
        <ele>241.48164</ele>
        <time>2023-08-05T14:35:09.000Z</time>
      </trkpt>
      <trkpt lat="45.86598" lon="4.71518">
        <ele>241.5228</ele>
        <time>2023-08-05T14:35:10.000Z</time>
      </trkpt>
      <trkpt lat="45.86594" lon="4.71513">
        <ele>241.54849</ele>
        <time>2023-08-05T14:35:11.000Z</time>
      </trkpt>
      <trkpt lat="45.86591" lon="4.71508">
        <ele>241.58948</ele>
        <time>2023-08-05T14:35:12.000Z</time>
      </trkpt>
      <trkpt lat="45.86587" lon="4.71504">
        <ele>241.6246</ele>
        <time>2023-08-05T14:35:13.000Z</time>
      </trkpt>
      <trkpt lat="45.86584" lon="4.715">
        <ele>241.67679</ele>
        <time>2023-08-05T14:35:14.000Z</time>
      </trkpt>
      <trkpt lat="45.8658" lon="4.71497">
        <ele>241.7314</ele>
        <time>2023-08-05T14:35:15.000Z</time>
      </trkpt>
      <trkpt lat="45.86577" lon="4.71492">
        <ele>241.78792</ele>
        <time>2023-08-05T14:35:16.000Z</time>
      </trkpt>
      <trkpt lat="45.86574" lon="4.71488">
        <ele>241.84866</ele>
        <time>2023-08-05T14:35:17.000Z</time>
      </trkpt>
      <trkpt lat="45.86572" lon="4.71484">
        <ele>241.90625</ele>
        <time>2023-08-05T14:35:18.000Z</time>
      </trkpt>
      <trkpt lat="45.86569" lon="4.7148">
        <ele>241.97285</ele>
        <time>2023-08-05T14:35:19.000Z</time>
      </trkpt>
      <trkpt lat="45.86567" lon="4.71477">
        <ele>242.05075</ele>
        <time>2023-08-05T14:35:20.000Z</time>
      </trkpt>
      <trkpt lat="45.86565" lon="4.71474">
        <ele>242.10318</ele>
        <time>2023-08-05T14:35:21.000Z</time>
      </trkpt>
      <trkpt lat="45.86563" lon="4.71471">
        <ele>242.18863</ele>
        <time>2023-08-05T14:35:22.000Z</time>
      </trkpt>
      <trkpt lat="45.86562" lon="4.71468">
        <ele>242.29688</ele>
        <time>2023-08-05T14:35:23.000Z</time>
      </trkpt>
      <trkpt lat="45.8656" lon="4.71465">
        <ele>242.40137</ele>
        <time>2023-08-05T14:35:24.000Z</time>
      </trkpt>
      <trkpt lat="45.86557" lon="4.71462">
        <ele>242.50632</ele>
        <time>2023-08-05T14:35:25.000Z</time>
      </trkpt>
      <trkpt lat="45.86555" lon="4.71459">
        <ele>242.58578</ele>
        <time>2023-08-05T14:35:26.000Z</time>
      </trkpt>
      <trkpt lat="45.86552" lon="4.71456">
        <ele>242.67693</ele>
        <time>2023-08-05T14:35:27.000Z</time>
      </trkpt>
      <trkpt lat="45.8655" lon="4.71452">
        <ele>242.76009</ele>
        <time>2023-08-05T14:35:28.000Z</time>
      </trkpt>
      <trkpt lat="45.86547" lon="4.71448">
        <ele>242.84274</ele>
        <time>2023-08-05T14:35:29.000Z</time>
      </trkpt>
      <trkpt lat="45.86544" lon="4.71444">
        <ele>242.92448</ele>
        <time>2023-08-05T14:35:30.000Z</time>
      </trkpt>
      <trkpt lat="45.86541" lon="4.71441">
        <ele>243.00989</ele>
        <time>2023-08-05T14:35:31.000Z</time>
      </trkpt>
      <trkpt lat="45.86538" lon="4.71437">
        <ele>243.08736</ele>
        <time>2023-08-05T14:35:32.000Z</time>
      </trkpt>
      <trkpt lat="45.86535" lon="4.71433">
        <ele>243.16252</ele>
        <time>2023-08-05T14:35:33.000Z</time>
      </trkpt>
      <trkpt lat="45.86532" lon="4.71429">
        <ele>243.2115</ele>
        <time>2023-08-05T14:35:34.000Z</time>
      </trkpt>
      <trkpt lat="45.86528" lon="4.71424">
        <ele>243.23958</ele>
        <time>2023-08-05T14:35:35.000Z</time>
      </trkpt>
      <trkpt lat="45.86525" lon="4.71419">
        <ele>243.24178</ele>
        <time>2023-08-05T14:35:36.000Z</time>
      </trkpt>
      <trkpt lat="45.86522" lon="4.71415">
        <ele>243.25375</ele>
        <time>2023-08-05T14:35:37.000Z</time>
      </trkpt>
      <trkpt lat="45.86519" lon="4.71409">
        <ele>243.26346</ele>
        <time>2023-08-05T14:35:38.000Z</time>
      </trkpt>
      <trkpt lat="45.86515" lon="4.71405">
        <ele>243.27798</ele>
        <time>2023-08-05T14:35:39.000Z</time>
      </trkpt>
      <trkpt lat="45.86512" lon="4.714">
        <ele>243.27299</ele>
        <time>2023-08-05T14:35:40.000Z</time>
      </trkpt>
      <trkpt lat="45.86508" lon="4.71396">
        <ele>243.28299</ele>
        <time>2023-08-05T14:35:41.000Z</time>
      </trkpt>
      <trkpt lat="45.86504" lon="4.71391">
        <ele>243.28011</ele>
        <time>2023-08-05T14:35:42.000Z</time>
      </trkpt>
      <trkpt lat="45.865" lon="4.71386">
        <ele>243.25298</ele>
        <time>2023-08-05T14:35:43.000Z</time>
      </trkpt>
      <trkpt lat="45.86497" lon="4.71381">
        <ele>243.23706</ele>
        <time>2023-08-05T14:35:44.000Z</time>
      </trkpt>
      <trkpt lat="45.86494" lon="4.71376">
        <ele>243.22282</ele>
        <time>2023-08-05T14:35:45.000Z</time>
      </trkpt>
      <trkpt lat="45.8649" lon="4.71371">
        <ele>243.21638</ele>
        <time>2023-08-05T14:35:46.000Z</time>
      </trkpt>
      <trkpt lat="45.86486" lon="4.71367">
        <ele>243.19975</ele>
        <time>2023-08-05T14:35:47.000Z</time>
      </trkpt>
      <trkpt lat="45.86483" lon="4.71363">
        <ele>243.22141</ele>
        <time>2023-08-05T14:35:48.000Z</time>
      </trkpt>
      <trkpt lat="45.86479" lon="4.71357">
        <ele>243.23877</ele>
        <time>2023-08-05T14:35:49.000Z</time>
      </trkpt>
      <trkpt lat="45.86476" lon="4.71353">
        <ele>243.25375</ele>
        <time>2023-08-05T14:35:50.000Z</time>
      </trkpt>
      <trkpt lat="45.86472" lon="4.71348">
        <ele>243.30273</ele>
        <time>2023-08-05T14:35:51.000Z</time>
      </trkpt>
      <trkpt lat="45.86469" lon="4.71343">
        <ele>243.31894</ele>
        <time>2023-08-05T14:35:52.000Z</time>
      </trkpt>
      <trkpt lat="45.86465" lon="4.71338">
        <ele>243.35957</ele>
        <time>2023-08-05T14:35:53.000Z</time>
      </trkpt>
      <trkpt lat="45.86461" lon="4.71332">
        <ele>243.40836</ele>
        <time>2023-08-05T14:35:54.000Z</time>
      </trkpt>
      <trkpt lat="45.86458" lon="4.71328">
        <ele>243.46567</ele>
        <time>2023-08-05T14:35:55.000Z</time>
      </trkpt>
      <trkpt lat="45.86454" lon="4.71323">
        <ele>243.55103</ele>
        <time>2023-08-05T14:35:56.000Z</time>
      </trkpt>
      <trkpt lat="45.86451" lon="4.71319">
        <ele>243.62874</ele>
        <time>2023-08-05T14:35:57.000Z</time>
      </trkpt>
      <trkpt lat="45.86447" lon="4.71314">
        <ele>243.71272</ele>
        <time>2023-08-05T14:35:58.000Z</time>
      </trkpt>
      <trkpt lat="45.86444" lon="4.71309">
        <ele>243.8029</ele>
        <time>2023-08-05T14:35:59.000Z</time>
      </trkpt>
      <trkpt lat="45.86441" lon="4.71304">
        <ele>243.8956</ele>
        <time>2023-08-05T14:36:00.000Z</time>
      </trkpt>
      <trkpt lat="45.86437" lon="4.713">
        <ele>243.98877</ele>
        <time>2023-08-05T14:36:01.000Z</time>
      </trkpt>
      <trkpt lat="45.86434" lon="4.71295">
        <ele>244.08896</ele>
        <time>2023-08-05T14:36:02.000Z</time>
      </trkpt>
      <trkpt lat="45.86431" lon="4.71291">
        <ele>244.19792</ele>
        <time>2023-08-05T14:36:03.000Z</time>
      </trkpt>
      <trkpt lat="45.86427" lon="4.71285">
        <ele>244.31461</ele>
        <time>2023-08-05T14:36:04.000Z</time>
      </trkpt>
      <trkpt lat="45.86423" lon="4.7128">
        <ele>244.41484</ele>
        <time>2023-08-05T14:36:05.000Z</time>
      </trkpt>
      <trkpt lat="45.8642" lon="4.71276">
        <ele>244.49258</ele>
        <time>2023-08-05T14:36:06.000Z</time>
      </trkpt>
      <trkpt lat="45.86416" lon="4.71271">
        <ele>244.57536</ele>
        <time>2023-08-05T14:36:07.000Z</time>
      </trkpt>
      <trkpt lat="45.86413" lon="4.71265">
        <ele>244.64888</ele>
        <time>2023-08-05T14:36:08.000Z</time>
      </trkpt>
      <trkpt lat="45.86409" lon="4.7126">
        <ele>244.76254</ele>
        <time>2023-08-05T14:36:09.000Z</time>
      </trkpt>
      <trkpt lat="45.86405" lon="4.71254">
        <ele>244.87166</ele>
        <time>2023-08-05T14:36:10.000Z</time>
      </trkpt>
      <trkpt lat="45.86401" lon="4.7125">
        <ele>244.94719</ele>
        <time>2023-08-05T14:36:11.000Z</time>
      </trkpt>
      <trkpt lat="45.86398" lon="4.71245">
        <ele>245.04126</ele>
        <time>2023-08-05T14:36:12.000Z</time>
      </trkpt>
      <trkpt lat="45.86394" lon="4.71241">
        <ele>245.11736</ele>
        <time>2023-08-05T14:36:13.000Z</time>
      </trkpt>
      <trkpt lat="45.8639" lon="4.71236">
        <ele>245.18277</ele>
        <time>2023-08-05T14:36:14.000Z</time>
      </trkpt>
      <trkpt lat="45.86387" lon="4.71231">
        <ele>245.24345</ele>
        <time>2023-08-05T14:36:15.000Z</time>
      </trkpt>
      <trkpt lat="45.86384" lon="4.71225">
        <ele>245.26888</ele>
        <time>2023-08-05T14:36:16.000Z</time>
      </trkpt>
      <trkpt lat="45.8638" lon="4.7122">
        <ele>245.29277</ele>
        <time>2023-08-05T14:36:17.000Z</time>
      </trkpt>
      <trkpt lat="45.86377" lon="4.71214">
        <ele>245.32303</ele>
        <time>2023-08-05T14:36:18.000Z</time>
      </trkpt>
      <trkpt lat="45.86373" lon="4.71209">
        <ele>245.33682</ele>
        <time>2023-08-05T14:36:19.000Z</time>
      </trkpt>
      <trkpt lat="45.86369" lon="4.71205">
        <ele>245.35075</ele>
        <time>2023-08-05T14:36:20.000Z</time>
      </trkpt>
      <trkpt lat="45.86366" lon="4.712">
        <ele>245.34106</ele>
        <time>2023-08-05T14:36:21.000Z</time>
      </trkpt>
      <trkpt lat="45.86362" lon="4.71195">
        <ele>245.32495</ele>
        <time>2023-08-05T14:36:22.000Z</time>
      </trkpt>
      <trkpt lat="45.86358" lon="4.7119">
        <ele>245.29996</ele>
        <time>2023-08-05T14:36:23.000Z</time>
      </trkpt>
      <trkpt lat="45.86354" lon="4.71185">
        <ele>245.30997</ele>
        <time>2023-08-05T14:36:24.000Z</time>
      </trkpt>
      <trkpt lat="45.8635" lon="4.71179">
        <ele>245.31364</ele>
        <time>2023-08-05T14:36:25.000Z</time>
      </trkpt>
      <trkpt lat="45.86347" lon="4.71174">
        <ele>245.31921</ele>
        <time>2023-08-05T14:36:26.000Z</time>
      </trkpt>
      <trkpt lat="45.86343" lon="4.71169">
        <ele>245.3315</ele>
        <time>2023-08-05T14:36:27.000Z</time>
      </trkpt>
      <trkpt lat="45.8634" lon="4.71165">
        <ele>245.31821</ele>
        <time>2023-08-05T14:36:28.000Z</time>
      </trkpt>
      <trkpt lat="45.86336" lon="4.7116">
        <ele>245.30171</ele>
        <time>2023-08-05T14:36:29.000Z</time>
      </trkpt>
      <trkpt lat="45.86332" lon="4.71154">
        <ele>245.28259</ele>
        <time>2023-08-05T14:36:30.000Z</time>
      </trkpt>
      <trkpt lat="45.86328" lon="4.7115">
        <ele>245.23727</ele>
        <time>2023-08-05T14:36:31.000Z</time>
      </trkpt>
      <trkpt lat="45.86324" lon="4.71145">
        <ele>245.19856</ele>
        <time>2023-08-05T14:36:32.000Z</time>
      </trkpt>
      <trkpt lat="45.8632" lon="4.7114">
        <ele>245.21611</ele>
        <time>2023-08-05T14:36:33.000Z</time>
      </trkpt>
      <trkpt lat="45.86317" lon="4.71135">
        <ele>245.24214</ele>
        <time>2023-08-05T14:36:34.000Z</time>
      </trkpt>
      <trkpt lat="45.86313" lon="4.7113">
        <ele>245.2803</ele>
        <time>2023-08-05T14:36:35.000Z</time>
      </trkpt>
      <trkpt lat="45.86309" lon="4.71125">
        <ele>245.34219</ele>
        <time>2023-08-05T14:36:36.000Z</time>
      </trkpt>
      <trkpt lat="45.86305" lon="4.71121">
        <ele>245.37541</ele>
        <time>2023-08-05T14:36:37.000Z</time>
      </trkpt>
      <trkpt lat="45.86301" lon="4.71117">
        <ele>245.39865</ele>
        <time>2023-08-05T14:36:38.000Z</time>
      </trkpt>
      <trkpt lat="45.86298" lon="4.71111">
        <ele>245.43193</ele>
        <time>2023-08-05T14:36:39.000Z</time>
      </trkpt>
      <trkpt lat="45.86294" lon="4.71105">
        <ele>245.44307</ele>
        <time>2023-08-05T14:36:40.000Z</time>
      </trkpt>
      <trkpt lat="45.86291" lon="4.71099">
        <ele>245.46207</ele>
        <time>2023-08-05T14:36:41.000Z</time>
      </trkpt>
      <trkpt lat="45.86287" lon="4.71094">
        <ele>245.49187</ele>
        <time>2023-08-05T14:36:42.000Z</time>
      </trkpt>
      <trkpt lat="45.86284" lon="4.71089">
        <ele>245.49593</ele>
        <time>2023-08-05T14:36:43.000Z</time>
      </trkpt>
      <trkpt lat="45.86279" lon="4.71084">
        <ele>245.46123</ele>
        <time>2023-08-05T14:36:44.000Z</time>
      </trkpt>
      <trkpt lat="45.86276" lon="4.71079">
        <ele>245.46912</ele>
        <time>2023-08-05T14:36:45.000Z</time>
      </trkpt>
      <trkpt lat="45.86272" lon="4.71073">
        <ele>245.48917</ele>
        <time>2023-08-05T14:36:46.000Z</time>
      </trkpt>
      <trkpt lat="45.8627" lon="4.71066">
        <ele>245.46591</ele>
        <time>2023-08-05T14:36:47.000Z</time>
      </trkpt>
      <trkpt lat="45.86267" lon="4.7106">
        <ele>245.45901</ele>
        <time>2023-08-05T14:36:48.000Z</time>
      </trkpt>
      <trkpt lat="45.86265" lon="4.71053">
        <ele>245.43179</ele>
        <time>2023-08-05T14:36:49.000Z</time>
      </trkpt>
      <trkpt lat="45.86264" lon="4.71047">
        <ele>245.39444</ele>
        <time>2023-08-05T14:36:50.000Z</time>
      </trkpt>
      <trkpt lat="45.86263" lon="4.7104">
        <ele>245.38847</ele>
        <time>2023-08-05T14:36:51.000Z</time>
      </trkpt>
      <trkpt lat="45.86261" lon="4.71033">
        <ele>245.39294</ele>
        <time>2023-08-05T14:36:52.000Z</time>
      </trkpt>
      <trkpt lat="45.86258" lon="4.71027">
        <ele>245.34045</ele>
        <time>2023-08-05T14:36:53.000Z</time>
      </trkpt>
      <trkpt lat="45.86255" lon="4.71023">
        <ele>245.2832</ele>
        <time>2023-08-05T14:36:54.000Z</time>
      </trkpt>
      <trkpt lat="45.86252" lon="4.71018">
        <ele>245.21538</ele>
        <time>2023-08-05T14:36:55.000Z</time>
      </trkpt>
      <trkpt lat="45.86248" lon="4.71013">
        <ele>245.14761</ele>
        <time>2023-08-05T14:36:56.000Z</time>
      </trkpt>
      <trkpt lat="45.86245" lon="4.71008">
        <ele>245.10417</ele>
        <time>2023-08-05T14:36:57.000Z</time>
      </trkpt>
      <trkpt lat="45.86241" lon="4.71004">
        <ele>245.06314</ele>
        <time>2023-08-05T14:36:58.000Z</time>
      </trkpt>
      <trkpt lat="45.86237" lon="4.71001">
        <ele>245.02925</ele>
        <time>2023-08-05T14:36:59.000Z</time>
      </trkpt>
      <trkpt lat="45.86234" lon="4.70999">
        <ele>244.98868</ele>
        <time>2023-08-05T14:37:00.000Z</time>
      </trkpt>
      <trkpt lat="45.86229" lon="4.70998">
        <ele>244.94829</ele>
        <time>2023-08-05T14:37:01.000Z</time>
      </trkpt>
      <trkpt lat="45.86225" lon="4.70997">
        <ele>244.89851</ele>
        <time>2023-08-05T14:37:02.000Z</time>
      </trkpt>
      <trkpt lat="45.86222" lon="4.70999">
        <ele>244.91409</ele>
        <time>2023-08-05T14:37:03.000Z</time>
      </trkpt>
      <trkpt lat="45.86219" lon="4.71003">
        <ele>244.91495</ele>
        <time>2023-08-05T14:37:04.000Z</time>
      </trkpt>
      <trkpt lat="45.86216" lon="4.71007">
        <ele>244.90369</ele>
        <time>2023-08-05T14:37:05.000Z</time>
      </trkpt>
      <trkpt lat="45.86213" lon="4.71011">
        <ele>244.89819</ele>
        <time>2023-08-05T14:37:06.000Z</time>
      </trkpt>
      <trkpt lat="45.8621" lon="4.71014">
        <ele>244.92607</ele>
        <time>2023-08-05T14:37:07.000Z</time>
      </trkpt>
      <trkpt lat="45.86207" lon="4.71019">
        <ele>244.94775</ele>
        <time>2023-08-05T14:37:08.000Z</time>
      </trkpt>
      <trkpt lat="45.86203" lon="4.71023">
        <ele>244.97754</ele>
        <time>2023-08-05T14:37:09.000Z</time>
      </trkpt>
      <trkpt lat="45.86198" lon="4.71027">
        <ele>244.98396</ele>
        <time>2023-08-05T14:37:10.000Z</time>
      </trkpt>
      <trkpt lat="45.86194" lon="4.71031">
        <ele>244.98795</ele>
        <time>2023-08-05T14:37:11.000Z</time>
      </trkpt>
      <trkpt lat="45.86189" lon="4.71036">
        <ele>244.99361</ele>
        <time>2023-08-05T14:37:12.000Z</time>
      </trkpt>
      <trkpt lat="45.86185" lon="4.7104">
        <ele>244.99728</ele>
        <time>2023-08-05T14:37:13.000Z</time>
      </trkpt>
      <trkpt lat="45.8618" lon="4.71043">
        <ele>245.02534</ele>
        <time>2023-08-05T14:37:14.000Z</time>
      </trkpt>
      <trkpt lat="45.86176" lon="4.71045">
        <ele>245.01053</ele>
        <time>2023-08-05T14:37:15.000Z</time>
      </trkpt>
      <trkpt lat="45.86171" lon="4.71047">
        <ele>244.99875</ele>
        <time>2023-08-05T14:37:16.000Z</time>
      </trkpt>
      <trkpt lat="45.86166" lon="4.71048">
        <ele>244.98795</ele>
        <time>2023-08-05T14:37:17.000Z</time>
      </trkpt>
      <trkpt lat="45.86161" lon="4.71049">
        <ele>245.03218</ele>
        <time>2023-08-05T14:37:18.000Z</time>
      </trkpt>
      <trkpt lat="45.86157" lon="4.71049">
        <ele>245.01718</ele>
        <time>2023-08-05T14:37:19.000Z</time>
      </trkpt>
      <trkpt lat="45.86152" lon="4.71051">
        <ele>245.08076</ele>
        <time>2023-08-05T14:37:20.000Z</time>
      </trkpt>
      <trkpt lat="45.86147" lon="4.71053">
        <ele>245.16484</ele>
        <time>2023-08-05T14:37:21.000Z</time>
      </trkpt>
      <trkpt lat="45.86143" lon="4.71056">
        <ele>245.25793</ele>
        <time>2023-08-05T14:37:22.000Z</time>
      </trkpt>
      <trkpt lat="45.86138" lon="4.7106">
        <ele>245.31474</ele>
        <time>2023-08-05T14:37:23.000Z</time>
      </trkpt>
      <trkpt lat="45.86134" lon="4.71064">
        <ele>245.35783</ele>
        <time>2023-08-05T14:37:24.000Z</time>
      </trkpt>
      <trkpt lat="45.86131" lon="4.71069">
        <ele>245.39717</ele>
        <time>2023-08-05T14:37:25.000Z</time>
      </trkpt>
      <trkpt lat="45.86129" lon="4.71075">
        <ele>245.40901</ele>
        <time>2023-08-05T14:37:26.000Z</time>
      </trkpt>
      <trkpt lat="45.86126" lon="4.71081">
        <ele>245.41048</ele>
        <time>2023-08-05T14:37:27.000Z</time>
      </trkpt>
      <trkpt lat="45.86124" lon="4.71088">
        <ele>245.42661</ele>
        <time>2023-08-05T14:37:28.000Z</time>
      </trkpt>
      <trkpt lat="45.86121" lon="4.71094">
        <ele>245.4017</ele>
        <time>2023-08-05T14:37:29.000Z</time>
      </trkpt>
      <trkpt lat="45.86118" lon="4.711">
        <ele>245.38391</ele>
        <time>2023-08-05T14:37:30.000Z</time>
      </trkpt>
      <trkpt lat="45.86116" lon="4.71106">
        <ele>245.36421</ele>
        <time>2023-08-05T14:37:31.000Z</time>
      </trkpt>
      <trkpt lat="45.86113" lon="4.71113">
        <ele>245.33513</ele>
        <time>2023-08-05T14:37:32.000Z</time>
      </trkpt>
      <trkpt lat="45.86111" lon="4.71119">
        <ele>245.28865</ele>
        <time>2023-08-05T14:37:33.000Z</time>
      </trkpt>
      <trkpt lat="45.86108" lon="4.71125">
        <ele>245.19275</ele>
        <time>2023-08-05T14:37:34.000Z</time>
      </trkpt>
      <trkpt lat="45.86104" lon="4.7113">
        <ele>245.12321</ele>
        <time>2023-08-05T14:37:35.000Z</time>
      </trkpt>
      <trkpt lat="45.86101" lon="4.71135">
        <ele>245.05107</ele>
        <time>2023-08-05T14:37:36.000Z</time>
      </trkpt>
      <trkpt lat="45.86097" lon="4.7114">
        <ele>245.01566</ele>
        <time>2023-08-05T14:37:37.000Z</time>
      </trkpt>
      <trkpt lat="45.86093" lon="4.71145">
        <ele>244.91751</ele>
        <time>2023-08-05T14:37:38.000Z</time>
      </trkpt>
      <trkpt lat="45.86089" lon="4.71144">
        <ele>244.92203</ele>
        <time>2023-08-05T14:37:39.000Z</time>
      </trkpt>
      <trkpt lat="45.86085" lon="4.71144">
        <ele>244.8804</ele>
        <time>2023-08-05T14:37:40.000Z</time>
      </trkpt>
      <trkpt lat="45.86081" lon="4.71141">
        <ele>244.82085</ele>
        <time>2023-08-05T14:37:41.000Z</time>
      </trkpt>
      <trkpt lat="45.86078" lon="4.71137">
        <ele>244.76013</ele>
        <time>2023-08-05T14:37:42.000Z</time>
      </trkpt>
      <trkpt lat="45.86074" lon="4.71134">
        <ele>244.68594</ele>
        <time>2023-08-05T14:37:43.000Z</time>
      </trkpt>
      <trkpt lat="45.8607" lon="4.71132">
        <ele>244.63931</ele>
        <time>2023-08-05T14:37:44.000Z</time>
      </trkpt>
      <trkpt lat="45.86067" lon="4.71128">
        <ele>244.57173</ele>
        <time>2023-08-05T14:37:45.000Z</time>
      </trkpt>
      <trkpt lat="45.86064" lon="4.71125">
        <ele>244.4924</ele>
        <time>2023-08-05T14:37:46.000Z</time>
      </trkpt>
      <trkpt lat="45.8606" lon="4.71121">
        <ele>244.42239</ele>
        <time>2023-08-05T14:37:47.000Z</time>
      </trkpt>
      <trkpt lat="45.86056" lon="4.71117">
        <ele>244.41821</ele>
        <time>2023-08-05T14:37:48.000Z</time>
      </trkpt>
      <trkpt lat="45.86054" lon="4.71113">
        <ele>244.43523</ele>
        <time>2023-08-05T14:37:49.000Z</time>
      </trkpt>
      <trkpt lat="45.8605" lon="4.71108">
        <ele>244.48763</ele>
        <time>2023-08-05T14:37:50.000Z</time>
      </trkpt>
      <trkpt lat="45.86048" lon="4.71103">
        <ele>244.53401</ele>
        <time>2023-08-05T14:37:51.000Z</time>
      </trkpt>
      <trkpt lat="45.86046" lon="4.71098">
        <ele>244.57108</ele>
        <time>2023-08-05T14:37:52.000Z</time>
      </trkpt>
      <trkpt lat="45.86044" lon="4.71095">
        <ele>244.61612</ele>
        <time>2023-08-05T14:37:53.000Z</time>
      </trkpt>
      <trkpt lat="45.86042" lon="4.71093">
        <ele>244.65556</ele>
        <time>2023-08-05T14:37:54.000Z</time>
      </trkpt>
      <trkpt lat="45.86043" lon="4.71098">
        <ele>244.72099</ele>
        <time>2023-08-05T14:37:55.000Z</time>
      </trkpt>
      <trkpt lat="45.86045" lon="4.711">
        <ele>244.79915</ele>
        <time>2023-08-05T14:37:56.000Z</time>
      </trkpt>
      <trkpt lat="45.86048" lon="4.71103">
        <ele>244.85464</ele>
        <time>2023-08-05T14:37:57.000Z</time>
      </trkpt>
      <trkpt lat="45.8605" lon="4.71106">
        <ele>244.91414</ele>
        <time>2023-08-05T14:37:58.000Z</time>
      </trkpt>
      <trkpt lat="45.86052" lon="4.71109">
        <ele>244.93271</ele>
        <time>2023-08-05T14:37:59.000Z</time>
      </trkpt>
      <trkpt lat="45.86055" lon="4.71113">
        <ele>244.93494</ele>
        <time>2023-08-05T14:38:00.000Z</time>
      </trkpt>
      <trkpt lat="45.86058" lon="4.71116">
        <ele>244.9277</ele>
        <time>2023-08-05T14:38:01.000Z</time>
      </trkpt>
      <trkpt lat="45.86061" lon="4.7112">
        <ele>244.87891</ele>
        <time>2023-08-05T14:38:02.000Z</time>
      </trkpt>
      <trkpt lat="45.86065" lon="4.71124">
        <ele>244.84831</ele>
        <time>2023-08-05T14:38:03.000Z</time>
      </trkpt>
      <trkpt lat="45.86068" lon="4.71128">
        <ele>244.87122</ele>
        <time>2023-08-05T14:38:04.000Z</time>
      </trkpt>
      <trkpt lat="45.86072" lon="4.71131">
        <ele>244.86751</ele>
        <time>2023-08-05T14:38:05.000Z</time>
      </trkpt>
      <trkpt lat="45.86075" lon="4.71134">
        <ele>244.8945</ele>
        <time>2023-08-05T14:38:06.000Z</time>
      </trkpt>
      <trkpt lat="45.86079" lon="4.71137">
        <ele>244.94003</ele>
        <time>2023-08-05T14:38:07.000Z</time>
      </trkpt>
      <trkpt lat="45.86083" lon="4.7114">
        <ele>244.89432</ele>
        <time>2023-08-05T14:38:08.000Z</time>
      </trkpt>
      <trkpt lat="45.86086" lon="4.71143">
        <ele>244.86023</ele>
        <time>2023-08-05T14:38:09.000Z</time>
      </trkpt>
      <trkpt lat="45.86088" lon="4.71149">
        <ele>244.84079</ele>
        <time>2023-08-05T14:38:10.000Z</time>
      </trkpt>
      <trkpt lat="45.86089" lon="4.71155">
        <ele>244.81653</ele>
        <time>2023-08-05T14:38:11.000Z</time>
      </trkpt>
      <trkpt lat="45.86089" lon="4.7116">
        <ele>244.80376</ele>
        <time>2023-08-05T14:38:12.000Z</time>
      </trkpt>
      <trkpt lat="45.86088" lon="4.71166">
        <ele>244.80789</ele>
        <time>2023-08-05T14:38:13.000Z</time>
      </trkpt>
      <trkpt lat="45.86088" lon="4.71172">
        <ele>244.85152</ele>
        <time>2023-08-05T14:38:14.000Z</time>
      </trkpt>
      <trkpt lat="45.86087" lon="4.71178">
        <ele>244.89644</ele>
        <time>2023-08-05T14:38:15.000Z</time>
      </trkpt>
      <trkpt lat="45.86085" lon="4.71183">
        <ele>244.88533</ele>
        <time>2023-08-05T14:38:16.000Z</time>
      </trkpt>
      <trkpt lat="45.86085" lon="4.7119">
        <ele>244.91769</ele>
        <time>2023-08-05T14:38:17.000Z</time>
      </trkpt>
      <trkpt lat="45.86084" lon="4.71194">
        <ele>244.96684</ele>
        <time>2023-08-05T14:38:18.000Z</time>
      </trkpt>
      <trkpt lat="45.86083" lon="4.71198">
        <ele>245.00623</ele>
        <time>2023-08-05T14:38:19.000Z</time>
      </trkpt>
      <trkpt lat="45.86083" lon="4.71202">
        <ele>245.07219</ele>
        <time>2023-08-05T14:38:20.000Z</time>
      </trkpt>
      <trkpt lat="45.86085" lon="4.71205">
        <ele>245.13025</ele>
        <time>2023-08-05T14:38:21.000Z</time>
      </trkpt>
      <trkpt lat="45.86083" lon="4.71216">
        <ele>245.21707</ele>
        <time>2023-08-05T14:38:22.000Z</time>
      </trkpt>
      <trkpt lat="45.86083" lon="4.71224">
        <ele>245.29263</ele>
        <time>2023-08-05T14:38:23.000Z</time>
      </trkpt>
      <trkpt lat="45.86084" lon="4.71233">
        <ele>245.30283</ele>
        <time>2023-08-05T14:38:24.000Z</time>
      </trkpt>
      <trkpt lat="45.86083" lon="4.7124">
        <ele>245.36104</ele>
        <time>2023-08-05T14:38:25.000Z</time>
      </trkpt>
      <trkpt lat="45.8608" lon="4.71248">
        <ele>245.4323</ele>
        <time>2023-08-05T14:38:26.000Z</time>
      </trkpt>
      <trkpt lat="45.86077" lon="4.71251">
        <ele>245.45609</ele>
        <time>2023-08-05T14:38:27.000Z</time>
      </trkpt>
      <trkpt lat="45.86073" lon="4.71256">
        <ele>245.46133</ele>
        <time>2023-08-05T14:38:28.000Z</time>
      </trkpt>
      <trkpt lat="45.86068" lon="4.7126">
        <ele>245.46762</ele>
        <time>2023-08-05T14:38:29.000Z</time>
      </trkpt>
      <trkpt lat="45.86065" lon="4.71261">
        <ele>245.44626</ele>
        <time>2023-08-05T14:38:30.000Z</time>
      </trkpt>
      <trkpt lat="45.8606" lon="4.71262">
        <ele>245.41934</ele>
        <time>2023-08-05T14:38:31.000Z</time>
      </trkpt>
      <trkpt lat="45.86056" lon="4.71262">
        <ele>245.38196</ele>
        <time>2023-08-05T14:38:32.000Z</time>
      </trkpt>
      <trkpt lat="45.8605" lon="4.71263">
        <ele>245.32063</ele>
        <time>2023-08-05T14:38:33.000Z</time>
      </trkpt>
      <trkpt lat="45.86045" lon="4.71263">
        <ele>245.22937</ele>
        <time>2023-08-05T14:38:34.000Z</time>
      </trkpt>
      <trkpt lat="45.8604" lon="4.71262">
        <ele>245.12766</ele>
        <time>2023-08-05T14:38:35.000Z</time>
      </trkpt>
      <trkpt lat="45.86036" lon="4.71258">
        <ele>245.09375</ele>
        <time>2023-08-05T14:38:36.000Z</time>
      </trkpt>
      <trkpt lat="45.86031" lon="4.71256">
        <ele>245.01689</ele>
        <time>2023-08-05T14:38:37.000Z</time>
      </trkpt>
      <trkpt lat="45.86028" lon="4.71254">
        <ele>244.89926</ele>
        <time>2023-08-05T14:38:38.000Z</time>
      </trkpt>
      <trkpt lat="45.86023" lon="4.71251">
        <ele>244.81494</ele>
        <time>2023-08-05T14:38:39.000Z</time>
      </trkpt>
      <trkpt lat="45.86018" lon="4.71249">
        <ele>244.72588</ele>
        <time>2023-08-05T14:38:40.000Z</time>
      </trkpt>
      <trkpt lat="45.86014" lon="4.71247">
        <ele>244.66391</ele>
        <time>2023-08-05T14:38:41.000Z</time>
      </trkpt>
      <trkpt lat="45.8601" lon="4.71245">
        <ele>244.61349</ele>
        <time>2023-08-05T14:38:42.000Z</time>
      </trkpt>
      <trkpt lat="45.86004" lon="4.71242">
        <ele>244.5842</ele>
        <time>2023-08-05T14:38:43.000Z</time>
      </trkpt>
      <trkpt lat="45.86" lon="4.7124">
        <ele>244.55325</ele>
        <time>2023-08-05T14:38:44.000Z</time>
      </trkpt>
      <trkpt lat="45.85995" lon="4.71239">
        <ele>244.51543</ele>
        <time>2023-08-05T14:38:45.000Z</time>
      </trkpt>
      <trkpt lat="45.8599" lon="4.71237">
        <ele>244.49553</ele>
        <time>2023-08-05T14:38:46.000Z</time>
      </trkpt>
      <trkpt lat="45.85985" lon="4.71236">
        <ele>244.50371</ele>
        <time>2023-08-05T14:38:47.000Z</time>
      </trkpt>
      <trkpt lat="45.85981" lon="4.71234">
        <ele>244.56363</ele>
        <time>2023-08-05T14:38:48.000Z</time>
      </trkpt>
      <trkpt lat="45.85976" lon="4.71232">
        <ele>244.62692</ele>
        <time>2023-08-05T14:38:49.000Z</time>
      </trkpt>
      <trkpt lat="45.85973" lon="4.71231">
        <ele>244.67036</ele>
        <time>2023-08-05T14:38:50.000Z</time>
      </trkpt>
      <trkpt lat="45.85967" lon="4.7123">
        <ele>244.71912</ele>
        <time>2023-08-05T14:38:51.000Z</time>
      </trkpt>
      <trkpt lat="45.85962" lon="4.71228">
        <ele>244.78415</ele>
        <time>2023-08-05T14:38:52.000Z</time>
      </trkpt>
      <trkpt lat="45.85958" lon="4.71227">
        <ele>244.8584</ele>
        <time>2023-08-05T14:38:53.000Z</time>
      </trkpt>
      <trkpt lat="45.85952" lon="4.71226">
        <ele>244.98064</ele>
        <time>2023-08-05T14:38:54.000Z</time>
      </trkpt>
      <trkpt lat="45.85949" lon="4.71227">
        <ele>245.10515</ele>
        <time>2023-08-05T14:38:55.000Z</time>
      </trkpt>
      <trkpt lat="45.85944" lon="4.71225">
        <ele>245.17574</ele>
        <time>2023-08-05T14:38:56.000Z</time>
      </trkpt>
      <trkpt lat="45.85939" lon="4.71223">
        <ele>245.25143</ele>
        <time>2023-08-05T14:38:57.000Z</time>
      </trkpt>
      <trkpt lat="45.85934" lon="4.71222">
        <ele>245.34842</ele>
        <time>2023-08-05T14:38:58.000Z</time>
      </trkpt>
      <trkpt lat="45.85929" lon="4.71221">
        <ele>245.40422</ele>
        <time>2023-08-05T14:38:59.000Z</time>
      </trkpt>
      <trkpt lat="45.85925" lon="4.7122">
        <ele>245.45821</ele>
        <time>2023-08-05T14:39:00.000Z</time>
      </trkpt>
      <trkpt lat="45.8592" lon="4.7122">
        <ele>245.49077</ele>
        <time>2023-08-05T14:39:01.000Z</time>
      </trkpt>
      <trkpt lat="45.85916" lon="4.71219">
        <ele>245.50044</ele>
        <time>2023-08-05T14:39:02.000Z</time>
      </trkpt>
      <trkpt lat="45.85913" lon="4.71219">
        <ele>245.53345</ele>
        <time>2023-08-05T14:39:03.000Z</time>
      </trkpt>
      <trkpt lat="45.85908" lon="4.71218">
        <ele>245.58459</ele>
        <time>2023-08-05T14:39:04.000Z</time>
      </trkpt>
      <trkpt lat="45.85903" lon="4.71218">
        <ele>245.6385</ele>
        <time>2023-08-05T14:39:05.000Z</time>
      </trkpt>
      <trkpt lat="45.85899" lon="4.71218">
        <ele>245.65425</ele>
        <time>2023-08-05T14:39:06.000Z</time>
      </trkpt>
      <trkpt lat="45.85895" lon="4.71217">
        <ele>245.68762</ele>
        <time>2023-08-05T14:39:07.000Z</time>
      </trkpt>
      <trkpt lat="45.8589" lon="4.71216">
        <ele>245.69736</ele>
        <time>2023-08-05T14:39:08.000Z</time>
      </trkpt>
      <trkpt lat="45.85886" lon="4.71215">
        <ele>245.71736</ele>
        <time>2023-08-05T14:39:09.000Z</time>
      </trkpt>
      <trkpt lat="45.85881" lon="4.71214">
        <ele>245.7684</ele>
        <time>2023-08-05T14:39:10.000Z</time>
      </trkpt>
      <trkpt lat="45.85877" lon="4.71214">
        <ele>245.85332</ele>
        <time>2023-08-05T14:39:11.000Z</time>
      </trkpt>
      <trkpt lat="45.85873" lon="4.71214">
        <ele>245.95078</ele>
        <time>2023-08-05T14:39:12.000Z</time>
      </trkpt>
      <trkpt lat="45.8587" lon="4.71214">
        <ele>246.08578</ele>
        <time>2023-08-05T14:39:13.000Z</time>
      </trkpt>
      <trkpt lat="45.85867" lon="4.71215">
        <ele>246.18985</ele>
        <time>2023-08-05T14:39:14.000Z</time>
      </trkpt>
      <trkpt lat="45.85863" lon="4.71216">
        <ele>246.30481</ele>
        <time>2023-08-05T14:39:15.000Z</time>
      </trkpt>
      <trkpt lat="45.8586" lon="4.71217">
        <ele>246.4117</ele>
        <time>2023-08-05T14:39:16.000Z</time>
      </trkpt>
      <trkpt lat="45.85856" lon="4.71218">
        <ele>246.50586</ele>
        <time>2023-08-05T14:39:17.000Z</time>
      </trkpt>
      <trkpt lat="45.85853" lon="4.71219">
        <ele>246.62578</ele>
        <time>2023-08-05T14:39:18.000Z</time>
      </trkpt>
      <trkpt lat="45.8585" lon="4.7122">
        <ele>246.77625</ele>
        <time>2023-08-05T14:39:19.000Z</time>
      </trkpt>
      <trkpt lat="45.85847" lon="4.71222">
        <ele>246.92105</ele>
        <time>2023-08-05T14:39:20.000Z</time>
      </trkpt>
      <trkpt lat="45.85843" lon="4.71223">
        <ele>247.11406</ele>
        <time>2023-08-05T14:39:21.000Z</time>
      </trkpt>
      <trkpt lat="45.8584" lon="4.71225">
        <ele>247.31087</ele>
        <time>2023-08-05T14:39:22.000Z</time>
      </trkpt>
      <trkpt lat="45.85837" lon="4.71226">
        <ele>247.47495</ele>
        <time>2023-08-05T14:39:23.000Z</time>
      </trkpt>
      <trkpt lat="45.85834" lon="4.71227">
        <ele>247.61723</ele>
        <time>2023-08-05T14:39:24.000Z</time>
      </trkpt>
      <trkpt lat="45.85831" lon="4.71229">
        <ele>247.7664</ele>
        <time>2023-08-05T14:39:25.000Z</time>
      </trkpt>
      <trkpt lat="45.85827" lon="4.71231">
        <ele>247.93547</ele>
        <time>2023-08-05T14:39:26.000Z</time>
      </trkpt>
      <trkpt lat="45.85824" lon="4.71234">
        <ele>248.09018</ele>
        <time>2023-08-05T14:39:27.000Z</time>
      </trkpt>
      <trkpt lat="45.85821" lon="4.71236">
        <ele>248.25179</ele>
        <time>2023-08-05T14:39:28.000Z</time>
      </trkpt>
      <trkpt lat="45.85817" lon="4.71237">
        <ele>248.40274</ele>
        <time>2023-08-05T14:39:29.000Z</time>
      </trkpt>
      <trkpt lat="45.85813" lon="4.71237">
        <ele>248.52946</ele>
        <time>2023-08-05T14:39:30.000Z</time>
      </trkpt>
      <trkpt lat="45.85809" lon="4.71236">
        <ele>248.59465</ele>
        <time>2023-08-05T14:39:31.000Z</time>
      </trkpt>
      <trkpt lat="45.85806" lon="4.71232">
        <ele>248.64673</ele>
        <time>2023-08-05T14:39:32.000Z</time>
      </trkpt>
      <trkpt lat="45.85803" lon="4.71226">
        <ele>248.66792</ele>
        <time>2023-08-05T14:39:33.000Z</time>
      </trkpt>
      <trkpt lat="45.85802" lon="4.71221">
        <ele>248.69492</ele>
        <time>2023-08-05T14:39:34.000Z</time>
      </trkpt>
      <trkpt lat="45.858" lon="4.71216">
        <ele>248.71396</ele>
        <time>2023-08-05T14:39:35.000Z</time>
      </trkpt>
      <trkpt lat="45.85799" lon="4.7121">
        <ele>248.75862</ele>
        <time>2023-08-05T14:39:36.000Z</time>
      </trkpt>
      <trkpt lat="45.85797" lon="4.71205">
        <ele>248.8145</ele>
        <time>2023-08-05T14:39:37.000Z</time>
      </trkpt>
      <trkpt lat="45.85796" lon="4.71199">
        <ele>248.83594</ele>
        <time>2023-08-05T14:39:38.000Z</time>
      </trkpt>
      <trkpt lat="45.85794" lon="4.71194">
        <ele>248.82004</ele>
        <time>2023-08-05T14:39:39.000Z</time>
      </trkpt>
      <trkpt lat="45.85792" lon="4.7119">
        <ele>248.77177</ele>
        <time>2023-08-05T14:39:40.000Z</time>
      </trkpt>
      <trkpt lat="45.85789" lon="4.71186">
        <ele>248.68863</ele>
        <time>2023-08-05T14:39:41.000Z</time>
      </trkpt>
      <trkpt lat="45.85786" lon="4.71183">
        <ele>248.58591</ele>
        <time>2023-08-05T14:39:42.000Z</time>
      </trkpt>
      <trkpt lat="45.85783" lon="4.71179">
        <ele>248.48746</ele>
        <time>2023-08-05T14:39:43.000Z</time>
      </trkpt>
      <trkpt lat="45.8578" lon="4.71176">
        <ele>248.42525</ele>
        <time>2023-08-05T14:39:44.000Z</time>
      </trkpt>
      <trkpt lat="45.85777" lon="4.71172">
        <ele>248.36096</ele>
        <time>2023-08-05T14:39:45.000Z</time>
      </trkpt>
      <trkpt lat="45.85774" lon="4.71168">
        <ele>248.29826</ele>
        <time>2023-08-05T14:39:46.000Z</time>
      </trkpt>
      <trkpt lat="45.85771" lon="4.71164">
        <ele>248.24905</ele>
        <time>2023-08-05T14:39:47.000Z</time>
      </trkpt>
      <trkpt lat="45.85769" lon="4.7116">
        <ele>248.20976</ele>
        <time>2023-08-05T14:39:48.000Z</time>
      </trkpt>
      <trkpt lat="45.85767" lon="4.71155">
        <ele>248.19438</ele>
        <time>2023-08-05T14:39:49.000Z</time>
      </trkpt>
      <trkpt lat="45.85765" lon="4.7115">
        <ele>248.23079</ele>
        <time>2023-08-05T14:39:50.000Z</time>
      </trkpt>
      <trkpt lat="45.85764" lon="4.71144">
        <ele>248.31223</ele>
        <time>2023-08-05T14:39:51.000Z</time>
      </trkpt>
      <trkpt lat="45.85762" lon="4.71139">
        <ele>248.40645</ele>
        <time>2023-08-05T14:39:52.000Z</time>
      </trkpt>
      <trkpt lat="45.8576" lon="4.71135">
        <ele>248.51225</ele>
        <time>2023-08-05T14:39:53.000Z</time>
      </trkpt>
      <trkpt lat="45.85758" lon="4.7113">
        <ele>248.62082</ele>
        <time>2023-08-05T14:39:54.000Z</time>
      </trkpt>
      <trkpt lat="45.85755" lon="4.71126">
        <ele>248.74683</ele>
        <time>2023-08-05T14:39:55.000Z</time>
      </trkpt>
      <trkpt lat="45.85751" lon="4.71123">
        <ele>248.91179</ele>
        <time>2023-08-05T14:39:56.000Z</time>
      </trkpt>
      <trkpt lat="45.85747" lon="4.71119">
        <ele>249.07593</ele>
        <time>2023-08-05T14:39:57.000Z</time>
      </trkpt>
      <trkpt lat="45.85744" lon="4.71116">
        <ele>249.27579</ele>
        <time>2023-08-05T14:39:58.000Z</time>
      </trkpt>
      <trkpt lat="45.85741" lon="4.71113">
        <ele>249.50613</ele>
        <time>2023-08-05T14:39:59.000Z</time>
      </trkpt>
      <trkpt lat="45.85737" lon="4.7111">
        <ele>249.79904</ele>
        <time>2023-08-05T14:40:00.000Z</time>
      </trkpt>
      <trkpt lat="45.85733" lon="4.71108">
        <ele>250.12801</ele>
        <time>2023-08-05T14:40:01.000Z</time>
      </trkpt>
      <trkpt lat="45.8573" lon="4.71106">
        <ele>250.47017</ele>
        <time>2023-08-05T14:40:02.000Z</time>
      </trkpt>
      <trkpt lat="45.85726" lon="4.71103">
        <ele>250.82101</ele>
        <time>2023-08-05T14:40:03.000Z</time>
      </trkpt>
      <trkpt lat="45.85723" lon="4.711">
        <ele>251.17366</ele>
        <time>2023-08-05T14:40:04.000Z</time>
      </trkpt>
      <trkpt lat="45.85719" lon="4.71097">
        <ele>251.52737</ele>
        <time>2023-08-05T14:40:05.000Z</time>
      </trkpt>
      <trkpt lat="45.85716" lon="4.71094">
        <ele>251.87712</ele>
        <time>2023-08-05T14:40:06.000Z</time>
      </trkpt>
      <trkpt lat="45.85713" lon="4.71091">
        <ele>252.22351</ele>
        <time>2023-08-05T14:40:07.000Z</time>
      </trkpt>
      <trkpt lat="45.85709" lon="4.71088">
        <ele>252.56229</ele>
        <time>2023-08-05T14:40:08.000Z</time>
      </trkpt>
      <trkpt lat="45.85706" lon="4.71085">
        <ele>252.88228</ele>
        <time>2023-08-05T14:40:09.000Z</time>
      </trkpt>
      <trkpt lat="45.85703" lon="4.71082">
        <ele>253.17635</ele>
        <time>2023-08-05T14:40:10.000Z</time>
      </trkpt>
      <trkpt lat="45.85699" lon="4.71079">
        <ele>253.40205</ele>
        <time>2023-08-05T14:40:11.000Z</time>
      </trkpt>
      <trkpt lat="45.85696" lon="4.71076">
        <ele>253.597</ele>
        <time>2023-08-05T14:40:12.000Z</time>
      </trkpt>
      <trkpt lat="45.85692" lon="4.71073">
        <ele>253.98843</ele>
        <time>2023-08-05T14:40:13.000Z</time>
      </trkpt>
      <trkpt lat="45.85689" lon="4.7107">
        <ele>254.35471</ele>
        <time>2023-08-05T14:40:14.000Z</time>
      </trkpt>
      <trkpt lat="45.85685" lon="4.71068">
        <ele>254.72075</ele>
        <time>2023-08-05T14:40:15.000Z</time>
      </trkpt>
      <trkpt lat="45.85681" lon="4.71065">
        <ele>255.06514</ele>
        <time>2023-08-05T14:40:16.000Z</time>
      </trkpt>
      <trkpt lat="45.85678" lon="4.71063">
        <ele>255.40581</ele>
        <time>2023-08-05T14:40:17.000Z</time>
      </trkpt>
      <trkpt lat="45.85675" lon="4.7106">
        <ele>255.73645</ele>
        <time>2023-08-05T14:40:18.000Z</time>
      </trkpt>
      <trkpt lat="45.85672" lon="4.71058">
        <ele>256.04755</ele>
        <time>2023-08-05T14:40:19.000Z</time>
      </trkpt>
      <trkpt lat="45.85669" lon="4.71056">
        <ele>256.32635</ele>
        <time>2023-08-05T14:40:20.000Z</time>
      </trkpt>
      <trkpt lat="45.85666" lon="4.71054">
        <ele>256.55585</ele>
        <time>2023-08-05T14:40:21.000Z</time>
      </trkpt>
      <trkpt lat="45.85663" lon="4.71052">
        <ele>256.81293</ele>
        <time>2023-08-05T14:40:22.000Z</time>
      </trkpt>
      <trkpt lat="45.8566" lon="4.7105">
        <ele>256.95456</ele>
        <time>2023-08-05T14:40:23.000Z</time>
      </trkpt>
      <trkpt lat="45.85657" lon="4.71049">
        <ele>257.08197</ele>
        <time>2023-08-05T14:40:24.000Z</time>
      </trkpt>
      <trkpt lat="45.85654" lon="4.71047">
        <ele>257.21222</ele>
        <time>2023-08-05T14:40:25.000Z</time>
      </trkpt>
      <trkpt lat="45.85651" lon="4.71045">
        <ele>257.34692</ele>
        <time>2023-08-05T14:40:26.000Z</time>
      </trkpt>
      <trkpt lat="45.85648" lon="4.71044">
        <ele>257.47275</ele>
        <time>2023-08-05T14:40:27.000Z</time>
      </trkpt>
      <trkpt lat="45.85645" lon="4.71043">
        <ele>257.61502</ele>
        <time>2023-08-05T14:40:28.000Z</time>
      </trkpt>
      <trkpt lat="45.85642" lon="4.71042">
        <ele>257.75531</ele>
        <time>2023-08-05T14:40:29.000Z</time>
      </trkpt>
      <trkpt lat="45.85639" lon="4.71039">
        <ele>257.89252</ele>
        <time>2023-08-05T14:40:30.000Z</time>
      </trkpt>
      <trkpt lat="45.85636" lon="4.71037">
        <ele>258.0979</ele>
        <time>2023-08-05T14:40:31.000Z</time>
      </trkpt>
      <trkpt lat="45.85633" lon="4.71035">
        <ele>258.31772</ele>
        <time>2023-08-05T14:40:32.000Z</time>
      </trkpt>
      <trkpt lat="45.8563" lon="4.71032">
        <ele>258.32507</ele>
        <time>2023-08-05T14:40:33.000Z</time>
      </trkpt>
      <trkpt lat="45.85628" lon="4.71029">
        <ele>258.36023</ele>
        <time>2023-08-05T14:40:34.000Z</time>
      </trkpt>
      <trkpt lat="45.85625" lon="4.71026">
        <ele>258.35535</ele>
        <time>2023-08-05T14:40:35.000Z</time>
      </trkpt>
      <trkpt lat="45.85623" lon="4.71023">
        <ele>258.36005</ele>
        <time>2023-08-05T14:40:36.000Z</time>
      </trkpt>
      <trkpt lat="45.85621" lon="4.71019">
        <ele>258.34677</ele>
        <time>2023-08-05T14:40:37.000Z</time>
      </trkpt>
      <trkpt lat="45.85619" lon="4.71016">
        <ele>258.32605</ele>
        <time>2023-08-05T14:40:38.000Z</time>
      </trkpt>
      <trkpt lat="45.85616" lon="4.71012">
        <ele>258.31952</ele>
        <time>2023-08-05T14:40:39.000Z</time>
      </trkpt>
      <trkpt lat="45.85614" lon="4.71009">
        <ele>258.32703</ele>
        <time>2023-08-05T14:40:40.000Z</time>
      </trkpt>
      <trkpt lat="45.85612" lon="4.71007">
        <ele>258.36343</ele>
        <time>2023-08-05T14:40:41.000Z</time>
      </trkpt>
      <trkpt lat="45.85611" lon="4.71004">
        <ele>258.38794</ele>
        <time>2023-08-05T14:40:42.000Z</time>
      </trkpt>
      <trkpt lat="45.85609" lon="4.71001">
        <ele>258.51578</ele>
        <time>2023-08-05T14:40:43.000Z</time>
      </trkpt>
      <trkpt lat="45.85607" lon="4.70998">
        <ele>258.64197</ele>
        <time>2023-08-05T14:40:44.000Z</time>
      </trkpt>
      <trkpt lat="45.85605" lon="4.70995">
        <ele>258.74722</ele>
        <time>2023-08-05T14:40:45.000Z</time>
      </trkpt>
      <trkpt lat="45.85603" lon="4.70992">
        <ele>258.85434</ele>
        <time>2023-08-05T14:40:46.000Z</time>
      </trkpt>
      <trkpt lat="45.85601" lon="4.70989">
        <ele>258.97858</ele>
        <time>2023-08-05T14:40:47.000Z</time>
      </trkpt>
      <trkpt lat="45.85599" lon="4.70986">
        <ele>259.07468</ele>
        <time>2023-08-05T14:40:48.000Z</time>
      </trkpt>
      <trkpt lat="45.85596" lon="4.70983">
        <ele>259.17703</ele>
        <time>2023-08-05T14:40:49.000Z</time>
      </trkpt>
      <trkpt lat="45.85594" lon="4.70981">
        <ele>259.28275</ele>
        <time>2023-08-05T14:40:50.000Z</time>
      </trkpt>
      <trkpt lat="45.85591" lon="4.70979">
        <ele>259.37567</ele>
        <time>2023-08-05T14:40:51.000Z</time>
      </trkpt>
      <trkpt lat="45.85588" lon="4.70976">
        <ele>259.44403</ele>
        <time>2023-08-05T14:40:52.000Z</time>
      </trkpt>
      <trkpt lat="45.85585" lon="4.70974">
        <ele>259.53323</ele>
        <time>2023-08-05T14:40:53.000Z</time>
      </trkpt>
      <trkpt lat="45.85583" lon="4.70972">
        <ele>259.60712</ele>
        <time>2023-08-05T14:40:54.000Z</time>
      </trkpt>
      <trkpt lat="45.8558" lon="4.70969">
        <ele>259.70703</ele>
        <time>2023-08-05T14:40:55.000Z</time>
      </trkpt>
      <trkpt lat="45.85578" lon="4.70966">
        <ele>259.79193</ele>
        <time>2023-08-05T14:40:56.000Z</time>
      </trkpt>
      <trkpt lat="45.85575" lon="4.70964">
        <ele>259.87686</ele>
        <time>2023-08-05T14:40:57.000Z</time>
      </trkpt>
      <trkpt lat="45.85573" lon="4.70961">
        <ele>259.96881</ele>
        <time>2023-08-05T14:40:58.000Z</time>
      </trkpt>
      <trkpt lat="45.8557" lon="4.70958">
        <ele>259.90936</ele>
        <time>2023-08-05T14:40:59.000Z</time>
      </trkpt>
      <trkpt lat="45.85568" lon="4.70955">
        <ele>260.09827</ele>
        <time>2023-08-05T14:41:00.000Z</time>
      </trkpt>
      <trkpt lat="45.85565" lon="4.70952">
        <ele>260.35196</ele>
        <time>2023-08-05T14:41:01.000Z</time>
      </trkpt>
      <trkpt lat="45.85562" lon="4.70949">
        <ele>260.60922</ele>
        <time>2023-08-05T14:41:02.000Z</time>
      </trkpt>
      <trkpt lat="45.85559" lon="4.70947">
        <ele>260.86786</ele>
        <time>2023-08-05T14:41:03.000Z</time>
      </trkpt>
      <trkpt lat="45.85556" lon="4.70945">
        <ele>261.129</ele>
        <time>2023-08-05T14:41:04.000Z</time>
      </trkpt>
      <trkpt lat="45.85553" lon="4.70943">
        <ele>261.40546</ele>
        <time>2023-08-05T14:41:05.000Z</time>
      </trkpt>
      <trkpt lat="45.8555" lon="4.70941">
        <ele>261.67133</ele>
        <time>2023-08-05T14:41:06.000Z</time>
      </trkpt>
      <trkpt lat="45.85546" lon="4.70939">
        <ele>261.92194</ele>
        <time>2023-08-05T14:41:07.000Z</time>
      </trkpt>
      <trkpt lat="45.85543" lon="4.70938">
        <ele>262.18024</ele>
        <time>2023-08-05T14:41:08.000Z</time>
      </trkpt>
      <trkpt lat="45.85539" lon="4.70938">
        <ele>262.44424</ele>
        <time>2023-08-05T14:41:09.000Z</time>
      </trkpt>
      <trkpt lat="45.85536" lon="4.70937">
        <ele>262.71896</ele>
        <time>2023-08-05T14:41:10.000Z</time>
      </trkpt>
      <trkpt lat="45.85533" lon="4.70936">
        <ele>263.00934</ele>
        <time>2023-08-05T14:41:11.000Z</time>
      </trkpt>
      <trkpt lat="45.85529" lon="4.70936">
        <ele>263.31586</ele>
        <time>2023-08-05T14:41:12.000Z</time>
      </trkpt>
      <trkpt lat="45.85526" lon="4.70936">
        <ele>263.61325</ele>
        <time>2023-08-05T14:41:13.000Z</time>
      </trkpt>
      <trkpt lat="45.85522" lon="4.70936">
        <ele>263.91388</ele>
        <time>2023-08-05T14:41:14.000Z</time>
      </trkpt>
      <trkpt lat="45.85519" lon="4.70936">
        <ele>264.20532</ele>
        <time>2023-08-05T14:41:15.000Z</time>
      </trkpt>
      <trkpt lat="45.85515" lon="4.70936">
        <ele>264.49936</ele>
        <time>2023-08-05T14:41:16.000Z</time>
      </trkpt>
      <trkpt lat="45.85512" lon="4.70936">
        <ele>264.81631</ele>
        <time>2023-08-05T14:41:17.000Z</time>
      </trkpt>
      <trkpt lat="45.85509" lon="4.70936">
        <ele>264.90045</ele>
        <time>2023-08-05T14:41:18.000Z</time>
      </trkpt>
      <trkpt lat="45.85505" lon="4.70935">
        <ele>265.10706</ele>
        <time>2023-08-05T14:41:19.000Z</time>
      </trkpt>
      <trkpt lat="45.85502" lon="4.70934">
        <ele>265.04581</ele>
        <time>2023-08-05T14:41:20.000Z</time>
      </trkpt>
      <trkpt lat="45.85498" lon="4.70933">
        <ele>265.14822</ele>
        <time>2023-08-05T14:41:21.000Z</time>
      </trkpt>
      <trkpt lat="45.85495" lon="4.70932">
        <ele>265.14545</ele>
        <time>2023-08-05T14:41:22.000Z</time>
      </trkpt>
      <trkpt lat="45.85492" lon="4.70931">
        <ele>265.13641</ele>
        <time>2023-08-05T14:41:23.000Z</time>
      </trkpt>
      <trkpt lat="45.8549" lon="4.7093">
        <ele>265.1225</ele>
        <time>2023-08-05T14:41:24.000Z</time>
      </trkpt>
      <trkpt lat="45.85488" lon="4.70929">
        <ele>265.09583</ele>
        <time>2023-08-05T14:41:25.000Z</time>
      </trkpt>
      <trkpt lat="45.85487" lon="4.70932">
        <ele>265.14178</ele>
        <time>2023-08-05T14:41:27.000Z</time>
      </trkpt>
      <trkpt lat="45.85489" lon="4.70934">
        <ele>265.19284</ele>
        <time>2023-08-05T14:41:28.000Z</time>
      </trkpt>
      <trkpt lat="45.85492" lon="4.70935">
        <ele>265.24103</ele>
        <time>2023-08-05T14:41:29.000Z</time>
      </trkpt>
      <trkpt lat="45.85494" lon="4.70935">
        <ele>265.27264</ele>
        <time>2023-08-05T14:41:30.000Z</time>
      </trkpt>
      <trkpt lat="45.85497" lon="4.70937">
        <ele>265.28259</ele>
        <time>2023-08-05T14:41:31.000Z</time>
      </trkpt>
      <trkpt lat="45.85498" lon="4.7094">
        <ele>265.29156</ele>
        <time>2023-08-05T14:41:32.000Z</time>
      </trkpt>
      <trkpt lat="45.85499" lon="4.70945">
        <ele>265.28854</ele>
        <time>2023-08-05T14:41:33.000Z</time>
      </trkpt>
      <trkpt lat="45.85498" lon="4.70949">
        <ele>265.14218</ele>
        <time>2023-08-05T14:41:34.000Z</time>
      </trkpt>
      <trkpt lat="45.85498" lon="4.70953">
        <ele>264.87799</ele>
        <time>2023-08-05T14:41:35.000Z</time>
      </trkpt>
      <trkpt lat="45.85498" lon="4.70957">
        <ele>264.86426</ele>
        <time>2023-08-05T14:41:36.000Z</time>
      </trkpt>
      <trkpt lat="45.85497" lon="4.70961">
        <ele>264.80121</ele>
        <time>2023-08-05T14:41:37.000Z</time>
      </trkpt>
      <trkpt lat="45.85497" lon="4.70966">
        <ele>265.02377</ele>
        <time>2023-08-05T14:41:38.000Z</time>
      </trkpt>
      <trkpt lat="45.85497" lon="4.7097">
        <ele>265.42676</ele>
        <time>2023-08-05T14:41:39.000Z</time>
      </trkpt>
      <trkpt lat="45.85497" lon="4.70974">
        <ele>265.82858</ele>
        <time>2023-08-05T14:41:40.000Z</time>
      </trkpt>
      <trkpt lat="45.85497" lon="4.70979">
        <ele>266.21338</ele>
        <time>2023-08-05T14:41:41.000Z</time>
      </trkpt>
      <trkpt lat="45.85497" lon="4.70984">
        <ele>266.3147</ele>
        <time>2023-08-05T14:41:42.000Z</time>
      </trkpt>
      <trkpt lat="45.85497" lon="4.70989">
        <ele>266.56201</ele>
        <time>2023-08-05T14:41:43.000Z</time>
      </trkpt>
      <trkpt lat="45.85497" lon="4.70994">
        <ele>266.8063</ele>
        <time>2023-08-05T14:41:44.000Z</time>
      </trkpt>
      <trkpt lat="45.85496" lon="4.70998">
        <ele>267.01157</ele>
        <time>2023-08-05T14:41:45.000Z</time>
      </trkpt>
      <trkpt lat="45.85496" lon="4.71002">
        <ele>267.2341</ele>
        <time>2023-08-05T14:41:46.000Z</time>
      </trkpt>
      <trkpt lat="45.85497" lon="4.71006">
        <ele>267.38348</ele>
        <time>2023-08-05T14:41:47.000Z</time>
      </trkpt>
      <trkpt lat="45.85497" lon="4.7101">
        <ele>267.5239</ele>
        <time>2023-08-05T14:41:48.000Z</time>
      </trkpt>
      <trkpt lat="45.85499" lon="4.71015">
        <ele>267.66019</ele>
        <time>2023-08-05T14:41:49.000Z</time>
      </trkpt>
      <trkpt lat="45.85501" lon="4.71018">
        <ele>267.8187</ele>
        <time>2023-08-05T14:41:50.000Z</time>
      </trkpt>
      <trkpt lat="45.85503" lon="4.71021">
        <ele>268</ele>
        <time>2023-08-05T14:41:51.000Z</time>
      </trkpt>
      <trkpt lat="45.85506" lon="4.71024">
        <ele>268.18338</ele>
        <time>2023-08-05T14:41:52.000Z</time>
      </trkpt>
      <trkpt lat="45.85509" lon="4.71027">
        <ele>268.34726</ele>
        <time>2023-08-05T14:41:53.000Z</time>
      </trkpt>
      <trkpt lat="45.85512" lon="4.7103">
        <ele>268.64801</ele>
        <time>2023-08-05T14:41:54.000Z</time>
      </trkpt>
      <trkpt lat="45.85515" lon="4.71033">
        <ele>269.0697</ele>
        <time>2023-08-05T14:41:55.000Z</time>
      </trkpt>
      <trkpt lat="45.85518" lon="4.71037">
        <ele>269.21747</ele>
        <time>2023-08-05T14:41:56.000Z</time>
      </trkpt>
      <trkpt lat="45.85518" lon="4.71045">
        <ele>269.4007</ele>
        <time>2023-08-05T14:41:57.000Z</time>
      </trkpt>
      <trkpt lat="45.85519" lon="4.71051">
        <ele>269.27261</ele>
        <time>2023-08-05T14:41:58.000Z</time>
      </trkpt>
      <trkpt lat="45.85518" lon="4.71058">
        <ele>269.17538</ele>
        <time>2023-08-05T14:41:59.000Z</time>
      </trkpt>
      <trkpt lat="45.85519" lon="4.71065">
        <ele>269.10883</ele>
        <time>2023-08-05T14:42:00.000Z</time>
      </trkpt>
      <trkpt lat="45.85519" lon="4.71073">
        <ele>269.01364</ele>
        <time>2023-08-05T14:42:01.000Z</time>
      </trkpt>
      <trkpt lat="45.85519" lon="4.71082">
        <ele>268.94135</ele>
        <time>2023-08-05T14:42:02.000Z</time>
      </trkpt>
      <trkpt lat="45.85519" lon="4.71089">
        <ele>268.82724</ele>
        <time>2023-08-05T14:42:03.000Z</time>
      </trkpt>
      <trkpt lat="45.8552" lon="4.71096">
        <ele>268.71832</ele>
        <time>2023-08-05T14:42:04.000Z</time>
      </trkpt>
      <trkpt lat="45.85518" lon="4.71102">
        <ele>268.63156</ele>
        <time>2023-08-05T14:42:05.000Z</time>
      </trkpt>
      <trkpt lat="45.85518" lon="4.71109">
        <ele>268.50714</ele>
        <time>2023-08-05T14:42:06.000Z</time>
      </trkpt>
      <trkpt lat="45.85518" lon="4.71116">
        <ele>268.39066</ele>
        <time>2023-08-05T14:42:07.000Z</time>
      </trkpt>
      <trkpt lat="45.85518" lon="4.71125">
        <ele>268.24957</ele>
        <time>2023-08-05T14:42:08.000Z</time>
      </trkpt>
      <trkpt lat="45.85517" lon="4.71133">
        <ele>268.11707</ele>
        <time>2023-08-05T14:42:09.000Z</time>
      </trkpt>
      <trkpt lat="45.85516" lon="4.71139">
        <ele>267.99905</ele>
        <time>2023-08-05T14:42:10.000Z</time>
      </trkpt>
      <trkpt lat="45.85514" lon="4.71145">
        <ele>267.87482</ele>
        <time>2023-08-05T14:42:11.000Z</time>
      </trkpt>
      <trkpt lat="45.85513" lon="4.71148">
        <ele>267.75626</ele>
        <time>2023-08-05T14:42:12.000Z</time>
      </trkpt>
      <trkpt lat="45.85513" lon="4.71151">
        <ele>267.24521</ele>
        <time>2023-08-05T14:42:27.000Z</time>
      </trkpt>
      <trkpt lat="45.85511" lon="4.71156">
        <ele>266.72714</ele>
        <time>2023-08-05T14:42:29.000Z</time>
      </trkpt>
      <trkpt lat="45.8551" lon="4.71161">
        <ele>266.17755</ele>
        <time>2023-08-05T14:42:31.000Z</time>
      </trkpt>
      <trkpt lat="45.85509" lon="4.71164">
        <ele>265.56619</ele>
        <time>2023-08-05T14:42:33.000Z</time>
      </trkpt>
      <trkpt lat="45.85507" lon="4.71167">
        <ele>264.87039</ele>
        <time>2023-08-05T14:42:36.000Z</time>
      </trkpt>
      <trkpt lat="45.85505" lon="4.71168">
        <ele>264.0556</ele>
        <time>2023-08-05T14:42:39.000Z</time>
      </trkpt>
      <trkpt lat="45.85503" lon="4.71171">
        <ele>263.39658</ele>
        <time>2023-08-05T14:42:41.000Z</time>
      </trkpt>
      <trkpt lat="45.85502" lon="4.71173">
        <ele>262.75189</ele>
        <time>2023-08-05T14:42:42.000Z</time>
      </trkpt>
      <trkpt lat="45.855" lon="4.71176">
        <ele>262.16718</ele>
        <time>2023-08-05T14:42:43.000Z</time>
      </trkpt>
      <trkpt lat="45.85498" lon="4.71178">
        <ele>261.578</ele>
        <time>2023-08-05T14:42:44.000Z</time>
      </trkpt>
      <trkpt lat="45.85495" lon="4.71181">
        <ele>260.93692</ele>
        <time>2023-08-05T14:42:45.000Z</time>
      </trkpt>
      <trkpt lat="45.85492" lon="4.71183">
        <ele>260.30948</ele>
        <time>2023-08-05T14:42:46.000Z</time>
      </trkpt>
      <trkpt lat="45.85491" lon="4.71185">
        <ele>259.67606</ele>
        <time>2023-08-05T14:42:47.000Z</time>
      </trkpt>
      <trkpt lat="45.8549" lon="4.71188">
        <ele>259.02182</ele>
        <time>2023-08-05T14:42:48.000Z</time>
      </trkpt>
      <trkpt lat="45.85489" lon="4.71191">
        <ele>258.34296</ele>
        <time>2023-08-05T14:42:49.000Z</time>
      </trkpt>
      <trkpt lat="45.85488" lon="4.71196">
        <ele>257.60016</ele>
        <time>2023-08-05T14:42:50.000Z</time>
      </trkpt>
      <trkpt lat="45.85488" lon="4.71203">
        <ele>256.7767</ele>
        <time>2023-08-05T14:42:51.000Z</time>
      </trkpt>
      <trkpt lat="45.85487" lon="4.71208">
        <ele>255.89185</ele>
        <time>2023-08-05T14:42:52.000Z</time>
      </trkpt>
      <trkpt lat="45.85486" lon="4.71213">
        <ele>254.96219</ele>
        <time>2023-08-05T14:42:53.000Z</time>
      </trkpt>
      <trkpt lat="45.85484" lon="4.71218">
        <ele>254.00029</ele>
        <time>2023-08-05T14:42:54.000Z</time>
      </trkpt>
      <trkpt lat="45.85483" lon="4.71223">
        <ele>253.48022</ele>
        <time>2023-08-05T14:42:55.000Z</time>
      </trkpt>
      <trkpt lat="45.85481" lon="4.71228">
        <ele>252.92786</ele>
        <time>2023-08-05T14:42:56.000Z</time>
      </trkpt>
      <trkpt lat="45.8548" lon="4.71232">
        <ele>252.38191</ele>
        <time>2023-08-05T14:42:57.000Z</time>
      </trkpt>
      <trkpt lat="45.8548" lon="4.71234">
        <ele>251.90918</ele>
        <time>2023-08-05T14:42:58.000Z</time>
      </trkpt>
      <trkpt lat="45.85481" lon="4.71236">
        <ele>251.52676</ele>
        <time>2023-08-05T14:42:59.000Z</time>
      </trkpt>
      <trkpt lat="45.85482" lon="4.7124">
        <ele>251.22575</ele>
        <time>2023-08-05T14:43:00.000Z</time>
      </trkpt>
      <trkpt lat="45.85483" lon="4.71243">
        <ele>250.75684</ele>
        <time>2023-08-05T14:43:01.000Z</time>
      </trkpt>
      <trkpt lat="45.85483" lon="4.71247">
        <ele>250.29001</ele>
        <time>2023-08-05T14:43:03.000Z</time>
      </trkpt>
      <trkpt lat="45.85486" lon="4.7125">
        <ele>249.79736</ele>
        <time>2023-08-05T14:43:07.000Z</time>
      </trkpt>
      <trkpt lat="45.85488" lon="4.71251">
        <ele>249.33994</ele>
        <time>2023-08-05T14:43:08.000Z</time>
      </trkpt>
      <trkpt lat="45.8549" lon="4.71251">
        <ele>248.94922</ele>
        <time>2023-08-05T14:43:09.000Z</time>
      </trkpt>
      <trkpt lat="45.85492" lon="4.71252">
        <ele>248.53867</ele>
        <time>2023-08-05T14:43:10.000Z</time>
      </trkpt>
      <trkpt lat="45.85496" lon="4.71253">
        <ele>248.1691</ele>
        <time>2023-08-05T14:43:12.000Z</time>
      </trkpt>
      <trkpt lat="45.85498" lon="4.71254">
        <ele>247.86832</ele>
        <time>2023-08-05T14:43:13.000Z</time>
      </trkpt>
      <trkpt lat="45.855" lon="4.71254">
        <ele>247.60115</ele>
        <time>2023-08-05T14:43:14.000Z</time>
      </trkpt>
      <trkpt lat="45.85503" lon="4.71256">
        <ele>247.4357</ele>
        <time>2023-08-05T14:43:15.000Z</time>
      </trkpt>
      <trkpt lat="45.85506" lon="4.71257">
        <ele>247.37691</ele>
        <time>2023-08-05T14:43:16.000Z</time>
      </trkpt>
      <trkpt lat="45.85508" lon="4.71259">
        <ele>247.38608</ele>
        <time>2023-08-05T14:43:17.000Z</time>
      </trkpt>
      <trkpt lat="45.85511" lon="4.7126">
        <ele>247.46143</ele>
        <time>2023-08-05T14:43:18.000Z</time>
      </trkpt>
      <trkpt lat="45.85513" lon="4.71262">
        <ele>247.56807</ele>
        <time>2023-08-05T14:43:19.000Z</time>
      </trkpt>
      <trkpt lat="45.85516" lon="4.71263">
        <ele>247.65918</ele>
        <time>2023-08-05T14:43:20.000Z</time>
      </trkpt>
      <trkpt lat="45.85519" lon="4.71265">
        <ele>247.78915</ele>
        <time>2023-08-05T14:43:21.000Z</time>
      </trkpt>
      <trkpt lat="45.85521" lon="4.71266">
        <ele>247.95708</ele>
        <time>2023-08-05T14:43:22.000Z</time>
      </trkpt>
      <trkpt lat="45.85523" lon="4.71268">
        <ele>248.13281</ele>
        <time>2023-08-05T14:43:23.000Z</time>
      </trkpt>
      <trkpt lat="45.85525" lon="4.7127">
        <ele>248.4364</ele>
        <time>2023-08-05T14:43:24.000Z</time>
      </trkpt>
      <trkpt lat="45.85527" lon="4.71271">
        <ele>248.79837</ele>
        <time>2023-08-05T14:43:25.000Z</time>
      </trkpt>
      <trkpt lat="45.85529" lon="4.71273">
        <ele>249.18587</ele>
        <time>2023-08-05T14:43:26.000Z</time>
      </trkpt>
      <trkpt lat="45.85531" lon="4.71274">
        <ele>249.52505</ele>
        <time>2023-08-05T14:43:27.000Z</time>
      </trkpt>
      <trkpt lat="45.85534" lon="4.71276">
        <ele>249.86087</ele>
        <time>2023-08-05T14:43:28.000Z</time>
      </trkpt>
      <trkpt lat="45.85537" lon="4.71277">
        <ele>250.19405</ele>
        <time>2023-08-05T14:43:29.000Z</time>
      </trkpt>
      <trkpt lat="45.85539" lon="4.71278">
        <ele>250.51204</ele>
        <time>2023-08-05T14:43:30.000Z</time>
      </trkpt>
      <trkpt lat="45.85542" lon="4.71279">
        <ele>250.84737</ele>
        <time>2023-08-05T14:43:31.000Z</time>
      </trkpt>
      <trkpt lat="45.85544" lon="4.7128">
        <ele>251.18047</ele>
        <time>2023-08-05T14:43:32.000Z</time>
      </trkpt>
      <trkpt lat="45.85546" lon="4.7128">
        <ele>251.51086</ele>
        <time>2023-08-05T14:43:33.000Z</time>
      </trkpt>
      <trkpt lat="45.85549" lon="4.71281">
        <ele>251.80876</ele>
        <time>2023-08-05T14:43:34.000Z</time>
      </trkpt>
      <trkpt lat="45.85551" lon="4.71282">
        <ele>252.05684</ele>
        <time>2023-08-05T14:43:35.000Z</time>
      </trkpt>
      <trkpt lat="45.85553" lon="4.71283">
        <ele>252.27347</ele>
        <time>2023-08-05T14:43:36.000Z</time>
      </trkpt>
      <trkpt lat="45.85555" lon="4.71284">
        <ele>252.38052</ele>
        <time>2023-08-05T14:43:37.000Z</time>
      </trkpt>
      <trkpt lat="45.85557" lon="4.71285">
        <ele>252.42566</ele>
        <time>2023-08-05T14:43:38.000Z</time>
      </trkpt>
      <trkpt lat="45.85559" lon="4.71286">
        <ele>252.43961</ele>
        <time>2023-08-05T14:43:39.000Z</time>
      </trkpt>
      <trkpt lat="45.85561" lon="4.71288">
        <ele>252.41756</ele>
        <time>2023-08-05T14:43:40.000Z</time>
      </trkpt>
      <trkpt lat="45.85564" lon="4.71289">
        <ele>252.34116</ele>
        <time>2023-08-05T14:43:41.000Z</time>
      </trkpt>
      <trkpt lat="45.85567" lon="4.7129">
        <ele>252.16948</ele>
        <time>2023-08-05T14:43:42.000Z</time>
      </trkpt>
      <trkpt lat="45.85569" lon="4.71291">
        <ele>251.9657</ele>
        <time>2023-08-05T14:43:43.000Z</time>
      </trkpt>
      <trkpt lat="45.85572" lon="4.71291">
        <ele>251.63208</ele>
        <time>2023-08-05T14:43:44.000Z</time>
      </trkpt>
      <trkpt lat="45.85575" lon="4.71292">
        <ele>251.31775</ele>
        <time>2023-08-05T14:43:45.000Z</time>
      </trkpt>
      <trkpt lat="45.85579" lon="4.71293">
        <ele>251.02792</ele>
        <time>2023-08-05T14:43:46.000Z</time>
      </trkpt>
      <trkpt lat="45.85582" lon="4.71294">
        <ele>250.88998</ele>
        <time>2023-08-05T14:43:47.000Z</time>
      </trkpt>
      <trkpt lat="45.85585" lon="4.71295">
        <ele>250.79617</ele>
        <time>2023-08-05T14:43:48.000Z</time>
      </trkpt>
      <trkpt lat="45.85587" lon="4.71295">
        <ele>250.6949</ele>
        <time>2023-08-05T14:43:49.000Z</time>
      </trkpt>
      <trkpt lat="45.8559" lon="4.71295">
        <ele>250.64127</ele>
        <time>2023-08-05T14:43:50.000Z</time>
      </trkpt>
      <trkpt lat="45.85593" lon="4.71294">
        <ele>250.68181</ele>
        <time>2023-08-05T14:43:51.000Z</time>
      </trkpt>
      <trkpt lat="45.85596" lon="4.71293">
        <ele>250.76472</ele>
        <time>2023-08-05T14:43:52.000Z</time>
      </trkpt>
      <trkpt lat="45.85599" lon="4.71294">
        <ele>250.90857</ele>
        <time>2023-08-05T14:43:53.000Z</time>
      </trkpt>
      <trkpt lat="45.85602" lon="4.71295">
        <ele>251.11772</ele>
        <time>2023-08-05T14:43:54.000Z</time>
      </trkpt>
      <trkpt lat="45.85604" lon="4.71296">
        <ele>251.39517</ele>
        <time>2023-08-05T14:43:55.000Z</time>
      </trkpt>
      <trkpt lat="45.85605" lon="4.71298">
        <ele>251.66927</ele>
        <time>2023-08-05T14:43:56.000Z</time>
      </trkpt>
      <trkpt lat="45.85605" lon="4.71302">
        <ele>252.03853</ele>
        <time>2023-08-05T14:43:57.000Z</time>
      </trkpt>
      <trkpt lat="45.85604" lon="4.71305">
        <ele>252.40283</ele>
        <time>2023-08-05T14:43:58.000Z</time>
      </trkpt>
      <trkpt lat="45.85602" lon="4.71309">
        <ele>252.80722</ele>
        <time>2023-08-05T14:43:59.000Z</time>
      </trkpt>
      <trkpt lat="45.85599" lon="4.71311">
        <ele>253.22705</ele>
        <time>2023-08-05T14:44:00.000Z</time>
      </trkpt>
      <trkpt lat="45.85596" lon="4.71313">
        <ele>253.69711</ele>
        <time>2023-08-05T14:44:01.000Z</time>
      </trkpt>
      <trkpt lat="45.85593" lon="4.71316">
        <ele>254.26672</ele>
        <time>2023-08-05T14:44:02.000Z</time>
      </trkpt>
      <trkpt lat="45.8559" lon="4.71318">
        <ele>254.8291</ele>
        <time>2023-08-05T14:44:03.000Z</time>
      </trkpt>
      <trkpt lat="45.85588" lon="4.7132">
        <ele>255.45232</ele>
        <time>2023-08-05T14:44:04.000Z</time>
      </trkpt>
      <trkpt lat="45.85586" lon="4.71322">
        <ele>256.09412</ele>
        <time>2023-08-05T14:44:05.000Z</time>
      </trkpt>
      <trkpt lat="45.85584" lon="4.71324">
        <ele>256.74869</ele>
        <time>2023-08-05T14:44:06.000Z</time>
      </trkpt>
      <trkpt lat="45.85582" lon="4.71325">
        <ele>257.28262</ele>
        <time>2023-08-05T14:44:07.000Z</time>
      </trkpt>
      <trkpt lat="45.85579" lon="4.71327">
        <ele>257.78046</ele>
        <time>2023-08-05T14:44:08.000Z</time>
      </trkpt>
      <trkpt lat="45.85576" lon="4.71328">
        <ele>258.30667</ele>
        <time>2023-08-05T14:44:09.000Z</time>
      </trkpt>
      <trkpt lat="45.85574" lon="4.7133">
        <ele>258.79611</ele>
        <time>2023-08-05T14:44:10.000Z</time>
      </trkpt>
      <trkpt lat="45.85571" lon="4.71332">
        <ele>259.16806</ele>
        <time>2023-08-05T14:44:11.000Z</time>
      </trkpt>
      <trkpt lat="45.85568" lon="4.71334">
        <ele>259.50119</ele>
        <time>2023-08-05T14:44:12.000Z</time>
      </trkpt>
      <trkpt lat="45.85565" lon="4.71335">
        <ele>259.76447</ele>
        <time>2023-08-05T14:44:13.000Z</time>
      </trkpt>
      <trkpt lat="45.85562" lon="4.71337">
        <ele>259.87997</ele>
        <time>2023-08-05T14:44:14.000Z</time>
      </trkpt>
      <trkpt lat="45.85559" lon="4.71339">
        <ele>259.89001</ele>
        <time>2023-08-05T14:44:15.000Z</time>
      </trkpt>
      <trkpt lat="45.85556" lon="4.7134">
        <ele>259.92303</ele>
        <time>2023-08-05T14:44:16.000Z</time>
      </trkpt>
      <trkpt lat="45.85552" lon="4.71342">
        <ele>260.20697</ele>
        <time>2023-08-05T14:44:17.000Z</time>
      </trkpt>
      <trkpt lat="45.85549" lon="4.71343">
        <ele>260.44623</ele>
        <time>2023-08-05T14:44:18.000Z</time>
      </trkpt>
      <trkpt lat="45.85545" lon="4.71344">
        <ele>260.67703</ele>
        <time>2023-08-05T14:44:19.000Z</time>
      </trkpt>
      <trkpt lat="45.85542" lon="4.71345">
        <ele>260.93491</ele>
        <time>2023-08-05T14:44:20.000Z</time>
      </trkpt>
      <trkpt lat="45.85538" lon="4.71346">
        <ele>261.21527</ele>
        <time>2023-08-05T14:44:21.000Z</time>
      </trkpt>
      <trkpt lat="45.85535" lon="4.71347">
        <ele>261.5015</ele>
        <time>2023-08-05T14:44:22.000Z</time>
      </trkpt>
      <trkpt lat="45.85532" lon="4.71348">
        <ele>261.85419</ele>
        <time>2023-08-05T14:44:23.000Z</time>
      </trkpt>
      <trkpt lat="45.85528" lon="4.71349">
        <ele>262.17941</ele>
        <time>2023-08-05T14:44:24.000Z</time>
      </trkpt>
      <trkpt lat="45.85524" lon="4.7135">
        <ele>262.47925</ele>
        <time>2023-08-05T14:44:25.000Z</time>
      </trkpt>
      <trkpt lat="45.85521" lon="4.71351">
        <ele>262.74738</ele>
        <time>2023-08-05T14:44:26.000Z</time>
      </trkpt>
      <trkpt lat="45.85517" lon="4.71351">
        <ele>263.02203</ele>
        <time>2023-08-05T14:44:27.000Z</time>
      </trkpt>
      <trkpt lat="45.85514" lon="4.71352">
        <ele>263.32129</ele>
        <time>2023-08-05T14:44:28.000Z</time>
      </trkpt>
      <trkpt lat="45.85511" lon="4.71352">
        <ele>263.61166</ele>
        <time>2023-08-05T14:44:29.000Z</time>
      </trkpt>
      <trkpt lat="45.85507" lon="4.71353">
        <ele>263.92313</ele>
        <time>2023-08-05T14:44:30.000Z</time>
      </trkpt>
      <trkpt lat="45.85504" lon="4.71354">
        <ele>264.26508</ele>
        <time>2023-08-05T14:44:31.000Z</time>
      </trkpt>
      <trkpt lat="45.855" lon="4.71355">
        <ele>264.6069</ele>
        <time>2023-08-05T14:44:32.000Z</time>
      </trkpt>
      <trkpt lat="45.85496" lon="4.71356">
        <ele>264.94452</ele>
        <time>2023-08-05T14:44:33.000Z</time>
      </trkpt>
      <trkpt lat="45.85493" lon="4.71357">
        <ele>265.37274</ele>
        <time>2023-08-05T14:44:34.000Z</time>
      </trkpt>
      <trkpt lat="45.85489" lon="4.71358">
        <ele>265.88867</ele>
        <time>2023-08-05T14:44:35.000Z</time>
      </trkpt>
      <trkpt lat="45.85485" lon="4.71359">
        <ele>266.39914</ele>
        <time>2023-08-05T14:44:36.000Z</time>
      </trkpt>
      <trkpt lat="45.85482" lon="4.71361">
        <ele>266.64127</ele>
        <time>2023-08-05T14:44:37.000Z</time>
      </trkpt>
      <trkpt lat="45.85478" lon="4.71362">
        <ele>266.97205</ele>
        <time>2023-08-05T14:44:38.000Z</time>
      </trkpt>
      <trkpt lat="45.85475" lon="4.71363">
        <ele>267.29224</ele>
        <time>2023-08-05T14:44:39.000Z</time>
      </trkpt>
      <trkpt lat="45.85472" lon="4.71365">
        <ele>267.61908</ele>
        <time>2023-08-05T14:44:40.000Z</time>
      </trkpt>
      <trkpt lat="45.85469" lon="4.71367">
        <ele>267.94656</ele>
        <time>2023-08-05T14:44:41.000Z</time>
      </trkpt>
      <trkpt lat="45.85466" lon="4.71369">
        <ele>268.27997</ele>
        <time>2023-08-05T14:44:42.000Z</time>
      </trkpt>
      <trkpt lat="45.85463" lon="4.71372">
        <ele>268.60614</ele>
        <time>2023-08-05T14:44:43.000Z</time>
      </trkpt>
      <trkpt lat="45.8546" lon="4.71374">
        <ele>268.92258</ele>
        <time>2023-08-05T14:44:44.000Z</time>
      </trkpt>
      <trkpt lat="45.85456" lon="4.71376">
        <ele>269.2403</ele>
        <time>2023-08-05T14:44:45.000Z</time>
      </trkpt>
      <trkpt lat="45.85453" lon="4.71378">
        <ele>269.56537</ele>
        <time>2023-08-05T14:44:46.000Z</time>
      </trkpt>
      <trkpt lat="45.8545" lon="4.71381">
        <ele>269.88605</ele>
        <time>2023-08-05T14:44:47.000Z</time>
      </trkpt>
      <trkpt lat="45.85447" lon="4.71384">
        <ele>270.21259</ele>
        <time>2023-08-05T14:44:48.000Z</time>
      </trkpt>
      <trkpt lat="45.85444" lon="4.71386">
        <ele>270.52948</ele>
        <time>2023-08-05T14:44:49.000Z</time>
      </trkpt>
      <trkpt lat="45.8544" lon="4.71389">
        <ele>270.80145</ele>
        <time>2023-08-05T14:44:50.000Z</time>
      </trkpt>
      <trkpt lat="45.85437" lon="4.71392">
        <ele>271.08701</ele>
        <time>2023-08-05T14:44:51.000Z</time>
      </trkpt>
      <trkpt lat="45.85434" lon="4.71394">
        <ele>271.32828</ele>
        <time>2023-08-05T14:44:52.000Z</time>
      </trkpt>
      <trkpt lat="45.85431" lon="4.71397">
        <ele>271.57794</ele>
        <time>2023-08-05T14:44:53.000Z</time>
      </trkpt>
      <trkpt lat="45.85428" lon="4.714">
        <ele>271.84927</ele>
        <time>2023-08-05T14:44:54.000Z</time>
      </trkpt>
      <trkpt lat="45.85425" lon="4.71403">
        <ele>272.12531</ele>
        <time>2023-08-05T14:44:55.000Z</time>
      </trkpt>
      <trkpt lat="45.85421" lon="4.71406">
        <ele>272.3999</ele>
        <time>2023-08-05T14:44:56.000Z</time>
      </trkpt>
      <trkpt lat="45.85418" lon="4.71408">
        <ele>272.6701</ele>
        <time>2023-08-05T14:44:57.000Z</time>
      </trkpt>
      <trkpt lat="45.85415" lon="4.7141">
        <ele>272.94449</ele>
        <time>2023-08-05T14:44:58.000Z</time>
      </trkpt>
      <trkpt lat="45.85411" lon="4.71413">
        <ele>273.22318</ele>
        <time>2023-08-05T14:44:59.000Z</time>
      </trkpt>
      <trkpt lat="45.85408" lon="4.71415">
        <ele>273.48352</ele>
        <time>2023-08-05T14:45:00.000Z</time>
      </trkpt>
      <trkpt lat="45.85405" lon="4.71418">
        <ele>273.74734</ele>
        <time>2023-08-05T14:45:01.000Z</time>
      </trkpt>
      <trkpt lat="45.85402" lon="4.71422">
        <ele>273.99127</ele>
        <time>2023-08-05T14:45:02.000Z</time>
      </trkpt>
      <trkpt lat="45.85398" lon="4.71425">
        <ele>274.22644</ele>
        <time>2023-08-05T14:45:03.000Z</time>
      </trkpt>
      <trkpt lat="45.85395" lon="4.71428">
        <ele>274.48621</ele>
        <time>2023-08-05T14:45:04.000Z</time>
      </trkpt>
      <trkpt lat="45.85392" lon="4.7143">
        <ele>274.70886</ele>
        <time>2023-08-05T14:45:05.000Z</time>
      </trkpt>
      <trkpt lat="45.85389" lon="4.71433">
        <ele>274.72211</ele>
        <time>2023-08-05T14:45:06.000Z</time>
      </trkpt>
      <trkpt lat="45.85386" lon="4.71436">
        <ele>274.71783</ele>
        <time>2023-08-05T14:45:07.000Z</time>
      </trkpt>
      <trkpt lat="45.85383" lon="4.71439">
        <ele>274.70361</ele>
        <time>2023-08-05T14:45:08.000Z</time>
      </trkpt>
      <trkpt lat="45.8538" lon="4.71441">
        <ele>274.67734</ele>
        <time>2023-08-05T14:45:09.000Z</time>
      </trkpt>
      <trkpt lat="45.85378" lon="4.71444">
        <ele>274.53009</ele>
        <time>2023-08-05T14:45:10.000Z</time>
      </trkpt>
      <trkpt lat="45.85375" lon="4.71447">
        <ele>274.34113</ele>
        <time>2023-08-05T14:45:11.000Z</time>
      </trkpt>
      <trkpt lat="45.85372" lon="4.7145">
        <ele>274.1778</ele>
        <time>2023-08-05T14:45:12.000Z</time>
      </trkpt>
      <trkpt lat="45.85369" lon="4.71453">
        <ele>274.00122</ele>
        <time>2023-08-05T14:45:13.000Z</time>
      </trkpt>
      <trkpt lat="45.85366" lon="4.71455">
        <ele>274.2486</ele>
        <time>2023-08-05T14:45:14.000Z</time>
      </trkpt>
      <trkpt lat="45.85364" lon="4.71458">
        <ele>274.40521</ele>
        <time>2023-08-05T14:45:15.000Z</time>
      </trkpt>
      <trkpt lat="45.85361" lon="4.7146">
        <ele>274.54327</ele>
        <time>2023-08-05T14:45:16.000Z</time>
      </trkpt>
      <trkpt lat="45.85358" lon="4.71463">
        <ele>274.68573</ele>
        <time>2023-08-05T14:45:17.000Z</time>
      </trkpt>
      <trkpt lat="45.85355" lon="4.71466">
        <ele>274.82697</ele>
        <time>2023-08-05T14:45:18.000Z</time>
      </trkpt>
      <trkpt lat="45.85352" lon="4.71469">
        <ele>274.95969</ele>
        <time>2023-08-05T14:45:19.000Z</time>
      </trkpt>
      <trkpt lat="45.8535" lon="4.71472">
        <ele>275.12192</ele>
        <time>2023-08-05T14:45:20.000Z</time>
      </trkpt>
      <trkpt lat="45.85347" lon="4.71474">
        <ele>275.25299</ele>
        <time>2023-08-05T14:45:21.000Z</time>
      </trkpt>
      <trkpt lat="45.85344" lon="4.71477">
        <ele>275.38947</ele>
        <time>2023-08-05T14:45:22.000Z</time>
      </trkpt>
      <trkpt lat="45.85341" lon="4.7148">
        <ele>275.50552</ele>
        <time>2023-08-05T14:45:23.000Z</time>
      </trkpt>
      <trkpt lat="45.85338" lon="4.71482">
        <ele>275.59607</ele>
        <time>2023-08-05T14:45:24.000Z</time>
      </trkpt>
      <trkpt lat="45.85335" lon="4.71485">
        <ele>275.70663</ele>
        <time>2023-08-05T14:45:25.000Z</time>
      </trkpt>
      <trkpt lat="45.85332" lon="4.71489">
        <ele>276.01132</ele>
        <time>2023-08-05T14:45:26.000Z</time>
      </trkpt>
      <trkpt lat="45.85329" lon="4.71492">
        <ele>276.33182</ele>
        <time>2023-08-05T14:45:27.000Z</time>
      </trkpt>
      <trkpt lat="45.85326" lon="4.71495">
        <ele>276.62469</ele>
        <time>2023-08-05T14:45:28.000Z</time>
      </trkpt>
      <trkpt lat="45.85323" lon="4.71498">
        <ele>276.888</ele>
        <time>2023-08-05T14:45:29.000Z</time>
      </trkpt>
      <trkpt lat="45.8532" lon="4.71501">
        <ele>277.03964</ele>
        <time>2023-08-05T14:45:30.000Z</time>
      </trkpt>
      <trkpt lat="45.85317" lon="4.71503">
        <ele>277.21042</ele>
        <time>2023-08-05T14:45:31.000Z</time>
      </trkpt>
      <trkpt lat="45.85314" lon="4.71506">
        <ele>277.20267</ele>
        <time>2023-08-05T14:45:32.000Z</time>
      </trkpt>
      <trkpt lat="45.85311" lon="4.71509">
        <ele>277.46112</ele>
        <time>2023-08-05T14:45:33.000Z</time>
      </trkpt>
      <trkpt lat="45.85309" lon="4.71511">
        <ele>277.15134</ele>
        <time>2023-08-05T14:45:34.000Z</time>
      </trkpt>
      <trkpt lat="45.85306" lon="4.71513">
        <ele>276.90378</ele>
        <time>2023-08-05T14:45:35.000Z</time>
      </trkpt>
      <trkpt lat="45.85302" lon="4.71516">
        <ele>276.74219</ele>
        <time>2023-08-05T14:45:36.000Z</time>
      </trkpt>
      <trkpt lat="45.853" lon="4.71519">
        <ele>276.62903</ele>
        <time>2023-08-05T14:45:37.000Z</time>
      </trkpt>
      <trkpt lat="45.85297" lon="4.71521">
        <ele>276.53864</ele>
        <time>2023-08-05T14:45:38.000Z</time>
      </trkpt>
      <trkpt lat="45.85295" lon="4.71524">
        <ele>276.48468</ele>
        <time>2023-08-05T14:45:39.000Z</time>
      </trkpt>
      <trkpt lat="45.85292" lon="4.71526">
        <ele>276.35889</ele>
        <time>2023-08-05T14:45:40.000Z</time>
      </trkpt>
      <trkpt lat="45.8529" lon="4.71529">
        <ele>276.22357</ele>
        <time>2023-08-05T14:45:41.000Z</time>
      </trkpt>
      <trkpt lat="45.85287" lon="4.71532">
        <ele>276.17291</ele>
        <time>2023-08-05T14:45:42.000Z</time>
      </trkpt>
      <trkpt lat="45.85284" lon="4.71534">
        <ele>276.22488</ele>
        <time>2023-08-05T14:45:43.000Z</time>
      </trkpt>
      <trkpt lat="45.8528" lon="4.71536">
        <ele>276.15268</ele>
        <time>2023-08-05T14:45:44.000Z</time>
      </trkpt>
      <trkpt lat="45.85277" lon="4.71538">
        <ele>276.10233</ele>
        <time>2023-08-05T14:45:45.000Z</time>
      </trkpt>
      <trkpt lat="45.85273" lon="4.71539">
        <ele>275.98059</ele>
        <time>2023-08-05T14:45:46.000Z</time>
      </trkpt>
      <trkpt lat="45.8527" lon="4.71541">
        <ele>275.94052</ele>
        <time>2023-08-05T14:45:47.000Z</time>
      </trkpt>
      <trkpt lat="45.85267" lon="4.71542">
        <ele>275.96057</ele>
        <time>2023-08-05T14:45:48.000Z</time>
      </trkpt>
      <trkpt lat="45.85264" lon="4.71544">
        <ele>275.987</ele>
        <time>2023-08-05T14:45:49.000Z</time>
      </trkpt>
      <trkpt lat="45.85261" lon="4.71546">
        <ele>276.25012</ele>
        <time>2023-08-05T14:45:50.000Z</time>
      </trkpt>
      <trkpt lat="45.85257" lon="4.71548">
        <ele>276.48981</ele>
        <time>2023-08-05T14:45:51.000Z</time>
      </trkpt>
      <trkpt lat="45.85253" lon="4.7155">
        <ele>276.86063</ele>
        <time>2023-08-05T14:45:52.000Z</time>
      </trkpt>
      <trkpt lat="45.85249" lon="4.71551">
        <ele>276.94809</ele>
        <time>2023-08-05T14:45:53.000Z</time>
      </trkpt>
      <trkpt lat="45.85244" lon="4.71553">
        <ele>277.13528</ele>
        <time>2023-08-05T14:45:54.000Z</time>
      </trkpt>
      <trkpt lat="45.8524" lon="4.71555">
        <ele>277.3439</ele>
        <time>2023-08-05T14:45:55.000Z</time>
      </trkpt>
      <trkpt lat="45.85236" lon="4.71557">
        <ele>277.48801</ele>
        <time>2023-08-05T14:45:56.000Z</time>
      </trkpt>
      <trkpt lat="45.85232" lon="4.7156">
        <ele>278.51642</ele>
        <time>2023-08-05T14:45:57.000Z</time>
      </trkpt>
      <trkpt lat="45.85228" lon="4.71562">
        <ele>279.5058</ele>
        <time>2023-08-05T14:45:58.000Z</time>
      </trkpt>
      <trkpt lat="45.85224" lon="4.71565">
        <ele>280.40146</ele>
        <time>2023-08-05T14:45:59.000Z</time>
      </trkpt>
      <trkpt lat="45.8522" lon="4.71567">
        <ele>281.35071</ele>
        <time>2023-08-05T14:46:00.000Z</time>
      </trkpt>
      <trkpt lat="45.85216" lon="4.71569">
        <ele>282.33994</ele>
        <time>2023-08-05T14:46:01.000Z</time>
      </trkpt>
      <trkpt lat="45.85213" lon="4.71571">
        <ele>283.20856</ele>
        <time>2023-08-05T14:46:02.000Z</time>
      </trkpt>
      <trkpt lat="45.8521" lon="4.71574">
        <ele>283.95227</ele>
        <time>2023-08-05T14:46:03.000Z</time>
      </trkpt>
      <trkpt lat="45.85205" lon="4.71576">
        <ele>284.82608</ele>
        <time>2023-08-05T14:46:04.000Z</time>
      </trkpt>
      <trkpt lat="45.85201" lon="4.71578">
        <ele>285.72491</ele>
        <time>2023-08-05T14:46:05.000Z</time>
      </trkpt>
      <trkpt lat="45.85196" lon="4.71579">
        <ele>286.65854</ele>
        <time>2023-08-05T14:46:06.000Z</time>
      </trkpt>
      <trkpt lat="45.85191" lon="4.71581">
        <ele>287.53735</ele>
        <time>2023-08-05T14:46:07.000Z</time>
      </trkpt>
      <trkpt lat="45.85186" lon="4.71583">
        <ele>288.36591</ele>
        <time>2023-08-05T14:46:08.000Z</time>
      </trkpt>
      <trkpt lat="45.85181" lon="4.71585">
        <ele>289.20151</ele>
        <time>2023-08-05T14:46:09.000Z</time>
      </trkpt>
      <trkpt lat="45.85177" lon="4.71587">
        <ele>290.11734</ele>
        <time>2023-08-05T14:46:10.000Z</time>
      </trkpt>
      <trkpt lat="45.85172" lon="4.71589">
        <ele>291.07687</ele>
        <time>2023-08-05T14:46:11.000Z</time>
      </trkpt>
      <trkpt lat="45.85167" lon="4.71591">
        <ele>292.08578</ele>
        <time>2023-08-05T14:46:12.000Z</time>
      </trkpt>
      <trkpt lat="45.85162" lon="4.71593">
        <ele>292.92767</ele>
        <time>2023-08-05T14:46:13.000Z</time>
      </trkpt>
      <trkpt lat="45.85158" lon="4.71595">
        <ele>293.78568</ele>
        <time>2023-08-05T14:46:14.000Z</time>
      </trkpt>
      <trkpt lat="45.85153" lon="4.71596">
        <ele>294.64243</ele>
        <time>2023-08-05T14:46:15.000Z</time>
      </trkpt>
      <trkpt lat="45.85149" lon="4.71596">
        <ele>295.46573</ele>
        <time>2023-08-05T14:46:16.000Z</time>
      </trkpt>
      <trkpt lat="45.85144" lon="4.71597">
        <ele>295.33762</ele>
        <time>2023-08-05T14:46:17.000Z</time>
      </trkpt>
      <trkpt lat="45.8514" lon="4.71597">
        <ele>295.31204</ele>
        <time>2023-08-05T14:46:18.000Z</time>
      </trkpt>
      <trkpt lat="45.85134" lon="4.71595">
        <ele>295.40979</ele>
        <time>2023-08-05T14:46:19.000Z</time>
      </trkpt>
      <trkpt lat="45.85129" lon="4.71594">
        <ele>295.05231</ele>
        <time>2023-08-05T14:46:20.000Z</time>
      </trkpt>
      <trkpt lat="45.85124" lon="4.71593">
        <ele>294.6839</ele>
        <time>2023-08-05T14:46:21.000Z</time>
      </trkpt>
      <trkpt lat="45.85121" lon="4.71594">
        <ele>294.61496</ele>
        <time>2023-08-05T14:46:22.000Z</time>
      </trkpt>
      <trkpt lat="45.85116" lon="4.71597">
        <ele>294.604</ele>
        <time>2023-08-05T14:46:23.000Z</time>
      </trkpt>
      <trkpt lat="45.85111" lon="4.716">
        <ele>294.59473</ele>
        <time>2023-08-05T14:46:24.000Z</time>
      </trkpt>
      <trkpt lat="45.85106" lon="4.71604">
        <ele>293.95236</ele>
        <time>2023-08-05T14:46:25.000Z</time>
      </trkpt>
      <trkpt lat="45.85101" lon="4.71606">
        <ele>293.38007</ele>
        <time>2023-08-05T14:46:26.000Z</time>
      </trkpt>
      <trkpt lat="45.85097" lon="4.7161">
        <ele>292.67496</ele>
        <time>2023-08-05T14:46:27.000Z</time>
      </trkpt>
      <trkpt lat="45.85092" lon="4.71614">
        <ele>291.97098</ele>
        <time>2023-08-05T14:46:28.000Z</time>
      </trkpt>
      <trkpt lat="45.85087" lon="4.71617">
        <ele>291.31259</ele>
        <time>2023-08-05T14:46:29.000Z</time>
      </trkpt>
      <trkpt lat="45.85082" lon="4.71621">
        <ele>290.58334</ele>
        <time>2023-08-05T14:46:30.000Z</time>
      </trkpt>
      <trkpt lat="45.85077" lon="4.71623">
        <ele>289.76895</ele>
        <time>2023-08-05T14:46:31.000Z</time>
      </trkpt>
      <trkpt lat="45.85072" lon="4.71626">
        <ele>288.96527</ele>
        <time>2023-08-05T14:46:32.000Z</time>
      </trkpt>
      <trkpt lat="45.85069" lon="4.71628">
        <ele>288.3522</ele>
        <time>2023-08-05T14:46:33.000Z</time>
      </trkpt>
      <trkpt lat="45.85065" lon="4.71629">
        <ele>287.98596</ele>
        <time>2023-08-05T14:46:34.000Z</time>
      </trkpt>
      <trkpt lat="45.8506" lon="4.71631">
        <ele>287.55026</ele>
        <time>2023-08-05T14:46:35.000Z</time>
      </trkpt>
      <trkpt lat="45.85056" lon="4.71633">
        <ele>287.14117</ele>
        <time>2023-08-05T14:46:36.000Z</time>
      </trkpt>
      <trkpt lat="45.85051" lon="4.71635">
        <ele>286.75604</ele>
        <time>2023-08-05T14:46:37.000Z</time>
      </trkpt>
      <trkpt lat="45.85047" lon="4.71637">
        <ele>286.28354</ele>
        <time>2023-08-05T14:46:38.000Z</time>
      </trkpt>
      <trkpt lat="45.85043" lon="4.7164">
        <ele>285.75372</ele>
        <time>2023-08-05T14:46:39.000Z</time>
      </trkpt>
      <trkpt lat="45.85039" lon="4.71641">
        <ele>285.68185</ele>
        <time>2023-08-05T14:46:40.000Z</time>
      </trkpt>
      <trkpt lat="45.85035" lon="4.71644">
        <ele>285.58978</ele>
        <time>2023-08-05T14:46:41.000Z</time>
      </trkpt>
      <trkpt lat="45.85031" lon="4.71645">
        <ele>285.23767</ele>
        <time>2023-08-05T14:46:42.000Z</time>
      </trkpt>
      <trkpt lat="45.85029" lon="4.71647">
        <ele>284.85034</ele>
        <time>2023-08-05T14:46:43.000Z</time>
      </trkpt>
      <trkpt lat="45.85025" lon="4.71649">
        <ele>284.42456</ele>
        <time>2023-08-05T14:46:44.000Z</time>
      </trkpt>
      <trkpt lat="45.85021" lon="4.71651">
        <ele>284.57919</ele>
        <time>2023-08-05T14:46:45.000Z</time>
      </trkpt>
      <trkpt lat="45.85017" lon="4.71653">
        <ele>284.69843</ele>
        <time>2023-08-05T14:46:46.000Z</time>
      </trkpt>
      <trkpt lat="45.85013" lon="4.71653">
        <ele>284.90561</ele>
        <time>2023-08-05T14:46:47.000Z</time>
      </trkpt>
      <trkpt lat="45.8501" lon="4.71655">
        <ele>285.12225</ele>
        <time>2023-08-05T14:46:48.000Z</time>
      </trkpt>
      <trkpt lat="45.85006" lon="4.71657">
        <ele>285.34399</ele>
        <time>2023-08-05T14:46:49.000Z</time>
      </trkpt>
      <trkpt lat="45.85003" lon="4.71658">
        <ele>285.57925</ele>
        <time>2023-08-05T14:46:50.000Z</time>
      </trkpt>
      <trkpt lat="45.84999" lon="4.7166">
        <ele>285.74649</ele>
        <time>2023-08-05T14:46:51.000Z</time>
      </trkpt>
      <trkpt lat="45.84996" lon="4.71661">
        <ele>285.89124</ele>
        <time>2023-08-05T14:46:52.000Z</time>
      </trkpt>
      <trkpt lat="45.84992" lon="4.71663">
        <ele>286.02939</ele>
        <time>2023-08-05T14:46:53.000Z</time>
      </trkpt>
      <trkpt lat="45.84989" lon="4.71664">
        <ele>285.91351</ele>
        <time>2023-08-05T14:46:54.000Z</time>
      </trkpt>
      <trkpt lat="45.84985" lon="4.71666">
        <ele>285.79214</ele>
        <time>2023-08-05T14:46:55.000Z</time>
      </trkpt>
      <trkpt lat="45.84982" lon="4.71666">
        <ele>285.66052</ele>
        <time>2023-08-05T14:46:56.000Z</time>
      </trkpt>
      <trkpt lat="45.84978" lon="4.71667">
        <ele>285.49075</ele>
        <time>2023-08-05T14:46:57.000Z</time>
      </trkpt>
      <trkpt lat="45.84975" lon="4.71667">
        <ele>285.26895</ele>
        <time>2023-08-05T14:46:58.000Z</time>
      </trkpt>
      <trkpt lat="45.84971" lon="4.71668">
        <ele>285.31226</ele>
        <time>2023-08-05T14:46:59.000Z</time>
      </trkpt>
      <trkpt lat="45.84968" lon="4.71668">
        <ele>285.27826</ele>
        <time>2023-08-05T14:47:00.000Z</time>
      </trkpt>
      <trkpt lat="45.84964" lon="4.71668">
        <ele>285.24991</ele>
        <time>2023-08-05T14:47:01.000Z</time>
      </trkpt>
      <trkpt lat="45.8496" lon="4.71667">
        <ele>285.14349</ele>
        <time>2023-08-05T14:47:02.000Z</time>
      </trkpt>
      <trkpt lat="45.84957" lon="4.71666">
        <ele>285.10498</ele>
        <time>2023-08-05T14:47:03.000Z</time>
      </trkpt>
      <trkpt lat="45.84954" lon="4.71666">
        <ele>285.10822</ele>
        <time>2023-08-05T14:47:04.000Z</time>
      </trkpt>
      <trkpt lat="45.8495" lon="4.71665">
        <ele>285.1424</ele>
        <time>2023-08-05T14:47:05.000Z</time>
      </trkpt>
      <trkpt lat="45.84947" lon="4.71663">
        <ele>285.48886</ele>
        <time>2023-08-05T14:47:06.000Z</time>
      </trkpt>
      <trkpt lat="45.84944" lon="4.71662">
        <ele>285.84027</ele>
        <time>2023-08-05T14:47:07.000Z</time>
      </trkpt>
      <trkpt lat="45.84941" lon="4.71661">
        <ele>286.19501</ele>
        <time>2023-08-05T14:47:08.000Z</time>
      </trkpt>
      <trkpt lat="45.84937" lon="4.7166">
        <ele>286.51093</ele>
        <time>2023-08-05T14:47:09.000Z</time>
      </trkpt>
      <trkpt lat="45.84934" lon="4.7166">
        <ele>286.77084</ele>
        <time>2023-08-05T14:47:10.000Z</time>
      </trkpt>
      <trkpt lat="45.84931" lon="4.71659">
        <ele>287.27481</ele>
        <time>2023-08-05T14:47:11.000Z</time>
      </trkpt>
      <trkpt lat="45.84927" lon="4.71659">
        <ele>287.7948</ele>
        <time>2023-08-05T14:47:12.000Z</time>
      </trkpt>
      <trkpt lat="45.84924" lon="4.71659">
        <ele>288.33527</ele>
        <time>2023-08-05T14:47:13.000Z</time>
      </trkpt>
      <trkpt lat="45.84921" lon="4.71659">
        <ele>288.90234</ele>
        <time>2023-08-05T14:47:14.000Z</time>
      </trkpt>
      <trkpt lat="45.84918" lon="4.7166">
        <ele>289.5311</ele>
        <time>2023-08-05T14:47:15.000Z</time>
      </trkpt>
      <trkpt lat="45.84914" lon="4.7166">
        <ele>290.20377</ele>
        <time>2023-08-05T14:47:16.000Z</time>
      </trkpt>
      <trkpt lat="45.84911" lon="4.71661">
        <ele>290.88303</ele>
        <time>2023-08-05T14:47:17.000Z</time>
      </trkpt>
      <trkpt lat="45.84907" lon="4.71661">
        <ele>291.62369</ele>
        <time>2023-08-05T14:47:18.000Z</time>
      </trkpt>
      <trkpt lat="45.84904" lon="4.71662">
        <ele>292.08615</ele>
        <time>2023-08-05T14:47:19.000Z</time>
      </trkpt>
      <trkpt lat="45.849" lon="4.71662">
        <ele>292.62457</ele>
        <time>2023-08-05T14:47:20.000Z</time>
      </trkpt>
      <trkpt lat="45.84897" lon="4.71663">
        <ele>293.15726</ele>
        <time>2023-08-05T14:47:21.000Z</time>
      </trkpt>
      <trkpt lat="45.84893" lon="4.71665">
        <ele>293.78119</ele>
        <time>2023-08-05T14:47:22.000Z</time>
      </trkpt>
      <trkpt lat="45.8489" lon="4.71666">
        <ele>294.3522</ele>
        <time>2023-08-05T14:47:23.000Z</time>
      </trkpt>
      <trkpt lat="45.84886" lon="4.71667">
        <ele>294.8765</ele>
        <time>2023-08-05T14:47:24.000Z</time>
      </trkpt>
      <trkpt lat="45.84883" lon="4.71668">
        <ele>295.37048</ele>
        <time>2023-08-05T14:47:25.000Z</time>
      </trkpt>
      <trkpt lat="45.8488" lon="4.71669">
        <ele>296.03546</ele>
        <time>2023-08-05T14:47:26.000Z</time>
      </trkpt>
      <trkpt lat="45.84876" lon="4.7167">
        <ele>296.73178</ele>
        <time>2023-08-05T14:47:27.000Z</time>
      </trkpt>
      <trkpt lat="45.84873" lon="4.71672">
        <ele>297.22064</ele>
        <time>2023-08-05T14:47:28.000Z</time>
      </trkpt>
      <trkpt lat="45.84869" lon="4.71673">
        <ele>297.72516</ele>
        <time>2023-08-05T14:47:29.000Z</time>
      </trkpt>
      <trkpt lat="45.84865" lon="4.71675">
        <ele>298.27136</ele>
        <time>2023-08-05T14:47:30.000Z</time>
      </trkpt>
      <trkpt lat="45.84861" lon="4.71677">
        <ele>298.72638</ele>
        <time>2023-08-05T14:47:31.000Z</time>
      </trkpt>
      <trkpt lat="45.84858" lon="4.7168">
        <ele>299.17593</ele>
        <time>2023-08-05T14:47:32.000Z</time>
      </trkpt>
      <trkpt lat="45.84854" lon="4.71684">
        <ele>299.59851</ele>
        <time>2023-08-05T14:47:33.000Z</time>
      </trkpt>
      <trkpt lat="45.8485" lon="4.71687">
        <ele>300.00873</ele>
        <time>2023-08-05T14:47:34.000Z</time>
      </trkpt>
      <trkpt lat="45.84847" lon="4.7169">
        <ele>300.46173</ele>
        <time>2023-08-05T14:47:35.000Z</time>
      </trkpt>
      <trkpt lat="45.84843" lon="4.71692">
        <ele>300.89752</ele>
        <time>2023-08-05T14:47:36.000Z</time>
      </trkpt>
      <trkpt lat="45.84839" lon="4.71693">
        <ele>301.37952</ele>
        <time>2023-08-05T14:47:37.000Z</time>
      </trkpt>
      <trkpt lat="45.84835" lon="4.71695">
        <ele>301.90469</ele>
        <time>2023-08-05T14:47:38.000Z</time>
      </trkpt>
      <trkpt lat="45.84831" lon="4.71698">
        <ele>302.5137</ele>
        <time>2023-08-05T14:47:39.000Z</time>
      </trkpt>
      <trkpt lat="45.84828" lon="4.717">
        <ele>303.12433</ele>
        <time>2023-08-05T14:47:40.000Z</time>
      </trkpt>
      <trkpt lat="45.84824" lon="4.71702">
        <ele>303.56366</ele>
        <time>2023-08-05T14:47:41.000Z</time>
      </trkpt>
      <trkpt lat="45.8482" lon="4.71704">
        <ele>304.01331</ele>
        <time>2023-08-05T14:47:42.000Z</time>
      </trkpt>
      <trkpt lat="45.84815" lon="4.71706">
        <ele>305.07339</ele>
        <time>2023-08-05T14:47:43.000Z</time>
      </trkpt>
      <trkpt lat="45.84812" lon="4.71709">
        <ele>306.14197</ele>
        <time>2023-08-05T14:47:44.000Z</time>
      </trkpt>
      <trkpt lat="45.84808" lon="4.71711">
        <ele>307.21722</ele>
        <time>2023-08-05T14:47:45.000Z</time>
      </trkpt>
      <trkpt lat="45.84805" lon="4.71713">
        <ele>307.82635</ele>
        <time>2023-08-05T14:47:46.000Z</time>
      </trkpt>
      <trkpt lat="45.84801" lon="4.71716">
        <ele>308.39139</ele>
        <time>2023-08-05T14:47:47.000Z</time>
      </trkpt>
      <trkpt lat="45.84797" lon="4.71719">
        <ele>309.1832</ele>
        <time>2023-08-05T14:47:48.000Z</time>
      </trkpt>
      <trkpt lat="45.84793" lon="4.71723">
        <ele>309.96921</ele>
        <time>2023-08-05T14:47:49.000Z</time>
      </trkpt>
      <trkpt lat="45.84789" lon="4.71728">
        <ele>310.73886</ele>
        <time>2023-08-05T14:47:50.000Z</time>
      </trkpt>
      <trkpt lat="45.84784" lon="4.71731">
        <ele>311.49261</ele>
        <time>2023-08-05T14:47:51.000Z</time>
      </trkpt>
      <trkpt lat="45.8478" lon="4.71734">
        <ele>312.21271</ele>
        <time>2023-08-05T14:47:52.000Z</time>
      </trkpt>
      <trkpt lat="45.84777" lon="4.71737">
        <ele>312.94736</ele>
        <time>2023-08-05T14:47:53.000Z</time>
      </trkpt>
      <trkpt lat="45.84772" lon="4.71741">
        <ele>313.66602</ele>
        <time>2023-08-05T14:47:54.000Z</time>
      </trkpt>
      <trkpt lat="45.84767" lon="4.71744">
        <ele>314.36285</ele>
        <time>2023-08-05T14:47:55.000Z</time>
      </trkpt>
      <trkpt lat="45.84762" lon="4.71746">
        <ele>315.03232</ele>
        <time>2023-08-05T14:47:56.000Z</time>
      </trkpt>
      <trkpt lat="45.84758" lon="4.71749">
        <ele>315.9317</ele>
        <time>2023-08-05T14:47:57.000Z</time>
      </trkpt>
      <trkpt lat="45.84753" lon="4.71752">
        <ele>316.745</ele>
        <time>2023-08-05T14:47:58.000Z</time>
      </trkpt>
      <trkpt lat="45.84749" lon="4.71755">
        <ele>317.45831</ele>
        <time>2023-08-05T14:47:59.000Z</time>
      </trkpt>
      <trkpt lat="45.84744" lon="4.71757">
        <ele>318.16595</ele>
        <time>2023-08-05T14:48:00.000Z</time>
      </trkpt>
      <trkpt lat="45.8474" lon="4.7176">
        <ele>319.04193</ele>
        <time>2023-08-05T14:48:01.000Z</time>
      </trkpt>
      <trkpt lat="45.84735" lon="4.71762">
        <ele>319.88284</ele>
        <time>2023-08-05T14:48:02.000Z</time>
      </trkpt>
      <trkpt lat="45.84731" lon="4.71766">
        <ele>320.12598</ele>
        <time>2023-08-05T14:48:03.000Z</time>
      </trkpt>
      <trkpt lat="45.84725" lon="4.71767">
        <ele>320.36737</ele>
        <time>2023-08-05T14:48:04.000Z</time>
      </trkpt>
      <trkpt lat="45.84721" lon="4.71768">
        <ele>320.62073</ele>
        <time>2023-08-05T14:48:05.000Z</time>
      </trkpt>
      <trkpt lat="45.84717" lon="4.7177">
        <ele>320.86844</ele>
        <time>2023-08-05T14:48:06.000Z</time>
      </trkpt>
      <trkpt lat="45.84713" lon="4.71772">
        <ele>320.23444</ele>
        <time>2023-08-05T14:48:07.000Z</time>
      </trkpt>
      <trkpt lat="45.84708" lon="4.71774">
        <ele>319.59268</ele>
        <time>2023-08-05T14:48:08.000Z</time>
      </trkpt>
      <trkpt lat="45.84703" lon="4.71777">
        <ele>318.97919</ele>
        <time>2023-08-05T14:48:09.000Z</time>
      </trkpt>
      <trkpt lat="45.84699" lon="4.71778">
        <ele>318.40283</ele>
        <time>2023-08-05T14:48:10.000Z</time>
      </trkpt>
      <trkpt lat="45.84693" lon="4.7178">
        <ele>317.73062</ele>
        <time>2023-08-05T14:48:11.000Z</time>
      </trkpt>
      <trkpt lat="45.84689" lon="4.71783">
        <ele>317.13113</ele>
        <time>2023-08-05T14:48:12.000Z</time>
      </trkpt>
      <trkpt lat="45.84685" lon="4.71786">
        <ele>316.51672</ele>
        <time>2023-08-05T14:48:13.000Z</time>
      </trkpt>
      <trkpt lat="45.84681" lon="4.71788">
        <ele>315.90021</ele>
        <time>2023-08-05T14:48:14.000Z</time>
      </trkpt>
      <trkpt lat="45.84677" lon="4.7179">
        <ele>315.25702</ele>
        <time>2023-08-05T14:48:15.000Z</time>
      </trkpt>
      <trkpt lat="45.84672" lon="4.71791">
        <ele>314.61487</ele>
        <time>2023-08-05T14:48:16.000Z</time>
      </trkpt>
      <trkpt lat="45.84668" lon="4.71794">
        <ele>313.72156</ele>
        <time>2023-08-05T14:48:17.000Z</time>
      </trkpt>
      <trkpt lat="45.84664" lon="4.71797">
        <ele>312.89612</ele>
        <time>2023-08-05T14:48:18.000Z</time>
      </trkpt>
      <trkpt lat="45.84661" lon="4.71799">
        <ele>312.08939</ele>
        <time>2023-08-05T14:48:19.000Z</time>
      </trkpt>
      <trkpt lat="45.84657" lon="4.71801">
        <ele>311.26724</ele>
        <time>2023-08-05T14:48:20.000Z</time>
      </trkpt>
      <trkpt lat="45.84654" lon="4.71803">
        <ele>310.44183</ele>
        <time>2023-08-05T14:48:21.000Z</time>
      </trkpt>
      <trkpt lat="45.8465" lon="4.71806">
        <ele>309.6203</ele>
        <time>2023-08-05T14:48:22.000Z</time>
      </trkpt>
      <trkpt lat="45.84646" lon="4.71809">
        <ele>308.80704</ele>
        <time>2023-08-05T14:48:23.000Z</time>
      </trkpt>
      <trkpt lat="45.84641" lon="4.71811">
        <ele>307.9118</ele>
        <time>2023-08-05T14:48:24.000Z</time>
      </trkpt>
      <trkpt lat="45.84638" lon="4.71816">
        <ele>307.00787</ele>
        <time>2023-08-05T14:48:25.000Z</time>
      </trkpt>
      <trkpt lat="45.84634" lon="4.71818">
        <ele>306.10297</ele>
        <time>2023-08-05T14:48:26.000Z</time>
      </trkpt>
      <trkpt lat="45.8463" lon="4.71819">
        <ele>306.05981</ele>
        <time>2023-08-05T14:48:27.000Z</time>
      </trkpt>
      <trkpt lat="45.84627" lon="4.71821">
        <ele>306.00436</ele>
        <time>2023-08-05T14:48:28.000Z</time>
      </trkpt>
      <trkpt lat="45.84623" lon="4.71823">
        <ele>305.91782</ele>
        <time>2023-08-05T14:48:29.000Z</time>
      </trkpt>
      <trkpt lat="45.8462" lon="4.71824">
        <ele>305.78571</ele>
        <time>2023-08-05T14:48:30.000Z</time>
      </trkpt>
      <trkpt lat="45.84616" lon="4.71826">
        <ele>305.74637</ele>
        <time>2023-08-05T14:48:31.000Z</time>
      </trkpt>
      <trkpt lat="45.84612" lon="4.71828">
        <ele>305.63705</ele>
        <time>2023-08-05T14:48:32.000Z</time>
      </trkpt>
      <trkpt lat="45.84609" lon="4.7183">
        <ele>305.52588</ele>
        <time>2023-08-05T14:48:33.000Z</time>
      </trkpt>
      <trkpt lat="45.84605" lon="4.71832">
        <ele>305.40668</ele>
        <time>2023-08-05T14:48:34.000Z</time>
      </trkpt>
      <trkpt lat="45.84601" lon="4.71834">
        <ele>305.27649</ele>
        <time>2023-08-05T14:48:35.000Z</time>
      </trkpt>
      <trkpt lat="45.84597" lon="4.71836">
        <ele>305.14142</ele>
        <time>2023-08-05T14:48:36.000Z</time>
      </trkpt>
      <trkpt lat="45.84593" lon="4.71838">
        <ele>305.00751</ele>
        <time>2023-08-05T14:48:37.000Z</time>
      </trkpt>
      <trkpt lat="45.8459" lon="4.7184">
        <ele>304.8504</ele>
        <time>2023-08-05T14:48:38.000Z</time>
      </trkpt>
      <trkpt lat="45.84587" lon="4.71842">
        <ele>304.71686</ele>
        <time>2023-08-05T14:48:39.000Z</time>
      </trkpt>
      <trkpt lat="45.84583" lon="4.71844">
        <ele>304.60229</ele>
        <time>2023-08-05T14:48:40.000Z</time>
      </trkpt>
      <trkpt lat="45.8458" lon="4.71846">
        <ele>304.51801</ele>
        <time>2023-08-05T14:48:41.000Z</time>
      </trkpt>
      <trkpt lat="45.84576" lon="4.71849">
        <ele>304.41962</ele>
        <time>2023-08-05T14:48:42.000Z</time>
      </trkpt>
      <trkpt lat="45.84573" lon="4.71851">
        <ele>304.31195</ele>
        <time>2023-08-05T14:48:43.000Z</time>
      </trkpt>
      <trkpt lat="45.8457" lon="4.71853">
        <ele>304.315</ele>
        <time>2023-08-05T14:48:44.000Z</time>
      </trkpt>
      <trkpt lat="45.84566" lon="4.71856">
        <ele>304.34195</ele>
        <time>2023-08-05T14:48:45.000Z</time>
      </trkpt>
      <trkpt lat="45.84563" lon="4.71858">
        <ele>304.38742</ele>
        <time>2023-08-05T14:48:46.000Z</time>
      </trkpt>
      <trkpt lat="45.8456" lon="4.71861">
        <ele>304.49506</ele>
        <time>2023-08-05T14:48:47.000Z</time>
      </trkpt>
      <trkpt lat="45.84556" lon="4.71863">
        <ele>304.59378</ele>
        <time>2023-08-05T14:48:48.000Z</time>
      </trkpt>
      <trkpt lat="45.84553" lon="4.71865">
        <ele>304.70432</ele>
        <time>2023-08-05T14:48:49.000Z</time>
      </trkpt>
      <trkpt lat="45.84549" lon="4.71866">
        <ele>304.81537</ele>
        <time>2023-08-05T14:48:50.000Z</time>
      </trkpt>
      <trkpt lat="45.84546" lon="4.71868">
        <ele>304.92508</ele>
        <time>2023-08-05T14:48:51.000Z</time>
      </trkpt>
      <trkpt lat="45.84543" lon="4.7187">
        <ele>305.06454</ele>
        <time>2023-08-05T14:48:52.000Z</time>
      </trkpt>
      <trkpt lat="45.8454" lon="4.71871">
        <ele>305.22501</ele>
        <time>2023-08-05T14:48:53.000Z</time>
      </trkpt>
      <trkpt lat="45.84537" lon="4.71873">
        <ele>305.40887</ele>
        <time>2023-08-05T14:48:54.000Z</time>
      </trkpt>
      <trkpt lat="45.84534" lon="4.71875">
        <ele>305.62872</ele>
        <time>2023-08-05T14:48:55.000Z</time>
      </trkpt>
      <trkpt lat="45.84531" lon="4.71877">
        <ele>305.8623</ele>
        <time>2023-08-05T14:48:56.000Z</time>
      </trkpt>
      <trkpt lat="45.84529" lon="4.7188">
        <ele>306.06787</ele>
        <time>2023-08-05T14:48:57.000Z</time>
      </trkpt>
      <trkpt lat="45.84526" lon="4.71882">
        <ele>306.24561</ele>
        <time>2023-08-05T14:48:58.000Z</time>
      </trkpt>
      <trkpt lat="45.84523" lon="4.71885">
        <ele>306.40503</ele>
        <time>2023-08-05T14:48:59.000Z</time>
      </trkpt>
      <trkpt lat="45.8452" lon="4.71888">
        <ele>306.55051</ele>
        <time>2023-08-05T14:49:00.000Z</time>
      </trkpt>
      <trkpt lat="45.84517" lon="4.71891">
        <ele>306.68417</ele>
        <time>2023-08-05T14:49:01.000Z</time>
      </trkpt>
      <trkpt lat="45.84514" lon="4.71894">
        <ele>306.83408</ele>
        <time>2023-08-05T14:49:02.000Z</time>
      </trkpt>
      <trkpt lat="45.84511" lon="4.71897">
        <ele>306.9982</ele>
        <time>2023-08-05T14:49:03.000Z</time>
      </trkpt>
      <trkpt lat="45.84507" lon="4.719">
        <ele>307.1665</ele>
        <time>2023-08-05T14:49:04.000Z</time>
      </trkpt>
      <trkpt lat="45.84504" lon="4.71903">
        <ele>307.3089</ele>
        <time>2023-08-05T14:49:05.000Z</time>
      </trkpt>
      <trkpt lat="45.84501" lon="4.71906">
        <ele>307.42633</ele>
        <time>2023-08-05T14:49:06.000Z</time>
      </trkpt>
      <trkpt lat="45.84498" lon="4.71909">
        <ele>307.51913</ele>
        <time>2023-08-05T14:49:07.000Z</time>
      </trkpt>
      <trkpt lat="45.84494" lon="4.71912">
        <ele>307.62634</ele>
        <time>2023-08-05T14:49:08.000Z</time>
      </trkpt>
      <trkpt lat="45.84491" lon="4.71915">
        <ele>307.74176</ele>
        <time>2023-08-05T14:49:09.000Z</time>
      </trkpt>
      <trkpt lat="45.84487" lon="4.71918">
        <ele>307.81183</ele>
        <time>2023-08-05T14:49:10.000Z</time>
      </trkpt>
      <trkpt lat="45.84484" lon="4.71921">
        <ele>307.86249</ele>
        <time>2023-08-05T14:49:11.000Z</time>
      </trkpt>
      <trkpt lat="45.84481" lon="4.71923">
        <ele>307.9021</ele>
        <time>2023-08-05T14:49:12.000Z</time>
      </trkpt>
      <trkpt lat="45.84478" lon="4.71926">
        <ele>307.95728</ele>
        <time>2023-08-05T14:49:13.000Z</time>
      </trkpt>
      <trkpt lat="45.84475" lon="4.71928">
        <ele>308.03036</ele>
        <time>2023-08-05T14:49:14.000Z</time>
      </trkpt>
      <trkpt lat="45.84471" lon="4.71931">
        <ele>308.09796</ele>
        <time>2023-08-05T14:49:15.000Z</time>
      </trkpt>
      <trkpt lat="45.84468" lon="4.71933">
        <ele>308.17749</ele>
        <time>2023-08-05T14:49:16.000Z</time>
      </trkpt>
      <trkpt lat="45.84464" lon="4.71935">
        <ele>308.26456</ele>
        <time>2023-08-05T14:49:17.000Z</time>
      </trkpt>
      <trkpt lat="45.8446" lon="4.71936">
        <ele>308.36911</ele>
        <time>2023-08-05T14:49:18.000Z</time>
      </trkpt>
      <trkpt lat="45.84457" lon="4.71937">
        <ele>308.2424</ele>
        <time>2023-08-05T14:49:19.000Z</time>
      </trkpt>
      <trkpt lat="45.84453" lon="4.71938">
        <ele>308.10428</ele>
        <time>2023-08-05T14:49:20.000Z</time>
      </trkpt>
      <trkpt lat="45.8445" lon="4.71939">
        <ele>307.97946</ele>
        <time>2023-08-05T14:49:21.000Z</time>
      </trkpt>
      <trkpt lat="45.84446" lon="4.7194">
        <ele>307.81546</ele>
        <time>2023-08-05T14:49:22.000Z</time>
      </trkpt>
      <trkpt lat="45.84443" lon="4.7194">
        <ele>307.59897</ele>
        <time>2023-08-05T14:49:23.000Z</time>
      </trkpt>
      <trkpt lat="45.8444" lon="4.7194">
        <ele>307.36368</ele>
        <time>2023-08-05T14:49:24.000Z</time>
      </trkpt>
      <trkpt lat="45.84436" lon="4.7194">
        <ele>307.35458</ele>
        <time>2023-08-05T14:49:25.000Z</time>
      </trkpt>
      <trkpt lat="45.84432" lon="4.71941">
        <ele>307.33914</ele>
        <time>2023-08-05T14:49:26.000Z</time>
      </trkpt>
      <trkpt lat="45.84428" lon="4.71942">
        <ele>307.31537</ele>
        <time>2023-08-05T14:49:27.000Z</time>
      </trkpt>
      <trkpt lat="45.84423" lon="4.71944">
        <ele>307.06805</ele>
        <time>2023-08-05T14:49:28.000Z</time>
      </trkpt>
      <trkpt lat="45.8442" lon="4.71944">
        <ele>306.82944</ele>
        <time>2023-08-05T14:49:29.000Z</time>
      </trkpt>
      <trkpt lat="45.84415" lon="4.71945">
        <ele>306.67947</ele>
        <time>2023-08-05T14:49:30.000Z</time>
      </trkpt>
      <trkpt lat="45.84412" lon="4.71946">
        <ele>306.57089</ele>
        <time>2023-08-05T14:49:31.000Z</time>
      </trkpt>
      <trkpt lat="45.84408" lon="4.71946">
        <ele>306.48129</ele>
        <time>2023-08-05T14:49:32.000Z</time>
      </trkpt>
      <trkpt lat="45.84404" lon="4.71948">
        <ele>306.3649</ele>
        <time>2023-08-05T14:49:33.000Z</time>
      </trkpt>
      <trkpt lat="45.844" lon="4.7195">
        <ele>306.24466</ele>
        <time>2023-08-05T14:49:34.000Z</time>
      </trkpt>
      <trkpt lat="45.84396" lon="4.71951">
        <ele>306.11526</ele>
        <time>2023-08-05T14:49:35.000Z</time>
      </trkpt>
      <trkpt lat="45.84392" lon="4.71953">
        <ele>305.96835</ele>
        <time>2023-08-05T14:49:36.000Z</time>
      </trkpt>
      <trkpt lat="45.84388" lon="4.71954">
        <ele>305.75342</ele>
        <time>2023-08-05T14:49:37.000Z</time>
      </trkpt>
      <trkpt lat="45.84384" lon="4.71955">
        <ele>305.48038</ele>
        <time>2023-08-05T14:49:38.000Z</time>
      </trkpt>
      <trkpt lat="45.8438" lon="4.71956">
        <ele>305.43695</ele>
        <time>2023-08-05T14:49:39.000Z</time>
      </trkpt>
      <trkpt lat="45.84376" lon="4.71957">
        <ele>305.41986</ele>
        <time>2023-08-05T14:49:40.000Z</time>
      </trkpt>
      <trkpt lat="45.84372" lon="4.71958">
        <ele>305.3924</ele>
        <time>2023-08-05T14:49:41.000Z</time>
      </trkpt>
      <trkpt lat="45.84369" lon="4.71959">
        <ele>305.58502</ele>
        <time>2023-08-05T14:49:42.000Z</time>
      </trkpt>
      <trkpt lat="45.84365" lon="4.7196">
        <ele>305.77206</ele>
        <time>2023-08-05T14:49:43.000Z</time>
      </trkpt>
      <trkpt lat="45.84362" lon="4.71961">
        <ele>305.97153</ele>
        <time>2023-08-05T14:49:44.000Z</time>
      </trkpt>
      <trkpt lat="45.84358" lon="4.71962">
        <ele>305.92621</ele>
        <time>2023-08-05T14:49:45.000Z</time>
      </trkpt>
      <trkpt lat="45.84354" lon="4.71964">
        <ele>305.89694</ele>
        <time>2023-08-05T14:49:46.000Z</time>
      </trkpt>
      <trkpt lat="45.84351" lon="4.71965">
        <ele>305.86322</ele>
        <time>2023-08-05T14:49:47.000Z</time>
      </trkpt>
      <trkpt lat="45.84347" lon="4.71967">
        <ele>306.62201</ele>
        <time>2023-08-05T14:49:48.000Z</time>
      </trkpt>
      <trkpt lat="45.84344" lon="4.71969">
        <ele>307.37051</ele>
        <time>2023-08-05T14:49:49.000Z</time>
      </trkpt>
      <trkpt lat="45.8434" lon="4.71971">
        <ele>308.13544</ele>
        <time>2023-08-05T14:49:50.000Z</time>
      </trkpt>
      <trkpt lat="45.84336" lon="4.71973">
        <ele>308.87128</ele>
        <time>2023-08-05T14:49:51.000Z</time>
      </trkpt>
      <trkpt lat="45.84332" lon="4.71974">
        <ele>309.60175</ele>
        <time>2023-08-05T14:49:52.000Z</time>
      </trkpt>
      <trkpt lat="45.84328" lon="4.71975">
        <ele>310.21759</ele>
        <time>2023-08-05T14:49:53.000Z</time>
      </trkpt>
      <trkpt lat="45.84324" lon="4.71976">
        <ele>310.85187</ele>
        <time>2023-08-05T14:49:54.000Z</time>
      </trkpt>
      <trkpt lat="45.8432" lon="4.71978">
        <ele>311.48117</ele>
        <time>2023-08-05T14:49:55.000Z</time>
      </trkpt>
      <trkpt lat="45.84316" lon="4.71979">
        <ele>312.13303</ele>
        <time>2023-08-05T14:49:56.000Z</time>
      </trkpt>
      <trkpt lat="45.84312" lon="4.71982">
        <ele>312.85834</ele>
        <time>2023-08-05T14:49:57.000Z</time>
      </trkpt>
      <trkpt lat="45.84309" lon="4.71984">
        <ele>313.63037</ele>
        <time>2023-08-05T14:49:58.000Z</time>
      </trkpt>
      <trkpt lat="45.84305" lon="4.71987">
        <ele>314.42392</ele>
        <time>2023-08-05T14:49:59.000Z</time>
      </trkpt>
      <trkpt lat="45.84301" lon="4.7199">
        <ele>315.23486</ele>
        <time>2023-08-05T14:50:00.000Z</time>
      </trkpt>
      <trkpt lat="45.84297" lon="4.71992">
        <ele>316.05103</ele>
        <time>2023-08-05T14:50:01.000Z</time>
      </trkpt>
      <trkpt lat="45.84293" lon="4.71994">
        <ele>316.67575</ele>
        <time>2023-08-05T14:50:02.000Z</time>
      </trkpt>
      <trkpt lat="45.8429" lon="4.71996">
        <ele>317.32269</ele>
        <time>2023-08-05T14:50:03.000Z</time>
      </trkpt>
      <trkpt lat="45.84286" lon="4.71998">
        <ele>317.97314</ele>
        <time>2023-08-05T14:50:04.000Z</time>
      </trkpt>
      <trkpt lat="45.84282" lon="4.72">
        <ele>318.64093</ele>
        <time>2023-08-05T14:50:05.000Z</time>
      </trkpt>
      <trkpt lat="45.84279" lon="4.72002">
        <ele>319.29962</ele>
        <time>2023-08-05T14:50:06.000Z</time>
      </trkpt>
      <trkpt lat="45.84275" lon="4.72004">
        <ele>319.98071</ele>
        <time>2023-08-05T14:50:07.000Z</time>
      </trkpt>
      <trkpt lat="45.84272" lon="4.72006">
        <ele>320.07648</ele>
        <time>2023-08-05T14:50:08.000Z</time>
      </trkpt>
      <trkpt lat="45.84268" lon="4.72008">
        <ele>320.15768</ele>
        <time>2023-08-05T14:50:09.000Z</time>
      </trkpt>
      <trkpt lat="45.84264" lon="4.7201">
        <ele>320.20795</ele>
        <time>2023-08-05T14:50:10.000Z</time>
      </trkpt>
      <trkpt lat="45.8426" lon="4.72012">
        <ele>320.2482</ele>
        <time>2023-08-05T14:50:11.000Z</time>
      </trkpt>
      <trkpt lat="45.84257" lon="4.72014">
        <ele>320.2879</ele>
        <time>2023-08-05T14:50:12.000Z</time>
      </trkpt>
      <trkpt lat="45.84253" lon="4.72015">
        <ele>320.4382</ele>
        <time>2023-08-05T14:50:13.000Z</time>
      </trkpt>
      <trkpt lat="45.8425" lon="4.72017">
        <ele>320.565</ele>
        <time>2023-08-05T14:50:14.000Z</time>
      </trkpt>
      <trkpt lat="45.84246" lon="4.72019">
        <ele>320.71295</ele>
        <time>2023-08-05T14:50:15.000Z</time>
      </trkpt>
      <trkpt lat="45.84243" lon="4.7202">
        <ele>320.91449</ele>
        <time>2023-08-05T14:50:16.000Z</time>
      </trkpt>
      <trkpt lat="45.8424" lon="4.72022">
        <ele>321.14923</ele>
        <time>2023-08-05T14:50:17.000Z</time>
      </trkpt>
      <trkpt lat="45.84237" lon="4.72023">
        <ele>321.39923</ele>
        <time>2023-08-05T14:50:18.000Z</time>
      </trkpt>
      <trkpt lat="45.84234" lon="4.72025">
        <ele>321.55841</ele>
        <time>2023-08-05T14:50:19.000Z</time>
      </trkpt>
      <trkpt lat="45.84231" lon="4.72026">
        <ele>321.74997</ele>
        <time>2023-08-05T14:50:20.000Z</time>
      </trkpt>
      <trkpt lat="45.84228" lon="4.72028">
        <ele>321.94986</ele>
        <time>2023-08-05T14:50:21.000Z</time>
      </trkpt>
      <trkpt lat="45.84225" lon="4.72029">
        <ele>322.62817</ele>
        <time>2023-08-05T14:50:22.000Z</time>
      </trkpt>
      <trkpt lat="45.84223" lon="4.7203">
        <ele>323.32877</ele>
        <time>2023-08-05T14:50:23.000Z</time>
      </trkpt>
      <trkpt lat="45.84221" lon="4.72031">
        <ele>324.03134</ele>
        <time>2023-08-05T14:50:24.000Z</time>
      </trkpt>
      <trkpt lat="45.84219" lon="4.72033">
        <ele>324.72333</ele>
        <time>2023-08-05T14:50:25.000Z</time>
      </trkpt>
      <trkpt lat="45.84217" lon="4.72034">
        <ele>325.4165</ele>
        <time>2023-08-05T14:50:26.000Z</time>
      </trkpt>
      <trkpt lat="45.84215" lon="4.72036">
        <ele>326.10791</ele>
        <time>2023-08-05T14:50:27.000Z</time>
      </trkpt>
      <trkpt lat="45.84213" lon="4.72037">
        <ele>326.80923</ele>
        <time>2023-08-05T14:50:28.000Z</time>
      </trkpt>
      <trkpt lat="45.84211" lon="4.72039">
        <ele>327.49896</ele>
        <time>2023-08-05T14:50:29.000Z</time>
      </trkpt>
      <trkpt lat="45.84209" lon="4.7204">
        <ele>328.17169</ele>
        <time>2023-08-05T14:50:30.000Z</time>
      </trkpt>
      <trkpt lat="45.84208" lon="4.72042">
        <ele>328.83447</ele>
        <time>2023-08-05T14:50:31.000Z</time>
      </trkpt>
      <trkpt lat="45.84206" lon="4.72043">
        <ele>329.48599</ele>
        <time>2023-08-05T14:50:32.000Z</time>
      </trkpt>
      <trkpt lat="45.84205" lon="4.72045">
        <ele>330.12762</ele>
        <time>2023-08-05T14:50:33.000Z</time>
      </trkpt>
      <trkpt lat="45.84203" lon="4.72047">
        <ele>330.75626</ele>
        <time>2023-08-05T14:50:34.000Z</time>
      </trkpt>
      <trkpt lat="45.84202" lon="4.72048">
        <ele>331.3779</ele>
        <time>2023-08-05T14:50:35.000Z</time>
      </trkpt>
      <trkpt lat="45.842" lon="4.72049">
        <ele>331.939</ele>
        <time>2023-08-05T14:50:36.000Z</time>
      </trkpt>
      <trkpt lat="45.84197" lon="4.72052">
        <ele>332.4686</ele>
        <time>2023-08-05T14:50:38.000Z</time>
      </trkpt>
      <trkpt lat="45.84194" lon="4.72054">
        <ele>333.01596</ele>
        <time>2023-08-05T14:50:40.000Z</time>
      </trkpt>
      <trkpt lat="45.84192" lon="4.72055">
        <ele>333.63837</ele>
        <time>2023-08-05T14:50:41.000Z</time>
      </trkpt>
      <trkpt lat="45.8419" lon="4.72057">
        <ele>334.17902</ele>
        <time>2023-08-05T14:50:42.000Z</time>
      </trkpt>
      <trkpt lat="45.84188" lon="4.7206">
        <ele>334.71118</ele>
        <time>2023-08-05T14:50:44.000Z</time>
      </trkpt>
      <trkpt lat="45.84186" lon="4.72062">
        <ele>334.76654</ele>
        <time>2023-08-05T14:50:45.000Z</time>
      </trkpt>
      <trkpt lat="45.84184" lon="4.72063">
        <ele>334.79221</ele>
        <time>2023-08-05T14:50:46.000Z</time>
      </trkpt>
      <trkpt lat="45.84182" lon="4.72064">
        <ele>334.81339</ele>
        <time>2023-08-05T14:50:47.000Z</time>
      </trkpt>
      <trkpt lat="45.84181" lon="4.72066">
        <ele>334.83099</ele>
        <time>2023-08-05T14:50:48.000Z</time>
      </trkpt>
      <trkpt lat="45.84179" lon="4.72067">
        <ele>334.81168</ele>
        <time>2023-08-05T14:50:49.000Z</time>
      </trkpt>
      <trkpt lat="45.84178" lon="4.72069">
        <ele>334.80939</ele>
        <time>2023-08-05T14:50:50.000Z</time>
      </trkpt>
      <trkpt lat="45.84176" lon="4.72071">
        <ele>334.80859</ele>
        <time>2023-08-05T14:50:51.000Z</time>
      </trkpt>
      <trkpt lat="45.84174" lon="4.72072">
        <ele>334.82257</ele>
        <time>2023-08-05T14:50:52.000Z</time>
      </trkpt>
      <trkpt lat="45.84173" lon="4.72074">
        <ele>334.83942</ele>
        <time>2023-08-05T14:50:53.000Z</time>
      </trkpt>
      <trkpt lat="45.84171" lon="4.72076">
        <ele>334.86191</ele>
        <time>2023-08-05T14:50:54.000Z</time>
      </trkpt>
      <trkpt lat="45.84169" lon="4.72077">
        <ele>334.8887</ele>
        <time>2023-08-05T14:50:55.000Z</time>
      </trkpt>
      <trkpt lat="45.84167" lon="4.72079">
        <ele>334.92059</ele>
        <time>2023-08-05T14:50:56.000Z</time>
      </trkpt>
      <trkpt lat="45.84166" lon="4.7208">
        <ele>334.97217</ele>
        <time>2023-08-05T14:50:57.000Z</time>
      </trkpt>
      <trkpt lat="45.84164" lon="4.72082">
        <ele>335.00906</ele>
        <time>2023-08-05T14:50:58.000Z</time>
      </trkpt>
      <trkpt lat="45.84162" lon="4.72084">
        <ele>335.01978</ele>
        <time>2023-08-05T14:50:59.000Z</time>
      </trkpt>
      <trkpt lat="45.84161" lon="4.72085">
        <ele>335.03143</ele>
        <time>2023-08-05T14:51:00.000Z</time>
      </trkpt>
      <trkpt lat="45.84159" lon="4.72087">
        <ele>335.01193</ele>
        <time>2023-08-05T14:51:01.000Z</time>
      </trkpt>
      <trkpt lat="45.84158" lon="4.72089">
        <ele>334.96066</ele>
        <time>2023-08-05T14:51:02.000Z</time>
      </trkpt>
      <trkpt lat="45.84156" lon="4.7209">
        <ele>334.95416</ele>
        <time>2023-08-05T14:51:03.000Z</time>
      </trkpt>
      <trkpt lat="45.84154" lon="4.72092">
        <ele>334.95126</ele>
        <time>2023-08-05T14:51:04.000Z</time>
      </trkpt>
      <trkpt lat="45.84153" lon="4.72093">
        <ele>334.95892</ele>
        <time>2023-08-05T14:51:05.000Z</time>
      </trkpt>
      <trkpt lat="45.8415" lon="4.72097">
        <ele>334.90552</ele>
        <time>2023-08-05T14:51:07.000Z</time>
      </trkpt>
      <trkpt lat="45.84149" lon="4.72099">
        <ele>334.85797</ele>
        <time>2023-08-05T14:51:08.000Z</time>
      </trkpt>
      <trkpt lat="45.84147" lon="4.72101">
        <ele>334.82074</ele>
        <time>2023-08-05T14:51:09.000Z</time>
      </trkpt>
      <trkpt lat="45.84145" lon="4.72102">
        <ele>334.84122</ele>
        <time>2023-08-05T14:51:10.000Z</time>
      </trkpt>
      <trkpt lat="45.84143" lon="4.72104">
        <ele>334.91187</ele>
        <time>2023-08-05T14:51:11.000Z</time>
      </trkpt>
      <trkpt lat="45.84142" lon="4.72105">
        <ele>334.97437</ele>
        <time>2023-08-05T14:51:12.000Z</time>
      </trkpt>
      <trkpt lat="45.8414" lon="4.72107">
        <ele>335.0217</ele>
        <time>2023-08-05T14:51:13.000Z</time>
      </trkpt>
      <trkpt lat="45.8414" lon="4.72107">
        <ele>335.0217</ele>
        <time>2023-08-05T14:51:13.000Z</time>
      </trkpt>
      <trkpt lat="45.83907" lon="4.72143">
        <ele>334.94199</ele>
        <time>2023-08-05T14:52:50.000Z</time>
      </trkpt>
      <trkpt lat="45.83907" lon="4.72143">
        <ele>334.94199</ele>
        <time>2023-08-05T14:52:50.000Z</time>
      </trkpt>
      <trkpt lat="45.83904" lon="4.72141">
        <ele>334.86972</ele>
        <time>2023-08-05T14:52:51.000Z</time>
      </trkpt>
      <trkpt lat="45.839" lon="4.72138">
        <ele>334.7858</ele>
        <time>2023-08-05T14:52:52.000Z</time>
      </trkpt>
      <trkpt lat="45.83897" lon="4.72136">
        <ele>334.71701</ele>
        <time>2023-08-05T14:52:53.000Z</time>
      </trkpt>
      <trkpt lat="45.83893" lon="4.72134">
        <ele>334.65051</ele>
        <time>2023-08-05T14:52:54.000Z</time>
      </trkpt>
      <trkpt lat="45.8389" lon="4.72132">
        <ele>334.59869</ele>
        <time>2023-08-05T14:52:55.000Z</time>
      </trkpt>
      <trkpt lat="45.83886" lon="4.7213">
        <ele>334.56549</ele>
        <time>2023-08-05T14:52:56.000Z</time>
      </trkpt>
      <trkpt lat="45.83882" lon="4.72128">
        <ele>334.53217</ele>
        <time>2023-08-05T14:52:57.000Z</time>
      </trkpt>
      <trkpt lat="45.83879" lon="4.72126">
        <ele>334.50018</ele>
        <time>2023-08-05T14:52:58.000Z</time>
      </trkpt>
      <trkpt lat="45.83875" lon="4.72123">
        <ele>334.48962</ele>
        <time>2023-08-05T14:52:59.000Z</time>
      </trkpt>
      <trkpt lat="45.83872" lon="4.72121">
        <ele>334.47565</ele>
        <time>2023-08-05T14:53:00.000Z</time>
      </trkpt>
      <trkpt lat="45.83868" lon="4.72119">
        <ele>334.45758</ele>
        <time>2023-08-05T14:53:01.000Z</time>
      </trkpt>
      <trkpt lat="45.83865" lon="4.72117">
        <ele>334.43216</ele>
        <time>2023-08-05T14:53:02.000Z</time>
      </trkpt>
      <trkpt lat="45.83861" lon="4.72115">
        <ele>334.46783</ele>
        <time>2023-08-05T14:53:03.000Z</time>
      </trkpt>
      <trkpt lat="45.83858" lon="4.72113">
        <ele>334.47351</ele>
        <time>2023-08-05T14:53:04.000Z</time>
      </trkpt>
      <trkpt lat="45.83855" lon="4.72111">
        <ele>334.47647</ele>
        <time>2023-08-05T14:53:05.000Z</time>
      </trkpt>
      <trkpt lat="45.83852" lon="4.72109">
        <ele>334.43744</ele>
        <time>2023-08-05T14:53:06.000Z</time>
      </trkpt>
      <trkpt lat="45.83848" lon="4.72107">
        <ele>334.48981</ele>
        <time>2023-08-05T14:53:07.000Z</time>
      </trkpt>
      <trkpt lat="45.83845" lon="4.72105">
        <ele>334.55328</ele>
        <time>2023-08-05T14:53:08.000Z</time>
      </trkpt>
      <trkpt lat="45.83842" lon="4.72103">
        <ele>334.61798</ele>
        <time>2023-08-05T14:53:09.000Z</time>
      </trkpt>
      <trkpt lat="45.83838" lon="4.72101">
        <ele>334.8161</ele>
        <time>2023-08-05T14:53:10.000Z</time>
      </trkpt>
      <trkpt lat="45.83835" lon="4.72099">
        <ele>335.01096</ele>
        <time>2023-08-05T14:53:11.000Z</time>
      </trkpt>
      <trkpt lat="45.83831" lon="4.72097">
        <ele>335.21558</ele>
        <time>2023-08-05T14:53:12.000Z</time>
      </trkpt>
      <trkpt lat="45.83828" lon="4.72095">
        <ele>335.41541</ele>
        <time>2023-08-05T14:53:13.000Z</time>
      </trkpt>
      <trkpt lat="45.83824" lon="4.72092">
        <ele>335.60248</ele>
        <time>2023-08-05T14:53:14.000Z</time>
      </trkpt>
      <trkpt lat="45.83821" lon="4.7209">
        <ele>335.76987</ele>
        <time>2023-08-05T14:53:15.000Z</time>
      </trkpt>
      <trkpt lat="45.83817" lon="4.72088">
        <ele>336.03183</ele>
        <time>2023-08-05T14:53:16.000Z</time>
      </trkpt>
      <trkpt lat="45.83813" lon="4.72086">
        <ele>335.97479</ele>
        <time>2023-08-05T14:53:17.000Z</time>
      </trkpt>
      <trkpt lat="45.83809" lon="4.72084">
        <ele>335.98477</ele>
        <time>2023-08-05T14:53:18.000Z</time>
      </trkpt>
      <trkpt lat="45.83805" lon="4.72081">
        <ele>335.99463</ele>
        <time>2023-08-05T14:53:19.000Z</time>
      </trkpt>
      <trkpt lat="45.83801" lon="4.72078">
        <ele>335.99542</ele>
        <time>2023-08-05T14:53:20.000Z</time>
      </trkpt>
      <trkpt lat="45.83797" lon="4.72076">
        <ele>336.14886</ele>
        <time>2023-08-05T14:53:21.000Z</time>
      </trkpt>
      <trkpt lat="45.83793" lon="4.72074">
        <ele>336.30096</ele>
        <time>2023-08-05T14:53:22.000Z</time>
      </trkpt>
      <trkpt lat="45.83789" lon="4.72072">
        <ele>336.47482</ele>
        <time>2023-08-05T14:53:23.000Z</time>
      </trkpt>
      <trkpt lat="45.83785" lon="4.72069">
        <ele>336.65829</ele>
        <time>2023-08-05T14:53:24.000Z</time>
      </trkpt>
      <trkpt lat="45.83781" lon="4.72067">
        <ele>336.83539</ele>
        <time>2023-08-05T14:53:25.000Z</time>
      </trkpt>
      <trkpt lat="45.83777" lon="4.72064">
        <ele>337.01987</ele>
        <time>2023-08-05T14:53:26.000Z</time>
      </trkpt>
      <trkpt lat="45.83773" lon="4.72061">
        <ele>337.04669</ele>
        <time>2023-08-05T14:53:27.000Z</time>
      </trkpt>
      <trkpt lat="45.83769" lon="4.72059">
        <ele>337.06741</ele>
        <time>2023-08-05T14:53:28.000Z</time>
      </trkpt>
      <trkpt lat="45.83765" lon="4.72056">
        <ele>336.80756</ele>
        <time>2023-08-05T14:53:29.000Z</time>
      </trkpt>
      <trkpt lat="45.83761" lon="4.72054">
        <ele>336.66867</ele>
        <time>2023-08-05T14:53:30.000Z</time>
      </trkpt>
      <trkpt lat="45.83757" lon="4.72051">
        <ele>336.44244</ele>
        <time>2023-08-05T14:53:31.000Z</time>
      </trkpt>
      <trkpt lat="45.83752" lon="4.72049">
        <ele>336.23257</ele>
        <time>2023-08-05T14:53:32.000Z</time>
      </trkpt>
      <trkpt lat="45.83748" lon="4.72047">
        <ele>336.01508</ele>
        <time>2023-08-05T14:53:33.000Z</time>
      </trkpt>
      <trkpt lat="45.83744" lon="4.72044">
        <ele>335.81125</ele>
        <time>2023-08-05T14:53:34.000Z</time>
      </trkpt>
      <trkpt lat="45.83739" lon="4.72042">
        <ele>335.61737</ele>
        <time>2023-08-05T14:53:35.000Z</time>
      </trkpt>
      <trkpt lat="45.83735" lon="4.72041">
        <ele>335.32083</ele>
        <time>2023-08-05T14:53:36.000Z</time>
      </trkpt>
      <trkpt lat="45.83731" lon="4.72039">
        <ele>335.35196</ele>
        <time>2023-08-05T14:53:37.000Z</time>
      </trkpt>
      <trkpt lat="45.83726" lon="4.72037">
        <ele>335.31552</ele>
        <time>2023-08-05T14:53:38.000Z</time>
      </trkpt>
      <trkpt lat="45.83722" lon="4.72035">
        <ele>335.2746</ele>
        <time>2023-08-05T14:53:39.000Z</time>
      </trkpt>
      <trkpt lat="45.83717" lon="4.72035">
        <ele>335.2308</ele>
        <time>2023-08-05T14:53:40.000Z</time>
      </trkpt>
      <trkpt lat="45.83713" lon="4.72034">
        <ele>335.02344</ele>
        <time>2023-08-05T14:53:41.000Z</time>
      </trkpt>
      <trkpt lat="45.83708" lon="4.72033">
        <ele>334.81738</ele>
        <time>2023-08-05T14:53:42.000Z</time>
      </trkpt>
      <trkpt lat="45.83704" lon="4.72033">
        <ele>334.60382</ele>
        <time>2023-08-05T14:53:43.000Z</time>
      </trkpt>
      <trkpt lat="45.83699" lon="4.72033">
        <ele>334.38983</ele>
        <time>2023-08-05T14:53:44.000Z</time>
      </trkpt>
      <trkpt lat="45.83695" lon="4.72033">
        <ele>334.18622</ele>
        <time>2023-08-05T14:53:45.000Z</time>
      </trkpt>
      <trkpt lat="45.8369" lon="4.72032">
        <ele>333.98611</ele>
        <time>2023-08-05T14:53:46.000Z</time>
      </trkpt>
      <trkpt lat="45.83685" lon="4.72033">
        <ele>333.78363</ele>
        <time>2023-08-05T14:53:47.000Z</time>
      </trkpt>
      <trkpt lat="45.83681" lon="4.72033">
        <ele>333.85187</ele>
        <time>2023-08-05T14:53:48.000Z</time>
      </trkpt>
      <trkpt lat="45.83676" lon="4.72034">
        <ele>334.21188</ele>
        <time>2023-08-05T14:53:49.000Z</time>
      </trkpt>
      <trkpt lat="45.83672" lon="4.72034">
        <ele>334.45145</ele>
        <time>2023-08-05T14:53:50.000Z</time>
      </trkpt>
      <trkpt lat="45.83668" lon="4.72035">
        <ele>334.51337</ele>
        <time>2023-08-05T14:53:51.000Z</time>
      </trkpt>
      <trkpt lat="45.83664" lon="4.72036">
        <ele>334.66193</ele>
        <time>2023-08-05T14:53:52.000Z</time>
      </trkpt>
      <trkpt lat="45.8366" lon="4.72035">
        <ele>334.81073</ele>
        <time>2023-08-05T14:53:53.000Z</time>
      </trkpt>
      <trkpt lat="45.83656" lon="4.72033">
        <ele>334.97983</ele>
        <time>2023-08-05T14:53:54.000Z</time>
      </trkpt>
      <trkpt lat="45.83655" lon="4.72029">
        <ele>335.15308</ele>
        <time>2023-08-05T14:53:55.000Z</time>
      </trkpt>
      <trkpt lat="45.83654" lon="4.72025">
        <ele>335.34125</ele>
        <time>2023-08-05T14:53:56.000Z</time>
      </trkpt>
      <trkpt lat="45.83653" lon="4.7202">
        <ele>335.53036</ele>
        <time>2023-08-05T14:53:57.000Z</time>
      </trkpt>
      <trkpt lat="45.83653" lon="4.72015">
        <ele>335.71185</ele>
        <time>2023-08-05T14:53:58.000Z</time>
      </trkpt>
      <trkpt lat="45.83653" lon="4.7201">
        <ele>335.96173</ele>
        <time>2023-08-05T14:53:59.000Z</time>
      </trkpt>
      <trkpt lat="45.83654" lon="4.72005">
        <ele>336.10248</ele>
        <time>2023-08-05T14:54:00.000Z</time>
      </trkpt>
      <trkpt lat="45.83654" lon="4.72001">
        <ele>336.24969</ele>
        <time>2023-08-05T14:54:01.000Z</time>
      </trkpt>
      <trkpt lat="45.83654" lon="4.71996">
        <ele>336.58575</ele>
        <time>2023-08-05T14:54:02.000Z</time>
      </trkpt>
      <trkpt lat="45.83654" lon="4.71991">
        <ele>336.8064</ele>
        <time>2023-08-05T14:54:03.000Z</time>
      </trkpt>
      <trkpt lat="45.83654" lon="4.71986">
        <ele>337.17862</ele>
        <time>2023-08-05T14:54:04.000Z</time>
      </trkpt>
      <trkpt lat="45.83654" lon="4.71981">
        <ele>337.64618</ele>
        <time>2023-08-05T14:54:05.000Z</time>
      </trkpt>
      <trkpt lat="45.83654" lon="4.71977">
        <ele>338.12662</ele>
        <time>2023-08-05T14:54:06.000Z</time>
      </trkpt>
      <trkpt lat="45.83654" lon="4.71972">
        <ele>338.30496</ele>
        <time>2023-08-05T14:54:07.000Z</time>
      </trkpt>
      <trkpt lat="45.83654" lon="4.71967">
        <ele>338.26572</ele>
        <time>2023-08-05T14:54:08.000Z</time>
      </trkpt>
      <trkpt lat="45.83654" lon="4.71963">
        <ele>338.22345</ele>
        <time>2023-08-05T14:54:09.000Z</time>
      </trkpt>
      <trkpt lat="45.83654" lon="4.71958">
        <ele>338.18951</ele>
        <time>2023-08-05T14:54:10.000Z</time>
      </trkpt>
      <trkpt lat="45.83653" lon="4.71953">
        <ele>338.43109</ele>
        <time>2023-08-05T14:54:11.000Z</time>
      </trkpt>
      <trkpt lat="45.83653" lon="4.71949">
        <ele>338.59158</ele>
        <time>2023-08-05T14:54:12.000Z</time>
      </trkpt>
      <trkpt lat="45.83653" lon="4.71944">
        <ele>338.75381</ele>
        <time>2023-08-05T14:54:13.000Z</time>
      </trkpt>
      <trkpt lat="45.83653" lon="4.71939">
        <ele>338.90903</ele>
        <time>2023-08-05T14:54:14.000Z</time>
      </trkpt>
      <trkpt lat="45.83653" lon="4.71934">
        <ele>339.04086</ele>
        <time>2023-08-05T14:54:15.000Z</time>
      </trkpt>
      <trkpt lat="45.83653" lon="4.71929">
        <ele>339.15961</ele>
        <time>2023-08-05T14:54:16.000Z</time>
      </trkpt>
      <trkpt lat="45.83653" lon="4.71924">
        <ele>339.27701</ele>
        <time>2023-08-05T14:54:17.000Z</time>
      </trkpt>
      <trkpt lat="45.83653" lon="4.71919">
        <ele>339.40833</ele>
        <time>2023-08-05T14:54:18.000Z</time>
      </trkpt>
      <trkpt lat="45.83652" lon="4.71914">
        <ele>339.47473</ele>
        <time>2023-08-05T14:54:19.000Z</time>
      </trkpt>
      <trkpt lat="45.83652" lon="4.71909">
        <ele>339.64328</ele>
        <time>2023-08-05T14:54:20.000Z</time>
      </trkpt>
      <trkpt lat="45.83652" lon="4.71904">
        <ele>339.80914</ele>
        <time>2023-08-05T14:54:21.000Z</time>
      </trkpt>
      <trkpt lat="45.83652" lon="4.71899">
        <ele>339.93735</ele>
        <time>2023-08-05T14:54:22.000Z</time>
      </trkpt>
      <trkpt lat="45.83652" lon="4.71895">
        <ele>340.27448</ele>
        <time>2023-08-05T14:54:23.000Z</time>
      </trkpt>
      <trkpt lat="45.83652" lon="4.7189">
        <ele>340.18704</ele>
        <time>2023-08-05T14:54:24.000Z</time>
      </trkpt>
      <trkpt lat="45.83652" lon="4.71885">
        <ele>340.06357</ele>
        <time>2023-08-05T14:54:25.000Z</time>
      </trkpt>
      <trkpt lat="45.83652" lon="4.71881">
        <ele>339.97739</ele>
        <time>2023-08-05T14:54:26.000Z</time>
      </trkpt>
      <trkpt lat="45.83652" lon="4.71876">
        <ele>340.18439</ele>
        <time>2023-08-05T14:54:27.000Z</time>
      </trkpt>
      <trkpt lat="45.83651" lon="4.71873">
        <ele>340.33081</ele>
        <time>2023-08-05T14:54:28.000Z</time>
      </trkpt>
      <trkpt lat="45.83651" lon="4.71869">
        <ele>340.47116</ele>
        <time>2023-08-05T14:54:29.000Z</time>
      </trkpt>
      <trkpt lat="45.83649" lon="4.71867">
        <ele>340.59604</ele>
        <time>2023-08-05T14:54:30.000Z</time>
      </trkpt>
      <trkpt lat="45.83647" lon="4.71864">
        <ele>340.68341</ele>
        <time>2023-08-05T14:54:31.000Z</time>
      </trkpt>
      <trkpt lat="45.83644" lon="4.7186">
        <ele>340.71283</ele>
        <time>2023-08-05T14:54:32.000Z</time>
      </trkpt>
      <trkpt lat="45.83641" lon="4.71857">
        <ele>340.87125</ele>
        <time>2023-08-05T14:54:33.000Z</time>
      </trkpt>
      <trkpt lat="45.83638" lon="4.71854">
        <ele>341.0867</ele>
        <time>2023-08-05T14:54:34.000Z</time>
      </trkpt>
      <trkpt lat="45.83635" lon="4.71851">
        <ele>341.03119</ele>
        <time>2023-08-05T14:54:35.000Z</time>
      </trkpt>
      <trkpt lat="45.83631" lon="4.71848">
        <ele>341.02264</ele>
        <time>2023-08-05T14:54:36.000Z</time>
      </trkpt>
      <trkpt lat="45.83629" lon="4.71845">
        <ele>340.96649</ele>
        <time>2023-08-05T14:54:37.000Z</time>
      </trkpt>
      <trkpt lat="45.83626" lon="4.71842">
        <ele>340.94769</ele>
        <time>2023-08-05T14:54:38.000Z</time>
      </trkpt>
      <trkpt lat="45.83623" lon="4.71839">
        <ele>340.98239</ele>
        <time>2023-08-05T14:54:39.000Z</time>
      </trkpt>
      <trkpt lat="45.83621" lon="4.71832">
        <ele>340.99933</ele>
        <time>2023-08-05T14:54:40.000Z</time>
      </trkpt>
      <trkpt lat="45.83619" lon="4.71827">
        <ele>341.00314</ele>
        <time>2023-08-05T14:54:41.000Z</time>
      </trkpt>
      <trkpt lat="45.83616" lon="4.71821">
        <ele>340.80743</ele>
        <time>2023-08-05T14:54:42.000Z</time>
      </trkpt>
      <trkpt lat="45.83615" lon="4.71815">
        <ele>340.53104</ele>
        <time>2023-08-05T14:54:43.000Z</time>
      </trkpt>
      <trkpt lat="45.83613" lon="4.71811">
        <ele>340.52081</ele>
        <time>2023-08-05T14:54:44.000Z</time>
      </trkpt>
      <trkpt lat="45.8361" lon="4.71807">
        <ele>340.48019</ele>
        <time>2023-08-05T14:54:45.000Z</time>
      </trkpt>
      <trkpt lat="45.83608" lon="4.71803">
        <ele>340.40472</ele>
        <time>2023-08-05T14:54:46.000Z</time>
      </trkpt>
      <trkpt lat="45.83607" lon="4.718">
        <ele>340.25525</ele>
        <time>2023-08-05T14:54:48.000Z</time>
      </trkpt>
      <trkpt lat="45.83606" lon="4.71798">
        <ele>340.30634</ele>
        <time>2023-08-05T14:54:57.000Z</time>
      </trkpt>
      <trkpt lat="45.83607" lon="4.71796">
        <ele>340.22266</ele>
        <time>2023-08-05T14:56:52.000Z</time>
      </trkpt>
      <trkpt lat="45.83611" lon="4.71795">
        <ele>340.12592</ele>
        <time>2023-08-05T14:56:54.000Z</time>
      </trkpt>
      <trkpt lat="45.83613" lon="4.71796">
        <ele>340.04865</ele>
        <time>2023-08-05T14:56:55.000Z</time>
      </trkpt>
      <trkpt lat="45.83615" lon="4.71797">
        <ele>340.11398</ele>
        <time>2023-08-05T14:56:56.000Z</time>
      </trkpt>
      <trkpt lat="45.83618" lon="4.71797">
        <ele>340.15643</ele>
        <time>2023-08-05T14:56:57.000Z</time>
      </trkpt>
      <trkpt lat="45.83621" lon="4.71798">
        <ele>339.77997</ele>
        <time>2023-08-05T14:56:58.000Z</time>
      </trkpt>
      <trkpt lat="45.83625" lon="4.71797">
        <ele>339.72833</ele>
        <time>2023-08-05T14:56:59.000Z</time>
      </trkpt>
      <trkpt lat="45.83628" lon="4.71796">
        <ele>339.64014</ele>
        <time>2023-08-05T14:57:00.000Z</time>
      </trkpt>
      <trkpt lat="45.83632" lon="4.71796">
        <ele>339.57953</ele>
        <time>2023-08-05T14:57:01.000Z</time>
      </trkpt>
      <trkpt lat="45.83637" lon="4.71795">
        <ele>339.46884</ele>
        <time>2023-08-05T14:57:02.000Z</time>
      </trkpt>
      <trkpt lat="45.83641" lon="4.71794">
        <ele>339.2789</ele>
        <time>2023-08-05T14:57:03.000Z</time>
      </trkpt>
      <trkpt lat="45.83646" lon="4.71794">
        <ele>339.08066</ele>
        <time>2023-08-05T14:57:04.000Z</time>
      </trkpt>
      <trkpt lat="45.8365" lon="4.71788">
        <ele>338.90121</ele>
        <time>2023-08-05T14:57:05.000Z</time>
      </trkpt>
      <trkpt lat="45.83652" lon="4.71782">
        <ele>338.66357</ele>
        <time>2023-08-05T14:57:06.000Z</time>
      </trkpt>
      <trkpt lat="45.83655" lon="4.71776">
        <ele>338.41293</ele>
        <time>2023-08-05T14:57:07.000Z</time>
      </trkpt>
      <trkpt lat="45.83659" lon="4.71769">
        <ele>338.26935</ele>
        <time>2023-08-05T14:57:08.000Z</time>
      </trkpt>
      <trkpt lat="45.83665" lon="4.71764">
        <ele>338.06155</ele>
        <time>2023-08-05T14:57:09.000Z</time>
      </trkpt>
      <trkpt lat="45.83671" lon="4.71759">
        <ele>337.81372</ele>
        <time>2023-08-05T14:57:10.000Z</time>
      </trkpt>
      <trkpt lat="45.83677" lon="4.71755">
        <ele>337.60822</ele>
        <time>2023-08-05T14:57:11.000Z</time>
      </trkpt>
      <trkpt lat="45.83681" lon="4.71749">
        <ele>337.19571</ele>
        <time>2023-08-05T14:57:12.000Z</time>
      </trkpt>
      <trkpt lat="45.83687" lon="4.71743">
        <ele>336.88791</ele>
        <time>2023-08-05T14:57:13.000Z</time>
      </trkpt>
      <trkpt lat="45.83693" lon="4.71737">
        <ele>336.58551</ele>
        <time>2023-08-05T14:57:14.000Z</time>
      </trkpt>
      <trkpt lat="45.83699" lon="4.71729">
        <ele>336.23712</ele>
        <time>2023-08-05T14:57:15.000Z</time>
      </trkpt>
      <trkpt lat="45.83704" lon="4.71722">
        <ele>335.75125</ele>
        <time>2023-08-05T14:57:16.000Z</time>
      </trkpt>
      <trkpt lat="45.83709" lon="4.71717">
        <ele>334.24228</ele>
        <time>2023-08-05T14:57:17.000Z</time>
      </trkpt>
      <trkpt lat="45.83712" lon="4.71712">
        <ele>333.0704</ele>
        <time>2023-08-05T14:57:18.000Z</time>
      </trkpt>
      <trkpt lat="45.83715" lon="4.71708">
        <ele>331.86176</ele>
        <time>2023-08-05T14:57:19.000Z</time>
      </trkpt>
      <trkpt lat="45.83717" lon="4.71703">
        <ele>330.63226</ele>
        <time>2023-08-05T14:57:20.000Z</time>
      </trkpt>
      <trkpt lat="45.83717" lon="4.71699">
        <ele>329.37079</ele>
        <time>2023-08-05T14:57:21.000Z</time>
      </trkpt>
      <trkpt lat="45.83717" lon="4.71695">
        <ele>328.08524</ele>
        <time>2023-08-05T14:57:22.000Z</time>
      </trkpt>
      <trkpt lat="45.83717" lon="4.71693">
        <ele>326.85861</ele>
        <time>2023-08-05T14:57:23.000Z</time>
      </trkpt>
      <trkpt lat="45.83717" lon="4.71688">
        <ele>325.61566</ele>
        <time>2023-08-05T14:57:24.000Z</time>
      </trkpt>
      <trkpt lat="45.83715" lon="4.71686">
        <ele>324.366</ele>
        <time>2023-08-05T14:57:25.000Z</time>
      </trkpt>
      <trkpt lat="45.83713" lon="4.71679">
        <ele>323.18527</ele>
        <time>2023-08-05T14:57:27.000Z</time>
      </trkpt>
      <trkpt lat="45.83711" lon="4.71675">
        <ele>321.99094</ele>
        <time>2023-08-05T14:57:28.000Z</time>
      </trkpt>
      <trkpt lat="45.83709" lon="4.71671">
        <ele>320.68417</ele>
        <time>2023-08-05T14:57:29.000Z</time>
      </trkpt>
      <trkpt lat="45.83707" lon="4.71667">
        <ele>319.44711</ele>
        <time>2023-08-05T14:57:30.000Z</time>
      </trkpt>
      <trkpt lat="45.83705" lon="4.71662">
        <ele>318.25983</ele>
        <time>2023-08-05T14:57:31.000Z</time>
      </trkpt>
      <trkpt lat="45.83703" lon="4.71659">
        <ele>317.12793</ele>
        <time>2023-08-05T14:57:32.000Z</time>
      </trkpt>
      <trkpt lat="45.83701" lon="4.71655">
        <ele>316.0455</ele>
        <time>2023-08-05T14:57:33.000Z</time>
      </trkpt>
      <trkpt lat="45.837" lon="4.71652">
        <ele>314.95782</ele>
        <time>2023-08-05T14:57:34.000Z</time>
      </trkpt>
      <trkpt lat="45.83698" lon="4.71649">
        <ele>313.90607</ele>
        <time>2023-08-05T14:57:35.000Z</time>
      </trkpt>
      <trkpt lat="45.83696" lon="4.71647">
        <ele>312.9411</ele>
        <time>2023-08-05T14:57:36.000Z</time>
      </trkpt>
      <trkpt lat="45.83694" lon="4.71646">
        <ele>312.01346</ele>
        <time>2023-08-05T14:57:37.000Z</time>
      </trkpt>
      <trkpt lat="45.83692" lon="4.71646">
        <ele>312.0249</ele>
        <time>2023-08-05T14:57:38.000Z</time>
      </trkpt>
      <trkpt lat="45.8369" lon="4.71647">
        <ele>312.06876</ele>
        <time>2023-08-05T14:57:39.000Z</time>
      </trkpt>
      <trkpt lat="45.83688" lon="4.71648">
        <ele>312.12045</ele>
        <time>2023-08-05T14:57:40.000Z</time>
      </trkpt>
      <trkpt lat="45.83687" lon="4.71649">
        <ele>312.18692</ele>
        <time>2023-08-05T14:57:41.000Z</time>
      </trkpt>
      <trkpt lat="45.83683" lon="4.71651">
        <ele>312.30798</ele>
        <time>2023-08-05T14:57:43.000Z</time>
      </trkpt>
      <trkpt lat="45.8368" lon="4.71652">
        <ele>312.46161</ele>
        <time>2023-08-05T14:57:44.000Z</time>
      </trkpt>
      <trkpt lat="45.83678" lon="4.71653">
        <ele>312.62183</ele>
        <time>2023-08-05T14:57:45.000Z</time>
      </trkpt>
      <trkpt lat="45.83676" lon="4.71655">
        <ele>312.82953</ele>
        <time>2023-08-05T14:57:46.000Z</time>
      </trkpt>
      <trkpt lat="45.83674" lon="4.71656">
        <ele>313.04623</ele>
        <time>2023-08-05T14:57:47.000Z</time>
      </trkpt>
      <trkpt lat="45.83672" lon="4.71656">
        <ele>313.31714</ele>
        <time>2023-08-05T14:57:48.000Z</time>
      </trkpt>
      <trkpt lat="45.83669" lon="4.71656">
        <ele>313.6228</ele>
        <time>2023-08-05T14:57:49.000Z</time>
      </trkpt>
      <trkpt lat="45.83668" lon="4.71656">
        <ele>313.96307</ele>
        <time>2023-08-05T14:57:50.000Z</time>
      </trkpt>
      <trkpt lat="45.83665" lon="4.71656">
        <ele>314.319</ele>
        <time>2023-08-05T14:57:51.000Z</time>
      </trkpt>
      <trkpt lat="45.83662" lon="4.71655">
        <ele>314.66522</ele>
        <time>2023-08-05T14:57:52.000Z</time>
      </trkpt>
      <trkpt lat="45.8366" lon="4.71655">
        <ele>315.02496</ele>
        <time>2023-08-05T14:57:53.000Z</time>
      </trkpt>
      <trkpt lat="45.83658" lon="4.71655">
        <ele>315.36264</ele>
        <time>2023-08-05T14:57:54.000Z</time>
      </trkpt>
      <trkpt lat="45.83655" lon="4.71654">
        <ele>315.76434</ele>
        <time>2023-08-05T14:57:55.000Z</time>
      </trkpt>
      <trkpt lat="45.83652" lon="4.71653">
        <ele>316.16296</ele>
        <time>2023-08-05T14:57:56.000Z</time>
      </trkpt>
      <trkpt lat="45.83649" lon="4.71652">
        <ele>316.53937</ele>
        <time>2023-08-05T14:57:57.000Z</time>
      </trkpt>
      <trkpt lat="45.83647" lon="4.71651">
        <ele>316.93933</ele>
        <time>2023-08-05T14:57:58.000Z</time>
      </trkpt>
      <trkpt lat="45.83644" lon="4.7165">
        <ele>317.32483</ele>
        <time>2023-08-05T14:57:59.000Z</time>
      </trkpt>
      <trkpt lat="45.83642" lon="4.71648">
        <ele>317.67987</ele>
        <time>2023-08-05T14:58:00.000Z</time>
      </trkpt>
      <trkpt lat="45.8364" lon="4.71647">
        <ele>318.02094</ele>
        <time>2023-08-05T14:58:01.000Z</time>
      </trkpt>
      <trkpt lat="45.83638" lon="4.71645">
        <ele>318.36044</ele>
        <time>2023-08-05T14:58:02.000Z</time>
      </trkpt>
      <trkpt lat="45.83636" lon="4.71644">
        <ele>318.78949</ele>
        <time>2023-08-05T14:58:03.000Z</time>
      </trkpt>
      <trkpt lat="45.83633" lon="4.71643">
        <ele>319.21167</ele>
        <time>2023-08-05T14:58:04.000Z</time>
      </trkpt>
      <trkpt lat="45.83632" lon="4.71642">
        <ele>320.42468</ele>
        <time>2023-08-05T14:58:05.000Z</time>
      </trkpt>
      <trkpt lat="45.8363" lon="4.7164">
        <ele>321.74783</ele>
        <time>2023-08-05T14:58:06.000Z</time>
      </trkpt>
      <trkpt lat="45.83629" lon="4.71638">
        <ele>322.76041</ele>
        <time>2023-08-05T14:58:07.000Z</time>
      </trkpt>
      <trkpt lat="45.83628" lon="4.71635">
        <ele>323.81375</ele>
        <time>2023-08-05T14:58:08.000Z</time>
      </trkpt>
      <trkpt lat="45.83628" lon="4.71632">
        <ele>324.99042</ele>
        <time>2023-08-05T14:58:09.000Z</time>
      </trkpt>
      <trkpt lat="45.83627" lon="4.71629">
        <ele>326.1712</ele>
        <time>2023-08-05T14:58:10.000Z</time>
      </trkpt>
      <trkpt lat="45.83627" lon="4.71627">
        <ele>327.258</ele>
        <time>2023-08-05T14:58:11.000Z</time>
      </trkpt>
      <trkpt lat="45.83626" lon="4.71624">
        <ele>328.3136</ele>
        <time>2023-08-05T14:58:12.000Z</time>
      </trkpt>
      <trkpt lat="45.83625" lon="4.71622">
        <ele>329.24161</ele>
        <time>2023-08-05T14:58:13.000Z</time>
      </trkpt>
      <trkpt lat="45.83624" lon="4.71618">
        <ele>330.16357</ele>
        <time>2023-08-05T14:58:14.000Z</time>
      </trkpt>
      <trkpt lat="45.83624" lon="4.71615">
        <ele>331.08191</ele>
        <time>2023-08-05T14:58:15.000Z</time>
      </trkpt>
      <trkpt lat="45.83623" lon="4.71611">
        <ele>332.0087</ele>
        <time>2023-08-05T14:58:16.000Z</time>
      </trkpt>
      <trkpt lat="45.83623" lon="4.71608">
        <ele>332.94589</ele>
        <time>2023-08-05T14:58:17.000Z</time>
      </trkpt>
      <trkpt lat="45.83623" lon="4.71605">
        <ele>333.85858</ele>
        <time>2023-08-05T14:58:18.000Z</time>
      </trkpt>
      <trkpt lat="45.83622" lon="4.71602">
        <ele>334.76172</ele>
        <time>2023-08-05T14:58:19.000Z</time>
      </trkpt>
      <trkpt lat="45.83621" lon="4.71599">
        <ele>335.65887</ele>
        <time>2023-08-05T14:58:20.000Z</time>
      </trkpt>
      <trkpt lat="45.83621" lon="4.71596">
        <ele>336.57428</ele>
        <time>2023-08-05T14:58:21.000Z</time>
      </trkpt>
      <trkpt lat="45.83621" lon="4.71593">
        <ele>337.48578</ele>
        <time>2023-08-05T14:58:22.000Z</time>
      </trkpt>
      <trkpt lat="45.8362" lon="4.71591">
        <ele>338.3363</ele>
        <time>2023-08-05T14:58:23.000Z</time>
      </trkpt>
      <trkpt lat="45.83619" lon="4.71589">
        <ele>339.25815</ele>
        <time>2023-08-05T14:58:24.000Z</time>
      </trkpt>
      <trkpt lat="45.83616" lon="4.71586">
        <ele>339.31439</ele>
        <time>2023-08-05T14:58:26.000Z</time>
      </trkpt>
      <trkpt lat="45.83616" lon="4.71581">
        <ele>339.42291</ele>
        <time>2023-08-05T14:58:28.000Z</time>
      </trkpt>
      <trkpt lat="45.83616" lon="4.71578">
        <ele>339.9277</ele>
        <time>2023-08-05T14:58:29.000Z</time>
      </trkpt>
      <trkpt lat="45.83616" lon="4.71575">
        <ele>340.14813</ele>
        <time>2023-08-05T14:58:30.000Z</time>
      </trkpt>
      <trkpt lat="45.83616" lon="4.71572">
        <ele>340.28143</ele>
        <time>2023-08-05T14:58:31.000Z</time>
      </trkpt>
      <trkpt lat="45.83616" lon="4.71569">
        <ele>340.40799</ele>
        <time>2023-08-05T14:58:32.000Z</time>
      </trkpt>
      <trkpt lat="45.83616" lon="4.71567">
        <ele>340.58304</ele>
        <time>2023-08-05T14:58:33.000Z</time>
      </trkpt>
      <trkpt lat="45.83616" lon="4.71564">
        <ele>340.77679</ele>
        <time>2023-08-05T14:58:34.000Z</time>
      </trkpt>
      <trkpt lat="45.83617" lon="4.71561">
        <ele>341.02432</ele>
        <time>2023-08-05T14:58:35.000Z</time>
      </trkpt>
      <trkpt lat="45.83617" lon="4.71558">
        <ele>341.27365</ele>
        <time>2023-08-05T14:58:36.000Z</time>
      </trkpt>
      <trkpt lat="45.83617" lon="4.71555">
        <ele>341.51349</ele>
        <time>2023-08-05T14:58:37.000Z</time>
      </trkpt>
      <trkpt lat="45.83617" lon="4.71553">
        <ele>341.74484</ele>
        <time>2023-08-05T14:58:38.000Z</time>
      </trkpt>
      <trkpt lat="45.83617" lon="4.71547">
        <ele>341.97894</ele>
        <time>2023-08-05T14:58:40.000Z</time>
      </trkpt>
      <trkpt lat="45.83618" lon="4.71544">
        <ele>342.21936</ele>
        <time>2023-08-05T14:58:41.000Z</time>
      </trkpt>
      <trkpt lat="45.83619" lon="4.71541">
        <ele>342.57782</ele>
        <time>2023-08-05T14:58:42.000Z</time>
      </trkpt>
      <trkpt lat="45.83619" lon="4.71537">
        <ele>343.04202</ele>
        <time>2023-08-05T14:58:43.000Z</time>
      </trkpt>
      <trkpt lat="45.83618" lon="4.71534">
        <ele>343.49738</ele>
        <time>2023-08-05T14:58:44.000Z</time>
      </trkpt>
      <trkpt lat="45.83616" lon="4.71531">
        <ele>343.5477</ele>
        <time>2023-08-05T14:58:45.000Z</time>
      </trkpt>
      <trkpt lat="45.83615" lon="4.71528">
        <ele>343.57251</ele>
        <time>2023-08-05T14:58:46.000Z</time>
      </trkpt>
      <trkpt lat="45.83613" lon="4.71524">
        <ele>343.84448</ele>
        <time>2023-08-05T14:58:47.000Z</time>
      </trkpt>
      <trkpt lat="45.83612" lon="4.71521">
        <ele>344.15439</ele>
        <time>2023-08-05T14:58:48.000Z</time>
      </trkpt>
      <trkpt lat="45.8361" lon="4.71518">
        <ele>344.33051</ele>
        <time>2023-08-05T14:58:49.000Z</time>
      </trkpt>
      <trkpt lat="45.83609" lon="4.71515">
        <ele>344.46475</ele>
        <time>2023-08-05T14:58:50.000Z</time>
      </trkpt>
      <trkpt lat="45.83608" lon="4.71511">
        <ele>344.88287</ele>
        <time>2023-08-05T14:58:51.000Z</time>
      </trkpt>
      <trkpt lat="45.83606" lon="4.71507">
        <ele>345.26718</ele>
        <time>2023-08-05T14:58:52.000Z</time>
      </trkpt>
      <trkpt lat="45.83606" lon="4.71504">
        <ele>345.42822</ele>
        <time>2023-08-05T14:58:53.000Z</time>
      </trkpt>
      <trkpt lat="45.83605" lon="4.715">
        <ele>345.63312</ele>
        <time>2023-08-05T14:58:54.000Z</time>
      </trkpt>
      <trkpt lat="45.83604" lon="4.71497">
        <ele>345.87299</ele>
        <time>2023-08-05T14:58:55.000Z</time>
      </trkpt>
      <trkpt lat="45.83605" lon="4.71494">
        <ele>346.15826</ele>
        <time>2023-08-05T14:58:56.000Z</time>
      </trkpt>
      <trkpt lat="45.83607" lon="4.71492">
        <ele>346.45465</ele>
        <time>2023-08-05T14:58:57.000Z</time>
      </trkpt>
      <trkpt lat="45.83609" lon="4.71489">
        <ele>346.7226</ele>
        <time>2023-08-05T14:58:58.000Z</time>
      </trkpt>
      <trkpt lat="45.83612" lon="4.71486">
        <ele>346.98193</ele>
        <time>2023-08-05T14:58:59.000Z</time>
      </trkpt>
      <trkpt lat="45.83614" lon="4.71483">
        <ele>347.3493</ele>
        <time>2023-08-05T14:59:00.000Z</time>
      </trkpt>
      <trkpt lat="45.83617" lon="4.71481">
        <ele>347.5408</ele>
        <time>2023-08-05T14:59:01.000Z</time>
      </trkpt>
      <trkpt lat="45.83619" lon="4.71478">
        <ele>347.61871</ele>
        <time>2023-08-05T14:59:02.000Z</time>
      </trkpt>
      <trkpt lat="45.83621" lon="4.71474">
        <ele>347.61838</ele>
        <time>2023-08-05T14:59:03.000Z</time>
      </trkpt>
      <trkpt lat="45.83624" lon="4.7147">
        <ele>347.61459</ele>
        <time>2023-08-05T14:59:04.000Z</time>
      </trkpt>
      <trkpt lat="45.83625" lon="4.71466">
        <ele>348.00104</ele>
        <time>2023-08-05T14:59:05.000Z</time>
      </trkpt>
      <trkpt lat="45.83627" lon="4.71461">
        <ele>348.51276</ele>
        <time>2023-08-05T14:59:06.000Z</time>
      </trkpt>
      <trkpt lat="45.83628" lon="4.71456">
        <ele>348.68671</ele>
        <time>2023-08-05T14:59:07.000Z</time>
      </trkpt>
      <trkpt lat="45.8363" lon="4.71451">
        <ele>348.86774</ele>
        <time>2023-08-05T14:59:08.000Z</time>
      </trkpt>
      <trkpt lat="45.83632" lon="4.71446">
        <ele>348.8808</ele>
        <time>2023-08-05T14:59:09.000Z</time>
      </trkpt>
      <trkpt lat="45.83633" lon="4.71441">
        <ele>348.87488</ele>
        <time>2023-08-05T14:59:10.000Z</time>
      </trkpt>
      <trkpt lat="45.83634" lon="4.71436">
        <ele>348.79166</ele>
        <time>2023-08-05T14:59:11.000Z</time>
      </trkpt>
      <trkpt lat="45.83636" lon="4.71432">
        <ele>348.71417</ele>
        <time>2023-08-05T14:59:12.000Z</time>
      </trkpt>
      <trkpt lat="45.83637" lon="4.71427">
        <ele>348.85236</ele>
        <time>2023-08-05T14:59:13.000Z</time>
      </trkpt>
      <trkpt lat="45.83639" lon="4.71422">
        <ele>349.01129</ele>
        <time>2023-08-05T14:59:14.000Z</time>
      </trkpt>
      <trkpt lat="45.8364" lon="4.71417">
        <ele>349.1076</ele>
        <time>2023-08-05T14:59:15.000Z</time>
      </trkpt>
      <trkpt lat="45.83641" lon="4.71413">
        <ele>349.21631</ele>
        <time>2023-08-05T14:59:16.000Z</time>
      </trkpt>
      <trkpt lat="45.83642" lon="4.71408">
        <ele>349.28687</ele>
        <time>2023-08-05T14:59:17.000Z</time>
      </trkpt>
      <trkpt lat="45.83643" lon="4.71402">
        <ele>349.35883</ele>
        <time>2023-08-05T14:59:18.000Z</time>
      </trkpt>
      <trkpt lat="45.83644" lon="4.71397">
        <ele>349.431</ele>
        <time>2023-08-05T14:59:19.000Z</time>
      </trkpt>
      <trkpt lat="45.83644" lon="4.71392">
        <ele>349.38321</ele>
        <time>2023-08-05T14:59:20.000Z</time>
      </trkpt>
      <trkpt lat="45.83645" lon="4.71387">
        <ele>349.47803</ele>
        <time>2023-08-05T14:59:21.000Z</time>
      </trkpt>
      <trkpt lat="45.83646" lon="4.71383">
        <ele>349.57779</ele>
        <time>2023-08-05T14:59:22.000Z</time>
      </trkpt>
      <trkpt lat="45.83647" lon="4.71379">
        <ele>349.62784</ele>
        <time>2023-08-05T14:59:23.000Z</time>
      </trkpt>
      <trkpt lat="45.83648" lon="4.71374">
        <ele>349.67661</ele>
        <time>2023-08-05T14:59:24.000Z</time>
      </trkpt>
      <trkpt lat="45.83648" lon="4.71368">
        <ele>349.73419</ele>
        <time>2023-08-05T14:59:25.000Z</time>
      </trkpt>
      <trkpt lat="45.83648" lon="4.71364">
        <ele>349.6391</ele>
        <time>2023-08-05T14:59:26.000Z</time>
      </trkpt>
      <trkpt lat="45.83647" lon="4.71359">
        <ele>349.57291</ele>
        <time>2023-08-05T14:59:27.000Z</time>
      </trkpt>
      <trkpt lat="45.83645" lon="4.71355">
        <ele>349.54086</ele>
        <time>2023-08-05T14:59:28.000Z</time>
      </trkpt>
      <trkpt lat="45.83642" lon="4.71353">
        <ele>349.66003</ele>
        <time>2023-08-05T14:59:29.000Z</time>
      </trkpt>
      <trkpt lat="45.83638" lon="4.71355">
        <ele>349.5686</ele>
        <time>2023-08-05T14:59:30.000Z</time>
      </trkpt>
      <trkpt lat="45.83635" lon="4.71357">
        <ele>349.53159</ele>
        <time>2023-08-05T14:59:31.000Z</time>
      </trkpt>
      <trkpt lat="45.83632" lon="4.7136">
        <ele>349.47647</ele>
        <time>2023-08-05T14:59:32.000Z</time>
      </trkpt>
      <trkpt lat="45.8363" lon="4.71362">
        <ele>349.41852</ele>
        <time>2023-08-05T14:59:33.000Z</time>
      </trkpt>
      <trkpt lat="45.83627" lon="4.71364">
        <ele>349.27344</ele>
        <time>2023-08-05T14:59:34.000Z</time>
      </trkpt>
      <trkpt lat="45.83625" lon="4.71365">
        <ele>349.17032</ele>
        <time>2023-08-05T14:59:35.000Z</time>
      </trkpt>
      <trkpt lat="45.83622" lon="4.71368">
        <ele>349.0567</ele>
        <time>2023-08-05T14:59:36.000Z</time>
      </trkpt>
      <trkpt lat="45.8362" lon="4.71371">
        <ele>348.97443</ele>
        <time>2023-08-05T14:59:37.000Z</time>
      </trkpt>
      <trkpt lat="45.83618" lon="4.71375">
        <ele>348.90283</ele>
        <time>2023-08-05T14:59:38.000Z</time>
      </trkpt>
      <trkpt lat="45.83616" lon="4.71379">
        <ele>348.81363</ele>
        <time>2023-08-05T14:59:39.000Z</time>
      </trkpt>
      <trkpt lat="45.83615" lon="4.71383">
        <ele>348.71576</ele>
        <time>2023-08-05T14:59:40.000Z</time>
      </trkpt>
      <trkpt lat="45.83614" lon="4.71386">
        <ele>348.62277</ele>
        <time>2023-08-05T14:59:41.000Z</time>
      </trkpt>
      <trkpt lat="45.83613" lon="4.71389">
        <ele>348.52994</ele>
        <time>2023-08-05T14:59:42.000Z</time>
      </trkpt>
      <trkpt lat="45.83612" lon="4.71393">
        <ele>348.47516</ele>
        <time>2023-08-05T14:59:43.000Z</time>
      </trkpt>
      <trkpt lat="45.83612" lon="4.71396">
        <ele>348.42548</ele>
        <time>2023-08-05T14:59:44.000Z</time>
      </trkpt>
      <trkpt lat="45.83611" lon="4.71399">
        <ele>348.39984</ele>
        <time>2023-08-05T14:59:45.000Z</time>
      </trkpt>
      <trkpt lat="45.8361" lon="4.71402">
        <ele>348.39438</ele>
        <time>2023-08-05T14:59:46.000Z</time>
      </trkpt>
      <trkpt lat="45.83609" lon="4.71405">
        <ele>348.38162</ele>
        <time>2023-08-05T14:59:47.000Z</time>
      </trkpt>
      <trkpt lat="45.83608" lon="4.71407">
        <ele>348.33521</ele>
        <time>2023-08-05T14:59:48.000Z</time>
      </trkpt>
      <trkpt lat="45.83607" lon="4.7141">
        <ele>348.26117</ele>
        <time>2023-08-05T14:59:49.000Z</time>
      </trkpt>
      <trkpt lat="45.83606" lon="4.71413">
        <ele>348.3689</ele>
        <time>2023-08-05T14:59:50.000Z</time>
      </trkpt>
      <trkpt lat="45.83607" lon="4.71416">
        <ele>348.4342</ele>
        <time>2023-08-05T14:59:52.000Z</time>
      </trkpt>
      <trkpt lat="45.83608" lon="4.71418">
        <ele>348.48004</ele>
        <time>2023-08-05T14:59:53.000Z</time>
      </trkpt>
      <trkpt lat="45.8361" lon="4.7142">
        <ele>348.50885</ele>
        <time>2023-08-05T14:59:55.000Z</time>
      </trkpt>
      <trkpt lat="45.83607" lon="4.71422">
        <ele>348.6131</ele>
        <time>2023-08-05T14:59:58.000Z</time>
      </trkpt>
      <trkpt lat="45.83605" lon="4.71423">
        <ele>348.65131</ele>
        <time>2023-08-05T15:00:01.000Z</time>
      </trkpt>
      <trkpt lat="45.83605" lon="4.71423">
        <ele>348.65131</ele>
      </trkpt>
      <trkpt lat="45.83603" lon="4.71416">
        <ele>349.23343</ele>
      </trkpt>
      <trkpt lat="45.83604" lon="4.71413">
        <ele>349.77402</ele>
      </trkpt>
      <trkpt lat="45.83604" lon="4.71413">
        <ele>349.77402</ele>
        <time>2023-08-05T15:03:50.000Z</time>
      </trkpt>
      <trkpt lat="45.83606" lon="4.71412">
        <ele>350.27643</ele>
        <time>2023-08-05T15:03:51.000Z</time>
      </trkpt>
      <trkpt lat="45.83608" lon="4.7141">
        <ele>350.7605</ele>
        <time>2023-08-05T15:03:52.000Z</time>
      </trkpt>
      <trkpt lat="45.83609" lon="4.71407">
        <ele>351.14893</ele>
        <time>2023-08-05T15:03:53.000Z</time>
      </trkpt>
      <trkpt lat="45.8361" lon="4.71404">
        <ele>351.43799</ele>
        <time>2023-08-05T15:03:54.000Z</time>
      </trkpt>
      <trkpt lat="45.83611" lon="4.71401">
        <ele>351.62585</ele>
        <time>2023-08-05T15:03:55.000Z</time>
      </trkpt>
      <trkpt lat="45.83612" lon="4.71398">
        <ele>351.7674</ele>
        <time>2023-08-05T15:03:56.000Z</time>
      </trkpt>
      <trkpt lat="45.83614" lon="4.71395">
        <ele>351.90607</ele>
        <time>2023-08-05T15:03:57.000Z</time>
      </trkpt>
      <trkpt lat="45.83616" lon="4.71393">
        <ele>352.03409</ele>
        <time>2023-08-05T15:03:58.000Z</time>
      </trkpt>
      <trkpt lat="45.83619" lon="4.71391">
        <ele>352.15933</ele>
        <time>2023-08-05T15:03:59.000Z</time>
      </trkpt>
      <trkpt lat="45.83622" lon="4.71388">
        <ele>352.26328</ele>
        <time>2023-08-05T15:04:00.000Z</time>
      </trkpt>
      <trkpt lat="45.83624" lon="4.71385">
        <ele>352.36029</ele>
        <time>2023-08-05T15:04:01.000Z</time>
      </trkpt>
      <trkpt lat="45.83627" lon="4.71382">
        <ele>352.46823</ele>
        <time>2023-08-05T15:04:02.000Z</time>
      </trkpt>
      <trkpt lat="45.83629" lon="4.71378">
        <ele>352.41034</ele>
        <time>2023-08-05T15:04:03.000Z</time>
      </trkpt>
      <trkpt lat="45.83631" lon="4.71374">
        <ele>352.38031</ele>
        <time>2023-08-05T15:04:04.000Z</time>
      </trkpt>
      <trkpt lat="45.83633" lon="4.7137">
        <ele>352.35815</ele>
        <time>2023-08-05T15:04:05.000Z</time>
      </trkpt>
      <trkpt lat="45.83634" lon="4.71365">
        <ele>352.30533</ele>
        <time>2023-08-05T15:04:06.000Z</time>
      </trkpt>
      <trkpt lat="45.83637" lon="4.71361">
        <ele>352.19217</ele>
        <time>2023-08-05T15:04:07.000Z</time>
      </trkpt>
      <trkpt lat="45.8364" lon="4.71358">
        <ele>352.11664</ele>
        <time>2023-08-05T15:04:08.000Z</time>
      </trkpt>
      <trkpt lat="45.83643" lon="4.71356">
        <ele>351.4938</ele>
        <time>2023-08-05T15:04:09.000Z</time>
      </trkpt>
      <trkpt lat="45.83647" lon="4.71354">
        <ele>350.87891</ele>
        <time>2023-08-05T15:04:10.000Z</time>
      </trkpt>
      <trkpt lat="45.8365" lon="4.71352">
        <ele>350.3107</ele>
        <time>2023-08-05T15:04:11.000Z</time>
      </trkpt>
      <trkpt lat="45.83652" lon="4.71348">
        <ele>349.74136</ele>
        <time>2023-08-05T15:04:12.000Z</time>
      </trkpt>
      <trkpt lat="45.83653" lon="4.71343">
        <ele>349.25916</ele>
        <time>2023-08-05T15:04:13.000Z</time>
      </trkpt>
      <trkpt lat="45.83654" lon="4.71338">
        <ele>348.896</ele>
        <time>2023-08-05T15:04:14.000Z</time>
      </trkpt>
      <trkpt lat="45.83654" lon="4.71333">
        <ele>348.62051</ele>
        <time>2023-08-05T15:04:15.000Z</time>
      </trkpt>
      <trkpt lat="45.83655" lon="4.71328">
        <ele>348.36646</ele>
        <time>2023-08-05T15:04:16.000Z</time>
      </trkpt>
      <trkpt lat="45.83656" lon="4.71323">
        <ele>348.11713</ele>
        <time>2023-08-05T15:04:17.000Z</time>
      </trkpt>
      <trkpt lat="45.83657" lon="4.71319">
        <ele>347.8688</ele>
        <time>2023-08-05T15:04:18.000Z</time>
      </trkpt>
      <trkpt lat="45.83658" lon="4.71314">
        <ele>347.63101</ele>
        <time>2023-08-05T15:04:19.000Z</time>
      </trkpt>
      <trkpt lat="45.83659" lon="4.71309">
        <ele>347.42346</ele>
        <time>2023-08-05T15:04:20.000Z</time>
      </trkpt>
      <trkpt lat="45.8366" lon="4.71305">
        <ele>347.2142</ele>
        <time>2023-08-05T15:04:21.000Z</time>
      </trkpt>
      <trkpt lat="45.83661" lon="4.713">
        <ele>346.99179</ele>
        <time>2023-08-05T15:04:22.000Z</time>
      </trkpt>
      <trkpt lat="45.83662" lon="4.71295">
        <ele>346.9248</ele>
        <time>2023-08-05T15:04:23.000Z</time>
      </trkpt>
      <trkpt lat="45.83663" lon="4.71292">
        <ele>346.80377</ele>
        <time>2023-08-05T15:04:24.000Z</time>
      </trkpt>
      <trkpt lat="45.83664" lon="4.71287">
        <ele>346.66446</ele>
        <time>2023-08-05T15:04:25.000Z</time>
      </trkpt>
      <trkpt lat="45.83666" lon="4.71283">
        <ele>346.5813</ele>
        <time>2023-08-05T15:04:26.000Z</time>
      </trkpt>
      <trkpt lat="45.83667" lon="4.71279">
        <ele>346.52036</ele>
        <time>2023-08-05T15:04:27.000Z</time>
      </trkpt>
      <trkpt lat="45.83668" lon="4.71275">
        <ele>346.47906</ele>
        <time>2023-08-05T15:04:28.000Z</time>
      </trkpt>
      <trkpt lat="45.83669" lon="4.71271">
        <ele>346.42462</ele>
        <time>2023-08-05T15:04:29.000Z</time>
      </trkpt>
      <trkpt lat="45.8367" lon="4.71266">
        <ele>346.39142</ele>
        <time>2023-08-05T15:04:30.000Z</time>
      </trkpt>
      <trkpt lat="45.83671" lon="4.71262">
        <ele>346.38153</ele>
        <time>2023-08-05T15:04:31.000Z</time>
      </trkpt>
      <trkpt lat="45.83672" lon="4.71257">
        <ele>346.55893</ele>
        <time>2023-08-05T15:04:32.000Z</time>
      </trkpt>
      <trkpt lat="45.83672" lon="4.71252">
        <ele>346.48651</ele>
        <time>2023-08-05T15:04:33.000Z</time>
      </trkpt>
      <trkpt lat="45.83673" lon="4.71247">
        <ele>346.42581</ele>
        <time>2023-08-05T15:04:34.000Z</time>
      </trkpt>
      <trkpt lat="45.83673" lon="4.71242">
        <ele>346.36832</ele>
        <time>2023-08-05T15:04:35.000Z</time>
      </trkpt>
      <trkpt lat="45.83675" lon="4.71237">
        <ele>346.31372</ele>
        <time>2023-08-05T15:04:36.000Z</time>
      </trkpt>
      <trkpt lat="45.83676" lon="4.71233">
        <ele>346.24927</ele>
        <time>2023-08-05T15:04:37.000Z</time>
      </trkpt>
      <trkpt lat="45.83677" lon="4.71229">
        <ele>346.17538</ele>
        <time>2023-08-05T15:04:38.000Z</time>
      </trkpt>
      <trkpt lat="45.83678" lon="4.71225">
        <ele>346.06479</ele>
        <time>2023-08-05T15:04:39.000Z</time>
      </trkpt>
      <trkpt lat="45.83679" lon="4.71222">
        <ele>345.95135</ele>
        <time>2023-08-05T15:04:40.000Z</time>
      </trkpt>
      <trkpt lat="45.83678" lon="4.71218">
        <ele>345.81339</ele>
        <time>2023-08-05T15:04:41.000Z</time>
      </trkpt>
      <trkpt lat="45.83677" lon="4.71216">
        <ele>345.69196</ele>
        <time>2023-08-05T15:04:42.000Z</time>
      </trkpt>
      <trkpt lat="45.83675" lon="4.71215">
        <ele>345.64346</ele>
        <time>2023-08-05T15:04:43.000Z</time>
      </trkpt>
      <trkpt lat="45.83673" lon="4.71214">
        <ele>345.65656</ele>
        <time>2023-08-05T15:04:44.000Z</time>
      </trkpt>
      <trkpt lat="45.83671" lon="4.71214">
        <ele>345.7525</ele>
        <time>2023-08-05T15:04:45.000Z</time>
      </trkpt>
      <trkpt lat="45.83669" lon="4.71214">
        <ele>345.68109</ele>
        <time>2023-08-05T15:04:46.000Z</time>
      </trkpt>
      <trkpt lat="45.83667" lon="4.71212">
        <ele>345.62372</ele>
        <time>2023-08-05T15:04:48.000Z</time>
      </trkpt>
      <trkpt lat="45.83665" lon="4.7121">
        <ele>345.56665</ele>
        <time>2023-08-05T15:04:50.000Z</time>
      </trkpt>
      <trkpt lat="45.83665" lon="4.71208">
        <ele>345.5578</ele>
        <time>2023-08-05T15:04:58.000Z</time>
      </trkpt>
      <trkpt lat="45.83663" lon="4.71206">
        <ele>345.55255</ele>
        <time>2023-08-05T15:05:06.000Z</time>
      </trkpt>
      <trkpt lat="45.83659" lon="4.71204">
        <ele>345.59985</ele>
        <time>2023-08-05T15:05:08.000Z</time>
      </trkpt>
      <trkpt lat="45.83657" lon="4.71203">
        <ele>345.47095</ele>
        <time>2023-08-05T15:05:10.000Z</time>
      </trkpt>
      <trkpt lat="45.83655" lon="4.71201">
        <ele>345.54266</ele>
        <time>2023-08-05T15:05:12.000Z</time>
      </trkpt>
      <trkpt lat="45.83652" lon="4.712">
        <ele>345.5235</ele>
        <time>2023-08-05T15:05:14.000Z</time>
      </trkpt>
      <trkpt lat="45.8365" lon="4.71199">
        <ele>345.52731</ele>
        <time>2023-08-05T15:05:15.000Z</time>
      </trkpt>
      <trkpt lat="45.83648" lon="4.71198">
        <ele>345.54919</ele>
        <time>2023-08-05T15:05:16.000Z</time>
      </trkpt>
      <trkpt lat="45.83646" lon="4.71197">
        <ele>345.64935</ele>
        <time>2023-08-05T15:05:17.000Z</time>
      </trkpt>
      <trkpt lat="45.83644" lon="4.71196">
        <ele>345.71936</ele>
        <time>2023-08-05T15:05:18.000Z</time>
      </trkpt>
      <trkpt lat="45.83642" lon="4.71196">
        <ele>345.81158</ele>
        <time>2023-08-05T15:05:19.000Z</time>
      </trkpt>
      <trkpt lat="45.8364" lon="4.71195">
        <ele>345.9035</ele>
        <time>2023-08-05T15:05:20.000Z</time>
      </trkpt>
      <trkpt lat="45.83638" lon="4.71193">
        <ele>346.01154</ele>
        <time>2023-08-05T15:05:21.000Z</time>
      </trkpt>
      <trkpt lat="45.83637" lon="4.71191">
        <ele>346.14908</ele>
        <time>2023-08-05T15:05:22.000Z</time>
      </trkpt>
      <trkpt lat="45.83635" lon="4.71189">
        <ele>346.22565</ele>
        <time>2023-08-05T15:05:23.000Z</time>
      </trkpt>
      <trkpt lat="45.83633" lon="4.71188">
        <ele>346.27719</ele>
        <time>2023-08-05T15:05:24.000Z</time>
      </trkpt>
      <trkpt lat="45.83631" lon="4.71186">
        <ele>346.26733</ele>
        <time>2023-08-05T15:05:25.000Z</time>
      </trkpt>
      <trkpt lat="45.8363" lon="4.71185">
        <ele>346.43304</ele>
        <time>2023-08-05T15:05:26.000Z</time>
      </trkpt>
      <trkpt lat="45.83627" lon="4.71183">
        <ele>346.61014</ele>
        <time>2023-08-05T15:05:27.000Z</time>
      </trkpt>
      <trkpt lat="45.83625" lon="4.71181">
        <ele>346.77563</ele>
        <time>2023-08-05T15:05:28.000Z</time>
      </trkpt>
      <trkpt lat="45.83623" lon="4.7118">
        <ele>346.91019</ele>
        <time>2023-08-05T15:05:29.000Z</time>
      </trkpt>
      <trkpt lat="45.83621" lon="4.71179">
        <ele>347.04266</ele>
        <time>2023-08-05T15:05:30.000Z</time>
      </trkpt>
      <trkpt lat="45.83619" lon="4.71178">
        <ele>347.10669</ele>
        <time>2023-08-05T15:05:31.000Z</time>
      </trkpt>
      <trkpt lat="45.83617" lon="4.71176">
        <ele>347.17316</ele>
        <time>2023-08-05T15:05:32.000Z</time>
      </trkpt>
      <trkpt lat="45.83615" lon="4.71175">
        <ele>347.31235</ele>
        <time>2023-08-05T15:05:33.000Z</time>
      </trkpt>
      <trkpt lat="45.83613" lon="4.71173">
        <ele>347.55658</ele>
        <time>2023-08-05T15:05:34.000Z</time>
      </trkpt>
      <trkpt lat="45.83611" lon="4.71171">
        <ele>347.78391</ele>
        <time>2023-08-05T15:05:35.000Z</time>
      </trkpt>
      <trkpt lat="45.83609" lon="4.71169">
        <ele>347.99484</ele>
        <time>2023-08-05T15:05:36.000Z</time>
      </trkpt>
      <trkpt lat="45.83607" lon="4.71168">
        <ele>348.11987</ele>
        <time>2023-08-05T15:05:37.000Z</time>
      </trkpt>
      <trkpt lat="45.83604" lon="4.71167">
        <ele>348.20972</ele>
        <time>2023-08-05T15:05:38.000Z</time>
      </trkpt>
      <trkpt lat="45.83602" lon="4.71167">
        <ele>348.30234</ele>
        <time>2023-08-05T15:05:39.000Z</time>
      </trkpt>
      <trkpt lat="45.836" lon="4.71166">
        <ele>348.4624</ele>
        <time>2023-08-05T15:05:40.000Z</time>
      </trkpt>
      <trkpt lat="45.83597" lon="4.71165">
        <ele>348.67926</ele>
        <time>2023-08-05T15:05:41.000Z</time>
      </trkpt>
      <trkpt lat="45.83595" lon="4.71164">
        <ele>348.75006</ele>
        <time>2023-08-05T15:05:42.000Z</time>
      </trkpt>
      <trkpt lat="45.83593" lon="4.71162">
        <ele>348.82867</ele>
        <time>2023-08-05T15:05:43.000Z</time>
      </trkpt>
      <trkpt lat="45.8359" lon="4.71161">
        <ele>348.90344</ele>
        <time>2023-08-05T15:05:44.000Z</time>
      </trkpt>
      <trkpt lat="45.83588" lon="4.7116">
        <ele>348.97113</ele>
        <time>2023-08-05T15:05:45.000Z</time>
      </trkpt>
      <trkpt lat="45.83586" lon="4.71158">
        <ele>349.02676</ele>
        <time>2023-08-05T15:05:46.000Z</time>
      </trkpt>
      <trkpt lat="45.83583" lon="4.71157">
        <ele>349.10376</ele>
        <time>2023-08-05T15:05:47.000Z</time>
      </trkpt>
      <trkpt lat="45.83581" lon="4.71156">
        <ele>349.20334</ele>
        <time>2023-08-05T15:05:48.000Z</time>
      </trkpt>
      <trkpt lat="45.83578" lon="4.71155">
        <ele>349.29828</ele>
        <time>2023-08-05T15:05:49.000Z</time>
      </trkpt>
      <trkpt lat="45.83576" lon="4.71153">
        <ele>349.39749</ele>
        <time>2023-08-05T15:05:50.000Z</time>
      </trkpt>
      <trkpt lat="45.83574" lon="4.71152">
        <ele>349.49933</ele>
        <time>2023-08-05T15:05:51.000Z</time>
      </trkpt>
      <trkpt lat="45.83572" lon="4.71149">
        <ele>349.6026</ele>
        <time>2023-08-05T15:05:52.000Z</time>
      </trkpt>
      <trkpt lat="45.8357" lon="4.71147">
        <ele>349.70978</ele>
        <time>2023-08-05T15:05:53.000Z</time>
      </trkpt>
      <trkpt lat="45.83569" lon="4.71144">
        <ele>349.80823</ele>
        <time>2023-08-05T15:05:54.000Z</time>
      </trkpt>
      <trkpt lat="45.83568" lon="4.7114">
        <ele>349.97351</ele>
        <time>2023-08-05T15:05:55.000Z</time>
      </trkpt>
      <trkpt lat="45.83569" lon="4.71136">
        <ele>350.1937</ele>
        <time>2023-08-05T15:05:56.000Z</time>
      </trkpt>
      <trkpt lat="45.83569" lon="4.71132">
        <ele>350.42731</ele>
        <time>2023-08-05T15:05:57.000Z</time>
      </trkpt>
      <trkpt lat="45.83571" lon="4.71128">
        <ele>350.72134</ele>
        <time>2023-08-05T15:05:58.000Z</time>
      </trkpt>
      <trkpt lat="45.83572" lon="4.71125">
        <ele>350.87872</ele>
        <time>2023-08-05T15:05:59.000Z</time>
      </trkpt>
      <trkpt lat="45.83574" lon="4.71121">
        <ele>350.9642</ele>
        <time>2023-08-05T15:06:00.000Z</time>
      </trkpt>
      <trkpt lat="45.83575" lon="4.71118">
        <ele>350.96442</ele>
        <time>2023-08-05T15:06:01.000Z</time>
      </trkpt>
      <trkpt lat="45.83576" lon="4.71114">
        <ele>351.07568</ele>
        <time>2023-08-05T15:06:02.000Z</time>
      </trkpt>
      <trkpt lat="45.83577" lon="4.7111">
        <ele>351.18106</ele>
        <time>2023-08-05T15:06:03.000Z</time>
      </trkpt>
      <trkpt lat="45.83578" lon="4.71106">
        <ele>351.26733</ele>
        <time>2023-08-05T15:06:04.000Z</time>
      </trkpt>
      <trkpt lat="45.83579" lon="4.71102">
        <ele>351.37164</ele>
        <time>2023-08-05T15:06:05.000Z</time>
      </trkpt>
      <trkpt lat="45.83581" lon="4.71099">
        <ele>351.47467</ele>
        <time>2023-08-05T15:06:06.000Z</time>
      </trkpt>
      <trkpt lat="45.83582" lon="4.71095">
        <ele>351.51648</ele>
        <time>2023-08-05T15:06:07.000Z</time>
      </trkpt>
      <trkpt lat="45.83583" lon="4.71093">
        <ele>351.55038</ele>
        <time>2023-08-05T15:06:08.000Z</time>
      </trkpt>
      <trkpt lat="45.83584" lon="4.7109">
        <ele>351.57864</ele>
        <time>2023-08-05T15:06:09.000Z</time>
      </trkpt>
      <trkpt lat="45.83585" lon="4.71086">
        <ele>351.59247</ele>
        <time>2023-08-05T15:06:10.000Z</time>
      </trkpt>
      <trkpt lat="45.83586" lon="4.71083">
        <ele>351.61249</ele>
        <time>2023-08-05T15:06:11.000Z</time>
      </trkpt>
      <trkpt lat="45.83587" lon="4.71079">
        <ele>351.61993</ele>
        <time>2023-08-05T15:06:12.000Z</time>
      </trkpt>
      <trkpt lat="45.83588" lon="4.71075">
        <ele>351.62918</ele>
        <time>2023-08-05T15:06:13.000Z</time>
      </trkpt>
      <trkpt lat="45.83589" lon="4.71072">
        <ele>351.61984</ele>
        <time>2023-08-05T15:06:14.000Z</time>
      </trkpt>
      <trkpt lat="45.8359" lon="4.71068">
        <ele>351.54102</ele>
        <time>2023-08-05T15:06:15.000Z</time>
      </trkpt>
      <trkpt lat="45.83591" lon="4.71064">
        <ele>351.43997</ele>
        <time>2023-08-05T15:06:16.000Z</time>
      </trkpt>
      <trkpt lat="45.83591" lon="4.71061">
        <ele>351.37338</ele>
        <time>2023-08-05T15:06:17.000Z</time>
      </trkpt>
      <trkpt lat="45.83591" lon="4.71057">
        <ele>351.30005</ele>
        <time>2023-08-05T15:06:18.000Z</time>
      </trkpt>
      <trkpt lat="45.8359" lon="4.71053">
        <ele>351.37192</ele>
        <time>2023-08-05T15:06:19.000Z</time>
      </trkpt>
      <trkpt lat="45.83588" lon="4.71049">
        <ele>351.45847</ele>
        <time>2023-08-05T15:06:20.000Z</time>
      </trkpt>
      <trkpt lat="45.83586" lon="4.71047">
        <ele>351.57651</ele>
        <time>2023-08-05T15:06:21.000Z</time>
      </trkpt>
      <trkpt lat="45.83583" lon="4.71045">
        <ele>351.70868</ele>
        <time>2023-08-05T15:06:22.000Z</time>
      </trkpt>
      <trkpt lat="45.8358" lon="4.71043">
        <ele>351.83844</ele>
        <time>2023-08-05T15:06:23.000Z</time>
      </trkpt>
      <trkpt lat="45.83577" lon="4.71041">
        <ele>351.97821</ele>
        <time>2023-08-05T15:06:24.000Z</time>
      </trkpt>
      <trkpt lat="45.83574" lon="4.7104">
        <ele>352.10217</ele>
        <time>2023-08-05T15:06:25.000Z</time>
      </trkpt>
      <trkpt lat="45.83572" lon="4.71038">
        <ele>352.2204</ele>
        <time>2023-08-05T15:06:26.000Z</time>
      </trkpt>
      <trkpt lat="45.83569" lon="4.71037">
        <ele>352.31763</ele>
        <time>2023-08-05T15:06:27.000Z</time>
      </trkpt>
      <trkpt lat="45.83566" lon="4.71035">
        <ele>352.41058</ele>
        <time>2023-08-05T15:06:28.000Z</time>
      </trkpt>
      <trkpt lat="45.83563" lon="4.71033">
        <ele>352.49158</ele>
        <time>2023-08-05T15:06:29.000Z</time>
      </trkpt>
      <trkpt lat="45.8356" lon="4.71032">
        <ele>352.58514</ele>
        <time>2023-08-05T15:06:30.000Z</time>
      </trkpt>
      <trkpt lat="45.83558" lon="4.7103">
        <ele>352.66562</ele>
        <time>2023-08-05T15:06:31.000Z</time>
      </trkpt>
      <trkpt lat="45.83555" lon="4.71029">
        <ele>352.73813</ele>
        <time>2023-08-05T15:06:32.000Z</time>
      </trkpt>
      <trkpt lat="45.83553" lon="4.71027">
        <ele>352.78415</ele>
        <time>2023-08-05T15:06:33.000Z</time>
      </trkpt>
      <trkpt lat="45.83551" lon="4.71025">
        <ele>352.83517</ele>
        <time>2023-08-05T15:06:34.000Z</time>
      </trkpt>
      <trkpt lat="45.83549" lon="4.71023">
        <ele>352.89023</ele>
        <time>2023-08-05T15:06:35.000Z</time>
      </trkpt>
      <trkpt lat="45.83547" lon="4.71021">
        <ele>352.92633</ele>
        <time>2023-08-05T15:06:36.000Z</time>
      </trkpt>
      <trkpt lat="45.83544" lon="4.71019">
        <ele>352.92068</ele>
        <time>2023-08-05T15:06:37.000Z</time>
      </trkpt>
      <trkpt lat="45.83542" lon="4.71017">
        <ele>352.7215</ele>
        <time>2023-08-05T15:06:38.000Z</time>
      </trkpt>
      <trkpt lat="45.83539" lon="4.71015">
        <ele>352.51248</ele>
        <time>2023-08-05T15:06:39.000Z</time>
      </trkpt>
      <trkpt lat="45.83537" lon="4.71013">
        <ele>352.29987</ele>
        <time>2023-08-05T15:06:40.000Z</time>
      </trkpt>
      <trkpt lat="45.83534" lon="4.71011">
        <ele>352.08719</ele>
        <time>2023-08-05T15:06:41.000Z</time>
      </trkpt>
      <trkpt lat="45.83532" lon="4.71009">
        <ele>351.88242</ele>
        <time>2023-08-05T15:06:42.000Z</time>
      </trkpt>
      <trkpt lat="45.83529" lon="4.71007">
        <ele>351.66913</ele>
        <time>2023-08-05T15:06:43.000Z</time>
      </trkpt>
      <trkpt lat="45.83527" lon="4.71005">
        <ele>351.4613</ele>
        <time>2023-08-05T15:06:44.000Z</time>
      </trkpt>
      <trkpt lat="45.83524" lon="4.71003">
        <ele>351.2493</ele>
        <time>2023-08-05T15:06:45.000Z</time>
      </trkpt>
      <trkpt lat="45.83522" lon="4.71001">
        <ele>351.03751</ele>
        <time>2023-08-05T15:06:46.000Z</time>
      </trkpt>
      <trkpt lat="45.8352" lon="4.70999">
        <ele>350.8078</ele>
        <time>2023-08-05T15:06:47.000Z</time>
      </trkpt>
      <trkpt lat="45.83518" lon="4.70997">
        <ele>350.59433</ele>
        <time>2023-08-05T15:06:48.000Z</time>
      </trkpt>
      <trkpt lat="45.83516" lon="4.70995">
        <ele>350.66016</ele>
        <time>2023-08-05T15:06:49.000Z</time>
      </trkpt>
      <trkpt lat="45.83513" lon="4.70993">
        <ele>350.68576</ele>
        <time>2023-08-05T15:06:50.000Z</time>
      </trkpt>
      <trkpt lat="45.83511" lon="4.70991">
        <ele>350.71451</ele>
        <time>2023-08-05T15:06:51.000Z</time>
      </trkpt>
      <trkpt lat="45.83508" lon="4.7099">
        <ele>350.83481</ele>
        <time>2023-08-05T15:06:52.000Z</time>
      </trkpt>
      <trkpt lat="45.83505" lon="4.70989">
        <ele>350.9426</ele>
        <time>2023-08-05T15:06:53.000Z</time>
      </trkpt>
      <trkpt lat="45.83502" lon="4.70988">
        <ele>351.02863</ele>
        <time>2023-08-05T15:06:54.000Z</time>
      </trkpt>
      <trkpt lat="45.83499" lon="4.70988">
        <ele>350.99933</ele>
        <time>2023-08-05T15:06:55.000Z</time>
      </trkpt>
      <trkpt lat="45.83495" lon="4.70988">
        <ele>351.01416</ele>
        <time>2023-08-05T15:06:56.000Z</time>
      </trkpt>
      <trkpt lat="45.83492" lon="4.70988">
        <ele>351.0441</ele>
        <time>2023-08-05T15:06:57.000Z</time>
      </trkpt>
      <trkpt lat="45.8349" lon="4.70988">
        <ele>351.2081</ele>
        <time>2023-08-05T15:06:58.000Z</time>
      </trkpt>
      <trkpt lat="45.83487" lon="4.70987">
        <ele>351.38736</ele>
        <time>2023-08-05T15:06:59.000Z</time>
      </trkpt>
      <trkpt lat="45.83485" lon="4.70987">
        <ele>351.55258</ele>
        <time>2023-08-05T15:07:00.000Z</time>
      </trkpt>
      <trkpt lat="45.83483" lon="4.70987">
        <ele>351.75092</ele>
        <time>2023-08-05T15:07:01.000Z</time>
      </trkpt>
      <trkpt lat="45.8348" lon="4.70987">
        <ele>352.01651</ele>
        <time>2023-08-05T15:07:02.000Z</time>
      </trkpt>
      <trkpt lat="45.83477" lon="4.70987">
        <ele>352.34363</ele>
        <time>2023-08-05T15:07:03.000Z</time>
      </trkpt>
      <trkpt lat="45.83475" lon="4.70987">
        <ele>352.75497</ele>
        <time>2023-08-05T15:07:04.000Z</time>
      </trkpt>
      <trkpt lat="45.83472" lon="4.70987">
        <ele>353.09198</ele>
        <time>2023-08-05T15:07:05.000Z</time>
      </trkpt>
      <trkpt lat="45.83469" lon="4.70987">
        <ele>353.46185</ele>
        <time>2023-08-05T15:07:06.000Z</time>
      </trkpt>
      <trkpt lat="45.83466" lon="4.70987">
        <ele>353.79938</ele>
        <time>2023-08-05T15:07:07.000Z</time>
      </trkpt>
      <trkpt lat="45.83463" lon="4.70988">
        <ele>354.13885</ele>
        <time>2023-08-05T15:07:08.000Z</time>
      </trkpt>
      <trkpt lat="45.8346" lon="4.70988">
        <ele>354.22256</ele>
        <time>2023-08-05T15:07:09.000Z</time>
      </trkpt>
      <trkpt lat="45.83457" lon="4.70988">
        <ele>354.34088</ele>
        <time>2023-08-05T15:07:10.000Z</time>
      </trkpt>
      <trkpt lat="45.83454" lon="4.70988">
        <ele>354.51132</ele>
        <time>2023-08-05T15:07:11.000Z</time>
      </trkpt>
      <trkpt lat="45.83451" lon="4.70988">
        <ele>354.62146</ele>
        <time>2023-08-05T15:07:12.000Z</time>
      </trkpt>
      <trkpt lat="45.83448" lon="4.70988">
        <ele>354.74701</ele>
        <time>2023-08-05T15:07:13.000Z</time>
      </trkpt>
      <trkpt lat="45.83446" lon="4.70988">
        <ele>354.90308</ele>
        <time>2023-08-05T15:07:14.000Z</time>
      </trkpt>
      <trkpt lat="45.83443" lon="4.70989">
        <ele>355.13748</ele>
        <time>2023-08-05T15:07:15.000Z</time>
      </trkpt>
      <trkpt lat="45.83441" lon="4.70989">
        <ele>355.37286</ele>
        <time>2023-08-05T15:07:16.000Z</time>
      </trkpt>
      <trkpt lat="45.83438" lon="4.70989">
        <ele>355.59613</ele>
        <time>2023-08-05T15:07:17.000Z</time>
      </trkpt>
      <trkpt lat="45.83436" lon="4.70988">
        <ele>355.9093</ele>
        <time>2023-08-05T15:07:18.000Z</time>
      </trkpt>
      <trkpt lat="45.83433" lon="4.70988">
        <ele>356.20844</ele>
        <time>2023-08-05T15:07:19.000Z</time>
      </trkpt>
      <trkpt lat="45.83431" lon="4.70988">
        <ele>356.48297</ele>
        <time>2023-08-05T15:07:20.000Z</time>
      </trkpt>
      <trkpt lat="45.83428" lon="4.70988">
        <ele>356.77927</ele>
        <time>2023-08-05T15:07:21.000Z</time>
      </trkpt>
      <trkpt lat="45.83425" lon="4.70988">
        <ele>356.96725</ele>
        <time>2023-08-05T15:07:22.000Z</time>
      </trkpt>
      <trkpt lat="45.83422" lon="4.70988">
        <ele>357.0997</ele>
        <time>2023-08-05T15:07:23.000Z</time>
      </trkpt>
      <trkpt lat="45.8342" lon="4.70989">
        <ele>357.15179</ele>
        <time>2023-08-05T15:07:24.000Z</time>
      </trkpt>
      <trkpt lat="45.83417" lon="4.70988">
        <ele>357.24945</ele>
        <time>2023-08-05T15:07:25.000Z</time>
      </trkpt>
      <trkpt lat="45.83414" lon="4.70988">
        <ele>357.29581</ele>
        <time>2023-08-05T15:07:26.000Z</time>
      </trkpt>
      <trkpt lat="45.83411" lon="4.70988">
        <ele>357.40186</ele>
        <time>2023-08-05T15:07:27.000Z</time>
      </trkpt>
      <trkpt lat="45.83408" lon="4.70987">
        <ele>357.49158</ele>
        <time>2023-08-05T15:07:28.000Z</time>
      </trkpt>
      <trkpt lat="45.83405" lon="4.70987">
        <ele>357.5744</ele>
        <time>2023-08-05T15:07:29.000Z</time>
      </trkpt>
      <trkpt lat="45.83402" lon="4.70987">
        <ele>357.64163</ele>
        <time>2023-08-05T15:07:30.000Z</time>
      </trkpt>
      <trkpt lat="45.83399" lon="4.70987">
        <ele>357.61829</ele>
        <time>2023-08-05T15:07:31.000Z</time>
      </trkpt>
      <trkpt lat="45.83396" lon="4.70988">
        <ele>357.60089</ele>
        <time>2023-08-05T15:07:32.000Z</time>
      </trkpt>
      <trkpt lat="45.83393" lon="4.70989">
        <ele>357.60663</ele>
        <time>2023-08-05T15:07:33.000Z</time>
      </trkpt>
      <trkpt lat="45.8339" lon="4.70991">
        <ele>357.63745</ele>
        <time>2023-08-05T15:07:34.000Z</time>
      </trkpt>
      <trkpt lat="45.83386" lon="4.70992">
        <ele>357.6915</ele>
        <time>2023-08-05T15:07:35.000Z</time>
      </trkpt>
      <trkpt lat="45.83383" lon="4.70993">
        <ele>357.69513</ele>
        <time>2023-08-05T15:07:36.000Z</time>
      </trkpt>
      <trkpt lat="45.83379" lon="4.70994">
        <ele>357.56558</ele>
        <time>2023-08-05T15:07:37.000Z</time>
      </trkpt>
      <trkpt lat="45.83376" lon="4.70994">
        <ele>357.43307</ele>
        <time>2023-08-05T15:07:38.000Z</time>
      </trkpt>
      <trkpt lat="45.83372" lon="4.70995">
        <ele>357.29865</ele>
        <time>2023-08-05T15:07:39.000Z</time>
      </trkpt>
      <trkpt lat="45.83369" lon="4.70995">
        <ele>357.18497</ele>
        <time>2023-08-05T15:07:40.000Z</time>
      </trkpt>
      <trkpt lat="45.83365" lon="4.70995">
        <ele>357.02798</ele>
        <time>2023-08-05T15:07:41.000Z</time>
      </trkpt>
      <trkpt lat="45.83362" lon="4.70996">
        <ele>356.88538</ele>
        <time>2023-08-05T15:07:42.000Z</time>
      </trkpt>
      <trkpt lat="45.83358" lon="4.70996">
        <ele>356.74213</ele>
        <time>2023-08-05T15:07:43.000Z</time>
      </trkpt>
      <trkpt lat="45.83355" lon="4.70996">
        <ele>356.59387</ele>
        <time>2023-08-05T15:07:44.000Z</time>
      </trkpt>
      <trkpt lat="45.83351" lon="4.70996">
        <ele>356.48071</ele>
        <time>2023-08-05T15:07:45.000Z</time>
      </trkpt>
      <trkpt lat="45.83348" lon="4.70996">
        <ele>356.37115</ele>
        <time>2023-08-05T15:07:46.000Z</time>
      </trkpt>
      <trkpt lat="45.83345" lon="4.70996">
        <ele>356.27014</ele>
        <time>2023-08-05T15:07:47.000Z</time>
      </trkpt>
      <trkpt lat="45.83342" lon="4.70997">
        <ele>356.17322</ele>
        <time>2023-08-05T15:07:48.000Z</time>
      </trkpt>
      <trkpt lat="45.83339" lon="4.70997">
        <ele>356.08652</ele>
        <time>2023-08-05T15:07:49.000Z</time>
      </trkpt>
      <trkpt lat="45.83336" lon="4.70998">
        <ele>356.01636</ele>
        <time>2023-08-05T15:07:50.000Z</time>
      </trkpt>
      <trkpt lat="45.83333" lon="4.70999">
        <ele>355.99512</ele>
        <time>2023-08-05T15:07:51.000Z</time>
      </trkpt>
      <trkpt lat="45.8333" lon="4.70999">
        <ele>355.98792</ele>
        <time>2023-08-05T15:07:52.000Z</time>
      </trkpt>
      <trkpt lat="45.83327" lon="4.71">
        <ele>355.95007</ele>
        <time>2023-08-05T15:07:53.000Z</time>
      </trkpt>
      <trkpt lat="45.83325" lon="4.70999">
        <ele>355.86685</ele>
        <time>2023-08-05T15:07:54.000Z</time>
      </trkpt>
      <trkpt lat="45.83322" lon="4.70998">
        <ele>355.79111</ele>
        <time>2023-08-05T15:07:55.000Z</time>
      </trkpt>
      <trkpt lat="45.83319" lon="4.70998">
        <ele>355.17291</ele>
        <time>2023-08-05T15:07:56.000Z</time>
      </trkpt>
      <trkpt lat="45.83315" lon="4.70998">
        <ele>354.67401</ele>
        <time>2023-08-05T15:07:57.000Z</time>
      </trkpt>
      <trkpt lat="45.83313" lon="4.70997">
        <ele>354.15918</ele>
        <time>2023-08-05T15:07:58.000Z</time>
      </trkpt>
      <trkpt lat="45.8331" lon="4.70994">
        <ele>353.65826</ele>
        <time>2023-08-05T15:07:59.000Z</time>
      </trkpt>
      <trkpt lat="45.83308" lon="4.70991">
        <ele>353.17798</ele>
        <time>2023-08-05T15:08:00.000Z</time>
      </trkpt>
      <trkpt lat="45.83306" lon="4.70987">
        <ele>352.68173</ele>
        <time>2023-08-05T15:08:01.000Z</time>
      </trkpt>
      <trkpt lat="45.83307" lon="4.70983">
        <ele>352.1886</ele>
        <time>2023-08-05T15:08:02.000Z</time>
      </trkpt>
      <trkpt lat="45.83307" lon="4.7098">
        <ele>351.6936</ele>
        <time>2023-08-05T15:08:03.000Z</time>
      </trkpt>
      <trkpt lat="45.83308" lon="4.70977">
        <ele>351.21118</ele>
        <time>2023-08-05T15:08:04.000Z</time>
      </trkpt>
      <trkpt lat="45.8331" lon="4.70974">
        <ele>350.73309</ele>
        <time>2023-08-05T15:08:05.000Z</time>
      </trkpt>
      <trkpt lat="45.83311" lon="4.7097">
        <ele>350.41656</ele>
        <time>2023-08-05T15:08:07.000Z</time>
      </trkpt>
      <trkpt lat="45.83313" lon="4.70968">
        <ele>350.08545</ele>
        <time>2023-08-05T15:08:08.000Z</time>
      </trkpt>
      <trkpt lat="45.83314" lon="4.70965">
        <ele>349.7392</ele>
        <time>2023-08-05T15:08:09.000Z</time>
      </trkpt>
      <trkpt lat="45.83316" lon="4.70962">
        <ele>349.379</ele>
        <time>2023-08-05T15:08:11.000Z</time>
      </trkpt>
    </trkseg>
  </trk>
</gpx>